<?xml version="1.0" encoding="UTF-8" standalone="no" ?><gpx xmlns="http://www.topografix.com/GPX/1/1" xmlns:gpxx="http://www.garmin.com/xmlschemas/GpxExtensions/v3" xmlns:gpxtpx="http://www.garmin.com/xmlschemas/TrackPointExtension/v1" creator="zumo 550" version="1.1" xmlns:xsi="http://www.w3.org/2001/XMLSchema-instance" xsi:schemaLocation="http://www.topografix.com/GPX/1/1 http://www.topografix.com/GPX/1/1/gpx.xsd http://www.garmin.com/xmlschemas/GpxExtensions/v3 http://www.garmin.com/xmlschemas/GpxExtensions/v3/GpxExtensionsv3.xsd"><metadata><link href="http://www.garmin.com"><text>Garmin International</text></link><time>2011-09-15T12:58:45Z</time></metadata><trk><name>ACTIVE LOG: 13 SEP 2011 17:05</name><trkseg><trkpt lat="43.263116" lon="-2.935455"><ele>47.24</ele><time>2011-09-13T15:05:46Z</time></trkpt><trkpt lat="43.263055" lon="-2.935541"><ele>37.15</ele><time>2011-09-13T15:05:57Z</time></trkpt><trkpt lat="43.262996" lon="-2.935586"><ele>37.15</ele><time>2011-09-13T15:05:58Z</time></trkpt><trkpt lat="43.262921" lon="-2.935583"><ele>37.15</ele><time>2011-09-13T15:05:59Z</time></trkpt><trkpt lat="43.262835" lon="-2.935552"><ele>36.67</ele><time>2011-09-13T15:06:00Z</time></trkpt><trkpt lat="43.262770" lon="-2.935467"><ele>39.07</ele><time>2011-09-13T15:06:01Z</time></trkpt><trkpt lat="43.262707" lon="-2.935394"><ele>38.59</ele><time>2011-09-13T15:06:02Z</time></trkpt><trkpt lat="43.262690" lon="-2.935295"><ele>37.63</ele><time>2011-09-13T15:06:03Z</time></trkpt><trkpt lat="43.262689" lon="-2.935204"><ele>37.15</ele><time>2011-09-13T15:06:04Z</time></trkpt><trkpt lat="43.262655" lon="-2.935122"><ele>33.78</ele><time>2011-09-13T15:06:05Z</time></trkpt><trkpt lat="43.262631" lon="-2.935038"><ele>30.90</ele><time>2011-09-13T15:06:06Z</time></trkpt><trkpt lat="43.262658" lon="-2.934950"><ele>28.50</ele><time>2011-09-13T15:06:07Z</time></trkpt><trkpt lat="43.262661" lon="-2.934877"><ele>26.09</ele><time>2011-09-13T15:06:08Z</time></trkpt><trkpt lat="43.262605" lon="-2.934739"><ele>23.69</ele><time>2011-09-13T15:06:10Z</time></trkpt><trkpt lat="43.262534" lon="-2.934606"><ele>25.61</ele><time>2011-09-13T15:06:11Z</time></trkpt><trkpt lat="43.262477" lon="-2.934575"><ele>24.17</ele><time>2011-09-13T15:06:12Z</time></trkpt><trkpt lat="43.262413" lon="-2.934567"><ele>24.17</ele><time>2011-09-13T15:06:13Z</time></trkpt><trkpt lat="43.262366" lon="-2.934530"><ele>24.17</ele><time>2011-09-13T15:06:14Z</time></trkpt><trkpt lat="43.262309" lon="-2.934509"><ele>24.17</ele><time>2011-09-13T15:06:15Z</time></trkpt><trkpt lat="43.262236" lon="-2.934508"><ele>23.21</ele><time>2011-09-13T15:06:16Z</time></trkpt><trkpt lat="43.262150" lon="-2.934502"><ele>23.21</ele><time>2011-09-13T15:06:17Z</time></trkpt><trkpt lat="43.261817" lon="-2.934323"><ele>24.65</ele><time>2011-09-13T15:06:22Z</time></trkpt><trkpt lat="43.261645" lon="-2.934269"><ele>24.17</ele><time>2011-09-13T15:06:25Z</time></trkpt><trkpt lat="43.261330" lon="-2.934016"><ele>27.05</ele><time>2011-09-13T15:06:31Z</time></trkpt><trkpt lat="43.261301" lon="-2.934052"><ele>26.57</ele><time>2011-09-13T15:06:32Z</time></trkpt><trkpt lat="43.261252" lon="-2.934084"><ele>26.09</ele><time>2011-09-13T15:06:33Z</time></trkpt><trkpt lat="43.261200" lon="-2.934094"><ele>25.61</ele><time>2011-09-13T15:06:34Z</time></trkpt><trkpt lat="43.261155" lon="-2.934093"><ele>26.57</ele><time>2011-09-13T15:06:35Z</time></trkpt><trkpt lat="43.261127" lon="-2.934094"><ele>28.50</ele><time>2011-09-13T15:06:36Z</time></trkpt><trkpt lat="43.261111" lon="-2.934092"><ele>30.90</ele><time>2011-09-13T15:06:37Z</time></trkpt><trkpt lat="43.261054" lon="-2.934078"><ele>54.45</ele><time>2011-09-13T15:06:45Z</time></trkpt><trkpt lat="43.260903" lon="-2.934176"><ele>73.68</ele><time>2011-09-13T15:06:57Z</time></trkpt><trkpt lat="43.260774" lon="-2.934211"><ele>80.41</ele><time>2011-09-13T15:07:14Z</time></trkpt><trkpt lat="43.260599" lon="-2.934348"><ele>74.64</ele><time>2011-09-13T15:07:22Z</time></trkpt><trkpt lat="43.260344" lon="-2.934486"><ele>73.68</ele><time>2011-09-13T15:07:33Z</time></trkpt><trkpt lat="43.260320" lon="-2.934481"><ele>74.16</ele><time>2011-09-13T15:07:34Z</time></trkpt><trkpt lat="43.260258" lon="-2.934511"><ele>72.24</ele><time>2011-09-13T15:07:43Z</time></trkpt><trkpt lat="43.260358" lon="-2.934510"><ele>73.20</ele><time>2011-09-13T15:07:48Z</time></trkpt><trkpt lat="43.260401" lon="-2.934507"><ele>71.27</ele><time>2011-09-13T15:07:49Z</time></trkpt><trkpt lat="43.260333" lon="-2.934488"><ele>61.18</ele><time>2011-09-13T15:08:08Z</time></trkpt><trkpt lat="43.260292" lon="-2.934519"><ele>66.47</ele><time>2011-09-13T15:08:15Z</time></trkpt><trkpt lat="43.260262" lon="-2.934540"><ele>67.91</ele><time>2011-09-13T15:08:16Z</time></trkpt><trkpt lat="43.259993" lon="-2.934636"><ele>65.03</ele><time>2011-09-13T15:08:22Z</time></trkpt><trkpt lat="43.259776" lon="-2.934712"><ele>56.37</ele><time>2011-09-13T15:08:24Z</time></trkpt><trkpt lat="43.259685" lon="-2.934758"><ele>53.49</ele><time>2011-09-13T15:08:25Z</time></trkpt><trkpt lat="43.259718" lon="-2.934784"><ele>52.53</ele><time>2011-09-13T15:08:26Z</time></trkpt><trkpt lat="43.259655" lon="-2.934850"><ele>56.37</ele><time>2011-09-13T15:08:30Z</time></trkpt><trkpt lat="43.259589" lon="-2.934850"><ele>56.37</ele><time>2011-09-13T15:08:31Z</time></trkpt><trkpt lat="43.259534" lon="-2.934855"><ele>55.41</ele><time>2011-09-13T15:08:32Z</time></trkpt><trkpt lat="43.259427" lon="-2.934975"><ele>51.09</ele><time>2011-09-13T15:08:43Z</time></trkpt><trkpt lat="43.259147" lon="-2.935087"><ele>59.26</ele><time>2011-09-13T15:08:49Z</time></trkpt><trkpt lat="43.258928" lon="-2.935082"><ele>53.01</ele><time>2011-09-13T15:08:52Z</time></trkpt><trkpt lat="43.258845" lon="-2.935089"><ele>53.97</ele><time>2011-09-13T15:08:53Z</time></trkpt><trkpt lat="43.258368" lon="-2.935194"><ele>74.64</ele><time>2011-09-13T15:08:59Z</time></trkpt><trkpt lat="43.258314" lon="-2.935253"><ele>76.56</ele><time>2011-09-13T15:09:00Z</time></trkpt><trkpt lat="43.258155" lon="-2.935386"><ele>71.27</ele><time>2011-09-13T15:09:02Z</time></trkpt><trkpt lat="43.258103" lon="-2.935442"><ele>71.76</ele><time>2011-09-13T15:09:03Z</time></trkpt><trkpt lat="43.257972" lon="-2.935531"><ele>67.43</ele><time>2011-09-13T15:09:05Z</time></trkpt><trkpt lat="43.257951" lon="-2.935586"><ele>63.58</ele><time>2011-09-13T15:09:06Z</time></trkpt><trkpt lat="43.257929" lon="-2.935623"><ele>60.70</ele><time>2011-09-13T15:09:07Z</time></trkpt><trkpt lat="43.257916" lon="-2.935653"><ele>57.34</ele><time>2011-09-13T15:09:08Z</time></trkpt><trkpt lat="43.257901" lon="-2.935675"><ele>55.41</ele><time>2011-09-13T15:09:09Z</time></trkpt><trkpt lat="43.257882" lon="-2.935667"><ele>53.49</ele><time>2011-09-13T15:09:11Z</time></trkpt><trkpt lat="43.257866" lon="-2.935648"><ele>53.97</ele><time>2011-09-13T15:09:12Z</time></trkpt><trkpt lat="43.257854" lon="-2.935626"><ele>54.93</ele><time>2011-09-13T15:09:13Z</time></trkpt><trkpt lat="43.257859" lon="-2.935535"><ele>67.43</ele><time>2011-09-13T15:09:31Z</time></trkpt><trkpt lat="43.258034" lon="-2.935415"><ele>60.22</ele><time>2011-09-13T15:11:12Z</time></trkpt><trkpt lat="43.257995" lon="-2.935463"><ele>65.99</ele><time>2011-09-13T15:13:04Z</time></trkpt></trkseg></trk><trk><name>ACTIVE LOG: 14 SEP 2011 08:57</name><trkseg><trkpt lat="43.259147" lon="-2.937698"><ele>23.69</ele><time>2011-09-14T06:57:59Z</time></trkpt><trkpt lat="43.259156" lon="-2.937694"><ele>23.21</ele><time>2011-09-14T06:58:02Z</time></trkpt><trkpt lat="43.259535" lon="-2.938116"><ele>21.29</ele><time>2011-09-14T06:58:12Z</time></trkpt><trkpt lat="43.259816" lon="-2.938433"><ele>20.81</ele><time>2011-09-14T06:58:21Z</time></trkpt><trkpt lat="43.259359" lon="-2.939263"><ele>34.26</ele><time>2011-09-14T06:58:37Z</time></trkpt><trkpt lat="43.259530" lon="-2.938943"><ele>37.15</ele><time>2011-09-14T06:58:44Z</time></trkpt><trkpt lat="43.259972" lon="-2.938171"><ele>40.51</ele><time>2011-09-14T06:58:48Z</time></trkpt><trkpt lat="43.260012" lon="-2.938090"><ele>40.99</ele><time>2011-09-14T06:58:49Z</time></trkpt><trkpt lat="43.260268" lon="-2.937662"><ele>53.49</ele><time>2011-09-14T06:58:52Z</time></trkpt><trkpt lat="43.260566" lon="-2.937116"><ele>93.39</ele><time>2011-09-14T06:59:00Z</time></trkpt><trkpt lat="43.260673" lon="-2.936956"><ele>109.25</ele><time>2011-09-14T06:59:02Z</time></trkpt><trkpt lat="43.260727" lon="-2.936775"><ele>115.50</ele><time>2011-09-14T06:59:06Z</time></trkpt><trkpt lat="43.260823" lon="-2.936598"><ele>103.00</ele><time>2011-09-14T06:59:10Z</time></trkpt><trkpt lat="43.260851" lon="-2.936606"><ele>101.56</ele><time>2011-09-14T06:59:11Z</time></trkpt><trkpt lat="43.260910" lon="-2.936582"><ele>98.19</ele><time>2011-09-14T06:59:13Z</time></trkpt><trkpt lat="43.260963" lon="-2.936625"><ele>81.85</ele><time>2011-09-14T06:59:21Z</time></trkpt><trkpt lat="43.261105" lon="-2.936536"><ele>73.68</ele><time>2011-09-14T06:59:52Z</time></trkpt><trkpt lat="43.260869" lon="-2.936764"><ele>65.51</ele><time>2011-09-14T07:00:13Z</time></trkpt><trkpt lat="43.260938" lon="-2.936699"><ele>66.47</ele><time>2011-09-14T07:00:15Z</time></trkpt><trkpt lat="43.260965" lon="-2.936655"><ele>66.95</ele><time>2011-09-14T07:00:16Z</time></trkpt><trkpt lat="43.260997" lon="-2.936612"><ele>68.39</ele><time>2011-09-14T07:00:17Z</time></trkpt><trkpt lat="43.261022" lon="-2.936599"><ele>70.31</ele><time>2011-09-14T07:00:18Z</time></trkpt><trkpt lat="43.261026" lon="-2.936643"><ele>71.76</ele><time>2011-09-14T07:00:19Z</time></trkpt><trkpt lat="43.261181" lon="-2.936778"><ele>74.64</ele><time>2011-09-14T07:00:23Z</time></trkpt><trkpt lat="43.261275" lon="-2.936782"><ele>74.64</ele><time>2011-09-14T07:00:24Z</time></trkpt><trkpt lat="43.261380" lon="-2.936770"><ele>74.64</ele><time>2011-09-14T07:00:25Z</time></trkpt><trkpt lat="43.261548" lon="-2.936696"><ele>75.12</ele><time>2011-09-14T07:00:26Z</time></trkpt><trkpt lat="43.261755" lon="-2.936793"><ele>76.08</ele><time>2011-09-14T07:00:27Z</time></trkpt><trkpt lat="43.262458" lon="-2.936540"><ele>81.85</ele><time>2011-09-14T07:00:32Z</time></trkpt><trkpt lat="43.262420" lon="-2.936461"><ele>79.45</ele><time>2011-09-14T07:00:34Z</time></trkpt><trkpt lat="43.262469" lon="-2.936443"><ele>84.25</ele><time>2011-09-14T07:00:35Z</time></trkpt><trkpt lat="43.262531" lon="-2.936415"><ele>90.98</ele><time>2011-09-14T07:00:36Z</time></trkpt><trkpt lat="43.262628" lon="-2.936438"><ele>97.71</ele><time>2011-09-14T07:00:37Z</time></trkpt><trkpt lat="43.262706" lon="-2.936461"><ele>98.19</ele><time>2011-09-14T07:00:38Z</time></trkpt><trkpt lat="43.262691" lon="-2.936631"><ele>95.31</ele><time>2011-09-14T07:00:39Z</time></trkpt><trkpt lat="43.262732" lon="-2.936709"><ele>95.31</ele><time>2011-09-14T07:00:40Z</time></trkpt><trkpt lat="43.262786" lon="-2.936729"><ele>97.71</ele><time>2011-09-14T07:00:41Z</time></trkpt><trkpt lat="43.262860" lon="-2.936747"><ele>96.75</ele><time>2011-09-14T07:00:42Z</time></trkpt><trkpt lat="43.262920" lon="-2.936740"><ele>96.75</ele><time>2011-09-14T07:00:43Z</time></trkpt><trkpt lat="43.263181" lon="-2.936339"><ele>96.27</ele><time>2011-09-14T07:00:44Z</time></trkpt><trkpt lat="43.263344" lon="-2.936211"><ele>97.23</ele><time>2011-09-14T07:00:45Z</time></trkpt><trkpt lat="43.263450" lon="-2.936168"><ele>94.35</ele><time>2011-09-14T07:00:46Z</time></trkpt><trkpt lat="43.263455" lon="-2.936188"><ele>90.02</ele><time>2011-09-14T07:00:47Z</time></trkpt><trkpt lat="43.263492" lon="-2.936051"><ele>84.73</ele><time>2011-09-14T07:00:49Z</time></trkpt><trkpt lat="43.263568" lon="-2.935957"><ele>85.21</ele><time>2011-09-14T07:00:50Z</time></trkpt><trkpt lat="43.263848" lon="-2.935875"><ele>87.62</ele><time>2011-09-14T07:00:54Z</time></trkpt><trkpt lat="43.263881" lon="-2.935896"><ele>88.58</ele><time>2011-09-14T07:00:55Z</time></trkpt><trkpt lat="43.263897" lon="-2.935839"><ele>90.02</ele><time>2011-09-14T07:00:56Z</time></trkpt><trkpt lat="43.263941" lon="-2.935826"><ele>89.54</ele><time>2011-09-14T07:00:57Z</time></trkpt><trkpt lat="43.263990" lon="-2.935819"><ele>88.10</ele><time>2011-09-14T07:00:58Z</time></trkpt><trkpt lat="43.264022" lon="-2.935844"><ele>84.73</ele><time>2011-09-14T07:00:59Z</time></trkpt><trkpt lat="43.264070" lon="-2.935780"><ele>82.81</ele><time>2011-09-14T07:01:15Z</time></trkpt><trkpt lat="43.264137" lon="-2.935679"><ele>113.57</ele><time>2011-09-14T07:01:37Z</time></trkpt><trkpt lat="43.264144" lon="-2.935650"><ele>125.11</ele><time>2011-09-14T07:02:01Z</time></trkpt><trkpt lat="43.264131" lon="-2.935674"><ele>119.34</ele><time>2011-09-14T07:02:04Z</time></trkpt><trkpt lat="43.264152" lon="-2.935665"><ele>118.86</ele><time>2011-09-14T07:02:05Z</time></trkpt><trkpt lat="43.264199" lon="-2.935634"><ele>119.82</ele><time>2011-09-14T07:02:06Z</time></trkpt><trkpt lat="43.264308" lon="-2.935596"><ele>116.94</ele><time>2011-09-14T07:02:08Z</time></trkpt><trkpt lat="43.264325" lon="-2.935662"><ele>115.01</ele><time>2011-09-14T07:02:09Z</time></trkpt><trkpt lat="43.264309" lon="-2.935750"><ele>109.73</ele><time>2011-09-14T07:02:10Z</time></trkpt><trkpt lat="43.264306" lon="-2.935852"><ele>105.40</ele><time>2011-09-14T07:02:11Z</time></trkpt><trkpt lat="43.264306" lon="-2.935960"><ele>98.19</ele><time>2011-09-14T07:02:12Z</time></trkpt><trkpt lat="43.264360" lon="-2.936057"><ele>91.46</ele><time>2011-09-14T07:02:13Z</time></trkpt><trkpt lat="43.264395" lon="-2.936127"><ele>88.10</ele><time>2011-09-14T07:02:14Z</time></trkpt><trkpt lat="43.264435" lon="-2.936178"><ele>87.14</ele><time>2011-09-14T07:02:15Z</time></trkpt><trkpt lat="43.264479" lon="-2.936240"><ele>85.69</ele><time>2011-09-14T07:02:16Z</time></trkpt><trkpt lat="43.264525" lon="-2.936290"><ele>84.25</ele><time>2011-09-14T07:02:17Z</time></trkpt><trkpt lat="43.264568" lon="-2.936338"><ele>84.73</ele><time>2011-09-14T07:02:18Z</time></trkpt><trkpt lat="43.264598" lon="-2.936356"><ele>84.25</ele><time>2011-09-14T07:02:19Z</time></trkpt><trkpt lat="43.264636" lon="-2.936364"><ele>82.33</ele><time>2011-09-14T07:02:20Z</time></trkpt><trkpt lat="43.264698" lon="-2.936336"><ele>80.41</ele><time>2011-09-14T07:02:21Z</time></trkpt><trkpt lat="43.264766" lon="-2.936278"><ele>78.97</ele><time>2011-09-14T07:02:22Z</time></trkpt><trkpt lat="43.264852" lon="-2.936186"><ele>79.93</ele><time>2011-09-14T07:02:23Z</time></trkpt><trkpt lat="43.265116" lon="-2.935933"><ele>80.41</ele><time>2011-09-14T07:02:26Z</time></trkpt><trkpt lat="43.265305" lon="-2.935722"><ele>66.95</ele><time>2011-09-14T07:02:31Z</time></trkpt><trkpt lat="43.265386" lon="-2.935591"><ele>64.07</ele><time>2011-09-14T07:02:32Z</time></trkpt><trkpt lat="43.265406" lon="-2.935557"><ele>63.58</ele><time>2011-09-14T07:02:33Z</time></trkpt><trkpt lat="43.265649" lon="-2.935349"><ele>65.99</ele><time>2011-09-14T07:02:35Z</time></trkpt><trkpt lat="43.265747" lon="-2.935278"><ele>65.99</ele><time>2011-09-14T07:02:36Z</time></trkpt><trkpt lat="43.265835" lon="-2.935246"><ele>65.03</ele><time>2011-09-14T07:02:37Z</time></trkpt><trkpt lat="43.265918" lon="-2.935206"><ele>65.03</ele><time>2011-09-14T07:02:38Z</time></trkpt><trkpt lat="43.265981" lon="-2.935194"><ele>65.51</ele><time>2011-09-14T07:02:39Z</time></trkpt><trkpt lat="43.266093" lon="-2.935327"><ele>47.24</ele><time>2011-09-14T07:02:46Z</time></trkpt><trkpt lat="43.266093" lon="-2.935350"><ele>45.32</ele><time>2011-09-14T07:02:48Z</time></trkpt><trkpt lat="43.266091" lon="-2.935361"><ele>45.32</ele><time>2011-09-14T07:02:49Z</time></trkpt><trkpt lat="43.266106" lon="-2.935368"><ele>45.80</ele><time>2011-09-14T07:02:50Z</time></trkpt><trkpt lat="43.266122" lon="-2.935396"><ele>44.84</ele><time>2011-09-14T07:02:51Z</time></trkpt><trkpt lat="43.266151" lon="-2.935418"><ele>42.44</ele><time>2011-09-14T07:02:52Z</time></trkpt><trkpt lat="43.266183" lon="-2.935451"><ele>40.51</ele><time>2011-09-14T07:02:53Z</time></trkpt><trkpt lat="43.266389" lon="-2.935403"><ele>40.03</ele><time>2011-09-14T07:03:02Z</time></trkpt><trkpt lat="43.266360" lon="-2.935219"><ele>34.26</ele><time>2011-09-14T07:03:04Z</time></trkpt><trkpt lat="43.266354" lon="-2.935104"><ele>32.34</ele><time>2011-09-14T07:03:05Z</time></trkpt><trkpt lat="43.266359" lon="-2.934945"><ele>30.90</ele><time>2011-09-14T07:03:06Z</time></trkpt><trkpt lat="43.266349" lon="-2.934802"><ele>29.94</ele><time>2011-09-14T07:03:07Z</time></trkpt><trkpt lat="43.266353" lon="-2.934638"><ele>31.86</ele><time>2011-09-14T07:03:08Z</time></trkpt><trkpt lat="43.266431" lon="-2.934399"><ele>31.38</ele><time>2011-09-14T07:03:09Z</time></trkpt><trkpt lat="43.266386" lon="-2.933595"><ele>37.15</ele><time>2011-09-14T07:03:18Z</time></trkpt><trkpt lat="43.266407" lon="-2.933545"><ele>41.47</ele><time>2011-09-14T07:03:19Z</time></trkpt><trkpt lat="43.266441" lon="-2.933499"><ele>46.76</ele><time>2011-09-14T07:03:20Z</time></trkpt><trkpt lat="43.266485" lon="-2.933483"><ele>51.09</ele><time>2011-09-14T07:03:21Z</time></trkpt><trkpt lat="43.266535" lon="-2.933461"><ele>54.93</ele><time>2011-09-14T07:03:22Z</time></trkpt><trkpt lat="43.266583" lon="-2.933421"><ele>59.74</ele><time>2011-09-14T07:03:23Z</time></trkpt><trkpt lat="43.266611" lon="-2.933392"><ele>63.58</ele><time>2011-09-14T07:03:24Z</time></trkpt><trkpt lat="43.266622" lon="-2.933381"><ele>66.47</ele><time>2011-09-14T07:03:25Z</time></trkpt><trkpt lat="43.266657" lon="-2.933305"><ele>79.45</ele><time>2011-09-14T07:03:43Z</time></trkpt><trkpt lat="43.266689" lon="-2.933317"><ele>78.00</ele><time>2011-09-14T07:03:55Z</time></trkpt><trkpt lat="43.266708" lon="-2.933330"><ele>77.52</ele><time>2011-09-14T07:03:56Z</time></trkpt><trkpt lat="43.266737" lon="-2.933339"><ele>77.04</ele><time>2011-09-14T07:03:57Z</time></trkpt><trkpt lat="43.266764" lon="-2.933359"><ele>75.60</ele><time>2011-09-14T07:03:58Z</time></trkpt><trkpt lat="43.266795" lon="-2.933381"><ele>74.16</ele><time>2011-09-14T07:03:59Z</time></trkpt><trkpt lat="43.266845" lon="-2.933396"><ele>72.72</ele><time>2011-09-14T07:04:00Z</time></trkpt><trkpt lat="43.266911" lon="-2.933403"><ele>71.27</ele><time>2011-09-14T07:04:01Z</time></trkpt><trkpt lat="43.267008" lon="-2.933421"><ele>72.72</ele><time>2011-09-14T07:04:03Z</time></trkpt><trkpt lat="43.267036" lon="-2.933471"><ele>71.27</ele><time>2011-09-14T07:04:04Z</time></trkpt><trkpt lat="43.267107" lon="-2.933478"><ele>70.31</ele><time>2011-09-14T07:04:05Z</time></trkpt><trkpt lat="43.267209" lon="-2.933436"><ele>69.83</ele><time>2011-09-14T07:04:06Z</time></trkpt><trkpt lat="43.267309" lon="-2.933393"><ele>68.39</ele><time>2011-09-14T07:04:07Z</time></trkpt><trkpt lat="43.267335" lon="-2.933417"><ele>67.43</ele><time>2011-09-14T07:04:08Z</time></trkpt><trkpt lat="43.267428" lon="-2.933446"><ele>63.10</ele><time>2011-09-14T07:04:09Z</time></trkpt><trkpt lat="43.267701" lon="-2.933289"><ele>56.37</ele><time>2011-09-14T07:04:11Z</time></trkpt><trkpt lat="43.267797" lon="-2.933139"><ele>53.97</ele><time>2011-09-14T07:04:12Z</time></trkpt><trkpt lat="43.267874" lon="-2.933043"><ele>52.05</ele><time>2011-09-14T07:04:13Z</time></trkpt><trkpt lat="43.267930" lon="-2.932981"><ele>49.16</ele><time>2011-09-14T07:04:14Z</time></trkpt><trkpt lat="43.267969" lon="-2.932942"><ele>47.24</ele><time>2011-09-14T07:04:15Z</time></trkpt><trkpt lat="43.267989" lon="-2.932919"><ele>45.80</ele><time>2011-09-14T07:04:16Z</time></trkpt><trkpt lat="43.267999" lon="-2.932903"><ele>43.88</ele><time>2011-09-14T07:04:17Z</time></trkpt><trkpt lat="43.268043" lon="-2.932830"><ele>39.07</ele><time>2011-09-14T07:04:23Z</time></trkpt><trkpt lat="43.268075" lon="-2.932344"><ele>32.34</ele><time>2011-09-14T07:04:31Z</time></trkpt><trkpt lat="43.268066" lon="-2.932275"><ele>31.38</ele><time>2011-09-14T07:04:32Z</time></trkpt><trkpt lat="43.268086" lon="-2.932215"><ele>31.86</ele><time>2011-09-14T07:04:33Z</time></trkpt><trkpt lat="43.267982" lon="-2.932034"><ele>26.09</ele><time>2011-09-14T07:04:40Z</time></trkpt><trkpt lat="43.267887" lon="-2.932040"><ele>19.36</ele><time>2011-09-14T07:04:55Z</time></trkpt><trkpt lat="43.267846" lon="-2.931705"><ele>16.48</ele><time>2011-09-14T07:05:05Z</time></trkpt><trkpt lat="43.267829" lon="-2.931645"><ele>16.48</ele><time>2011-09-14T07:05:06Z</time></trkpt><trkpt lat="43.267811" lon="-2.931582"><ele>16.48</ele><time>2011-09-14T07:05:07Z</time></trkpt><trkpt lat="43.267786" lon="-2.931525"><ele>16.48</ele><time>2011-09-14T07:05:08Z</time></trkpt><trkpt lat="43.267734" lon="-2.931537"><ele>17.44</ele><time>2011-09-14T07:05:09Z</time></trkpt><trkpt lat="43.267685" lon="-2.931528"><ele>17.92</ele><time>2011-09-14T07:05:10Z</time></trkpt><trkpt lat="43.267646" lon="-2.931522"><ele>18.40</ele><time>2011-09-14T07:05:11Z</time></trkpt><trkpt lat="43.267621" lon="-2.931493"><ele>17.92</ele><time>2011-09-14T07:05:12Z</time></trkpt><trkpt lat="43.267590" lon="-2.931480"><ele>17.44</ele><time>2011-09-14T07:05:13Z</time></trkpt><trkpt lat="43.267552" lon="-2.931469"><ele>17.44</ele><time>2011-09-14T07:05:14Z</time></trkpt><trkpt lat="43.267528" lon="-2.931438"><ele>19.36</ele><time>2011-09-14T07:05:15Z</time></trkpt><trkpt lat="43.267412" lon="-2.931464"><ele>50.61</ele><time>2011-09-14T07:05:26Z</time></trkpt><trkpt lat="43.267209" lon="-2.931559"><ele>73.68</ele><time>2011-09-14T07:05:33Z</time></trkpt><trkpt lat="43.267162" lon="-2.931605"><ele>76.56</ele><time>2011-09-14T07:05:34Z</time></trkpt><trkpt lat="43.267050" lon="-2.931675"><ele>78.00</ele><time>2011-09-14T07:05:36Z</time></trkpt><trkpt lat="43.267007" lon="-2.931682"><ele>78.97</ele><time>2011-09-14T07:05:37Z</time></trkpt><trkpt lat="43.266959" lon="-2.931671"><ele>82.33</ele><time>2011-09-14T07:05:38Z</time></trkpt><trkpt lat="43.266863" lon="-2.931657"><ele>86.66</ele><time>2011-09-14T07:05:40Z</time></trkpt><trkpt lat="43.266818" lon="-2.931689"><ele>84.25</ele><time>2011-09-14T07:05:41Z</time></trkpt><trkpt lat="43.266680" lon="-2.931823"><ele>72.72</ele><time>2011-09-14T07:05:44Z</time></trkpt><trkpt lat="43.266674" lon="-2.931863"><ele>70.31</ele><time>2011-09-14T07:05:45Z</time></trkpt><trkpt lat="43.266676" lon="-2.931925"><ele>67.91</ele><time>2011-09-14T07:05:46Z</time></trkpt><trkpt lat="43.266700" lon="-2.931973"><ele>65.99</ele><time>2011-09-14T07:05:47Z</time></trkpt><trkpt lat="43.266741" lon="-2.931991"><ele>64.07</ele><time>2011-09-14T07:05:48Z</time></trkpt><trkpt lat="43.266774" lon="-2.932019"><ele>61.18</ele><time>2011-09-14T07:05:49Z</time></trkpt><trkpt lat="43.266767" lon="-2.932052"><ele>60.22</ele><time>2011-09-14T07:05:50Z</time></trkpt><trkpt lat="43.266776" lon="-2.932093"><ele>57.82</ele><time>2011-09-14T07:05:51Z</time></trkpt><trkpt lat="43.266766" lon="-2.932187"><ele>54.93</ele><time>2011-09-14T07:05:52Z</time></trkpt><trkpt lat="43.266768" lon="-2.932255"><ele>51.09</ele><time>2011-09-14T07:05:53Z</time></trkpt><trkpt lat="43.266759" lon="-2.932306"><ele>50.13</ele><time>2011-09-14T07:05:54Z</time></trkpt><trkpt lat="43.266758" lon="-2.932377"><ele>41.95</ele><time>2011-09-14T07:06:00Z</time></trkpt><trkpt lat="43.266763" lon="-2.932394"><ele>41.95</ele><time>2011-09-14T07:06:01Z</time></trkpt><trkpt lat="43.266798" lon="-2.932498"><ele>40.51</ele><time>2011-09-14T07:06:05Z</time></trkpt><trkpt lat="43.266882" lon="-2.932855"><ele>34.74</ele><time>2011-09-14T07:06:14Z</time></trkpt><trkpt lat="43.266928" lon="-2.933024"><ele>29.94</ele><time>2011-09-14T07:06:23Z</time></trkpt><trkpt lat="43.266894" lon="-2.933153"><ele>35.71</ele><time>2011-09-14T07:06:41Z</time></trkpt><trkpt lat="43.266902" lon="-2.933169"><ele>34.74</ele><time>2011-09-14T07:06:42Z</time></trkpt><trkpt lat="43.266940" lon="-2.933335"><ele>32.34</ele><time>2011-09-14T07:06:46Z</time></trkpt><trkpt lat="43.266965" lon="-2.933369"><ele>33.30</ele><time>2011-09-14T07:06:47Z</time></trkpt><trkpt lat="43.267007" lon="-2.933590"><ele>32.82</ele><time>2011-09-14T07:06:49Z</time></trkpt><trkpt lat="43.267038" lon="-2.933667"><ele>31.86</ele><time>2011-09-14T07:06:50Z</time></trkpt><trkpt lat="43.267164" lon="-2.934301"><ele>30.42</ele><time>2011-09-14T07:06:58Z</time></trkpt><trkpt lat="43.267147" lon="-2.934311"><ele>29.46</ele><time>2011-09-14T07:07:11Z</time></trkpt><trkpt lat="43.267225" lon="-2.934326"><ele>23.69</ele><time>2011-09-14T07:07:56Z</time></trkpt><trkpt lat="43.267231" lon="-2.934341"><ele>24.65</ele><time>2011-09-14T07:07:57Z</time></trkpt><trkpt lat="43.267242" lon="-2.934375"><ele>25.13</ele><time>2011-09-14T07:07:58Z</time></trkpt><trkpt lat="43.267248" lon="-2.934445"><ele>25.13</ele><time>2011-09-14T07:07:59Z</time></trkpt><trkpt lat="43.267258" lon="-2.934513"><ele>25.13</ele><time>2011-09-14T07:08:00Z</time></trkpt><trkpt lat="43.267261" lon="-2.934586"><ele>25.13</ele><time>2011-09-14T07:08:01Z</time></trkpt><trkpt lat="43.267266" lon="-2.934648"><ele>25.13</ele><time>2011-09-14T07:08:02Z</time></trkpt><trkpt lat="43.267273" lon="-2.934707"><ele>25.13</ele><time>2011-09-14T07:08:03Z</time></trkpt><trkpt lat="43.267285" lon="-2.934756"><ele>26.09</ele><time>2011-09-14T07:08:04Z</time></trkpt><trkpt lat="43.267312" lon="-2.934772"><ele>26.09</ele><time>2011-09-14T07:08:05Z</time></trkpt><trkpt lat="43.267353" lon="-2.934756"><ele>26.09</ele><time>2011-09-14T07:08:06Z</time></trkpt><trkpt lat="43.267390" lon="-2.934722"><ele>25.61</ele><time>2011-09-14T07:08:07Z</time></trkpt><trkpt lat="43.267419" lon="-2.934676"><ele>25.13</ele><time>2011-09-14T07:08:08Z</time></trkpt><trkpt lat="43.267446" lon="-2.934629"><ele>24.17</ele><time>2011-09-14T07:08:09Z</time></trkpt><trkpt lat="43.267460" lon="-2.934581"><ele>23.69</ele><time>2011-09-14T07:08:10Z</time></trkpt><trkpt lat="43.267472" lon="-2.934531"><ele>23.21</ele><time>2011-09-14T07:08:11Z</time></trkpt><trkpt lat="43.267488" lon="-2.934479"><ele>22.73</ele><time>2011-09-14T07:08:12Z</time></trkpt><trkpt lat="43.267539" lon="-2.934311"><ele>20.32</ele><time>2011-09-14T07:08:22Z</time></trkpt><trkpt lat="43.267544" lon="-2.934277"><ele>18.88</ele><time>2011-09-14T07:09:08Z</time></trkpt><trkpt lat="43.267529" lon="-2.934284"><ele>15.52</ele><time>2011-09-14T07:09:47Z</time></trkpt><trkpt lat="43.267526" lon="-2.934285"><ele>15.52</ele><time>2011-09-14T07:10:16Z</time></trkpt><trkpt lat="43.267664" lon="-2.933980"><ele>19.84</ele><time>2011-09-14T07:10:47Z</time></trkpt><trkpt lat="43.267790" lon="-2.933625"><ele>17.92</ele><time>2011-09-14T07:10:52Z</time></trkpt><trkpt lat="43.267908" lon="-2.933010"><ele>18.40</ele><time>2011-09-14T07:11:00Z</time></trkpt><trkpt lat="43.267935" lon="-2.932948"><ele>18.40</ele><time>2011-09-14T07:11:01Z</time></trkpt><trkpt lat="43.267974" lon="-2.932897"><ele>18.88</ele><time>2011-09-14T07:11:02Z</time></trkpt><trkpt lat="43.268007" lon="-2.932853"><ele>19.84</ele><time>2011-09-14T07:11:03Z</time></trkpt><trkpt lat="43.268060" lon="-2.932818"><ele>20.32</ele><time>2011-09-14T07:11:04Z</time></trkpt><trkpt lat="43.268855" lon="-2.932234"><ele>25.61</ele><time>2011-09-14T07:11:16Z</time></trkpt><trkpt lat="43.269826" lon="-2.931317"><ele>33.30</ele><time>2011-09-14T07:11:28Z</time></trkpt><trkpt lat="43.270398" lon="-2.931119"><ele>37.63</ele><time>2011-09-14T07:11:33Z</time></trkpt><trkpt lat="43.270521" lon="-2.931117"><ele>38.59</ele><time>2011-09-14T07:11:34Z</time></trkpt><trkpt lat="43.270640" lon="-2.931130"><ele>39.55</ele><time>2011-09-14T07:11:35Z</time></trkpt><trkpt lat="43.270761" lon="-2.931156"><ele>40.51</ele><time>2011-09-14T07:11:36Z</time></trkpt><trkpt lat="43.270887" lon="-2.931198"><ele>40.99</ele><time>2011-09-14T07:11:37Z</time></trkpt><trkpt lat="43.271015" lon="-2.931256"><ele>41.95</ele><time>2011-09-14T07:11:38Z</time></trkpt><trkpt lat="43.271144" lon="-2.931330"><ele>42.44</ele><time>2011-09-14T07:11:39Z</time></trkpt><trkpt lat="43.271274" lon="-2.931420"><ele>42.92</ele><time>2011-09-14T07:11:40Z</time></trkpt><trkpt lat="43.271399" lon="-2.931521"><ele>43.88</ele><time>2011-09-14T07:11:41Z</time></trkpt><trkpt lat="43.271520" lon="-2.931624"><ele>43.88</ele><time>2011-09-14T07:11:42Z</time></trkpt><trkpt lat="43.272020" lon="-2.932033"><ele>46.76</ele><time>2011-09-14T07:11:46Z</time></trkpt><trkpt lat="43.272179" lon="-2.932066"><ele>47.24</ele><time>2011-09-14T07:11:47Z</time></trkpt><trkpt lat="43.284824" lon="-2.934937"><ele>72.24</ele><time>2011-09-14T07:13:00Z</time></trkpt><trkpt lat="43.285455" lon="-2.935882"><ele>68.39</ele><time>2011-09-14T07:13:09Z</time></trkpt><trkpt lat="43.285566" lon="-2.936063"><ele>66.47</ele><time>2011-09-14T07:13:16Z</time></trkpt><trkpt lat="43.285662" lon="-2.936181"><ele>61.18</ele><time>2011-09-14T07:13:46Z</time></trkpt><trkpt lat="43.285705" lon="-2.936246"><ele>61.66</ele><time>2011-09-14T07:13:47Z</time></trkpt><trkpt lat="43.285777" lon="-2.936313"><ele>62.14</ele><time>2011-09-14T07:13:48Z</time></trkpt><trkpt lat="43.285817" lon="-2.936315"><ele>64.07</ele><time>2011-09-14T07:13:49Z</time></trkpt><trkpt lat="43.285877" lon="-2.936337"><ele>64.55</ele><time>2011-09-14T07:13:50Z</time></trkpt><trkpt lat="43.286020" lon="-2.936383"><ele>65.99</ele><time>2011-09-14T07:13:53Z</time></trkpt><trkpt lat="43.286054" lon="-2.936412"><ele>65.99</ele><time>2011-09-14T07:13:54Z</time></trkpt><trkpt lat="43.286069" lon="-2.936449"><ele>66.47</ele><time>2011-09-14T07:13:55Z</time></trkpt><trkpt lat="43.286073" lon="-2.936486"><ele>66.47</ele><time>2011-09-14T07:13:56Z</time></trkpt><trkpt lat="43.286072" lon="-2.936516"><ele>66.95</ele><time>2011-09-14T07:13:57Z</time></trkpt><trkpt lat="43.286071" lon="-2.936535"><ele>67.43</ele><time>2011-09-14T07:14:10Z</time></trkpt></trkseg></trk><trk><name>ACTIVE LOG: 14 SEP 2011 09:15</name><trkseg><trkpt lat="43.286064" lon="-2.936533"><ele>68.87</ele><time>2011-09-14T07:15:58Z</time></trkpt><trkpt lat="43.286090" lon="-2.936763"><ele>66.95</ele><time>2011-09-14T07:18:18Z</time></trkpt><trkpt lat="43.286108" lon="-2.936866"><ele>66.47</ele><time>2011-09-14T07:18:19Z</time></trkpt><trkpt lat="43.286137" lon="-2.936968"><ele>66.47</ele><time>2011-09-14T07:18:20Z</time></trkpt><trkpt lat="43.286178" lon="-2.937063"><ele>66.47</ele><time>2011-09-14T07:18:21Z</time></trkpt><trkpt lat="43.286232" lon="-2.937151"><ele>65.99</ele><time>2011-09-14T07:18:22Z</time></trkpt><trkpt lat="43.286299" lon="-2.937219"><ele>65.99</ele><time>2011-09-14T07:18:23Z</time></trkpt><trkpt lat="43.286390" lon="-2.937248"><ele>65.99</ele><time>2011-09-14T07:18:24Z</time></trkpt><trkpt lat="43.286470" lon="-2.937211"><ele>65.99</ele><time>2011-09-14T07:18:25Z</time></trkpt><trkpt lat="43.286543" lon="-2.937134"><ele>65.51</ele><time>2011-09-14T07:18:26Z</time></trkpt><trkpt lat="43.286595" lon="-2.937016"><ele>65.03</ele><time>2011-09-14T07:18:27Z</time></trkpt><trkpt lat="43.286618" lon="-2.936888"><ele>64.55</ele><time>2011-09-14T07:18:28Z</time></trkpt><trkpt lat="43.286614" lon="-2.936753"><ele>64.07</ele><time>2011-09-14T07:18:29Z</time></trkpt><trkpt lat="43.286590" lon="-2.936606"><ele>63.10</ele><time>2011-09-14T07:18:30Z</time></trkpt><trkpt lat="43.286558" lon="-2.936446"><ele>62.14</ele><time>2011-09-14T07:18:31Z</time></trkpt><trkpt lat="43.286217" lon="-2.934749"><ele>53.01</ele><time>2011-09-14T07:18:39Z</time></trkpt><trkpt lat="43.285710" lon="-2.932021"><ele>44.36</ele><time>2011-09-14T07:18:50Z</time></trkpt><trkpt lat="43.285451" lon="-2.929851"><ele>39.55</ele><time>2011-09-14T07:18:57Z</time></trkpt><trkpt lat="43.285536" lon="-2.927446"><ele>31.38</ele><time>2011-09-14T07:19:04Z</time></trkpt><trkpt lat="43.286182" lon="-2.924882"><ele>26.57</ele><time>2011-09-14T07:19:12Z</time></trkpt><trkpt lat="43.287133" lon="-2.923061"><ele>28.50</ele><time>2011-09-14T07:19:19Z</time></trkpt><trkpt lat="43.288564" lon="-2.921311"><ele>31.86</ele><time>2011-09-14T07:19:28Z</time></trkpt><trkpt lat="43.289484" lon="-2.919638"><ele>35.23</ele><time>2011-09-14T07:19:35Z</time></trkpt><trkpt lat="43.289858" lon="-2.917822"><ele>36.19</ele><time>2011-09-14T07:19:41Z</time></trkpt><trkpt lat="43.289751" lon="-2.915962"><ele>35.71</ele><time>2011-09-14T07:19:47Z</time></trkpt><trkpt lat="43.289215" lon="-2.913356"><ele>34.74</ele><time>2011-09-14T07:19:56Z</time></trkpt><trkpt lat="43.289080" lon="-2.911282"><ele>34.26</ele><time>2011-09-14T07:20:02Z</time></trkpt><trkpt lat="43.289247" lon="-2.908571"><ele>34.74</ele><time>2011-09-14T07:20:11Z</time></trkpt><trkpt lat="43.289130" lon="-2.905479"><ele>35.71</ele><time>2011-09-14T07:20:21Z</time></trkpt><trkpt lat="43.288659" lon="-2.902979"><ele>37.15</ele><time>2011-09-14T07:20:29Z</time></trkpt><trkpt lat="43.288437" lon="-2.900758"><ele>38.59</ele><time>2011-09-14T07:20:35Z</time></trkpt><trkpt lat="43.288616" lon="-2.898769"><ele>40.03</ele><time>2011-09-14T07:20:41Z</time></trkpt><trkpt lat="43.288611" lon="-2.896481"><ele>41.47</ele><time>2011-09-14T07:20:48Z</time></trkpt><trkpt lat="43.287998" lon="-2.894694"><ele>43.40</ele><time>2011-09-14T07:20:54Z</time></trkpt><trkpt lat="43.286936" lon="-2.893322"><ele>48.20</ele><time>2011-09-14T07:21:00Z</time></trkpt><trkpt lat="43.285590" lon="-2.891404"><ele>54.93</ele><time>2011-09-14T07:21:08Z</time></trkpt><trkpt lat="43.284737" lon="-2.889157"><ele>54.93</ele><time>2011-09-14T07:21:16Z</time></trkpt><trkpt lat="43.283760" lon="-2.887119"><ele>49.16</ele><time>2011-09-14T07:21:23Z</time></trkpt><trkpt lat="43.282447" lon="-2.884691"><ele>43.88</ele><time>2011-09-14T07:21:32Z</time></trkpt><trkpt lat="43.281682" lon="-2.882116"><ele>46.28</ele><time>2011-09-14T07:21:40Z</time></trkpt><trkpt lat="43.280756" lon="-2.878974"><ele>51.09</ele><time>2011-09-14T07:21:50Z</time></trkpt><trkpt lat="43.279357" lon="-2.876397"><ele>56.86</ele><time>2011-09-14T07:21:59Z</time></trkpt><trkpt lat="43.279113" lon="-2.876280"><ele>57.82</ele><time>2011-09-14T07:22:00Z</time></trkpt><trkpt lat="43.277598" lon="-2.873715"><ele>67.43</ele><time>2011-09-14T07:22:10Z</time></trkpt><trkpt lat="43.276828" lon="-2.871310"><ele>74.16</ele><time>2011-09-14T07:22:18Z</time></trkpt><trkpt lat="43.275794" lon="-2.867643"><ele>83.29</ele><time>2011-09-14T07:22:30Z</time></trkpt><trkpt lat="43.273407" lon="-2.862673"><ele>89.06</ele><time>2011-09-14T07:22:48Z</time></trkpt><trkpt lat="43.272858" lon="-2.860120"><ele>88.10</ele><time>2011-09-14T07:22:56Z</time></trkpt><trkpt lat="43.272733" lon="-2.857200"><ele>86.18</ele><time>2011-09-14T07:23:05Z</time></trkpt><trkpt lat="43.272501" lon="-2.854696"><ele>85.21</ele><time>2011-09-14T07:23:12Z</time></trkpt><trkpt lat="43.271845" lon="-2.852405"><ele>85.21</ele><time>2011-09-14T07:23:18Z</time></trkpt><trkpt lat="43.270809" lon="-2.850422"><ele>88.58</ele><time>2011-09-14T07:23:24Z</time></trkpt><trkpt lat="43.269000" lon="-2.847979"><ele>96.75</ele><time>2011-09-14T07:23:33Z</time></trkpt><trkpt lat="43.268023" lon="-2.846239"><ele>101.56</ele><time>2011-09-14T07:23:39Z</time></trkpt><trkpt lat="43.267920" lon="-2.845926"><ele>102.04</ele><time>2011-09-14T07:23:40Z</time></trkpt><trkpt lat="43.267193" lon="-2.843358"><ele>105.88</ele><time>2011-09-14T07:23:48Z</time></trkpt><trkpt lat="43.266796" lon="-2.840394"><ele>112.13</ele><time>2011-09-14T07:23:57Z</time></trkpt><trkpt lat="43.266114" lon="-2.837533"><ele>117.90</ele><time>2011-09-14T07:24:06Z</time></trkpt><trkpt lat="43.264828" lon="-2.834229"><ele>119.34</ele><time>2011-09-14T07:24:17Z</time></trkpt><trkpt lat="43.264253" lon="-2.831645"><ele>116.46</ele><time>2011-09-14T07:24:25Z</time></trkpt><trkpt lat="43.264104" lon="-2.828644"><ele>111.17</ele><time>2011-09-14T07:24:34Z</time></trkpt><trkpt lat="43.263755" lon="-2.825272"><ele>104.44</ele><time>2011-09-14T07:24:44Z</time></trkpt><trkpt lat="43.262720" lon="-2.819638"><ele>96.27</ele><time>2011-09-14T07:25:01Z</time></trkpt><trkpt lat="43.262594" lon="-2.816068"><ele>90.50</ele><time>2011-09-14T07:25:11Z</time></trkpt><trkpt lat="43.262047" lon="-2.813683"><ele>85.69</ele><time>2011-09-14T07:25:18Z</time></trkpt><trkpt lat="43.261017" lon="-2.811416"><ele>78.00</ele><time>2011-09-14T07:25:25Z</time></trkpt><trkpt lat="43.259555" lon="-2.809538"><ele>74.16</ele><time>2011-09-14T07:25:32Z</time></trkpt><trkpt lat="43.257671" lon="-2.808099"><ele>73.68</ele><time>2011-09-14T07:25:40Z</time></trkpt><trkpt lat="43.253862" lon="-2.805513"><ele>73.20</ele><time>2011-09-14T07:25:56Z</time></trkpt><trkpt lat="43.251002" lon="-2.803396"><ele>67.91</ele><time>2011-09-14T07:26:09Z</time></trkpt><trkpt lat="43.249244" lon="-2.802993"><ele>70.31</ele><time>2011-09-14T07:26:16Z</time></trkpt><trkpt lat="43.247614" lon="-2.803352"><ele>71.27</ele><time>2011-09-14T07:26:22Z</time></trkpt><trkpt lat="43.245703" lon="-2.803585"><ele>72.72</ele><time>2011-09-14T07:26:29Z</time></trkpt><trkpt lat="43.243826" lon="-2.803023"><ele>70.31</ele><time>2011-09-14T07:26:36Z</time></trkpt><trkpt lat="43.241668" lon="-2.802097"><ele>65.99</ele><time>2011-09-14T07:26:45Z</time></trkpt><trkpt lat="43.239882" lon="-2.802039"><ele>65.51</ele><time>2011-09-14T07:26:52Z</time></trkpt><trkpt lat="43.237651" lon="-2.802150"><ele>65.03</ele><time>2011-09-14T07:27:01Z</time></trkpt><trkpt lat="43.236253" lon="-2.801411"><ele>63.58</ele><time>2011-09-14T07:27:07Z</time></trkpt><trkpt lat="43.236071" lon="-2.801204"><ele>63.58</ele><time>2011-09-14T07:27:08Z</time></trkpt><trkpt lat="43.235911" lon="-2.800960"><ele>64.07</ele><time>2011-09-14T07:27:09Z</time></trkpt><trkpt lat="43.235775" lon="-2.800690"><ele>65.03</ele><time>2011-09-14T07:27:10Z</time></trkpt><trkpt lat="43.235647" lon="-2.800405"><ele>65.51</ele><time>2011-09-14T07:27:11Z</time></trkpt><trkpt lat="43.235530" lon="-2.800110"><ele>65.51</ele><time>2011-09-14T07:27:12Z</time></trkpt><trkpt lat="43.235426" lon="-2.799800"><ele>65.03</ele><time>2011-09-14T07:27:13Z</time></trkpt><trkpt lat="43.235331" lon="-2.799482"><ele>64.55</ele><time>2011-09-14T07:27:14Z</time></trkpt><trkpt lat="43.234253" lon="-2.796675"><ele>66.47</ele><time>2011-09-14T07:27:23Z</time></trkpt><trkpt lat="43.232579" lon="-2.792745"><ele>73.68</ele><time>2011-09-14T07:27:36Z</time></trkpt><trkpt lat="43.231636" lon="-2.789460"><ele>79.93</ele><time>2011-09-14T07:27:46Z</time></trkpt><trkpt lat="43.231402" lon="-2.786496"><ele>84.73</ele><time>2011-09-14T07:27:54Z</time></trkpt><trkpt lat="43.231423" lon="-2.782509"><ele>89.54</ele><time>2011-09-14T07:28:04Z</time></trkpt><trkpt lat="43.231771" lon="-2.778478"><ele>88.58</ele><time>2011-09-14T07:28:15Z</time></trkpt><trkpt lat="43.231644" lon="-2.775868"><ele>87.14</ele><time>2011-09-14T07:28:22Z</time></trkpt><trkpt lat="43.231096" lon="-2.772652"><ele>93.87</ele><time>2011-09-14T07:28:31Z</time></trkpt><trkpt lat="43.231106" lon="-2.770117"><ele>99.63</ele><time>2011-09-14T07:28:38Z</time></trkpt><trkpt lat="43.231176" lon="-2.766309"><ele>100.11</ele><time>2011-09-14T07:28:48Z</time></trkpt><trkpt lat="43.230724" lon="-2.761335"><ele>102.04</ele><time>2011-09-14T07:29:01Z</time></trkpt><trkpt lat="43.230716" lon="-2.756687"><ele>104.44</ele><time>2011-09-14T07:29:13Z</time></trkpt><trkpt lat="43.230573" lon="-2.752855"><ele>105.40</ele><time>2011-09-14T07:29:23Z</time></trkpt><trkpt lat="43.229878" lon="-2.749926"><ele>103.48</ele><time>2011-09-14T07:29:31Z</time></trkpt><trkpt lat="43.228842" lon="-2.747666"><ele>98.67</ele><time>2011-09-14T07:29:38Z</time></trkpt><trkpt lat="43.227125" lon="-2.744206"><ele>95.31</ele><time>2011-09-14T07:29:49Z</time></trkpt><trkpt lat="43.226396" lon="-2.741266"><ele>94.83</ele><time>2011-09-14T07:29:57Z</time></trkpt><trkpt lat="43.225650" lon="-2.737642"><ele>85.21</ele><time>2011-09-14T07:30:07Z</time></trkpt><trkpt lat="43.224600" lon="-2.734497"><ele>78.48</ele><time>2011-09-14T07:30:16Z</time></trkpt><trkpt lat="43.223733" lon="-2.730914"><ele>83.77</ele><time>2011-09-14T07:30:26Z</time></trkpt><trkpt lat="43.222589" lon="-2.728468"><ele>84.73</ele><time>2011-09-14T07:30:34Z</time></trkpt><trkpt lat="43.221191" lon="-2.726908"><ele>84.73</ele><time>2011-09-14T07:30:41Z</time></trkpt><trkpt lat="43.219490" lon="-2.725925"><ele>83.77</ele><time>2011-09-14T07:30:48Z</time></trkpt><trkpt lat="43.217043" lon="-2.725248"><ele>79.45</ele><time>2011-09-14T07:30:57Z</time></trkpt><trkpt lat="43.215024" lon="-2.724346"><ele>81.85</ele><time>2011-09-14T07:31:05Z</time></trkpt><trkpt lat="43.213392" lon="-2.722815"><ele>82.81</ele><time>2011-09-14T07:31:12Z</time></trkpt><trkpt lat="43.212104" lon="-2.720682"><ele>82.33</ele><time>2011-09-14T07:31:19Z</time></trkpt><trkpt lat="43.211331" lon="-2.718231"><ele>82.33</ele><time>2011-09-14T07:31:26Z</time></trkpt><trkpt lat="43.211052" lon="-2.715643"><ele>85.21</ele><time>2011-09-14T07:31:33Z</time></trkpt><trkpt lat="43.210724" lon="-2.711981"><ele>85.69</ele><time>2011-09-14T07:31:43Z</time></trkpt><trkpt lat="43.209908" lon="-2.709578"><ele>85.21</ele><time>2011-09-14T07:31:50Z</time></trkpt><trkpt lat="43.208713" lon="-2.707652"><ele>88.10</ele><time>2011-09-14T07:31:57Z</time></trkpt><trkpt lat="43.206666" lon="-2.705480"><ele>97.71</ele><time>2011-09-14T07:32:07Z</time></trkpt><trkpt lat="43.204305" lon="-2.702664"><ele>105.88</ele><time>2011-09-14T07:32:19Z</time></trkpt><trkpt lat="43.202708" lon="-2.699725"><ele>101.08</ele><time>2011-09-14T07:32:29Z</time></trkpt><trkpt lat="43.201041" lon="-2.696020"><ele>89.54</ele><time>2011-09-14T07:32:41Z</time></trkpt><trkpt lat="43.199699" lon="-2.694274"><ele>87.14</ele><time>2011-09-14T07:32:48Z</time></trkpt><trkpt lat="43.198068" lon="-2.693062"><ele>89.06</ele><time>2011-09-14T07:32:55Z</time></trkpt><trkpt lat="43.196269" lon="-2.692468"><ele>93.87</ele><time>2011-09-14T07:33:02Z</time></trkpt><trkpt lat="43.193731" lon="-2.692008"><ele>101.08</ele><time>2011-09-14T07:33:12Z</time></trkpt><trkpt lat="43.192003" lon="-2.691013"><ele>103.96</ele><time>2011-09-14T07:33:19Z</time></trkpt><trkpt lat="43.190507" lon="-2.689424"><ele>103.00</ele><time>2011-09-14T07:33:26Z</time></trkpt><trkpt lat="43.189391" lon="-2.687328"><ele>100.11</ele><time>2011-09-14T07:33:33Z</time></trkpt><trkpt lat="43.188553" lon="-2.684588"><ele>99.63</ele><time>2011-09-14T07:33:41Z</time></trkpt><trkpt lat="43.187793" lon="-2.680707"><ele>101.56</ele><time>2011-09-14T07:33:52Z</time></trkpt><trkpt lat="43.187331" lon="-2.676091"><ele>102.04</ele><time>2011-09-14T07:34:05Z</time></trkpt><trkpt lat="43.186843" lon="-2.670618"><ele>96.75</ele><time>2011-09-14T07:34:20Z</time></trkpt><trkpt lat="43.186159" lon="-2.665746"><ele>102.52</ele><time>2011-09-14T07:34:33Z</time></trkpt><trkpt lat="43.185001" lon="-2.660526"><ele>116.94</ele><time>2011-09-14T07:34:47Z</time></trkpt><trkpt lat="43.183325" lon="-2.655267"><ele>120.30</ele><time>2011-09-14T07:35:02Z</time></trkpt><trkpt lat="43.181475" lon="-2.650224"><ele>116.94</ele><time>2011-09-14T07:35:17Z</time></trkpt><trkpt lat="43.180560" lon="-2.647029"><ele>117.90</ele><time>2011-09-14T07:35:27Z</time></trkpt><trkpt lat="43.180086" lon="-2.644955"><ele>121.26</ele><time>2011-09-14T07:35:35Z</time></trkpt><trkpt lat="43.179750" lon="-2.643242"><ele>124.63</ele><time>2011-09-14T07:35:44Z</time></trkpt><trkpt lat="43.179677" lon="-2.642843"><ele>125.59</ele><time>2011-09-14T07:35:51Z</time></trkpt><trkpt lat="43.179665" lon="-2.642740"><ele>126.07</ele><time>2011-09-14T07:36:01Z</time></trkpt><trkpt lat="43.179656" lon="-2.642663"><ele>124.15</ele><time>2011-09-14T07:36:11Z</time></trkpt><trkpt lat="43.179582" lon="-2.642044"><ele>125.59</ele><time>2011-09-14T07:36:17Z</time></trkpt><trkpt lat="43.179445" lon="-2.641015"><ele>126.55</ele><time>2011-09-14T07:36:23Z</time></trkpt><trkpt lat="43.179235" lon="-2.639275"><ele>127.99</ele><time>2011-09-14T07:36:30Z</time></trkpt><trkpt lat="43.179010" lon="-2.636504"><ele>127.99</ele><time>2011-09-14T07:36:39Z</time></trkpt><trkpt lat="43.178893" lon="-2.631953"><ele>126.07</ele><time>2011-09-14T07:36:53Z</time></trkpt><trkpt lat="43.178603" lon="-2.626715"><ele>137.13</ele><time>2011-09-14T07:37:09Z</time></trkpt><trkpt lat="43.178103" lon="-2.623868"><ele>144.34</ele><time>2011-09-14T07:37:18Z</time></trkpt><trkpt lat="43.177168" lon="-2.621412"><ele>149.62</ele><time>2011-09-14T07:37:27Z</time></trkpt><trkpt lat="43.175454" lon="-2.618029"><ele>149.14</ele><time>2011-09-14T07:37:40Z</time></trkpt><trkpt lat="43.173749" lon="-2.615158"><ele>142.41</ele><time>2011-09-14T07:37:51Z</time></trkpt><trkpt lat="43.172855" lon="-2.612705"><ele>134.24</ele><time>2011-09-14T07:37:59Z</time></trkpt><trkpt lat="43.171724" lon="-2.609936"><ele>133.76</ele><time>2011-09-14T07:38:08Z</time></trkpt><trkpt lat="43.170633" lon="-2.608237"><ele>140.49</ele><time>2011-09-14T07:38:15Z</time></trkpt><trkpt lat="43.169421" lon="-2.606151"><ele>145.30</ele><time>2011-09-14T07:38:25Z</time></trkpt><trkpt lat="43.168643" lon="-2.604008"><ele>144.34</ele><time>2011-09-14T07:38:34Z</time></trkpt><trkpt lat="43.167986" lon="-2.601059"><ele>138.57</ele><time>2011-09-14T07:38:44Z</time></trkpt><trkpt lat="43.167698" lon="-2.597962"><ele>136.64</ele><time>2011-09-14T07:38:53Z</time></trkpt><trkpt lat="43.167739" lon="-2.595118"><ele>140.49</ele><time>2011-09-14T07:39:01Z</time></trkpt><trkpt lat="43.168141" lon="-2.592300"><ele>146.26</ele><time>2011-09-14T07:39:10Z</time></trkpt><trkpt lat="43.169014" lon="-2.588268"><ele>152.03</ele><time>2011-09-14T07:39:23Z</time></trkpt><trkpt lat="43.169215" lon="-2.585517"><ele>153.95</ele><time>2011-09-14T07:39:31Z</time></trkpt><trkpt lat="43.168903" lon="-2.583040"><ele>157.31</ele><time>2011-09-14T07:39:38Z</time></trkpt><trkpt lat="43.167907" lon="-2.579339"><ele>169.81</ele><time>2011-09-14T07:39:49Z</time></trkpt><trkpt lat="43.167497" lon="-2.576562"><ele>175.10</ele><time>2011-09-14T07:39:57Z</time></trkpt><trkpt lat="43.167625" lon="-2.574045"><ele>174.14</ele><time>2011-09-14T07:40:04Z</time></trkpt><trkpt lat="43.168294" lon="-2.570510"><ele>168.85</ele><time>2011-09-14T07:40:14Z</time></trkpt><trkpt lat="43.168510" lon="-2.567602"><ele>169.33</ele><time>2011-09-14T07:40:22Z</time></trkpt><trkpt lat="43.168213" lon="-2.565085"><ele>173.17</ele><time>2011-09-14T07:40:29Z</time></trkpt><trkpt lat="43.167467" lon="-2.562172"><ele>177.02</ele><time>2011-09-14T07:40:38Z</time></trkpt><trkpt lat="43.167169" lon="-2.559449"><ele>178.94</ele><time>2011-09-14T07:40:46Z</time></trkpt><trkpt lat="43.167355" lon="-2.556353"><ele>184.71</ele><time>2011-09-14T07:40:55Z</time></trkpt><trkpt lat="43.167268" lon="-2.553145"><ele>194.32</ele><time>2011-09-14T07:41:04Z</time></trkpt><trkpt lat="43.167487" lon="-2.550557"><ele>198.65</ele><time>2011-09-14T07:41:11Z</time></trkpt><trkpt lat="43.167697" lon="-2.547265"><ele>205.86</ele><time>2011-09-14T07:41:20Z</time></trkpt><trkpt lat="43.167952" lon="-2.544898"><ele>213.07</ele><time>2011-09-14T07:41:27Z</time></trkpt><trkpt lat="43.168726" lon="-2.543155"><ele>219.80</ele><time>2011-09-14T07:41:33Z</time></trkpt><trkpt lat="43.170262" lon="-2.540871"><ele>229.41</ele><time>2011-09-14T07:41:42Z</time></trkpt><trkpt lat="43.171090" lon="-2.538745"><ele>236.62</ele><time>2011-09-14T07:41:49Z</time></trkpt><trkpt lat="43.171283" lon="-2.536609"><ele>241.43</ele><time>2011-09-14T07:41:56Z</time></trkpt><trkpt lat="43.171282" lon="-2.534847"><ele>242.87</ele><time>2011-09-14T07:42:02Z</time></trkpt><trkpt lat="43.171323" lon="-2.534561"><ele>242.39</ele><time>2011-09-14T07:42:03Z</time></trkpt><trkpt lat="43.171380" lon="-2.534282"><ele>242.39</ele><time>2011-09-14T07:42:04Z</time></trkpt><trkpt lat="43.171454" lon="-2.534012"><ele>242.39</ele><time>2011-09-14T07:42:05Z</time></trkpt><trkpt lat="43.171543" lon="-2.533752"><ele>242.39</ele><time>2011-09-14T07:42:06Z</time></trkpt><trkpt lat="43.171651" lon="-2.533505"><ele>242.39</ele><time>2011-09-14T07:42:07Z</time></trkpt><trkpt lat="43.171776" lon="-2.533273"><ele>242.39</ele><time>2011-09-14T07:42:08Z</time></trkpt><trkpt lat="43.171914" lon="-2.533054"><ele>242.39</ele><time>2011-09-14T07:42:09Z</time></trkpt><trkpt lat="43.172063" lon="-2.532845"><ele>242.87</ele><time>2011-09-14T07:42:10Z</time></trkpt><trkpt lat="43.176854" lon="-2.526609"><ele>245.27</ele><time>2011-09-14T07:42:42Z</time></trkpt><trkpt lat="43.176923" lon="-2.526320"><ele>244.79</ele><time>2011-09-14T07:42:43Z</time></trkpt><trkpt lat="43.176964" lon="-2.526021"><ele>243.83</ele><time>2011-09-14T07:42:44Z</time></trkpt><trkpt lat="43.176976" lon="-2.525707"><ele>242.87</ele><time>2011-09-14T07:42:45Z</time></trkpt><trkpt lat="43.176964" lon="-2.525389"><ele>242.39</ele><time>2011-09-14T07:42:46Z</time></trkpt><trkpt lat="43.176927" lon="-2.525074"><ele>241.43</ele><time>2011-09-14T07:42:47Z</time></trkpt><trkpt lat="43.176873" lon="-2.524756"><ele>240.47</ele><time>2011-09-14T07:42:48Z</time></trkpt><trkpt lat="43.176803" lon="-2.524442"><ele>239.51</ele><time>2011-09-14T07:42:49Z</time></trkpt><trkpt lat="43.176717" lon="-2.524127"><ele>239.02</ele><time>2011-09-14T07:42:50Z</time></trkpt><trkpt lat="43.175835" lon="-2.520740"><ele>227.01</ele><time>2011-09-14T07:43:00Z</time></trkpt><trkpt lat="43.175268" lon="-2.516971"><ele>214.51</ele><time>2011-09-14T07:43:11Z</time></trkpt><trkpt lat="43.174760" lon="-2.512018"><ele>198.17</ele><time>2011-09-14T07:43:25Z</time></trkpt><trkpt lat="43.174414" lon="-2.507761"><ele>191.44</ele><time>2011-09-14T07:43:37Z</time></trkpt><trkpt lat="43.174886" lon="-2.505914"><ele>189.52</ele><time>2011-09-14T07:43:43Z</time></trkpt><trkpt lat="43.175049" lon="-2.505661"><ele>189.04</ele><time>2011-09-14T07:43:44Z</time></trkpt><trkpt lat="43.175230" lon="-2.505421"><ele>188.08</ele><time>2011-09-14T07:43:45Z</time></trkpt><trkpt lat="43.176512" lon="-2.503317"><ele>179.90</ele><time>2011-09-14T07:43:53Z</time></trkpt><trkpt lat="43.176603" lon="-2.503009"><ele>178.94</ele><time>2011-09-14T07:43:54Z</time></trkpt><trkpt lat="43.176673" lon="-2.502694"><ele>177.98</ele><time>2011-09-14T07:43:55Z</time></trkpt><trkpt lat="43.176724" lon="-2.502375"><ele>177.50</ele><time>2011-09-14T07:43:56Z</time></trkpt><trkpt lat="43.176756" lon="-2.502054"><ele>176.54</ele><time>2011-09-14T07:43:57Z</time></trkpt><trkpt lat="43.176772" lon="-2.501729"><ele>175.58</ele><time>2011-09-14T07:43:58Z</time></trkpt><trkpt lat="43.176769" lon="-2.501401"><ele>174.62</ele><time>2011-09-14T07:43:59Z</time></trkpt><trkpt lat="43.176756" lon="-2.501075"><ele>174.14</ele><time>2011-09-14T07:44:00Z</time></trkpt><trkpt lat="43.176843" lon="-2.498509"><ele>167.89</ele><time>2011-09-14T07:44:08Z</time></trkpt><trkpt lat="43.177493" lon="-2.496333"><ele>165.96</ele><time>2011-09-14T07:44:15Z</time></trkpt><trkpt lat="43.177528" lon="-2.496006"><ele>165.96</ele><time>2011-09-14T07:44:16Z</time></trkpt><trkpt lat="43.177535" lon="-2.495679"><ele>165.48</ele><time>2011-09-14T07:44:17Z</time></trkpt><trkpt lat="43.177515" lon="-2.495353"><ele>165.48</ele><time>2011-09-14T07:44:18Z</time></trkpt><trkpt lat="43.177472" lon="-2.495030"><ele>165.48</ele><time>2011-09-14T07:44:19Z</time></trkpt><trkpt lat="43.177409" lon="-2.494711"><ele>165.48</ele><time>2011-09-14T07:44:20Z</time></trkpt><trkpt lat="43.177332" lon="-2.494395"><ele>165.48</ele><time>2011-09-14T07:44:21Z</time></trkpt><trkpt lat="43.177054" lon="-2.492166"><ele>165.96</ele><time>2011-09-14T07:44:28Z</time></trkpt><trkpt lat="43.177141" lon="-2.491513"><ele>165.48</ele><time>2011-09-14T07:44:30Z</time></trkpt><trkpt lat="43.177217" lon="-2.491197"><ele>165.48</ele><time>2011-09-14T07:44:31Z</time></trkpt><trkpt lat="43.177313" lon="-2.490892"><ele>165.96</ele><time>2011-09-14T07:44:32Z</time></trkpt><trkpt lat="43.177432" lon="-2.490603"><ele>165.48</ele><time>2011-09-14T07:44:33Z</time></trkpt><trkpt lat="43.177568" lon="-2.490326"><ele>165.48</ele><time>2011-09-14T07:44:34Z</time></trkpt><trkpt lat="43.177715" lon="-2.490057"><ele>165.48</ele><time>2011-09-14T07:44:35Z</time></trkpt><trkpt lat="43.178912" lon="-2.487488"><ele>164.52</ele><time>2011-09-14T07:44:44Z</time></trkpt><trkpt lat="43.179534" lon="-2.484898"><ele>164.52</ele><time>2011-09-14T07:44:52Z</time></trkpt><trkpt lat="43.180580" lon="-2.482564"><ele>166.93</ele><time>2011-09-14T07:45:00Z</time></trkpt><trkpt lat="43.181177" lon="-2.480324"><ele>173.17</ele><time>2011-09-14T07:45:07Z</time></trkpt><trkpt lat="43.181211" lon="-2.477956"><ele>178.94</ele><time>2011-09-14T07:45:14Z</time></trkpt><trkpt lat="43.180756" lon="-2.475667"><ele>185.67</ele><time>2011-09-14T07:45:21Z</time></trkpt><trkpt lat="43.180030" lon="-2.472950"><ele>191.44</ele><time>2011-09-14T07:45:30Z</time></trkpt><trkpt lat="43.180094" lon="-2.471306"><ele>191.92</ele><time>2011-09-14T07:45:35Z</time></trkpt><trkpt lat="43.180716" lon="-2.469355"><ele>188.56</ele><time>2011-09-14T07:45:41Z</time></trkpt><trkpt lat="43.181898" lon="-2.467903"><ele>182.79</ele><time>2011-09-14T07:45:47Z</time></trkpt><trkpt lat="43.182690" lon="-2.466970"><ele>177.50</ele><time>2011-09-14T07:45:51Z</time></trkpt><trkpt lat="43.182847" lon="-2.466691"><ele>176.06</ele><time>2011-09-14T07:45:52Z</time></trkpt><trkpt lat="43.182987" lon="-2.466395"><ele>175.10</ele><time>2011-09-14T07:45:53Z</time></trkpt><trkpt lat="43.183106" lon="-2.466079"><ele>173.66</ele><time>2011-09-14T07:45:54Z</time></trkpt><trkpt lat="43.183200" lon="-2.465732"><ele>172.69</ele><time>2011-09-14T07:45:55Z</time></trkpt><trkpt lat="43.183276" lon="-2.465384"><ele>171.73</ele><time>2011-09-14T07:45:56Z</time></trkpt><trkpt lat="43.183346" lon="-2.465039"><ele>170.77</ele><time>2011-09-14T07:45:57Z</time></trkpt><trkpt lat="43.184119" lon="-2.462787"><ele>163.56</ele><time>2011-09-14T07:46:04Z</time></trkpt><trkpt lat="43.185282" lon="-2.461352"><ele>158.27</ele><time>2011-09-14T07:46:10Z</time></trkpt><trkpt lat="43.187204" lon="-2.459543"><ele>149.62</ele><time>2011-09-14T07:46:19Z</time></trkpt><trkpt lat="43.188322" lon="-2.457554"><ele>142.89</ele><time>2011-09-14T07:46:26Z</time></trkpt><trkpt lat="43.188910" lon="-2.455282"><ele>137.13</ele><time>2011-09-14T07:46:33Z</time></trkpt><trkpt lat="43.188879" lon="-2.453327"><ele>133.28</ele><time>2011-09-14T07:46:39Z</time></trkpt><trkpt lat="43.188972" lon="-2.451827"><ele>131.36</ele><time>2011-09-14T07:46:45Z</time></trkpt><trkpt lat="43.189491" lon="-2.450225"><ele>123.67</ele><time>2011-09-14T07:46:53Z</time></trkpt><trkpt lat="43.190165" lon="-2.448536"><ele>117.90</ele><time>2011-09-14T07:47:00Z</time></trkpt><trkpt lat="43.190217" lon="-2.448219"><ele>116.94</ele><time>2011-09-14T07:47:01Z</time></trkpt><trkpt lat="43.190248" lon="-2.447890"><ele>116.46</ele><time>2011-09-14T07:47:02Z</time></trkpt><trkpt lat="43.190264" lon="-2.447553"><ele>115.50</ele><time>2011-09-14T07:47:03Z</time></trkpt><trkpt lat="43.190268" lon="-2.447209"><ele>114.53</ele><time>2011-09-14T07:47:04Z</time></trkpt><trkpt lat="43.190527" lon="-2.444912"><ele>110.21</ele><time>2011-09-14T07:47:11Z</time></trkpt><trkpt lat="43.191586" lon="-2.441723"><ele>106.84</ele><time>2011-09-14T07:47:21Z</time></trkpt><trkpt lat="43.192853" lon="-2.438810"><ele>109.25</ele><time>2011-09-14T07:47:31Z</time></trkpt><trkpt lat="43.193011" lon="-2.438588"><ele>109.25</ele><time>2011-09-14T07:47:32Z</time></trkpt><trkpt lat="43.193193" lon="-2.438395"><ele>108.77</ele><time>2011-09-14T07:47:33Z</time></trkpt><trkpt lat="43.193383" lon="-2.438218"><ele>108.77</ele><time>2011-09-14T07:47:34Z</time></trkpt><trkpt lat="43.193585" lon="-2.438063"><ele>108.29</ele><time>2011-09-14T07:47:35Z</time></trkpt><trkpt lat="43.193799" lon="-2.437929"><ele>107.81</ele><time>2011-09-14T07:47:36Z</time></trkpt><trkpt lat="43.194023" lon="-2.437813"><ele>106.84</ele><time>2011-09-14T07:47:37Z</time></trkpt><trkpt lat="43.194247" lon="-2.437703"><ele>105.88</ele><time>2011-09-14T07:47:38Z</time></trkpt><trkpt lat="43.195672" lon="-2.436546"><ele>98.19</ele><time>2011-09-14T07:47:45Z</time></trkpt><trkpt lat="43.197001" lon="-2.434525"><ele>90.98</ele><time>2011-09-14T07:47:53Z</time></trkpt><trkpt lat="43.198662" lon="-2.433072"><ele>87.62</ele><time>2011-09-14T07:48:01Z</time></trkpt><trkpt lat="43.200259" lon="-2.431759"><ele>85.69</ele><time>2011-09-14T07:48:09Z</time></trkpt><trkpt lat="43.200414" lon="-2.431516"><ele>85.21</ele><time>2011-09-14T07:48:10Z</time></trkpt><trkpt lat="43.200556" lon="-2.431253"><ele>85.21</ele><time>2011-09-14T07:48:11Z</time></trkpt><trkpt lat="43.200687" lon="-2.430975"><ele>85.21</ele><time>2011-09-14T07:48:12Z</time></trkpt><trkpt lat="43.201555" lon="-2.429009"><ele>84.25</ele><time>2011-09-14T07:48:19Z</time></trkpt><trkpt lat="43.202734" lon="-2.427478"><ele>81.37</ele><time>2011-09-14T07:48:26Z</time></trkpt><trkpt lat="43.203452" lon="-2.425773"><ele>77.04</ele><time>2011-09-14T07:48:32Z</time></trkpt><trkpt lat="43.204660" lon="-2.422697"><ele>71.27</ele><time>2011-09-14T07:48:42Z</time></trkpt><trkpt lat="43.205829" lon="-2.421057"><ele>72.24</ele><time>2011-09-14T07:48:48Z</time></trkpt><trkpt lat="43.207145" lon="-2.419264"><ele>77.04</ele><time>2011-09-14T07:48:55Z</time></trkpt><trkpt lat="43.207848" lon="-2.417533"><ele>82.33</ele><time>2011-09-14T07:49:01Z</time></trkpt><trkpt lat="43.208282" lon="-2.416835"><ele>84.73</ele><time>2011-09-14T07:49:04Z</time></trkpt><trkpt lat="43.208460" lon="-2.416649"><ele>85.21</ele><time>2011-09-14T07:49:05Z</time></trkpt><trkpt lat="43.208660" lon="-2.416497"><ele>85.69</ele><time>2011-09-14T07:49:06Z</time></trkpt><trkpt lat="43.208868" lon="-2.416367"><ele>86.18</ele><time>2011-09-14T07:49:07Z</time></trkpt><trkpt lat="43.209082" lon="-2.416264"><ele>86.66</ele><time>2011-09-14T07:49:08Z</time></trkpt><trkpt lat="43.209302" lon="-2.416190"><ele>87.14</ele><time>2011-09-14T07:49:09Z</time></trkpt><trkpt lat="43.209526" lon="-2.416147"><ele>87.62</ele><time>2011-09-14T07:49:10Z</time></trkpt><trkpt lat="43.209749" lon="-2.416123"><ele>87.62</ele><time>2011-09-14T07:49:11Z</time></trkpt><trkpt lat="43.209971" lon="-2.416111"><ele>87.62</ele><time>2011-09-14T07:49:12Z</time></trkpt><trkpt lat="43.211699" lon="-2.415711"><ele>85.21</ele><time>2011-09-14T07:49:20Z</time></trkpt><trkpt lat="43.211860" lon="-2.415543"><ele>84.73</ele><time>2011-09-14T07:49:21Z</time></trkpt><trkpt lat="43.212013" lon="-2.415366"><ele>83.77</ele><time>2011-09-14T07:49:22Z</time></trkpt><trkpt lat="43.212158" lon="-2.415178"><ele>83.29</ele><time>2011-09-14T07:49:23Z</time></trkpt><trkpt lat="43.212294" lon="-2.414972"><ele>82.81</ele><time>2011-09-14T07:49:24Z</time></trkpt><trkpt lat="43.212421" lon="-2.414752"><ele>82.33</ele><time>2011-09-14T07:49:25Z</time></trkpt><trkpt lat="43.212534" lon="-2.414517"><ele>81.85</ele><time>2011-09-14T07:49:26Z</time></trkpt><trkpt lat="43.212631" lon="-2.414266"><ele>81.37</ele><time>2011-09-14T07:49:27Z</time></trkpt><trkpt lat="43.212716" lon="-2.414005"><ele>80.89</ele><time>2011-09-14T07:49:28Z</time></trkpt><trkpt lat="43.212785" lon="-2.413733"><ele>80.41</ele><time>2011-09-14T07:49:29Z</time></trkpt><trkpt lat="43.212842" lon="-2.413454"><ele>79.93</ele><time>2011-09-14T07:49:30Z</time></trkpt><trkpt lat="43.212891" lon="-2.413172"><ele>79.45</ele><time>2011-09-14T07:49:31Z</time></trkpt><trkpt lat="43.213401" lon="-2.410965"><ele>75.12</ele><time>2011-09-14T07:49:39Z</time></trkpt><trkpt lat="43.214317" lon="-2.409398"><ele>75.12</ele><time>2011-09-14T07:49:45Z</time></trkpt><trkpt lat="43.215561" lon="-2.408315"><ele>78.00</ele><time>2011-09-14T07:49:51Z</time></trkpt><trkpt lat="43.217687" lon="-2.406536"><ele>78.48</ele><time>2011-09-14T07:50:01Z</time></trkpt><trkpt lat="43.218891" lon="-2.404560"><ele>70.31</ele><time>2011-09-14T07:50:08Z</time></trkpt><trkpt lat="43.220144" lon="-2.403270"><ele>64.07</ele><time>2011-09-14T07:50:14Z</time></trkpt><trkpt lat="43.221651" lon="-2.402647"><ele>60.22</ele><time>2011-09-14T07:50:20Z</time></trkpt><trkpt lat="43.223771" lon="-2.402686"><ele>62.62</ele><time>2011-09-14T07:50:28Z</time></trkpt><trkpt lat="43.226441" lon="-2.402927"><ele>68.39</ele><time>2011-09-14T07:50:38Z</time></trkpt><trkpt lat="43.229089" lon="-2.402947"><ele>55.89</ele><time>2011-09-14T07:50:48Z</time></trkpt><trkpt lat="43.231069" lon="-2.403719"><ele>46.76</ele><time>2011-09-14T07:50:56Z</time></trkpt><trkpt lat="43.232941" lon="-2.404601"><ele>38.59</ele><time>2011-09-14T07:51:04Z</time></trkpt><trkpt lat="43.234180" lon="-2.404400"><ele>33.78</ele><time>2011-09-14T07:51:09Z</time></trkpt><trkpt lat="43.235483" lon="-2.403331"><ele>34.26</ele><time>2011-09-14T07:51:15Z</time></trkpt><trkpt lat="43.236592" lon="-2.401420"><ele>43.88</ele><time>2011-09-14T07:51:22Z</time></trkpt><trkpt lat="43.238035" lon="-2.399286"><ele>51.09</ele><time>2011-09-14T07:51:31Z</time></trkpt><trkpt lat="43.238661" lon="-2.398913"><ele>50.61</ele><time>2011-09-14T07:51:34Z</time></trkpt><trkpt lat="43.238889" lon="-2.398841"><ele>50.13</ele><time>2011-09-14T07:51:35Z</time></trkpt><trkpt lat="43.239124" lon="-2.398792"><ele>48.68</ele><time>2011-09-14T07:51:36Z</time></trkpt><trkpt lat="43.239364" lon="-2.398771"><ele>47.72</ele><time>2011-09-14T07:51:37Z</time></trkpt><trkpt lat="43.239606" lon="-2.398773"><ele>47.24</ele><time>2011-09-14T07:51:38Z</time></trkpt><trkpt lat="43.239849" lon="-2.398805"><ele>46.28</ele><time>2011-09-14T07:51:39Z</time></trkpt><trkpt lat="43.240092" lon="-2.398865"><ele>45.32</ele><time>2011-09-14T07:51:40Z</time></trkpt><trkpt lat="43.240335" lon="-2.398935"><ele>44.36</ele><time>2011-09-14T07:51:41Z</time></trkpt><trkpt lat="43.242147" lon="-2.399005"><ele>35.23</ele><time>2011-09-14T07:51:48Z</time></trkpt><trkpt lat="43.242836" lon="-2.398544"><ele>35.71</ele><time>2011-09-14T07:51:51Z</time></trkpt><trkpt lat="43.243032" lon="-2.398322"><ele>36.19</ele><time>2011-09-14T07:51:52Z</time></trkpt><trkpt lat="43.243218" lon="-2.398082"><ele>36.19</ele><time>2011-09-14T07:51:53Z</time></trkpt><trkpt lat="43.243392" lon="-2.397825"><ele>36.19</ele><time>2011-09-14T07:51:54Z</time></trkpt><trkpt lat="43.243558" lon="-2.397557"><ele>36.19</ele><time>2011-09-14T07:51:55Z</time></trkpt><trkpt lat="43.243727" lon="-2.397293"><ele>36.19</ele><time>2011-09-14T07:51:56Z</time></trkpt><trkpt lat="43.245300" lon="-2.395420"><ele>32.82</ele><time>2011-09-14T07:52:04Z</time></trkpt><trkpt lat="43.247174" lon="-2.394180"><ele>28.02</ele><time>2011-09-14T07:52:12Z</time></trkpt><trkpt lat="43.249326" lon="-2.393353"><ele>28.98</ele><time>2011-09-14T07:52:21Z</time></trkpt><trkpt lat="43.250575" lon="-2.392251"><ele>35.71</ele><time>2011-09-14T07:52:27Z</time></trkpt><trkpt lat="43.251778" lon="-2.390499"><ele>41.95</ele><time>2011-09-14T07:52:34Z</time></trkpt><trkpt lat="43.252811" lon="-2.389794"><ele>42.92</ele><time>2011-09-14T07:52:39Z</time></trkpt><trkpt lat="43.253052" lon="-2.389740"><ele>42.92</ele><time>2011-09-14T07:52:40Z</time></trkpt><trkpt lat="43.253318" lon="-2.389743"><ele>42.92</ele><time>2011-09-14T07:52:41Z</time></trkpt><trkpt lat="43.253568" lon="-2.389755"><ele>41.95</ele><time>2011-09-14T07:52:42Z</time></trkpt><trkpt lat="43.253811" lon="-2.389770"><ele>41.47</ele><time>2011-09-14T07:52:43Z</time></trkpt><trkpt lat="43.255048" lon="-2.389696"><ele>40.03</ele><time>2011-09-14T07:52:48Z</time></trkpt><trkpt lat="43.255283" lon="-2.389600"><ele>39.55</ele><time>2011-09-14T07:52:49Z</time></trkpt><trkpt lat="43.255510" lon="-2.389476"><ele>39.07</ele><time>2011-09-14T07:52:50Z</time></trkpt><trkpt lat="43.255726" lon="-2.389322"><ele>39.07</ele><time>2011-09-14T07:52:51Z</time></trkpt><trkpt lat="43.255929" lon="-2.389140"><ele>38.59</ele><time>2011-09-14T07:52:52Z</time></trkpt><trkpt lat="43.256118" lon="-2.388930"><ele>38.59</ele><time>2011-09-14T07:52:53Z</time></trkpt><trkpt lat="43.256295" lon="-2.388698"><ele>38.11</ele><time>2011-09-14T07:52:54Z</time></trkpt><trkpt lat="43.256462" lon="-2.388445"><ele>37.63</ele><time>2011-09-14T07:52:55Z</time></trkpt><trkpt lat="43.256597" lon="-2.388148"><ele>37.63</ele><time>2011-09-14T07:52:56Z</time></trkpt><trkpt lat="43.256714" lon="-2.387845"><ele>37.15</ele><time>2011-09-14T07:52:57Z</time></trkpt><trkpt lat="43.256813" lon="-2.387527"><ele>37.15</ele><time>2011-09-14T07:52:58Z</time></trkpt><trkpt lat="43.256896" lon="-2.387195"><ele>36.67</ele><time>2011-09-14T07:52:59Z</time></trkpt><trkpt lat="43.256969" lon="-2.386855"><ele>36.67</ele><time>2011-09-14T07:53:00Z</time></trkpt><trkpt lat="43.257801" lon="-2.384313"><ele>33.78</ele><time>2011-09-14T07:53:08Z</time></trkpt><trkpt lat="43.259327" lon="-2.381399"><ele>24.17</ele><time>2011-09-14T07:53:18Z</time></trkpt><trkpt lat="43.260699" lon="-2.378496"><ele>21.77</ele><time>2011-09-14T07:53:28Z</time></trkpt><trkpt lat="43.261529" lon="-2.377235"><ele>25.13</ele><time>2011-09-14T07:53:33Z</time></trkpt><trkpt lat="43.262888" lon="-2.375717"><ele>30.90</ele><time>2011-09-14T07:53:40Z</time></trkpt><trkpt lat="43.263033" lon="-2.375453"><ele>31.86</ele><time>2011-09-14T07:53:41Z</time></trkpt><trkpt lat="43.264050" lon="-2.373200"><ele>42.92</ele><time>2011-09-14T07:53:49Z</time></trkpt><trkpt lat="43.265409" lon="-2.371700"><ele>50.13</ele><time>2011-09-14T07:53:56Z</time></trkpt><trkpt lat="43.265680" lon="-2.371588"><ele>51.09</ele><time>2011-09-14T07:53:57Z</time></trkpt><trkpt lat="43.265950" lon="-2.371489"><ele>52.05</ele><time>2011-09-14T07:53:58Z</time></trkpt><trkpt lat="43.266208" lon="-2.371393"><ele>53.01</ele><time>2011-09-14T07:53:59Z</time></trkpt><trkpt lat="43.266468" lon="-2.371311"><ele>53.49</ele><time>2011-09-14T07:54:00Z</time></trkpt><trkpt lat="43.268041" lon="-2.371128"><ele>55.89</ele><time>2011-09-14T07:54:06Z</time></trkpt><trkpt lat="43.269312" lon="-2.370956"><ele>62.62</ele><time>2011-09-14T07:54:11Z</time></trkpt><trkpt lat="43.269541" lon="-2.370835"><ele>64.07</ele><time>2011-09-14T07:54:12Z</time></trkpt><trkpt lat="43.269758" lon="-2.370684"><ele>65.51</ele><time>2011-09-14T07:54:13Z</time></trkpt><trkpt lat="43.269960" lon="-2.370506"><ele>66.95</ele><time>2011-09-14T07:54:14Z</time></trkpt><trkpt lat="43.270153" lon="-2.370307"><ele>68.39</ele><time>2011-09-14T07:54:15Z</time></trkpt><trkpt lat="43.270325" lon="-2.370081"><ele>69.35</ele><time>2011-09-14T07:54:16Z</time></trkpt><trkpt lat="43.270479" lon="-2.369829"><ele>70.79</ele><time>2011-09-14T07:54:17Z</time></trkpt><trkpt lat="43.270629" lon="-2.369567"><ele>72.24</ele><time>2011-09-14T07:54:18Z</time></trkpt><trkpt lat="43.271275" lon="-2.368589"><ele>77.04</ele><time>2011-09-14T07:54:22Z</time></trkpt><trkpt lat="43.271466" lon="-2.368394"><ele>78.00</ele><time>2011-09-14T07:54:23Z</time></trkpt><trkpt lat="43.271672" lon="-2.368225"><ele>78.97</ele><time>2011-09-14T07:54:24Z</time></trkpt><trkpt lat="43.271890" lon="-2.368074"><ele>79.93</ele><time>2011-09-14T07:54:25Z</time></trkpt><trkpt lat="43.272117" lon="-2.367936"><ele>80.89</ele><time>2011-09-14T07:54:26Z</time></trkpt><trkpt lat="43.273574" lon="-2.366754"><ele>89.06</ele><time>2011-09-14T07:54:33Z</time></trkpt><trkpt lat="43.274875" lon="-2.365432"><ele>96.27</ele><time>2011-09-14T07:54:40Z</time></trkpt><trkpt lat="43.279398" lon="-2.361781"><ele>118.86</ele><time>2011-09-14T07:55:03Z</time></trkpt><trkpt lat="43.281341" lon="-2.359559"><ele>130.88</ele><time>2011-09-14T07:55:14Z</time></trkpt><trkpt lat="43.283548" lon="-2.357700"><ele>138.57</ele><time>2011-09-14T07:55:25Z</time></trkpt><trkpt lat="43.285464" lon="-2.355952"><ele>146.26</ele><time>2011-09-14T07:55:35Z</time></trkpt><trkpt lat="43.286090" lon="-2.354620"><ele>149.62</ele><time>2011-09-14T07:55:40Z</time></trkpt><trkpt lat="43.286152" lon="-2.354326"><ele>150.10</ele><time>2011-09-14T07:55:41Z</time></trkpt><trkpt lat="43.286194" lon="-2.354025"><ele>150.10</ele><time>2011-09-14T07:55:42Z</time></trkpt><trkpt lat="43.286220" lon="-2.353718"><ele>150.10</ele><time>2011-09-14T07:55:43Z</time></trkpt><trkpt lat="43.286219" lon="-2.353400"><ele>150.10</ele><time>2011-09-14T07:55:44Z</time></trkpt><trkpt lat="43.286200" lon="-2.353080"><ele>149.62</ele><time>2011-09-14T07:55:45Z</time></trkpt><trkpt lat="43.286163" lon="-2.352758"><ele>149.14</ele><time>2011-09-14T07:55:46Z</time></trkpt><trkpt lat="43.286106" lon="-2.352442"><ele>149.14</ele><time>2011-09-14T07:55:47Z</time></trkpt><trkpt lat="43.286030" lon="-2.352131"><ele>149.14</ele><time>2011-09-14T07:55:48Z</time></trkpt><trkpt lat="43.285938" lon="-2.351824"><ele>148.66</ele><time>2011-09-14T07:55:49Z</time></trkpt><trkpt lat="43.285834" lon="-2.351520"><ele>148.18</ele><time>2011-09-14T07:55:50Z</time></trkpt><trkpt lat="43.285412" lon="-2.349989"><ele>148.18</ele><time>2011-09-14T07:55:55Z</time></trkpt><trkpt lat="43.285385" lon="-2.349676"><ele>148.18</ele><time>2011-09-14T07:55:56Z</time></trkpt><trkpt lat="43.285376" lon="-2.349362"><ele>147.70</ele><time>2011-09-14T07:55:57Z</time></trkpt><trkpt lat="43.285268" lon="-2.347117"><ele>144.82</ele><time>2011-09-14T07:56:04Z</time></trkpt><trkpt lat="43.285184" lon="-2.346817"><ele>144.82</ele><time>2011-09-14T07:56:05Z</time></trkpt><trkpt lat="43.285090" lon="-2.346523"><ele>144.34</ele><time>2011-09-14T07:56:06Z</time></trkpt><trkpt lat="43.284178" lon="-2.343860"><ele>143.37</ele><time>2011-09-14T07:56:15Z</time></trkpt><trkpt lat="43.284559" lon="-2.332302"><ele>147.22</ele><time>2011-09-14T07:56:50Z</time></trkpt><trkpt lat="43.284631" lon="-2.328034"><ele>157.79</ele><time>2011-09-14T07:57:02Z</time></trkpt><trkpt lat="43.284232" lon="-2.324564"><ele>163.56</ele><time>2011-09-14T07:57:12Z</time></trkpt><trkpt lat="43.283382" lon="-2.321143"><ele>158.27</ele><time>2011-09-14T07:57:22Z</time></trkpt><trkpt lat="43.282042" lon="-2.317805"><ele>148.18</ele><time>2011-09-14T07:57:32Z</time></trkpt><trkpt lat="43.280487" lon="-2.314462"><ele>137.13</ele><time>2011-09-14T07:57:43Z</time></trkpt><trkpt lat="43.279297" lon="-2.312579"><ele>127.99</ele><time>2011-09-14T07:57:50Z</time></trkpt><trkpt lat="43.277706" lon="-2.311159"><ele>117.90</ele><time>2011-09-14T07:57:57Z</time></trkpt><trkpt lat="43.275108" lon="-2.309916"><ele>103.96</ele><time>2011-09-14T07:58:07Z</time></trkpt><trkpt lat="43.272553" lon="-2.308664"><ele>91.94</ele><time>2011-09-14T07:58:17Z</time></trkpt><trkpt lat="43.271018" lon="-2.307134"><ele>82.81</ele><time>2011-09-14T07:58:24Z</time></trkpt><trkpt lat="43.269604" lon="-2.304803"><ele>72.24</ele><time>2011-09-14T07:58:32Z</time></trkpt><trkpt lat="43.267082" lon="-2.300831"><ele>60.70</ele><time>2011-09-14T07:58:46Z</time></trkpt><trkpt lat="43.265372" lon="-2.297869"><ele>56.37</ele><time>2011-09-14T07:58:56Z</time></trkpt><trkpt lat="43.263846" lon="-2.295215"><ele>51.57</ele><time>2011-09-14T07:59:05Z</time></trkpt><trkpt lat="43.262288" lon="-2.293675"><ele>48.20</ele><time>2011-09-14T07:59:12Z</time></trkpt><trkpt lat="43.260908" lon="-2.291976"><ele>45.80</ele><time>2011-09-14T07:59:19Z</time></trkpt><trkpt lat="43.259965" lon="-2.289675"><ele>44.36</ele><time>2011-09-14T07:59:26Z</time></trkpt><trkpt lat="43.259261" lon="-2.286808"><ele>41.95</ele><time>2011-09-14T07:59:34Z</time></trkpt><trkpt lat="43.259346" lon="-2.284620"><ele>40.03</ele><time>2011-09-14T07:59:40Z</time></trkpt><trkpt lat="43.259961" lon="-2.282562"><ele>37.15</ele><time>2011-09-14T07:59:46Z</time></trkpt><trkpt lat="43.261202" lon="-2.280499"><ele>35.71</ele><time>2011-09-14T07:59:53Z</time></trkpt><trkpt lat="43.262762" lon="-2.277764"><ele>33.30</ele><time>2011-09-14T08:00:02Z</time></trkpt><trkpt lat="43.264100" lon="-2.274449"><ele>31.86</ele><time>2011-09-14T08:00:12Z</time></trkpt><trkpt lat="43.265638" lon="-2.271937"><ele>35.71</ele><time>2011-09-14T08:00:21Z</time></trkpt><trkpt lat="43.267385" lon="-2.270187"><ele>42.92</ele><time>2011-09-14T08:00:29Z</time></trkpt><trkpt lat="43.269879" lon="-2.267935"><ele>52.05</ele><time>2011-09-14T08:00:40Z</time></trkpt><trkpt lat="43.270736" lon="-2.266396"><ele>55.89</ele><time>2011-09-14T08:00:46Z</time></trkpt><trkpt lat="43.271329" lon="-2.264235"><ele>61.18</ele><time>2011-09-14T08:00:53Z</time></trkpt><trkpt lat="43.271483" lon="-2.261495"><ele>66.95</ele><time>2011-09-14T08:01:01Z</time></trkpt><trkpt lat="43.271837" lon="-2.258910"><ele>66.95</ele><time>2011-09-14T08:01:09Z</time></trkpt><trkpt lat="43.272791" lon="-2.256760"><ele>61.18</ele><time>2011-09-14T08:01:17Z</time></trkpt><trkpt lat="43.273942" lon="-2.255607"><ele>55.41</ele><time>2011-09-14T08:01:23Z</time></trkpt><trkpt lat="43.275338" lon="-2.255087"><ele>49.65</ele><time>2011-09-14T08:01:29Z</time></trkpt><trkpt lat="43.276838" lon="-2.254323"><ele>41.47</ele><time>2011-09-14T08:01:36Z</time></trkpt><trkpt lat="43.277190" lon="-2.253868"><ele>39.07</ele><time>2011-09-14T08:01:38Z</time></trkpt><trkpt lat="43.277339" lon="-2.253601"><ele>37.63</ele><time>2011-09-14T08:01:39Z</time></trkpt><trkpt lat="43.277471" lon="-2.253316"><ele>36.67</ele><time>2011-09-14T08:01:40Z</time></trkpt><trkpt lat="43.277585" lon="-2.253016"><ele>35.23</ele><time>2011-09-14T08:01:41Z</time></trkpt><trkpt lat="43.277678" lon="-2.252705"><ele>34.26</ele><time>2011-09-14T08:01:42Z</time></trkpt><trkpt lat="43.277753" lon="-2.252389"><ele>33.30</ele><time>2011-09-14T08:01:43Z</time></trkpt><trkpt lat="43.277805" lon="-2.252067"><ele>32.34</ele><time>2011-09-14T08:01:44Z</time></trkpt><trkpt lat="43.277835" lon="-2.251739"><ele>30.90</ele><time>2011-09-14T08:01:45Z</time></trkpt><trkpt lat="43.277846" lon="-2.251408"><ele>29.94</ele><time>2011-09-14T08:01:46Z</time></trkpt><trkpt lat="43.277836" lon="-2.251075"><ele>28.98</ele><time>2011-09-14T08:01:47Z</time></trkpt><trkpt lat="43.277808" lon="-2.250741"><ele>28.02</ele><time>2011-09-14T08:01:48Z</time></trkpt><trkpt lat="43.277772" lon="-2.250412"><ele>27.05</ele><time>2011-09-14T08:01:49Z</time></trkpt><trkpt lat="43.277657" lon="-2.247171"><ele>17.44</ele><time>2011-09-14T08:01:59Z</time></trkpt><trkpt lat="43.278152" lon="-2.243880"><ele>9.27</ele><time>2011-09-14T08:02:09Z</time></trkpt><trkpt lat="43.279125" lon="-2.240876"><ele>5.42</ele><time>2011-09-14T08:02:19Z</time></trkpt><trkpt lat="43.280245" lon="-2.239168"><ele>4.94</ele><time>2011-09-14T08:02:26Z</time></trkpt><trkpt lat="43.282689" lon="-2.236443"><ele>8.31</ele><time>2011-09-14T08:02:38Z</time></trkpt><trkpt lat="43.283886" lon="-2.234374"><ele>9.75</ele><time>2011-09-14T08:02:45Z</time></trkpt><trkpt lat="43.284646" lon="-2.232046"><ele>10.71</ele><time>2011-09-14T08:02:52Z</time></trkpt><trkpt lat="43.285023" lon="-2.229361"><ele>15.52</ele><time>2011-09-14T08:03:00Z</time></trkpt><trkpt lat="43.285171" lon="-2.225638"><ele>25.61</ele><time>2011-09-14T08:03:11Z</time></trkpt><trkpt lat="43.285633" lon="-2.221990"><ele>37.63</ele><time>2011-09-14T08:03:22Z</time></trkpt><trkpt lat="43.285428" lon="-2.219998"><ele>43.40</ele><time>2011-09-14T08:03:28Z</time></trkpt><trkpt lat="43.284714" lon="-2.218228"><ele>50.13</ele><time>2011-09-14T08:03:34Z</time></trkpt><trkpt lat="43.283359" lon="-2.216191"><ele>60.22</ele><time>2011-09-14T08:03:42Z</time></trkpt><trkpt lat="43.282559" lon="-2.213987"><ele>68.39</ele><time>2011-09-14T08:03:49Z</time></trkpt><trkpt lat="43.281543" lon="-2.211950"><ele>76.08</ele><time>2011-09-14T08:03:56Z</time></trkpt><trkpt lat="43.280888" lon="-2.206131"><ele>90.02</ele><time>2011-09-14T08:04:14Z</time></trkpt><trkpt lat="43.281318" lon="-2.202428"><ele>70.31</ele><time>2011-09-14T08:04:24Z</time></trkpt><trkpt lat="43.281322" lon="-2.198709"><ele>57.34</ele><time>2011-09-14T08:04:34Z</time></trkpt><trkpt lat="43.280975" lon="-2.194222"><ele>40.51</ele><time>2011-09-14T08:04:46Z</time></trkpt><trkpt lat="43.281186" lon="-2.191234"><ele>32.34</ele><time>2011-09-14T08:04:54Z</time></trkpt><trkpt lat="43.281173" lon="-2.188645"><ele>28.98</ele><time>2011-09-14T08:05:01Z</time></trkpt><trkpt lat="43.281222" lon="-2.186062"><ele>27.53</ele><time>2011-09-14T08:05:08Z</time></trkpt><trkpt lat="43.281825" lon="-2.183926"><ele>22.73</ele><time>2011-09-14T08:05:14Z</time></trkpt><trkpt lat="43.282165" lon="-2.181685"><ele>19.36</ele><time>2011-09-14T08:05:20Z</time></trkpt><trkpt lat="43.281938" lon="-2.179821"><ele>20.32</ele><time>2011-09-14T08:05:25Z</time></trkpt><trkpt lat="43.281204" lon="-2.178241"><ele>21.77</ele><time>2011-09-14T08:05:30Z</time></trkpt><trkpt lat="43.279734" lon="-2.176076"><ele>25.13</ele><time>2011-09-14T08:05:38Z</time></trkpt><trkpt lat="43.278777" lon="-2.173783"><ele>20.32</ele><time>2011-09-14T08:05:45Z</time></trkpt><trkpt lat="43.278283" lon="-2.171172"><ele>13.60</ele><time>2011-09-14T08:05:52Z</time></trkpt><trkpt lat="43.278327" lon="-2.168522"><ele>10.23</ele><time>2011-09-14T08:05:59Z</time></trkpt><trkpt lat="43.278865" lon="-2.165980"><ele>7.83</ele><time>2011-09-14T08:06:06Z</time></trkpt><trkpt lat="43.279556" lon="-2.163513"><ele>7.83</ele><time>2011-09-14T08:06:14Z</time></trkpt><trkpt lat="43.279746" lon="-2.161484"><ele>9.75</ele><time>2011-09-14T08:06:21Z</time></trkpt><trkpt lat="43.279636" lon="-2.160110"><ele>13.60</ele><time>2011-09-14T08:06:28Z</time></trkpt><trkpt lat="43.279488" lon="-2.159252"><ele>15.04</ele><time>2011-09-14T08:06:36Z</time></trkpt><trkpt lat="43.279454" lon="-2.159038"><ele>16.00</ele><time>2011-09-14T08:06:44Z</time></trkpt><trkpt lat="43.279388" lon="-2.158886"><ele>-3.23</ele><time>2011-09-14T08:07:20Z</time></trkpt><trkpt lat="43.279304" lon="-2.157973"><ele>3.02</ele><time>2011-09-14T08:07:29Z</time></trkpt><trkpt lat="43.279193" lon="-2.156559"><ele>7.35</ele><time>2011-09-14T08:07:37Z</time></trkpt><trkpt lat="43.278974" lon="-2.154550"><ele>10.23</ele><time>2011-09-14T08:07:45Z</time></trkpt><trkpt lat="43.278893" lon="-2.152031"><ele>13.60</ele><time>2011-09-14T08:07:53Z</time></trkpt><trkpt lat="43.279202" lon="-2.149259"><ele>16.48</ele><time>2011-09-14T08:08:01Z</time></trkpt><trkpt lat="43.280039" lon="-2.147184"><ele>22.73</ele><time>2011-09-14T08:08:08Z</time></trkpt><trkpt lat="43.281335" lon="-2.145595"><ele>30.90</ele><time>2011-09-14T08:08:15Z</time></trkpt><trkpt lat="43.282866" lon="-2.143662"><ele>40.99</ele><time>2011-09-14T08:08:23Z</time></trkpt><trkpt lat="43.283480" lon="-2.141659"><ele>44.84</ele><time>2011-09-14T08:08:29Z</time></trkpt><trkpt lat="43.283493" lon="-2.141281"><ele>44.36</ele><time>2011-09-14T08:08:30Z</time></trkpt><trkpt lat="43.283515" lon="-2.140909"><ele>45.32</ele><time>2011-09-14T08:08:31Z</time></trkpt><trkpt lat="43.283526" lon="-2.140534"><ele>46.28</ele><time>2011-09-14T08:08:32Z</time></trkpt><trkpt lat="43.283499" lon="-2.140158"><ele>46.76</ele><time>2011-09-14T08:08:33Z</time></trkpt><trkpt lat="43.283468" lon="-2.139789"><ele>46.76</ele><time>2011-09-14T08:08:34Z</time></trkpt><trkpt lat="43.283422" lon="-2.139415"><ele>46.76</ele><time>2011-09-14T08:08:35Z</time></trkpt><trkpt lat="43.283361" lon="-2.139037"><ele>46.28</ele><time>2011-09-14T08:08:36Z</time></trkpt><trkpt lat="43.283158" lon="-2.136062"><ele>37.15</ele><time>2011-09-14T08:08:44Z</time></trkpt><trkpt lat="43.282986" lon="-2.132683"><ele>28.02</ele><time>2011-09-14T08:08:53Z</time></trkpt><trkpt lat="43.282534" lon="-2.128428"><ele>18.88</ele><time>2011-09-14T08:09:05Z</time></trkpt><trkpt lat="43.282089" lon="-2.122842"><ele>24.65</ele><time>2011-09-14T08:09:20Z</time></trkpt><trkpt lat="43.282257" lon="-2.119902"><ele>32.82</ele><time>2011-09-14T08:09:28Z</time></trkpt><trkpt lat="43.281903" lon="-2.117779"><ele>40.03</ele><time>2011-09-14T08:09:34Z</time></trkpt><trkpt lat="43.281132" lon="-2.115018"><ele>48.68</ele><time>2011-09-14T08:09:42Z</time></trkpt><trkpt lat="43.281093" lon="-2.112869"><ele>56.86</ele><time>2011-09-14T08:09:48Z</time></trkpt><trkpt lat="43.281557" lon="-2.109750"><ele>66.95</ele><time>2011-09-14T08:09:57Z</time></trkpt><trkpt lat="43.282589" lon="-2.106097"><ele>79.45</ele><time>2011-09-14T08:10:08Z</time></trkpt><trkpt lat="43.283336" lon="-2.103011"><ele>90.50</ele><time>2011-09-14T08:10:17Z</time></trkpt><trkpt lat="43.284313" lon="-2.100325"><ele>98.19</ele><time>2011-09-14T08:10:25Z</time></trkpt><trkpt lat="43.285261" lon="-2.097078"><ele>102.04</ele><time>2011-09-14T08:10:34Z</time></trkpt><trkpt lat="43.286125" lon="-2.095133"><ele>103.48</ele><time>2011-09-14T08:10:40Z</time></trkpt><trkpt lat="43.286755" lon="-2.093001"><ele>106.36</ele><time>2011-09-14T08:10:46Z</time></trkpt><trkpt lat="43.286756" lon="-2.091106"><ele>111.65</ele><time>2011-09-14T08:10:51Z</time></trkpt><trkpt lat="43.286548" lon="-2.088546"><ele>121.26</ele><time>2011-09-14T08:10:58Z</time></trkpt><trkpt lat="43.286934" lon="-2.086452"><ele>128.47</ele><time>2011-09-14T08:11:04Z</time></trkpt><trkpt lat="43.287735" lon="-2.082972"><ele>140.49</ele><time>2011-09-14T08:11:14Z</time></trkpt><trkpt lat="43.288561" lon="-2.079126"><ele>153.95</ele><time>2011-09-14T08:11:25Z</time></trkpt><trkpt lat="43.289622" lon="-2.076351"><ele>161.16</ele><time>2011-09-14T08:11:34Z</time></trkpt><trkpt lat="43.290749" lon="-2.073511"><ele>172.21</ele><time>2011-09-14T08:11:43Z</time></trkpt><trkpt lat="43.291443" lon="-2.070295"><ele>183.75</ele><time>2011-09-14T08:11:52Z</time></trkpt><trkpt lat="43.292264" lon="-2.067111"><ele>195.28</ele><time>2011-09-14T08:12:01Z</time></trkpt><trkpt lat="43.293445" lon="-2.064561"><ele>204.42</ele><time>2011-09-14T08:12:09Z</time></trkpt><trkpt lat="43.294724" lon="-2.061745"><ele>206.82</ele><time>2011-09-14T08:12:18Z</time></trkpt><trkpt lat="43.295047" lon="-2.059483"><ele>202.98</ele><time>2011-09-14T08:12:24Z</time></trkpt><trkpt lat="43.294879" lon="-2.056713"><ele>195.28</ele><time>2011-09-14T08:12:31Z</time></trkpt><trkpt lat="43.294916" lon="-2.054035"><ele>185.67</ele><time>2011-09-14T08:12:38Z</time></trkpt><trkpt lat="43.294780" lon="-2.052945"><ele>181.35</ele><time>2011-09-14T08:12:41Z</time></trkpt><trkpt lat="43.294687" lon="-2.052591"><ele>179.90</ele><time>2011-09-14T08:12:42Z</time></trkpt><trkpt lat="43.294570" lon="-2.052248"><ele>178.94</ele><time>2011-09-14T08:12:43Z</time></trkpt><trkpt lat="43.294435" lon="-2.051914"><ele>177.50</ele><time>2011-09-14T08:12:44Z</time></trkpt><trkpt lat="43.294290" lon="-2.051589"><ele>176.54</ele><time>2011-09-14T08:12:45Z</time></trkpt><trkpt lat="43.293685" lon="-2.049544"><ele>169.81</ele><time>2011-09-14T08:12:51Z</time></trkpt><trkpt lat="43.293730" lon="-2.047441"><ele>162.12</ele><time>2011-09-14T08:12:57Z</time></trkpt><trkpt lat="43.293549" lon="-2.045419"><ele>155.39</ele><time>2011-09-14T08:13:03Z</time></trkpt><trkpt lat="43.292963" lon="-2.043286"><ele>150.10</ele><time>2011-09-14T08:13:10Z</time></trkpt><trkpt lat="43.292599" lon="-2.040452"><ele>140.01</ele><time>2011-09-14T08:13:19Z</time></trkpt><trkpt lat="43.291971" lon="-2.038730"><ele>133.28</ele><time>2011-09-14T08:13:25Z</time></trkpt><trkpt lat="43.290801" lon="-2.037577"><ele>125.59</ele><time>2011-09-14T08:13:31Z</time></trkpt><trkpt lat="43.289321" lon="-2.037053"><ele>123.67</ele><time>2011-09-14T08:13:37Z</time></trkpt><trkpt lat="43.287170" lon="-2.036085"><ele>121.26</ele><time>2011-09-14T08:13:46Z</time></trkpt><trkpt lat="43.285996" lon="-2.034744"><ele>118.86</ele><time>2011-09-14T08:13:52Z</time></trkpt><trkpt lat="43.285066" lon="-2.032671"><ele>115.98</ele><time>2011-09-14T08:13:59Z</time></trkpt><trkpt lat="43.282382" lon="-2.025193"><ele>101.08</ele><time>2011-09-14T08:14:22Z</time></trkpt><trkpt lat="43.280635" lon="-2.022901"><ele>94.83</ele><time>2011-09-14T08:14:31Z</time></trkpt><trkpt lat="43.279608" lon="-2.020716"><ele>90.02</ele><time>2011-09-14T08:14:38Z</time></trkpt><trkpt lat="43.278902" lon="-2.017866"><ele>84.25</ele><time>2011-09-14T08:14:46Z</time></trkpt><trkpt lat="43.277835" lon="-2.014835"><ele>82.33</ele><time>2011-09-14T08:14:55Z</time></trkpt><trkpt lat="43.276537" lon="-2.011262"><ele>85.69</ele><time>2011-09-14T08:15:06Z</time></trkpt><trkpt lat="43.275822" lon="-2.007888"><ele>85.21</ele><time>2011-09-14T08:15:15Z</time></trkpt><trkpt lat="43.275590" lon="-2.004513"><ele>82.33</ele><time>2011-09-14T08:15:24Z</time></trkpt><trkpt lat="43.275811" lon="-2.001070"><ele>78.48</ele><time>2011-09-14T08:15:33Z</time></trkpt><trkpt lat="43.276568" lon="-1.997357"><ele>73.20</ele><time>2011-09-14T08:15:43Z</time></trkpt><trkpt lat="43.277886" lon="-1.993588"><ele>69.35</ele><time>2011-09-14T08:15:54Z</time></trkpt><trkpt lat="43.278880" lon="-1.990033"><ele>67.91</ele><time>2011-09-14T08:16:04Z</time></trkpt><trkpt lat="43.279281" lon="-1.986759"><ele>66.47</ele><time>2011-09-14T08:16:13Z</time></trkpt><trkpt lat="43.279280" lon="-1.983920"><ele>66.47</ele><time>2011-09-14T08:16:21Z</time></trkpt><trkpt lat="43.279027" lon="-1.981949"><ele>67.91</ele><time>2011-09-14T08:16:28Z</time></trkpt><trkpt lat="43.278668" lon="-1.980715"><ele>69.35</ele><time>2011-09-14T08:16:35Z</time></trkpt><trkpt lat="43.278246" lon="-1.979600"><ele>70.79</ele><time>2011-09-14T08:16:45Z</time></trkpt><trkpt lat="43.278156" lon="-1.979332"><ele>71.27</ele><time>2011-09-14T08:16:50Z</time></trkpt><trkpt lat="43.278133" lon="-1.979320"><ele>71.27</ele><time>2011-09-14T08:16:51Z</time></trkpt><trkpt lat="43.278098" lon="-1.979356"><ele>70.79</ele><time>2011-09-14T08:17:01Z</time></trkpt><trkpt lat="43.278128" lon="-1.979407"><ele>78.00</ele><time>2011-09-14T08:18:03Z</time></trkpt><trkpt lat="43.278122" lon="-1.979410"><ele>75.12</ele><time>2011-09-14T08:19:23Z</time></trkpt><trkpt lat="43.278103" lon="-1.979448"><ele>71.27</ele><time>2011-09-14T08:20:41Z</time></trkpt><trkpt lat="43.278215" lon="-1.979544"><ele>86.66</ele><time>2011-09-14T08:21:26Z</time></trkpt><trkpt lat="43.278180" lon="-1.979509"><ele>82.33</ele><time>2011-09-14T08:21:54Z</time></trkpt><trkpt lat="43.278121" lon="-1.979440"><ele>72.72</ele><time>2011-09-14T08:22:35Z</time></trkpt><trkpt lat="43.278133" lon="-1.979466"><ele>76.56</ele><time>2011-09-14T08:24:07Z</time></trkpt><trkpt lat="43.278187" lon="-1.979498"><ele>83.29</ele><time>2011-09-14T08:24:38Z</time></trkpt><trkpt lat="43.278170" lon="-1.979443"><ele>76.08</ele><time>2011-09-14T08:26:05Z</time></trkpt><trkpt lat="43.278200" lon="-1.979484"><ele>81.37</ele><time>2011-09-14T08:26:56Z</time></trkpt><trkpt lat="43.278184" lon="-1.979487"><ele>81.37</ele><time>2011-09-14T08:27:21Z</time></trkpt><trkpt lat="43.278213" lon="-1.979482"><ele>83.77</ele><time>2011-09-14T08:27:48Z</time></trkpt><trkpt lat="43.278211" lon="-1.979476"><ele>83.77</ele><time>2011-09-14T08:27:52Z</time></trkpt><trkpt lat="43.278149" lon="-1.979341"><ele>79.93</ele><time>2011-09-14T08:27:55Z</time></trkpt><trkpt lat="43.278138" lon="-1.979259"><ele>79.93</ele><time>2011-09-14T08:27:56Z</time></trkpt><trkpt lat="43.278130" lon="-1.979174"><ele>79.93</ele><time>2011-09-14T08:27:57Z</time></trkpt><trkpt lat="43.278089" lon="-1.978835"><ele>77.04</ele><time>2011-09-14T08:28:04Z</time></trkpt><trkpt lat="43.278066" lon="-1.978695"><ele>76.08</ele><time>2011-09-14T08:28:07Z</time></trkpt><trkpt lat="43.278073" lon="-1.978501"><ele>75.60</ele><time>2011-09-14T08:28:10Z</time></trkpt><trkpt lat="43.278064" lon="-1.978148"><ele>76.08</ele><time>2011-09-14T08:28:14Z</time></trkpt><trkpt lat="43.278072" lon="-1.978048"><ele>76.08</ele><time>2011-09-14T08:28:15Z</time></trkpt><trkpt lat="43.278099" lon="-1.977365"><ele>75.60</ele><time>2011-09-14T08:28:21Z</time></trkpt><trkpt lat="43.278083" lon="-1.977235"><ele>75.60</ele><time>2011-09-14T08:28:22Z</time></trkpt><trkpt lat="43.277852" lon="-1.976004"><ele>76.08</ele><time>2011-09-14T08:28:30Z</time></trkpt><trkpt lat="43.277572" lon="-1.974528"><ele>78.00</ele><time>2011-09-14T08:28:37Z</time></trkpt><trkpt lat="43.277066" lon="-1.971956"><ele>79.45</ele><time>2011-09-14T08:28:47Z</time></trkpt><trkpt lat="43.276757" lon="-1.969060"><ele>75.12</ele><time>2011-09-14T08:28:57Z</time></trkpt><trkpt lat="43.277008" lon="-1.966607"><ele>70.79</ele><time>2011-09-14T08:29:05Z</time></trkpt><trkpt lat="43.277783" lon="-1.964229"><ele>63.58</ele><time>2011-09-14T08:29:13Z</time></trkpt><trkpt lat="43.279032" lon="-1.962260"><ele>54.93</ele><time>2011-09-14T08:29:21Z</time></trkpt><trkpt lat="43.280654" lon="-1.960791"><ele>45.32</ele><time>2011-09-14T08:29:29Z</time></trkpt><trkpt lat="43.283221" lon="-1.958505"><ele>31.38</ele><time>2011-09-14T08:29:41Z</time></trkpt><trkpt lat="43.284776" lon="-1.956472"><ele>26.09</ele><time>2011-09-14T08:29:49Z</time></trkpt><trkpt lat="43.286164" lon="-1.953869"><ele>24.65</ele><time>2011-09-14T08:29:58Z</time></trkpt><trkpt lat="43.287261" lon="-1.950730"><ele>26.09</ele><time>2011-09-14T08:30:08Z</time></trkpt><trkpt lat="43.287958" lon="-1.947255"><ele>28.02</ele><time>2011-09-14T08:30:19Z</time></trkpt><trkpt lat="43.288453" lon="-1.944366"><ele>30.42</ele><time>2011-09-14T08:30:27Z</time></trkpt><trkpt lat="43.288887" lon="-1.940362"><ele>34.26</ele><time>2011-09-14T08:30:38Z</time></trkpt><trkpt lat="43.288614" lon="-1.934559"><ele>46.28</ele><time>2011-09-14T08:30:54Z</time></trkpt><trkpt lat="43.288131" lon="-1.932131"><ele>55.41</ele><time>2011-09-14T08:31:01Z</time></trkpt><trkpt lat="43.285921" lon="-1.927181"><ele>72.24</ele><time>2011-09-14T08:31:16Z</time></trkpt><trkpt lat="43.284449" lon="-1.924188"><ele>85.69</ele><time>2011-09-14T08:31:26Z</time></trkpt><trkpt lat="43.283556" lon="-1.921190"><ele>94.83</ele><time>2011-09-14T08:31:35Z</time></trkpt><trkpt lat="43.284674" lon="-1.909174"><ele>103.96</ele><time>2011-09-14T08:32:09Z</time></trkpt><trkpt lat="43.286118" lon="-1.906415"><ele>103.00</ele><time>2011-09-14T08:32:18Z</time></trkpt><trkpt lat="43.287954" lon="-1.904163"><ele>99.63</ele><time>2011-09-14T08:32:27Z</time></trkpt><trkpt lat="43.290080" lon="-1.902490"><ele>93.87</ele><time>2011-09-14T08:32:36Z</time></trkpt><trkpt lat="43.292424" lon="-1.901478"><ele>89.06</ele><time>2011-09-14T08:32:45Z</time></trkpt><trkpt lat="43.294902" lon="-1.901190"><ele>81.85</ele><time>2011-09-14T08:32:54Z</time></trkpt><trkpt lat="43.297668" lon="-1.901080"><ele>73.68</ele><time>2011-09-14T08:33:04Z</time></trkpt><trkpt lat="43.299194" lon="-1.900271"><ele>69.83</ele><time>2011-09-14T08:33:10Z</time></trkpt><trkpt lat="43.300578" lon="-1.898834"><ele>65.99</ele><time>2011-09-14T08:33:17Z</time></trkpt><trkpt lat="43.302073" lon="-1.897421"><ele>61.66</ele><time>2011-09-14T08:33:24Z</time></trkpt><trkpt lat="43.303549" lon="-1.896034"><ele>56.86</ele><time>2011-09-14T08:33:31Z</time></trkpt><trkpt lat="43.304376" lon="-1.894374"><ele>53.01</ele><time>2011-09-14T08:33:37Z</time></trkpt><trkpt lat="43.304754" lon="-1.892414"><ele>48.20</ele><time>2011-09-14T08:33:43Z</time></trkpt><trkpt lat="43.305325" lon="-1.890173"><ele>40.99</ele><time>2011-09-14T08:33:50Z</time></trkpt><trkpt lat="43.306406" lon="-1.888266"><ele>31.86</ele><time>2011-09-14T08:33:57Z</time></trkpt><trkpt lat="43.307280" lon="-1.886203"><ele>23.69</ele><time>2011-09-14T08:34:04Z</time></trkpt><trkpt lat="43.307512" lon="-1.884207"><ele>18.88</ele><time>2011-09-14T08:34:10Z</time></trkpt><trkpt lat="43.307235" lon="-1.882164"><ele>18.88</ele><time>2011-09-14T08:34:16Z</time></trkpt><trkpt lat="43.306842" lon="-1.879136"><ele>27.53</ele><time>2011-09-14T08:34:25Z</time></trkpt><trkpt lat="43.307216" lon="-1.877160"><ele>33.30</ele><time>2011-09-14T08:34:31Z</time></trkpt><trkpt lat="43.308065" lon="-1.875510"><ele>37.15</ele><time>2011-09-14T08:34:37Z</time></trkpt><trkpt lat="43.309300" lon="-1.874377"><ele>41.47</ele><time>2011-09-14T08:34:43Z</time></trkpt><trkpt lat="43.311592" lon="-1.872983"><ele>47.24</ele><time>2011-09-14T08:34:53Z</time></trkpt><trkpt lat="43.313195" lon="-1.871268"><ele>55.89</ele><time>2011-09-14T08:35:01Z</time></trkpt><trkpt lat="43.314300" lon="-1.869252"><ele>64.55</ele><time>2011-09-14T08:35:08Z</time></trkpt><trkpt lat="43.315182" lon="-1.866315"><ele>75.12</ele><time>2011-09-14T08:35:17Z</time></trkpt><trkpt lat="43.315451" lon="-1.863534"><ele>85.21</ele><time>2011-09-14T08:35:25Z</time></trkpt><trkpt lat="43.315828" lon="-1.860780"><ele>94.83</ele><time>2011-09-14T08:35:33Z</time></trkpt><trkpt lat="43.316600" lon="-1.858431"><ele>101.56</ele><time>2011-09-14T08:35:41Z</time></trkpt><trkpt lat="43.316745" lon="-1.857514"><ele>104.92</ele><time>2011-09-14T08:35:44Z</time></trkpt><trkpt lat="43.316754" lon="-1.857208"><ele>105.88</ele><time>2011-09-14T08:35:45Z</time></trkpt><trkpt lat="43.316563" lon="-1.854596"><ele>115.50</ele><time>2011-09-14T08:35:54Z</time></trkpt><trkpt lat="43.316461" lon="-1.853050"><ele>119.82</ele><time>2011-09-14T08:36:01Z</time></trkpt><trkpt lat="43.316426" lon="-1.852757"><ele>120.78</ele><time>2011-09-14T08:36:03Z</time></trkpt><trkpt lat="43.316398" lon="-1.852633"><ele>121.26</ele><time>2011-09-14T08:36:04Z</time></trkpt><trkpt lat="43.316269" lon="-1.852170"><ele>121.26</ele><time>2011-09-14T08:36:11Z</time></trkpt><trkpt lat="43.316276" lon="-1.852171"><ele>121.74</ele><time>2011-09-14T08:36:12Z</time></trkpt><trkpt lat="43.316297" lon="-1.852127"><ele>121.74</ele><time>2011-09-14T08:36:13Z</time></trkpt><trkpt lat="43.316303" lon="-1.852070"><ele>121.26</ele><time>2011-09-14T08:36:14Z</time></trkpt><trkpt lat="43.316317" lon="-1.852001"><ele>121.26</ele><time>2011-09-14T08:36:15Z</time></trkpt><trkpt lat="43.316339" lon="-1.851947"><ele>119.82</ele><time>2011-09-14T08:36:16Z</time></trkpt><trkpt lat="43.316353" lon="-1.851889"><ele>119.34</ele><time>2011-09-14T08:36:17Z</time></trkpt><trkpt lat="43.316368" lon="-1.851823"><ele>118.86</ele><time>2011-09-14T08:36:18Z</time></trkpt><trkpt lat="43.316404" lon="-1.851615"><ele>117.90</ele><time>2011-09-14T08:36:21Z</time></trkpt><trkpt lat="43.316396" lon="-1.851564"><ele>117.42</ele><time>2011-09-14T08:36:22Z</time></trkpt><trkpt lat="43.316388" lon="-1.851524"><ele>116.46</ele><time>2011-09-14T08:36:23Z</time></trkpt><trkpt lat="43.316390" lon="-1.851493"><ele>116.46</ele><time>2011-09-14T08:36:24Z</time></trkpt><trkpt lat="43.316393" lon="-1.851474"><ele>115.98</ele><time>2011-09-14T08:36:25Z</time></trkpt><trkpt lat="43.316403" lon="-1.851488"><ele>120.30</ele><time>2011-09-14T08:36:46Z</time></trkpt><trkpt lat="43.316462" lon="-1.851396"><ele>126.07</ele><time>2011-09-14T08:37:51Z</time></trkpt><trkpt lat="43.316492" lon="-1.851337"><ele>126.07</ele><time>2011-09-14T08:37:52Z</time></trkpt><trkpt lat="43.316532" lon="-1.851279"><ele>127.03</ele><time>2011-09-14T08:37:53Z</time></trkpt><trkpt lat="43.316772" lon="-1.850939"><ele>127.51</ele><time>2011-09-14T08:38:02Z</time></trkpt><trkpt lat="43.316794" lon="-1.850887"><ele>127.51</ele><time>2011-09-14T08:38:03Z</time></trkpt><trkpt lat="43.316817" lon="-1.850830"><ele>127.51</ele><time>2011-09-14T08:38:04Z</time></trkpt><trkpt lat="43.317038" lon="-1.850157"><ele>128.47</ele><time>2011-09-14T08:38:15Z</time></trkpt><trkpt lat="43.317370" lon="-1.849118"><ele>124.15</ele><time>2011-09-14T08:38:25Z</time></trkpt><trkpt lat="43.317589" lon="-1.847873"><ele>119.34</ele><time>2011-09-14T08:38:32Z</time></trkpt><trkpt lat="43.317551" lon="-1.845946"><ele>115.01</ele><time>2011-09-14T08:38:41Z</time></trkpt><trkpt lat="43.317138" lon="-1.843782"><ele>106.84</ele><time>2011-09-14T08:38:49Z</time></trkpt><trkpt lat="43.317060" lon="-1.841766"><ele>100.60</ele><time>2011-09-14T08:38:56Z</time></trkpt><trkpt lat="43.317459" lon="-1.839892"><ele>95.79</ele><time>2011-09-14T08:39:03Z</time></trkpt><trkpt lat="43.318060" lon="-1.838258"><ele>89.54</ele><time>2011-09-14T08:39:11Z</time></trkpt><trkpt lat="43.318347" lon="-1.837240"><ele>86.18</ele><time>2011-09-14T08:39:18Z</time></trkpt><trkpt lat="43.318389" lon="-1.837029"><ele>85.69</ele><time>2011-09-14T08:39:21Z</time></trkpt><trkpt lat="43.318391" lon="-1.836974"><ele>85.21</ele><time>2011-09-14T08:39:22Z</time></trkpt><trkpt lat="43.318391" lon="-1.836926"><ele>85.21</ele><time>2011-09-14T08:39:23Z</time></trkpt><trkpt lat="43.318391" lon="-1.836889"><ele>84.73</ele><time>2011-09-14T08:39:24Z</time></trkpt><trkpt lat="43.318393" lon="-1.836860"><ele>84.73</ele><time>2011-09-14T08:39:25Z</time></trkpt><trkpt lat="43.318395" lon="-1.836835"><ele>84.73</ele><time>2011-09-14T08:39:26Z</time></trkpt><trkpt lat="43.318415" lon="-1.836683"><ele>83.29</ele><time>2011-09-14T08:39:41Z</time></trkpt><trkpt lat="43.318447" lon="-1.836429"><ele>82.81</ele><time>2011-09-14T08:39:54Z</time></trkpt><trkpt lat="43.318452" lon="-1.836389"><ele>79.45</ele><time>2011-09-14T08:40:05Z</time></trkpt><trkpt lat="43.318390" lon="-1.836374"><ele>71.27</ele><time>2011-09-14T08:40:21Z</time></trkpt><trkpt lat="43.318397" lon="-1.836347"><ele>71.76</ele><time>2011-09-14T08:40:22Z</time></trkpt><trkpt lat="43.318430" lon="-1.836246"><ele>72.24</ele><time>2011-09-14T08:40:23Z</time></trkpt><trkpt lat="43.318548" lon="-1.835565"><ele>73.68</ele><time>2011-09-14T08:40:29Z</time></trkpt><trkpt lat="43.318785" lon="-1.834008"><ele>74.64</ele><time>2011-09-14T08:40:38Z</time></trkpt><trkpt lat="43.319032" lon="-1.832259"><ele>71.76</ele><time>2011-09-14T08:40:45Z</time></trkpt><trkpt lat="43.319549" lon="-1.829493"><ele>64.55</ele><time>2011-09-14T08:40:54Z</time></trkpt><trkpt lat="43.320305" lon="-1.827729"><ele>59.26</ele><time>2011-09-14T08:41:00Z</time></trkpt><trkpt lat="43.321388" lon="-1.826442"><ele>54.45</ele><time>2011-09-14T08:41:06Z</time></trkpt><trkpt lat="43.323043" lon="-1.824640"><ele>45.32</ele><time>2011-09-14T08:41:14Z</time></trkpt><trkpt lat="43.323940" lon="-1.822761"><ele>38.59</ele><time>2011-09-14T08:41:20Z</time></trkpt><trkpt lat="43.324552" lon="-1.819941"><ele>38.59</ele><time>2011-09-14T08:41:28Z</time></trkpt><trkpt lat="43.325410" lon="-1.817018"><ele>44.36</ele><time>2011-09-14T08:41:37Z</time></trkpt><trkpt lat="43.326744" lon="-1.814114"><ele>50.13</ele><time>2011-09-14T08:41:47Z</time></trkpt><trkpt lat="43.327436" lon="-1.811847"><ele>51.09</ele><time>2011-09-14T08:41:54Z</time></trkpt><trkpt lat="43.327695" lon="-1.809305"><ele>49.65</ele><time>2011-09-14T08:42:01Z</time></trkpt><trkpt lat="43.327945" lon="-1.806499"><ele>48.20</ele><time>2011-09-14T08:42:09Z</time></trkpt><trkpt lat="43.328630" lon="-1.804593"><ele>51.57</ele><time>2011-09-14T08:42:15Z</time></trkpt><trkpt lat="43.330222" lon="-1.801311"><ele>58.30</ele><time>2011-09-14T08:42:26Z</time></trkpt><trkpt lat="43.330806" lon="-1.798914"><ele>57.34</ele><time>2011-09-14T08:42:33Z</time></trkpt><trkpt lat="43.330936" lon="-1.796319"><ele>49.16</ele><time>2011-09-14T08:42:40Z</time></trkpt><trkpt lat="43.330548" lon="-1.793041"><ele>38.11</ele><time>2011-09-14T08:42:49Z</time></trkpt><trkpt lat="43.330516" lon="-1.790959"><ele>30.90</ele><time>2011-09-14T08:42:55Z</time></trkpt><trkpt lat="43.331036" lon="-1.788665"><ele>23.69</ele><time>2011-09-14T08:43:02Z</time></trkpt><trkpt lat="43.331803" lon="-1.785619"><ele>25.13</ele><time>2011-09-14T08:43:11Z</time></trkpt><trkpt lat="43.331941" lon="-1.782860"><ele>29.46</ele><time>2011-09-14T08:43:19Z</time></trkpt><trkpt lat="43.332324" lon="-1.780564"><ele>28.02</ele><time>2011-09-14T08:43:26Z</time></trkpt><trkpt lat="43.333127" lon="-1.778833"><ele>22.25</ele><time>2011-09-14T08:43:32Z</time></trkpt><trkpt lat="43.334546" lon="-1.776179"><ele>16.96</ele><time>2011-09-14T08:43:41Z</time></trkpt><trkpt lat="43.335268" lon="-1.773722"><ele>22.73</ele><time>2011-09-14T08:43:48Z</time></trkpt><trkpt lat="43.335536" lon="-1.771115"><ele>31.38</ele><time>2011-09-14T08:43:55Z</time></trkpt><trkpt lat="43.335776" lon="-1.767931"><ele>39.07</ele><time>2011-09-14T08:44:04Z</time></trkpt><trkpt lat="43.336570" lon="-1.765908"><ele>39.07</ele><time>2011-09-14T08:44:11Z</time></trkpt><trkpt lat="43.337685" lon="-1.763311"><ele>32.82</ele><time>2011-09-14T08:44:20Z</time></trkpt><trkpt lat="43.338013" lon="-1.761045"><ele>27.53</ele><time>2011-09-14T08:44:27Z</time></trkpt><trkpt lat="43.338525" lon="-1.758110"><ele>20.32</ele><time>2011-09-14T08:44:36Z</time></trkpt><trkpt lat="43.339277" lon="-1.754912"><ele>13.12</ele><time>2011-09-14T08:44:47Z</time></trkpt><trkpt lat="43.339869" lon="-1.752332"><ele>11.19</ele><time>2011-09-14T08:44:57Z</time></trkpt><trkpt lat="43.340351" lon="-1.750642"><ele>12.15</ele><time>2011-09-14T08:45:06Z</time></trkpt><trkpt lat="43.340537" lon="-1.750240"><ele>12.15</ele><time>2011-09-14T08:45:09Z</time></trkpt><trkpt lat="43.340573" lon="-1.750127"><ele>12.63</ele><time>2011-09-14T08:45:10Z</time></trkpt><trkpt lat="43.340666" lon="-1.749779"><ele>12.15</ele><time>2011-09-14T08:45:16Z</time></trkpt><trkpt lat="43.340715" lon="-1.749667"><ele>11.19</ele><time>2011-09-14T08:45:30Z</time></trkpt><trkpt lat="43.340750" lon="-1.749625"><ele>14.08</ele><time>2011-09-14T08:45:48Z</time></trkpt><trkpt lat="43.340789" lon="-1.749567"><ele>16.00</ele><time>2011-09-14T08:46:06Z</time></trkpt><trkpt lat="43.340825" lon="-1.749514"><ele>17.44</ele><time>2011-09-14T08:46:22Z</time></trkpt><trkpt lat="43.340847" lon="-1.749456"><ele>15.52</ele><time>2011-09-14T08:46:46Z</time></trkpt><trkpt lat="43.340876" lon="-1.749401"><ele>15.52</ele><time>2011-09-14T08:46:57Z</time></trkpt><trkpt lat="43.340874" lon="-1.749341"><ele>14.56</ele><time>2011-09-14T08:47:13Z</time></trkpt><trkpt lat="43.340852" lon="-1.749327"><ele>10.71</ele><time>2011-09-14T08:47:22Z</time></trkpt><trkpt lat="43.340856" lon="-1.749307"><ele>10.23</ele><time>2011-09-14T08:47:23Z</time></trkpt><trkpt lat="43.340913" lon="-1.749316"><ele>10.23</ele><time>2011-09-14T08:47:40Z</time></trkpt><trkpt lat="43.340928" lon="-1.749315"><ele>8.79</ele><time>2011-09-14T08:47:53Z</time></trkpt><trkpt lat="43.340935" lon="-1.749290"><ele>8.79</ele><time>2011-09-14T08:47:54Z</time></trkpt><trkpt lat="43.340944" lon="-1.749247"><ele>9.27</ele><time>2011-09-14T08:47:55Z</time></trkpt><trkpt lat="43.340972" lon="-1.749184"><ele>8.79</ele><time>2011-09-14T08:47:56Z</time></trkpt><trkpt lat="43.341002" lon="-1.749108"><ele>9.27</ele><time>2011-09-14T08:47:57Z</time></trkpt><trkpt lat="43.341294" lon="-1.748270"><ele>15.04</ele><time>2011-09-14T08:48:05Z</time></trkpt><trkpt lat="43.341413" lon="-1.747604"><ele>16.96</ele><time>2011-09-14T08:48:09Z</time></trkpt><trkpt lat="43.341420" lon="-1.747421"><ele>16.96</ele><time>2011-09-14T08:48:10Z</time></trkpt><trkpt lat="43.341328" lon="-1.745684"><ele>20.81</ele><time>2011-09-14T08:48:18Z</time></trkpt><trkpt lat="43.341145" lon="-1.743044"><ele>31.38</ele><time>2011-09-14T08:48:28Z</time></trkpt><trkpt lat="43.340839" lon="-1.738551"><ele>54.93</ele><time>2011-09-14T08:48:44Z</time></trkpt><trkpt lat="43.340918" lon="-1.735516"><ele>70.31</ele><time>2011-09-14T08:48:55Z</time></trkpt><trkpt lat="43.340961" lon="-1.731867"><ele>87.62</ele><time>2011-09-14T08:49:08Z</time></trkpt><trkpt lat="43.341278" lon="-1.729650"><ele>97.71</ele><time>2011-09-14T08:49:16Z</time></trkpt><trkpt lat="43.342377" lon="-1.726531"><ele>101.56</ele><time>2011-09-14T08:49:28Z</time></trkpt><trkpt lat="43.343877" lon="-1.723683"><ele>92.42</ele><time>2011-09-14T08:49:39Z</time></trkpt><trkpt lat="43.345262" lon="-1.722300"><ele>86.18</ele><time>2011-09-14T08:49:46Z</time></trkpt><trkpt lat="43.347568" lon="-1.720286"><ele>76.08</ele><time>2011-09-14T08:49:57Z</time></trkpt><trkpt lat="43.349497" lon="-1.718090"><ele>66.47</ele><time>2011-09-14T08:50:07Z</time></trkpt><trkpt lat="43.350950" lon="-1.717493"><ele>60.22</ele><time>2011-09-14T08:50:13Z</time></trkpt><trkpt lat="43.353282" lon="-1.717430"><ele>50.13</ele><time>2011-09-14T08:50:22Z</time></trkpt><trkpt lat="43.355039" lon="-1.716948"><ele>42.92</ele><time>2011-09-14T08:50:29Z</time></trkpt><trkpt lat="43.356304" lon="-1.715912"><ele>38.59</ele><time>2011-09-14T08:50:35Z</time></trkpt><trkpt lat="43.357314" lon="-1.714340"><ele>36.19</ele><time>2011-09-14T08:50:41Z</time></trkpt><trkpt lat="43.357953" lon="-1.712368"><ele>35.23</ele><time>2011-09-14T08:50:47Z</time></trkpt><trkpt lat="43.358557" lon="-1.708509"><ele>32.34</ele><time>2011-09-14T08:50:58Z</time></trkpt><trkpt lat="43.358494" lon="-1.705385"><ele>28.98</ele><time>2011-09-14T08:51:07Z</time></trkpt><trkpt lat="43.358579" lon="-1.701677"><ele>23.21</ele><time>2011-09-14T08:51:18Z</time></trkpt><trkpt lat="43.359185" lon="-1.698749"><ele>19.84</ele><time>2011-09-14T08:51:27Z</time></trkpt><trkpt lat="43.360387" lon="-1.695464"><ele>17.92</ele><time>2011-09-14T08:51:38Z</time></trkpt><trkpt lat="43.362230" lon="-1.691960"><ele>20.81</ele><time>2011-09-14T08:51:51Z</time></trkpt><trkpt lat="43.364376" lon="-1.688950"><ele>24.65</ele><time>2011-09-14T08:52:04Z</time></trkpt><trkpt lat="43.367361" lon="-1.684971"><ele>21.77</ele><time>2011-09-14T08:52:21Z</time></trkpt><trkpt lat="43.369907" lon="-1.680905"><ele>19.36</ele><time>2011-09-14T08:52:37Z</time></trkpt><trkpt lat="43.371305" lon="-1.677898"><ele>25.13</ele><time>2011-09-14T08:52:48Z</time></trkpt><trkpt lat="43.371790" lon="-1.676453"><ele>28.50</ele><time>2011-09-14T08:52:55Z</time></trkpt><trkpt lat="43.371786" lon="-1.676306"><ele>28.98</ele><time>2011-09-14T08:52:56Z</time></trkpt><trkpt lat="43.371743" lon="-1.676152"><ele>28.98</ele><time>2011-09-14T08:52:57Z</time></trkpt><trkpt lat="43.371675" lon="-1.676015"><ele>28.98</ele><time>2011-09-14T08:52:58Z</time></trkpt><trkpt lat="43.371582" lon="-1.675923"><ele>28.50</ele><time>2011-09-14T08:52:59Z</time></trkpt><trkpt lat="43.371468" lon="-1.675845"><ele>28.50</ele><time>2011-09-14T08:53:00Z</time></trkpt><trkpt lat="43.371316" lon="-1.675813"><ele>28.50</ele><time>2011-09-14T08:53:01Z</time></trkpt><trkpt lat="43.371166" lon="-1.675838"><ele>28.50</ele><time>2011-09-14T08:53:02Z</time></trkpt><trkpt lat="43.371037" lon="-1.675920"><ele>28.50</ele><time>2011-09-14T08:53:03Z</time></trkpt><trkpt lat="43.370929" lon="-1.676041"><ele>28.98</ele><time>2011-09-14T08:53:04Z</time></trkpt><trkpt lat="43.370847" lon="-1.676194"><ele>28.98</ele><time>2011-09-14T08:53:05Z</time></trkpt><trkpt lat="43.370793" lon="-1.676359"><ele>28.98</ele><time>2011-09-14T08:53:06Z</time></trkpt><trkpt lat="43.370790" lon="-1.676544"><ele>29.46</ele><time>2011-09-14T08:53:07Z</time></trkpt><trkpt lat="43.370820" lon="-1.676730"><ele>29.94</ele><time>2011-09-14T08:53:08Z</time></trkpt><trkpt lat="43.370886" lon="-1.676901"><ele>30.42</ele><time>2011-09-14T08:53:09Z</time></trkpt><trkpt lat="43.370977" lon="-1.677058"><ele>30.90</ele><time>2011-09-14T08:53:10Z</time></trkpt><trkpt lat="43.371075" lon="-1.677212"><ele>31.38</ele><time>2011-09-14T08:53:11Z</time></trkpt><trkpt lat="43.371181" lon="-1.677363"><ele>31.38</ele><time>2011-09-14T08:53:12Z</time></trkpt><trkpt lat="43.372511" lon="-1.679165"><ele>25.61</ele><time>2011-09-14T08:53:25Z</time></trkpt><trkpt lat="43.373054" lon="-1.679813"><ele>23.69</ele><time>2011-09-14T08:53:30Z</time></trkpt><trkpt lat="43.373171" lon="-1.679887"><ele>23.21</ele><time>2011-09-14T08:53:31Z</time></trkpt><trkpt lat="43.373293" lon="-1.679894"><ele>23.21</ele><time>2011-09-14T08:53:32Z</time></trkpt><trkpt lat="43.373411" lon="-1.679847"><ele>23.69</ele><time>2011-09-14T08:53:33Z</time></trkpt><trkpt lat="43.373528" lon="-1.679778"><ele>23.69</ele><time>2011-09-14T08:53:34Z</time></trkpt><trkpt lat="43.373643" lon="-1.679691"><ele>23.69</ele><time>2011-09-14T08:53:35Z</time></trkpt><trkpt lat="43.373756" lon="-1.679591"><ele>23.69</ele><time>2011-09-14T08:53:36Z</time></trkpt><trkpt lat="43.373869" lon="-1.679486"><ele>23.69</ele><time>2011-09-14T08:53:37Z</time></trkpt><trkpt lat="43.374798" lon="-1.678547"><ele>26.09</ele><time>2011-09-14T08:53:47Z</time></trkpt><trkpt lat="43.375193" lon="-1.678028"><ele>28.98</ele><time>2011-09-14T08:53:55Z</time></trkpt><trkpt lat="43.375586" lon="-1.677514"><ele>31.86</ele><time>2011-09-14T08:54:03Z</time></trkpt><trkpt lat="43.375960" lon="-1.676938"><ele>32.34</ele><time>2011-09-14T08:54:09Z</time></trkpt><trkpt lat="43.376012" lon="-1.676812"><ele>32.34</ele><time>2011-09-14T08:54:10Z</time></trkpt></trkseg></trk><trk><name>ACTIVE LOG: 14 SEP 2011 10:54</name><trkseg><trkpt lat="43.376056" lon="-1.676675"><ele>32.34</ele><time>2011-09-14T08:54:11Z</time></trkpt><trkpt lat="43.376362" lon="-1.675613"><ele>29.94</ele><time>2011-09-14T08:54:18Z</time></trkpt><trkpt lat="43.376434" lon="-1.675453"><ele>29.46</ele><time>2011-09-14T08:54:19Z</time></trkpt><trkpt lat="43.376515" lon="-1.675304"><ele>28.50</ele><time>2011-09-14T08:54:20Z</time></trkpt><trkpt lat="43.377546" lon="-1.673560"><ele>19.36</ele><time>2011-09-14T08:54:33Z</time></trkpt><trkpt lat="43.377606" lon="-1.673400"><ele>18.88</ele><time>2011-09-14T08:54:34Z</time></trkpt><trkpt lat="43.378184" lon="-1.671456"><ele>12.63</ele><time>2011-09-14T08:54:47Z</time></trkpt><trkpt lat="43.378365" lon="-1.670945"><ele>11.67</ele><time>2011-09-14T08:54:51Z</time></trkpt><trkpt lat="43.378432" lon="-1.670825"><ele>11.67</ele><time>2011-09-14T08:54:52Z</time></trkpt><trkpt lat="43.378508" lon="-1.670709"><ele>11.67</ele><time>2011-09-14T08:54:53Z</time></trkpt><trkpt lat="43.379829" lon="-1.669129"><ele>11.19</ele><time>2011-09-14T08:55:08Z</time></trkpt><trkpt lat="43.380330" lon="-1.668708"><ele>11.19</ele><time>2011-09-14T08:55:16Z</time></trkpt><trkpt lat="43.380845" lon="-1.668250"><ele>11.19</ele><time>2011-09-14T08:55:26Z</time></trkpt><trkpt lat="43.381485" lon="-1.667748"><ele>11.67</ele><time>2011-09-14T08:55:35Z</time></trkpt><trkpt lat="43.382078" lon="-1.667408"><ele>13.12</ele><time>2011-09-14T08:55:47Z</time></trkpt><trkpt lat="43.382621" lon="-1.667084"><ele>13.60</ele><time>2011-09-14T08:55:54Z</time></trkpt><trkpt lat="43.383546" lon="-1.666371"><ele>13.60</ele><time>2011-09-14T08:56:03Z</time></trkpt><trkpt lat="43.384297" lon="-1.665394"><ele>13.60</ele><time>2011-09-14T08:56:11Z</time></trkpt><trkpt lat="43.385131" lon="-1.663557"><ele>11.67</ele><time>2011-09-14T08:56:24Z</time></trkpt><trkpt lat="43.385748" lon="-1.662132"><ele>10.23</ele><time>2011-09-14T08:56:35Z</time></trkpt><trkpt lat="43.385803" lon="-1.662053"><ele>10.23</ele><time>2011-09-14T08:56:36Z</time></trkpt><trkpt lat="43.385905" lon="-1.661967"><ele>10.71</ele><time>2011-09-14T08:56:41Z</time></trkpt><trkpt lat="43.385996" lon="-1.661767"><ele>10.71</ele><time>2011-09-14T08:56:46Z</time></trkpt><trkpt lat="43.386040" lon="-1.661711"><ele>10.71</ele><time>2011-09-14T08:56:47Z</time></trkpt><trkpt lat="43.386095" lon="-1.661681"><ele>10.71</ele><time>2011-09-14T08:56:48Z</time></trkpt><trkpt lat="43.386153" lon="-1.661701"><ele>10.71</ele><time>2011-09-14T08:56:49Z</time></trkpt><trkpt lat="43.386209" lon="-1.661761"><ele>10.23</ele><time>2011-09-14T08:56:50Z</time></trkpt><trkpt lat="43.386256" lon="-1.661843"><ele>10.23</ele><time>2011-09-14T08:56:51Z</time></trkpt><trkpt lat="43.386295" lon="-1.661933"><ele>9.75</ele><time>2011-09-14T08:56:52Z</time></trkpt><trkpt lat="43.386331" lon="-1.662028"><ele>9.75</ele><time>2011-09-14T08:56:53Z</time></trkpt><trkpt lat="43.386596" lon="-1.662844"><ele>9.27</ele><time>2011-09-14T08:57:01Z</time></trkpt><trkpt lat="43.386626" lon="-1.662912"><ele>9.27</ele><time>2011-09-14T08:57:02Z</time></trkpt><trkpt lat="43.386664" lon="-1.662968"><ele>8.79</ele><time>2011-09-14T08:57:03Z</time></trkpt><trkpt lat="43.386709" lon="-1.663010"><ele>8.79</ele><time>2011-09-14T08:57:04Z</time></trkpt><trkpt lat="43.386760" lon="-1.663039"><ele>8.79</ele><time>2011-09-14T08:57:05Z</time></trkpt><trkpt lat="43.386813" lon="-1.663068"><ele>8.79</ele><time>2011-09-14T08:57:06Z</time></trkpt><trkpt lat="43.386863" lon="-1.663105"><ele>8.31</ele><time>2011-09-14T08:57:07Z</time></trkpt><trkpt lat="43.386906" lon="-1.663148"><ele>8.31</ele><time>2011-09-14T08:57:08Z</time></trkpt><trkpt lat="43.386943" lon="-1.663205"><ele>8.31</ele><time>2011-09-14T08:57:09Z</time></trkpt><trkpt lat="43.386979" lon="-1.663262"><ele>8.31</ele><time>2011-09-14T08:57:10Z</time></trkpt><trkpt lat="43.387016" lon="-1.663304"><ele>8.31</ele><time>2011-09-14T08:57:11Z</time></trkpt><trkpt lat="43.387050" lon="-1.663330"><ele>8.79</ele><time>2011-09-14T08:57:12Z</time></trkpt><trkpt lat="43.387081" lon="-1.663349"><ele>8.79</ele><time>2011-09-14T08:57:13Z</time></trkpt><trkpt lat="43.387122" lon="-1.663393"><ele>8.79</ele><time>2011-09-14T08:57:15Z</time></trkpt><trkpt lat="43.387127" lon="-1.663420"><ele>8.79</ele><time>2011-09-14T08:57:16Z</time></trkpt><trkpt lat="43.387135" lon="-1.663444"><ele>8.79</ele><time>2011-09-14T08:57:17Z</time></trkpt><trkpt lat="43.387145" lon="-1.663458"><ele>8.79</ele><time>2011-09-14T08:57:18Z</time></trkpt><trkpt lat="43.387172" lon="-1.663516"><ele>9.75</ele><time>2011-09-14T08:57:27Z</time></trkpt><trkpt lat="43.387209" lon="-1.663582"><ele>10.23</ele><time>2011-09-14T08:57:41Z</time></trkpt><trkpt lat="43.387195" lon="-1.663584"><ele>9.27</ele><time>2011-09-14T08:58:59Z</time></trkpt></trkseg><trkseg><trkpt lat="43.387162" lon="-1.663571"><ele>14.08</ele><time>2011-09-14T10:08:04Z</time></trkpt><trkpt lat="43.387171" lon="-1.663585"><ele>6.87</ele><time>2011-09-14T10:12:54Z</time></trkpt><trkpt lat="43.387153" lon="-1.663584"><ele>7.83</ele><time>2011-09-14T10:13:31Z</time></trkpt><trkpt lat="43.387080" lon="-1.663585"><ele>4.94</ele><time>2011-09-14T10:13:42Z</time></trkpt><trkpt lat="43.387079" lon="-1.663573"><ele>4.94</ele><time>2011-09-14T10:13:43Z</time></trkpt><trkpt lat="43.387124" lon="-1.663491"><ele>5.42</ele><time>2011-09-14T10:13:51Z</time></trkpt><trkpt lat="43.387081" lon="-1.663400"><ele>5.42</ele><time>2011-09-14T10:14:04Z</time></trkpt><trkpt lat="43.386862" lon="-1.663337"><ele>2.54</ele><time>2011-09-14T10:14:22Z</time></trkpt><trkpt lat="43.386672" lon="-1.663296"><ele>1.58</ele><time>2011-09-14T10:14:26Z</time></trkpt><trkpt lat="43.386628" lon="-1.663268"><ele>1.10</ele><time>2011-09-14T10:14:27Z</time></trkpt><trkpt lat="43.386583" lon="-1.663221"><ele>1.10</ele><time>2011-09-14T10:14:28Z</time></trkpt><trkpt lat="43.386543" lon="-1.663156"><ele>0.62</ele><time>2011-09-14T10:14:29Z</time></trkpt><trkpt lat="43.386511" lon="-1.663077"><ele>0.62</ele><time>2011-09-14T10:14:30Z</time></trkpt><trkpt lat="43.386484" lon="-1.662984"><ele>0.14</ele><time>2011-09-14T10:14:31Z</time></trkpt><trkpt lat="43.386459" lon="-1.662883"><ele>0.14</ele><time>2011-09-14T10:14:32Z</time></trkpt><trkpt lat="43.386289" lon="-1.662340"><ele>0.14</ele><time>2011-09-14T10:14:38Z</time></trkpt><trkpt lat="43.386251" lon="-1.662274"><ele>0.14</ele><time>2011-09-14T10:14:39Z</time></trkpt><trkpt lat="43.386216" lon="-1.662232"><ele>0.14</ele><time>2011-09-14T10:14:40Z</time></trkpt><trkpt lat="43.386189" lon="-1.662206"><ele>0.14</ele><time>2011-09-14T10:14:41Z</time></trkpt><trkpt lat="43.386165" lon="-1.662187"><ele>0.14</ele><time>2011-09-14T10:14:42Z</time></trkpt><trkpt lat="43.386089" lon="-1.662149"><ele>0.14</ele><time>2011-09-14T10:14:44Z</time></trkpt><trkpt lat="43.385981" lon="-1.662109"><ele>0.14</ele><time>2011-09-14T10:14:46Z</time></trkpt><trkpt lat="43.385936" lon="-1.662069"><ele>0.62</ele><time>2011-09-14T10:14:47Z</time></trkpt><trkpt lat="43.385902" lon="-1.662012"><ele>0.62</ele><time>2011-09-14T10:14:48Z</time></trkpt><trkpt lat="43.385887" lon="-1.661941"><ele>0.62</ele><time>2011-09-14T10:14:49Z</time></trkpt><trkpt lat="43.385891" lon="-1.661863"><ele>0.62</ele><time>2011-09-14T10:14:50Z</time></trkpt><trkpt lat="43.385915" lon="-1.661783"><ele>0.62</ele><time>2011-09-14T10:14:51Z</time></trkpt><trkpt lat="43.385950" lon="-1.661707"><ele>0.62</ele><time>2011-09-14T10:14:52Z</time></trkpt><trkpt lat="43.385985" lon="-1.661633"><ele>0.62</ele><time>2011-09-14T10:14:53Z</time></trkpt><trkpt lat="43.386011" lon="-1.661551"><ele>1.10</ele><time>2011-09-14T10:14:54Z</time></trkpt><trkpt lat="43.386026" lon="-1.661456"><ele>1.10</ele><time>2011-09-14T10:14:55Z</time></trkpt><trkpt lat="43.386032" lon="-1.661358"><ele>1.10</ele><time>2011-09-14T10:14:56Z</time></trkpt><trkpt lat="43.386032" lon="-1.661264"><ele>1.10</ele><time>2011-09-14T10:14:57Z</time></trkpt><trkpt lat="43.386030" lon="-1.661172"><ele>1.10</ele><time>2011-09-14T10:14:58Z</time></trkpt><trkpt lat="43.386113" lon="-1.660214"><ele>1.58</ele><time>2011-09-14T10:15:07Z</time></trkpt><trkpt lat="43.386148" lon="-1.660098"><ele>1.58</ele><time>2011-09-14T10:15:08Z</time></trkpt><trkpt lat="43.386603" lon="-1.658848"><ele>2.06</ele><time>2011-09-14T10:15:18Z</time></trkpt><trkpt lat="43.386690" lon="-1.658642"><ele>2.06</ele><time>2011-09-14T10:15:20Z</time></trkpt><trkpt lat="43.386734" lon="-1.658574"><ele>2.06</ele><time>2011-09-14T10:15:21Z</time></trkpt><trkpt lat="43.386844" lon="-1.658380"><ele>2.54</ele><time>2011-09-14T10:15:27Z</time></trkpt><trkpt lat="43.386934" lon="-1.657934"><ele>2.54</ele><time>2011-09-14T10:15:32Z</time></trkpt><trkpt lat="43.387268" lon="-1.656945"><ele>3.50</ele><time>2011-09-14T10:15:40Z</time></trkpt><trkpt lat="43.387668" lon="-1.655701"><ele>5.42</ele><time>2011-09-14T10:15:48Z</time></trkpt><trkpt lat="43.387728" lon="-1.655562"><ele>5.91</ele><time>2011-09-14T10:15:49Z</time></trkpt><trkpt lat="43.387797" lon="-1.655428"><ele>6.39</ele><time>2011-09-14T10:15:50Z</time></trkpt><trkpt lat="43.388587" lon="-1.654205"><ele>15.52</ele><time>2011-09-14T10:16:01Z</time></trkpt><trkpt lat="43.388743" lon="-1.653956"><ele>17.44</ele><time>2011-09-14T10:16:07Z</time></trkpt><trkpt lat="43.388813" lon="-1.653806"><ele>19.36</ele><time>2011-09-14T10:16:17Z</time></trkpt><trkpt lat="43.388843" lon="-1.653568"><ele>19.36</ele><time>2011-09-14T10:16:25Z</time></trkpt><trkpt lat="43.388882" lon="-1.653545"><ele>19.84</ele><time>2011-09-14T10:16:26Z</time></trkpt><trkpt lat="43.388940" lon="-1.653544"><ele>19.84</ele><time>2011-09-14T10:16:27Z</time></trkpt><trkpt lat="43.389646" lon="-1.653668"><ele>22.73</ele><time>2011-09-14T10:16:35Z</time></trkpt><trkpt lat="43.390731" lon="-1.654001"><ele>22.73</ele><time>2011-09-14T10:16:45Z</time></trkpt><trkpt lat="43.391623" lon="-1.654518"><ele>20.81</ele><time>2011-09-14T10:16:54Z</time></trkpt><trkpt lat="43.391707" lon="-1.654528"><ele>20.81</ele><time>2011-09-14T10:16:55Z</time></trkpt><trkpt lat="43.391784" lon="-1.654499"><ele>20.81</ele><time>2011-09-14T10:16:56Z</time></trkpt><trkpt lat="43.391841" lon="-1.654431"><ele>20.81</ele><time>2011-09-14T10:16:57Z</time></trkpt><trkpt lat="43.391884" lon="-1.654352"><ele>21.29</ele><time>2011-09-14T10:16:58Z</time></trkpt><trkpt lat="43.391915" lon="-1.654271"><ele>21.77</ele><time>2011-09-14T10:16:59Z</time></trkpt><trkpt lat="43.391938" lon="-1.654207"><ele>22.25</ele><time>2011-09-14T10:17:00Z</time></trkpt><trkpt lat="43.392050" lon="-1.653937"><ele>26.09</ele><time>2011-09-14T10:17:09Z</time></trkpt><trkpt lat="43.392155" lon="-1.653650"><ele>27.53</ele><time>2011-09-14T10:17:16Z</time></trkpt><trkpt lat="43.392250" lon="-1.653384"><ele>29.46</ele><time>2011-09-14T10:17:24Z</time></trkpt><trkpt lat="43.392672" lon="-1.652521"><ele>30.90</ele><time>2011-09-14T10:17:36Z</time></trkpt><trkpt lat="43.393039" lon="-1.651855"><ele>31.38</ele><time>2011-09-14T10:17:46Z</time></trkpt><trkpt lat="43.393177" lon="-1.651609"><ele>31.86</ele><time>2011-09-14T10:17:57Z</time></trkpt><trkpt lat="43.393354" lon="-1.651302"><ele>32.82</ele><time>2011-09-14T10:18:09Z</time></trkpt><trkpt lat="43.393941" lon="-1.650270"><ele>33.30</ele><time>2011-09-14T10:18:21Z</time></trkpt><trkpt lat="43.394493" lon="-1.649293"><ele>35.23</ele><time>2011-09-14T10:18:34Z</time></trkpt><trkpt lat="43.394893" lon="-1.648582"><ele>35.23</ele><time>2011-09-14T10:18:42Z</time></trkpt><trkpt lat="43.395622" lon="-1.647304"><ele>31.38</ele><time>2011-09-14T10:18:54Z</time></trkpt><trkpt lat="43.395859" lon="-1.646884"><ele>29.46</ele><time>2011-09-14T10:19:01Z</time></trkpt><trkpt lat="43.395913" lon="-1.646802"><ele>29.46</ele><time>2011-09-14T10:19:13Z</time></trkpt><trkpt lat="43.396061" lon="-1.646542"><ele>29.94</ele><time>2011-09-14T10:19:28Z</time></trkpt><trkpt lat="43.396560" lon="-1.645668"><ele>29.94</ele><time>2011-09-14T10:19:38Z</time></trkpt><trkpt lat="43.397174" lon="-1.644582"><ele>30.42</ele><time>2011-09-14T10:19:49Z</time></trkpt><trkpt lat="43.397217" lon="-1.644460"><ele>30.42</ele><time>2011-09-14T10:19:50Z</time></trkpt><trkpt lat="43.397246" lon="-1.644335"><ele>30.42</ele><time>2011-09-14T10:19:51Z</time></trkpt><trkpt lat="43.397257" lon="-1.644199"><ele>30.42</ele><time>2011-09-14T10:19:52Z</time></trkpt><trkpt lat="43.397254" lon="-1.644055"><ele>30.42</ele><time>2011-09-14T10:19:53Z</time></trkpt><trkpt lat="43.397238" lon="-1.643913"><ele>30.42</ele><time>2011-09-14T10:19:54Z</time></trkpt><trkpt lat="43.397212" lon="-1.643778"><ele>29.94</ele><time>2011-09-14T10:19:55Z</time></trkpt><trkpt lat="43.397181" lon="-1.643645"><ele>29.94</ele><time>2011-09-14T10:19:56Z</time></trkpt><trkpt lat="43.397155" lon="-1.643512"><ele>29.46</ele><time>2011-09-14T10:19:57Z</time></trkpt><trkpt lat="43.397146" lon="-1.643375"><ele>28.98</ele><time>2011-09-14T10:19:58Z</time></trkpt><trkpt lat="43.397164" lon="-1.643232"><ele>28.98</ele><time>2011-09-14T10:19:59Z</time></trkpt><trkpt lat="43.397216" lon="-1.643095"><ele>28.98</ele><time>2011-09-14T10:20:00Z</time></trkpt><trkpt lat="43.397308" lon="-1.642993"><ele>29.46</ele><time>2011-09-14T10:20:01Z</time></trkpt><trkpt lat="43.397413" lon="-1.642954"><ele>29.46</ele><time>2011-09-14T10:20:02Z</time></trkpt><trkpt lat="43.397527" lon="-1.642933"><ele>29.94</ele><time>2011-09-14T10:20:03Z</time></trkpt><trkpt lat="43.397646" lon="-1.642915"><ele>29.94</ele><time>2011-09-14T10:20:04Z</time></trkpt><trkpt lat="43.398021" lon="-1.642830"><ele>30.90</ele><time>2011-09-14T10:20:07Z</time></trkpt><trkpt lat="43.398134" lon="-1.642770"><ele>31.38</ele><time>2011-09-14T10:20:08Z</time></trkpt><trkpt lat="43.398231" lon="-1.642694"><ele>31.38</ele><time>2011-09-14T10:20:09Z</time></trkpt><trkpt lat="43.398313" lon="-1.642608"><ele>31.86</ele><time>2011-09-14T10:20:10Z</time></trkpt><trkpt lat="43.398385" lon="-1.642515"><ele>31.86</ele><time>2011-09-14T10:20:11Z</time></trkpt><trkpt lat="43.398448" lon="-1.642417"><ele>31.86</ele><time>2011-09-14T10:20:12Z</time></trkpt><trkpt lat="43.398505" lon="-1.642320"><ele>31.86</ele><time>2011-09-14T10:20:13Z</time></trkpt><trkpt lat="43.398908" lon="-1.641587"><ele>31.38</ele><time>2011-09-14T10:20:23Z</time></trkpt><trkpt lat="43.398997" lon="-1.641400"><ele>31.38</ele><time>2011-09-14T10:20:31Z</time></trkpt><trkpt lat="43.399164" lon="-1.641074"><ele>31.38</ele><time>2011-09-14T10:20:45Z</time></trkpt><trkpt lat="43.399239" lon="-1.640865"><ele>31.86</ele><time>2011-09-14T10:20:50Z</time></trkpt><trkpt lat="43.399248" lon="-1.640789"><ele>31.86</ele><time>2011-09-14T10:20:51Z</time></trkpt><trkpt lat="43.399249" lon="-1.640707"><ele>31.86</ele><time>2011-09-14T10:20:52Z</time></trkpt><trkpt lat="43.399250" lon="-1.640626"><ele>31.86</ele><time>2011-09-14T10:20:53Z</time></trkpt><trkpt lat="43.399262" lon="-1.640545"><ele>31.86</ele><time>2011-09-14T10:20:54Z</time></trkpt><trkpt lat="43.399292" lon="-1.640466"><ele>32.34</ele><time>2011-09-14T10:20:55Z</time></trkpt><trkpt lat="43.399337" lon="-1.640402"><ele>32.34</ele><time>2011-09-14T10:20:56Z</time></trkpt><trkpt lat="43.399404" lon="-1.640356"><ele>32.82</ele><time>2011-09-14T10:20:57Z</time></trkpt><trkpt lat="43.399485" lon="-1.640315"><ele>32.82</ele><time>2011-09-14T10:20:58Z</time></trkpt><trkpt lat="43.399563" lon="-1.640267"><ele>33.30</ele><time>2011-09-14T10:20:59Z</time></trkpt><trkpt lat="43.399633" lon="-1.640203"><ele>33.30</ele><time>2011-09-14T10:21:00Z</time></trkpt><trkpt lat="43.399703" lon="-1.640116"><ele>33.30</ele><time>2011-09-14T10:21:01Z</time></trkpt><trkpt lat="43.399771" lon="-1.640009"><ele>33.30</ele><time>2011-09-14T10:21:02Z</time></trkpt><trkpt lat="43.399838" lon="-1.639893"><ele>33.30</ele><time>2011-09-14T10:21:03Z</time></trkpt><trkpt lat="43.400401" lon="-1.638883"><ele>33.30</ele><time>2011-09-14T10:21:12Z</time></trkpt><trkpt lat="43.401011" lon="-1.637814"><ele>30.42</ele><time>2011-09-14T10:21:21Z</time></trkpt><trkpt lat="43.401455" lon="-1.637002"><ele>27.53</ele><time>2011-09-14T10:21:34Z</time></trkpt><trkpt lat="43.402042" lon="-1.635969"><ele>24.17</ele><time>2011-09-14T10:21:44Z</time></trkpt><trkpt lat="43.402912" lon="-1.634472"><ele>19.84</ele><time>2011-09-14T10:21:57Z</time></trkpt><trkpt lat="43.403970" lon="-1.632626"><ele>16.00</ele><time>2011-09-14T10:22:12Z</time></trkpt><trkpt lat="43.404885" lon="-1.631011"><ele>12.63</ele><time>2011-09-14T10:22:22Z</time></trkpt><trkpt lat="43.406190" lon="-1.628705"><ele>17.44</ele><time>2011-09-14T10:22:36Z</time></trkpt><trkpt lat="43.407393" lon="-1.626417"><ele>28.02</ele><time>2011-09-14T10:22:50Z</time></trkpt><trkpt lat="43.408243" lon="-1.625074"><ele>26.57</ele><time>2011-09-14T10:22:58Z</time></trkpt><trkpt lat="43.409008" lon="-1.623743"><ele>30.42</ele><time>2011-09-14T10:23:05Z</time></trkpt><trkpt lat="43.409869" lon="-1.622199"><ele>36.67</ele><time>2011-09-14T10:23:15Z</time></trkpt><trkpt lat="43.411048" lon="-1.620103"><ele>48.20</ele><time>2011-09-14T10:23:29Z</time></trkpt><trkpt lat="43.412096" lon="-1.618232"><ele>54.45</ele><time>2011-09-14T10:23:42Z</time></trkpt><trkpt lat="43.412739" lon="-1.616554"><ele>53.49</ele><time>2011-09-14T10:23:53Z</time></trkpt><trkpt lat="43.413543" lon="-1.614331"><ele>50.13</ele><time>2011-09-14T10:24:06Z</time></trkpt><trkpt lat="43.414434" lon="-1.613128"><ele>40.03</ele><time>2011-09-14T10:24:14Z</time></trkpt><trkpt lat="43.416050" lon="-1.610933"><ele>27.05</ele><time>2011-09-14T10:24:28Z</time></trkpt><trkpt lat="43.416896" lon="-1.609807"><ele>31.86</ele><time>2011-09-14T10:24:36Z</time></trkpt><trkpt lat="43.417714" lon="-1.608694"><ele>38.59</ele><time>2011-09-14T10:24:47Z</time></trkpt><trkpt lat="43.418250" lon="-1.607961"><ele>43.40</ele><time>2011-09-14T10:24:57Z</time></trkpt><trkpt lat="43.418626" lon="-1.607564"><ele>46.28</ele><time>2011-09-14T10:25:04Z</time></trkpt><trkpt lat="43.418683" lon="-1.607533"><ele>46.28</ele><time>2011-09-14T10:25:05Z</time></trkpt><trkpt lat="43.418739" lon="-1.607510"><ele>46.76</ele><time>2011-09-14T10:25:06Z</time></trkpt><trkpt lat="43.418791" lon="-1.607494"><ele>47.24</ele><time>2011-09-14T10:25:07Z</time></trkpt><trkpt lat="43.418840" lon="-1.607482"><ele>47.24</ele><time>2011-09-14T10:25:08Z</time></trkpt><trkpt lat="43.419756" lon="-1.607346"><ele>51.57</ele><time>2011-09-14T10:25:22Z</time></trkpt><trkpt lat="43.420435" lon="-1.607053"><ele>55.89</ele><time>2011-09-14T10:25:32Z</time></trkpt><trkpt lat="43.420777" lon="-1.606607"><ele>56.37</ele><time>2011-09-14T10:25:39Z</time></trkpt><trkpt lat="43.420821" lon="-1.606508"><ele>56.37</ele><time>2011-09-14T10:25:40Z</time></trkpt><trkpt lat="43.420861" lon="-1.606398"><ele>55.89</ele><time>2011-09-14T10:25:41Z</time></trkpt><trkpt lat="43.421255" lon="-1.605291"><ele>50.13</ele><time>2011-09-14T10:25:50Z</time></trkpt><trkpt lat="43.421323" lon="-1.605186"><ele>49.65</ele><time>2011-09-14T10:25:51Z</time></trkpt><trkpt lat="43.421402" lon="-1.605092"><ele>49.16</ele><time>2011-09-14T10:25:52Z</time></trkpt><trkpt lat="43.421490" lon="-1.605011"><ele>48.20</ele><time>2011-09-14T10:25:53Z</time></trkpt><trkpt lat="43.421587" lon="-1.604943"><ele>47.72</ele><time>2011-09-14T10:25:54Z</time></trkpt><trkpt lat="43.421700" lon="-1.604905"><ele>47.24</ele><time>2011-09-14T10:25:55Z</time></trkpt><trkpt lat="43.421812" lon="-1.604877"><ele>46.76</ele><time>2011-09-14T10:25:56Z</time></trkpt><trkpt lat="43.421925" lon="-1.604867"><ele>46.28</ele><time>2011-09-14T10:25:57Z</time></trkpt><trkpt lat="43.422039" lon="-1.604874"><ele>45.80</ele><time>2011-09-14T10:25:58Z</time></trkpt><trkpt lat="43.422151" lon="-1.604899"><ele>44.84</ele><time>2011-09-14T10:25:59Z</time></trkpt><trkpt lat="43.422256" lon="-1.604935"><ele>44.36</ele><time>2011-09-14T10:26:00Z</time></trkpt><trkpt lat="43.422358" lon="-1.604974"><ele>43.88</ele><time>2011-09-14T10:26:01Z</time></trkpt><trkpt lat="43.422812" lon="-1.605111"><ele>40.99</ele><time>2011-09-14T10:26:05Z</time></trkpt><trkpt lat="43.422938" lon="-1.605117"><ele>40.51</ele><time>2011-09-14T10:26:06Z</time></trkpt><trkpt lat="43.423058" lon="-1.605110"><ele>40.51</ele><time>2011-09-14T10:26:07Z</time></trkpt><trkpt lat="43.423169" lon="-1.605092"><ele>40.51</ele><time>2011-09-14T10:26:08Z</time></trkpt><trkpt lat="43.423274" lon="-1.605070"><ele>40.51</ele><time>2011-09-14T10:26:09Z</time></trkpt><trkpt lat="43.424369" lon="-1.604662"><ele>39.07</ele><time>2011-09-14T10:26:20Z</time></trkpt><trkpt lat="43.425675" lon="-1.604063"><ele>35.71</ele><time>2011-09-14T10:26:32Z</time></trkpt><trkpt lat="43.426558" lon="-1.603689"><ele>33.78</ele><time>2011-09-14T10:26:41Z</time></trkpt><trkpt lat="43.426657" lon="-1.603692"><ele>33.78</ele><time>2011-09-14T10:26:42Z</time></trkpt><trkpt lat="43.426754" lon="-1.603718"><ele>33.30</ele><time>2011-09-14T10:26:43Z</time></trkpt><trkpt lat="43.426844" lon="-1.603755"><ele>32.82</ele><time>2011-09-14T10:26:44Z</time></trkpt><trkpt lat="43.426929" lon="-1.603793"><ele>32.34</ele><time>2011-09-14T10:26:45Z</time></trkpt><trkpt lat="43.427099" lon="-1.603848"><ele>31.38</ele><time>2011-09-14T10:26:47Z</time></trkpt><trkpt lat="43.427194" lon="-1.603842"><ele>30.90</ele><time>2011-09-14T10:26:48Z</time></trkpt><trkpt lat="43.427291" lon="-1.603804"><ele>30.42</ele><time>2011-09-14T10:26:49Z</time></trkpt><trkpt lat="43.427380" lon="-1.603737"><ele>29.94</ele><time>2011-09-14T10:26:50Z</time></trkpt><trkpt lat="43.427452" lon="-1.603646"><ele>29.46</ele><time>2011-09-14T10:26:51Z</time></trkpt><trkpt lat="43.427505" lon="-1.603538"><ele>28.98</ele><time>2011-09-14T10:26:52Z</time></trkpt><trkpt lat="43.427536" lon="-1.603414"><ele>28.02</ele><time>2011-09-14T10:26:53Z</time></trkpt><trkpt lat="43.427555" lon="-1.603285"><ele>27.05</ele><time>2011-09-14T10:26:54Z</time></trkpt><trkpt lat="43.427567" lon="-1.603155"><ele>26.57</ele><time>2011-09-14T10:26:55Z</time></trkpt><trkpt lat="43.427611" lon="-1.602773"><ele>24.65</ele><time>2011-09-14T10:26:58Z</time></trkpt><trkpt lat="43.427642" lon="-1.602646"><ele>24.65</ele><time>2011-09-14T10:26:59Z</time></trkpt><trkpt lat="43.427695" lon="-1.602528"><ele>24.17</ele><time>2011-09-14T10:27:00Z</time></trkpt><trkpt lat="43.427760" lon="-1.602425"><ele>23.69</ele><time>2011-09-14T10:27:01Z</time></trkpt><trkpt lat="43.427829" lon="-1.602331"><ele>23.21</ele><time>2011-09-14T10:27:02Z</time></trkpt><trkpt lat="43.428790" lon="-1.601101"><ele>19.84</ele><time>2011-09-14T10:27:15Z</time></trkpt><trkpt lat="43.429851" lon="-1.599826"><ele>15.04</ele><time>2011-09-14T10:27:28Z</time></trkpt><trkpt lat="43.430913" lon="-1.598416"><ele>9.27</ele><time>2011-09-14T10:27:41Z</time></trkpt><trkpt lat="43.431444" lon="-1.597578"><ele>8.79</ele><time>2011-09-14T10:27:50Z</time></trkpt><trkpt lat="43.432124" lon="-1.596604"><ele>9.27</ele><time>2011-09-14T10:27:58Z</time></trkpt><trkpt lat="43.432870" lon="-1.595858"><ele>8.79</ele><time>2011-09-14T10:28:06Z</time></trkpt><trkpt lat="43.434333" lon="-1.594584"><ele>12.63</ele><time>2011-09-14T10:28:19Z</time></trkpt><trkpt lat="43.435712" lon="-1.593399"><ele>18.40</ele><time>2011-09-14T10:28:31Z</time></trkpt><trkpt lat="43.436948" lon="-1.592318"><ele>25.13</ele><time>2011-09-14T10:28:42Z</time></trkpt><trkpt lat="43.437589" lon="-1.591733"><ele>29.46</ele><time>2011-09-14T10:28:51Z</time></trkpt><trkpt lat="43.437632" lon="-1.591668"><ele>29.94</ele><time>2011-09-14T10:28:52Z</time></trkpt><trkpt lat="43.437670" lon="-1.591596"><ele>30.42</ele><time>2011-09-14T10:28:53Z</time></trkpt><trkpt lat="43.437702" lon="-1.591514"><ele>30.90</ele><time>2011-09-14T10:28:54Z</time></trkpt><trkpt lat="43.437730" lon="-1.591422"><ele>31.38</ele><time>2011-09-14T10:28:55Z</time></trkpt><trkpt lat="43.437753" lon="-1.591312"><ele>31.86</ele><time>2011-09-14T10:28:56Z</time></trkpt><trkpt lat="43.437765" lon="-1.591181"><ele>31.86</ele><time>2011-09-14T10:28:57Z</time></trkpt><trkpt lat="43.437761" lon="-1.591037"><ele>32.34</ele><time>2011-09-14T10:28:58Z</time></trkpt><trkpt lat="43.437743" lon="-1.590887"><ele>32.82</ele><time>2011-09-14T10:28:59Z</time></trkpt><trkpt lat="43.437717" lon="-1.590731"><ele>33.78</ele><time>2011-09-14T10:29:00Z</time></trkpt><trkpt lat="43.437646" lon="-1.590011"><ele>37.15</ele><time>2011-09-14T10:29:05Z</time></trkpt><trkpt lat="43.437665" lon="-1.589884"><ele>37.63</ele><time>2011-09-14T10:29:06Z</time></trkpt><trkpt lat="43.437704" lon="-1.589765"><ele>38.11</ele><time>2011-09-14T10:29:07Z</time></trkpt><trkpt lat="43.437763" lon="-1.589655"><ele>38.59</ele><time>2011-09-14T10:29:08Z</time></trkpt><trkpt lat="43.437836" lon="-1.589554"><ele>39.07</ele><time>2011-09-14T10:29:09Z</time></trkpt><trkpt lat="43.437919" lon="-1.589461"><ele>39.55</ele><time>2011-09-14T10:29:10Z</time></trkpt><trkpt lat="43.438003" lon="-1.589374"><ele>40.03</ele><time>2011-09-14T10:29:11Z</time></trkpt><trkpt lat="43.438626" lon="-1.588689"><ele>44.36</ele><time>2011-09-14T10:29:19Z</time></trkpt><trkpt lat="43.438695" lon="-1.588576"><ele>44.84</ele><time>2011-09-14T10:29:20Z</time></trkpt><trkpt lat="43.438753" lon="-1.588443"><ele>45.32</ele><time>2011-09-14T10:29:21Z</time></trkpt><trkpt lat="43.438803" lon="-1.588291"><ele>46.28</ele><time>2011-09-14T10:29:22Z</time></trkpt><trkpt lat="43.438847" lon="-1.588133"><ele>46.76</ele><time>2011-09-14T10:29:23Z</time></trkpt><trkpt lat="43.439054" lon="-1.587454"><ele>50.13</ele><time>2011-09-14T10:29:28Z</time></trkpt><trkpt lat="43.439113" lon="-1.587343"><ele>51.09</ele><time>2011-09-14T10:29:29Z</time></trkpt><trkpt lat="43.439182" lon="-1.587243"><ele>51.57</ele><time>2011-09-14T10:29:30Z</time></trkpt><trkpt lat="43.439262" lon="-1.587160"><ele>52.53</ele><time>2011-09-14T10:29:31Z</time></trkpt><trkpt lat="43.439350" lon="-1.587097"><ele>53.01</ele><time>2011-09-14T10:29:32Z</time></trkpt><trkpt lat="43.439447" lon="-1.587047"><ele>53.01</ele><time>2011-09-14T10:29:33Z</time></trkpt><trkpt lat="43.439550" lon="-1.587010"><ele>53.49</ele><time>2011-09-14T10:29:34Z</time></trkpt><trkpt lat="43.439660" lon="-1.586984"><ele>54.45</ele><time>2011-09-14T10:29:35Z</time></trkpt><trkpt lat="43.439770" lon="-1.586968"><ele>54.93</ele><time>2011-09-14T10:29:36Z</time></trkpt><trkpt lat="43.439882" lon="-1.586967"><ele>55.41</ele><time>2011-09-14T10:29:37Z</time></trkpt><trkpt lat="43.439994" lon="-1.586978"><ele>54.93</ele><time>2011-09-14T10:29:38Z</time></trkpt><trkpt lat="43.440109" lon="-1.586991"><ele>54.93</ele><time>2011-09-14T10:29:39Z</time></trkpt><trkpt lat="43.441249" lon="-1.587045"><ele>58.30</ele><time>2011-09-14T10:29:49Z</time></trkpt><trkpt lat="43.441364" lon="-1.586988"><ele>58.78</ele><time>2011-09-14T10:29:50Z</time></trkpt><trkpt lat="43.441473" lon="-1.586897"><ele>59.26</ele><time>2011-09-14T10:29:51Z</time></trkpt><trkpt lat="43.441567" lon="-1.586776"><ele>60.22</ele><time>2011-09-14T10:29:52Z</time></trkpt><trkpt lat="43.441644" lon="-1.586637"><ele>61.18</ele><time>2011-09-14T10:29:53Z</time></trkpt><trkpt lat="43.441694" lon="-1.586484"><ele>62.14</ele><time>2011-09-14T10:29:54Z</time></trkpt><trkpt lat="43.441731" lon="-1.586325"><ele>62.62</ele><time>2011-09-14T10:29:55Z</time></trkpt><trkpt lat="43.441764" lon="-1.586162"><ele>63.58</ele><time>2011-09-14T10:29:56Z</time></trkpt><trkpt lat="43.441925" lon="-1.585569"><ele>66.95</ele><time>2011-09-14T10:30:00Z</time></trkpt><trkpt lat="43.441990" lon="-1.585447"><ele>67.43</ele><time>2011-09-14T10:30:01Z</time></trkpt><trkpt lat="43.442076" lon="-1.585339"><ele>68.39</ele><time>2011-09-14T10:30:02Z</time></trkpt><trkpt lat="43.442181" lon="-1.585260"><ele>68.87</ele><time>2011-09-14T10:30:03Z</time></trkpt><trkpt lat="43.442295" lon="-1.585217"><ele>69.35</ele><time>2011-09-14T10:30:04Z</time></trkpt><trkpt lat="43.442412" lon="-1.585202"><ele>69.35</ele><time>2011-09-14T10:30:05Z</time></trkpt><trkpt lat="43.442530" lon="-1.585199"><ele>69.83</ele><time>2011-09-14T10:30:06Z</time></trkpt><trkpt lat="43.443385" lon="-1.585129"><ele>72.24</ele><time>2011-09-14T10:30:13Z</time></trkpt><trkpt lat="43.443496" lon="-1.585074"><ele>72.72</ele><time>2011-09-14T10:30:14Z</time></trkpt><trkpt lat="43.443595" lon="-1.585010"><ele>73.20</ele><time>2011-09-14T10:30:15Z</time></trkpt><trkpt lat="43.444524" lon="-1.584200"><ele>73.68</ele><time>2011-09-14T10:30:26Z</time></trkpt><trkpt lat="43.445706" lon="-1.583116"><ele>73.20</ele><time>2011-09-14T10:30:40Z</time></trkpt><trkpt lat="43.446030" lon="-1.582755"><ele>72.72</ele><time>2011-09-14T10:30:47Z</time></trkpt><trkpt lat="43.446095" lon="-1.582650"><ele>72.24</ele><time>2011-09-14T10:30:57Z</time></trkpt><trkpt lat="43.446187" lon="-1.582497"><ele>71.76</ele><time>2011-09-14T10:31:07Z</time></trkpt><trkpt lat="43.446244" lon="-1.582427"><ele>71.76</ele><time>2011-09-14T10:31:21Z</time></trkpt><trkpt lat="43.446300" lon="-1.582396"><ele>72.24</ele><time>2011-09-14T10:31:22Z</time></trkpt><trkpt lat="43.446372" lon="-1.582379"><ele>72.72</ele><time>2011-09-14T10:31:23Z</time></trkpt><trkpt lat="43.446523" lon="-1.582351"><ele>73.68</ele><time>2011-09-14T10:31:25Z</time></trkpt><trkpt lat="43.446595" lon="-1.582313"><ele>73.68</ele><time>2011-09-14T10:31:26Z</time></trkpt><trkpt lat="43.446671" lon="-1.582256"><ele>73.68</ele><time>2011-09-14T10:31:27Z</time></trkpt><trkpt lat="43.447631" lon="-1.581383"><ele>75.60</ele><time>2011-09-14T10:31:39Z</time></trkpt><trkpt lat="43.449059" lon="-1.580058"><ele>76.08</ele><time>2011-09-14T10:31:54Z</time></trkpt><trkpt lat="43.449136" lon="-1.579941"><ele>75.60</ele><time>2011-09-14T10:31:55Z</time></trkpt><trkpt lat="43.449206" lon="-1.579815"><ele>75.12</ele><time>2011-09-14T10:31:56Z</time></trkpt><trkpt lat="43.449270" lon="-1.579676"><ele>74.64</ele><time>2011-09-14T10:31:57Z</time></trkpt><trkpt lat="43.449328" lon="-1.579525"><ele>74.16</ele><time>2011-09-14T10:31:58Z</time></trkpt><trkpt lat="43.449378" lon="-1.579363"><ele>73.68</ele><time>2011-09-14T10:31:59Z</time></trkpt><trkpt lat="43.449417" lon="-1.579198"><ele>73.20</ele><time>2011-09-14T10:32:00Z</time></trkpt><trkpt lat="43.449448" lon="-1.579032"><ele>72.72</ele><time>2011-09-14T10:32:01Z</time></trkpt><trkpt lat="43.449731" lon="-1.577740"><ele>68.87</ele><time>2011-09-14T10:32:08Z</time></trkpt><trkpt lat="43.449802" lon="-1.577572"><ele>67.91</ele><time>2011-09-14T10:32:09Z</time></trkpt><trkpt lat="43.450489" lon="-1.575831"><ele>62.62</ele><time>2011-09-14T10:32:19Z</time></trkpt><trkpt lat="43.450801" lon="-1.574805"><ele>59.26</ele><time>2011-09-14T10:32:25Z</time></trkpt><trkpt lat="43.450883" lon="-1.574657"><ele>58.78</ele><time>2011-09-14T10:32:26Z</time></trkpt><trkpt lat="43.450975" lon="-1.574529"><ele>58.30</ele><time>2011-09-14T10:32:27Z</time></trkpt><trkpt lat="43.451072" lon="-1.574419"><ele>58.30</ele><time>2011-09-14T10:32:28Z</time></trkpt><trkpt lat="43.451175" lon="-1.574325"><ele>57.82</ele><time>2011-09-14T10:32:29Z</time></trkpt><trkpt lat="43.451284" lon="-1.574243"><ele>57.34</ele><time>2011-09-14T10:32:30Z</time></trkpt><trkpt lat="43.451398" lon="-1.574171"><ele>56.86</ele><time>2011-09-14T10:32:31Z</time></trkpt><trkpt lat="43.451512" lon="-1.574108"><ele>56.37</ele><time>2011-09-14T10:32:32Z</time></trkpt><trkpt lat="43.452164" lon="-1.573853"><ele>53.01</ele><time>2011-09-14T10:32:38Z</time></trkpt><trkpt lat="43.452286" lon="-1.573845"><ele>52.05</ele><time>2011-09-14T10:32:39Z</time></trkpt><trkpt lat="43.453753" lon="-1.573613"><ele>42.92</ele><time>2011-09-14T10:32:51Z</time></trkpt><trkpt lat="43.455337" lon="-1.573268"><ele>34.74</ele><time>2011-09-14T10:33:03Z</time></trkpt><trkpt lat="43.455593" lon="-1.573196"><ele>35.23</ele><time>2011-09-14T10:33:05Z</time></trkpt><trkpt lat="43.455712" lon="-1.573132"><ele>35.23</ele><time>2011-09-14T10:33:06Z</time></trkpt><trkpt lat="43.455823" lon="-1.573053"><ele>35.23</ele><time>2011-09-14T10:33:07Z</time></trkpt><trkpt lat="43.456586" lon="-1.572391"><ele>34.26</ele><time>2011-09-14T10:33:16Z</time></trkpt><trkpt lat="43.456676" lon="-1.572345"><ele>33.78</ele><time>2011-09-14T10:33:17Z</time></trkpt><trkpt lat="43.456774" lon="-1.572310"><ele>33.78</ele><time>2011-09-14T10:33:18Z</time></trkpt><trkpt lat="43.456879" lon="-1.572289"><ele>33.30</ele><time>2011-09-14T10:33:19Z</time></trkpt><trkpt lat="43.456989" lon="-1.572286"><ele>33.30</ele><time>2011-09-14T10:33:20Z</time></trkpt><trkpt lat="43.457099" lon="-1.572296"><ele>32.82</ele><time>2011-09-14T10:33:21Z</time></trkpt><trkpt lat="43.457208" lon="-1.572314"><ele>32.82</ele><time>2011-09-14T10:33:22Z</time></trkpt><trkpt lat="43.457967" lon="-1.572417"><ele>31.38</ele><time>2011-09-14T10:33:30Z</time></trkpt><trkpt lat="43.458020" lon="-1.572408"><ele>31.38</ele><time>2011-09-14T10:33:31Z</time></trkpt><trkpt lat="43.458070" lon="-1.572387"><ele>31.38</ele><time>2011-09-14T10:33:32Z</time></trkpt><trkpt lat="43.458118" lon="-1.572348"><ele>30.90</ele><time>2011-09-14T10:33:33Z</time></trkpt><trkpt lat="43.458165" lon="-1.572296"><ele>30.90</ele><time>2011-09-14T10:33:34Z</time></trkpt><trkpt lat="43.458216" lon="-1.572250"><ele>30.42</ele><time>2011-09-14T10:33:35Z</time></trkpt><trkpt lat="43.458272" lon="-1.572226"><ele>30.42</ele><time>2011-09-14T10:33:36Z</time></trkpt><trkpt lat="43.458328" lon="-1.572231"><ele>30.42</ele><time>2011-09-14T10:33:37Z</time></trkpt><trkpt lat="43.458377" lon="-1.572258"><ele>30.42</ele><time>2011-09-14T10:33:38Z</time></trkpt><trkpt lat="43.458418" lon="-1.572294"><ele>30.42</ele><time>2011-09-14T10:33:39Z</time></trkpt><trkpt lat="43.458462" lon="-1.572323"><ele>30.42</ele><time>2011-09-14T10:33:40Z</time></trkpt><trkpt lat="43.458517" lon="-1.572336"><ele>30.42</ele><time>2011-09-14T10:33:41Z</time></trkpt><trkpt lat="43.458584" lon="-1.572328"><ele>30.42</ele><time>2011-09-14T10:33:42Z</time></trkpt><trkpt lat="43.458664" lon="-1.572301"><ele>29.94</ele><time>2011-09-14T10:33:43Z</time></trkpt><trkpt lat="43.458759" lon="-1.572261"><ele>29.46</ele><time>2011-09-14T10:33:44Z</time></trkpt><trkpt lat="43.459806" lon="-1.571652"><ele>21.29</ele><time>2011-09-14T10:33:53Z</time></trkpt><trkpt lat="43.461258" lon="-1.570733"><ele>20.81</ele><time>2011-09-14T10:34:05Z</time></trkpt><trkpt lat="43.461828" lon="-1.570496"><ele>24.17</ele><time>2011-09-14T10:34:12Z</time></trkpt><trkpt lat="43.461894" lon="-1.570502"><ele>24.17</ele><time>2011-09-14T10:34:13Z</time></trkpt><trkpt lat="43.461956" lon="-1.570518"><ele>24.65</ele><time>2011-09-14T10:34:14Z</time></trkpt><trkpt lat="43.462016" lon="-1.570541"><ele>24.65</ele><time>2011-09-14T10:34:15Z</time></trkpt><trkpt lat="43.462077" lon="-1.570567"><ele>24.65</ele><time>2011-09-14T10:34:16Z</time></trkpt><trkpt lat="43.462138" lon="-1.570588"><ele>24.65</ele><time>2011-09-14T10:34:17Z</time></trkpt><trkpt lat="43.462196" lon="-1.570599"><ele>24.65</ele><time>2011-09-14T10:34:18Z</time></trkpt><trkpt lat="43.462301" lon="-1.570610"><ele>25.13</ele><time>2011-09-14T10:34:20Z</time></trkpt><trkpt lat="43.462347" lon="-1.570624"><ele>25.13</ele><time>2011-09-14T10:34:21Z</time></trkpt><trkpt lat="43.462391" lon="-1.570646"><ele>25.61</ele><time>2011-09-14T10:34:22Z</time></trkpt><trkpt lat="43.462434" lon="-1.570672"><ele>25.61</ele><time>2011-09-14T10:34:23Z</time></trkpt><trkpt lat="43.462476" lon="-1.570698"><ele>25.61</ele><time>2011-09-14T10:34:24Z</time></trkpt><trkpt lat="43.462617" lon="-1.570724"><ele>26.09</ele><time>2011-09-14T10:34:28Z</time></trkpt><trkpt lat="43.462670" lon="-1.570705"><ele>26.57</ele><time>2011-09-14T10:34:29Z</time></trkpt><trkpt lat="43.462735" lon="-1.570682"><ele>26.57</ele><time>2011-09-14T10:34:30Z</time></trkpt><trkpt lat="43.462806" lon="-1.570664"><ele>26.57</ele><time>2011-09-14T10:34:31Z</time></trkpt><trkpt lat="43.462882" lon="-1.570656"><ele>27.05</ele><time>2011-09-14T10:34:32Z</time></trkpt><trkpt lat="43.462979" lon="-1.570655"><ele>27.05</ele><time>2011-09-14T10:34:33Z</time></trkpt><trkpt lat="43.463840" lon="-1.570620"><ele>28.02</ele><time>2011-09-14T10:34:40Z</time></trkpt><trkpt lat="43.464191" lon="-1.570681"><ele>26.57</ele><time>2011-09-14T10:34:43Z</time></trkpt><trkpt lat="43.464308" lon="-1.570735"><ele>26.09</ele><time>2011-09-14T10:34:44Z</time></trkpt><trkpt lat="43.464422" lon="-1.570812"><ele>25.61</ele><time>2011-09-14T10:34:45Z</time></trkpt><trkpt lat="43.464532" lon="-1.570906"><ele>24.65</ele><time>2011-09-14T10:34:46Z</time></trkpt><trkpt lat="43.464640" lon="-1.571009"><ele>23.69</ele><time>2011-09-14T10:34:47Z</time></trkpt><trkpt lat="43.465299" lon="-1.571696"><ele>17.92</ele><time>2011-09-14T10:34:55Z</time></trkpt><trkpt lat="43.465944" lon="-1.572163"><ele>16.00</ele><time>2011-09-14T10:35:02Z</time></trkpt><trkpt lat="43.466074" lon="-1.572195"><ele>15.52</ele><time>2011-09-14T10:35:03Z</time></trkpt><trkpt lat="43.466203" lon="-1.572199"><ele>15.52</ele><time>2011-09-14T10:35:04Z</time></trkpt><trkpt lat="43.466329" lon="-1.572179"><ele>15.52</ele><time>2011-09-14T10:35:05Z</time></trkpt><trkpt lat="43.466455" lon="-1.572137"><ele>15.52</ele><time>2011-09-14T10:35:06Z</time></trkpt><trkpt lat="43.466575" lon="-1.572073"><ele>15.04</ele><time>2011-09-14T10:35:07Z</time></trkpt><trkpt lat="43.466680" lon="-1.571994"><ele>15.52</ele><time>2011-09-14T10:35:08Z</time></trkpt><trkpt lat="43.466769" lon="-1.571904"><ele>15.52</ele><time>2011-09-14T10:35:09Z</time></trkpt><trkpt lat="43.466846" lon="-1.571815"><ele>16.00</ele><time>2011-09-14T10:35:10Z</time></trkpt><trkpt lat="43.466964" lon="-1.571655"><ele>16.96</ele><time>2011-09-14T10:35:12Z</time></trkpt><trkpt lat="43.467005" lon="-1.571572"><ele>17.44</ele><time>2011-09-14T10:35:13Z</time></trkpt><trkpt lat="43.467038" lon="-1.571481"><ele>17.92</ele><time>2011-09-14T10:35:14Z</time></trkpt><trkpt lat="43.467064" lon="-1.571380"><ele>17.92</ele><time>2011-09-14T10:35:15Z</time></trkpt><trkpt lat="43.467080" lon="-1.571266"><ele>18.40</ele><time>2011-09-14T10:35:16Z</time></trkpt><trkpt lat="43.467095" lon="-1.571142"><ele>18.88</ele><time>2011-09-14T10:35:17Z</time></trkpt><trkpt lat="43.467176" lon="-1.570502"><ele>20.32</ele><time>2011-09-14T10:35:22Z</time></trkpt><trkpt lat="43.467218" lon="-1.570389"><ele>20.81</ele><time>2011-09-14T10:35:23Z</time></trkpt><trkpt lat="43.467280" lon="-1.570275"><ele>21.29</ele><time>2011-09-14T10:35:24Z</time></trkpt><trkpt lat="43.467357" lon="-1.570163"><ele>21.29</ele><time>2011-09-14T10:35:25Z</time></trkpt><trkpt lat="43.467441" lon="-1.570052"><ele>21.77</ele><time>2011-09-14T10:35:26Z</time></trkpt><trkpt lat="43.468245" lon="-1.569023"><ele>26.09</ele><time>2011-09-14T10:35:37Z</time></trkpt><trkpt lat="43.468697" lon="-1.568545"><ele>28.02</ele><time>2011-09-14T10:35:45Z</time></trkpt><trkpt lat="43.469477" lon="-1.567938"><ele>31.38</ele><time>2011-09-14T10:35:53Z</time></trkpt><trkpt lat="43.470691" lon="-1.567135"><ele>36.67</ele><time>2011-09-14T10:36:04Z</time></trkpt><trkpt lat="43.471745" lon="-1.566588"><ele>43.88</ele><time>2011-09-14T10:36:14Z</time></trkpt><trkpt lat="43.471845" lon="-1.566576"><ele>44.36</ele><time>2011-09-14T10:36:15Z</time></trkpt><trkpt lat="43.472668" lon="-1.566572"><ele>46.76</ele><time>2011-09-14T10:36:25Z</time></trkpt><trkpt lat="43.472907" lon="-1.566524"><ele>46.28</ele><time>2011-09-14T10:36:28Z</time></trkpt><trkpt lat="43.472972" lon="-1.566482"><ele>46.28</ele><time>2011-09-14T10:36:29Z</time></trkpt><trkpt lat="43.473031" lon="-1.566442"><ele>46.28</ele><time>2011-09-14T10:36:30Z</time></trkpt><trkpt lat="43.473086" lon="-1.566426"><ele>46.76</ele><time>2011-09-14T10:36:31Z</time></trkpt><trkpt lat="43.473138" lon="-1.566442"><ele>46.76</ele><time>2011-09-14T10:36:32Z</time></trkpt><trkpt lat="43.473181" lon="-1.566486"><ele>46.76</ele><time>2011-09-14T10:36:33Z</time></trkpt><trkpt lat="43.473219" lon="-1.566545"><ele>46.28</ele><time>2011-09-14T10:36:34Z</time></trkpt><trkpt lat="43.473267" lon="-1.566604"><ele>46.28</ele><time>2011-09-14T10:36:35Z</time></trkpt><trkpt lat="43.473333" lon="-1.566647"><ele>46.76</ele><time>2011-09-14T10:36:36Z</time></trkpt><trkpt lat="43.473415" lon="-1.566667"><ele>46.76</ele><time>2011-09-14T10:36:37Z</time></trkpt><trkpt lat="43.473506" lon="-1.566676"><ele>46.76</ele><time>2011-09-14T10:36:38Z</time></trkpt><trkpt lat="43.474463" lon="-1.566502"><ele>47.72</ele><time>2011-09-14T10:36:49Z</time></trkpt><trkpt lat="43.475265" lon="-1.566218"><ele>47.24</ele><time>2011-09-14T10:37:00Z</time></trkpt><trkpt lat="43.475989" lon="-1.565998"><ele>47.72</ele><time>2011-09-14T10:37:10Z</time></trkpt><trkpt lat="43.476815" lon="-1.565581"><ele>48.20</ele><time>2011-09-14T10:37:20Z</time></trkpt><trkpt lat="43.476872" lon="-1.565511"><ele>48.20</ele><time>2011-09-14T10:37:21Z</time></trkpt><trkpt lat="43.476916" lon="-1.565430"><ele>48.20</ele><time>2011-09-14T10:37:22Z</time></trkpt><trkpt lat="43.476993" lon="-1.565274"><ele>48.68</ele><time>2011-09-14T10:37:24Z</time></trkpt><trkpt lat="43.477055" lon="-1.565231"><ele>48.68</ele><time>2011-09-14T10:37:25Z</time></trkpt><trkpt lat="43.477133" lon="-1.565217"><ele>48.20</ele><time>2011-09-14T10:37:26Z</time></trkpt><trkpt lat="43.477690" lon="-1.565169"><ele>47.24</ele><time>2011-09-14T10:37:32Z</time></trkpt><trkpt lat="43.478474" lon="-1.564872"><ele>47.72</ele><time>2011-09-14T10:37:41Z</time></trkpt><trkpt lat="43.478528" lon="-1.564825"><ele>47.72</ele><time>2011-09-14T10:37:42Z</time></trkpt><trkpt lat="43.478567" lon="-1.564766"><ele>48.20</ele><time>2011-09-14T10:37:43Z</time></trkpt><trkpt lat="43.478636" lon="-1.564641"><ele>48.68</ele><time>2011-09-14T10:37:45Z</time></trkpt><trkpt lat="43.478686" lon="-1.564607"><ele>48.68</ele><time>2011-09-14T10:37:46Z</time></trkpt><trkpt lat="43.478739" lon="-1.564610"><ele>49.16</ele><time>2011-09-14T10:37:47Z</time></trkpt><trkpt lat="43.478790" lon="-1.564670"><ele>48.68</ele><time>2011-09-14T10:37:48Z</time></trkpt><trkpt lat="43.478823" lon="-1.564739"><ele>48.68</ele><time>2011-09-14T10:37:49Z</time></trkpt><trkpt lat="43.478849" lon="-1.564814"><ele>48.68</ele><time>2011-09-14T10:37:50Z</time></trkpt><trkpt lat="43.478874" lon="-1.564902"><ele>48.68</ele><time>2011-09-14T10:37:51Z</time></trkpt><trkpt lat="43.478965" lon="-1.565214"><ele>48.20</ele><time>2011-09-14T10:37:54Z</time></trkpt><trkpt lat="43.479015" lon="-1.565311"><ele>47.72</ele><time>2011-09-14T10:37:55Z</time></trkpt><trkpt lat="43.479083" lon="-1.565385"><ele>47.72</ele><time>2011-09-14T10:37:56Z</time></trkpt><trkpt lat="43.479162" lon="-1.565433"><ele>47.72</ele><time>2011-09-14T10:37:57Z</time></trkpt><trkpt lat="43.479250" lon="-1.565451"><ele>47.72</ele><time>2011-09-14T10:37:58Z</time></trkpt><trkpt lat="43.479341" lon="-1.565445"><ele>47.72</ele><time>2011-09-14T10:37:59Z</time></trkpt><trkpt lat="43.479431" lon="-1.565428"><ele>47.72</ele><time>2011-09-14T10:38:00Z</time></trkpt><trkpt lat="43.479516" lon="-1.565408"><ele>47.72</ele><time>2011-09-14T10:38:01Z</time></trkpt><trkpt lat="43.479817" lon="-1.565342"><ele>47.72</ele><time>2011-09-14T10:38:05Z</time></trkpt><trkpt lat="43.479898" lon="-1.565346"><ele>48.20</ele><time>2011-09-14T10:38:06Z</time></trkpt><trkpt lat="43.479986" lon="-1.565408"><ele>49.16</ele><time>2011-09-14T10:38:07Z</time></trkpt><trkpt lat="43.480077" lon="-1.565475"><ele>50.61</ele><time>2011-09-14T10:38:08Z</time></trkpt><trkpt lat="43.480180" lon="-1.565518"><ele>51.57</ele><time>2011-09-14T10:38:09Z</time></trkpt><trkpt lat="43.480272" lon="-1.565512"><ele>50.61</ele><time>2011-09-14T10:38:10Z</time></trkpt><trkpt lat="43.480743" lon="-1.565729"><ele>47.24</ele><time>2011-09-14T10:38:16Z</time></trkpt><trkpt lat="43.480806" lon="-1.565806"><ele>46.76</ele><time>2011-09-14T10:38:17Z</time></trkpt><trkpt lat="43.480850" lon="-1.565894"><ele>45.32</ele><time>2011-09-14T10:38:18Z</time></trkpt><trkpt lat="43.480874" lon="-1.565996"><ele>43.40</ele><time>2011-09-14T10:38:19Z</time></trkpt><trkpt lat="43.480898" lon="-1.566089"><ele>42.44</ele><time>2011-09-14T10:38:20Z</time></trkpt><trkpt lat="43.481329" lon="-1.567497"><ele>32.34</ele><time>2011-09-14T10:38:33Z</time></trkpt><trkpt lat="43.481594" lon="-1.568446"><ele>27.05</ele><time>2011-09-14T10:38:42Z</time></trkpt><trkpt lat="43.481640" lon="-1.568501"><ele>26.57</ele><time>2011-09-14T10:38:43Z</time></trkpt><trkpt lat="43.481695" lon="-1.568518"><ele>26.09</ele><time>2011-09-14T10:38:44Z</time></trkpt><trkpt lat="43.481755" lon="-1.568503"><ele>26.09</ele><time>2011-09-14T10:38:45Z</time></trkpt><trkpt lat="43.481817" lon="-1.568459"><ele>26.09</ele><time>2011-09-14T10:38:46Z</time></trkpt><trkpt lat="43.481875" lon="-1.568394"><ele>25.61</ele><time>2011-09-14T10:38:47Z</time></trkpt><trkpt lat="43.481920" lon="-1.568283"><ele>23.69</ele><time>2011-09-14T10:38:48Z</time></trkpt><trkpt lat="43.481942" lon="-1.568166"><ele>22.73</ele><time>2011-09-14T10:38:49Z</time></trkpt><trkpt lat="43.481944" lon="-1.568056"><ele>22.25</ele><time>2011-09-14T10:38:50Z</time></trkpt><trkpt lat="43.481939" lon="-1.567948"><ele>21.77</ele><time>2011-09-14T10:38:51Z</time></trkpt><trkpt lat="43.481928" lon="-1.567842"><ele>20.81</ele><time>2011-09-14T10:38:52Z</time></trkpt><trkpt lat="43.481910" lon="-1.567734"><ele>19.84</ele><time>2011-09-14T10:38:53Z</time></trkpt><trkpt lat="43.481891" lon="-1.567629"><ele>19.36</ele><time>2011-09-14T10:38:54Z</time></trkpt><trkpt lat="43.481810" lon="-1.567117"><ele>16.00</ele><time>2011-09-14T10:39:02Z</time></trkpt><trkpt lat="43.481792" lon="-1.566874"><ele>15.04</ele><time>2011-09-14T10:39:06Z</time></trkpt><trkpt lat="43.481810" lon="-1.566819"><ele>15.04</ele><time>2011-09-14T10:39:07Z</time></trkpt><trkpt lat="43.481845" lon="-1.566786"><ele>15.52</ele><time>2011-09-14T10:39:08Z</time></trkpt><trkpt lat="43.481889" lon="-1.566772"><ele>15.52</ele><time>2011-09-14T10:39:09Z</time></trkpt><trkpt lat="43.481938" lon="-1.566763"><ele>15.52</ele><time>2011-09-14T10:39:10Z</time></trkpt><trkpt lat="43.482165" lon="-1.566749"><ele>16.48</ele><time>2011-09-14T10:39:16Z</time></trkpt><trkpt lat="43.482185" lon="-1.566778"><ele>16.48</ele><time>2011-09-14T10:39:17Z</time></trkpt><trkpt lat="43.482200" lon="-1.566807"><ele>16.00</ele><time>2011-09-14T10:39:18Z</time></trkpt><trkpt lat="43.482237" lon="-1.566903"><ele>14.08</ele><time>2011-09-14T10:39:27Z</time></trkpt><trkpt lat="43.482231" lon="-1.566939"><ele>13.60</ele><time>2011-09-14T10:39:28Z</time></trkpt><trkpt lat="43.482216" lon="-1.566994"><ele>13.60</ele><time>2011-09-14T10:39:29Z</time></trkpt><trkpt lat="43.482192" lon="-1.567054"><ele>13.12</ele><time>2011-09-14T10:39:30Z</time></trkpt><trkpt lat="43.482171" lon="-1.567110"><ele>13.12</ele><time>2011-09-14T10:39:31Z</time></trkpt><trkpt lat="43.482146" lon="-1.567254"><ele>13.12</ele><time>2011-09-14T10:39:34Z</time></trkpt><trkpt lat="43.482148" lon="-1.567317"><ele>13.12</ele><time>2011-09-14T10:39:35Z</time></trkpt><trkpt lat="43.482153" lon="-1.567389"><ele>12.63</ele><time>2011-09-14T10:39:36Z</time></trkpt><trkpt lat="43.482219" lon="-1.568088"><ele>10.23</ele><time>2011-09-14T10:39:44Z</time></trkpt><trkpt lat="43.482213" lon="-1.568170"><ele>9.75</ele><time>2011-09-14T10:39:45Z</time></trkpt><trkpt lat="43.482197" lon="-1.568249"><ele>9.75</ele><time>2011-09-14T10:39:46Z</time></trkpt><trkpt lat="43.482174" lon="-1.568319"><ele>9.75</ele><time>2011-09-14T10:39:47Z</time></trkpt><trkpt lat="43.482150" lon="-1.568375"><ele>9.27</ele><time>2011-09-14T10:39:48Z</time></trkpt><trkpt lat="43.482123" lon="-1.568421"><ele>9.27</ele><time>2011-09-14T10:39:49Z</time></trkpt><trkpt lat="43.482089" lon="-1.568462"><ele>8.79</ele><time>2011-09-14T10:39:50Z</time></trkpt><trkpt lat="43.482046" lon="-1.568502"><ele>8.79</ele><time>2011-09-14T10:39:51Z</time></trkpt><trkpt lat="43.481997" lon="-1.568546"><ele>8.31</ele><time>2011-09-14T10:39:52Z</time></trkpt><trkpt lat="43.481548" lon="-1.568866"><ele>9.27</ele><time>2011-09-14T10:39:59Z</time></trkpt><trkpt lat="43.481492" lon="-1.568877"><ele>9.27</ele><time>2011-09-14T10:40:00Z</time></trkpt><trkpt lat="43.481431" lon="-1.568852"><ele>9.27</ele><time>2011-09-14T10:40:01Z</time></trkpt><trkpt lat="43.481366" lon="-1.568828"><ele>9.75</ele><time>2011-09-14T10:40:02Z</time></trkpt><trkpt lat="43.481305" lon="-1.568764"><ele>9.27</ele><time>2011-09-14T10:40:03Z</time></trkpt><trkpt lat="43.481265" lon="-1.568692"><ele>8.79</ele><time>2011-09-14T10:40:04Z</time></trkpt><trkpt lat="43.481239" lon="-1.568614"><ele>8.79</ele><time>2011-09-14T10:40:05Z</time></trkpt><trkpt lat="43.481222" lon="-1.568549"><ele>8.31</ele><time>2011-09-14T10:40:06Z</time></trkpt><trkpt lat="43.481186" lon="-1.568420"><ele>7.83</ele><time>2011-09-14T10:40:14Z</time></trkpt><trkpt lat="43.481172" lon="-1.568335"><ele>7.35</ele><time>2011-09-14T10:40:19Z</time></trkpt><trkpt lat="43.481154" lon="-1.568260"><ele>6.87</ele><time>2011-09-14T10:40:20Z</time></trkpt><trkpt lat="43.480876" lon="-1.567325"><ele>6.87</ele><time>2011-09-14T10:40:29Z</time></trkpt><trkpt lat="43.480641" lon="-1.566660"><ele>7.35</ele><time>2011-09-14T10:40:35Z</time></trkpt><trkpt lat="43.480586" lon="-1.566564"><ele>7.35</ele><time>2011-09-14T10:40:36Z</time></trkpt><trkpt lat="43.480523" lon="-1.566480"><ele>7.35</ele><time>2011-09-14T10:40:37Z</time></trkpt><trkpt lat="43.480455" lon="-1.566408"><ele>7.35</ele><time>2011-09-14T10:40:38Z</time></trkpt><trkpt lat="43.480384" lon="-1.566346"><ele>7.35</ele><time>2011-09-14T10:40:39Z</time></trkpt><trkpt lat="43.480308" lon="-1.566299"><ele>6.87</ele><time>2011-09-14T10:40:40Z</time></trkpt><trkpt lat="43.480227" lon="-1.566277"><ele>7.35</ele><time>2011-09-14T10:40:41Z</time></trkpt><trkpt lat="43.480141" lon="-1.566275"><ele>6.87</ele><time>2011-09-14T10:40:42Z</time></trkpt><trkpt lat="43.480055" lon="-1.566289"><ele>6.87</ele><time>2011-09-14T10:40:43Z</time></trkpt><trkpt lat="43.479970" lon="-1.566310"><ele>6.87</ele><time>2011-09-14T10:40:44Z</time></trkpt><trkpt lat="43.478986" lon="-1.566501"><ele>3.02</ele><time>2011-09-14T10:40:57Z</time></trkpt><trkpt lat="43.478510" lon="-1.566616"><ele>3.02</ele><time>2011-09-14T10:41:07Z</time></trkpt><trkpt lat="43.478262" lon="-1.566657"><ele>5.91</ele><time>2011-09-14T10:41:15Z</time></trkpt><trkpt lat="43.478255" lon="-1.566643"><ele>5.91</ele><time>2011-09-14T10:41:16Z</time></trkpt><trkpt lat="43.478242" lon="-1.566559"><ele>3.98</ele><time>2011-09-14T10:41:30Z</time></trkpt><trkpt lat="43.478246" lon="-1.566491"><ele>-1.30</ele><time>2011-09-14T10:43:00Z</time></trkpt><trkpt lat="43.478248" lon="-1.566434"><ele>-6.59</ele><time>2011-09-14T10:44:47Z</time></trkpt><trkpt lat="43.478231" lon="-1.566369"><ele>-18.61</ele><time>2011-09-14T10:45:47Z</time></trkpt><trkpt lat="43.478248" lon="-1.566568"><ele>14.56</ele><time>2011-09-14T10:46:30Z</time></trkpt><trkpt lat="43.478290" lon="-1.566944"><ele>77.52</ele><time>2011-09-14T10:46:55Z</time></trkpt><trkpt lat="43.478238" lon="-1.566452"><ele>-7.07</ele><time>2011-09-14T10:47:40Z</time></trkpt><trkpt lat="43.478240" lon="-1.566501"><ele>-1.30</ele><time>2011-09-14T10:53:08Z</time></trkpt><trkpt lat="43.478311" lon="-1.566570"><ele>4.94</ele><time>2011-09-14T10:53:19Z</time></trkpt><trkpt lat="43.478320" lon="-1.566572"><ele>5.42</ele><time>2011-09-14T10:53:25Z</time></trkpt><trkpt lat="43.478424" lon="-1.566572"><ele>4.46</ele><time>2011-09-14T10:53:31Z</time></trkpt><trkpt lat="43.478544" lon="-1.566517"><ele>9.27</ele><time>2011-09-14T10:53:36Z</time></trkpt><trkpt lat="43.478677" lon="-1.566530"><ele>10.23</ele><time>2011-09-14T10:53:40Z</time></trkpt><trkpt lat="43.478740" lon="-1.566522"><ele>10.23</ele><time>2011-09-14T10:53:41Z</time></trkpt><trkpt lat="43.479280" lon="-1.566422"><ele>11.67</ele><time>2011-09-14T10:53:51Z</time></trkpt><trkpt lat="43.480232" lon="-1.566251"><ele>11.67</ele><time>2011-09-14T10:54:03Z</time></trkpt><trkpt lat="43.480317" lon="-1.566265"><ele>11.67</ele><time>2011-09-14T10:54:04Z</time></trkpt><trkpt lat="43.480398" lon="-1.566300"><ele>12.15</ele><time>2011-09-14T10:54:05Z</time></trkpt><trkpt lat="43.480474" lon="-1.566352"><ele>11.67</ele><time>2011-09-14T10:54:06Z</time></trkpt><trkpt lat="43.480543" lon="-1.566414"><ele>11.19</ele><time>2011-09-14T10:54:07Z</time></trkpt><trkpt lat="43.480605" lon="-1.566481"><ele>10.71</ele><time>2011-09-14T10:54:08Z</time></trkpt><trkpt lat="43.480659" lon="-1.566555"><ele>10.23</ele><time>2011-09-14T10:54:09Z</time></trkpt><trkpt lat="43.480706" lon="-1.566637"><ele>10.23</ele><time>2011-09-14T10:54:10Z</time></trkpt><trkpt lat="43.480745" lon="-1.566725"><ele>9.75</ele><time>2011-09-14T10:54:11Z</time></trkpt><trkpt lat="43.480779" lon="-1.566819"><ele>9.27</ele><time>2011-09-14T10:54:12Z</time></trkpt><trkpt lat="43.481166" lon="-1.568091"><ele>8.31</ele><time>2011-09-14T10:54:22Z</time></trkpt><trkpt lat="43.481321" lon="-1.568687"><ele>7.83</ele><time>2011-09-14T10:54:27Z</time></trkpt><trkpt lat="43.481366" lon="-1.568763"><ele>7.83</ele><time>2011-09-14T10:54:28Z</time></trkpt><trkpt lat="43.481421" lon="-1.568814"><ele>7.83</ele><time>2011-09-14T10:54:29Z</time></trkpt><trkpt lat="43.481482" lon="-1.568841"><ele>8.31</ele><time>2011-09-14T10:54:30Z</time></trkpt><trkpt lat="43.481548" lon="-1.568850"><ele>8.79</ele><time>2011-09-14T10:54:31Z</time></trkpt><trkpt lat="43.481610" lon="-1.568844"><ele>9.27</ele><time>2011-09-14T10:54:32Z</time></trkpt><trkpt lat="43.481669" lon="-1.568815"><ele>9.75</ele><time>2011-09-14T10:54:33Z</time></trkpt><trkpt lat="43.481723" lon="-1.568780"><ele>11.19</ele><time>2011-09-14T10:54:34Z</time></trkpt><trkpt lat="43.481777" lon="-1.568743"><ele>12.15</ele><time>2011-09-14T10:54:35Z</time></trkpt><trkpt lat="43.481951" lon="-1.568608"><ele>14.08</ele><time>2011-09-14T10:54:39Z</time></trkpt><trkpt lat="43.482153" lon="-1.568537"><ele>13.60</ele><time>2011-09-14T10:54:48Z</time></trkpt><trkpt lat="43.482121" lon="-1.568532"><ele>12.63</ele><time>2011-09-14T10:55:13Z</time></trkpt><trkpt lat="43.482096" lon="-1.568563"><ele>8.79</ele><time>2011-09-14T10:57:40Z</time></trkpt><trkpt lat="43.482043" lon="-1.568533"><ele>8.79</ele><time>2011-09-14T11:01:35Z</time></trkpt><trkpt lat="43.482170" lon="-1.568173"><ele>9.27</ele><time>2011-09-14T11:01:40Z</time></trkpt><trkpt lat="43.482182" lon="-1.568084"><ele>9.27</ele><time>2011-09-14T11:01:41Z</time></trkpt><trkpt lat="43.482185" lon="-1.567989"><ele>9.75</ele><time>2011-09-14T11:01:42Z</time></trkpt><trkpt lat="43.482179" lon="-1.567893"><ele>9.75</ele><time>2011-09-14T11:01:43Z</time></trkpt><trkpt lat="43.482168" lon="-1.567797"><ele>9.75</ele><time>2011-09-14T11:01:44Z</time></trkpt><trkpt lat="43.482129" lon="-1.567326"><ele>11.19</ele><time>2011-09-14T11:01:52Z</time></trkpt><trkpt lat="43.482143" lon="-1.567095"><ele>12.63</ele><time>2011-09-14T11:01:55Z</time></trkpt><trkpt lat="43.482153" lon="-1.567027"><ele>12.63</ele><time>2011-09-14T11:01:56Z</time></trkpt><trkpt lat="43.482174" lon="-1.566971"><ele>14.08</ele><time>2011-09-14T11:01:57Z</time></trkpt><trkpt lat="43.482183" lon="-1.566927"><ele>14.08</ele><time>2011-09-14T11:01:58Z</time></trkpt><trkpt lat="43.482193" lon="-1.566892"><ele>14.56</ele><time>2011-09-14T11:01:59Z</time></trkpt><trkpt lat="43.482204" lon="-1.566870"><ele>14.56</ele><time>2011-09-14T11:02:00Z</time></trkpt><trkpt lat="43.482252" lon="-1.566864"><ele>16.48</ele><time>2011-09-14T11:02:11Z</time></trkpt><trkpt lat="43.482276" lon="-1.566873"><ele>16.48</ele><time>2011-09-14T11:02:12Z</time></trkpt><trkpt lat="43.482318" lon="-1.566885"><ele>16.96</ele><time>2011-09-14T11:02:13Z</time></trkpt><trkpt lat="43.482378" lon="-1.566892"><ele>16.96</ele><time>2011-09-14T11:02:14Z</time></trkpt><trkpt lat="43.482448" lon="-1.566902"><ele>17.92</ele><time>2011-09-14T11:02:15Z</time></trkpt><trkpt lat="43.482523" lon="-1.566921"><ele>18.88</ele><time>2011-09-14T11:02:16Z</time></trkpt><trkpt lat="43.482599" lon="-1.566944"><ele>19.36</ele><time>2011-09-14T11:02:17Z</time></trkpt><trkpt lat="43.482733" lon="-1.566984"><ele>21.29</ele><time>2011-09-14T11:02:19Z</time></trkpt><trkpt lat="43.482778" lon="-1.566979"><ele>22.25</ele><time>2011-09-14T11:02:20Z</time></trkpt><trkpt lat="43.482806" lon="-1.566962"><ele>22.73</ele><time>2011-09-14T11:02:21Z</time></trkpt><trkpt lat="43.482822" lon="-1.566944"><ele>23.21</ele><time>2011-09-14T11:02:22Z</time></trkpt><trkpt lat="43.482853" lon="-1.566930"><ele>22.73</ele><time>2011-09-14T11:02:30Z</time></trkpt><trkpt lat="43.482871" lon="-1.566926"><ele>22.25</ele><time>2011-09-14T11:02:31Z</time></trkpt><trkpt lat="43.482888" lon="-1.566911"><ele>22.73</ele><time>2011-09-14T11:02:32Z</time></trkpt><trkpt lat="43.482901" lon="-1.566884"><ele>22.25</ele><time>2011-09-14T11:02:33Z</time></trkpt><trkpt lat="43.482907" lon="-1.566843"><ele>22.25</ele><time>2011-09-14T11:02:34Z</time></trkpt><trkpt lat="43.482902" lon="-1.566783"><ele>22.25</ele><time>2011-09-14T11:02:35Z</time></trkpt><trkpt lat="43.482888" lon="-1.566705"><ele>21.77</ele><time>2011-09-14T11:02:36Z</time></trkpt><trkpt lat="43.482872" lon="-1.566619"><ele>21.29</ele><time>2011-09-14T11:02:37Z</time></trkpt><trkpt lat="43.482850" lon="-1.566445"><ele>20.32</ele><time>2011-09-14T11:02:39Z</time></trkpt><trkpt lat="43.482829" lon="-1.566244"><ele>17.92</ele><time>2011-09-14T11:02:46Z</time></trkpt><trkpt lat="43.482774" lon="-1.565908"><ele>16.48</ele><time>2011-09-14T11:02:57Z</time></trkpt><trkpt lat="43.482782" lon="-1.565777"><ele>15.52</ele><time>2011-09-14T11:03:00Z</time></trkpt><trkpt lat="43.482796" lon="-1.565761"><ele>15.52</ele><time>2011-09-14T11:03:01Z</time></trkpt><trkpt lat="43.482960" lon="-1.565529"><ele>12.63</ele><time>2011-09-14T11:03:09Z</time></trkpt><trkpt lat="43.482982" lon="-1.565454"><ele>11.67</ele><time>2011-09-14T11:03:10Z</time></trkpt><trkpt lat="43.482992" lon="-1.565372"><ele>11.19</ele><time>2011-09-14T11:03:11Z</time></trkpt><trkpt lat="43.482993" lon="-1.565284"><ele>10.23</ele><time>2011-09-14T11:03:12Z</time></trkpt><trkpt lat="43.482993" lon="-1.565192"><ele>9.75</ele><time>2011-09-14T11:03:13Z</time></trkpt><trkpt lat="43.482999" lon="-1.565017"><ele>7.83</ele><time>2011-09-14T11:03:15Z</time></trkpt><trkpt lat="43.483010" lon="-1.564947"><ele>7.35</ele><time>2011-09-14T11:03:16Z</time></trkpt><trkpt lat="43.483028" lon="-1.564894"><ele>6.87</ele><time>2011-09-14T11:03:17Z</time></trkpt><trkpt lat="43.483054" lon="-1.564862"><ele>6.39</ele><time>2011-09-14T11:03:18Z</time></trkpt><trkpt lat="43.483082" lon="-1.564840"><ele>6.39</ele><time>2011-09-14T11:03:19Z</time></trkpt><trkpt lat="43.483301" lon="-1.564855"><ele>6.39</ele><time>2011-09-14T11:03:28Z</time></trkpt><trkpt lat="43.483320" lon="-1.564908"><ele>6.87</ele><time>2011-09-14T11:03:44Z</time></trkpt><trkpt lat="43.483325" lon="-1.564958"><ele>7.35</ele><time>2011-09-14T11:03:45Z</time></trkpt><trkpt lat="43.483328" lon="-1.565026"><ele>7.35</ele><time>2011-09-14T11:03:46Z</time></trkpt><trkpt lat="43.483327" lon="-1.565308"><ele>6.39</ele><time>2011-09-14T11:03:50Z</time></trkpt><trkpt lat="43.483318" lon="-1.565360"><ele>6.39</ele><time>2011-09-14T11:03:51Z</time></trkpt><trkpt lat="43.483301" lon="-1.565401"><ele>5.91</ele><time>2011-09-14T11:03:52Z</time></trkpt><trkpt lat="43.483278" lon="-1.565429"><ele>5.91</ele><time>2011-09-14T11:03:53Z</time></trkpt><trkpt lat="43.483249" lon="-1.565438"><ele>5.91</ele><time>2011-09-14T11:03:54Z</time></trkpt><trkpt lat="43.483224" lon="-1.565423"><ele>5.42</ele><time>2011-09-14T11:03:55Z</time></trkpt><trkpt lat="43.483207" lon="-1.565390"><ele>4.94</ele><time>2011-09-14T11:03:56Z</time></trkpt><trkpt lat="43.483203" lon="-1.565343"><ele>5.42</ele><time>2011-09-14T11:03:57Z</time></trkpt><trkpt lat="43.483203" lon="-1.565295"><ele>4.94</ele><time>2011-09-14T11:03:58Z</time></trkpt><trkpt lat="43.483202" lon="-1.565114"><ele>3.98</ele><time>2011-09-14T11:04:09Z</time></trkpt><trkpt lat="43.483149" lon="-1.564890"><ele>3.98</ele><time>2011-09-14T11:04:23Z</time></trkpt><trkpt lat="43.483119" lon="-1.564859"><ele>4.46</ele><time>2011-09-14T11:04:24Z</time></trkpt><trkpt lat="43.483083" lon="-1.564853"><ele>4.94</ele><time>2011-09-14T11:04:25Z</time></trkpt><trkpt lat="43.483044" lon="-1.564865"><ele>4.94</ele><time>2011-09-14T11:04:26Z</time></trkpt><trkpt lat="43.483011" lon="-1.564897"><ele>5.42</ele><time>2011-09-14T11:04:27Z</time></trkpt><trkpt lat="43.482995" lon="-1.564960"><ele>6.39</ele><time>2011-09-14T11:04:28Z</time></trkpt><trkpt lat="43.482993" lon="-1.565048"><ele>6.87</ele><time>2011-09-14T11:04:29Z</time></trkpt><trkpt lat="43.482994" lon="-1.565143"><ele>7.83</ele><time>2011-09-14T11:04:30Z</time></trkpt><trkpt lat="43.482996" lon="-1.565242"><ele>8.79</ele><time>2011-09-14T11:04:31Z</time></trkpt><trkpt lat="43.482991" lon="-1.565431"><ele>10.23</ele><time>2011-09-14T11:04:33Z</time></trkpt><trkpt lat="43.482973" lon="-1.565516"><ele>11.19</ele><time>2011-09-14T11:04:34Z</time></trkpt><trkpt lat="43.482943" lon="-1.565595"><ele>12.15</ele><time>2011-09-14T11:04:35Z</time></trkpt><trkpt lat="43.482907" lon="-1.565663"><ele>12.63</ele><time>2011-09-14T11:04:36Z</time></trkpt><trkpt lat="43.482873" lon="-1.565718"><ele>13.60</ele><time>2011-09-14T11:04:37Z</time></trkpt><trkpt lat="43.482814" lon="-1.565886"><ele>15.04</ele><time>2011-09-14T11:04:41Z</time></trkpt><trkpt lat="43.482826" lon="-1.565962"><ele>15.52</ele><time>2011-09-14T11:04:42Z</time></trkpt><trkpt lat="43.482850" lon="-1.566053"><ele>15.52</ele><time>2011-09-14T11:04:43Z</time></trkpt><trkpt lat="43.483224" lon="-1.567027"><ele>15.04</ele><time>2011-09-14T11:04:55Z</time></trkpt><trkpt lat="43.483698" lon="-1.567902"><ele>15.52</ele><time>2011-09-14T11:05:06Z</time></trkpt><trkpt lat="43.483698" lon="-1.567960"><ele>15.52</ele><time>2011-09-14T11:05:07Z</time></trkpt><trkpt lat="43.483689" lon="-1.568013"><ele>15.52</ele><time>2011-09-14T11:05:08Z</time></trkpt><trkpt lat="43.483677" lon="-1.568059"><ele>15.52</ele><time>2011-09-14T11:05:09Z</time></trkpt><trkpt lat="43.483661" lon="-1.568097"><ele>15.52</ele><time>2011-09-14T11:05:10Z</time></trkpt><trkpt lat="43.483643" lon="-1.568126"><ele>16.00</ele><time>2011-09-14T11:05:11Z</time></trkpt><trkpt lat="43.483629" lon="-1.568149"><ele>16.00</ele><time>2011-09-14T11:05:12Z</time></trkpt><trkpt lat="43.483597" lon="-1.568212"><ele>16.00</ele><time>2011-09-14T11:05:24Z</time></trkpt><trkpt lat="43.483588" lon="-1.568224"><ele>16.00</ele><time>2011-09-14T11:05:38Z</time></trkpt><trkpt lat="43.483580" lon="-1.568216"><ele>16.00</ele><time>2011-09-14T11:06:24Z</time></trkpt></trkseg><trkseg><trkpt lat="43.483594" lon="-1.568225"><ele>14.08</ele><time>2011-09-14T11:22:23Z</time></trkpt><trkpt lat="43.483606" lon="-1.568194"><ele>15.52</ele><time>2011-09-14T11:22:55Z</time></trkpt><trkpt lat="43.483623" lon="-1.568181"><ele>15.04</ele><time>2011-09-14T11:23:31Z</time></trkpt><trkpt lat="43.483620" lon="-1.568184"><ele>15.04</ele><time>2011-09-14T11:23:37Z</time></trkpt><trkpt lat="43.483451" lon="-1.568292"><ele>15.04</ele><time>2011-09-14T11:23:42Z</time></trkpt><trkpt lat="43.483401" lon="-1.568297"><ele>15.04</ele><time>2011-09-14T11:23:43Z</time></trkpt><trkpt lat="43.483349" lon="-1.568285"><ele>15.04</ele><time>2011-09-14T11:23:44Z</time></trkpt><trkpt lat="43.483241" lon="-1.568238"><ele>15.52</ele><time>2011-09-14T11:23:46Z</time></trkpt><trkpt lat="43.482915" lon="-1.568037"><ele>16.48</ele><time>2011-09-14T11:23:52Z</time></trkpt><trkpt lat="43.482870" lon="-1.567979"><ele>16.96</ele><time>2011-09-14T11:23:53Z</time></trkpt><trkpt lat="43.482835" lon="-1.567902"><ele>16.96</ele><time>2011-09-14T11:23:54Z</time></trkpt><trkpt lat="43.482480" lon="-1.567117"><ele>18.40</ele><time>2011-09-14T11:24:04Z</time></trkpt><trkpt lat="43.482435" lon="-1.567066"><ele>18.40</ele><time>2011-09-14T11:24:05Z</time></trkpt><trkpt lat="43.482387" lon="-1.567033"><ele>18.40</ele><time>2011-09-14T11:24:06Z</time></trkpt><trkpt lat="43.482336" lon="-1.567018"><ele>19.36</ele><time>2011-09-14T11:24:07Z</time></trkpt><trkpt lat="43.482288" lon="-1.567017"><ele>19.84</ele><time>2011-09-14T11:24:08Z</time></trkpt><trkpt lat="43.482243" lon="-1.567021"><ele>20.32</ele><time>2011-09-14T11:24:09Z</time></trkpt><trkpt lat="43.482198" lon="-1.567022"><ele>20.32</ele><time>2011-09-14T11:24:10Z</time></trkpt><trkpt lat="43.482153" lon="-1.567014"><ele>20.81</ele><time>2011-09-14T11:24:11Z</time></trkpt><trkpt lat="43.482104" lon="-1.566998"><ele>21.77</ele><time>2011-09-14T11:24:12Z</time></trkpt><trkpt lat="43.481840" lon="-1.567003"><ele>21.77</ele><time>2011-09-14T11:24:21Z</time></trkpt><trkpt lat="43.481782" lon="-1.566978"><ele>21.77</ele><time>2011-09-14T11:24:24Z</time></trkpt><trkpt lat="43.481764" lon="-1.566946"><ele>21.77</ele><time>2011-09-14T11:24:25Z</time></trkpt><trkpt lat="43.481753" lon="-1.566907"><ele>21.77</ele><time>2011-09-14T11:24:26Z</time></trkpt><trkpt lat="43.481747" lon="-1.566860"><ele>21.29</ele><time>2011-09-14T11:24:27Z</time></trkpt><trkpt lat="43.481740" lon="-1.566802"><ele>21.29</ele><time>2011-09-14T11:24:28Z</time></trkpt><trkpt lat="43.481630" lon="-1.566049"><ele>25.13</ele><time>2011-09-14T11:24:41Z</time></trkpt><trkpt lat="43.481789" lon="-1.565278"><ele>31.38</ele><time>2011-09-14T11:24:54Z</time></trkpt><trkpt lat="43.481815" lon="-1.564898"><ele>31.86</ele><time>2011-09-14T11:25:04Z</time></trkpt><trkpt lat="43.481685" lon="-1.564576"><ele>37.63</ele><time>2011-09-14T11:25:15Z</time></trkpt><trkpt lat="43.481578" lon="-1.564568"><ele>41.47</ele><time>2011-09-14T11:25:19Z</time></trkpt><trkpt lat="43.481566" lon="-1.564605"><ele>41.95</ele><time>2011-09-14T11:25:20Z</time></trkpt><trkpt lat="43.481550" lon="-1.564642"><ele>42.44</ele><time>2011-09-14T11:25:21Z</time></trkpt><trkpt lat="43.481532" lon="-1.564684"><ele>43.40</ele><time>2011-09-14T11:25:22Z</time></trkpt><trkpt lat="43.481511" lon="-1.564716"><ele>44.36</ele><time>2011-09-14T11:25:23Z</time></trkpt><trkpt lat="43.481505" lon="-1.564762"><ele>45.80</ele><time>2011-09-14T11:25:24Z</time></trkpt><trkpt lat="43.481501" lon="-1.564799"><ele>47.24</ele><time>2011-09-14T11:25:25Z</time></trkpt><trkpt lat="43.481495" lon="-1.564821"><ele>48.68</ele><time>2011-09-14T11:25:26Z</time></trkpt><trkpt lat="43.481422" lon="-1.564797"><ele>49.16</ele><time>2011-09-14T11:25:28Z</time></trkpt><trkpt lat="43.481260" lon="-1.564542"><ele>66.47</ele><time>2011-09-14T11:25:34Z</time></trkpt><trkpt lat="43.481222" lon="-1.564519"><ele>70.31</ele><time>2011-09-14T11:25:35Z</time></trkpt><trkpt lat="43.481156" lon="-1.564504"><ele>70.31</ele><time>2011-09-14T11:25:36Z</time></trkpt><trkpt lat="43.481105" lon="-1.564484"><ele>71.76</ele><time>2011-09-14T11:25:37Z</time></trkpt><trkpt lat="43.481054" lon="-1.564466"><ele>70.79</ele><time>2011-09-14T11:25:38Z</time></trkpt><trkpt lat="43.480999" lon="-1.564451"><ele>70.31</ele><time>2011-09-14T11:25:39Z</time></trkpt><trkpt lat="43.480935" lon="-1.564445"><ele>70.31</ele><time>2011-09-14T11:25:40Z</time></trkpt><trkpt lat="43.480869" lon="-1.564449"><ele>71.27</ele><time>2011-09-14T11:25:41Z</time></trkpt><trkpt lat="43.480748" lon="-1.564468"><ele>72.72</ele><time>2011-09-14T11:25:43Z</time></trkpt><trkpt lat="43.480692" lon="-1.564479"><ele>73.20</ele><time>2011-09-14T11:25:44Z</time></trkpt><trkpt lat="43.480055" lon="-1.564591"><ele>70.79</ele><time>2011-09-14T11:25:55Z</time></trkpt><trkpt lat="43.479937" lon="-1.564602"><ele>70.31</ele><time>2011-09-14T11:25:58Z</time></trkpt><trkpt lat="43.479892" lon="-1.564596"><ele>69.83</ele><time>2011-09-14T11:25:59Z</time></trkpt><trkpt lat="43.479852" lon="-1.564599"><ele>69.83</ele><time>2011-09-14T11:26:00Z</time></trkpt><trkpt lat="43.479637" lon="-1.564620"><ele>65.03</ele><time>2011-09-14T11:26:05Z</time></trkpt><trkpt lat="43.478920" lon="-1.564870"><ele>70.79</ele><time>2011-09-14T11:26:15Z</time></trkpt><trkpt lat="43.478682" lon="-1.564876"><ele>64.07</ele><time>2011-09-14T11:26:21Z</time></trkpt><trkpt lat="43.478635" lon="-1.564880"><ele>63.10</ele><time>2011-09-14T11:26:22Z</time></trkpt><trkpt lat="43.478590" lon="-1.564862"><ele>62.14</ele><time>2011-09-14T11:26:23Z</time></trkpt><trkpt lat="43.478552" lon="-1.564818"><ele>61.66</ele><time>2011-09-14T11:26:24Z</time></trkpt><trkpt lat="43.478525" lon="-1.564757"><ele>60.70</ele><time>2011-09-14T11:26:25Z</time></trkpt><trkpt lat="43.478512" lon="-1.564676"><ele>60.70</ele><time>2011-09-14T11:26:26Z</time></trkpt><trkpt lat="43.478523" lon="-1.564596"><ele>60.22</ele><time>2011-09-14T11:26:27Z</time></trkpt><trkpt lat="43.478564" lon="-1.564502"><ele>59.74</ele><time>2011-09-14T11:26:28Z</time></trkpt><trkpt lat="43.478591" lon="-1.564397"><ele>59.26</ele><time>2011-09-14T11:26:29Z</time></trkpt><trkpt lat="43.478601" lon="-1.564286"><ele>58.78</ele><time>2011-09-14T11:26:30Z</time></trkpt><trkpt lat="43.478595" lon="-1.564171"><ele>58.78</ele><time>2011-09-14T11:26:31Z</time></trkpt><trkpt lat="43.478588" lon="-1.564056"><ele>58.30</ele><time>2011-09-14T11:26:32Z</time></trkpt><trkpt lat="43.478514" lon="-1.562825"><ele>59.26</ele><time>2011-09-14T11:26:43Z</time></trkpt><trkpt lat="43.478418" lon="-1.561566"><ele>59.26</ele><time>2011-09-14T11:26:55Z</time></trkpt><trkpt lat="43.478411" lon="-1.561408"><ele>59.74</ele><time>2011-09-14T11:26:57Z</time></trkpt><trkpt lat="43.478339" lon="-1.561256"><ele>59.74</ele><time>2011-09-14T11:26:59Z</time></trkpt><trkpt lat="43.478318" lon="-1.561138"><ele>58.78</ele><time>2011-09-14T11:27:00Z</time></trkpt><trkpt lat="43.478307" lon="-1.561011"><ele>57.82</ele><time>2011-09-14T11:27:01Z</time></trkpt><trkpt lat="43.478306" lon="-1.560886"><ele>56.86</ele><time>2011-09-14T11:27:02Z</time></trkpt><trkpt lat="43.478299" lon="-1.560763"><ele>55.89</ele><time>2011-09-14T11:27:03Z</time></trkpt><trkpt lat="43.478243" lon="-1.559627"><ele>47.72</ele><time>2011-09-14T11:27:14Z</time></trkpt><trkpt lat="43.477970" lon="-1.558411"><ele>43.40</ele><time>2011-09-14T11:27:25Z</time></trkpt><trkpt lat="43.477801" lon="-1.557428"><ele>50.13</ele><time>2011-09-14T11:27:36Z</time></trkpt><trkpt lat="43.477744" lon="-1.557107"><ele>53.01</ele><time>2011-09-14T11:27:40Z</time></trkpt><trkpt lat="43.477721" lon="-1.557054"><ele>53.49</ele><time>2011-09-14T11:27:41Z</time></trkpt><trkpt lat="43.477654" lon="-1.556893"><ele>54.93</ele><time>2011-09-14T11:27:44Z</time></trkpt><trkpt lat="43.477648" lon="-1.556823"><ele>54.93</ele><time>2011-09-14T11:27:45Z</time></trkpt><trkpt lat="43.477634" lon="-1.556780"><ele>54.45</ele><time>2011-09-14T11:27:46Z</time></trkpt><trkpt lat="43.477698" lon="-1.556759"><ele>54.93</ele><time>2011-09-14T11:27:47Z</time></trkpt><trkpt lat="43.477761" lon="-1.556746"><ele>55.41</ele><time>2011-09-14T11:27:48Z</time></trkpt><trkpt lat="43.477831" lon="-1.556751"><ele>55.41</ele><time>2011-09-14T11:27:49Z</time></trkpt><trkpt lat="43.477891" lon="-1.556758"><ele>55.41</ele><time>2011-09-14T11:27:50Z</time></trkpt><trkpt lat="43.477943" lon="-1.556811"><ele>55.41</ele><time>2011-09-14T11:27:51Z</time></trkpt><trkpt lat="43.478601" lon="-1.557199"><ele>55.89</ele><time>2011-09-14T11:28:02Z</time></trkpt><trkpt lat="43.478665" lon="-1.557232"><ele>55.89</ele><time>2011-09-14T11:28:03Z</time></trkpt><trkpt lat="43.478729" lon="-1.557252"><ele>56.37</ele><time>2011-09-14T11:28:04Z</time></trkpt><trkpt lat="43.478791" lon="-1.557260"><ele>56.86</ele><time>2011-09-14T11:28:05Z</time></trkpt><trkpt lat="43.478856" lon="-1.557256"><ele>56.86</ele><time>2011-09-14T11:28:06Z</time></trkpt><trkpt lat="43.478923" lon="-1.557256"><ele>57.34</ele><time>2011-09-14T11:28:07Z</time></trkpt><trkpt lat="43.479212" lon="-1.557211"><ele>56.86</ele><time>2011-09-14T11:28:11Z</time></trkpt><trkpt lat="43.479265" lon="-1.557172"><ele>56.37</ele><time>2011-09-14T11:28:12Z</time></trkpt><trkpt lat="43.479309" lon="-1.557116"><ele>56.37</ele><time>2011-09-14T11:28:13Z</time></trkpt><trkpt lat="43.479348" lon="-1.557046"><ele>55.89</ele><time>2011-09-14T11:28:14Z</time></trkpt><trkpt lat="43.479380" lon="-1.556965"><ele>54.93</ele><time>2011-09-14T11:28:15Z</time></trkpt><trkpt lat="43.479402" lon="-1.556879"><ele>54.45</ele><time>2011-09-14T11:28:16Z</time></trkpt><trkpt lat="43.479407" lon="-1.556791"><ele>54.45</ele><time>2011-09-14T11:28:17Z</time></trkpt><trkpt lat="43.479404" lon="-1.556703"><ele>54.45</ele><time>2011-09-14T11:28:18Z</time></trkpt><trkpt lat="43.479395" lon="-1.556613"><ele>54.45</ele><time>2011-09-14T11:28:19Z</time></trkpt><trkpt lat="43.479380" lon="-1.556516"><ele>53.97</ele><time>2011-09-14T11:28:20Z</time></trkpt><trkpt lat="43.479361" lon="-1.556420"><ele>53.49</ele><time>2011-09-14T11:28:21Z</time></trkpt><trkpt lat="43.479339" lon="-1.556325"><ele>53.01</ele><time>2011-09-14T11:28:22Z</time></trkpt><trkpt lat="43.479311" lon="-1.556236"><ele>52.53</ele><time>2011-09-14T11:28:23Z</time></trkpt><trkpt lat="43.479278" lon="-1.556152"><ele>52.05</ele><time>2011-09-14T11:28:24Z</time></trkpt><trkpt lat="43.479239" lon="-1.556074"><ele>52.05</ele><time>2011-09-14T11:28:25Z</time></trkpt><trkpt lat="43.479194" lon="-1.556007"><ele>52.53</ele><time>2011-09-14T11:28:26Z</time></trkpt><trkpt lat="43.479138" lon="-1.555939"><ele>53.49</ele><time>2011-09-14T11:28:27Z</time></trkpt><trkpt lat="43.479075" lon="-1.555867"><ele>54.93</ele><time>2011-09-14T11:28:28Z</time></trkpt><trkpt lat="43.478550" lon="-1.555338"><ele>56.37</ele><time>2011-09-14T11:28:36Z</time></trkpt><trkpt lat="43.478493" lon="-1.555312"><ele>55.89</ele><time>2011-09-14T11:28:37Z</time></trkpt><trkpt lat="43.478380" lon="-1.555246"><ele>54.45</ele><time>2011-09-14T11:28:39Z</time></trkpt><trkpt lat="43.478334" lon="-1.555192"><ele>53.97</ele><time>2011-09-14T11:28:40Z</time></trkpt><trkpt lat="43.478304" lon="-1.555122"><ele>53.49</ele><time>2011-09-14T11:28:41Z</time></trkpt><trkpt lat="43.478297" lon="-1.555048"><ele>53.01</ele><time>2011-09-14T11:28:42Z</time></trkpt><trkpt lat="43.478329" lon="-1.554978"><ele>52.05</ele><time>2011-09-14T11:28:43Z</time></trkpt><trkpt lat="43.478375" lon="-1.554914"><ele>51.57</ele><time>2011-09-14T11:28:44Z</time></trkpt><trkpt lat="43.478417" lon="-1.554857"><ele>51.09</ele><time>2011-09-14T11:28:45Z</time></trkpt><trkpt lat="43.478638" lon="-1.554756"><ele>48.20</ele><time>2011-09-14T11:28:52Z</time></trkpt><trkpt lat="43.478694" lon="-1.554795"><ele>47.72</ele><time>2011-09-14T11:28:53Z</time></trkpt><trkpt lat="43.478758" lon="-1.554851"><ele>47.72</ele><time>2011-09-14T11:28:54Z</time></trkpt><trkpt lat="43.479401" lon="-1.555709"><ele>52.53</ele><time>2011-09-14T11:29:04Z</time></trkpt><trkpt lat="43.480250" lon="-1.556628"><ele>54.45</ele><time>2011-09-14T11:29:16Z</time></trkpt><trkpt lat="43.480521" lon="-1.556910"><ele>52.05</ele><time>2011-09-14T11:29:23Z</time></trkpt><trkpt lat="43.480552" lon="-1.556903"><ele>50.61</ele><time>2011-09-14T11:29:24Z</time></trkpt><trkpt lat="43.480629" lon="-1.556873"><ele>48.20</ele><time>2011-09-14T11:29:26Z</time></trkpt><trkpt lat="43.480670" lon="-1.556884"><ele>47.24</ele><time>2011-09-14T11:29:27Z</time></trkpt><trkpt lat="43.480715" lon="-1.556928"><ele>46.28</ele><time>2011-09-14T11:29:28Z</time></trkpt><trkpt lat="43.480771" lon="-1.556997"><ele>45.80</ele><time>2011-09-14T11:29:29Z</time></trkpt><trkpt lat="43.480823" lon="-1.557084"><ele>46.28</ele><time>2011-09-14T11:29:30Z</time></trkpt><trkpt lat="43.481002" lon="-1.557399"><ele>48.20</ele><time>2011-09-14T11:29:34Z</time></trkpt><trkpt lat="43.481048" lon="-1.557458"><ele>47.72</ele><time>2011-09-14T11:29:35Z</time></trkpt><trkpt lat="43.481126" lon="-1.557521"><ele>46.76</ele><time>2011-09-14T11:29:37Z</time></trkpt><trkpt lat="43.481189" lon="-1.557587"><ele>47.72</ele><time>2011-09-14T11:29:38Z</time></trkpt><trkpt lat="43.481255" lon="-1.557662"><ele>47.72</ele><time>2011-09-14T11:29:39Z</time></trkpt><trkpt lat="43.481328" lon="-1.557750"><ele>48.20</ele><time>2011-09-14T11:29:40Z</time></trkpt><trkpt lat="43.481386" lon="-1.557844"><ele>48.20</ele><time>2011-09-14T11:29:41Z</time></trkpt><trkpt lat="43.481528" lon="-1.558404"><ele>43.40</ele><time>2011-09-14T11:29:49Z</time></trkpt><trkpt lat="43.481635" lon="-1.558678"><ele>41.95</ele><time>2011-09-14T11:29:56Z</time></trkpt><trkpt lat="43.481664" lon="-1.558755"><ele>42.92</ele><time>2011-09-14T11:29:57Z</time></trkpt><trkpt lat="43.481733" lon="-1.559124"><ele>45.80</ele><time>2011-09-14T11:30:05Z</time></trkpt><trkpt lat="43.481805" lon="-1.559380"><ele>50.13</ele><time>2011-09-14T11:30:10Z</time></trkpt><trkpt lat="43.481821" lon="-1.559435"><ele>50.61</ele><time>2011-09-14T11:30:11Z</time></trkpt><trkpt lat="43.482020" lon="-1.559647"><ele>38.11</ele><time>2011-09-14T11:30:19Z</time></trkpt><trkpt lat="43.482101" lon="-1.560580"><ele>36.67</ele><time>2011-09-14T11:30:30Z</time></trkpt><trkpt lat="43.482160" lon="-1.560828"><ele>35.23</ele><time>2011-09-14T11:30:33Z</time></trkpt><trkpt lat="43.482193" lon="-1.560993"><ele>34.74</ele><time>2011-09-14T11:30:35Z</time></trkpt><trkpt lat="43.482245" lon="-1.561329"><ele>35.71</ele><time>2011-09-14T11:30:43Z</time></trkpt><trkpt lat="43.482406" lon="-1.561632"><ele>40.99</ele><time>2011-09-14T11:30:51Z</time></trkpt><trkpt lat="43.482485" lon="-1.561842"><ele>42.44</ele><time>2011-09-14T11:30:55Z</time></trkpt><trkpt lat="43.482483" lon="-1.561904"><ele>44.36</ele><time>2011-09-14T11:30:56Z</time></trkpt><trkpt lat="43.482658" lon="-1.562292"><ele>44.84</ele><time>2011-09-14T11:31:04Z</time></trkpt><trkpt lat="43.482669" lon="-1.562349"><ele>44.36</ele><time>2011-09-14T11:31:05Z</time></trkpt><trkpt lat="43.482618" lon="-1.562626"><ele>41.47</ele><time>2011-09-14T11:31:09Z</time></trkpt><trkpt lat="43.482566" lon="-1.562763"><ele>37.63</ele><time>2011-09-14T11:31:11Z</time></trkpt><trkpt lat="43.482516" lon="-1.562971"><ele>37.15</ele><time>2011-09-14T11:31:14Z</time></trkpt><trkpt lat="43.482469" lon="-1.563053"><ele>35.71</ele><time>2011-09-14T11:31:15Z</time></trkpt><trkpt lat="43.482427" lon="-1.563138"><ele>34.26</ele><time>2011-09-14T11:31:16Z</time></trkpt><trkpt lat="43.482383" lon="-1.563205"><ele>33.30</ele><time>2011-09-14T11:31:17Z</time></trkpt><trkpt lat="43.482350" lon="-1.563263"><ele>32.34</ele><time>2011-09-14T11:31:18Z</time></trkpt><trkpt lat="43.482236" lon="-1.563455"><ele>28.50</ele><time>2011-09-14T11:31:21Z</time></trkpt><trkpt lat="43.482109" lon="-1.563701"><ele>24.17</ele><time>2011-09-14T11:31:28Z</time></trkpt><trkpt lat="43.482327" lon="-1.563868"><ele>28.98</ele><time>2011-09-14T11:31:36Z</time></trkpt><trkpt lat="43.482910" lon="-1.563873"><ele>34.26</ele><time>2011-09-14T11:31:48Z</time></trkpt><trkpt lat="43.482989" lon="-1.563873"><ele>30.42</ele><time>2011-09-14T11:31:57Z</time></trkpt><trkpt lat="43.483004" lon="-1.563862"><ele>25.13</ele><time>2011-09-14T11:32:11Z</time></trkpt><trkpt lat="43.483022" lon="-1.563899"><ele>26.57</ele><time>2011-09-14T11:32:12Z</time></trkpt><trkpt lat="43.483034" lon="-1.563938"><ele>26.57</ele><time>2011-09-14T11:32:13Z</time></trkpt><trkpt lat="43.483039" lon="-1.563998"><ele>26.09</ele><time>2011-09-14T11:32:14Z</time></trkpt><trkpt lat="43.483044" lon="-1.564070"><ele>26.09</ele><time>2011-09-14T11:32:15Z</time></trkpt><trkpt lat="43.483055" lon="-1.564402"><ele>25.61</ele><time>2011-09-14T11:32:19Z</time></trkpt><trkpt lat="43.482886" lon="-1.565577"><ele>23.69</ele><time>2011-09-14T11:32:33Z</time></trkpt><trkpt lat="43.482851" lon="-1.565722"><ele>23.21</ele><time>2011-09-14T11:32:35Z</time></trkpt><trkpt lat="43.482845" lon="-1.565798"><ele>22.73</ele><time>2011-09-14T11:32:36Z</time></trkpt><trkpt lat="43.482853" lon="-1.565886"><ele>22.73</ele><time>2011-09-14T11:32:37Z</time></trkpt><trkpt lat="43.482874" lon="-1.565987"><ele>22.25</ele><time>2011-09-14T11:32:38Z</time></trkpt><trkpt lat="43.482905" lon="-1.566097"><ele>21.77</ele><time>2011-09-14T11:32:39Z</time></trkpt><trkpt lat="43.482939" lon="-1.566208"><ele>21.29</ele><time>2011-09-14T11:32:40Z</time></trkpt><trkpt lat="43.483261" lon="-1.567032"><ele>20.32</ele><time>2011-09-14T11:32:49Z</time></trkpt><trkpt lat="43.483735" lon="-1.568037"><ele>16.48</ele><time>2011-09-14T11:33:00Z</time></trkpt><trkpt lat="43.483692" lon="-1.568094"><ele>16.00</ele><time>2011-09-14T11:33:01Z</time></trkpt><trkpt lat="43.483631" lon="-1.568159"><ele>16.00</ele><time>2011-09-14T11:33:02Z</time></trkpt><trkpt lat="43.483565" lon="-1.568215"><ele>16.48</ele><time>2011-09-14T11:33:03Z</time></trkpt><trkpt lat="43.483507" lon="-1.568262"><ele>16.00</ele><time>2011-09-14T11:33:04Z</time></trkpt><trkpt lat="43.483451" lon="-1.568302"><ele>15.52</ele><time>2011-09-14T11:33:05Z</time></trkpt><trkpt lat="43.483393" lon="-1.568320"><ele>15.52</ele><time>2011-09-14T11:33:06Z</time></trkpt><trkpt lat="43.483329" lon="-1.568310"><ele>15.04</ele><time>2011-09-14T11:33:07Z</time></trkpt><trkpt lat="43.483257" lon="-1.568279"><ele>15.04</ele><time>2011-09-14T11:33:08Z</time></trkpt><trkpt lat="43.483180" lon="-1.568239"><ele>15.04</ele><time>2011-09-14T11:33:09Z</time></trkpt><trkpt lat="43.482961" lon="-1.568110"><ele>16.00</ele><time>2011-09-14T11:33:12Z</time></trkpt><trkpt lat="43.482903" lon="-1.568041"><ele>16.00</ele><time>2011-09-14T11:33:13Z</time></trkpt><trkpt lat="43.482860" lon="-1.567962"><ele>16.00</ele><time>2011-09-14T11:33:14Z</time></trkpt><trkpt lat="43.482828" lon="-1.567868"><ele>16.48</ele><time>2011-09-14T11:33:15Z</time></trkpt><trkpt lat="43.482789" lon="-1.567776"><ele>16.48</ele><time>2011-09-14T11:33:16Z</time></trkpt><trkpt lat="43.482457" lon="-1.567073"><ele>17.44</ele><time>2011-09-14T11:33:27Z</time></trkpt><trkpt lat="43.482372" lon="-1.567037"><ele>18.88</ele><time>2011-09-14T11:33:35Z</time></trkpt><trkpt lat="43.482319" lon="-1.567040"><ele>20.32</ele><time>2011-09-14T11:33:36Z</time></trkpt><trkpt lat="43.482213" lon="-1.567043"><ele>20.32</ele><time>2011-09-14T11:33:38Z</time></trkpt><trkpt lat="43.482161" lon="-1.567030"><ele>20.32</ele><time>2011-09-14T11:33:39Z</time></trkpt><trkpt lat="43.482104" lon="-1.567015"><ele>21.77</ele><time>2011-09-14T11:33:40Z</time></trkpt><trkpt lat="43.481988" lon="-1.567000"><ele>28.02</ele><time>2011-09-14T11:33:42Z</time></trkpt><trkpt lat="43.481943" lon="-1.566999"><ele>28.50</ele><time>2011-09-14T11:33:43Z</time></trkpt><trkpt lat="43.481899" lon="-1.567013"><ele>28.02</ele><time>2011-09-14T11:33:44Z</time></trkpt><trkpt lat="43.481857" lon="-1.567050"><ele>28.02</ele><time>2011-09-14T11:33:45Z</time></trkpt><trkpt lat="43.481827" lon="-1.567108"><ele>28.02</ele><time>2011-09-14T11:33:46Z</time></trkpt><trkpt lat="43.481809" lon="-1.567193"><ele>27.53</ele><time>2011-09-14T11:33:47Z</time></trkpt><trkpt lat="43.481807" lon="-1.567303"><ele>27.53</ele><time>2011-09-14T11:33:48Z</time></trkpt><trkpt lat="43.481810" lon="-1.567429"><ele>28.50</ele><time>2011-09-14T11:33:49Z</time></trkpt><trkpt lat="43.481818" lon="-1.567558"><ele>29.46</ele><time>2011-09-14T11:33:50Z</time></trkpt><trkpt lat="43.481835" lon="-1.567681"><ele>29.94</ele><time>2011-09-14T11:33:51Z</time></trkpt><trkpt lat="43.481899" lon="-1.568198"><ele>29.94</ele><time>2011-09-14T11:33:57Z</time></trkpt><trkpt lat="43.481895" lon="-1.568274"><ele>30.42</ele><time>2011-09-14T11:33:58Z</time></trkpt><trkpt lat="43.481863" lon="-1.568349"><ele>30.42</ele><time>2011-09-14T11:33:59Z</time></trkpt><trkpt lat="43.481816" lon="-1.568419"><ele>30.42</ele><time>2011-09-14T11:34:00Z</time></trkpt><trkpt lat="43.481768" lon="-1.568485"><ele>30.90</ele><time>2011-09-14T11:34:01Z</time></trkpt><trkpt lat="43.481707" lon="-1.568533"><ele>30.90</ele><time>2011-09-14T11:34:02Z</time></trkpt><trkpt lat="43.481639" lon="-1.568546"><ele>31.38</ele><time>2011-09-14T11:34:03Z</time></trkpt><trkpt lat="43.481578" lon="-1.568532"><ele>32.34</ele><time>2011-09-14T11:34:04Z</time></trkpt><trkpt lat="43.481529" lon="-1.568469"><ele>32.82</ele><time>2011-09-14T11:34:05Z</time></trkpt><trkpt lat="43.481495" lon="-1.568374"><ele>33.78</ele><time>2011-09-14T11:34:06Z</time></trkpt><trkpt lat="43.481468" lon="-1.568278"><ele>34.74</ele><time>2011-09-14T11:34:07Z</time></trkpt><trkpt lat="43.481454" lon="-1.568177"><ele>36.67</ele><time>2011-09-14T11:34:08Z</time></trkpt><trkpt lat="43.481081" lon="-1.566747"><ele>42.44</ele><time>2011-09-14T11:34:21Z</time></trkpt><trkpt lat="43.480687" lon="-1.565697"><ele>48.68</ele><time>2011-09-14T11:34:31Z</time></trkpt><trkpt lat="43.480626" lon="-1.565626"><ele>49.16</ele><time>2011-09-14T11:34:32Z</time></trkpt><trkpt lat="43.480545" lon="-1.565568"><ele>49.65</ele><time>2011-09-14T11:34:33Z</time></trkpt><trkpt lat="43.480454" lon="-1.565520"><ele>50.61</ele><time>2011-09-14T11:34:34Z</time></trkpt><trkpt lat="43.480363" lon="-1.565480"><ele>51.09</ele><time>2011-09-14T11:34:35Z</time></trkpt><trkpt lat="43.479752" lon="-1.565315"><ele>54.93</ele><time>2011-09-14T11:34:44Z</time></trkpt><trkpt lat="43.479705" lon="-1.565321"><ele>54.93</ele><time>2011-09-14T11:34:45Z</time></trkpt><trkpt lat="43.479648" lon="-1.565332"><ele>54.93</ele><time>2011-09-14T11:34:46Z</time></trkpt><trkpt lat="43.479164" lon="-1.565504"><ele>55.89</ele><time>2011-09-14T11:34:55Z</time></trkpt><trkpt lat="43.479152" lon="-1.565527"><ele>55.89</ele><time>2011-09-14T11:34:56Z</time></trkpt><trkpt lat="43.479142" lon="-1.565539"><ele>55.89</ele><time>2011-09-14T11:34:57Z</time></trkpt><trkpt lat="43.479162" lon="-1.565534"><ele>48.68</ele><time>2011-09-14T11:35:14Z</time></trkpt><trkpt lat="43.479163" lon="-1.565536"><ele>48.20</ele><time>2011-09-14T11:35:58Z</time></trkpt><trkpt lat="43.479143" lon="-1.565537"><ele>53.01</ele><time>2011-09-14T11:38:03Z</time></trkpt></trkseg></trk><trk><name>ACTIVE LOG: 14 SEP 2011 13:39</name><trkseg><trkpt lat="43.479159" lon="-1.565534"><ele>51.09</ele><time>2011-09-14T11:39:01Z</time></trkpt><trkpt lat="43.479230" lon="-1.565565"><ele>40.51</ele><time>2011-09-14T11:41:27Z</time></trkpt><trkpt lat="43.479226" lon="-1.565557"><ele>48.68</ele><time>2011-09-14T11:41:51Z</time></trkpt><trkpt lat="43.479189" lon="-1.565522"><ele>50.13</ele><time>2011-09-14T11:42:05Z</time></trkpt><trkpt lat="43.479159" lon="-1.565503"><ele>50.13</ele><time>2011-09-14T11:42:06Z</time></trkpt><trkpt lat="43.479056" lon="-1.565449"><ele>50.61</ele><time>2011-09-14T11:42:08Z</time></trkpt><trkpt lat="43.478999" lon="-1.565402"><ele>51.09</ele><time>2011-09-14T11:42:09Z</time></trkpt><trkpt lat="43.478956" lon="-1.565342"><ele>50.61</ele><time>2011-09-14T11:42:10Z</time></trkpt><trkpt lat="43.478927" lon="-1.565273"><ele>49.16</ele><time>2011-09-14T11:42:11Z</time></trkpt><trkpt lat="43.478898" lon="-1.565202"><ele>48.68</ele><time>2011-09-14T11:42:12Z</time></trkpt><trkpt lat="43.478878" lon="-1.565129"><ele>48.20</ele><time>2011-09-14T11:42:13Z</time></trkpt><trkpt lat="43.478860" lon="-1.565058"><ele>47.24</ele><time>2011-09-14T11:42:14Z</time></trkpt><trkpt lat="43.478834" lon="-1.565008"><ele>48.20</ele><time>2011-09-14T11:42:15Z</time></trkpt><trkpt lat="43.478814" lon="-1.564980"><ele>48.20</ele><time>2011-09-14T11:42:16Z</time></trkpt><trkpt lat="43.478796" lon="-1.564966"><ele>48.20</ele><time>2011-09-14T11:42:17Z</time></trkpt><trkpt lat="43.478776" lon="-1.564957"><ele>48.20</ele><time>2011-09-14T11:42:18Z</time></trkpt><trkpt lat="43.478751" lon="-1.564950"><ele>48.20</ele><time>2011-09-14T11:42:19Z</time></trkpt><trkpt lat="43.478715" lon="-1.564942"><ele>48.20</ele><time>2011-09-14T11:42:20Z</time></trkpt><trkpt lat="43.478673" lon="-1.564918"><ele>48.68</ele><time>2011-09-14T11:42:21Z</time></trkpt><trkpt lat="43.478633" lon="-1.564875"><ele>48.20</ele><time>2011-09-14T11:42:22Z</time></trkpt><trkpt lat="43.478603" lon="-1.564809"><ele>48.68</ele><time>2011-09-14T11:42:23Z</time></trkpt><trkpt lat="43.478599" lon="-1.564713"><ele>48.68</ele><time>2011-09-14T11:42:24Z</time></trkpt><trkpt lat="43.478609" lon="-1.564631"><ele>49.16</ele><time>2011-09-14T11:42:25Z</time></trkpt><trkpt lat="43.478640" lon="-1.564549"><ele>49.16</ele><time>2011-09-14T11:42:26Z</time></trkpt><trkpt lat="43.478663" lon="-1.564457"><ele>49.65</ele><time>2011-09-14T11:42:27Z</time></trkpt><trkpt lat="43.478675" lon="-1.564355"><ele>50.13</ele><time>2011-09-14T11:42:28Z</time></trkpt><trkpt lat="43.478656" lon="-1.564252"><ele>51.09</ele><time>2011-09-14T11:42:29Z</time></trkpt><trkpt lat="43.478616" lon="-1.564150"><ele>52.53</ele><time>2011-09-14T11:42:30Z</time></trkpt><trkpt lat="43.478613" lon="-1.564032"><ele>53.01</ele><time>2011-09-14T11:42:31Z</time></trkpt><trkpt lat="43.478569" lon="-1.563928"><ele>54.93</ele><time>2011-09-14T11:42:32Z</time></trkpt><trkpt lat="43.478488" lon="-1.562815"><ele>54.45</ele><time>2011-09-14T11:42:42Z</time></trkpt><trkpt lat="43.478470" lon="-1.562539"><ele>56.37</ele><time>2011-09-14T11:42:49Z</time></trkpt><trkpt lat="43.478450" lon="-1.562476"><ele>57.34</ele><time>2011-09-14T11:42:50Z</time></trkpt><trkpt lat="43.478429" lon="-1.562404"><ele>57.34</ele><time>2011-09-14T11:42:51Z</time></trkpt><trkpt lat="43.478412" lon="-1.562255"><ele>57.34</ele><time>2011-09-14T11:42:53Z</time></trkpt><trkpt lat="43.478355" lon="-1.561483"><ele>56.37</ele><time>2011-09-14T11:43:02Z</time></trkpt><trkpt lat="43.478371" lon="-1.561306"><ele>58.30</ele><time>2011-09-14T11:43:04Z</time></trkpt><trkpt lat="43.478343" lon="-1.561217"><ele>57.34</ele><time>2011-09-14T11:43:05Z</time></trkpt><trkpt lat="43.478302" lon="-1.561039"><ele>56.37</ele><time>2011-09-14T11:43:07Z</time></trkpt><trkpt lat="43.478302" lon="-1.560942"><ele>55.41</ele><time>2011-09-14T11:43:08Z</time></trkpt><trkpt lat="43.478293" lon="-1.560834"><ele>55.41</ele><time>2011-09-14T11:43:09Z</time></trkpt><trkpt lat="43.478205" lon="-1.559699"><ele>51.09</ele><time>2011-09-14T11:43:20Z</time></trkpt><trkpt lat="43.478076" lon="-1.559082"><ele>46.76</ele><time>2011-09-14T11:43:26Z</time></trkpt><trkpt lat="43.477924" lon="-1.557915"><ele>46.76</ele><time>2011-09-14T11:43:37Z</time></trkpt><trkpt lat="43.477892" lon="-1.557848"><ele>49.16</ele><time>2011-09-14T11:43:38Z</time></trkpt><trkpt lat="43.477858" lon="-1.557659"><ele>50.13</ele><time>2011-09-14T11:43:46Z</time></trkpt><trkpt lat="43.477984" lon="-1.557683"><ele>37.63</ele><time>2011-09-14T11:44:15Z</time></trkpt><trkpt lat="43.477870" lon="-1.557171"><ele>47.72</ele><time>2011-09-14T11:44:22Z</time></trkpt><trkpt lat="43.477764" lon="-1.556946"><ele>52.05</ele><time>2011-09-14T11:44:26Z</time></trkpt><trkpt lat="43.477750" lon="-1.556874"><ele>52.53</ele><time>2011-09-14T11:44:27Z</time></trkpt><trkpt lat="43.477729" lon="-1.556809"><ele>52.53</ele><time>2011-09-14T11:44:28Z</time></trkpt><trkpt lat="43.477724" lon="-1.556757"><ele>52.05</ele><time>2011-09-14T11:44:29Z</time></trkpt><trkpt lat="43.477743" lon="-1.556721"><ele>52.05</ele><time>2011-09-14T11:44:30Z</time></trkpt><trkpt lat="43.477791" lon="-1.556714"><ele>52.05</ele><time>2011-09-14T11:44:31Z</time></trkpt><trkpt lat="43.477857" lon="-1.556739"><ele>52.05</ele><time>2011-09-14T11:44:32Z</time></trkpt><trkpt lat="43.477927" lon="-1.556783"><ele>52.05</ele><time>2011-09-14T11:44:33Z</time></trkpt><trkpt lat="43.477995" lon="-1.556824"><ele>52.05</ele><time>2011-09-14T11:44:34Z</time></trkpt><trkpt lat="43.478212" lon="-1.556927"><ele>53.49</ele><time>2011-09-14T11:44:37Z</time></trkpt><trkpt lat="43.478279" lon="-1.556939"><ele>53.97</ele><time>2011-09-14T11:44:38Z</time></trkpt><trkpt lat="43.478337" lon="-1.556923"><ele>53.97</ele><time>2011-09-14T11:44:39Z</time></trkpt><trkpt lat="43.478375" lon="-1.556897"><ele>55.41</ele><time>2011-09-14T11:44:40Z</time></trkpt><trkpt lat="43.478407" lon="-1.556865"><ele>54.93</ele><time>2011-09-14T11:44:41Z</time></trkpt><trkpt lat="43.478417" lon="-1.556833"><ele>54.45</ele><time>2011-09-14T11:44:42Z</time></trkpt><trkpt lat="43.478422" lon="-1.556787"><ele>53.97</ele><time>2011-09-14T11:44:43Z</time></trkpt><trkpt lat="43.478429" lon="-1.556721"><ele>53.49</ele><time>2011-09-14T11:44:44Z</time></trkpt><trkpt lat="43.478363" lon="-1.555632"><ele>55.41</ele><time>2011-09-14T11:44:55Z</time></trkpt><trkpt lat="43.478359" lon="-1.555313"><ele>54.93</ele><time>2011-09-14T11:44:59Z</time></trkpt><trkpt lat="43.478354" lon="-1.555243"><ele>54.45</ele><time>2011-09-14T11:45:00Z</time></trkpt><trkpt lat="43.478339" lon="-1.555177"><ele>53.97</ele><time>2011-09-14T11:45:01Z</time></trkpt><trkpt lat="43.478307" lon="-1.555051"><ele>53.49</ele><time>2011-09-14T11:45:03Z</time></trkpt><trkpt lat="43.478240" lon="-1.554846"><ele>51.57</ele><time>2011-09-14T11:45:09Z</time></trkpt><trkpt lat="43.478204" lon="-1.554796"><ele>51.57</ele><time>2011-09-14T11:45:10Z</time></trkpt><trkpt lat="43.477738" lon="-1.554114"><ele>52.05</ele><time>2011-09-14T11:45:19Z</time></trkpt><trkpt lat="43.477084" lon="-1.553090"><ele>54.45</ele><time>2011-09-14T11:45:28Z</time></trkpt><trkpt lat="43.476862" lon="-1.552461"><ele>53.97</ele><time>2011-09-14T11:45:32Z</time></trkpt><trkpt lat="43.476670" lon="-1.551598"><ele>55.89</ele><time>2011-09-14T11:45:37Z</time></trkpt><trkpt lat="43.476720" lon="-1.550225"><ele>54.93</ele><time>2011-09-14T11:45:44Z</time></trkpt><trkpt lat="43.476751" lon="-1.549166"><ele>59.26</ele><time>2011-09-14T11:45:53Z</time></trkpt><trkpt lat="43.476668" lon="-1.548843"><ele>56.37</ele><time>2011-09-14T11:46:00Z</time></trkpt><trkpt lat="43.476459" lon="-1.547983"><ele>54.93</ele><time>2011-09-14T11:46:09Z</time></trkpt><trkpt lat="43.475954" lon="-1.546864"><ele>52.53</ele><time>2011-09-14T11:46:19Z</time></trkpt><trkpt lat="43.475615" lon="-1.546412"><ele>51.09</ele><time>2011-09-14T11:46:25Z</time></trkpt><trkpt lat="43.475577" lon="-1.546346"><ele>51.09</ele><time>2011-09-14T11:46:26Z</time></trkpt><trkpt lat="43.475543" lon="-1.546280"><ele>50.61</ele><time>2011-09-14T11:46:27Z</time></trkpt><trkpt lat="43.475513" lon="-1.546210"><ele>50.61</ele><time>2011-09-14T11:46:28Z</time></trkpt><trkpt lat="43.475486" lon="-1.546134"><ele>50.13</ele><time>2011-09-14T11:46:29Z</time></trkpt><trkpt lat="43.475462" lon="-1.546056"><ele>49.65</ele><time>2011-09-14T11:46:30Z</time></trkpt><trkpt lat="43.475400" lon="-1.545863"><ele>48.68</ele><time>2011-09-14T11:46:33Z</time></trkpt><trkpt lat="43.475347" lon="-1.545756"><ele>48.20</ele><time>2011-09-14T11:46:35Z</time></trkpt><trkpt lat="43.475305" lon="-1.545698"><ele>47.72</ele><time>2011-09-14T11:46:36Z</time></trkpt><trkpt lat="43.475251" lon="-1.545638"><ele>47.72</ele><time>2011-09-14T11:46:37Z</time></trkpt><trkpt lat="43.475113" lon="-1.545509"><ele>47.24</ele><time>2011-09-14T11:46:39Z</time></trkpt><trkpt lat="43.475024" lon="-1.545458"><ele>46.76</ele><time>2011-09-14T11:46:40Z</time></trkpt><trkpt lat="43.474918" lon="-1.545431"><ele>45.80</ele><time>2011-09-14T11:46:41Z</time></trkpt><trkpt lat="43.474791" lon="-1.545426"><ele>45.80</ele><time>2011-09-14T11:46:42Z</time></trkpt><trkpt lat="43.474652" lon="-1.545433"><ele>45.32</ele><time>2011-09-14T11:46:43Z</time></trkpt><trkpt lat="43.474510" lon="-1.545447"><ele>45.32</ele><time>2011-09-14T11:46:44Z</time></trkpt><trkpt lat="43.473270" lon="-1.545576"><ele>49.16</ele><time>2011-09-14T11:46:51Z</time></trkpt><trkpt lat="43.471524" lon="-1.545465"><ele>54.93</ele><time>2011-09-14T11:47:00Z</time></trkpt><trkpt lat="43.470488" lon="-1.544635"><ele>56.86</ele><time>2011-09-14T11:47:06Z</time></trkpt><trkpt lat="43.468852" lon="-1.542834"><ele>60.22</ele><time>2011-09-14T11:47:17Z</time></trkpt><trkpt lat="43.467798" lon="-1.541546"><ele>61.66</ele><time>2011-09-14T11:47:26Z</time></trkpt><trkpt lat="43.467500" lon="-1.540727"><ele>63.10</ele><time>2011-09-14T11:47:33Z</time></trkpt><trkpt lat="43.467473" lon="-1.540667"><ele>63.10</ele><time>2011-09-14T11:47:34Z</time></trkpt><trkpt lat="43.467430" lon="-1.540607"><ele>63.10</ele><time>2011-09-14T11:47:35Z</time></trkpt><trkpt lat="43.467312" lon="-1.540469"><ele>63.10</ele><time>2011-09-14T11:47:37Z</time></trkpt><trkpt lat="43.467263" lon="-1.540387"><ele>63.58</ele><time>2011-09-14T11:47:38Z</time></trkpt><trkpt lat="43.467226" lon="-1.540286"><ele>63.58</ele><time>2011-09-14T11:47:39Z</time></trkpt><trkpt lat="43.467199" lon="-1.540163"><ele>63.58</ele><time>2011-09-14T11:47:40Z</time></trkpt><trkpt lat="43.467181" lon="-1.540030"><ele>63.58</ele><time>2011-09-14T11:47:41Z</time></trkpt><trkpt lat="43.467160" lon="-1.539902"><ele>63.58</ele><time>2011-09-14T11:47:42Z</time></trkpt><trkpt lat="43.467134" lon="-1.539785"><ele>63.58</ele><time>2011-09-14T11:47:43Z</time></trkpt><trkpt lat="43.466922" lon="-1.538513"><ele>65.99</ele><time>2011-09-14T11:47:52Z</time></trkpt><trkpt lat="43.466878" lon="-1.538356"><ele>65.99</ele><time>2011-09-14T11:47:53Z</time></trkpt><trkpt lat="43.466817" lon="-1.538202"><ele>66.47</ele><time>2011-09-14T11:47:54Z</time></trkpt><trkpt lat="43.466744" lon="-1.538061"><ele>66.95</ele><time>2011-09-14T11:47:55Z</time></trkpt><trkpt lat="43.466669" lon="-1.537931"><ele>66.95</ele><time>2011-09-14T11:47:56Z</time></trkpt><trkpt lat="43.466219" lon="-1.537223"><ele>70.31</ele><time>2011-09-14T11:48:03Z</time></trkpt><trkpt lat="43.466161" lon="-1.537174"><ele>70.31</ele><time>2011-09-14T11:48:04Z</time></trkpt><trkpt lat="43.466112" lon="-1.537134"><ele>70.79</ele><time>2011-09-14T11:48:05Z</time></trkpt><trkpt lat="43.466072" lon="-1.537086"><ele>70.79</ele><time>2011-09-14T11:48:06Z</time></trkpt><trkpt lat="43.466044" lon="-1.537021"><ele>71.27</ele><time>2011-09-14T11:48:07Z</time></trkpt><trkpt lat="43.466022" lon="-1.536940"><ele>71.27</ele><time>2011-09-14T11:48:08Z</time></trkpt><trkpt lat="43.465996" lon="-1.536845"><ele>71.27</ele><time>2011-09-14T11:48:09Z</time></trkpt><trkpt lat="43.465957" lon="-1.536739"><ele>71.76</ele><time>2011-09-14T11:48:10Z</time></trkpt><trkpt lat="43.465902" lon="-1.536626"><ele>72.24</ele><time>2011-09-14T11:48:11Z</time></trkpt><trkpt lat="43.465835" lon="-1.536500"><ele>72.24</ele><time>2011-09-14T11:48:12Z</time></trkpt><trkpt lat="43.465179" lon="-1.535066"><ele>73.68</ele><time>2011-09-14T11:48:21Z</time></trkpt><trkpt lat="43.464500" lon="-1.533635"><ele>73.20</ele><time>2011-09-14T11:48:30Z</time></trkpt><trkpt lat="43.464438" lon="-1.533536"><ele>73.20</ele><time>2011-09-14T11:48:31Z</time></trkpt><trkpt lat="43.464386" lon="-1.533438"><ele>73.20</ele><time>2011-09-14T11:48:32Z</time></trkpt><trkpt lat="43.464366" lon="-1.533330"><ele>72.72</ele><time>2011-09-14T11:48:33Z</time></trkpt><trkpt lat="43.464363" lon="-1.533207"><ele>72.72</ele><time>2011-09-14T11:48:34Z</time></trkpt><trkpt lat="43.464376" lon="-1.533059"><ele>72.24</ele><time>2011-09-14T11:48:35Z</time></trkpt><trkpt lat="43.464387" lon="-1.532881"><ele>71.76</ele><time>2011-09-14T11:48:36Z</time></trkpt><trkpt lat="43.464494" lon="-1.531201"><ele>69.35</ele><time>2011-09-14T11:48:44Z</time></trkpt><trkpt lat="43.464692" lon="-1.530324"><ele>68.39</ele><time>2011-09-14T11:48:48Z</time></trkpt><trkpt lat="43.464924" lon="-1.529335"><ele>67.43</ele><time>2011-09-14T11:48:52Z</time></trkpt><trkpt lat="43.464929" lon="-1.529083"><ele>67.43</ele><time>2011-09-14T11:48:53Z</time></trkpt><trkpt lat="43.464920" lon="-1.528830"><ele>67.91</ele><time>2011-09-14T11:48:54Z</time></trkpt><trkpt lat="43.464786" lon="-1.527210"><ele>67.43</ele><time>2011-09-14T11:49:01Z</time></trkpt><trkpt lat="43.464711" lon="-1.527002"><ele>67.43</ele><time>2011-09-14T11:49:02Z</time></trkpt><trkpt lat="43.464624" lon="-1.526799"><ele>66.95</ele><time>2011-09-14T11:49:03Z</time></trkpt><trkpt lat="43.463807" lon="-1.524607"><ele>65.51</ele><time>2011-09-14T11:49:14Z</time></trkpt><trkpt lat="43.463781" lon="-1.524401"><ele>65.03</ele><time>2011-09-14T11:49:15Z</time></trkpt><trkpt lat="43.463776" lon="-1.524194"><ele>64.55</ele><time>2011-09-14T11:49:16Z</time></trkpt><trkpt lat="43.463844" lon="-1.522757"><ele>59.26</ele><time>2011-09-14T11:49:23Z</time></trkpt><trkpt lat="43.463957" lon="-1.521970"><ele>54.93</ele><time>2011-09-14T11:49:27Z</time></trkpt><trkpt lat="43.463953" lon="-1.521774"><ele>53.97</ele><time>2011-09-14T11:49:28Z</time></trkpt><trkpt lat="43.463922" lon="-1.521588"><ele>53.01</ele><time>2011-09-14T11:49:29Z</time></trkpt><trkpt lat="43.463859" lon="-1.521420"><ele>52.05</ele><time>2011-09-14T11:49:30Z</time></trkpt><trkpt lat="43.463779" lon="-1.521262"><ele>51.57</ele><time>2011-09-14T11:49:31Z</time></trkpt><trkpt lat="43.463690" lon="-1.521113"><ele>50.13</ele><time>2011-09-14T11:49:32Z</time></trkpt><trkpt lat="43.463592" lon="-1.520968"><ele>49.65</ele><time>2011-09-14T11:49:33Z</time></trkpt><trkpt lat="43.463223" lon="-1.520357"><ele>47.72</ele><time>2011-09-14T11:49:38Z</time></trkpt><trkpt lat="43.463130" lon="-1.520199"><ele>46.76</ele><time>2011-09-14T11:49:40Z</time></trkpt><trkpt lat="43.463125" lon="-1.520107"><ele>46.76</ele><time>2011-09-14T11:49:41Z</time></trkpt><trkpt lat="43.463131" lon="-1.520008"><ele>46.28</ele><time>2011-09-14T11:49:42Z</time></trkpt><trkpt lat="43.463220" lon="-1.518929"><ele>39.55</ele><time>2011-09-14T11:49:50Z</time></trkpt><trkpt lat="43.463246" lon="-1.518429"><ele>36.67</ele><time>2011-09-14T11:49:55Z</time></trkpt><trkpt lat="43.463223" lon="-1.518360"><ele>36.19</ele><time>2011-09-14T11:49:56Z</time></trkpt><trkpt lat="43.463200" lon="-1.518283"><ele>35.71</ele><time>2011-09-14T11:49:57Z</time></trkpt><trkpt lat="43.463188" lon="-1.518199"><ele>35.71</ele><time>2011-09-14T11:49:58Z</time></trkpt><trkpt lat="43.463209" lon="-1.518111"><ele>35.23</ele><time>2011-09-14T11:49:59Z</time></trkpt><trkpt lat="43.463255" lon="-1.518023"><ele>35.23</ele><time>2011-09-14T11:50:00Z</time></trkpt><trkpt lat="43.463300" lon="-1.517918"><ele>35.23</ele><time>2011-09-14T11:50:01Z</time></trkpt><trkpt lat="43.463329" lon="-1.517804"><ele>34.74</ele><time>2011-09-14T11:50:02Z</time></trkpt><trkpt lat="43.463348" lon="-1.517685"><ele>34.74</ele><time>2011-09-14T11:50:03Z</time></trkpt><trkpt lat="43.463571" lon="-1.516312"><ele>32.82</ele><time>2011-09-14T11:50:13Z</time></trkpt><trkpt lat="43.463765" lon="-1.514660"><ele>33.30</ele><time>2011-09-14T11:50:23Z</time></trkpt><trkpt lat="43.463882" lon="-1.513195"><ele>35.71</ele><time>2011-09-14T11:50:31Z</time></trkpt><trkpt lat="43.463563" lon="-1.511342"><ele>35.71</ele><time>2011-09-14T11:50:41Z</time></trkpt><trkpt lat="43.463238" lon="-1.508746"><ele>33.78</ele><time>2011-09-14T11:50:55Z</time></trkpt><trkpt lat="43.463366" lon="-1.506438"><ele>31.86</ele><time>2011-09-14T11:51:08Z</time></trkpt><trkpt lat="43.463855" lon="-1.504005"><ele>26.57</ele><time>2011-09-14T11:51:24Z</time></trkpt><trkpt lat="43.463995" lon="-1.503269"><ele>25.13</ele><time>2011-09-14T11:51:31Z</time></trkpt><trkpt lat="43.464175" lon="-1.502361"><ele>23.69</ele><time>2011-09-14T11:51:39Z</time></trkpt><trkpt lat="43.464638" lon="-1.500679"><ele>20.81</ele><time>2011-09-14T11:51:51Z</time></trkpt><trkpt lat="43.464844" lon="-1.499980"><ele>19.36</ele><time>2011-09-14T11:51:56Z</time></trkpt><trkpt lat="43.464857" lon="-1.499854"><ele>19.36</ele><time>2011-09-14T11:51:57Z</time></trkpt><trkpt lat="43.464852" lon="-1.499727"><ele>19.36</ele><time>2011-09-14T11:51:58Z</time></trkpt><trkpt lat="43.464833" lon="-1.499599"><ele>18.88</ele><time>2011-09-14T11:51:59Z</time></trkpt><trkpt lat="43.464791" lon="-1.499479"><ele>18.88</ele><time>2011-09-14T11:52:00Z</time></trkpt><trkpt lat="43.464702" lon="-1.499386"><ele>18.88</ele><time>2011-09-14T11:52:01Z</time></trkpt><trkpt lat="43.464612" lon="-1.499301"><ele>18.88</ele><time>2011-09-14T11:52:02Z</time></trkpt><trkpt lat="43.464504" lon="-1.499216"><ele>19.36</ele><time>2011-09-14T11:52:03Z</time></trkpt><trkpt lat="43.464403" lon="-1.499125"><ele>18.88</ele><time>2011-09-14T11:52:04Z</time></trkpt><trkpt lat="43.464315" lon="-1.499023"><ele>18.88</ele><time>2011-09-14T11:52:05Z</time></trkpt><trkpt lat="43.464237" lon="-1.498909"><ele>19.36</ele><time>2011-09-14T11:52:06Z</time></trkpt><trkpt lat="43.464164" lon="-1.498778"><ele>19.36</ele><time>2011-09-14T11:52:07Z</time></trkpt><trkpt lat="43.464095" lon="-1.498631"><ele>19.36</ele><time>2011-09-14T11:52:08Z</time></trkpt><trkpt lat="43.464031" lon="-1.498477"><ele>19.36</ele><time>2011-09-14T11:52:09Z</time></trkpt><trkpt lat="43.463820" lon="-1.497679"><ele>20.32</ele><time>2011-09-14T11:52:14Z</time></trkpt><trkpt lat="43.463807" lon="-1.497488"><ele>20.81</ele><time>2011-09-14T11:52:15Z</time></trkpt><trkpt lat="43.463809" lon="-1.497295"><ele>21.77</ele><time>2011-09-14T11:52:16Z</time></trkpt><trkpt lat="43.463935" lon="-1.495964"><ele>28.98</ele><time>2011-09-14T11:52:24Z</time></trkpt><trkpt lat="43.463942" lon="-1.495909"><ele>29.46</ele><time>2011-09-14T11:52:25Z</time></trkpt><trkpt lat="43.463952" lon="-1.495875"><ele>29.46</ele><time>2011-09-14T11:52:26Z</time></trkpt><trkpt lat="43.463958" lon="-1.495846"><ele>29.94</ele><time>2011-09-14T11:52:27Z</time></trkpt><trkpt lat="43.463964" lon="-1.495821"><ele>30.42</ele><time>2011-09-14T11:52:28Z</time></trkpt><trkpt lat="43.463974" lon="-1.495800"><ele>30.42</ele><time>2011-09-14T11:52:29Z</time></trkpt><trkpt lat="43.463982" lon="-1.495780"><ele>30.42</ele><time>2011-09-14T11:52:30Z</time></trkpt><trkpt lat="43.463985" lon="-1.495772"><ele>30.42</ele><time>2011-09-14T11:52:44Z</time></trkpt><trkpt lat="43.464004" lon="-1.495713"><ele>30.42</ele><time>2011-09-14T11:52:56Z</time></trkpt><trkpt lat="43.463989" lon="-1.495608"><ele>31.38</ele><time>2011-09-14T11:53:15Z</time></trkpt><trkpt lat="43.463849" lon="-1.495577"><ele>30.90</ele><time>2011-09-14T11:53:24Z</time></trkpt><trkpt lat="43.463752" lon="-1.495601"><ele>30.90</ele><time>2011-09-14T11:53:25Z</time></trkpt><trkpt lat="43.462947" lon="-1.495823"><ele>27.05</ele><time>2011-09-14T11:53:31Z</time></trkpt><trkpt lat="43.461318" lon="-1.496178"><ele>23.21</ele><time>2011-09-14T11:53:42Z</time></trkpt><trkpt lat="43.460722" lon="-1.496134"><ele>23.21</ele><time>2011-09-14T11:53:49Z</time></trkpt><trkpt lat="43.460589" lon="-1.496179"><ele>22.73</ele><time>2011-09-14T11:53:54Z</time></trkpt><trkpt lat="43.460539" lon="-1.496214"><ele>22.73</ele><time>2011-09-14T11:53:55Z</time></trkpt><trkpt lat="43.460488" lon="-1.496263"><ele>22.73</ele><time>2011-09-14T11:53:56Z</time></trkpt><trkpt lat="43.460427" lon="-1.496312"><ele>23.21</ele><time>2011-09-14T11:53:57Z</time></trkpt><trkpt lat="43.460350" lon="-1.496347"><ele>23.21</ele><time>2011-09-14T11:53:58Z</time></trkpt><trkpt lat="43.460270" lon="-1.496362"><ele>23.69</ele><time>2011-09-14T11:53:59Z</time></trkpt><trkpt lat="43.460193" lon="-1.496353"><ele>23.69</ele><time>2011-09-14T11:54:00Z</time></trkpt><trkpt lat="43.460121" lon="-1.496310"><ele>24.17</ele><time>2011-09-14T11:54:01Z</time></trkpt><trkpt lat="43.460057" lon="-1.496242"><ele>24.65</ele><time>2011-09-14T11:54:02Z</time></trkpt><trkpt lat="43.459997" lon="-1.496154"><ele>25.13</ele><time>2011-09-14T11:54:03Z</time></trkpt><trkpt lat="43.459925" lon="-1.496057"><ele>25.13</ele><time>2011-09-14T11:54:04Z</time></trkpt><trkpt lat="43.459840" lon="-1.495979"><ele>25.61</ele><time>2011-09-14T11:54:05Z</time></trkpt><trkpt lat="43.459741" lon="-1.495933"><ele>25.61</ele><time>2011-09-14T11:54:06Z</time></trkpt><trkpt lat="43.459628" lon="-1.495899"><ele>25.61</ele><time>2011-09-14T11:54:07Z</time></trkpt><trkpt lat="43.458590" lon="-1.495752"><ele>25.61</ele><time>2011-09-14T11:54:13Z</time></trkpt><trkpt lat="43.456954" lon="-1.495420"><ele>18.40</ele><time>2011-09-14T11:54:20Z</time></trkpt><trkpt lat="43.453981" lon="-1.494520"><ele>4.46</ele><time>2011-09-14T11:54:32Z</time></trkpt><trkpt lat="43.451251" lon="-1.493341"><ele>1.58</ele><time>2011-09-14T11:54:43Z</time></trkpt><trkpt lat="43.447919" lon="-1.491696"><ele>17.44</ele><time>2011-09-14T11:54:58Z</time></trkpt><trkpt lat="43.445753" lon="-1.490177"><ele>34.26</ele><time>2011-09-14T11:55:08Z</time></trkpt><trkpt lat="43.443675" lon="-1.488924"><ele>42.92</ele><time>2011-09-14T11:55:17Z</time></trkpt><trkpt lat="43.441683" lon="-1.488404"><ele>46.76</ele><time>2011-09-14T11:55:25Z</time></trkpt><trkpt lat="43.439828" lon="-1.488384"><ele>46.28</ele><time>2011-09-14T11:55:33Z</time></trkpt><trkpt lat="43.439258" lon="-1.488438"><ele>46.28</ele><time>2011-09-14T11:55:37Z</time></trkpt><trkpt lat="43.439160" lon="-1.488481"><ele>46.76</ele><time>2011-09-14T11:55:38Z</time></trkpt><trkpt lat="43.438983" lon="-1.488583"><ele>46.28</ele><time>2011-09-14T11:55:40Z</time></trkpt><trkpt lat="43.438886" lon="-1.488601"><ele>46.28</ele><time>2011-09-14T11:55:41Z</time></trkpt><trkpt lat="43.438785" lon="-1.488586"><ele>45.80</ele><time>2011-09-14T11:55:42Z</time></trkpt><trkpt lat="43.438678" lon="-1.488528"><ele>45.80</ele><time>2011-09-14T11:55:43Z</time></trkpt><trkpt lat="43.438560" lon="-1.488477"><ele>45.32</ele><time>2011-09-14T11:55:44Z</time></trkpt><trkpt lat="43.438422" lon="-1.488460"><ele>45.32</ele><time>2011-09-14T11:55:45Z</time></trkpt><trkpt lat="43.438271" lon="-1.488467"><ele>45.32</ele><time>2011-09-14T11:55:46Z</time></trkpt><trkpt lat="43.438114" lon="-1.488478"><ele>45.32</ele><time>2011-09-14T11:55:47Z</time></trkpt><trkpt lat="43.436668" lon="-1.488606"><ele>44.84</ele><time>2011-09-14T11:55:55Z</time></trkpt><trkpt lat="43.434704" lon="-1.489041"><ele>43.88</ele><time>2011-09-14T11:56:04Z</time></trkpt><trkpt lat="43.431697" lon="-1.489597"><ele>45.32</ele><time>2011-09-14T11:56:17Z</time></trkpt><trkpt lat="43.431469" lon="-1.489517"><ele>45.32</ele><time>2011-09-14T11:56:18Z</time></trkpt><trkpt lat="43.429152" lon="-1.488434"><ele>47.24</ele><time>2011-09-14T11:56:29Z</time></trkpt><trkpt lat="43.427558" lon="-1.487617"><ele>48.20</ele><time>2011-09-14T11:56:38Z</time></trkpt><trkpt lat="43.427276" lon="-1.487453"><ele>49.16</ele><time>2011-09-14T11:56:41Z</time></trkpt><trkpt lat="43.427194" lon="-1.487438"><ele>49.16</ele><time>2011-09-14T11:56:42Z</time></trkpt><trkpt lat="43.427025" lon="-1.487410"><ele>49.65</ele><time>2011-09-14T11:56:44Z</time></trkpt><trkpt lat="43.426950" lon="-1.487364"><ele>50.13</ele><time>2011-09-14T11:56:45Z</time></trkpt><trkpt lat="43.426906" lon="-1.487282"><ele>49.65</ele><time>2011-09-14T11:56:46Z</time></trkpt><trkpt lat="43.426879" lon="-1.487180"><ele>50.61</ele><time>2011-09-14T11:56:47Z</time></trkpt><trkpt lat="43.426881" lon="-1.487073"><ele>50.61</ele><time>2011-09-14T11:56:48Z</time></trkpt><trkpt lat="43.426905" lon="-1.486975"><ele>50.13</ele><time>2011-09-14T11:56:49Z</time></trkpt><trkpt lat="43.426972" lon="-1.486885"><ele>50.13</ele><time>2011-09-14T11:56:50Z</time></trkpt><trkpt lat="43.427051" lon="-1.486800"><ele>49.16</ele><time>2011-09-14T11:56:51Z</time></trkpt><trkpt lat="43.427123" lon="-1.486705"><ele>48.68</ele><time>2011-09-14T11:56:52Z</time></trkpt><trkpt lat="43.427177" lon="-1.486604"><ele>48.68</ele><time>2011-09-14T11:56:53Z</time></trkpt><trkpt lat="43.427207" lon="-1.486501"><ele>48.20</ele><time>2011-09-14T11:56:54Z</time></trkpt><trkpt lat="43.427216" lon="-1.486397"><ele>48.20</ele><time>2011-09-14T11:56:55Z</time></trkpt><trkpt lat="43.427206" lon="-1.486296"><ele>48.20</ele><time>2011-09-14T11:56:56Z</time></trkpt><trkpt lat="43.427186" lon="-1.486196"><ele>48.20</ele><time>2011-09-14T11:56:57Z</time></trkpt><trkpt lat="43.427160" lon="-1.486098"><ele>47.72</ele><time>2011-09-14T11:56:58Z</time></trkpt><trkpt lat="43.427130" lon="-1.486004"><ele>47.72</ele><time>2011-09-14T11:56:59Z</time></trkpt><trkpt lat="43.427051" lon="-1.485788"><ele>48.20</ele><time>2011-09-14T11:57:02Z</time></trkpt><trkpt lat="43.427042" lon="-1.485735"><ele>48.20</ele><time>2011-09-14T11:57:03Z</time></trkpt><trkpt lat="43.427133" lon="-1.485748"><ele>48.68</ele><time>2011-09-14T11:57:08Z</time></trkpt><trkpt lat="43.427123" lon="-1.485865"><ele>48.68</ele><time>2011-09-14T11:57:10Z</time></trkpt><trkpt lat="43.427129" lon="-1.485949"><ele>49.16</ele><time>2011-09-14T11:57:11Z</time></trkpt><trkpt lat="43.427149" lon="-1.486049"><ele>49.16</ele><time>2011-09-14T11:57:12Z</time></trkpt><trkpt lat="43.427233" lon="-1.486441"><ele>49.65</ele><time>2011-09-14T11:57:16Z</time></trkpt><trkpt lat="43.427233" lon="-1.486546"><ele>49.65</ele><time>2011-09-14T11:57:17Z</time></trkpt><trkpt lat="43.427232" lon="-1.486652"><ele>49.65</ele><time>2011-09-14T11:57:18Z</time></trkpt><trkpt lat="43.427243" lon="-1.486756"><ele>50.13</ele><time>2011-09-14T11:57:19Z</time></trkpt><trkpt lat="43.427278" lon="-1.486869"><ele>50.13</ele><time>2011-09-14T11:57:20Z</time></trkpt><trkpt lat="43.427321" lon="-1.486996"><ele>50.61</ele><time>2011-09-14T11:57:21Z</time></trkpt><trkpt lat="43.427353" lon="-1.487124"><ele>50.61</ele><time>2011-09-14T11:57:22Z</time></trkpt><trkpt lat="43.427364" lon="-1.487236"><ele>50.61</ele><time>2011-09-14T11:57:23Z</time></trkpt><trkpt lat="43.427347" lon="-1.487331"><ele>50.13</ele><time>2011-09-14T11:57:24Z</time></trkpt><trkpt lat="43.427301" lon="-1.487406"><ele>50.13</ele><time>2011-09-14T11:57:25Z</time></trkpt><trkpt lat="43.427231" lon="-1.487466"><ele>50.13</ele><time>2011-09-14T11:57:26Z</time></trkpt><trkpt lat="43.427144" lon="-1.487491"><ele>50.13</ele><time>2011-09-14T11:57:27Z</time></trkpt><trkpt lat="43.427050" lon="-1.487434"><ele>50.13</ele><time>2011-09-14T11:57:28Z</time></trkpt><trkpt lat="43.426976" lon="-1.487331"><ele>50.13</ele><time>2011-09-14T11:57:29Z</time></trkpt><trkpt lat="43.426910" lon="-1.487201"><ele>49.65</ele><time>2011-09-14T11:57:30Z</time></trkpt><trkpt lat="43.426855" lon="-1.487087"><ele>46.76</ele><time>2011-09-14T11:57:31Z</time></trkpt><trkpt lat="43.426777" lon="-1.486988"><ele>46.76</ele><time>2011-09-14T11:57:32Z</time></trkpt><trkpt lat="43.426677" lon="-1.486899"><ele>46.76</ele><time>2011-09-14T11:57:33Z</time></trkpt><trkpt lat="43.426561" lon="-1.486805"><ele>47.24</ele><time>2011-09-14T11:57:34Z</time></trkpt><trkpt lat="43.425375" lon="-1.486113"><ele>45.80</ele><time>2011-09-14T11:57:42Z</time></trkpt><trkpt lat="43.424162" lon="-1.485899"><ele>42.44</ele><time>2011-09-14T11:57:48Z</time></trkpt><trkpt lat="43.422053" lon="-1.485543"><ele>36.19</ele><time>2011-09-14T11:57:57Z</time></trkpt><trkpt lat="43.420736" lon="-1.484690"><ele>36.67</ele><time>2011-09-14T11:58:03Z</time></trkpt><trkpt lat="43.419585" lon="-1.483248"><ele>41.47</ele><time>2011-09-14T11:58:10Z</time></trkpt><trkpt lat="43.418732" lon="-1.481253"><ele>44.84</ele><time>2011-09-14T11:58:18Z</time></trkpt><trkpt lat="43.417873" lon="-1.479662"><ele>42.92</ele><time>2011-09-14T11:58:25Z</time></trkpt><trkpt lat="43.417540" lon="-1.479301"><ele>40.99</ele><time>2011-09-14T11:58:27Z</time></trkpt><trkpt lat="43.417329" lon="-1.479158"><ele>40.03</ele><time>2011-09-14T11:58:28Z</time></trkpt><trkpt lat="43.417121" lon="-1.479040"><ele>38.59</ele><time>2011-09-14T11:58:29Z</time></trkpt><trkpt lat="43.416908" lon="-1.478948"><ele>37.15</ele><time>2011-09-14T11:58:30Z</time></trkpt><trkpt lat="43.416695" lon="-1.478876"><ele>35.71</ele><time>2011-09-14T11:58:31Z</time></trkpt><trkpt lat="43.415881" lon="-1.478499"><ele>30.42</ele><time>2011-09-14T11:58:35Z</time></trkpt><trkpt lat="43.415687" lon="-1.478342"><ele>29.46</ele><time>2011-09-14T11:58:36Z</time></trkpt><trkpt lat="43.415497" lon="-1.478163"><ele>28.50</ele><time>2011-09-14T11:58:37Z</time></trkpt><trkpt lat="43.415323" lon="-1.477958"><ele>27.53</ele><time>2011-09-14T11:58:38Z</time></trkpt><trkpt lat="43.415151" lon="-1.477733"><ele>26.09</ele><time>2011-09-14T11:58:39Z</time></trkpt><trkpt lat="43.414989" lon="-1.477493"><ele>24.17</ele><time>2011-09-14T11:58:40Z</time></trkpt><trkpt lat="43.414414" lon="-1.475808"><ele>14.08</ele><time>2011-09-14T11:58:46Z</time></trkpt><trkpt lat="43.413897" lon="-1.474301"><ele>8.31</ele><time>2011-09-14T11:58:52Z</time></trkpt><trkpt lat="43.413727" lon="-1.474089"><ele>8.79</ele><time>2011-09-14T11:58:53Z</time></trkpt><trkpt lat="43.413560" lon="-1.473889"><ele>8.79</ele><time>2011-09-14T11:58:54Z</time></trkpt><trkpt lat="43.413381" lon="-1.473706"><ele>8.79</ele><time>2011-09-14T11:58:55Z</time></trkpt><trkpt lat="43.413190" lon="-1.473539"><ele>9.27</ele><time>2011-09-14T11:58:56Z</time></trkpt><trkpt lat="43.412993" lon="-1.473384"><ele>9.27</ele><time>2011-09-14T11:58:57Z</time></trkpt><trkpt lat="43.410946" lon="-1.471463"><ele>23.21</ele><time>2011-09-14T11:59:08Z</time></trkpt><trkpt lat="43.409822" lon="-1.469772"><ele>28.50</ele><time>2011-09-14T11:59:16Z</time></trkpt><trkpt lat="43.409655" lon="-1.469634"><ele>28.98</ele><time>2011-09-14T11:59:17Z</time></trkpt><trkpt lat="43.409479" lon="-1.469515"><ele>29.46</ele><time>2011-09-14T11:59:18Z</time></trkpt><trkpt lat="43.409294" lon="-1.469412"><ele>30.90</ele><time>2011-09-14T11:59:19Z</time></trkpt><trkpt lat="43.409107" lon="-1.469335"><ele>31.86</ele><time>2011-09-14T11:59:20Z</time></trkpt><trkpt lat="43.408925" lon="-1.469280"><ele>32.82</ele><time>2011-09-14T11:59:21Z</time></trkpt><trkpt lat="43.408751" lon="-1.469245"><ele>33.30</ele><time>2011-09-14T11:59:22Z</time></trkpt><trkpt lat="43.408586" lon="-1.469214"><ele>34.74</ele><time>2011-09-14T11:59:23Z</time></trkpt><trkpt lat="43.408046" lon="-1.469080"><ele>39.07</ele><time>2011-09-14T11:59:28Z</time></trkpt><trkpt lat="43.407962" lon="-1.469068"><ele>39.55</ele><time>2011-09-14T11:59:29Z</time></trkpt><trkpt lat="43.407880" lon="-1.469075"><ele>40.03</ele><time>2011-09-14T11:59:30Z</time></trkpt><trkpt lat="43.407801" lon="-1.469101"><ele>40.51</ele><time>2011-09-14T11:59:31Z</time></trkpt><trkpt lat="43.407722" lon="-1.469130"><ele>40.99</ele><time>2011-09-14T11:59:32Z</time></trkpt><trkpt lat="43.407642" lon="-1.469135"><ele>41.47</ele><time>2011-09-14T11:59:33Z</time></trkpt><trkpt lat="43.407566" lon="-1.469106"><ele>41.95</ele><time>2011-09-14T11:59:34Z</time></trkpt><trkpt lat="43.407491" lon="-1.469050"><ele>42.44</ele><time>2011-09-14T11:59:35Z</time></trkpt><trkpt lat="43.407406" lon="-1.468990"><ele>42.44</ele><time>2011-09-14T11:59:36Z</time></trkpt><trkpt lat="43.407303" lon="-1.468945"><ele>42.92</ele><time>2011-09-14T11:59:37Z</time></trkpt><trkpt lat="43.407180" lon="-1.468920"><ele>43.40</ele><time>2011-09-14T11:59:38Z</time></trkpt><trkpt lat="43.407040" lon="-1.468912"><ele>44.36</ele><time>2011-09-14T11:59:39Z</time></trkpt><trkpt lat="43.406887" lon="-1.468910"><ele>45.32</ele><time>2011-09-14T11:59:40Z</time></trkpt><trkpt lat="43.405835" lon="-1.468635"><ele>50.61</ele><time>2011-09-14T11:59:46Z</time></trkpt><trkpt lat="43.403744" lon="-1.467590"><ele>53.01</ele><time>2011-09-14T11:59:56Z</time></trkpt><trkpt lat="43.401736" lon="-1.466309"><ele>51.57</ele><time>2011-09-14T12:00:06Z</time></trkpt><trkpt lat="43.400571" lon="-1.465165"><ele>52.53</ele><time>2011-09-14T12:00:14Z</time></trkpt><trkpt lat="43.399903" lon="-1.464903"><ele>53.01</ele><time>2011-09-14T12:00:20Z</time></trkpt><trkpt lat="43.399817" lon="-1.464912"><ele>53.01</ele><time>2011-09-14T12:00:21Z</time></trkpt><trkpt lat="43.399737" lon="-1.464934"><ele>53.01</ele><time>2011-09-14T12:00:22Z</time></trkpt><trkpt lat="43.399585" lon="-1.464977"><ele>53.49</ele><time>2011-09-14T12:00:24Z</time></trkpt><trkpt lat="43.399510" lon="-1.464976"><ele>53.49</ele><time>2011-09-14T12:00:25Z</time></trkpt><trkpt lat="43.399440" lon="-1.464925"><ele>53.97</ele><time>2011-09-14T12:00:26Z</time></trkpt><trkpt lat="43.399378" lon="-1.464848"><ele>53.49</ele><time>2011-09-14T12:00:27Z</time></trkpt><trkpt lat="43.399348" lon="-1.464735"><ele>53.97</ele><time>2011-09-14T12:00:28Z</time></trkpt><trkpt lat="43.399339" lon="-1.464611"><ele>53.97</ele><time>2011-09-14T12:00:29Z</time></trkpt><trkpt lat="43.399347" lon="-1.464490"><ele>53.97</ele><time>2011-09-14T12:00:30Z</time></trkpt><trkpt lat="43.399387" lon="-1.464352"><ele>53.49</ele><time>2011-09-14T12:00:31Z</time></trkpt><trkpt lat="43.399421" lon="-1.464207"><ele>53.97</ele><time>2011-09-14T12:00:32Z</time></trkpt><trkpt lat="43.399448" lon="-1.464056"><ele>53.97</ele><time>2011-09-14T12:00:33Z</time></trkpt><trkpt lat="43.399441" lon="-1.463914"><ele>53.97</ele><time>2011-09-14T12:00:34Z</time></trkpt><trkpt lat="43.399416" lon="-1.463779"><ele>53.97</ele><time>2011-09-14T12:00:35Z</time></trkpt><trkpt lat="43.399372" lon="-1.463649"><ele>54.45</ele><time>2011-09-14T12:00:36Z</time></trkpt><trkpt lat="43.399303" lon="-1.463510"><ele>54.45</ele><time>2011-09-14T12:00:37Z</time></trkpt><trkpt lat="43.399231" lon="-1.463373"><ele>53.97</ele><time>2011-09-14T12:00:38Z</time></trkpt><trkpt lat="43.399157" lon="-1.463235"><ele>53.97</ele><time>2011-09-14T12:00:39Z</time></trkpt><trkpt lat="43.398491" lon="-1.461792"><ele>48.68</ele><time>2011-09-14T12:00:49Z</time></trkpt><trkpt lat="43.398394" lon="-1.461660"><ele>48.20</ele><time>2011-09-14T12:00:50Z</time></trkpt><trkpt lat="43.398287" lon="-1.461537"><ele>47.72</ele><time>2011-09-14T12:00:51Z</time></trkpt><trkpt lat="43.398154" lon="-1.461421"><ele>47.24</ele><time>2011-09-14T12:00:52Z</time></trkpt><trkpt lat="43.398023" lon="-1.461314"><ele>46.28</ele><time>2011-09-14T12:00:53Z</time></trkpt><trkpt lat="43.397891" lon="-1.461224"><ele>44.84</ele><time>2011-09-14T12:00:54Z</time></trkpt><trkpt lat="43.397757" lon="-1.461135"><ele>43.88</ele><time>2011-09-14T12:00:55Z</time></trkpt><trkpt lat="43.396159" lon="-1.460221"><ele>35.23</ele><time>2011-09-14T12:01:07Z</time></trkpt><trkpt lat="43.394884" lon="-1.459663"><ele>35.71</ele><time>2011-09-14T12:01:18Z</time></trkpt><trkpt lat="43.394205" lon="-1.458863"><ele>35.23</ele><time>2011-09-14T12:01:26Z</time></trkpt><trkpt lat="43.392841" lon="-1.456755"><ele>31.86</ele><time>2011-09-14T12:01:43Z</time></trkpt><trkpt lat="43.391698" lon="-1.455380"><ele>33.30</ele><time>2011-09-14T12:01:55Z</time></trkpt><trkpt lat="43.391075" lon="-1.454271"><ele>34.74</ele><time>2011-09-14T12:02:04Z</time></trkpt><trkpt lat="43.390447" lon="-1.452828"><ele>29.46</ele><time>2011-09-14T12:02:14Z</time></trkpt><trkpt lat="43.389422" lon="-1.451726"><ele>21.29</ele><time>2011-09-14T12:02:24Z</time></trkpt><trkpt lat="43.388091" lon="-1.451133"><ele>14.08</ele><time>2011-09-14T12:02:33Z</time></trkpt><trkpt lat="43.387039" lon="-1.450175"><ele>12.63</ele><time>2011-09-14T12:02:40Z</time></trkpt><trkpt lat="43.385913" lon="-1.448666"><ele>12.15</ele><time>2011-09-14T12:02:50Z</time></trkpt><trkpt lat="43.384996" lon="-1.446679"><ele>13.12</ele><time>2011-09-14T12:03:02Z</time></trkpt><trkpt lat="43.384650" lon="-1.445852"><ele>13.12</ele><time>2011-09-14T12:03:10Z</time></trkpt><trkpt lat="43.384569" lon="-1.445699"><ele>13.12</ele><time>2011-09-14T12:03:13Z</time></trkpt><trkpt lat="43.384533" lon="-1.445652"><ele>13.12</ele><time>2011-09-14T12:03:14Z</time></trkpt><trkpt lat="43.384487" lon="-1.445606"><ele>13.12</ele><time>2011-09-14T12:03:15Z</time></trkpt><trkpt lat="43.384429" lon="-1.445562"><ele>13.12</ele><time>2011-09-14T12:03:16Z</time></trkpt><trkpt lat="43.384361" lon="-1.445525"><ele>13.60</ele><time>2011-09-14T12:03:17Z</time></trkpt><trkpt lat="43.384295" lon="-1.445489"><ele>13.60</ele><time>2011-09-14T12:03:18Z</time></trkpt><trkpt lat="43.384236" lon="-1.445449"><ele>13.12</ele><time>2011-09-14T12:03:19Z</time></trkpt><trkpt lat="43.384189" lon="-1.445394"><ele>13.12</ele><time>2011-09-14T12:03:20Z</time></trkpt><trkpt lat="43.384160" lon="-1.445322"><ele>13.12</ele><time>2011-09-14T12:03:21Z</time></trkpt><trkpt lat="43.384148" lon="-1.445239"><ele>13.12</ele><time>2011-09-14T12:03:22Z</time></trkpt><trkpt lat="43.384150" lon="-1.445144"><ele>13.12</ele><time>2011-09-14T12:03:23Z</time></trkpt><trkpt lat="43.384160" lon="-1.445031"><ele>12.63</ele><time>2011-09-14T12:03:24Z</time></trkpt><trkpt lat="43.384163" lon="-1.444899"><ele>12.63</ele><time>2011-09-14T12:03:25Z</time></trkpt><trkpt lat="43.384142" lon="-1.444752"><ele>13.12</ele><time>2011-09-14T12:03:26Z</time></trkpt><trkpt lat="43.384093" lon="-1.444593"><ele>13.12</ele><time>2011-09-14T12:03:27Z</time></trkpt><trkpt lat="43.384019" lon="-1.444413"><ele>13.12</ele><time>2011-09-14T12:03:28Z</time></trkpt><trkpt lat="43.383926" lon="-1.444209"><ele>12.63</ele><time>2011-09-14T12:03:29Z</time></trkpt><trkpt lat="43.382948" lon="-1.442097"><ele>13.12</ele><time>2011-09-14T12:03:38Z</time></trkpt><trkpt lat="43.381396" lon="-1.438640"><ele>15.04</ele><time>2011-09-14T12:03:51Z</time></trkpt><trkpt lat="43.379950" lon="-1.435678"><ele>16.48</ele><time>2011-09-14T12:04:02Z</time></trkpt><trkpt lat="43.379775" lon="-1.435465"><ele>16.48</ele><time>2011-09-14T12:04:03Z</time></trkpt><trkpt lat="43.379586" lon="-1.435270"><ele>16.48</ele><time>2011-09-14T12:04:04Z</time></trkpt><trkpt lat="43.379385" lon="-1.435097"><ele>16.48</ele><time>2011-09-14T12:04:05Z</time></trkpt><trkpt lat="43.379175" lon="-1.434945"><ele>16.48</ele><time>2011-09-14T12:04:06Z</time></trkpt><trkpt lat="43.378960" lon="-1.434812"><ele>16.48</ele><time>2011-09-14T12:04:07Z</time></trkpt><trkpt lat="43.378740" lon="-1.434687"><ele>16.00</ele><time>2011-09-14T12:04:08Z</time></trkpt><trkpt lat="43.375872" lon="-1.433330"><ele>10.71</ele><time>2011-09-14T12:04:21Z</time></trkpt><trkpt lat="43.373389" lon="-1.432481"><ele>11.19</ele><time>2011-09-14T12:04:33Z</time></trkpt><trkpt lat="43.372333" lon="-1.431861"><ele>15.52</ele><time>2011-09-14T12:04:41Z</time></trkpt><trkpt lat="43.372147" lon="-1.431742"><ele>16.48</ele><time>2011-09-14T12:04:43Z</time></trkpt><trkpt lat="43.372061" lon="-1.431725"><ele>16.48</ele><time>2011-09-14T12:04:44Z</time></trkpt><trkpt lat="43.371981" lon="-1.431710"><ele>16.48</ele><time>2011-09-14T12:04:45Z</time></trkpt><trkpt lat="43.371904" lon="-1.431671"><ele>16.96</ele><time>2011-09-14T12:04:46Z</time></trkpt><trkpt lat="43.371827" lon="-1.431597"><ele>16.96</ele><time>2011-09-14T12:04:47Z</time></trkpt><trkpt lat="43.371763" lon="-1.431490"><ele>16.96</ele><time>2011-09-14T12:04:48Z</time></trkpt><trkpt lat="43.371738" lon="-1.431353"><ele>16.96</ele><time>2011-09-14T12:04:49Z</time></trkpt><trkpt lat="43.371686" lon="-1.431210"><ele>17.44</ele><time>2011-09-14T12:04:50Z</time></trkpt><trkpt lat="43.371612" lon="-1.431072"><ele>17.92</ele><time>2011-09-14T12:04:51Z</time></trkpt><trkpt lat="43.371527" lon="-1.430936"><ele>17.92</ele><time>2011-09-14T12:04:52Z</time></trkpt><trkpt lat="43.371438" lon="-1.430810"><ele>17.92</ele><time>2011-09-14T12:04:53Z</time></trkpt><trkpt lat="43.370308" lon="-1.429227"><ele>16.00</ele><time>2011-09-14T12:05:06Z</time></trkpt><trkpt lat="43.369527" lon="-1.427499"><ele>17.92</ele><time>2011-09-14T12:05:18Z</time></trkpt><trkpt lat="43.369425" lon="-1.427358"><ele>17.92</ele><time>2011-09-14T12:05:19Z</time></trkpt><trkpt lat="43.369315" lon="-1.427223"><ele>17.92</ele><time>2011-09-14T12:05:20Z</time></trkpt><trkpt lat="43.369198" lon="-1.427097"><ele>18.40</ele><time>2011-09-14T12:05:21Z</time></trkpt><trkpt lat="43.369073" lon="-1.426981"><ele>18.40</ele><time>2011-09-14T12:05:22Z</time></trkpt><trkpt lat="43.368943" lon="-1.426878"><ele>18.40</ele><time>2011-09-14T12:05:23Z</time></trkpt><trkpt lat="43.368806" lon="-1.426781"><ele>18.40</ele><time>2011-09-14T12:05:24Z</time></trkpt><trkpt lat="43.367628" lon="-1.425859"><ele>20.81</ele><time>2011-09-14T12:05:32Z</time></trkpt><trkpt lat="43.366150" lon="-1.424377"><ele>23.69</ele><time>2011-09-14T12:05:41Z</time></trkpt><trkpt lat="43.365114" lon="-1.423044"><ele>28.50</ele><time>2011-09-14T12:05:48Z</time></trkpt><trkpt lat="43.365014" lon="-1.422806"><ele>28.50</ele><time>2011-09-14T12:05:49Z</time></trkpt><trkpt lat="43.364930" lon="-1.422559"><ele>28.02</ele><time>2011-09-14T12:05:50Z</time></trkpt><trkpt lat="43.364863" lon="-1.422308"><ele>28.02</ele><time>2011-09-14T12:05:51Z</time></trkpt><trkpt lat="43.364810" lon="-1.422058"><ele>27.53</ele><time>2011-09-14T12:05:52Z</time></trkpt><trkpt lat="43.364777" lon="-1.421816"><ele>27.05</ele><time>2011-09-14T12:05:53Z</time></trkpt><trkpt lat="43.364733" lon="-1.421586"><ele>27.05</ele><time>2011-09-14T12:05:54Z</time></trkpt><trkpt lat="43.364419" lon="-1.420496"><ele>28.50</ele><time>2011-09-14T12:05:59Z</time></trkpt><trkpt lat="43.364320" lon="-1.420294"><ele>29.46</ele><time>2011-09-14T12:06:00Z</time></trkpt><trkpt lat="43.363978" lon="-1.419741"><ele>31.86</ele><time>2011-09-14T12:06:03Z</time></trkpt><trkpt lat="43.363857" lon="-1.419588"><ele>31.86</ele><time>2011-09-14T12:06:04Z</time></trkpt><trkpt lat="43.363729" lon="-1.419451"><ele>33.30</ele><time>2011-09-14T12:06:05Z</time></trkpt><trkpt lat="43.363594" lon="-1.419325"><ele>34.26</ele><time>2011-09-14T12:06:06Z</time></trkpt><trkpt lat="43.363457" lon="-1.419214"><ele>34.74</ele><time>2011-09-14T12:06:07Z</time></trkpt><trkpt lat="43.363312" lon="-1.419110"><ele>35.23</ele><time>2011-09-14T12:06:08Z</time></trkpt><trkpt lat="43.362011" lon="-1.418530"><ele>40.99</ele><time>2011-09-14T12:06:16Z</time></trkpt><trkpt lat="43.360614" lon="-1.418070"><ele>42.92</ele><time>2011-09-14T12:06:23Z</time></trkpt><trkpt lat="43.358823" lon="-1.417485"><ele>50.61</ele><time>2011-09-14T12:06:33Z</time></trkpt><trkpt lat="43.357149" lon="-1.417281"><ele>54.93</ele><time>2011-09-14T12:06:43Z</time></trkpt><trkpt lat="43.355977" lon="-1.417544"><ele>56.86</ele><time>2011-09-14T12:06:51Z</time></trkpt><trkpt lat="43.354659" lon="-1.418209"><ele>56.37</ele><time>2011-09-14T12:07:00Z</time></trkpt><trkpt lat="43.353834" lon="-1.418357"><ele>56.86</ele><time>2011-09-14T12:07:05Z</time></trkpt><trkpt lat="43.353655" lon="-1.418332"><ele>58.78</ele><time>2011-09-14T12:07:06Z</time></trkpt><trkpt lat="43.353476" lon="-1.418268"><ele>59.74</ele><time>2011-09-14T12:07:07Z</time></trkpt><trkpt lat="43.353314" lon="-1.418202"><ele>59.74</ele><time>2011-09-14T12:07:08Z</time></trkpt><trkpt lat="43.353154" lon="-1.418125"><ele>59.74</ele><time>2011-09-14T12:07:09Z</time></trkpt><trkpt lat="43.353007" lon="-1.418034"><ele>58.78</ele><time>2011-09-14T12:07:10Z</time></trkpt><trkpt lat="43.352870" lon="-1.417926"><ele>58.30</ele><time>2011-09-14T12:07:11Z</time></trkpt><trkpt lat="43.352732" lon="-1.417798"><ele>58.78</ele><time>2011-09-14T12:07:12Z</time></trkpt><trkpt lat="43.352591" lon="-1.417657"><ele>59.26</ele><time>2011-09-14T12:07:13Z</time></trkpt><trkpt lat="43.351002" lon="-1.415771"><ele>65.51</ele><time>2011-09-14T12:07:25Z</time></trkpt><trkpt lat="43.350180" lon="-1.414079"><ele>71.76</ele><time>2011-09-14T12:07:34Z</time></trkpt><trkpt lat="43.349478" lon="-1.412063"><ele>78.48</ele><time>2011-09-14T12:07:42Z</time></trkpt><trkpt lat="43.348799" lon="-1.409230"><ele>88.10</ele><time>2011-09-14T12:07:51Z</time></trkpt><trkpt lat="43.348376" lon="-1.406446"><ele>95.79</ele><time>2011-09-14T12:08:01Z</time></trkpt><trkpt lat="43.347977" lon="-1.405540"><ele>98.19</ele><time>2011-09-14T12:08:05Z</time></trkpt><trkpt lat="43.347821" lon="-1.405331"><ele>99.15</ele><time>2011-09-14T12:08:06Z</time></trkpt><trkpt lat="43.346302" lon="-1.403338"><ele>90.02</ele><time>2011-09-14T12:08:16Z</time></trkpt><trkpt lat="43.345103" lon="-1.402316"><ele>86.66</ele><time>2011-09-14T12:08:23Z</time></trkpt><trkpt lat="43.343986" lon="-1.402166"><ele>86.18</ele><time>2011-09-14T12:08:29Z</time></trkpt><trkpt lat="43.342681" lon="-1.402467"><ele>87.62</ele><time>2011-09-14T12:08:37Z</time></trkpt><trkpt lat="43.342350" lon="-1.402467"><ele>88.10</ele><time>2011-09-14T12:08:39Z</time></trkpt><trkpt lat="43.342193" lon="-1.402432"><ele>88.10</ele><time>2011-09-14T12:08:40Z</time></trkpt><trkpt lat="43.342040" lon="-1.402376"><ele>88.10</ele><time>2011-09-14T12:08:41Z</time></trkpt><trkpt lat="43.340898" lon="-1.401847"><ele>86.18</ele><time>2011-09-14T12:08:49Z</time></trkpt><trkpt lat="43.340732" lon="-1.401820"><ele>85.69</ele><time>2011-09-14T12:08:50Z</time></trkpt><trkpt lat="43.340566" lon="-1.401811"><ele>84.73</ele><time>2011-09-14T12:08:51Z</time></trkpt><trkpt lat="43.340398" lon="-1.401818"><ele>83.77</ele><time>2011-09-14T12:08:52Z</time></trkpt><trkpt lat="43.340230" lon="-1.401845"><ele>83.29</ele><time>2011-09-14T12:08:53Z</time></trkpt><trkpt lat="43.340064" lon="-1.401890"><ele>82.33</ele><time>2011-09-14T12:08:54Z</time></trkpt><trkpt lat="43.339902" lon="-1.401953"><ele>81.37</ele><time>2011-09-14T12:08:55Z</time></trkpt><trkpt lat="43.339743" lon="-1.402030"><ele>80.89</ele><time>2011-09-14T12:08:56Z</time></trkpt><trkpt lat="43.338465" lon="-1.402933"><ele>76.56</ele><time>2011-09-14T12:09:05Z</time></trkpt><trkpt lat="43.337222" lon="-1.403528"><ele>78.97</ele><time>2011-09-14T12:09:14Z</time></trkpt><trkpt lat="43.335919" lon="-1.403452"><ele>79.45</ele><time>2011-09-14T12:09:22Z</time></trkpt><trkpt lat="43.334683" lon="-1.402711"><ele>77.04</ele><time>2011-09-14T12:09:30Z</time></trkpt><trkpt lat="43.332915" lon="-1.401099"><ele>68.87</ele><time>2011-09-14T12:09:42Z</time></trkpt><trkpt lat="43.331859" lon="-1.399337"><ele>60.70</ele><time>2011-09-14T12:09:51Z</time></trkpt><trkpt lat="43.330961" lon="-1.396857"><ele>50.13</ele><time>2011-09-14T12:10:01Z</time></trkpt><trkpt lat="43.329923" lon="-1.393453"><ele>40.99</ele><time>2011-09-14T12:10:14Z</time></trkpt><trkpt lat="43.328798" lon="-1.389702"><ele>44.36</ele><time>2011-09-14T12:10:28Z</time></trkpt><trkpt lat="43.327733" lon="-1.386781"><ele>47.24</ele><time>2011-09-14T12:10:40Z</time></trkpt><trkpt lat="43.326566" lon="-1.385032"><ele>56.37</ele><time>2011-09-14T12:10:49Z</time></trkpt><trkpt lat="43.325404" lon="-1.382866"><ele>58.78</ele><time>2011-09-14T12:10:59Z</time></trkpt><trkpt lat="43.324602" lon="-1.380810"><ele>65.03</ele><time>2011-09-14T12:11:08Z</time></trkpt><trkpt lat="43.323997" lon="-1.378609"><ele>76.08</ele><time>2011-09-14T12:11:17Z</time></trkpt><trkpt lat="43.323360" lon="-1.376627"><ele>89.06</ele><time>2011-09-14T12:11:26Z</time></trkpt><trkpt lat="43.323254" lon="-1.376435"><ele>90.50</ele><time>2011-09-14T12:11:27Z</time></trkpt><trkpt lat="43.323136" lon="-1.376259"><ele>91.94</ele><time>2011-09-14T12:11:28Z</time></trkpt><trkpt lat="43.322245" lon="-1.374507"><ele>96.75</ele><time>2011-09-14T12:11:37Z</time></trkpt><trkpt lat="43.321440" lon="-1.372571"><ele>101.08</ele><time>2011-09-14T12:11:46Z</time></trkpt><trkpt lat="43.320601" lon="-1.370675"><ele>112.61</ele><time>2011-09-14T12:11:55Z</time></trkpt><trkpt lat="43.320058" lon="-1.368841"><ele>123.67</ele><time>2011-09-14T12:12:02Z</time></trkpt><trkpt lat="43.319866" lon="-1.367636"><ele>131.84</ele><time>2011-09-14T12:12:06Z</time></trkpt><trkpt lat="43.319863" lon="-1.367331"><ele>133.76</ele><time>2011-09-14T12:12:07Z</time></trkpt><trkpt lat="43.319877" lon="-1.367022"><ele>135.20</ele><time>2011-09-14T12:12:08Z</time></trkpt><trkpt lat="43.319905" lon="-1.366716"><ele>137.13</ele><time>2011-09-14T12:12:09Z</time></trkpt><trkpt lat="43.319930" lon="-1.366428"><ele>138.57</ele><time>2011-09-14T12:12:10Z</time></trkpt><trkpt lat="43.319804" lon="-1.364737"><ele>148.66</ele><time>2011-09-14T12:12:16Z</time></trkpt><trkpt lat="43.319305" lon="-1.362729"><ele>155.39</ele><time>2011-09-14T12:12:24Z</time></trkpt><trkpt lat="43.318233" lon="-1.360232"><ele>141.93</ele><time>2011-09-14T12:12:36Z</time></trkpt><trkpt lat="43.317493" lon="-1.358489"><ele>128.95</ele><time>2011-09-14T12:12:45Z</time></trkpt><trkpt lat="43.316426" lon="-1.356418"><ele>119.34</ele><time>2011-09-14T12:12:56Z</time></trkpt><trkpt lat="43.316025" lon="-1.355387"><ele>120.30</ele><time>2011-09-14T12:13:01Z</time></trkpt><trkpt lat="43.315981" lon="-1.355157"><ele>120.30</ele><time>2011-09-14T12:13:02Z</time></trkpt><trkpt lat="43.315956" lon="-1.354927"><ele>119.82</ele><time>2011-09-14T12:13:03Z</time></trkpt><trkpt lat="43.315944" lon="-1.354702"><ele>119.82</ele><time>2011-09-14T12:13:04Z</time></trkpt><trkpt lat="43.315937" lon="-1.354486"><ele>119.34</ele><time>2011-09-14T12:13:05Z</time></trkpt><trkpt lat="43.315676" lon="-1.352832"><ele>115.01</ele><time>2011-09-14T12:13:13Z</time></trkpt><trkpt lat="43.315553" lon="-1.351607"><ele>109.73</ele><time>2011-09-14T12:13:19Z</time></trkpt><trkpt lat="43.315504" lon="-1.351420"><ele>108.77</ele><time>2011-09-14T12:13:20Z</time></trkpt><trkpt lat="43.315432" lon="-1.351245"><ele>107.81</ele><time>2011-09-14T12:13:21Z</time></trkpt><trkpt lat="43.315342" lon="-1.351081"><ele>106.84</ele><time>2011-09-14T12:13:22Z</time></trkpt><trkpt lat="43.315235" lon="-1.350936"><ele>105.88</ele><time>2011-09-14T12:13:23Z</time></trkpt><trkpt lat="43.315126" lon="-1.350811"><ele>104.92</ele><time>2011-09-14T12:13:24Z</time></trkpt><trkpt lat="43.315020" lon="-1.350703"><ele>104.44</ele><time>2011-09-14T12:13:25Z</time></trkpt><trkpt lat="43.314850" lon="-1.350610"><ele>102.52</ele><time>2011-09-14T12:13:27Z</time></trkpt><trkpt lat="43.314772" lon="-1.350620"><ele>101.56</ele><time>2011-09-14T12:13:28Z</time></trkpt><trkpt lat="43.314694" lon="-1.350611"><ele>101.08</ele><time>2011-09-14T12:13:29Z</time></trkpt><trkpt lat="43.314622" lon="-1.350584"><ele>100.60</ele><time>2011-09-14T12:13:30Z</time></trkpt><trkpt lat="43.314552" lon="-1.350547"><ele>100.11</ele><time>2011-09-14T12:13:31Z</time></trkpt><trkpt lat="43.314481" lon="-1.350517"><ele>100.11</ele><time>2011-09-14T12:13:32Z</time></trkpt><trkpt lat="43.313870" lon="-1.350194"><ele>102.04</ele><time>2011-09-14T12:13:39Z</time></trkpt><trkpt lat="43.313762" lon="-1.350150"><ele>102.52</ele><time>2011-09-14T12:13:40Z</time></trkpt><trkpt lat="43.313647" lon="-1.350125"><ele>102.52</ele><time>2011-09-14T12:13:41Z</time></trkpt><trkpt lat="43.313529" lon="-1.350125"><ele>102.04</ele><time>2011-09-14T12:13:42Z</time></trkpt><trkpt lat="43.313416" lon="-1.350159"><ele>101.56</ele><time>2011-09-14T12:13:43Z</time></trkpt><trkpt lat="43.313308" lon="-1.350226"><ele>101.08</ele><time>2011-09-14T12:13:44Z</time></trkpt><trkpt lat="43.313197" lon="-1.350320"><ele>101.08</ele><time>2011-09-14T12:13:45Z</time></trkpt><trkpt lat="43.313086" lon="-1.350430"><ele>100.60</ele><time>2011-09-14T12:13:46Z</time></trkpt><trkpt lat="43.312868" lon="-1.350627"><ele>99.63</ele><time>2011-09-14T12:13:48Z</time></trkpt><trkpt lat="43.312752" lon="-1.350702"><ele>99.15</ele><time>2011-09-14T12:13:49Z</time></trkpt><trkpt lat="43.312632" lon="-1.350757"><ele>99.15</ele><time>2011-09-14T12:13:50Z</time></trkpt><trkpt lat="43.312508" lon="-1.350783"><ele>98.67</ele><time>2011-09-14T12:13:51Z</time></trkpt><trkpt lat="43.312380" lon="-1.350798"><ele>98.19</ele><time>2011-09-14T12:13:52Z</time></trkpt><trkpt lat="43.312244" lon="-1.350803"><ele>98.19</ele><time>2011-09-14T12:13:53Z</time></trkpt><trkpt lat="43.311544" lon="-1.350831"><ele>96.27</ele><time>2011-09-14T12:13:58Z</time></trkpt><trkpt lat="43.311414" lon="-1.350892"><ele>95.31</ele><time>2011-09-14T12:13:59Z</time></trkpt><trkpt lat="43.311291" lon="-1.350988"><ele>94.83</ele><time>2011-09-14T12:14:00Z</time></trkpt><trkpt lat="43.311178" lon="-1.351122"><ele>94.35</ele><time>2011-09-14T12:14:01Z</time></trkpt><trkpt lat="43.311075" lon="-1.351283"><ele>93.87</ele><time>2011-09-14T12:14:02Z</time></trkpt><trkpt lat="43.310985" lon="-1.351456"><ele>93.39</ele><time>2011-09-14T12:14:03Z</time></trkpt><trkpt lat="43.310902" lon="-1.351634"><ele>92.90</ele><time>2011-09-14T12:14:04Z</time></trkpt><trkpt lat="43.310549" lon="-1.352340"><ele>92.90</ele><time>2011-09-14T12:14:08Z</time></trkpt><trkpt lat="43.310436" lon="-1.352489"><ele>93.39</ele><time>2011-09-14T12:14:09Z</time></trkpt><trkpt lat="43.310318" lon="-1.352625"><ele>93.39</ele><time>2011-09-14T12:14:10Z</time></trkpt><trkpt lat="43.310072" lon="-1.352911"><ele>92.90</ele><time>2011-09-14T12:14:12Z</time></trkpt><trkpt lat="43.309964" lon="-1.353080"><ele>92.90</ele><time>2011-09-14T12:14:13Z</time></trkpt><trkpt lat="43.309053" lon="-1.355074"><ele>89.54</ele><time>2011-09-14T12:14:23Z</time></trkpt><trkpt lat="43.308343" lon="-1.357580"><ele>90.98</ele><time>2011-09-14T12:14:34Z</time></trkpt><trkpt lat="43.307691" lon="-1.359514"><ele>90.02</ele><time>2011-09-14T12:14:43Z</time></trkpt><trkpt lat="43.307571" lon="-1.359683"><ele>90.02</ele><time>2011-09-14T12:14:44Z</time></trkpt><trkpt lat="43.307441" lon="-1.359836"><ele>89.54</ele><time>2011-09-14T12:14:45Z</time></trkpt><trkpt lat="43.307310" lon="-1.359972"><ele>89.54</ele><time>2011-09-14T12:14:46Z</time></trkpt><trkpt lat="43.307178" lon="-1.360095"><ele>89.54</ele><time>2011-09-14T12:14:47Z</time></trkpt><trkpt lat="43.306629" lon="-1.360487"><ele>89.06</ele><time>2011-09-14T12:14:51Z</time></trkpt><trkpt lat="43.306475" lon="-1.360535"><ele>90.02</ele><time>2011-09-14T12:14:52Z</time></trkpt><trkpt lat="43.306322" lon="-1.360553"><ele>90.50</ele><time>2011-09-14T12:14:53Z</time></trkpt><trkpt lat="43.306171" lon="-1.360520"><ele>90.50</ele><time>2011-09-14T12:14:54Z</time></trkpt><trkpt lat="43.306020" lon="-1.360421"><ele>90.50</ele><time>2011-09-14T12:14:55Z</time></trkpt><trkpt lat="43.305873" lon="-1.360298"><ele>90.50</ele><time>2011-09-14T12:14:56Z</time></trkpt><trkpt lat="43.305736" lon="-1.360159"><ele>90.50</ele><time>2011-09-14T12:14:57Z</time></trkpt><trkpt lat="43.305601" lon="-1.360007"><ele>90.50</ele><time>2011-09-14T12:14:58Z</time></trkpt><trkpt lat="43.305470" lon="-1.359841"><ele>90.98</ele><time>2011-09-14T12:14:59Z</time></trkpt><trkpt lat="43.305344" lon="-1.359664"><ele>90.98</ele><time>2011-09-14T12:15:00Z</time></trkpt><trkpt lat="43.305226" lon="-1.359482"><ele>90.98</ele><time>2011-09-14T12:15:01Z</time></trkpt><trkpt lat="43.304634" lon="-1.358006"><ele>88.58</ele><time>2011-09-14T12:15:08Z</time></trkpt><trkpt lat="43.304382" lon="-1.356629"><ele>88.10</ele><time>2011-09-14T12:15:14Z</time></trkpt><trkpt lat="43.304393" lon="-1.356390"><ele>87.62</ele><time>2011-09-14T12:15:15Z</time></trkpt><trkpt lat="43.304421" lon="-1.356151"><ele>87.14</ele><time>2011-09-14T12:15:16Z</time></trkpt><trkpt lat="43.304466" lon="-1.355920"><ele>86.66</ele><time>2011-09-14T12:15:17Z</time></trkpt><trkpt lat="43.304528" lon="-1.355697"><ele>86.66</ele><time>2011-09-14T12:15:18Z</time></trkpt><trkpt lat="43.304596" lon="-1.355476"><ele>86.18</ele><time>2011-09-14T12:15:19Z</time></trkpt><trkpt lat="43.304953" lon="-1.354151"><ele>85.69</ele><time>2011-09-14T12:15:25Z</time></trkpt><trkpt lat="43.304974" lon="-1.353921"><ele>85.21</ele><time>2011-09-14T12:15:26Z</time></trkpt><trkpt lat="43.304968" lon="-1.353694"><ele>85.21</ele><time>2011-09-14T12:15:27Z</time></trkpt><trkpt lat="43.304937" lon="-1.353467"><ele>84.73</ele><time>2011-09-14T12:15:28Z</time></trkpt><trkpt lat="43.304886" lon="-1.353239"><ele>84.25</ele><time>2011-09-14T12:15:29Z</time></trkpt><trkpt lat="43.304815" lon="-1.353012"><ele>83.77</ele><time>2011-09-14T12:15:30Z</time></trkpt><trkpt lat="43.304727" lon="-1.352789"><ele>83.29</ele><time>2011-09-14T12:15:31Z</time></trkpt><trkpt lat="43.304636" lon="-1.352571"><ele>83.29</ele><time>2011-09-14T12:15:32Z</time></trkpt><trkpt lat="43.304056" lon="-1.351348"><ele>81.37</ele><time>2011-09-14T12:15:38Z</time></trkpt><trkpt lat="43.303919" lon="-1.351179"><ele>81.37</ele><time>2011-09-14T12:15:39Z</time></trkpt><trkpt lat="43.303768" lon="-1.351030"><ele>80.89</ele><time>2011-09-14T12:15:40Z</time></trkpt><trkpt lat="43.303610" lon="-1.350896"><ele>80.89</ele><time>2011-09-14T12:15:41Z</time></trkpt><trkpt lat="43.303438" lon="-1.350771"><ele>80.89</ele><time>2011-09-14T12:15:42Z</time></trkpt><trkpt lat="43.303253" lon="-1.350655"><ele>80.41</ele><time>2011-09-14T12:15:43Z</time></trkpt><trkpt lat="43.303061" lon="-1.350552"><ele>80.41</ele><time>2011-09-14T12:15:44Z</time></trkpt><trkpt lat="43.302864" lon="-1.350459"><ele>80.41</ele><time>2011-09-14T12:15:45Z</time></trkpt><trkpt lat="43.301329" lon="-1.349877"><ele>78.97</ele><time>2011-09-14T12:15:52Z</time></trkpt><trkpt lat="43.299847" lon="-1.349958"><ele>78.97</ele><time>2011-09-14T12:15:59Z</time></trkpt><trkpt lat="43.298042" lon="-1.350133"><ele>76.08</ele><time>2011-09-14T12:16:07Z</time></trkpt><trkpt lat="43.296150" lon="-1.350224"><ele>74.64</ele><time>2011-09-14T12:16:15Z</time></trkpt><trkpt lat="43.294788" lon="-1.350977"><ele>81.85</ele><time>2011-09-14T12:16:21Z</time></trkpt><trkpt lat="43.292792" lon="-1.352824"><ele>84.73</ele><time>2011-09-14T12:16:31Z</time></trkpt><trkpt lat="43.292002" lon="-1.353274"><ele>84.73</ele><time>2011-09-14T12:16:35Z</time></trkpt><trkpt lat="43.291783" lon="-1.353319"><ele>84.73</ele><time>2011-09-14T12:16:36Z</time></trkpt><trkpt lat="43.291559" lon="-1.353322"><ele>84.73</ele><time>2011-09-14T12:16:37Z</time></trkpt><trkpt lat="43.291332" lon="-1.353289"><ele>84.25</ele><time>2011-09-14T12:16:38Z</time></trkpt><trkpt lat="43.291107" lon="-1.353236"><ele>84.25</ele><time>2011-09-14T12:16:39Z</time></trkpt><trkpt lat="43.290881" lon="-1.353167"><ele>84.25</ele><time>2011-09-14T12:16:40Z</time></trkpt><trkpt lat="43.290651" lon="-1.353073"><ele>84.25</ele><time>2011-09-14T12:16:41Z</time></trkpt><trkpt lat="43.290423" lon="-1.352953"><ele>83.77</ele><time>2011-09-14T12:16:42Z</time></trkpt><trkpt lat="43.290196" lon="-1.352827"><ele>83.77</ele><time>2011-09-14T12:16:43Z</time></trkpt><trkpt lat="43.288043" lon="-1.351767"><ele>83.77</ele><time>2011-09-14T12:16:53Z</time></trkpt><trkpt lat="43.286416" lon="-1.351700"><ele>85.69</ele><time>2011-09-14T12:17:01Z</time></trkpt><trkpt lat="43.285822" lon="-1.351972"><ele>86.18</ele><time>2011-09-14T12:17:04Z</time></trkpt><trkpt lat="43.285632" lon="-1.352105"><ele>86.18</ele><time>2011-09-14T12:17:05Z</time></trkpt><trkpt lat="43.285446" lon="-1.352257"><ele>86.18</ele><time>2011-09-14T12:17:06Z</time></trkpt><trkpt lat="43.283659" lon="-1.353675"><ele>85.21</ele><time>2011-09-14T12:17:16Z</time></trkpt><trkpt lat="43.282306" lon="-1.354036"><ele>84.73</ele><time>2011-09-14T12:17:23Z</time></trkpt><trkpt lat="43.280964" lon="-1.353555"><ele>85.21</ele><time>2011-09-14T12:17:30Z</time></trkpt><trkpt lat="43.279410" lon="-1.352366"><ele>87.62</ele><time>2011-09-14T12:17:39Z</time></trkpt><trkpt lat="43.278817" lon="-1.351620"><ele>88.58</ele><time>2011-09-14T12:17:43Z</time></trkpt><trkpt lat="43.278645" lon="-1.351461"><ele>87.14</ele><time>2011-09-14T12:17:44Z</time></trkpt><trkpt lat="43.278469" lon="-1.351328"><ele>82.81</ele><time>2011-09-14T12:17:45Z</time></trkpt><trkpt lat="43.276876" lon="-1.350425"><ele>82.33</ele><time>2011-09-14T12:17:52Z</time></trkpt><trkpt lat="43.274534" lon="-1.349148"><ele>84.25</ele><time>2011-09-14T12:18:01Z</time></trkpt><trkpt lat="43.272804" lon="-1.348185"><ele>83.77</ele><time>2011-09-14T12:18:08Z</time></trkpt><trkpt lat="43.270822" lon="-1.346838"><ele>84.73</ele><time>2011-09-14T12:18:17Z</time></trkpt><trkpt lat="43.269434" lon="-1.345822"><ele>87.62</ele><time>2011-09-14T12:18:24Z</time></trkpt><trkpt lat="43.267782" lon="-1.343603"><ele>90.98</ele><time>2011-09-14T12:18:35Z</time></trkpt><trkpt lat="43.267079" lon="-1.341410"><ele>90.02</ele><time>2011-09-14T12:18:43Z</time></trkpt><trkpt lat="43.266403" lon="-1.339304"><ele>87.14</ele><time>2011-09-14T12:18:51Z</time></trkpt><trkpt lat="43.265998" lon="-1.337615"><ele>87.14</ele><time>2011-09-14T12:18:57Z</time></trkpt><trkpt lat="43.265984" lon="-1.337316"><ele>87.14</ele><time>2011-09-14T12:18:58Z</time></trkpt><trkpt lat="43.265984" lon="-1.337014"><ele>87.14</ele><time>2011-09-14T12:18:59Z</time></trkpt><trkpt lat="43.266002" lon="-1.336712"><ele>87.14</ele><time>2011-09-14T12:19:00Z</time></trkpt><trkpt lat="43.266039" lon="-1.336413"><ele>86.66</ele><time>2011-09-14T12:19:01Z</time></trkpt><trkpt lat="43.266101" lon="-1.336120"><ele>86.66</ele><time>2011-09-14T12:19:02Z</time></trkpt><trkpt lat="43.266172" lon="-1.335832"><ele>87.14</ele><time>2011-09-14T12:19:03Z</time></trkpt><trkpt lat="43.266253" lon="-1.335545"><ele>86.66</ele><time>2011-09-14T12:19:04Z</time></trkpt><trkpt lat="43.266667" lon="-1.333194"><ele>88.10</ele><time>2011-09-14T12:19:12Z</time></trkpt><trkpt lat="43.266672" lon="-1.331069"><ele>89.06</ele><time>2011-09-14T12:19:19Z</time></trkpt><trkpt lat="43.266620" lon="-1.330769"><ele>89.06</ele><time>2011-09-14T12:19:20Z</time></trkpt><trkpt lat="43.266542" lon="-1.330479"><ele>89.54</ele><time>2011-09-14T12:19:21Z</time></trkpt><trkpt lat="43.266448" lon="-1.330196"><ele>89.54</ele><time>2011-09-14T12:19:22Z</time></trkpt><trkpt lat="43.266346" lon="-1.329916"><ele>89.54</ele><time>2011-09-14T12:19:23Z</time></trkpt><trkpt lat="43.265377" lon="-1.327895"><ele>90.50</ele><time>2011-09-14T12:19:31Z</time></trkpt><trkpt lat="43.263379" lon="-1.325288"><ele>94.35</ele><time>2011-09-14T12:19:43Z</time></trkpt><trkpt lat="43.261956" lon="-1.322881"><ele>94.35</ele><time>2011-09-14T12:19:53Z</time></trkpt><trkpt lat="43.261124" lon="-1.321999"><ele>94.35</ele><time>2011-09-14T12:19:58Z</time></trkpt><trkpt lat="43.260987" lon="-1.321793"><ele>93.87</ele><time>2011-09-14T12:19:59Z</time></trkpt><trkpt lat="43.260863" lon="-1.321561"><ele>93.87</ele><time>2011-09-14T12:20:00Z</time></trkpt><trkpt lat="43.260214" lon="-1.320391"><ele>93.39</ele><time>2011-09-14T12:20:05Z</time></trkpt><trkpt lat="43.260052" lon="-1.320203"><ele>93.39</ele><time>2011-09-14T12:20:06Z</time></trkpt><trkpt lat="43.259877" lon="-1.320048"><ele>93.39</ele><time>2011-09-14T12:20:07Z</time></trkpt><trkpt lat="43.259688" lon="-1.319919"><ele>93.87</ele><time>2011-09-14T12:20:08Z</time></trkpt><trkpt lat="43.259491" lon="-1.319803"><ele>93.87</ele><time>2011-09-14T12:20:09Z</time></trkpt><trkpt lat="43.257770" lon="-1.319098"><ele>95.31</ele><time>2011-09-14T12:20:17Z</time></trkpt><trkpt lat="43.256547" lon="-1.319143"><ele>98.67</ele><time>2011-09-14T12:20:23Z</time></trkpt><trkpt lat="43.256362" lon="-1.319217"><ele>98.67</ele><time>2011-09-14T12:20:24Z</time></trkpt><trkpt lat="43.256187" lon="-1.319337"><ele>99.15</ele><time>2011-09-14T12:20:25Z</time></trkpt><trkpt lat="43.256028" lon="-1.319495"><ele>99.15</ele><time>2011-09-14T12:20:26Z</time></trkpt><trkpt lat="43.255875" lon="-1.319681"><ele>101.08</ele><time>2011-09-14T12:20:27Z</time></trkpt><trkpt lat="43.255742" lon="-1.319892"><ele>102.04</ele><time>2011-09-14T12:20:28Z</time></trkpt><trkpt lat="43.255625" lon="-1.320123"><ele>103.48</ele><time>2011-09-14T12:20:29Z</time></trkpt><trkpt lat="43.255538" lon="-1.320367"><ele>104.44</ele><time>2011-09-14T12:20:30Z</time></trkpt><trkpt lat="43.255476" lon="-1.320611"><ele>103.48</ele><time>2011-09-14T12:20:31Z</time></trkpt><trkpt lat="43.255423" lon="-1.320835"><ele>104.92</ele><time>2011-09-14T12:20:32Z</time></trkpt><trkpt lat="43.255298" lon="-1.321220"><ele>104.92</ele><time>2011-09-14T12:20:34Z</time></trkpt><trkpt lat="43.255203" lon="-1.321366"><ele>104.92</ele><time>2011-09-14T12:20:35Z</time></trkpt></trkseg></trk><trk><name>ACTIVE LOG: 14 SEP 2011 14:20</name><trkseg><trkpt lat="43.255079" lon="-1.321484"><ele>104.44</ele><time>2011-09-14T12:20:36Z</time></trkpt><trkpt lat="43.254926" lon="-1.321572"><ele>103.96</ele><time>2011-09-14T12:20:37Z</time></trkpt><trkpt lat="43.254768" lon="-1.321622"><ele>104.44</ele><time>2011-09-14T12:20:38Z</time></trkpt><trkpt lat="43.254602" lon="-1.321636"><ele>105.40</ele><time>2011-09-14T12:20:39Z</time></trkpt><trkpt lat="43.254432" lon="-1.321589"><ele>105.88</ele><time>2011-09-14T12:20:40Z</time></trkpt><trkpt lat="43.254268" lon="-1.321489"><ele>105.40</ele><time>2011-09-14T12:20:41Z</time></trkpt><trkpt lat="43.254106" lon="-1.321347"><ele>105.88</ele><time>2011-09-14T12:20:42Z</time></trkpt><trkpt lat="43.253955" lon="-1.321194"><ele>104.92</ele><time>2011-09-14T12:20:43Z</time></trkpt><trkpt lat="43.253819" lon="-1.321043"><ele>104.44</ele><time>2011-09-14T12:20:44Z</time></trkpt><trkpt lat="43.253699" lon="-1.320878"><ele>103.96</ele><time>2011-09-14T12:20:45Z</time></trkpt><trkpt lat="43.253594" lon="-1.320703"><ele>104.44</ele><time>2011-09-14T12:20:46Z</time></trkpt><trkpt lat="43.253500" lon="-1.320527"><ele>104.44</ele><time>2011-09-14T12:20:47Z</time></trkpt><trkpt lat="43.252758" lon="-1.319429"><ele>104.92</ele><time>2011-09-14T12:20:53Z</time></trkpt><trkpt lat="43.252594" lon="-1.319282"><ele>104.92</ele><time>2011-09-14T12:20:54Z</time></trkpt><trkpt lat="43.251127" lon="-1.318394"><ele>105.88</ele><time>2011-09-14T12:21:02Z</time></trkpt><trkpt lat="43.250335" lon="-1.318311"><ele>106.36</ele><time>2011-09-14T12:21:06Z</time></trkpt><trkpt lat="43.250143" lon="-1.318345"><ele>106.84</ele><time>2011-09-14T12:21:07Z</time></trkpt><trkpt lat="43.249147" lon="-1.318498"><ele>108.77</ele><time>2011-09-14T12:21:12Z</time></trkpt><trkpt lat="43.248941" lon="-1.318462"><ele>108.77</ele><time>2011-09-14T12:21:13Z</time></trkpt><trkpt lat="43.248739" lon="-1.318401"><ele>108.77</ele><time>2011-09-14T12:21:14Z</time></trkpt><trkpt lat="43.248542" lon="-1.318311"><ele>109.25</ele><time>2011-09-14T12:21:15Z</time></trkpt><trkpt lat="43.248346" lon="-1.318194"><ele>108.77</ele><time>2011-09-14T12:21:16Z</time></trkpt><trkpt lat="43.248147" lon="-1.318068"><ele>108.77</ele><time>2011-09-14T12:21:17Z</time></trkpt><trkpt lat="43.247369" lon="-1.317503"><ele>109.25</ele><time>2011-09-14T12:21:21Z</time></trkpt><trkpt lat="43.247195" lon="-1.317312"><ele>109.25</ele><time>2011-09-14T12:21:22Z</time></trkpt><trkpt lat="43.247038" lon="-1.317096"><ele>109.25</ele><time>2011-09-14T12:21:23Z</time></trkpt><trkpt lat="43.246899" lon="-1.316856"><ele>109.25</ele><time>2011-09-14T12:21:24Z</time></trkpt><trkpt lat="43.246774" lon="-1.316602"><ele>109.25</ele><time>2011-09-14T12:21:25Z</time></trkpt><trkpt lat="43.246647" lon="-1.316348"><ele>109.25</ele><time>2011-09-14T12:21:26Z</time></trkpt><trkpt lat="43.246046" lon="-1.315102"><ele>108.77</ele><time>2011-09-14T12:21:31Z</time></trkpt><trkpt lat="43.245965" lon="-1.314818"><ele>108.77</ele><time>2011-09-14T12:21:32Z</time></trkpt><trkpt lat="43.245311" lon="-1.312707"><ele>112.61</ele><time>2011-09-14T12:21:39Z</time></trkpt><trkpt lat="43.244419" lon="-1.310378"><ele>114.05</ele><time>2011-09-14T12:21:47Z</time></trkpt><trkpt lat="43.243967" lon="-1.308345"><ele>116.46</ele><time>2011-09-14T12:21:54Z</time></trkpt><trkpt lat="43.243950" lon="-1.308089"><ele>116.46</ele><time>2011-09-14T12:21:55Z</time></trkpt><trkpt lat="43.243952" lon="-1.307832"><ele>116.94</ele><time>2011-09-14T12:21:56Z</time></trkpt><trkpt lat="43.244142" lon="-1.304287"><ele>122.22</ele><time>2011-09-14T12:22:10Z</time></trkpt><trkpt lat="43.244016" lon="-1.302628"><ele>124.63</ele><time>2011-09-14T12:22:17Z</time></trkpt><trkpt lat="43.243341" lon="-1.300706"><ele>123.19</ele><time>2011-09-14T12:22:26Z</time></trkpt><trkpt lat="43.242527" lon="-1.299293"><ele>119.34</ele><time>2011-09-14T12:22:33Z</time></trkpt><trkpt lat="43.241958" lon="-1.298702"><ele>116.94</ele><time>2011-09-14T12:22:39Z</time></trkpt><trkpt lat="43.241435" lon="-1.298154"><ele>115.50</ele><time>2011-09-14T12:22:49Z</time></trkpt><trkpt lat="43.240491" lon="-1.297138"><ele>113.57</ele><time>2011-09-14T12:22:58Z</time></trkpt><trkpt lat="43.239636" lon="-1.296596"><ele>115.50</ele><time>2011-09-14T12:23:07Z</time></trkpt><trkpt lat="43.238687" lon="-1.296076"><ele>111.17</ele><time>2011-09-14T12:23:16Z</time></trkpt><trkpt lat="43.238562" lon="-1.296047"><ele>110.21</ele><time>2011-09-14T12:23:17Z</time></trkpt><trkpt lat="43.238435" lon="-1.296032"><ele>110.69</ele><time>2011-09-14T12:23:18Z</time></trkpt><trkpt lat="43.237232" lon="-1.296282"><ele>107.81</ele><time>2011-09-14T12:23:28Z</time></trkpt><trkpt lat="43.235560" lon="-1.296547"><ele>105.40</ele><time>2011-09-14T12:23:41Z</time></trkpt><trkpt lat="43.235109" lon="-1.296672"><ele>105.88</ele><time>2011-09-14T12:23:44Z</time></trkpt><trkpt lat="43.234968" lon="-1.296751"><ele>105.88</ele><time>2011-09-14T12:23:45Z</time></trkpt><trkpt lat="43.234832" lon="-1.296845"><ele>106.36</ele><time>2011-09-14T12:23:46Z</time></trkpt><trkpt lat="43.233287" lon="-1.298249"><ele>109.25</ele><time>2011-09-14T12:23:58Z</time></trkpt><trkpt lat="43.232197" lon="-1.299162"><ele>112.13</ele><time>2011-09-14T12:24:08Z</time></trkpt><trkpt lat="43.232144" lon="-1.299169"><ele>112.61</ele><time>2011-09-14T12:24:09Z</time></trkpt><trkpt lat="43.232105" lon="-1.299162"><ele>112.61</ele><time>2011-09-14T12:24:10Z</time></trkpt><trkpt lat="43.232073" lon="-1.299160"><ele>112.61</ele><time>2011-09-14T12:24:11Z</time></trkpt><trkpt lat="43.232043" lon="-1.299169"><ele>112.61</ele><time>2011-09-14T12:24:12Z</time></trkpt><trkpt lat="43.232014" lon="-1.299181"><ele>112.61</ele><time>2011-09-14T12:24:13Z</time></trkpt><trkpt lat="43.231984" lon="-1.299182"><ele>112.61</ele><time>2011-09-14T12:24:14Z</time></trkpt><trkpt lat="43.231957" lon="-1.299165"><ele>112.61</ele><time>2011-09-14T12:24:15Z</time></trkpt><trkpt lat="43.232010" lon="-1.299041"><ele>113.57</ele><time>2011-09-14T12:24:21Z</time></trkpt><trkpt lat="43.232053" lon="-1.299031"><ele>112.13</ele><time>2011-09-14T12:24:36Z</time></trkpt></trkseg></trk><trk><name>ACTIVE LOG: 14 SEP 2011 14:26</name><trkseg><trkpt lat="43.232058" lon="-1.299017"><ele>111.17</ele><time>2011-09-14T12:26:50Z</time></trkpt><trkpt lat="43.232136" lon="-1.299047"><ele>112.13</ele><time>2011-09-14T12:29:08Z</time></trkpt><trkpt lat="43.232205" lon="-1.299130"><ele>112.61</ele><time>2011-09-14T12:29:16Z</time></trkpt><trkpt lat="43.232201" lon="-1.299209"><ele>113.09</ele><time>2011-09-14T12:29:18Z</time></trkpt><trkpt lat="43.232168" lon="-1.299270"><ele>112.61</ele><time>2011-09-14T12:29:19Z</time></trkpt><trkpt lat="43.232112" lon="-1.299337"><ele>112.61</ele><time>2011-09-14T12:29:20Z</time></trkpt><trkpt lat="43.232045" lon="-1.299401"><ele>112.61</ele><time>2011-09-14T12:29:21Z</time></trkpt><trkpt lat="43.231978" lon="-1.299461"><ele>112.61</ele><time>2011-09-14T12:29:22Z</time></trkpt><trkpt lat="43.231349" lon="-1.300027"><ele>115.50</ele><time>2011-09-14T12:29:29Z</time></trkpt><trkpt lat="43.230394" lon="-1.300864"><ele>115.50</ele><time>2011-09-14T12:29:38Z</time></trkpt><trkpt lat="43.230272" lon="-1.300912"><ele>115.50</ele><time>2011-09-14T12:29:39Z</time></trkpt><trkpt lat="43.230140" lon="-1.300946"><ele>115.50</ele><time>2011-09-14T12:29:40Z</time></trkpt><trkpt lat="43.229989" lon="-1.300964"><ele>115.50</ele><time>2011-09-14T12:29:41Z</time></trkpt><trkpt lat="43.229823" lon="-1.300968"><ele>115.50</ele><time>2011-09-14T12:29:42Z</time></trkpt><trkpt lat="43.229645" lon="-1.300958"><ele>115.50</ele><time>2011-09-14T12:29:43Z</time></trkpt><trkpt lat="43.228211" lon="-1.301054"><ele>115.01</ele><time>2011-09-14T12:29:51Z</time></trkpt><trkpt lat="43.227878" lon="-1.301205"><ele>115.98</ele><time>2011-09-14T12:29:53Z</time></trkpt><trkpt lat="43.227719" lon="-1.301318"><ele>115.98</ele><time>2011-09-14T12:29:54Z</time></trkpt><trkpt lat="43.227570" lon="-1.301453"><ele>115.98</ele><time>2011-09-14T12:29:55Z</time></trkpt><trkpt lat="43.227432" lon="-1.301608"><ele>115.98</ele><time>2011-09-14T12:29:56Z</time></trkpt><trkpt lat="43.227302" lon="-1.301771"><ele>116.46</ele><time>2011-09-14T12:29:57Z</time></trkpt><trkpt lat="43.226563" lon="-1.302440"><ele>120.78</ele><time>2011-09-14T12:30:02Z</time></trkpt><trkpt lat="43.226389" lon="-1.302476"><ele>119.82</ele><time>2011-09-14T12:30:03Z</time></trkpt><trkpt lat="43.226216" lon="-1.302476"><ele>118.86</ele><time>2011-09-14T12:30:04Z</time></trkpt><trkpt lat="43.226042" lon="-1.302395"><ele>118.86</ele><time>2011-09-14T12:30:05Z</time></trkpt><trkpt lat="43.225872" lon="-1.302283"><ele>119.34</ele><time>2011-09-14T12:30:06Z</time></trkpt><trkpt lat="43.225716" lon="-1.302120"><ele>119.82</ele><time>2011-09-14T12:30:07Z</time></trkpt><trkpt lat="43.225579" lon="-1.301946"><ele>121.26</ele><time>2011-09-14T12:30:08Z</time></trkpt><trkpt lat="43.225456" lon="-1.301768"><ele>123.19</ele><time>2011-09-14T12:30:09Z</time></trkpt><trkpt lat="43.225343" lon="-1.301574"><ele>125.11</ele><time>2011-09-14T12:30:10Z</time></trkpt><trkpt lat="43.225238" lon="-1.301377"><ele>126.55</ele><time>2011-09-14T12:30:11Z</time></trkpt><trkpt lat="43.225144" lon="-1.301181"><ele>127.03</ele><time>2011-09-14T12:30:12Z</time></trkpt><trkpt lat="43.224091" lon="-1.298948"><ele>124.63</ele><time>2011-09-14T12:30:23Z</time></trkpt><trkpt lat="43.223028" lon="-1.298109"><ele>123.67</ele><time>2011-09-14T12:30:29Z</time></trkpt><trkpt lat="43.221346" lon="-1.297491"><ele>124.63</ele><time>2011-09-14T12:30:36Z</time></trkpt><trkpt lat="43.220015" lon="-1.297035"><ele>124.63</ele><time>2011-09-14T12:30:42Z</time></trkpt><trkpt lat="43.219817" lon="-1.296892"><ele>124.63</ele><time>2011-09-14T12:30:43Z</time></trkpt><trkpt lat="43.218224" lon="-1.295804"><ele>123.67</ele><time>2011-09-14T12:30:51Z</time></trkpt><trkpt lat="43.215790" lon="-1.294978"><ele>123.19</ele><time>2011-09-14T12:31:02Z</time></trkpt><trkpt lat="43.214944" lon="-1.294563"><ele>122.71</ele><time>2011-09-14T12:31:06Z</time></trkpt><trkpt lat="43.214756" lon="-1.294405"><ele>122.71</ele><time>2011-09-14T12:31:07Z</time></trkpt><trkpt lat="43.214576" lon="-1.294222"><ele>122.71</ele><time>2011-09-14T12:31:08Z</time></trkpt><trkpt lat="43.214408" lon="-1.294019"><ele>122.71</ele><time>2011-09-14T12:31:09Z</time></trkpt><trkpt lat="43.214250" lon="-1.293798"><ele>122.71</ele><time>2011-09-14T12:31:10Z</time></trkpt><trkpt lat="43.214103" lon="-1.293563"><ele>123.19</ele><time>2011-09-14T12:31:11Z</time></trkpt><trkpt lat="43.213366" lon="-1.292240"><ele>124.63</ele><time>2011-09-14T12:31:17Z</time></trkpt><trkpt lat="43.213313" lon="-1.292019"><ele>124.15</ele><time>2011-09-14T12:31:18Z</time></trkpt><trkpt lat="43.213277" lon="-1.291780"><ele>123.67</ele><time>2011-09-14T12:31:19Z</time></trkpt><trkpt lat="43.213254" lon="-1.291525"><ele>123.67</ele><time>2011-09-14T12:31:20Z</time></trkpt><trkpt lat="43.213238" lon="-1.291258"><ele>123.67</ele><time>2011-09-14T12:31:21Z</time></trkpt><trkpt lat="43.213307" lon="-1.288890"><ele>121.74</ele><time>2011-09-14T12:31:29Z</time></trkpt><trkpt lat="43.213072" lon="-1.286914"><ele>121.74</ele><time>2011-09-14T12:31:36Z</time></trkpt><trkpt lat="43.212879" lon="-1.286472"><ele>121.74</ele><time>2011-09-14T12:31:38Z</time></trkpt><trkpt lat="43.212747" lon="-1.286295"><ele>120.78</ele><time>2011-09-14T12:31:39Z</time></trkpt><trkpt lat="43.212586" lon="-1.286143"><ele>120.78</ele><time>2011-09-14T12:31:40Z</time></trkpt><trkpt lat="43.211772" lon="-1.284907"><ele>120.30</ele><time>2011-09-14T12:31:46Z</time></trkpt><trkpt lat="43.211677" lon="-1.284647"><ele>120.30</ele><time>2011-09-14T12:31:47Z</time></trkpt><trkpt lat="43.211619" lon="-1.284377"><ele>119.82</ele><time>2011-09-14T12:31:48Z</time></trkpt><trkpt lat="43.211572" lon="-1.284094"><ele>120.30</ele><time>2011-09-14T12:31:49Z</time></trkpt><trkpt lat="43.211546" lon="-1.283803"><ele>120.30</ele><time>2011-09-14T12:31:50Z</time></trkpt><trkpt lat="43.211544" lon="-1.283505"><ele>120.30</ele><time>2011-09-14T12:31:51Z</time></trkpt><trkpt lat="43.211548" lon="-1.283206"><ele>120.30</ele><time>2011-09-14T12:31:52Z</time></trkpt><trkpt lat="43.211561" lon="-1.282909"><ele>120.78</ele><time>2011-09-14T12:31:53Z</time></trkpt><trkpt lat="43.211565" lon="-1.281824"><ele>120.78</ele><time>2011-09-14T12:31:57Z</time></trkpt><trkpt lat="43.211524" lon="-1.281564"><ele>120.78</ele><time>2011-09-14T12:31:58Z</time></trkpt><trkpt lat="43.211460" lon="-1.281309"><ele>121.26</ele><time>2011-09-14T12:31:59Z</time></trkpt><trkpt lat="43.211373" lon="-1.281070"><ele>120.78</ele><time>2011-09-14T12:32:00Z</time></trkpt><trkpt lat="43.211257" lon="-1.280852"><ele>120.78</ele><time>2011-09-14T12:32:01Z</time></trkpt><trkpt lat="43.211115" lon="-1.280655"><ele>120.78</ele><time>2011-09-14T12:32:02Z</time></trkpt><trkpt lat="43.210955" lon="-1.280472"><ele>120.30</ele><time>2011-09-14T12:32:03Z</time></trkpt><trkpt lat="43.210784" lon="-1.280292"><ele>120.30</ele><time>2011-09-14T12:32:04Z</time></trkpt><trkpt lat="43.208974" lon="-1.278033"><ele>121.26</ele><time>2011-09-14T12:32:15Z</time></trkpt><trkpt lat="43.208227" lon="-1.276616"><ele>121.26</ele><time>2011-09-14T12:32:21Z</time></trkpt><trkpt lat="43.207675" lon="-1.275404"><ele>122.71</ele><time>2011-09-14T12:32:26Z</time></trkpt><trkpt lat="43.207527" lon="-1.275209"><ele>122.71</ele><time>2011-09-14T12:32:27Z</time></trkpt><trkpt lat="43.207362" lon="-1.275042"><ele>123.19</ele><time>2011-09-14T12:32:28Z</time></trkpt><trkpt lat="43.207179" lon="-1.274906"><ele>123.19</ele><time>2011-09-14T12:32:29Z</time></trkpt><trkpt lat="43.206985" lon="-1.274797"><ele>123.67</ele><time>2011-09-14T12:32:30Z</time></trkpt><trkpt lat="43.206787" lon="-1.274713"><ele>123.67</ele><time>2011-09-14T12:32:31Z</time></trkpt><trkpt lat="43.206590" lon="-1.274651"><ele>123.67</ele><time>2011-09-14T12:32:32Z</time></trkpt><trkpt lat="43.206391" lon="-1.274612"><ele>123.67</ele><time>2011-09-14T12:32:33Z</time></trkpt><trkpt lat="43.206190" lon="-1.274607"><ele>124.15</ele><time>2011-09-14T12:32:34Z</time></trkpt><trkpt lat="43.205988" lon="-1.274636"><ele>124.15</ele><time>2011-09-14T12:32:35Z</time></trkpt><trkpt lat="43.205783" lon="-1.274678"><ele>124.63</ele><time>2011-09-14T12:32:36Z</time></trkpt><trkpt lat="43.205179" lon="-1.274717"><ele>126.07</ele><time>2011-09-14T12:32:39Z</time></trkpt><trkpt lat="43.204993" lon="-1.274667"><ele>127.03</ele><time>2011-09-14T12:32:40Z</time></trkpt><trkpt lat="43.204823" lon="-1.274581"><ele>127.99</ele><time>2011-09-14T12:32:41Z</time></trkpt><trkpt lat="43.204671" lon="-1.274452"><ele>129.43</ele><time>2011-09-14T12:32:42Z</time></trkpt><trkpt lat="43.204540" lon="-1.274281"><ele>131.36</ele><time>2011-09-14T12:32:43Z</time></trkpt><trkpt lat="43.204442" lon="-1.274064"><ele>130.88</ele><time>2011-09-14T12:32:44Z</time></trkpt><trkpt lat="43.204361" lon="-1.273822"><ele>130.88</ele><time>2011-09-14T12:32:45Z</time></trkpt><trkpt lat="43.204318" lon="-1.273555"><ele>130.40</ele><time>2011-09-14T12:32:46Z</time></trkpt><trkpt lat="43.204295" lon="-1.273270"><ele>130.40</ele><time>2011-09-14T12:32:47Z</time></trkpt><trkpt lat="43.204290" lon="-1.272972"><ele>131.36</ele><time>2011-09-14T12:32:48Z</time></trkpt><trkpt lat="43.204305" lon="-1.272676"><ele>131.36</ele><time>2011-09-14T12:32:49Z</time></trkpt><trkpt lat="43.204337" lon="-1.272375"><ele>132.32</ele><time>2011-09-14T12:32:50Z</time></trkpt><trkpt lat="43.204375" lon="-1.272076"><ele>132.80</ele><time>2011-09-14T12:32:51Z</time></trkpt><trkpt lat="43.204651" lon="-1.269092"><ele>136.16</ele><time>2011-09-14T12:33:01Z</time></trkpt><trkpt lat="43.204638" lon="-1.268254"><ele>135.68</ele><time>2011-09-14T12:33:04Z</time></trkpt><trkpt lat="43.204586" lon="-1.267990"><ele>135.68</ele><time>2011-09-14T12:33:05Z</time></trkpt><trkpt lat="43.204514" lon="-1.267729"><ele>135.68</ele><time>2011-09-14T12:33:06Z</time></trkpt><trkpt lat="43.204060" lon="-1.265435"><ele>134.72</ele><time>2011-09-14T12:33:14Z</time></trkpt><trkpt lat="43.203702" lon="-1.262835"><ele>135.20</ele><time>2011-09-14T12:33:23Z</time></trkpt><trkpt lat="43.203588" lon="-1.262305"><ele>135.20</ele><time>2011-09-14T12:33:25Z</time></trkpt><trkpt lat="43.203505" lon="-1.262058"><ele>135.20</ele><time>2011-09-14T12:33:26Z</time></trkpt><trkpt lat="43.203401" lon="-1.261824"><ele>135.20</ele><time>2011-09-14T12:33:27Z</time></trkpt><trkpt lat="43.203280" lon="-1.261602"><ele>134.72</ele><time>2011-09-14T12:33:28Z</time></trkpt><trkpt lat="43.203147" lon="-1.261389"><ele>134.72</ele><time>2011-09-14T12:33:29Z</time></trkpt><trkpt lat="43.202405" lon="-1.260419"><ele>134.24</ele><time>2011-09-14T12:33:34Z</time></trkpt><trkpt lat="43.202213" lon="-1.260282"><ele>134.24</ele><time>2011-09-14T12:33:35Z</time></trkpt><trkpt lat="43.202007" lon="-1.260181"><ele>133.76</ele><time>2011-09-14T12:33:36Z</time></trkpt><trkpt lat="43.201791" lon="-1.260098"><ele>133.28</ele><time>2011-09-14T12:33:37Z</time></trkpt><trkpt lat="43.201568" lon="-1.260023"><ele>133.28</ele><time>2011-09-14T12:33:38Z</time></trkpt><trkpt lat="43.199692" lon="-1.259040"><ele>132.32</ele><time>2011-09-14T12:33:47Z</time></trkpt><trkpt lat="43.198715" lon="-1.257971"><ele>133.28</ele><time>2011-09-14T12:33:53Z</time></trkpt><trkpt lat="43.198536" lon="-1.257835"><ele>133.76</ele><time>2011-09-14T12:33:54Z</time></trkpt><trkpt lat="43.196501" lon="-1.256732"><ele>136.16</ele><time>2011-09-14T12:34:04Z</time></trkpt><trkpt lat="43.194838" lon="-1.256375"><ele>135.68</ele><time>2011-09-14T12:34:12Z</time></trkpt><trkpt lat="43.194207" lon="-1.256324"><ele>136.16</ele><time>2011-09-14T12:34:15Z</time></trkpt><trkpt lat="43.193999" lon="-1.256245"><ele>136.16</ele><time>2011-09-14T12:34:16Z</time></trkpt><trkpt lat="43.191770" lon="-1.255011"><ele>137.13</ele><time>2011-09-14T12:34:27Z</time></trkpt><trkpt lat="43.190560" lon="-1.253759"><ele>141.93</ele><time>2011-09-14T12:34:34Z</time></trkpt><trkpt lat="43.189426" lon="-1.252550"><ele>147.22</ele><time>2011-09-14T12:34:41Z</time></trkpt><trkpt lat="43.189252" lon="-1.252455"><ele>148.18</ele><time>2011-09-14T12:34:42Z</time></trkpt><trkpt lat="43.189066" lon="-1.252385"><ele>149.14</ele><time>2011-09-14T12:34:43Z</time></trkpt><trkpt lat="43.188872" lon="-1.252334"><ele>150.10</ele><time>2011-09-14T12:34:44Z</time></trkpt><trkpt lat="43.188670" lon="-1.252299"><ele>151.06</ele><time>2011-09-14T12:34:45Z</time></trkpt><trkpt lat="43.188466" lon="-1.252296"><ele>151.54</ele><time>2011-09-14T12:34:46Z</time></trkpt><trkpt lat="43.188261" lon="-1.252318"><ele>152.03</ele><time>2011-09-14T12:34:47Z</time></trkpt><trkpt lat="43.188056" lon="-1.252352"><ele>152.99</ele><time>2011-09-14T12:34:48Z</time></trkpt><trkpt lat="43.187116" lon="-1.252572"><ele>155.87</ele><time>2011-09-14T12:34:53Z</time></trkpt><trkpt lat="43.186976" lon="-1.252657"><ele>156.83</ele><time>2011-09-14T12:34:54Z</time></trkpt><trkpt lat="43.186858" lon="-1.252791"><ele>156.35</ele><time>2011-09-14T12:34:55Z</time></trkpt><trkpt lat="43.186760" lon="-1.252974"><ele>152.99</ele><time>2011-09-14T12:34:56Z</time></trkpt><trkpt lat="43.186674" lon="-1.253173"><ele>152.51</ele><time>2011-09-14T12:34:57Z</time></trkpt><trkpt lat="43.186617" lon="-1.253395"><ele>151.54</ele><time>2011-09-14T12:34:58Z</time></trkpt><trkpt lat="43.186586" lon="-1.253634"><ele>150.58</ele><time>2011-09-14T12:34:59Z</time></trkpt><trkpt lat="43.186567" lon="-1.253889"><ele>150.10</ele><time>2011-09-14T12:35:00Z</time></trkpt><trkpt lat="43.186544" lon="-1.254148"><ele>151.06</ele><time>2011-09-14T12:35:01Z</time></trkpt><trkpt lat="43.186092" lon="-1.256628"><ele>157.31</ele><time>2011-09-14T12:35:11Z</time></trkpt><trkpt lat="43.185809" lon="-1.257234"><ele>158.27</ele><time>2011-09-14T12:35:14Z</time></trkpt><trkpt lat="43.185662" lon="-1.257393"><ele>159.24</ele><time>2011-09-14T12:35:15Z</time></trkpt><trkpt lat="43.185508" lon="-1.257525"><ele>159.72</ele><time>2011-09-14T12:35:16Z</time></trkpt><trkpt lat="43.185342" lon="-1.257632"><ele>159.72</ele><time>2011-09-14T12:35:17Z</time></trkpt><trkpt lat="43.185165" lon="-1.257718"><ele>160.20</ele><time>2011-09-14T12:35:18Z</time></trkpt><trkpt lat="43.184979" lon="-1.257788"><ele>160.20</ele><time>2011-09-14T12:35:19Z</time></trkpt><trkpt lat="43.184787" lon="-1.257836"><ele>160.20</ele><time>2011-09-14T12:35:20Z</time></trkpt><trkpt lat="43.184592" lon="-1.257859"><ele>160.68</ele><time>2011-09-14T12:35:21Z</time></trkpt><trkpt lat="43.184396" lon="-1.257866"><ele>160.20</ele><time>2011-09-14T12:35:22Z</time></trkpt><trkpt lat="43.182883" lon="-1.258273"><ele>157.79</ele><time>2011-09-14T12:35:30Z</time></trkpt><trkpt lat="43.181809" lon="-1.259250"><ele>155.39</ele><time>2011-09-14T12:35:36Z</time></trkpt><trkpt lat="43.181635" lon="-1.259390"><ele>155.39</ele><time>2011-09-14T12:35:37Z</time></trkpt><trkpt lat="43.181454" lon="-1.259493"><ele>155.87</ele><time>2011-09-14T12:35:38Z</time></trkpt><trkpt lat="43.181267" lon="-1.259572"><ele>154.91</ele><time>2011-09-14T12:35:39Z</time></trkpt><trkpt lat="43.181072" lon="-1.259626"><ele>153.95</ele><time>2011-09-14T12:35:40Z</time></trkpt><trkpt lat="43.180870" lon="-1.259651"><ele>153.95</ele><time>2011-09-14T12:35:41Z</time></trkpt><trkpt lat="43.180666" lon="-1.259638"><ele>153.95</ele><time>2011-09-14T12:35:42Z</time></trkpt><trkpt lat="43.180461" lon="-1.259598"><ele>154.43</ele><time>2011-09-14T12:35:43Z</time></trkpt><trkpt lat="43.180254" lon="-1.259550"><ele>157.79</ele><time>2011-09-14T12:35:44Z</time></trkpt><trkpt lat="43.178541" lon="-1.259224"><ele>155.39</ele><time>2011-09-14T12:35:54Z</time></trkpt><trkpt lat="43.178256" lon="-1.259124"><ele>155.39</ele><time>2011-09-14T12:35:56Z</time></trkpt><trkpt lat="43.178121" lon="-1.259046"><ele>155.39</ele><time>2011-09-14T12:35:57Z</time></trkpt><trkpt lat="43.177991" lon="-1.258941"><ele>155.39</ele><time>2011-09-14T12:35:58Z</time></trkpt><trkpt lat="43.177866" lon="-1.258810"><ele>155.39</ele><time>2011-09-14T12:35:59Z</time></trkpt><trkpt lat="43.177752" lon="-1.258654"><ele>155.87</ele><time>2011-09-14T12:36:00Z</time></trkpt><trkpt lat="43.177648" lon="-1.258472"><ele>156.35</ele><time>2011-09-14T12:36:01Z</time></trkpt><trkpt lat="43.177549" lon="-1.258264"><ele>156.83</ele><time>2011-09-14T12:36:02Z</time></trkpt><trkpt lat="43.177447" lon="-1.258041"><ele>156.83</ele><time>2011-09-14T12:36:03Z</time></trkpt><trkpt lat="43.176479" lon="-1.255939"><ele>157.79</ele><time>2011-09-14T12:36:12Z</time></trkpt><trkpt lat="43.174703" lon="-1.252248"><ele>159.72</ele><time>2011-09-14T12:36:28Z</time></trkpt><trkpt lat="43.174319" lon="-1.251510"><ele>159.24</ele><time>2011-09-14T12:36:32Z</time></trkpt><trkpt lat="43.174194" lon="-1.251365"><ele>159.72</ele><time>2011-09-14T12:36:33Z</time></trkpt><trkpt lat="43.174040" lon="-1.251257"><ele>160.20</ele><time>2011-09-14T12:36:34Z</time></trkpt><trkpt lat="43.173871" lon="-1.251188"><ele>160.68</ele><time>2011-09-14T12:36:35Z</time></trkpt><trkpt lat="43.173695" lon="-1.251161"><ele>161.64</ele><time>2011-09-14T12:36:36Z</time></trkpt><trkpt lat="43.173520" lon="-1.251160"><ele>162.12</ele><time>2011-09-14T12:36:37Z</time></trkpt><trkpt lat="43.173353" lon="-1.251161"><ele>162.60</ele><time>2011-09-14T12:36:38Z</time></trkpt><trkpt lat="43.173039" lon="-1.251121"><ele>163.56</ele><time>2011-09-14T12:36:40Z</time></trkpt><trkpt lat="43.172893" lon="-1.251061"><ele>163.56</ele><time>2011-09-14T12:36:41Z</time></trkpt><trkpt lat="43.172758" lon="-1.250959"><ele>163.08</ele><time>2011-09-14T12:36:42Z</time></trkpt><trkpt lat="43.172632" lon="-1.250773"><ele>163.56</ele><time>2011-09-14T12:36:43Z</time></trkpt><trkpt lat="43.172516" lon="-1.250574"><ele>164.52</ele><time>2011-09-14T12:36:44Z</time></trkpt><trkpt lat="43.172405" lon="-1.250356"><ele>163.56</ele><time>2011-09-14T12:36:45Z</time></trkpt><trkpt lat="43.171675" lon="-1.248799"><ele>161.16</ele><time>2011-09-14T12:36:52Z</time></trkpt><trkpt lat="43.171249" lon="-1.248291"><ele>160.20</ele><time>2011-09-14T12:36:55Z</time></trkpt><trkpt lat="43.171076" lon="-1.248168"><ele>160.20</ele><time>2011-09-14T12:36:56Z</time></trkpt><trkpt lat="43.170897" lon="-1.248065"><ele>160.68</ele><time>2011-09-14T12:36:57Z</time></trkpt><trkpt lat="43.169687" lon="-1.247496"><ele>161.16</ele><time>2011-09-14T12:37:05Z</time></trkpt><trkpt lat="43.168006" lon="-1.246671"><ele>160.68</ele><time>2011-09-14T12:37:19Z</time></trkpt><trkpt lat="43.166668" lon="-1.246000"><ele>160.20</ele><time>2011-09-14T12:37:31Z</time></trkpt><trkpt lat="43.166581" lon="-1.245914"><ele>160.20</ele><time>2011-09-14T12:37:32Z</time></trkpt><trkpt lat="43.166496" lon="-1.245809"><ele>160.20</ele><time>2011-09-14T12:37:33Z</time></trkpt><trkpt lat="43.165691" lon="-1.244683"><ele>159.72</ele><time>2011-09-14T12:37:44Z</time></trkpt><trkpt lat="43.165089" lon="-1.243835"><ele>164.04</ele><time>2011-09-14T12:37:54Z</time></trkpt><trkpt lat="43.164396" lon="-1.242862"><ele>165.00</ele><time>2011-09-14T12:38:06Z</time></trkpt><trkpt lat="43.164385" lon="-1.242830"><ele>164.52</ele><time>2011-09-14T12:38:10Z</time></trkpt><trkpt lat="43.164384" lon="-1.242800"><ele>164.52</ele><time>2011-09-14T12:38:11Z</time></trkpt><trkpt lat="43.164391" lon="-1.242763"><ele>164.04</ele><time>2011-09-14T12:38:12Z</time></trkpt><trkpt lat="43.164415" lon="-1.242724"><ele>163.56</ele><time>2011-09-14T12:38:13Z</time></trkpt><trkpt lat="43.164452" lon="-1.242690"><ele>163.08</ele><time>2011-09-14T12:38:14Z</time></trkpt><trkpt lat="43.164500" lon="-1.242667"><ele>163.08</ele><time>2011-09-14T12:38:15Z</time></trkpt><trkpt lat="43.164548" lon="-1.242668"><ele>162.60</ele><time>2011-09-14T12:38:16Z</time></trkpt><trkpt lat="43.164594" lon="-1.242719"><ele>162.60</ele><time>2011-09-14T12:38:17Z</time></trkpt><trkpt lat="43.164631" lon="-1.242779"><ele>162.60</ele><time>2011-09-14T12:38:18Z</time></trkpt><trkpt lat="43.164657" lon="-1.242835"><ele>162.12</ele><time>2011-09-14T12:38:19Z</time></trkpt><trkpt lat="43.164664" lon="-1.242883"><ele>162.12</ele><time>2011-09-14T12:38:20Z</time></trkpt><trkpt lat="43.164656" lon="-1.242920"><ele>162.12</ele><time>2011-09-14T12:38:21Z</time></trkpt><trkpt lat="43.164645" lon="-1.242941"><ele>162.60</ele><time>2011-09-14T12:38:22Z</time></trkpt><trkpt lat="43.164639" lon="-1.242955"><ele>164.52</ele><time>2011-09-14T12:38:37Z</time></trkpt><trkpt lat="43.164573" lon="-1.242919"><ele>174.62</ele><time>2011-09-14T12:53:54Z</time></trkpt><trkpt lat="43.164587" lon="-1.242946"><ele>165.00</ele><time>2011-09-14T12:55:13Z</time></trkpt><trkpt lat="43.164628" lon="-1.242920"><ele>165.48</ele><time>2011-09-14T12:56:21Z</time></trkpt><trkpt lat="43.164623" lon="-1.242908"><ele>165.00</ele><time>2011-09-14T12:56:27Z</time></trkpt><trkpt lat="43.164607" lon="-1.242877"><ele>165.00</ele><time>2011-09-14T12:56:28Z</time></trkpt><trkpt lat="43.164552" lon="-1.242779"><ele>165.00</ele><time>2011-09-14T12:56:30Z</time></trkpt><trkpt lat="43.164512" lon="-1.242751"><ele>165.00</ele><time>2011-09-14T12:56:31Z</time></trkpt><trkpt lat="43.164474" lon="-1.242756"><ele>165.00</ele><time>2011-09-14T12:56:32Z</time></trkpt><trkpt lat="43.164444" lon="-1.242783"><ele>165.48</ele><time>2011-09-14T12:56:33Z</time></trkpt><trkpt lat="43.164427" lon="-1.242809"><ele>165.48</ele><time>2011-09-14T12:56:34Z</time></trkpt><trkpt lat="43.164402" lon="-1.242829"><ele>165.48</ele><time>2011-09-14T12:56:40Z</time></trkpt><trkpt lat="43.164380" lon="-1.242828"><ele>165.48</ele><time>2011-09-14T12:56:41Z</time></trkpt><trkpt lat="43.164339" lon="-1.242810"><ele>165.48</ele><time>2011-09-14T12:56:42Z</time></trkpt><trkpt lat="43.164283" lon="-1.242747"><ele>165.48</ele><time>2011-09-14T12:56:43Z</time></trkpt><trkpt lat="43.164225" lon="-1.242672"><ele>165.00</ele><time>2011-09-14T12:56:44Z</time></trkpt><trkpt lat="43.164169" lon="-1.242593"><ele>165.00</ele><time>2011-09-14T12:56:45Z</time></trkpt><trkpt lat="43.164078" lon="-1.242447"><ele>164.52</ele><time>2011-09-14T12:56:47Z</time></trkpt><trkpt lat="43.164039" lon="-1.242364"><ele>164.52</ele><time>2011-09-14T12:56:48Z</time></trkpt><trkpt lat="43.164005" lon="-1.242271"><ele>164.04</ele><time>2011-09-14T12:56:49Z</time></trkpt><trkpt lat="43.163974" lon="-1.242169"><ele>163.56</ele><time>2011-09-14T12:56:50Z</time></trkpt><trkpt lat="43.163945" lon="-1.242061"><ele>163.08</ele><time>2011-09-14T12:56:51Z</time></trkpt><trkpt lat="43.163794" lon="-1.241433"><ele>161.16</ele><time>2011-09-14T12:56:57Z</time></trkpt><trkpt lat="43.163749" lon="-1.241339"><ele>160.68</ele><time>2011-09-14T12:56:58Z</time></trkpt><trkpt lat="43.163701" lon="-1.241237"><ele>160.20</ele><time>2011-09-14T12:56:59Z</time></trkpt><trkpt lat="43.163649" lon="-1.241153"><ele>160.20</ele><time>2011-09-14T12:57:00Z</time></trkpt><trkpt lat="43.163594" lon="-1.241082"><ele>160.20</ele><time>2011-09-14T12:57:01Z</time></trkpt><trkpt lat="43.163028" lon="-1.240257"><ele>161.64</ele><time>2011-09-14T12:57:14Z</time></trkpt><trkpt lat="43.162572" lon="-1.239622"><ele>164.04</ele><time>2011-09-14T12:57:26Z</time></trkpt><trkpt lat="43.162288" lon="-1.239310"><ele>165.48</ele><time>2011-09-14T12:57:38Z</time></trkpt><trkpt lat="43.161967" lon="-1.238998"><ele>163.56</ele><time>2011-09-14T12:57:51Z</time></trkpt><trkpt lat="43.161893" lon="-1.238846"><ele>164.04</ele><time>2011-09-14T12:57:56Z</time></trkpt><trkpt lat="43.161899" lon="-1.238813"><ele>164.52</ele><time>2011-09-14T12:57:57Z</time></trkpt><trkpt lat="43.161913" lon="-1.238785"><ele>164.52</ele><time>2011-09-14T12:57:58Z</time></trkpt><trkpt lat="43.161931" lon="-1.238765"><ele>164.52</ele><time>2011-09-14T12:57:59Z</time></trkpt><trkpt lat="43.161946" lon="-1.238750"><ele>164.52</ele><time>2011-09-14T12:58:00Z</time></trkpt><trkpt lat="43.162197" lon="-1.238538"><ele>167.41</ele><time>2011-09-14T12:58:11Z</time></trkpt><trkpt lat="43.162458" lon="-1.238338"><ele>171.25</ele><time>2011-09-14T12:58:20Z</time></trkpt><trkpt lat="43.162827" lon="-1.238049"><ele>173.17</ele><time>2011-09-14T12:58:30Z</time></trkpt><trkpt lat="43.162881" lon="-1.237991"><ele>172.69</ele><time>2011-09-14T12:58:31Z</time></trkpt><trkpt lat="43.162937" lon="-1.237924"><ele>172.69</ele><time>2011-09-14T12:58:32Z</time></trkpt><trkpt lat="43.163109" lon="-1.237696"><ele>172.21</ele><time>2011-09-14T12:58:36Z</time></trkpt><trkpt lat="43.163126" lon="-1.237653"><ele>172.21</ele><time>2011-09-14T12:58:37Z</time></trkpt><trkpt lat="43.163124" lon="-1.237616"><ele>172.21</ele><time>2011-09-14T12:58:38Z</time></trkpt><trkpt lat="43.162984" lon="-1.237689"><ele>171.73</ele><time>2011-09-14T12:58:45Z</time></trkpt><trkpt lat="43.162940" lon="-1.237743"><ele>170.77</ele><time>2011-09-14T12:58:47Z</time></trkpt><trkpt lat="43.162866" lon="-1.237834"><ele>168.85</ele><time>2011-09-14T12:58:51Z</time></trkpt><trkpt lat="43.162950" lon="-1.237932"><ele>169.33</ele><time>2011-09-14T12:59:01Z</time></trkpt><trkpt lat="43.163020" lon="-1.238010"><ele>169.33</ele><time>2011-09-14T12:59:05Z</time></trkpt><trkpt lat="43.163066" lon="-1.238036"><ele>168.85</ele><time>2011-09-14T12:59:10Z</time></trkpt><trkpt lat="43.163077" lon="-1.238089"><ele>168.85</ele><time>2011-09-14T12:59:13Z</time></trkpt><trkpt lat="43.163049" lon="-1.238203"><ele>168.37</ele><time>2011-09-14T12:59:21Z</time></trkpt><trkpt lat="43.162971" lon="-1.238194"><ele>167.41</ele><time>2011-09-14T12:59:30Z</time></trkpt><trkpt lat="43.162969" lon="-1.238242"><ele>166.45</ele><time>2011-09-14T12:59:52Z</time></trkpt><trkpt lat="43.162976" lon="-1.238275"><ele>163.56</ele><time>2011-09-14T13:00:45Z</time></trkpt><trkpt lat="43.162980" lon="-1.238283"><ele>161.64</ele><time>2011-09-14T13:01:06Z</time></trkpt></trkseg><trkseg><trkpt lat="43.163011" lon="-1.238249"><ele>149.14</ele><time>2011-09-14T13:39:05Z</time></trkpt><trkpt lat="43.163004" lon="-1.238205"><ele>167.41</ele><time>2011-09-14T13:41:40Z</time></trkpt><trkpt lat="43.162992" lon="-1.238172"><ele>167.41</ele><time>2011-09-14T13:41:54Z</time></trkpt><trkpt lat="43.162983" lon="-1.238181"><ele>167.41</ele><time>2011-09-14T13:42:08Z</time></trkpt><trkpt lat="43.163058" lon="-1.238068"><ele>167.89</ele><time>2011-09-14T13:42:13Z</time></trkpt><trkpt lat="43.163087" lon="-1.237980"><ele>168.37</ele><time>2011-09-14T13:42:15Z</time></trkpt><trkpt lat="43.163111" lon="-1.237933"><ele>168.85</ele><time>2011-09-14T13:42:16Z</time></trkpt><trkpt lat="43.163196" lon="-1.237753"><ele>169.81</ele><time>2011-09-14T13:42:21Z</time></trkpt><trkpt lat="43.163194" lon="-1.237726"><ele>170.29</ele><time>2011-09-14T13:42:22Z</time></trkpt><trkpt lat="43.163166" lon="-1.237725"><ele>169.33</ele><time>2011-09-14T13:42:35Z</time></trkpt><trkpt lat="43.163178" lon="-1.237601"><ele>170.29</ele><time>2011-09-14T13:42:41Z</time></trkpt><trkpt lat="43.163211" lon="-1.237551"><ele>170.29</ele><time>2011-09-14T13:42:42Z</time></trkpt><trkpt lat="43.163584" lon="-1.237035"><ele>172.21</ele><time>2011-09-14T13:42:53Z</time></trkpt><trkpt lat="43.163954" lon="-1.236310"><ele>173.66</ele><time>2011-09-14T13:43:05Z</time></trkpt><trkpt lat="43.164202" lon="-1.235264"><ele>173.66</ele><time>2011-09-14T13:43:18Z</time></trkpt><trkpt lat="43.164244" lon="-1.234663"><ele>171.73</ele><time>2011-09-14T13:43:25Z</time></trkpt><trkpt lat="43.164265" lon="-1.234574"><ele>171.73</ele><time>2011-09-14T13:43:26Z</time></trkpt><trkpt lat="43.164295" lon="-1.234490"><ele>171.25</ele><time>2011-09-14T13:43:27Z</time></trkpt><trkpt lat="43.164334" lon="-1.234411"><ele>171.25</ele><time>2011-09-14T13:43:28Z</time></trkpt><trkpt lat="43.164379" lon="-1.234338"><ele>171.25</ele><time>2011-09-14T13:43:29Z</time></trkpt><trkpt lat="43.164428" lon="-1.234274"><ele>170.77</ele><time>2011-09-14T13:43:30Z</time></trkpt><trkpt lat="43.164482" lon="-1.234225"><ele>170.29</ele><time>2011-09-14T13:43:31Z</time></trkpt><trkpt lat="43.164538" lon="-1.234190"><ele>170.29</ele><time>2011-09-14T13:43:32Z</time></trkpt><trkpt lat="43.164594" lon="-1.234164"><ele>169.81</ele><time>2011-09-14T13:43:33Z</time></trkpt><trkpt lat="43.164648" lon="-1.234142"><ele>169.81</ele><time>2011-09-14T13:43:34Z</time></trkpt><trkpt lat="43.165189" lon="-1.233942"><ele>170.29</ele><time>2011-09-14T13:43:46Z</time></trkpt><trkpt lat="43.165467" lon="-1.233811"><ele>169.81</ele><time>2011-09-14T13:43:54Z</time></trkpt><trkpt lat="43.165504" lon="-1.233776"><ele>170.29</ele><time>2011-09-14T13:43:55Z</time></trkpt><trkpt lat="43.165542" lon="-1.233742"><ele>170.29</ele><time>2011-09-14T13:43:56Z</time></trkpt><trkpt lat="43.165584" lon="-1.233717"><ele>169.81</ele><time>2011-09-14T13:43:57Z</time></trkpt><trkpt lat="43.165630" lon="-1.233704"><ele>169.33</ele><time>2011-09-14T13:43:58Z</time></trkpt><trkpt lat="43.165680" lon="-1.233703"><ele>168.85</ele><time>2011-09-14T13:43:59Z</time></trkpt><trkpt lat="43.165732" lon="-1.233706"><ele>168.37</ele><time>2011-09-14T13:44:00Z</time></trkpt><trkpt lat="43.165785" lon="-1.233703"><ele>168.37</ele><time>2011-09-14T13:44:01Z</time></trkpt><trkpt lat="43.165837" lon="-1.233689"><ele>167.89</ele><time>2011-09-14T13:44:02Z</time></trkpt><trkpt lat="43.166643" lon="-1.233337"><ele>165.00</ele><time>2011-09-14T13:44:15Z</time></trkpt><trkpt lat="43.167432" lon="-1.233069"><ele>165.96</ele><time>2011-09-14T13:44:28Z</time></trkpt><trkpt lat="43.168073" lon="-1.232814"><ele>166.93</ele><time>2011-09-14T13:44:41Z</time></trkpt><trkpt lat="43.168682" lon="-1.232574"><ele>170.29</ele><time>2011-09-14T13:44:50Z</time></trkpt><trkpt lat="43.168737" lon="-1.232514"><ele>170.29</ele><time>2011-09-14T13:44:51Z</time></trkpt><trkpt lat="43.168787" lon="-1.232446"><ele>170.29</ele><time>2011-09-14T13:44:52Z</time></trkpt><trkpt lat="43.168829" lon="-1.232369"><ele>170.29</ele><time>2011-09-14T13:44:53Z</time></trkpt><trkpt lat="43.168862" lon="-1.232285"><ele>170.29</ele><time>2011-09-14T13:44:54Z</time></trkpt><trkpt lat="43.168884" lon="-1.232197"><ele>169.81</ele><time>2011-09-14T13:44:55Z</time></trkpt><trkpt lat="43.168897" lon="-1.232111"><ele>169.81</ele><time>2011-09-14T13:44:56Z</time></trkpt><trkpt lat="43.168904" lon="-1.232026"><ele>169.81</ele><time>2011-09-14T13:44:57Z</time></trkpt><trkpt lat="43.168905" lon="-1.231945"><ele>169.81</ele><time>2011-09-14T13:44:58Z</time></trkpt><trkpt lat="43.168905" lon="-1.231866"><ele>169.81</ele><time>2011-09-14T13:44:59Z</time></trkpt><trkpt lat="43.168894" lon="-1.230826"><ele>171.25</ele><time>2011-09-14T13:45:09Z</time></trkpt><trkpt lat="43.168833" lon="-1.229618"><ele>173.17</ele><time>2011-09-14T13:45:17Z</time></trkpt><trkpt lat="43.168647" lon="-1.228051"><ele>175.10</ele><time>2011-09-14T13:45:26Z</time></trkpt><trkpt lat="43.168336" lon="-1.225296"><ele>176.54</ele><time>2011-09-14T13:45:39Z</time></trkpt><trkpt lat="43.168005" lon="-1.222330"><ele>177.02</ele><time>2011-09-14T13:45:52Z</time></trkpt><trkpt lat="43.167691" lon="-1.219448"><ele>180.38</ele><time>2011-09-14T13:46:04Z</time></trkpt><trkpt lat="43.167368" lon="-1.216558"><ele>179.90</ele><time>2011-09-14T13:46:17Z</time></trkpt><trkpt lat="43.166993" lon="-1.213103"><ele>183.27</ele><time>2011-09-14T13:46:31Z</time></trkpt><trkpt lat="43.166538" lon="-1.208954"><ele>186.63</ele><time>2011-09-14T13:46:48Z</time></trkpt><trkpt lat="43.166151" lon="-1.205465"><ele>189.52</ele><time>2011-09-14T13:47:03Z</time></trkpt><trkpt lat="43.165972" lon="-1.204025"><ele>190.96</ele><time>2011-09-14T13:47:11Z</time></trkpt><trkpt lat="43.165942" lon="-1.203934"><ele>190.96</ele><time>2011-09-14T13:47:12Z</time></trkpt><trkpt lat="43.165903" lon="-1.203852"><ele>190.96</ele><time>2011-09-14T13:47:13Z</time></trkpt><trkpt lat="43.165861" lon="-1.203774"><ele>190.96</ele><time>2011-09-14T13:47:14Z</time></trkpt><trkpt lat="43.165833" lon="-1.203689"><ele>190.96</ele><time>2011-09-14T13:47:15Z</time></trkpt><trkpt lat="43.165834" lon="-1.203601"><ele>190.96</ele><time>2011-09-14T13:47:16Z</time></trkpt><trkpt lat="43.165888" lon="-1.203581"><ele>191.44</ele><time>2011-09-14T13:47:17Z</time></trkpt><trkpt lat="43.165951" lon="-1.203550"><ele>191.44</ele><time>2011-09-14T13:47:18Z</time></trkpt><trkpt lat="43.166031" lon="-1.203563"><ele>191.44</ele><time>2011-09-14T13:47:19Z</time></trkpt><trkpt lat="43.166108" lon="-1.203584"><ele>191.44</ele><time>2011-09-14T13:47:20Z</time></trkpt><trkpt lat="43.166196" lon="-1.203592"><ele>191.92</ele><time>2011-09-14T13:47:21Z</time></trkpt><trkpt lat="43.166294" lon="-1.203559"><ele>191.92</ele><time>2011-09-14T13:47:22Z</time></trkpt><trkpt lat="43.166389" lon="-1.203481"><ele>192.40</ele><time>2011-09-14T13:47:23Z</time></trkpt><trkpt lat="43.166487" lon="-1.203387"><ele>192.88</ele><time>2011-09-14T13:47:24Z</time></trkpt><trkpt lat="43.166590" lon="-1.203269"><ele>193.36</ele><time>2011-09-14T13:47:25Z</time></trkpt><trkpt lat="43.166695" lon="-1.203132"><ele>193.84</ele><time>2011-09-14T13:47:26Z</time></trkpt><trkpt lat="43.166793" lon="-1.202985"><ele>194.80</ele><time>2011-09-14T13:47:27Z</time></trkpt><trkpt lat="43.166875" lon="-1.202836"><ele>195.77</ele><time>2011-09-14T13:47:28Z</time></trkpt><trkpt lat="43.166946" lon="-1.202678"><ele>196.73</ele><time>2011-09-14T13:47:29Z</time></trkpt><trkpt lat="43.167013" lon="-1.202505"><ele>198.17</ele><time>2011-09-14T13:47:30Z</time></trkpt><trkpt lat="43.167076" lon="-1.202319"><ele>199.13</ele><time>2011-09-14T13:47:31Z</time></trkpt><trkpt lat="43.167136" lon="-1.202121"><ele>200.09</ele><time>2011-09-14T13:47:32Z</time></trkpt><trkpt lat="43.167699" lon="-1.199951"><ele>205.38</ele><time>2011-09-14T13:47:42Z</time></trkpt><trkpt lat="43.168183" lon="-1.197923"><ele>203.94</ele><time>2011-09-14T13:47:50Z</time></trkpt><trkpt lat="43.168412" lon="-1.195358"><ele>208.26</ele><time>2011-09-14T13:48:00Z</time></trkpt><trkpt lat="43.168620" lon="-1.192478"><ele>213.07</ele><time>2011-09-14T13:48:11Z</time></trkpt><trkpt lat="43.168967" lon="-1.189109"><ele>206.82</ele><time>2011-09-14T13:48:25Z</time></trkpt><trkpt lat="43.169443" lon="-1.187754"><ele>200.57</ele><time>2011-09-14T13:48:31Z</time></trkpt><trkpt lat="43.170338" lon="-1.186744"><ele>198.17</ele><time>2011-09-14T13:48:37Z</time></trkpt><trkpt lat="43.172106" lon="-1.185310"><ele>197.21</ele><time>2011-09-14T13:48:48Z</time></trkpt><trkpt lat="43.174598" lon="-1.183285"><ele>195.77</ele><time>2011-09-14T13:49:03Z</time></trkpt><trkpt lat="43.176572" lon="-1.181747"><ele>203.94</ele><time>2011-09-14T13:49:14Z</time></trkpt><trkpt lat="43.179122" lon="-1.179729"><ele>214.99</ele><time>2011-09-14T13:49:29Z</time></trkpt><trkpt lat="43.181736" lon="-1.177606"><ele>202.01</ele><time>2011-09-14T13:49:44Z</time></trkpt><trkpt lat="43.182811" lon="-1.176438"><ele>202.49</ele><time>2011-09-14T13:49:51Z</time></trkpt><trkpt lat="43.182916" lon="-1.176236"><ele>202.49</ele><time>2011-09-14T13:49:52Z</time></trkpt><trkpt lat="43.182984" lon="-1.176003"><ele>202.49</ele><time>2011-09-14T13:49:53Z</time></trkpt><trkpt lat="43.183044" lon="-1.175761"><ele>202.01</ele><time>2011-09-14T13:49:54Z</time></trkpt><trkpt lat="43.183084" lon="-1.175517"><ele>201.53</ele><time>2011-09-14T13:49:55Z</time></trkpt><trkpt lat="43.183716" lon="-1.172368"><ele>200.57</ele><time>2011-09-14T13:50:08Z</time></trkpt><trkpt lat="43.183822" lon="-1.172143"><ele>200.57</ele><time>2011-09-14T13:50:09Z</time></trkpt><trkpt lat="43.183948" lon="-1.171931"><ele>200.09</ele><time>2011-09-14T13:50:10Z</time></trkpt><trkpt lat="43.184093" lon="-1.171735"><ele>200.09</ele><time>2011-09-14T13:50:11Z</time></trkpt><trkpt lat="43.184249" lon="-1.171556"><ele>200.09</ele><time>2011-09-14T13:50:12Z</time></trkpt><trkpt lat="43.184409" lon="-1.171395"><ele>200.09</ele><time>2011-09-14T13:50:13Z</time></trkpt><trkpt lat="43.185527" lon="-1.170398"><ele>201.53</ele><time>2011-09-14T13:50:21Z</time></trkpt><trkpt lat="43.186868" lon="-1.169256"><ele>208.26</ele><time>2011-09-14T13:50:33Z</time></trkpt><trkpt lat="43.188547" lon="-1.167770"><ele>222.20</ele><time>2011-09-14T13:50:49Z</time></trkpt><trkpt lat="43.189823" lon="-1.166349"><ele>228.45</ele><time>2011-09-14T13:51:04Z</time></trkpt><trkpt lat="43.190961" lon="-1.165159"><ele>232.30</ele><time>2011-09-14T13:51:17Z</time></trkpt><trkpt lat="43.191060" lon="-1.165084"><ele>232.78</ele><time>2011-09-14T13:51:18Z</time></trkpt><trkpt lat="43.191170" lon="-1.165044"><ele>233.26</ele><time>2011-09-14T13:51:19Z</time></trkpt><trkpt lat="43.191286" lon="-1.165014"><ele>233.74</ele><time>2011-09-14T13:51:20Z</time></trkpt><trkpt lat="43.191408" lon="-1.164997"><ele>234.22</ele><time>2011-09-14T13:51:21Z</time></trkpt><trkpt lat="43.191534" lon="-1.164992"><ele>235.18</ele><time>2011-09-14T13:51:22Z</time></trkpt><trkpt lat="43.191663" lon="-1.164989"><ele>236.14</ele><time>2011-09-14T13:51:23Z</time></trkpt><trkpt lat="43.192563" lon="-1.164860"><ele>237.58</ele><time>2011-09-14T13:51:30Z</time></trkpt><trkpt lat="43.192704" lon="-1.164790"><ele>237.10</ele><time>2011-09-14T13:51:31Z</time></trkpt><trkpt lat="43.192844" lon="-1.164700"><ele>236.62</ele><time>2011-09-14T13:51:32Z</time></trkpt><trkpt lat="43.192988" lon="-1.164590"><ele>235.18</ele><time>2011-09-14T13:51:33Z</time></trkpt><trkpt lat="43.193127" lon="-1.164468"><ele>233.74</ele><time>2011-09-14T13:51:34Z</time></trkpt><trkpt lat="43.193262" lon="-1.164332"><ele>232.30</ele><time>2011-09-14T13:51:35Z</time></trkpt><trkpt lat="43.193394" lon="-1.164187"><ele>230.37</ele><time>2011-09-14T13:51:36Z</time></trkpt><trkpt lat="43.193782" lon="-1.163642"><ele>225.09</ele><time>2011-09-14T13:51:39Z</time></trkpt><trkpt lat="43.194744" lon="-1.161726"><ele>212.11</ele><time>2011-09-14T13:51:47Z</time></trkpt><trkpt lat="43.195809" lon="-1.159563"><ele>215.95</ele><time>2011-09-14T13:51:54Z</time></trkpt><trkpt lat="43.197022" lon="-1.156989"><ele>224.61</ele><time>2011-09-14T13:52:04Z</time></trkpt><trkpt lat="43.197719" lon="-1.154947"><ele>230.37</ele><time>2011-09-14T13:52:12Z</time></trkpt><trkpt lat="43.198138" lon="-1.152521"><ele>236.62</ele><time>2011-09-14T13:52:22Z</time></trkpt><trkpt lat="43.198361" lon="-1.151867"><ele>238.06</ele><time>2011-09-14T13:52:25Z</time></trkpt><trkpt lat="43.198465" lon="-1.151663"><ele>238.54</ele><time>2011-09-14T13:52:26Z</time></trkpt><trkpt lat="43.198578" lon="-1.151472"><ele>238.54</ele><time>2011-09-14T13:52:27Z</time></trkpt><trkpt lat="43.198695" lon="-1.151296"><ele>239.02</ele><time>2011-09-14T13:52:28Z</time></trkpt><trkpt lat="43.198822" lon="-1.151134"><ele>238.54</ele><time>2011-09-14T13:52:29Z</time></trkpt><trkpt lat="43.198963" lon="-1.150987"><ele>238.54</ele><time>2011-09-14T13:52:30Z</time></trkpt><trkpt lat="43.199119" lon="-1.150851"><ele>237.58</ele><time>2011-09-14T13:52:31Z</time></trkpt><trkpt lat="43.199287" lon="-1.150726"><ele>236.62</ele><time>2011-09-14T13:52:32Z</time></trkpt><trkpt lat="43.199467" lon="-1.150613"><ele>235.66</ele><time>2011-09-14T13:52:33Z</time></trkpt><trkpt lat="43.199656" lon="-1.150513"><ele>234.70</ele><time>2011-09-14T13:52:34Z</time></trkpt><trkpt lat="43.199853" lon="-1.150427"><ele>233.74</ele><time>2011-09-14T13:52:35Z</time></trkpt><trkpt lat="43.201197" lon="-1.149541"><ele>230.37</ele><time>2011-09-14T13:52:42Z</time></trkpt><trkpt lat="43.202778" lon="-1.148062"><ele>234.70</ele><time>2011-09-14T13:52:52Z</time></trkpt><trkpt lat="43.204190" lon="-1.146353"><ele>239.02</ele><time>2011-09-14T13:53:02Z</time></trkpt><trkpt lat="43.205805" lon="-1.144121"><ele>236.62</ele><time>2011-09-14T13:53:13Z</time></trkpt><trkpt lat="43.206895" lon="-1.142146"><ele>242.87</ele><time>2011-09-14T13:53:23Z</time></trkpt><trkpt lat="43.207830" lon="-1.140919"><ele>247.68</ele><time>2011-09-14T13:53:31Z</time></trkpt><trkpt lat="43.209040" lon="-1.139338"><ele>257.29</ele><time>2011-09-14T13:53:39Z</time></trkpt><trkpt lat="43.210842" lon="-1.136937"><ele>268.83</ele><time>2011-09-14T13:53:52Z</time></trkpt><trkpt lat="43.211959" lon="-1.135848"><ele>265.46</ele><time>2011-09-14T13:53:59Z</time></trkpt><trkpt lat="43.212310" lon="-1.135466"><ele>263.06</ele><time>2011-09-14T13:54:01Z</time></trkpt><trkpt lat="43.212466" lon="-1.135237"><ele>261.14</ele><time>2011-09-14T13:54:02Z</time></trkpt><trkpt lat="43.213291" lon="-1.133776"><ele>246.23</ele><time>2011-09-14T13:54:08Z</time></trkpt><trkpt lat="43.213386" lon="-1.133497"><ele>243.83</ele><time>2011-09-14T13:54:09Z</time></trkpt><trkpt lat="43.213464" lon="-1.133202"><ele>241.91</ele><time>2011-09-14T13:54:10Z</time></trkpt><trkpt lat="43.213518" lon="-1.132899"><ele>239.99</ele><time>2011-09-14T13:54:11Z</time></trkpt><trkpt lat="43.213548" lon="-1.132591"><ele>238.06</ele><time>2011-09-14T13:54:12Z</time></trkpt><trkpt lat="43.213563" lon="-1.132278"><ele>236.14</ele><time>2011-09-14T13:54:13Z</time></trkpt><trkpt lat="43.213563" lon="-1.131960"><ele>234.22</ele><time>2011-09-14T13:54:14Z</time></trkpt><trkpt lat="43.213710" lon="-1.129232"><ele>216.43</ele><time>2011-09-14T13:54:23Z</time></trkpt><trkpt lat="43.213799" lon="-1.128964"><ele>214.99</ele><time>2011-09-14T13:54:24Z</time></trkpt><trkpt lat="43.213905" lon="-1.128710"><ele>213.07</ele><time>2011-09-14T13:54:25Z</time></trkpt><trkpt lat="43.215329" lon="-1.125511"><ele>193.36</ele><time>2011-09-14T13:54:38Z</time></trkpt><trkpt lat="43.215486" lon="-1.125290"><ele>191.92</ele><time>2011-09-14T13:54:39Z</time></trkpt><trkpt lat="43.215661" lon="-1.125084"><ele>190.48</ele><time>2011-09-14T13:54:40Z</time></trkpt><trkpt lat="43.217943" lon="-1.122785"><ele>180.38</ele><time>2011-09-14T13:54:52Z</time></trkpt><trkpt lat="43.220418" lon="-1.119930"><ele>169.33</ele><time>2011-09-14T13:55:06Z</time></trkpt><trkpt lat="43.222163" lon="-1.116989"><ele>165.00</ele><time>2011-09-14T13:55:18Z</time></trkpt><trkpt lat="43.224919" lon="-1.111588"><ele>163.08</ele><time>2011-09-14T13:55:39Z</time></trkpt><trkpt lat="43.226444" lon="-1.108669"><ele>161.16</ele><time>2011-09-14T13:55:51Z</time></trkpt><trkpt lat="43.227894" lon="-1.105941"><ele>161.64</ele><time>2011-09-14T13:56:02Z</time></trkpt><trkpt lat="43.229926" lon="-1.102207"><ele>169.81</ele><time>2011-09-14T13:56:17Z</time></trkpt><trkpt lat="43.230897" lon="-1.100465"><ele>173.17</ele><time>2011-09-14T13:56:26Z</time></trkpt><trkpt lat="43.231916" lon="-1.098519"><ele>164.52</ele><time>2011-09-14T13:56:38Z</time></trkpt><trkpt lat="43.232744" lon="-1.096912"><ele>159.24</ele><time>2011-09-14T13:56:48Z</time></trkpt><trkpt lat="43.233032" lon="-1.096516"><ele>161.64</ele><time>2011-09-14T13:56:53Z</time></trkpt><trkpt lat="43.233056" lon="-1.096447"><ele>162.12</ele><time>2011-09-14T13:56:54Z</time></trkpt><trkpt lat="43.233066" lon="-1.096372"><ele>162.60</ele><time>2011-09-14T13:56:55Z</time></trkpt><trkpt lat="43.233066" lon="-1.096291"><ele>162.60</ele><time>2011-09-14T13:56:56Z</time></trkpt><trkpt lat="43.233058" lon="-1.096209"><ele>162.60</ele><time>2011-09-14T13:56:57Z</time></trkpt><trkpt lat="43.233032" lon="-1.096132"><ele>163.08</ele><time>2011-09-14T13:56:58Z</time></trkpt><trkpt lat="43.232986" lon="-1.096059"><ele>163.08</ele><time>2011-09-14T13:56:59Z</time></trkpt><trkpt lat="43.232923" lon="-1.095991"><ele>163.08</ele><time>2011-09-14T13:57:00Z</time></trkpt><trkpt lat="43.232852" lon="-1.095927"><ele>163.08</ele><time>2011-09-14T13:57:01Z</time></trkpt><trkpt lat="43.232779" lon="-1.095866"><ele>163.08</ele><time>2011-09-14T13:57:02Z</time></trkpt><trkpt lat="43.231880" lon="-1.095023"><ele>162.12</ele><time>2011-09-14T13:57:16Z</time></trkpt><trkpt lat="43.231833" lon="-1.094946"><ele>161.64</ele><time>2011-09-14T13:57:17Z</time></trkpt><trkpt lat="43.231184" lon="-1.093791"><ele>159.24</ele><time>2011-09-14T13:57:31Z</time></trkpt><trkpt lat="43.230477" lon="-1.092910"><ele>158.27</ele><time>2011-09-14T13:57:42Z</time></trkpt><trkpt lat="43.229642" lon="-1.092021"><ele>153.47</ele><time>2011-09-14T13:57:51Z</time></trkpt><trkpt lat="43.228035" lon="-1.090302"><ele>140.49</ele><time>2011-09-14T13:58:06Z</time></trkpt><trkpt lat="43.226505" lon="-1.088599"><ele>149.14</ele><time>2011-09-14T13:58:20Z</time></trkpt><trkpt lat="43.225877" lon="-1.087959"><ele>155.39</ele><time>2011-09-14T13:58:26Z</time></trkpt><trkpt lat="43.225759" lon="-1.087906"><ele>156.35</ele><time>2011-09-14T13:58:27Z</time></trkpt><trkpt lat="43.225634" lon="-1.087868"><ele>156.83</ele><time>2011-09-14T13:58:28Z</time></trkpt><trkpt lat="43.224008" lon="-1.087436"><ele>160.68</ele><time>2011-09-14T13:58:39Z</time></trkpt><trkpt lat="43.222428" lon="-1.086988"><ele>154.43</ele><time>2011-09-14T13:58:48Z</time></trkpt><trkpt lat="43.220157" lon="-1.086345"><ele>148.18</ele><time>2011-09-14T13:59:00Z</time></trkpt><trkpt lat="43.218887" lon="-1.085967"><ele>152.99</ele><time>2011-09-14T13:59:08Z</time></trkpt><trkpt lat="43.216739" lon="-1.085344"><ele>152.03</ele><time>2011-09-14T13:59:19Z</time></trkpt><trkpt lat="43.214404" lon="-1.084647"><ele>160.68</ele><time>2011-09-14T13:59:31Z</time></trkpt><trkpt lat="43.213071" lon="-1.084226"><ele>160.20</ele><time>2011-09-14T13:59:39Z</time></trkpt><trkpt lat="43.212931" lon="-1.084138"><ele>159.72</ele><time>2011-09-14T13:59:40Z</time></trkpt><trkpt lat="43.212798" lon="-1.084022"><ele>159.72</ele><time>2011-09-14T13:59:41Z</time></trkpt><trkpt lat="43.212676" lon="-1.083883"><ele>159.24</ele><time>2011-09-14T13:59:42Z</time></trkpt><trkpt lat="43.212562" lon="-1.083726"><ele>159.24</ele><time>2011-09-14T13:59:43Z</time></trkpt><trkpt lat="43.212453" lon="-1.083560"><ele>158.75</ele><time>2011-09-14T13:59:44Z</time></trkpt><trkpt lat="43.210914" lon="-1.081263"><ele>155.87</ele><time>2011-09-14T13:59:57Z</time></trkpt><trkpt lat="43.209532" lon="-1.079149"><ele>151.06</ele><time>2011-09-14T14:00:09Z</time></trkpt><trkpt lat="43.208224" lon="-1.077145"><ele>153.95</ele><time>2011-09-14T14:00:21Z</time></trkpt><trkpt lat="43.206952" lon="-1.075101"><ele>152.03</ele><time>2011-09-14T14:00:31Z</time></trkpt><trkpt lat="43.204954" lon="-1.071526"><ele>163.08</ele><time>2011-09-14T14:00:48Z</time></trkpt><trkpt lat="43.203551" lon="-1.069243"><ele>164.04</ele><time>2011-09-14T14:01:00Z</time></trkpt><trkpt lat="43.202798" lon="-1.067659"><ele>170.29</ele><time>2011-09-14T14:01:09Z</time></trkpt><trkpt lat="43.201684" lon="-1.065290"><ele>178.46</ele><time>2011-09-14T14:01:23Z</time></trkpt><trkpt lat="43.200826" lon="-1.063598"><ele>173.66</ele><time>2011-09-14T14:01:34Z</time></trkpt><trkpt lat="43.199911" lon="-1.062321"><ele>170.29</ele><time>2011-09-14T14:01:42Z</time></trkpt><trkpt lat="43.198345" lon="-1.060526"><ele>167.89</ele><time>2011-09-14T14:01:53Z</time></trkpt><trkpt lat="43.197168" lon="-1.059691"><ele>174.14</ele><time>2011-09-14T14:02:00Z</time></trkpt><trkpt lat="43.195918" lon="-1.058979"><ele>179.42</ele><time>2011-09-14T14:02:08Z</time></trkpt><trkpt lat="43.195776" lon="-1.058936"><ele>180.87</ele><time>2011-09-14T14:02:09Z</time></trkpt><trkpt lat="43.195635" lon="-1.058913"><ele>180.87</ele><time>2011-09-14T14:02:10Z</time></trkpt><trkpt lat="43.195367" lon="-1.058889"><ele>182.79</ele><time>2011-09-14T14:02:12Z</time></trkpt><trkpt lat="43.195248" lon="-1.058852"><ele>183.27</ele><time>2011-09-14T14:02:13Z</time></trkpt><trkpt lat="43.195148" lon="-1.058789"><ele>182.79</ele><time>2011-09-14T14:02:14Z</time></trkpt><trkpt lat="43.195063" lon="-1.058708"><ele>182.31</ele><time>2011-09-14T14:02:15Z</time></trkpt><trkpt lat="43.194994" lon="-1.058627"><ele>182.31</ele><time>2011-09-14T14:02:16Z</time></trkpt><trkpt lat="43.194651" lon="-1.058203"><ele>181.83</ele><time>2011-09-14T14:02:23Z</time></trkpt><trkpt lat="43.194603" lon="-1.058108"><ele>182.31</ele><time>2011-09-14T14:02:24Z</time></trkpt><trkpt lat="43.194558" lon="-1.057997"><ele>182.79</ele><time>2011-09-14T14:02:25Z</time></trkpt><trkpt lat="43.194524" lon="-1.057874"><ele>183.27</ele><time>2011-09-14T14:02:26Z</time></trkpt><trkpt lat="43.194498" lon="-1.057753"><ele>183.75</ele><time>2011-09-14T14:02:27Z</time></trkpt><trkpt lat="43.194333" lon="-1.056619"><ele>179.90</ele><time>2011-09-14T14:02:36Z</time></trkpt><trkpt lat="43.194290" lon="-1.056484"><ele>179.90</ele><time>2011-09-14T14:02:37Z</time></trkpt><trkpt lat="43.194005" lon="-1.055780"><ele>180.87</ele><time>2011-09-14T14:02:43Z</time></trkpt><trkpt lat="43.193937" lon="-1.055685"><ele>181.35</ele><time>2011-09-14T14:02:44Z</time></trkpt><trkpt lat="43.193846" lon="-1.055597"><ele>181.83</ele><time>2011-09-14T14:02:45Z</time></trkpt><trkpt lat="43.193674" lon="-1.055449"><ele>182.79</ele><time>2011-09-14T14:02:47Z</time></trkpt><trkpt lat="43.193600" lon="-1.055348"><ele>182.79</ele><time>2011-09-14T14:02:48Z</time></trkpt><trkpt lat="43.193289" lon="-1.054923"><ele>185.19</ele><time>2011-09-14T14:02:52Z</time></trkpt><trkpt lat="43.193186" lon="-1.054847"><ele>185.67</ele><time>2011-09-14T14:02:53Z</time></trkpt><trkpt lat="43.193072" lon="-1.054797"><ele>186.63</ele><time>2011-09-14T14:02:54Z</time></trkpt><trkpt lat="43.192953" lon="-1.054769"><ele>187.11</ele><time>2011-09-14T14:02:55Z</time></trkpt><trkpt lat="43.192832" lon="-1.054761"><ele>188.56</ele><time>2011-09-14T14:02:56Z</time></trkpt><trkpt lat="43.192715" lon="-1.054752"><ele>189.52</ele><time>2011-09-14T14:02:57Z</time></trkpt><trkpt lat="43.192601" lon="-1.054730"><ele>190.96</ele><time>2011-09-14T14:02:58Z</time></trkpt><trkpt lat="43.192486" lon="-1.054699"><ele>192.40</ele><time>2011-09-14T14:02:59Z</time></trkpt><trkpt lat="43.192379" lon="-1.054656"><ele>194.32</ele><time>2011-09-14T14:03:00Z</time></trkpt><trkpt lat="43.192268" lon="-1.054577"><ele>195.28</ele><time>2011-09-14T14:03:01Z</time></trkpt><trkpt lat="43.192168" lon="-1.054475"><ele>196.73</ele><time>2011-09-14T14:03:02Z</time></trkpt><trkpt lat="43.192086" lon="-1.054363"><ele>197.21</ele><time>2011-09-14T14:03:03Z</time></trkpt><trkpt lat="43.192021" lon="-1.054254"><ele>197.69</ele><time>2011-09-14T14:03:04Z</time></trkpt><trkpt lat="43.191967" lon="-1.054157"><ele>198.17</ele><time>2011-09-14T14:03:05Z</time></trkpt><trkpt lat="43.191639" lon="-1.053569"><ele>202.01</ele><time>2011-09-14T14:03:13Z</time></trkpt><trkpt lat="43.191079" lon="-1.052661"><ele>206.82</ele><time>2011-09-14T14:03:21Z</time></trkpt><trkpt lat="43.190295" lon="-1.051770"><ele>211.15</ele><time>2011-09-14T14:03:28Z</time></trkpt><trkpt lat="43.189484" lon="-1.050807"><ele>215.47</ele><time>2011-09-14T14:03:35Z</time></trkpt><trkpt lat="43.189407" lon="-1.050619"><ele>216.43</ele><time>2011-09-14T14:03:36Z</time></trkpt><trkpt lat="43.188789" lon="-1.048898"><ele>219.80</ele><time>2011-09-14T14:03:44Z</time></trkpt><trkpt lat="43.188038" lon="-1.046844"><ele>221.24</ele><time>2011-09-14T14:03:54Z</time></trkpt><trkpt lat="43.187989" lon="-1.046626"><ele>220.28</ele><time>2011-09-14T14:03:55Z</time></trkpt><trkpt lat="43.187951" lon="-1.046405"><ele>219.32</ele><time>2011-09-14T14:03:56Z</time></trkpt><trkpt lat="43.187931" lon="-1.046177"><ele>218.84</ele><time>2011-09-14T14:03:57Z</time></trkpt><trkpt lat="43.187931" lon="-1.045943"><ele>217.88</ele><time>2011-09-14T14:03:58Z</time></trkpt><trkpt lat="43.187949" lon="-1.045709"><ele>217.40</ele><time>2011-09-14T14:03:59Z</time></trkpt><trkpt lat="43.187986" lon="-1.045480"><ele>216.91</ele><time>2011-09-14T14:04:00Z</time></trkpt><trkpt lat="43.188043" lon="-1.045269"><ele>216.43</ele><time>2011-09-14T14:04:01Z</time></trkpt><trkpt lat="43.188150" lon="-1.045092"><ele>216.43</ele><time>2011-09-14T14:04:02Z</time></trkpt><trkpt lat="43.188265" lon="-1.044943"><ele>215.95</ele><time>2011-09-14T14:04:03Z</time></trkpt><trkpt lat="43.188399" lon="-1.044838"><ele>215.47</ele><time>2011-09-14T14:04:04Z</time></trkpt><trkpt lat="43.188554" lon="-1.044767"><ele>215.47</ele><time>2011-09-14T14:04:05Z</time></trkpt><trkpt lat="43.188715" lon="-1.044700"><ele>215.47</ele><time>2011-09-14T14:04:06Z</time></trkpt><trkpt lat="43.188876" lon="-1.044642"><ele>215.47</ele><time>2011-09-14T14:04:07Z</time></trkpt><trkpt lat="43.189167" lon="-1.044501"><ele>215.47</ele><time>2011-09-14T14:04:09Z</time></trkpt><trkpt lat="43.189282" lon="-1.044390"><ele>215.47</ele><time>2011-09-14T14:04:10Z</time></trkpt><trkpt lat="43.189359" lon="-1.044256"><ele>215.47</ele><time>2011-09-14T14:04:11Z</time></trkpt><trkpt lat="43.189394" lon="-1.044107"><ele>215.47</ele><time>2011-09-14T14:04:12Z</time></trkpt><trkpt lat="43.189377" lon="-1.043936"><ele>215.95</ele><time>2011-09-14T14:04:13Z</time></trkpt><trkpt lat="43.189354" lon="-1.043768"><ele>215.95</ele><time>2011-09-14T14:04:14Z</time></trkpt><trkpt lat="43.189291" lon="-1.043610"><ele>216.91</ele><time>2011-09-14T14:04:15Z</time></trkpt><trkpt lat="43.189189" lon="-1.043478"><ele>217.40</ele><time>2011-09-14T14:04:16Z</time></trkpt><trkpt lat="43.189057" lon="-1.043410"><ele>217.88</ele><time>2011-09-14T14:04:17Z</time></trkpt><trkpt lat="43.188915" lon="-1.043381"><ele>218.84</ele><time>2011-09-14T14:04:18Z</time></trkpt><trkpt lat="43.188760" lon="-1.043408"><ele>219.32</ele><time>2011-09-14T14:04:19Z</time></trkpt><trkpt lat="43.188599" lon="-1.043419"><ele>220.76</ele><time>2011-09-14T14:04:20Z</time></trkpt><trkpt lat="43.188432" lon="-1.043472"><ele>221.72</ele><time>2011-09-14T14:04:21Z</time></trkpt><trkpt lat="43.188254" lon="-1.043538"><ele>222.68</ele><time>2011-09-14T14:04:22Z</time></trkpt><trkpt lat="43.187877" lon="-1.043603"><ele>225.09</ele><time>2011-09-14T14:04:24Z</time></trkpt><trkpt lat="43.187696" lon="-1.043598"><ele>226.53</ele><time>2011-09-14T14:04:25Z</time></trkpt><trkpt lat="43.187519" lon="-1.043576"><ele>227.97</ele><time>2011-09-14T14:04:26Z</time></trkpt><trkpt lat="43.187335" lon="-1.043535"><ele>229.41</ele><time>2011-09-14T14:04:27Z</time></trkpt><trkpt lat="43.187150" lon="-1.043478"><ele>230.85</ele><time>2011-09-14T14:04:28Z</time></trkpt><trkpt lat="43.186965" lon="-1.043406"><ele>233.74</ele><time>2011-09-14T14:04:29Z</time></trkpt><trkpt lat="43.186611" lon="-1.043207"><ele>238.54</ele><time>2011-09-14T14:04:31Z</time></trkpt><trkpt lat="43.186453" lon="-1.043067"><ele>240.95</ele><time>2011-09-14T14:04:32Z</time></trkpt><trkpt lat="43.186310" lon="-1.042902"><ele>243.35</ele><time>2011-09-14T14:04:33Z</time></trkpt><trkpt lat="43.186181" lon="-1.042715"><ele>246.23</ele><time>2011-09-14T14:04:34Z</time></trkpt><trkpt lat="43.186071" lon="-1.042506"><ele>248.64</ele><time>2011-09-14T14:04:35Z</time></trkpt><trkpt lat="43.185985" lon="-1.042274"><ele>251.04</ele><time>2011-09-14T14:04:36Z</time></trkpt><trkpt lat="43.185912" lon="-1.042032"><ele>252.96</ele><time>2011-09-14T14:04:37Z</time></trkpt><trkpt lat="43.185844" lon="-1.041788"><ele>255.37</ele><time>2011-09-14T14:04:38Z</time></trkpt><trkpt lat="43.185475" lon="-1.039722"><ele>266.90</ele><time>2011-09-14T14:04:46Z</time></trkpt><trkpt lat="43.185478" lon="-1.039447"><ele>267.38</ele><time>2011-09-14T14:04:47Z</time></trkpt><trkpt lat="43.185515" lon="-1.039168"><ele>267.38</ele><time>2011-09-14T14:04:48Z</time></trkpt><trkpt lat="43.185573" lon="-1.038889"><ele>267.86</ele><time>2011-09-14T14:04:49Z</time></trkpt><trkpt lat="43.185650" lon="-1.038607"><ele>269.31</ele><time>2011-09-14T14:04:50Z</time></trkpt><trkpt lat="43.185732" lon="-1.038318"><ele>270.75</ele><time>2011-09-14T14:04:51Z</time></trkpt><trkpt lat="43.186423" lon="-1.035977"><ele>283.73</ele><time>2011-09-14T14:05:00Z</time></trkpt><trkpt lat="43.186709" lon="-1.033401"><ele>298.15</ele><time>2011-09-14T14:05:10Z</time></trkpt><trkpt lat="43.186975" lon="-1.031658"><ele>308.24</ele><time>2011-09-14T14:05:17Z</time></trkpt><trkpt lat="43.187064" lon="-1.031434"><ele>309.20</ele><time>2011-09-14T14:05:18Z</time></trkpt><trkpt lat="43.187175" lon="-1.031226"><ele>311.12</ele><time>2011-09-14T14:05:19Z</time></trkpt><trkpt lat="43.187305" lon="-1.031037"><ele>312.57</ele><time>2011-09-14T14:05:20Z</time></trkpt><trkpt lat="43.187444" lon="-1.030874"><ele>314.01</ele><time>2011-09-14T14:05:21Z</time></trkpt><trkpt lat="43.187581" lon="-1.030731"><ele>314.97</ele><time>2011-09-14T14:05:22Z</time></trkpt><trkpt lat="43.187712" lon="-1.030600"><ele>315.93</ele><time>2011-09-14T14:05:23Z</time></trkpt><trkpt lat="43.187804" lon="-1.030435"><ele>317.85</ele><time>2011-09-14T14:05:24Z</time></trkpt><trkpt lat="43.187874" lon="-1.030237"><ele>318.81</ele><time>2011-09-14T14:05:25Z</time></trkpt><trkpt lat="43.188080" lon="-1.029398"><ele>322.18</ele><time>2011-09-14T14:05:29Z</time></trkpt><trkpt lat="43.188156" lon="-1.029196"><ele>323.14</ele><time>2011-09-14T14:05:30Z</time></trkpt><trkpt lat="43.188251" lon="-1.029000"><ele>324.10</ele><time>2011-09-14T14:05:31Z</time></trkpt><trkpt lat="43.188360" lon="-1.028816"><ele>325.06</ele><time>2011-09-14T14:05:32Z</time></trkpt><trkpt lat="43.188499" lon="-1.028667"><ele>326.02</ele><time>2011-09-14T14:05:33Z</time></trkpt><trkpt lat="43.188658" lon="-1.028540"><ele>326.99</ele><time>2011-09-14T14:05:34Z</time></trkpt><trkpt lat="43.188822" lon="-1.028439"><ele>327.95</ele><time>2011-09-14T14:05:35Z</time></trkpt><trkpt lat="43.188980" lon="-1.028361"><ele>328.91</ele><time>2011-09-14T14:05:36Z</time></trkpt><trkpt lat="43.189127" lon="-1.028290"><ele>329.87</ele><time>2011-09-14T14:05:37Z</time></trkpt><trkpt lat="43.189250" lon="-1.028182"><ele>330.83</ele><time>2011-09-14T14:05:38Z</time></trkpt><trkpt lat="43.189342" lon="-1.028028"><ele>331.79</ele><time>2011-09-14T14:05:39Z</time></trkpt><trkpt lat="43.189409" lon="-1.027840"><ele>332.75</ele><time>2011-09-14T14:05:40Z</time></trkpt><trkpt lat="43.189448" lon="-1.027645"><ele>333.23</ele><time>2011-09-14T14:05:41Z</time></trkpt><trkpt lat="43.189495" lon="-1.027438"><ele>334.20</ele><time>2011-09-14T14:05:42Z</time></trkpt><trkpt lat="43.189571" lon="-1.027232"><ele>335.64</ele><time>2011-09-14T14:05:43Z</time></trkpt><trkpt lat="43.189675" lon="-1.027032"><ele>336.60</ele><time>2011-09-14T14:05:44Z</time></trkpt><trkpt lat="43.189797" lon="-1.026833"><ele>338.04</ele><time>2011-09-14T14:05:45Z</time></trkpt><trkpt lat="43.190920" lon="-1.025045"><ele>349.10</ele><time>2011-09-14T14:05:54Z</time></trkpt><trkpt lat="43.191664" lon="-1.023630"><ele>356.79</ele><time>2011-09-14T14:06:01Z</time></trkpt><trkpt lat="43.192037" lon="-1.023151"><ele>360.15</ele><time>2011-09-14T14:06:04Z</time></trkpt><trkpt lat="43.192172" lon="-1.023074"><ele>361.11</ele><time>2011-09-14T14:06:05Z</time></trkpt><trkpt lat="43.192322" lon="-1.023061"><ele>362.55</ele><time>2011-09-14T14:06:06Z</time></trkpt><trkpt lat="43.192486" lon="-1.023077"><ele>363.52</ele><time>2011-09-14T14:06:07Z</time></trkpt><trkpt lat="43.192671" lon="-1.023164"><ele>365.44</ele><time>2011-09-14T14:06:08Z</time></trkpt><trkpt lat="43.192846" lon="-1.023235"><ele>366.88</ele><time>2011-09-14T14:06:09Z</time></trkpt><trkpt lat="43.192972" lon="-1.023361"><ele>368.32</ele><time>2011-09-14T14:06:10Z</time></trkpt><trkpt lat="43.193111" lon="-1.023530"><ele>369.28</ele><time>2011-09-14T14:06:11Z</time></trkpt><trkpt lat="43.193270" lon="-1.023688"><ele>370.73</ele><time>2011-09-14T14:06:12Z</time></trkpt><trkpt lat="43.194684" lon="-1.024652"><ele>388.03</ele><time>2011-09-14T14:06:21Z</time></trkpt><trkpt lat="43.194885" lon="-1.024583"><ele>389.95</ele><time>2011-09-14T14:06:22Z</time></trkpt><trkpt lat="43.195705" lon="-1.024429"><ele>395.24</ele><time>2011-09-14T14:06:27Z</time></trkpt><trkpt lat="43.195832" lon="-1.024352"><ele>396.20</ele><time>2011-09-14T14:06:28Z</time></trkpt><trkpt lat="43.196055" lon="-1.024195"><ele>397.64</ele><time>2011-09-14T14:06:30Z</time></trkpt><trkpt lat="43.196818" lon="-1.023554"><ele>397.16</ele><time>2011-09-14T14:06:37Z</time></trkpt><trkpt lat="43.196890" lon="-1.023417"><ele>397.16</ele><time>2011-09-14T14:06:38Z</time></trkpt><trkpt lat="43.196950" lon="-1.023272"><ele>397.16</ele><time>2011-09-14T14:06:39Z</time></trkpt><trkpt lat="43.197422" lon="-1.021766"><ele>398.12</ele><time>2011-09-14T14:06:49Z</time></trkpt><trkpt lat="43.197635" lon="-1.021379"><ele>398.12</ele><time>2011-09-14T14:06:52Z</time></trkpt><trkpt lat="43.197732" lon="-1.021256"><ele>398.12</ele><time>2011-09-14T14:06:53Z</time></trkpt><trkpt lat="43.198541" lon="-1.020153"><ele>404.85</ele><time>2011-09-14T14:07:00Z</time></trkpt><trkpt lat="43.199507" lon="-1.018967"><ele>413.98</ele><time>2011-09-14T14:07:07Z</time></trkpt><trkpt lat="43.200136" lon="-1.017741"><ele>422.16</ele><time>2011-09-14T14:07:13Z</time></trkpt><trkpt lat="43.200209" lon="-1.017502"><ele>423.60</ele><time>2011-09-14T14:07:14Z</time></trkpt><trkpt lat="43.200273" lon="-1.017247"><ele>425.04</ele><time>2011-09-14T14:07:15Z</time></trkpt><trkpt lat="43.200759" lon="-1.015214"><ele>436.10</ele><time>2011-09-14T14:07:23Z</time></trkpt><trkpt lat="43.201220" lon="-1.013527"><ele>446.67</ele><time>2011-09-14T14:07:31Z</time></trkpt><trkpt lat="43.201233" lon="-1.013325"><ele>448.11</ele><time>2011-09-14T14:07:32Z</time></trkpt><trkpt lat="43.201220" lon="-1.013116"><ele>449.55</ele><time>2011-09-14T14:07:33Z</time></trkpt><trkpt lat="43.200987" lon="-1.011026"><ele>461.57</ele><time>2011-09-14T14:07:42Z</time></trkpt><trkpt lat="43.200666" lon="-1.009291"><ele>474.55</ele><time>2011-09-14T14:07:50Z</time></trkpt><trkpt lat="43.200595" lon="-1.009096"><ele>475.51</ele><time>2011-09-14T14:07:51Z</time></trkpt><trkpt lat="43.200506" lon="-1.008919"><ele>476.95</ele><time>2011-09-14T14:07:52Z</time></trkpt><trkpt lat="43.200402" lon="-1.008758"><ele>477.91</ele><time>2011-09-14T14:07:53Z</time></trkpt><trkpt lat="43.200287" lon="-1.008602"><ele>478.87</ele><time>2011-09-14T14:07:54Z</time></trkpt><trkpt lat="43.199956" lon="-1.008083"><ele>482.24</ele><time>2011-09-14T14:07:57Z</time></trkpt><trkpt lat="43.199881" lon="-1.007868"><ele>483.68</ele><time>2011-09-14T14:07:58Z</time></trkpt><trkpt lat="43.199827" lon="-1.007633"><ele>484.64</ele><time>2011-09-14T14:07:59Z</time></trkpt><trkpt lat="43.199787" lon="-1.007390"><ele>485.60</ele><time>2011-09-14T14:08:00Z</time></trkpt><trkpt lat="43.199756" lon="-1.007149"><ele>486.56</ele><time>2011-09-14T14:08:01Z</time></trkpt><trkpt lat="43.199678" lon="-1.005326"><ele>493.29</ele><time>2011-09-14T14:08:09Z</time></trkpt><trkpt lat="43.199649" lon="-1.005100"><ele>494.26</ele><time>2011-09-14T14:08:10Z</time></trkpt><trkpt lat="43.199470" lon="-1.003946"><ele>497.14</ele><time>2011-09-14T14:08:15Z</time></trkpt><trkpt lat="43.199457" lon="-1.003716"><ele>497.62</ele><time>2011-09-14T14:08:16Z</time></trkpt><trkpt lat="43.199467" lon="-1.003485"><ele>498.58</ele><time>2011-09-14T14:08:17Z</time></trkpt><trkpt lat="43.199501" lon="-1.003261"><ele>499.06</ele><time>2011-09-14T14:08:18Z</time></trkpt><trkpt lat="43.199567" lon="-1.003046"><ele>499.06</ele><time>2011-09-14T14:08:19Z</time></trkpt><trkpt lat="43.199648" lon="-1.002842"><ele>499.06</ele><time>2011-09-14T14:08:20Z</time></trkpt><trkpt lat="43.199728" lon="-1.002641"><ele>499.06</ele><time>2011-09-14T14:08:21Z</time></trkpt><trkpt lat="43.199791" lon="-1.002431"><ele>499.06</ele><time>2011-09-14T14:08:22Z</time></trkpt><trkpt lat="43.199824" lon="-1.002210"><ele>499.54</ele><time>2011-09-14T14:08:23Z</time></trkpt><trkpt lat="43.199821" lon="-1.001981"><ele>500.02</ele><time>2011-09-14T14:08:24Z</time></trkpt><trkpt lat="43.199796" lon="-1.001748"><ele>500.50</ele><time>2011-09-14T14:08:25Z</time></trkpt><trkpt lat="43.199771" lon="-1.001510"><ele>501.46</ele><time>2011-09-14T14:08:26Z</time></trkpt><trkpt lat="43.199745" lon="-1.001035"><ele>502.43</ele><time>2011-09-14T14:08:28Z</time></trkpt><trkpt lat="43.199770" lon="-1.000826"><ele>502.91</ele><time>2011-09-14T14:08:29Z</time></trkpt><trkpt lat="43.199844" lon="-1.000648"><ele>503.39</ele><time>2011-09-14T14:08:30Z</time></trkpt><trkpt lat="43.199939" lon="-1.000499"><ele>503.87</ele><time>2011-09-14T14:08:31Z</time></trkpt><trkpt lat="43.200053" lon="-1.000386"><ele>503.87</ele><time>2011-09-14T14:08:32Z</time></trkpt><trkpt lat="43.200188" lon="-1.000318"><ele>504.35</ele><time>2011-09-14T14:08:33Z</time></trkpt><trkpt lat="43.200302" lon="-1.000298"><ele>505.79</ele><time>2011-09-14T14:08:34Z</time></trkpt><trkpt lat="43.200404" lon="-1.000277"><ele>505.79</ele><time>2011-09-14T14:08:35Z</time></trkpt><trkpt lat="43.200466" lon="-1.000275"><ele>506.27</ele><time>2011-09-14T14:08:36Z</time></trkpt><trkpt lat="43.200478" lon="-1.000333"><ele>506.75</ele><time>2011-09-14T14:08:40Z</time></trkpt><trkpt lat="43.200544" lon="-1.000347"><ele>503.87</ele><time>2011-09-14T14:09:08Z</time></trkpt><trkpt lat="43.200577" lon="-1.000372"><ele>524.06</ele><time>2011-09-14T14:09:59Z</time></trkpt><trkpt lat="43.201207" lon="-1.000482"><ele>517.33</ele><time>2011-09-14T14:10:06Z</time></trkpt><trkpt lat="43.202058" lon="-1.000592"><ele>508.67</ele><time>2011-09-14T14:10:13Z</time></trkpt><trkpt lat="43.202189" lon="-1.000556"><ele>507.23</ele><time>2011-09-14T14:10:14Z</time></trkpt><trkpt lat="43.202325" lon="-1.000490"><ele>505.31</ele><time>2011-09-14T14:10:15Z</time></trkpt><trkpt lat="43.202460" lon="-1.000395"><ele>504.35</ele><time>2011-09-14T14:10:16Z</time></trkpt><trkpt lat="43.202608" lon="-1.000224"><ele>503.39</ele><time>2011-09-14T14:10:17Z</time></trkpt><trkpt lat="43.202734" lon="-1.000054"><ele>501.95</ele><time>2011-09-14T14:10:18Z</time></trkpt><trkpt lat="43.202848" lon="-0.999865"><ele>500.98</ele><time>2011-09-14T14:10:19Z</time></trkpt><trkpt lat="43.202952" lon="-0.999662"><ele>499.54</ele><time>2011-09-14T14:10:20Z</time></trkpt><trkpt lat="43.203435" lon="-0.998723"><ele>494.74</ele><time>2011-09-14T14:10:25Z</time></trkpt><trkpt lat="43.203565" lon="-0.998596"><ele>494.26</ele><time>2011-09-14T14:10:26Z</time></trkpt><trkpt lat="43.203713" lon="-0.998507"><ele>493.29</ele><time>2011-09-14T14:10:27Z</time></trkpt><trkpt lat="43.203862" lon="-0.998431"><ele>492.81</ele><time>2011-09-14T14:10:28Z</time></trkpt><trkpt lat="43.204004" lon="-0.998354"><ele>492.33</ele><time>2011-09-14T14:10:29Z</time></trkpt><trkpt lat="43.204138" lon="-0.998260"><ele>491.37</ele><time>2011-09-14T14:10:30Z</time></trkpt><trkpt lat="43.204259" lon="-0.998124"><ele>490.89</ele><time>2011-09-14T14:10:31Z</time></trkpt><trkpt lat="43.204368" lon="-0.997958"><ele>490.41</ele><time>2011-09-14T14:10:32Z</time></trkpt><trkpt lat="43.204477" lon="-0.997772"><ele>489.45</ele><time>2011-09-14T14:10:33Z</time></trkpt><trkpt lat="43.204578" lon="-0.997589"><ele>488.97</ele><time>2011-09-14T14:10:34Z</time></trkpt><trkpt lat="43.204981" lon="-0.997055"><ele>487.05</ele><time>2011-09-14T14:10:38Z</time></trkpt><trkpt lat="43.205108" lon="-0.997001"><ele>486.56</ele><time>2011-09-14T14:10:39Z</time></trkpt><trkpt lat="43.205265" lon="-0.996954"><ele>485.60</ele><time>2011-09-14T14:10:40Z</time></trkpt><trkpt lat="43.205883" lon="-0.996744"><ele>480.32</ele><time>2011-09-14T14:10:44Z</time></trkpt><trkpt lat="43.206018" lon="-0.996661"><ele>478.87</ele><time>2011-09-14T14:10:45Z</time></trkpt><trkpt lat="43.206127" lon="-0.996541"><ele>477.43</ele><time>2011-09-14T14:10:46Z</time></trkpt><trkpt lat="43.206207" lon="-0.996386"><ele>476.47</ele><time>2011-09-14T14:10:47Z</time></trkpt><trkpt lat="43.206275" lon="-0.996209"><ele>475.51</ele><time>2011-09-14T14:10:48Z</time></trkpt><trkpt lat="43.206332" lon="-0.996011"><ele>474.55</ele><time>2011-09-14T14:10:49Z</time></trkpt><trkpt lat="43.206379" lon="-0.995796"><ele>473.59</ele><time>2011-09-14T14:10:50Z</time></trkpt><trkpt lat="43.206415" lon="-0.995572"><ele>472.14</ele><time>2011-09-14T14:10:51Z</time></trkpt><trkpt lat="43.206448" lon="-0.995354"><ele>471.18</ele><time>2011-09-14T14:10:52Z</time></trkpt><trkpt lat="43.206538" lon="-0.994952"><ele>468.30</ele><time>2011-09-14T14:10:54Z</time></trkpt><trkpt lat="43.206606" lon="-0.994772"><ele>467.34</ele><time>2011-09-14T14:10:55Z</time></trkpt><trkpt lat="43.206688" lon="-0.994608"><ele>465.90</ele><time>2011-09-14T14:10:56Z</time></trkpt><trkpt lat="43.207029" lon="-0.993989"><ele>461.09</ele><time>2011-09-14T14:11:00Z</time></trkpt><trkpt lat="43.207073" lon="-0.993793"><ele>459.65</ele><time>2011-09-14T14:11:01Z</time></trkpt><trkpt lat="43.207111" lon="-0.993578"><ele>458.21</ele><time>2011-09-14T14:11:02Z</time></trkpt><trkpt lat="43.207125" lon="-0.993349"><ele>456.76</ele><time>2011-09-14T14:11:03Z</time></trkpt><trkpt lat="43.207114" lon="-0.993116"><ele>455.32</ele><time>2011-09-14T14:11:04Z</time></trkpt><trkpt lat="43.207079" lon="-0.992891"><ele>453.88</ele><time>2011-09-14T14:11:05Z</time></trkpt><trkpt lat="43.207029" lon="-0.992676"><ele>452.44</ele><time>2011-09-14T14:11:06Z</time></trkpt><trkpt lat="43.206981" lon="-0.992465"><ele>451.00</ele><time>2011-09-14T14:11:07Z</time></trkpt><trkpt lat="43.206951" lon="-0.992255"><ele>450.03</ele><time>2011-09-14T14:11:08Z</time></trkpt><trkpt lat="43.206947" lon="-0.992039"><ele>448.59</ele><time>2011-09-14T14:11:09Z</time></trkpt><trkpt lat="43.206969" lon="-0.991817"><ele>447.15</ele><time>2011-09-14T14:11:10Z</time></trkpt><trkpt lat="43.207015" lon="-0.991593"><ele>446.19</ele><time>2011-09-14T14:11:11Z</time></trkpt><trkpt lat="43.207087" lon="-0.991378"><ele>445.23</ele><time>2011-09-14T14:11:12Z</time></trkpt><trkpt lat="43.207185" lon="-0.991177"><ele>444.27</ele><time>2011-09-14T14:11:13Z</time></trkpt><trkpt lat="43.207295" lon="-0.990988"><ele>443.79</ele><time>2011-09-14T14:11:14Z</time></trkpt><trkpt lat="43.207759" lon="-0.990054"><ele>439.46</ele><time>2011-09-14T14:11:19Z</time></trkpt><trkpt lat="43.207808" lon="-0.989846"><ele>438.98</ele><time>2011-09-14T14:11:20Z</time></trkpt><trkpt lat="43.207839" lon="-0.989625"><ele>438.98</ele><time>2011-09-14T14:11:21Z</time></trkpt><trkpt lat="43.207855" lon="-0.989396"><ele>438.50</ele><time>2011-09-14T14:11:22Z</time></trkpt><trkpt lat="43.207857" lon="-0.989167"><ele>438.02</ele><time>2011-09-14T14:11:23Z</time></trkpt><trkpt lat="43.207847" lon="-0.988943"><ele>438.02</ele><time>2011-09-14T14:11:24Z</time></trkpt><trkpt lat="43.207830" lon="-0.988721"><ele>437.54</ele><time>2011-09-14T14:11:25Z</time></trkpt><trkpt lat="43.207594" lon="-0.986379"><ele>432.25</ele><time>2011-09-14T14:11:35Z</time></trkpt><trkpt lat="43.207632" lon="-0.985922"><ele>431.29</ele><time>2011-09-14T14:11:37Z</time></trkpt><trkpt lat="43.207673" lon="-0.985702"><ele>430.33</ele><time>2011-09-14T14:11:38Z</time></trkpt><trkpt lat="43.207730" lon="-0.985493"><ele>429.37</ele><time>2011-09-14T14:11:39Z</time></trkpt><trkpt lat="43.207802" lon="-0.985298"><ele>428.89</ele><time>2011-09-14T14:11:40Z</time></trkpt><trkpt lat="43.207885" lon="-0.985115"><ele>427.92</ele><time>2011-09-14T14:11:41Z</time></trkpt><trkpt lat="43.207973" lon="-0.984942"><ele>426.96</ele><time>2011-09-14T14:11:42Z</time></trkpt><trkpt lat="43.208175" lon="-0.984662"><ele>425.04</ele><time>2011-09-14T14:11:44Z</time></trkpt><trkpt lat="43.208300" lon="-0.984566"><ele>424.56</ele><time>2011-09-14T14:11:45Z</time></trkpt><trkpt lat="43.208435" lon="-0.984490"><ele>423.60</ele><time>2011-09-14T14:11:46Z</time></trkpt><trkpt lat="43.208574" lon="-0.984429"><ele>422.16</ele><time>2011-09-14T14:11:47Z</time></trkpt><trkpt lat="43.208707" lon="-0.984373"><ele>421.19</ele><time>2011-09-14T14:11:48Z</time></trkpt><trkpt lat="43.208824" lon="-0.984295"><ele>419.75</ele><time>2011-09-14T14:11:49Z</time></trkpt><trkpt lat="43.208915" lon="-0.984174"><ele>418.79</ele><time>2011-09-14T14:11:50Z</time></trkpt><trkpt lat="43.208975" lon="-0.984015"><ele>417.83</ele><time>2011-09-14T14:11:51Z</time></trkpt><trkpt lat="43.209011" lon="-0.983832"><ele>417.35</ele><time>2011-09-14T14:11:52Z</time></trkpt><trkpt lat="43.209031" lon="-0.983640"><ele>416.39</ele><time>2011-09-14T14:11:53Z</time></trkpt><trkpt lat="43.209043" lon="-0.983442"><ele>415.43</ele><time>2011-09-14T14:11:54Z</time></trkpt><trkpt lat="43.209069" lon="-0.983249"><ele>413.98</ele><time>2011-09-14T14:11:55Z</time></trkpt><trkpt lat="43.209128" lon="-0.983089"><ele>413.02</ele><time>2011-09-14T14:11:56Z</time></trkpt><trkpt lat="43.209209" lon="-0.982954"><ele>412.06</ele><time>2011-09-14T14:11:57Z</time></trkpt><trkpt lat="43.209323" lon="-0.982854"><ele>410.62</ele><time>2011-09-14T14:11:58Z</time></trkpt><trkpt lat="43.209435" lon="-0.982755"><ele>409.18</ele><time>2011-09-14T14:11:59Z</time></trkpt><trkpt lat="43.209533" lon="-0.982637"><ele>407.74</ele><time>2011-09-14T14:12:00Z</time></trkpt><trkpt lat="43.209601" lon="-0.982490"><ele>406.29</ele><time>2011-09-14T14:12:01Z</time></trkpt><trkpt lat="43.209631" lon="-0.982315"><ele>405.33</ele><time>2011-09-14T14:12:02Z</time></trkpt><trkpt lat="43.209619" lon="-0.982124"><ele>404.37</ele><time>2011-09-14T14:12:03Z</time></trkpt><trkpt lat="43.209588" lon="-0.981930"><ele>403.41</ele><time>2011-09-14T14:12:04Z</time></trkpt><trkpt lat="43.209540" lon="-0.981733"><ele>401.97</ele><time>2011-09-14T14:12:05Z</time></trkpt><trkpt lat="43.209472" lon="-0.981330"><ele>399.57</ele><time>2011-09-14T14:12:07Z</time></trkpt><trkpt lat="43.209468" lon="-0.981122"><ele>398.60</ele><time>2011-09-14T14:12:08Z</time></trkpt><trkpt lat="43.209480" lon="-0.980909"><ele>397.64</ele><time>2011-09-14T14:12:09Z</time></trkpt><trkpt lat="43.209497" lon="-0.980488"><ele>395.24</ele><time>2011-09-14T14:12:11Z</time></trkpt><trkpt lat="43.209473" lon="-0.980284"><ele>393.80</ele><time>2011-09-14T14:12:12Z</time></trkpt><trkpt lat="43.209422" lon="-0.980088"><ele>393.32</ele><time>2011-09-14T14:12:13Z</time></trkpt><trkpt lat="43.208669" lon="-0.978349"><ele>383.22</ele><time>2011-09-14T14:12:22Z</time></trkpt><trkpt lat="43.208268" lon="-0.977569"><ele>377.45</ele><time>2011-09-14T14:12:26Z</time></trkpt><trkpt lat="43.208201" lon="-0.977349"><ele>376.49</ele><time>2011-09-14T14:12:27Z</time></trkpt><trkpt lat="43.208153" lon="-0.977124"><ele>375.05</ele><time>2011-09-14T14:12:28Z</time></trkpt><trkpt lat="43.208120" lon="-0.976896"><ele>373.61</ele><time>2011-09-14T14:12:29Z</time></trkpt><trkpt lat="43.208103" lon="-0.976667"><ele>372.65</ele><time>2011-09-14T14:12:30Z</time></trkpt><trkpt lat="43.208104" lon="-0.976446"><ele>371.21</ele><time>2011-09-14T14:12:31Z</time></trkpt><trkpt lat="43.208136" lon="-0.976257"><ele>369.76</ele><time>2011-09-14T14:12:32Z</time></trkpt><trkpt lat="43.208207" lon="-0.976092"><ele>368.80</ele><time>2011-09-14T14:12:33Z</time></trkpt><trkpt lat="43.208303" lon="-0.975959"><ele>367.84</ele><time>2011-09-14T14:12:34Z</time></trkpt><trkpt lat="43.208409" lon="-0.975826"><ele>366.40</ele><time>2011-09-14T14:12:35Z</time></trkpt><trkpt lat="43.208527" lon="-0.975701"><ele>365.44</ele><time>2011-09-14T14:12:36Z</time></trkpt><trkpt lat="43.208649" lon="-0.975584"><ele>364.48</ele><time>2011-09-14T14:12:37Z</time></trkpt><trkpt lat="43.208773" lon="-0.975477"><ele>363.04</ele><time>2011-09-14T14:12:38Z</time></trkpt><trkpt lat="43.208898" lon="-0.975377"><ele>362.07</ele><time>2011-09-14T14:12:39Z</time></trkpt><trkpt lat="43.209115" lon="-0.975158"><ele>360.15</ele><time>2011-09-14T14:12:41Z</time></trkpt><trkpt lat="43.209166" lon="-0.975016"><ele>358.71</ele><time>2011-09-14T14:12:42Z</time></trkpt><trkpt lat="43.209171" lon="-0.974862"><ele>357.75</ele><time>2011-09-14T14:12:43Z</time></trkpt><trkpt lat="43.209131" lon="-0.974704"><ele>356.31</ele><time>2011-09-14T14:12:44Z</time></trkpt><trkpt lat="43.209062" lon="-0.974558"><ele>355.34</ele><time>2011-09-14T14:12:45Z</time></trkpt><trkpt lat="43.208957" lon="-0.974432"><ele>353.90</ele><time>2011-09-14T14:12:46Z</time></trkpt><trkpt lat="43.208827" lon="-0.974326"><ele>352.94</ele><time>2011-09-14T14:12:47Z</time></trkpt><trkpt lat="43.208680" lon="-0.974229"><ele>351.50</ele><time>2011-09-14T14:12:48Z</time></trkpt><trkpt lat="43.208518" lon="-0.974142"><ele>350.54</ele><time>2011-09-14T14:12:49Z</time></trkpt><trkpt lat="43.208349" lon="-0.974066"><ele>349.10</ele><time>2011-09-14T14:12:50Z</time></trkpt><trkpt lat="43.208179" lon="-0.974001"><ele>347.65</ele><time>2011-09-14T14:12:51Z</time></trkpt><trkpt lat="43.207503" lon="-0.973853"><ele>340.92</ele><time>2011-09-14T14:12:55Z</time></trkpt><trkpt lat="43.207335" lon="-0.973858"><ele>339.48</ele><time>2011-09-14T14:12:56Z</time></trkpt><trkpt lat="43.206531" lon="-0.973904"><ele>331.31</ele><time>2011-09-14T14:13:01Z</time></trkpt><trkpt lat="43.206387" lon="-0.973852"><ele>329.87</ele><time>2011-09-14T14:13:02Z</time></trkpt><trkpt lat="43.206240" lon="-0.973746"><ele>327.95</ele><time>2011-09-14T14:13:03Z</time></trkpt><trkpt lat="43.205085" lon="-0.973009"><ele>316.89</ele><time>2011-09-14T14:13:10Z</time></trkpt><trkpt lat="43.204291" lon="-0.972631"><ele>309.20</ele><time>2011-09-14T14:13:15Z</time></trkpt><trkpt lat="43.204146" lon="-0.972519"><ele>307.76</ele><time>2011-09-14T14:13:16Z</time></trkpt><trkpt lat="43.204003" lon="-0.972378"><ele>306.32</ele><time>2011-09-14T14:13:17Z</time></trkpt><trkpt lat="43.202579" lon="-0.970657"><ele>292.38</ele><time>2011-09-14T14:13:27Z</time></trkpt><trkpt lat="43.202220" lon="-0.970157"><ele>289.01</ele><time>2011-09-14T14:13:30Z</time></trkpt><trkpt lat="43.202136" lon="-0.969956"><ele>287.57</ele><time>2011-09-14T14:13:31Z</time></trkpt><trkpt lat="43.202064" lon="-0.969732"><ele>286.13</ele><time>2011-09-14T14:13:32Z</time></trkpt><trkpt lat="43.201331" lon="-0.967478"><ele>272.19</ele><time>2011-09-14T14:13:42Z</time></trkpt><trkpt lat="43.200817" lon="-0.966590"><ele>264.98</ele><time>2011-09-14T14:13:47Z</time></trkpt><trkpt lat="43.200693" lon="-0.966456"><ele>263.54</ele><time>2011-09-14T14:13:48Z</time></trkpt><trkpt lat="43.200563" lon="-0.966352"><ele>262.58</ele><time>2011-09-14T14:13:49Z</time></trkpt><trkpt lat="43.200431" lon="-0.966275"><ele>261.62</ele><time>2011-09-14T14:13:50Z</time></trkpt><trkpt lat="43.200297" lon="-0.966220"><ele>260.17</ele><time>2011-09-14T14:13:51Z</time></trkpt><trkpt lat="43.200160" lon="-0.966177"><ele>259.21</ele><time>2011-09-14T14:13:52Z</time></trkpt><trkpt lat="43.198855" lon="-0.966023"><ele>249.12</ele><time>2011-09-14T14:14:01Z</time></trkpt><trkpt lat="43.197559" lon="-0.966151"><ele>238.06</ele><time>2011-09-14T14:14:11Z</time></trkpt><trkpt lat="43.195895" lon="-0.965941"><ele>223.16</ele><time>2011-09-14T14:14:25Z</time></trkpt><trkpt lat="43.195788" lon="-0.965917"><ele>222.20</ele><time>2011-09-14T14:14:26Z</time></trkpt><trkpt lat="43.195683" lon="-0.965878"><ele>220.76</ele><time>2011-09-14T14:14:27Z</time></trkpt><trkpt lat="43.195577" lon="-0.965827"><ele>220.28</ele><time>2011-09-14T14:14:28Z</time></trkpt><trkpt lat="43.195469" lon="-0.965767"><ele>219.32</ele><time>2011-09-14T14:14:29Z</time></trkpt><trkpt lat="43.195364" lon="-0.965699"><ele>218.36</ele><time>2011-09-14T14:14:30Z</time></trkpt><trkpt lat="43.195255" lon="-0.965627"><ele>217.88</ele><time>2011-09-14T14:14:31Z</time></trkpt><trkpt lat="43.194927" lon="-0.965379"><ele>216.43</ele><time>2011-09-14T14:14:34Z</time></trkpt><trkpt lat="43.194828" lon="-0.965270"><ele>215.95</ele><time>2011-09-14T14:14:35Z</time></trkpt><trkpt lat="43.194743" lon="-0.965141"><ele>215.47</ele><time>2011-09-14T14:14:36Z</time></trkpt><trkpt lat="43.194676" lon="-0.964992"><ele>215.47</ele><time>2011-09-14T14:14:37Z</time></trkpt><trkpt lat="43.194627" lon="-0.964826"><ele>214.99</ele><time>2011-09-14T14:14:38Z</time></trkpt><trkpt lat="43.194590" lon="-0.964646"><ele>214.51</ele><time>2011-09-14T14:14:39Z</time></trkpt><trkpt lat="43.194559" lon="-0.964456"><ele>214.03</ele><time>2011-09-14T14:14:40Z</time></trkpt><trkpt lat="43.194161" lon="-0.961664"><ele>200.09</ele><time>2011-09-14T14:14:53Z</time></trkpt><trkpt lat="43.193721" lon="-0.958532"><ele>194.32</ele><time>2011-09-14T14:15:06Z</time></trkpt><trkpt lat="43.193321" lon="-0.956710"><ele>202.49</ele><time>2011-09-14T14:15:14Z</time></trkpt><trkpt lat="43.192990" lon="-0.954297"><ele>214.99</ele><time>2011-09-14T14:15:26Z</time></trkpt><trkpt lat="43.192799" lon="-0.953106"><ele>216.91</ele><time>2011-09-14T14:15:34Z</time></trkpt><trkpt lat="43.192777" lon="-0.953048"><ele>216.91</ele><time>2011-09-14T14:15:35Z</time></trkpt><trkpt lat="43.192758" lon="-0.953012"><ele>216.91</ele><time>2011-09-14T14:15:36Z</time></trkpt><trkpt lat="43.192752" lon="-0.952982"><ele>216.43</ele><time>2011-09-14T14:15:37Z</time></trkpt><trkpt lat="43.192751" lon="-0.952961"><ele>215.95</ele><time>2011-09-14T14:15:38Z</time></trkpt><trkpt lat="43.192761" lon="-0.952966"><ele>214.99</ele><time>2011-09-14T14:15:57Z</time></trkpt></trkseg></trk><trk><name>ACTIVE LOG: 14 SEP 2011 16:17</name><trkseg><trkpt lat="43.192778" lon="-0.952955"><ele>211.63</ele><time>2011-09-14T14:17:34Z</time></trkpt><trkpt lat="43.192782" lon="-0.952941"><ele>213.07</ele><time>2011-09-14T14:18:35Z</time></trkpt><trkpt lat="43.192788" lon="-0.952914"><ele>212.59</ele><time>2011-09-14T14:18:36Z</time></trkpt><trkpt lat="43.192794" lon="-0.952861"><ele>212.59</ele><time>2011-09-14T14:18:37Z</time></trkpt><trkpt lat="43.192787" lon="-0.952753"><ele>212.11</ele><time>2011-09-14T14:18:38Z</time></trkpt><trkpt lat="43.192775" lon="-0.952632"><ele>212.11</ele><time>2011-09-14T14:18:39Z</time></trkpt><trkpt lat="43.192761" lon="-0.952508"><ele>211.63</ele><time>2011-09-14T14:18:40Z</time></trkpt><trkpt lat="43.192658" lon="-0.951246"><ele>206.34</ele><time>2011-09-14T14:18:48Z</time></trkpt><trkpt lat="43.192621" lon="-0.950504"><ele>202.98</ele><time>2011-09-14T14:18:52Z</time></trkpt><trkpt lat="43.192570" lon="-0.950325"><ele>202.49</ele><time>2011-09-14T14:18:53Z</time></trkpt><trkpt lat="43.192494" lon="-0.950161"><ele>201.53</ele><time>2011-09-14T14:18:54Z</time></trkpt><trkpt lat="43.192403" lon="-0.950008"><ele>201.05</ele><time>2011-09-14T14:18:55Z</time></trkpt><trkpt lat="43.192307" lon="-0.949856"><ele>200.09</ele><time>2011-09-14T14:18:56Z</time></trkpt><trkpt lat="43.191568" lon="-0.948317"><ele>190.96</ele><time>2011-09-14T14:19:04Z</time></trkpt><trkpt lat="43.190775" lon="-0.946055"><ele>186.15</ele><time>2011-09-14T14:19:13Z</time></trkpt><trkpt lat="43.190164" lon="-0.943853"><ele>185.67</ele><time>2011-09-14T14:19:23Z</time></trkpt><trkpt lat="43.189805" lon="-0.942504"><ele>181.83</ele><time>2011-09-14T14:19:31Z</time></trkpt><trkpt lat="43.189790" lon="-0.942346"><ele>180.87</ele><time>2011-09-14T14:19:32Z</time></trkpt><trkpt lat="43.189795" lon="-0.941694"><ele>177.02</ele><time>2011-09-14T14:19:36Z</time></trkpt><trkpt lat="43.189814" lon="-0.941534"><ele>177.02</ele><time>2011-09-14T14:19:37Z</time></trkpt><trkpt lat="43.189844" lon="-0.941381"><ele>176.54</ele><time>2011-09-14T14:19:38Z</time></trkpt><trkpt lat="43.189886" lon="-0.941234"><ele>176.06</ele><time>2011-09-14T14:19:39Z</time></trkpt><trkpt lat="43.189942" lon="-0.941092"><ele>175.58</ele><time>2011-09-14T14:19:40Z</time></trkpt><trkpt lat="43.190012" lon="-0.940954"><ele>174.62</ele><time>2011-09-14T14:19:41Z</time></trkpt><trkpt lat="43.190088" lon="-0.940812"><ele>173.66</ele><time>2011-09-14T14:19:42Z</time></trkpt><trkpt lat="43.190954" lon="-0.938984"><ele>171.73</ele><time>2011-09-14T14:19:52Z</time></trkpt><trkpt lat="43.191842" lon="-0.936988"><ele>175.10</ele><time>2011-09-14T14:20:01Z</time></trkpt><trkpt lat="43.191910" lon="-0.936744"><ele>175.10</ele><time>2011-09-14T14:20:02Z</time></trkpt><trkpt lat="43.191961" lon="-0.936486"><ele>175.58</ele><time>2011-09-14T14:20:03Z</time></trkpt><trkpt lat="43.192423" lon="-0.933207"><ele>182.31</ele><time>2011-09-14T14:20:15Z</time></trkpt><trkpt lat="43.192555" lon="-0.932306"><ele>184.71</ele><time>2011-09-14T14:20:19Z</time></trkpt><trkpt lat="43.192614" lon="-0.932120"><ele>184.71</ele><time>2011-09-14T14:20:20Z</time></trkpt><trkpt lat="43.192697" lon="-0.931949"><ele>184.71</ele><time>2011-09-14T14:20:21Z</time></trkpt><trkpt lat="43.192799" lon="-0.931786"><ele>184.23</ele><time>2011-09-14T14:20:22Z</time></trkpt><trkpt lat="43.192909" lon="-0.931633"><ele>183.75</ele><time>2011-09-14T14:20:23Z</time></trkpt><trkpt lat="43.193148" lon="-0.931425"><ele>181.83</ele><time>2011-09-14T14:20:25Z</time></trkpt><trkpt lat="43.193287" lon="-0.931392"><ele>180.38</ele><time>2011-09-14T14:20:26Z</time></trkpt><trkpt lat="43.193437" lon="-0.931387"><ele>179.42</ele><time>2011-09-14T14:20:27Z</time></trkpt><trkpt lat="43.193887" lon="-0.931317"><ele>175.10</ele><time>2011-09-14T14:20:30Z</time></trkpt><trkpt lat="43.194019" lon="-0.931224"><ele>174.14</ele><time>2011-09-14T14:20:31Z</time></trkpt><trkpt lat="43.194128" lon="-0.931090"><ele>172.69</ele><time>2011-09-14T14:20:32Z</time></trkpt><trkpt lat="43.194207" lon="-0.930918"><ele>171.73</ele><time>2011-09-14T14:20:33Z</time></trkpt><trkpt lat="43.194255" lon="-0.930723"><ele>171.73</ele><time>2011-09-14T14:20:34Z</time></trkpt><trkpt lat="43.194286" lon="-0.930520"><ele>171.73</ele><time>2011-09-14T14:20:35Z</time></trkpt><trkpt lat="43.194308" lon="-0.930308"><ele>171.73</ele><time>2011-09-14T14:20:36Z</time></trkpt><trkpt lat="43.194325" lon="-0.930089"><ele>172.21</ele><time>2011-09-14T14:20:37Z</time></trkpt><trkpt lat="43.194382" lon="-0.928259"><ele>173.17</ele><time>2011-09-14T14:20:46Z</time></trkpt><trkpt lat="43.194374" lon="-0.927517"><ele>173.66</ele><time>2011-09-14T14:20:53Z</time></trkpt><trkpt lat="43.194207" lon="-0.926710"><ele>173.66</ele><time>2011-09-14T14:21:01Z</time></trkpt><trkpt lat="43.193895" lon="-0.925147"><ele>171.73</ele><time>2011-09-14T14:21:10Z</time></trkpt><trkpt lat="43.193894" lon="-0.923237"><ele>165.48</ele><time>2011-09-14T14:21:21Z</time></trkpt><trkpt lat="43.193974" lon="-0.922262"><ele>163.56</ele><time>2011-09-14T14:21:28Z</time></trkpt><trkpt lat="43.194029" lon="-0.922088"><ele>163.56</ele><time>2011-09-14T14:21:29Z</time></trkpt><trkpt lat="43.194104" lon="-0.921913"><ele>163.56</ele><time>2011-09-14T14:21:30Z</time></trkpt><trkpt lat="43.194201" lon="-0.921745"><ele>163.56</ele><time>2011-09-14T14:21:31Z</time></trkpt><trkpt lat="43.194321" lon="-0.921584"><ele>163.56</ele><time>2011-09-14T14:21:32Z</time></trkpt><trkpt lat="43.194456" lon="-0.921427"><ele>163.56</ele><time>2011-09-14T14:21:33Z</time></trkpt><trkpt lat="43.195173" lon="-0.920571"><ele>163.08</ele><time>2011-09-14T14:21:40Z</time></trkpt><trkpt lat="43.195756" lon="-0.919725"><ele>164.04</ele><time>2011-09-14T14:21:47Z</time></trkpt><trkpt lat="43.196760" lon="-0.918244"><ele>165.48</ele><time>2011-09-14T14:21:57Z</time></trkpt><trkpt lat="43.198186" lon="-0.916149"><ele>164.52</ele><time>2011-09-14T14:22:10Z</time></trkpt><trkpt lat="43.199181" lon="-0.915262"><ele>164.04</ele><time>2011-09-14T14:22:17Z</time></trkpt><trkpt lat="43.200483" lon="-0.914203"><ele>164.04</ele><time>2011-09-14T14:22:27Z</time></trkpt><trkpt lat="43.201120" lon="-0.913658"><ele>164.04</ele><time>2011-09-14T14:22:35Z</time></trkpt><trkpt lat="43.201217" lon="-0.913535"><ele>163.56</ele><time>2011-09-14T14:22:36Z</time></trkpt><trkpt lat="43.201306" lon="-0.913388"><ele>163.56</ele><time>2011-09-14T14:22:37Z</time></trkpt><trkpt lat="43.201385" lon="-0.913227"><ele>163.56</ele><time>2011-09-14T14:22:38Z</time></trkpt><trkpt lat="43.202207" lon="-0.911401"><ele>163.08</ele><time>2011-09-14T14:22:50Z</time></trkpt><trkpt lat="43.202663" lon="-0.910743"><ele>162.60</ele><time>2011-09-14T14:22:57Z</time></trkpt><trkpt lat="43.203199" lon="-0.909982"><ele>162.12</ele><time>2011-09-14T14:23:05Z</time></trkpt><trkpt lat="43.203858" lon="-0.909034"><ele>161.64</ele><time>2011-09-14T14:23:14Z</time></trkpt><trkpt lat="43.204389" lon="-0.908296"><ele>160.68</ele><time>2011-09-14T14:23:22Z</time></trkpt><trkpt lat="43.205351" lon="-0.906937"><ele>159.24</ele><time>2011-09-14T14:23:32Z</time></trkpt><trkpt lat="43.205767" lon="-0.906390"><ele>160.20</ele><time>2011-09-14T14:23:37Z</time></trkpt><trkpt lat="43.205863" lon="-0.906309"><ele>160.68</ele><time>2011-09-14T14:23:38Z</time></trkpt><trkpt lat="43.205968" lon="-0.906241"><ele>160.68</ele><time>2011-09-14T14:23:39Z</time></trkpt><trkpt lat="43.206080" lon="-0.906188"><ele>161.16</ele><time>2011-09-14T14:23:40Z</time></trkpt><trkpt lat="43.206195" lon="-0.906152"><ele>161.16</ele><time>2011-09-14T14:23:41Z</time></trkpt><trkpt lat="43.206310" lon="-0.906128"><ele>161.16</ele><time>2011-09-14T14:23:42Z</time></trkpt><trkpt lat="43.206423" lon="-0.906110"><ele>161.64</ele><time>2011-09-14T14:23:43Z</time></trkpt><trkpt lat="43.208229" lon="-0.905820"><ele>165.00</ele><time>2011-09-14T14:24:00Z</time></trkpt><trkpt lat="43.208606" lon="-0.905722"><ele>165.96</ele><time>2011-09-14T14:24:04Z</time></trkpt><trkpt lat="43.208689" lon="-0.905623"><ele>165.00</ele><time>2011-09-14T14:24:05Z</time></trkpt><trkpt lat="43.208762" lon="-0.905510"><ele>165.00</ele><time>2011-09-14T14:24:06Z</time></trkpt><trkpt lat="43.209053" lon="-0.905119"><ele>166.93</ele><time>2011-09-14T14:24:10Z</time></trkpt><trkpt lat="43.209112" lon="-0.905027"><ele>167.41</ele><time>2011-09-14T14:24:11Z</time></trkpt><trkpt lat="43.209186" lon="-0.904937"><ele>166.93</ele><time>2011-09-14T14:24:12Z</time></trkpt><trkpt lat="43.210516" lon="-0.903680"><ele>164.52</ele><time>2011-09-14T14:24:26Z</time></trkpt><trkpt lat="43.211914" lon="-0.902387"><ele>157.79</ele><time>2011-09-14T14:24:40Z</time></trkpt><trkpt lat="43.212518" lon="-0.901725"><ele>156.83</ele><time>2011-09-14T14:24:49Z</time></trkpt><trkpt lat="43.212989" lon="-0.901039"><ele>156.83</ele><time>2011-09-14T14:24:58Z</time></trkpt><trkpt lat="43.213403" lon="-0.900328"><ele>156.35</ele><time>2011-09-14T14:25:06Z</time></trkpt><trkpt lat="43.214112" lon="-0.898507"><ele>153.47</ele><time>2011-09-14T14:25:19Z</time></trkpt><trkpt lat="43.214921" lon="-0.896551"><ele>152.99</ele><time>2011-09-14T14:25:33Z</time></trkpt><trkpt lat="43.215010" lon="-0.896451"><ele>153.47</ele><time>2011-09-14T14:25:34Z</time></trkpt><trkpt lat="43.215090" lon="-0.896352"><ele>153.47</ele><time>2011-09-14T14:25:35Z</time></trkpt><trkpt lat="43.216575" lon="-0.894791"><ele>151.54</ele><time>2011-09-14T14:25:51Z</time></trkpt><trkpt lat="43.216947" lon="-0.894332"><ele>149.62</ele><time>2011-09-14T14:25:56Z</time></trkpt><trkpt lat="43.216993" lon="-0.894224"><ele>149.62</ele><time>2011-09-14T14:25:57Z</time></trkpt><trkpt lat="43.217077" lon="-0.893999"><ele>149.62</ele><time>2011-09-14T14:25:59Z</time></trkpt><trkpt lat="43.217139" lon="-0.893901"><ele>149.14</ele><time>2011-09-14T14:26:00Z</time></trkpt><trkpt lat="43.217213" lon="-0.893813"><ele>149.14</ele><time>2011-09-14T14:26:01Z</time></trkpt><trkpt lat="43.217291" lon="-0.893725"><ele>148.66</ele><time>2011-09-14T14:26:02Z</time></trkpt><trkpt lat="43.217366" lon="-0.893624"><ele>148.66</ele><time>2011-09-14T14:26:03Z</time></trkpt><trkpt lat="43.217435" lon="-0.893516"><ele>148.66</ele><time>2011-09-14T14:26:04Z</time></trkpt><trkpt lat="43.218392" lon="-0.892075"><ele>148.18</ele><time>2011-09-14T14:26:18Z</time></trkpt><trkpt lat="43.218599" lon="-0.891779"><ele>146.74</ele><time>2011-09-14T14:26:21Z</time></trkpt><trkpt lat="43.218666" lon="-0.891688"><ele>146.74</ele><time>2011-09-14T14:26:22Z</time></trkpt><trkpt lat="43.218721" lon="-0.891589"><ele>146.74</ele><time>2011-09-14T14:26:23Z</time></trkpt><trkpt lat="43.219403" lon="-0.890525"><ele>146.26</ele><time>2011-09-14T14:26:35Z</time></trkpt><trkpt lat="43.219843" lon="-0.889989"><ele>152.03</ele><time>2011-09-14T14:26:44Z</time></trkpt><trkpt lat="43.219863" lon="-0.889980"><ele>157.79</ele><time>2011-09-14T14:26:45Z</time></trkpt><trkpt lat="43.219886" lon="-0.889942"><ele>160.68</ele><time>2011-09-14T14:26:46Z</time></trkpt><trkpt lat="43.219902" lon="-0.889888"><ele>162.12</ele><time>2011-09-14T14:26:47Z</time></trkpt><trkpt lat="43.219880" lon="-0.889823"><ele>162.12</ele><time>2011-09-14T14:26:48Z</time></trkpt><trkpt lat="43.219844" lon="-0.889750"><ele>162.60</ele><time>2011-09-14T14:26:49Z</time></trkpt><trkpt lat="43.219805" lon="-0.889670"><ele>162.12</ele><time>2011-09-14T14:26:50Z</time></trkpt><trkpt lat="43.219780" lon="-0.889581"><ele>161.64</ele><time>2011-09-14T14:26:51Z</time></trkpt><trkpt lat="43.219667" lon="-0.889348"><ele>161.64</ele><time>2011-09-14T14:26:54Z</time></trkpt><trkpt lat="43.219646" lon="-0.889277"><ele>161.16</ele><time>2011-09-14T14:26:55Z</time></trkpt><trkpt lat="43.219588" lon="-0.888898"><ele>156.35</ele><time>2011-09-14T14:27:02Z</time></trkpt><trkpt lat="43.219588" lon="-0.888830"><ele>154.91</ele><time>2011-09-14T14:27:03Z</time></trkpt><trkpt lat="43.219561" lon="-0.888713"><ele>154.43</ele><time>2011-09-14T14:27:05Z</time></trkpt><trkpt lat="43.219543" lon="-0.888667"><ele>153.95</ele><time>2011-09-14T14:27:06Z</time></trkpt><trkpt lat="43.219558" lon="-0.888631"><ele>152.99</ele><time>2011-09-14T14:27:07Z</time></trkpt><trkpt lat="43.219525" lon="-0.888616"><ele>152.99</ele><time>2011-09-14T14:27:08Z</time></trkpt><trkpt lat="43.219456" lon="-0.888591"><ele>154.91</ele><time>2011-09-14T14:27:09Z</time></trkpt><trkpt lat="43.219381" lon="-0.888588"><ele>156.35</ele><time>2011-09-14T14:27:10Z</time></trkpt><trkpt lat="43.219313" lon="-0.888612"><ele>158.75</ele><time>2011-09-14T14:27:11Z</time></trkpt><trkpt lat="43.219251" lon="-0.888676"><ele>160.68</ele><time>2011-09-14T14:27:12Z</time></trkpt><trkpt lat="43.218734" lon="-0.889011"><ele>161.16</ele><time>2011-09-14T14:27:22Z</time></trkpt><trkpt lat="43.218752" lon="-0.889026"><ele>157.31</ele><time>2011-09-14T14:27:37Z</time></trkpt><trkpt lat="43.218744" lon="-0.889027"><ele>157.79</ele><time>2011-09-14T14:27:38Z</time></trkpt><trkpt lat="43.218735" lon="-0.889023"><ele>157.79</ele><time>2011-09-14T14:27:39Z</time></trkpt><trkpt lat="43.218734" lon="-0.888989"><ele>155.87</ele><time>2011-09-14T14:27:41Z</time></trkpt><trkpt lat="43.218849" lon="-0.888906"><ele>152.51</ele><time>2011-09-14T14:27:45Z</time></trkpt><trkpt lat="43.218924" lon="-0.888873"><ele>152.51</ele><time>2011-09-14T14:27:46Z</time></trkpt><trkpt lat="43.219569" lon="-0.888606"><ele>151.06</ele><time>2011-09-14T14:27:56Z</time></trkpt><trkpt lat="43.219628" lon="-0.888665"><ele>150.10</ele><time>2011-09-14T14:27:57Z</time></trkpt><trkpt lat="43.219815" lon="-0.888853"><ele>147.70</ele><time>2011-09-14T14:28:02Z</time></trkpt><trkpt lat="43.219852" lon="-0.888840"><ele>148.18</ele><time>2011-09-14T14:28:03Z</time></trkpt><trkpt lat="43.219895" lon="-0.888820"><ele>148.66</ele><time>2011-09-14T14:28:04Z</time></trkpt><trkpt lat="43.219930" lon="-0.888805"><ele>151.54</ele><time>2011-09-14T14:28:05Z</time></trkpt><trkpt lat="43.219981" lon="-0.888778"><ele>152.03</ele><time>2011-09-14T14:28:06Z</time></trkpt><trkpt lat="43.220027" lon="-0.888743"><ele>152.03</ele><time>2011-09-14T14:28:07Z</time></trkpt><trkpt lat="43.220060" lon="-0.888704"><ele>152.51</ele><time>2011-09-14T14:28:08Z</time></trkpt><trkpt lat="43.220355" lon="-0.888389"><ele>164.52</ele><time>2011-09-14T14:28:18Z</time></trkpt><trkpt lat="43.220956" lon="-0.887829"><ele>161.64</ele><time>2011-09-14T14:28:30Z</time></trkpt><trkpt lat="43.221694" lon="-0.887143"><ele>164.52</ele><time>2011-09-14T14:28:43Z</time></trkpt><trkpt lat="43.221922" lon="-0.886918"><ele>160.20</ele><time>2011-09-14T14:28:49Z</time></trkpt><trkpt lat="43.222072" lon="-0.886688"><ele>165.00</ele><time>2011-09-14T14:28:56Z</time></trkpt><trkpt lat="43.222580" lon="-0.886160"><ele>160.20</ele><time>2011-09-14T14:29:05Z</time></trkpt><trkpt lat="43.222638" lon="-0.886105"><ele>159.24</ele><time>2011-09-14T14:29:06Z</time></trkpt><trkpt lat="43.222937" lon="-0.885939"><ele>164.52</ele><time>2011-09-14T14:29:15Z</time></trkpt><trkpt lat="43.223237" lon="-0.885542"><ele>156.83</ele><time>2011-09-14T14:29:23Z</time></trkpt><trkpt lat="43.223252" lon="-0.885436"><ele>155.87</ele><time>2011-09-14T14:29:24Z</time></trkpt><trkpt lat="43.223261" lon="-0.885340"><ele>155.39</ele><time>2011-09-14T14:29:25Z</time></trkpt><trkpt lat="43.223534" lon="-0.884250"><ele>149.14</ele><time>2011-09-14T14:29:34Z</time></trkpt><trkpt lat="43.223866" lon="-0.883130"><ele>145.78</ele><time>2011-09-14T14:29:44Z</time></trkpt><trkpt lat="43.223994" lon="-0.882708"><ele>144.34</ele><time>2011-09-14T14:29:52Z</time></trkpt><trkpt lat="43.224348" lon="-0.881541"><ele>143.37</ele><time>2011-09-14T14:30:02Z</time></trkpt><trkpt lat="43.224592" lon="-0.880638"><ele>143.37</ele><time>2011-09-14T14:30:11Z</time></trkpt><trkpt lat="43.224638" lon="-0.880319"><ele>143.37</ele><time>2011-09-14T14:30:17Z</time></trkpt><trkpt lat="43.224650" lon="-0.880251"><ele>143.37</ele><time>2011-09-14T14:30:18Z</time></trkpt><trkpt lat="43.224668" lon="-0.880199"><ele>143.37</ele><time>2011-09-14T14:30:19Z</time></trkpt><trkpt lat="43.224696" lon="-0.880160"><ele>143.37</ele><time>2011-09-14T14:30:20Z</time></trkpt><trkpt lat="43.224737" lon="-0.880121"><ele>142.89</ele><time>2011-09-14T14:30:21Z</time></trkpt><trkpt lat="43.224787" lon="-0.880064"><ele>142.89</ele><time>2011-09-14T14:30:22Z</time></trkpt><trkpt lat="43.224841" lon="-0.879988"><ele>142.89</ele><time>2011-09-14T14:30:23Z</time></trkpt><trkpt lat="43.225410" lon="-0.879064"><ele>141.93</ele><time>2011-09-14T14:30:32Z</time></trkpt><trkpt lat="43.226101" lon="-0.877968"><ele>141.93</ele><time>2011-09-14T14:30:42Z</time></trkpt><trkpt lat="43.227119" lon="-0.876331"><ele>141.93</ele><time>2011-09-14T14:30:56Z</time></trkpt><trkpt lat="43.228359" lon="-0.874291"><ele>141.93</ele><time>2011-09-14T14:31:13Z</time></trkpt><trkpt lat="43.229114" lon="-0.873002"><ele>142.41</ele><time>2011-09-14T14:31:24Z</time></trkpt><trkpt lat="43.229145" lon="-0.872887"><ele>141.93</ele><time>2011-09-14T14:31:25Z</time></trkpt><trkpt lat="43.229159" lon="-0.872770"><ele>141.93</ele><time>2011-09-14T14:31:26Z</time></trkpt><trkpt lat="43.229173" lon="-0.872658"><ele>141.93</ele><time>2011-09-14T14:31:27Z</time></trkpt><trkpt lat="43.229204" lon="-0.872556"><ele>141.93</ele><time>2011-09-14T14:31:28Z</time></trkpt><trkpt lat="43.229257" lon="-0.872466"><ele>141.93</ele><time>2011-09-14T14:31:29Z</time></trkpt><trkpt lat="43.229321" lon="-0.872383"><ele>141.93</ele><time>2011-09-14T14:31:30Z</time></trkpt><trkpt lat="43.229395" lon="-0.872300"><ele>141.93</ele><time>2011-09-14T14:31:31Z</time></trkpt><trkpt lat="43.230107" lon="-0.871418"><ele>142.41</ele><time>2011-09-14T14:31:40Z</time></trkpt><trkpt lat="43.230456" lon="-0.870374"><ele>142.41</ele><time>2011-09-14T14:31:49Z</time></trkpt><trkpt lat="43.230551" lon="-0.869814"><ele>142.41</ele><time>2011-09-14T14:31:58Z</time></trkpt><trkpt lat="43.230799" lon="-0.868872"><ele>143.37</ele><time>2011-09-14T14:32:08Z</time></trkpt><trkpt lat="43.231047" lon="-0.868479"><ele>142.89</ele><time>2011-09-14T14:32:12Z</time></trkpt><trkpt lat="43.231084" lon="-0.868354"><ele>142.41</ele><time>2011-09-14T14:32:13Z</time></trkpt><trkpt lat="43.231200" lon="-0.868025"><ele>142.41</ele><time>2011-09-14T14:32:16Z</time></trkpt><trkpt lat="43.231246" lon="-0.867930"><ele>141.93</ele><time>2011-09-14T14:32:17Z</time></trkpt><trkpt lat="43.231374" lon="-0.867670"><ele>140.97</ele><time>2011-09-14T14:32:23Z</time></trkpt><trkpt lat="43.231589" lon="-0.867275"><ele>140.97</ele><time>2011-09-14T14:32:29Z</time></trkpt><trkpt lat="43.231614" lon="-0.867188"><ele>140.97</ele><time>2011-09-14T14:32:30Z</time></trkpt><trkpt lat="43.231629" lon="-0.867090"><ele>140.97</ele><time>2011-09-14T14:32:31Z</time></trkpt><trkpt lat="43.231635" lon="-0.866986"><ele>140.97</ele><time>2011-09-14T14:32:32Z</time></trkpt><trkpt lat="43.231635" lon="-0.866878"><ele>140.97</ele><time>2011-09-14T14:32:33Z</time></trkpt><trkpt lat="43.231632" lon="-0.866767"><ele>140.97</ele><time>2011-09-14T14:32:34Z</time></trkpt><trkpt lat="43.231601" lon="-0.866414"><ele>141.45</ele><time>2011-09-14T14:32:37Z</time></trkpt><trkpt lat="43.231569" lon="-0.866297"><ele>141.45</ele><time>2011-09-14T14:32:38Z</time></trkpt><trkpt lat="43.231530" lon="-0.866188"><ele>141.45</ele><time>2011-09-14T14:32:39Z</time></trkpt><trkpt lat="43.231485" lon="-0.866087"><ele>141.45</ele><time>2011-09-14T14:32:40Z</time></trkpt><trkpt lat="43.231437" lon="-0.865986"><ele>141.93</ele><time>2011-09-14T14:32:41Z</time></trkpt><trkpt lat="43.231004" lon="-0.864829"><ele>145.30</ele><time>2011-09-14T14:32:52Z</time></trkpt><trkpt lat="43.230746" lon="-0.864068"><ele>144.34</ele><time>2011-09-14T14:33:01Z</time></trkpt><trkpt lat="43.230450" lon="-0.863202"><ele>144.34</ele><time>2011-09-14T14:33:06Z</time></trkpt><trkpt lat="43.229743" lon="-0.861066"><ele>143.85</ele><time>2011-09-14T14:33:15Z</time></trkpt><trkpt lat="43.228893" lon="-0.858589"><ele>147.22</ele><time>2011-09-14T14:33:25Z</time></trkpt><trkpt lat="43.228382" lon="-0.856896"><ele>150.58</ele><time>2011-09-14T14:33:32Z</time></trkpt><trkpt lat="43.228349" lon="-0.856634"><ele>151.06</ele><time>2011-09-14T14:33:33Z</time></trkpt><trkpt lat="43.228337" lon="-0.856367"><ele>151.54</ele><time>2011-09-14T14:33:34Z</time></trkpt><trkpt lat="43.228345" lon="-0.856095"><ele>152.03</ele><time>2011-09-14T14:33:35Z</time></trkpt><trkpt lat="43.228372" lon="-0.855821"><ele>152.51</ele><time>2011-09-14T14:33:36Z</time></trkpt><trkpt lat="43.228407" lon="-0.855546"><ele>152.99</ele><time>2011-09-14T14:33:37Z</time></trkpt><trkpt lat="43.228427" lon="-0.853322"><ele>155.39</ele><time>2011-09-14T14:33:45Z</time></trkpt><trkpt lat="43.228291" lon="-0.850394"><ele>162.60</ele><time>2011-09-14T14:33:55Z</time></trkpt><trkpt lat="43.228439" lon="-0.847751"><ele>169.81</ele><time>2011-09-14T14:34:05Z</time></trkpt><trkpt lat="43.228397" lon="-0.847555"><ele>170.77</ele><time>2011-09-14T14:34:06Z</time></trkpt><trkpt lat="43.228308" lon="-0.847386"><ele>171.73</ele><time>2011-09-14T14:34:07Z</time></trkpt><trkpt lat="43.228180" lon="-0.847212"><ele>172.69</ele><time>2011-09-14T14:34:08Z</time></trkpt><trkpt lat="43.228035" lon="-0.847040"><ele>174.14</ele><time>2011-09-14T14:34:09Z</time></trkpt><trkpt lat="43.227905" lon="-0.846847"><ele>175.58</ele><time>2011-09-14T14:34:10Z</time></trkpt><trkpt lat="43.227785" lon="-0.846630"><ele>177.02</ele><time>2011-09-14T14:34:11Z</time></trkpt><trkpt lat="43.227683" lon="-0.846399"><ele>178.46</ele><time>2011-09-14T14:34:12Z</time></trkpt><trkpt lat="43.227598" lon="-0.846157"><ele>179.42</ele><time>2011-09-14T14:34:13Z</time></trkpt><trkpt lat="43.227533" lon="-0.845897"><ele>180.38</ele><time>2011-09-14T14:34:14Z</time></trkpt><trkpt lat="43.227474" lon="-0.845633"><ele>182.31</ele><time>2011-09-14T14:34:15Z</time></trkpt><trkpt lat="43.227435" lon="-0.844927"><ele>187.11</ele><time>2011-09-14T14:34:18Z</time></trkpt><trkpt lat="43.227435" lon="-0.844724"><ele>188.56</ele><time>2011-09-14T14:34:19Z</time></trkpt><trkpt lat="43.227313" lon="-0.844358"><ele>192.88</ele><time>2011-09-14T14:34:22Z</time></trkpt><trkpt lat="43.227221" lon="-0.844356"><ele>194.32</ele><time>2011-09-14T14:34:23Z</time></trkpt><trkpt lat="43.227119" lon="-0.844334"><ele>196.25</ele><time>2011-09-14T14:34:24Z</time></trkpt><trkpt lat="43.227013" lon="-0.844335"><ele>196.25</ele><time>2011-09-14T14:34:25Z</time></trkpt><trkpt lat="43.226847" lon="-0.844382"><ele>197.69</ele><time>2011-09-14T14:34:26Z</time></trkpt><trkpt lat="43.226712" lon="-0.844406"><ele>199.61</ele><time>2011-09-14T14:34:27Z</time></trkpt><trkpt lat="43.226578" lon="-0.844409"><ele>201.05</ele><time>2011-09-14T14:34:28Z</time></trkpt><trkpt lat="43.226453" lon="-0.844348"><ele>202.49</ele><time>2011-09-14T14:34:29Z</time></trkpt><trkpt lat="43.226392" lon="-0.844290"><ele>203.46</ele><time>2011-09-14T14:34:30Z</time></trkpt><trkpt lat="43.226377" lon="-0.844213"><ele>205.38</ele><time>2011-09-14T14:34:31Z</time></trkpt><trkpt lat="43.226404" lon="-0.844134"><ele>207.30</ele><time>2011-09-14T14:34:32Z</time></trkpt><trkpt lat="43.226447" lon="-0.844039"><ele>209.22</ele><time>2011-09-14T14:34:33Z</time></trkpt><trkpt lat="43.226550" lon="-0.843942"><ele>211.63</ele><time>2011-09-14T14:34:34Z</time></trkpt><trkpt lat="43.226695" lon="-0.843835"><ele>212.59</ele><time>2011-09-14T14:34:35Z</time></trkpt><trkpt lat="43.226800" lon="-0.843709"><ele>212.59</ele><time>2011-09-14T14:34:36Z</time></trkpt><trkpt lat="43.226892" lon="-0.843544"><ele>212.11</ele><time>2011-09-14T14:34:37Z</time></trkpt><trkpt lat="43.226952" lon="-0.843349"><ele>213.55</ele><time>2011-09-14T14:34:38Z</time></trkpt><trkpt lat="43.226962" lon="-0.843146"><ele>214.03</ele><time>2011-09-14T14:34:39Z</time></trkpt><trkpt lat="43.226953" lon="-0.842930"><ele>214.51</ele><time>2011-09-14T14:34:40Z</time></trkpt><trkpt lat="43.226916" lon="-0.842717"><ele>215.47</ele><time>2011-09-14T14:34:41Z</time></trkpt><trkpt lat="43.226871" lon="-0.842513"><ele>215.95</ele><time>2011-09-14T14:34:42Z</time></trkpt><trkpt lat="43.226810" lon="-0.841854"><ele>219.32</ele><time>2011-09-14T14:34:45Z</time></trkpt><trkpt lat="43.226844" lon="-0.841615"><ele>220.76</ele><time>2011-09-14T14:34:46Z</time></trkpt><trkpt lat="43.226866" lon="-0.841134"><ele>223.64</ele><time>2011-09-14T14:34:48Z</time></trkpt><trkpt lat="43.226849" lon="-0.840884"><ele>225.09</ele><time>2011-09-14T14:34:49Z</time></trkpt><trkpt lat="43.226815" lon="-0.840638"><ele>226.53</ele><time>2011-09-14T14:34:50Z</time></trkpt><trkpt lat="43.226731" lon="-0.839977"><ele>229.89</ele><time>2011-09-14T14:34:53Z</time></trkpt><trkpt lat="43.226751" lon="-0.839782"><ele>231.33</ele><time>2011-09-14T14:34:54Z</time></trkpt><trkpt lat="43.226793" lon="-0.839598"><ele>232.78</ele><time>2011-09-14T14:34:55Z</time></trkpt><trkpt lat="43.226849" lon="-0.839409"><ele>233.74</ele><time>2011-09-14T14:34:56Z</time></trkpt><trkpt lat="43.226903" lon="-0.839210"><ele>234.70</ele><time>2011-09-14T14:34:57Z</time></trkpt><trkpt lat="43.227035" lon="-0.838528"><ele>239.02</ele><time>2011-09-14T14:35:01Z</time></trkpt><trkpt lat="43.227043" lon="-0.838360"><ele>239.51</ele><time>2011-09-14T14:35:02Z</time></trkpt><trkpt lat="43.227044" lon="-0.838183"><ele>239.99</ele><time>2011-09-14T14:35:03Z</time></trkpt><trkpt lat="43.227003" lon="-0.837672"><ele>240.47</ele><time>2011-09-14T14:35:06Z</time></trkpt><trkpt lat="43.226958" lon="-0.837525"><ele>240.47</ele><time>2011-09-14T14:35:07Z</time></trkpt><trkpt lat="43.226893" lon="-0.837388"><ele>239.99</ele><time>2011-09-14T14:35:08Z</time></trkpt><trkpt lat="43.226806" lon="-0.837261"><ele>239.51</ele><time>2011-09-14T14:35:09Z</time></trkpt><trkpt lat="43.226699" lon="-0.837136"><ele>239.02</ele><time>2011-09-14T14:35:10Z</time></trkpt><trkpt lat="43.226583" lon="-0.837009"><ele>239.02</ele><time>2011-09-14T14:35:11Z</time></trkpt><trkpt lat="43.226455" lon="-0.836886"><ele>238.06</ele><time>2011-09-14T14:35:12Z</time></trkpt><trkpt lat="43.226320" lon="-0.836770"><ele>237.58</ele><time>2011-09-14T14:35:13Z</time></trkpt><trkpt lat="43.226185" lon="-0.836668"><ele>237.10</ele><time>2011-09-14T14:35:14Z</time></trkpt><trkpt lat="43.225661" lon="-0.836292"><ele>232.78</ele><time>2011-09-14T14:35:18Z</time></trkpt><trkpt lat="43.225545" lon="-0.836168"><ele>232.30</ele><time>2011-09-14T14:35:19Z</time></trkpt><trkpt lat="43.225436" lon="-0.836030"><ele>231.33</ele><time>2011-09-14T14:35:20Z</time></trkpt><trkpt lat="43.224821" lon="-0.834733"><ele>220.28</ele><time>2011-09-14T14:35:28Z</time></trkpt><trkpt lat="43.224747" lon="-0.834572"><ele>218.84</ele><time>2011-09-14T14:35:29Z</time></trkpt><trkpt lat="43.224659" lon="-0.834420"><ele>216.91</ele><time>2011-09-14T14:35:30Z</time></trkpt><trkpt lat="43.224553" lon="-0.834282"><ele>215.95</ele><time>2011-09-14T14:35:31Z</time></trkpt><trkpt lat="43.224434" lon="-0.834153"><ele>214.51</ele><time>2011-09-14T14:35:32Z</time></trkpt><trkpt lat="43.224305" lon="-0.834023"><ele>213.07</ele><time>2011-09-14T14:35:33Z</time></trkpt><trkpt lat="43.223025" lon="-0.832799"><ele>198.17</ele><time>2011-09-14T14:35:43Z</time></trkpt><trkpt lat="43.222540" lon="-0.832494"><ele>194.32</ele><time>2011-09-14T14:35:47Z</time></trkpt><trkpt lat="43.222397" lon="-0.832459"><ele>192.88</ele><time>2011-09-14T14:35:48Z</time></trkpt><trkpt lat="43.222242" lon="-0.832484"><ele>191.44</ele><time>2011-09-14T14:35:49Z</time></trkpt><trkpt lat="43.222079" lon="-0.832504"><ele>190.48</ele><time>2011-09-14T14:35:50Z</time></trkpt><trkpt lat="43.221906" lon="-0.832501"><ele>190.00</ele><time>2011-09-14T14:35:51Z</time></trkpt><trkpt lat="43.220264" lon="-0.832598"><ele>194.80</ele><time>2011-09-14T14:36:01Z</time></trkpt><trkpt lat="43.220108" lon="-0.832558"><ele>194.32</ele><time>2011-09-14T14:36:02Z</time></trkpt><trkpt lat="43.219487" lon="-0.832329"><ele>193.84</ele><time>2011-09-14T14:36:06Z</time></trkpt><trkpt lat="43.219340" lon="-0.832231"><ele>193.36</ele><time>2011-09-14T14:36:07Z</time></trkpt><trkpt lat="43.219195" lon="-0.832110"><ele>192.88</ele><time>2011-09-14T14:36:08Z</time></trkpt><trkpt lat="43.217781" lon="-0.830746"><ele>186.63</ele><time>2011-09-14T14:36:18Z</time></trkpt><trkpt lat="43.217429" lon="-0.830442"><ele>185.19</ele><time>2011-09-14T14:36:21Z</time></trkpt><trkpt lat="43.217321" lon="-0.830457"><ele>184.23</ele><time>2011-09-14T14:36:22Z</time></trkpt><trkpt lat="43.217228" lon="-0.830502"><ele>184.23</ele><time>2011-09-14T14:36:23Z</time></trkpt><trkpt lat="43.217133" lon="-0.830583"><ele>183.75</ele><time>2011-09-14T14:36:24Z</time></trkpt><trkpt lat="43.217038" lon="-0.830705"><ele>184.23</ele><time>2011-09-14T14:36:25Z</time></trkpt><trkpt lat="43.216948" lon="-0.830838"><ele>185.19</ele><time>2011-09-14T14:36:26Z</time></trkpt><trkpt lat="43.216857" lon="-0.830974"><ele>186.15</ele><time>2011-09-14T14:36:27Z</time></trkpt><trkpt lat="43.216750" lon="-0.831078"><ele>187.11</ele><time>2011-09-14T14:36:28Z</time></trkpt><trkpt lat="43.216634" lon="-0.831139"><ele>187.11</ele><time>2011-09-14T14:36:29Z</time></trkpt><trkpt lat="43.216512" lon="-0.831166"><ele>188.08</ele><time>2011-09-14T14:36:30Z</time></trkpt><trkpt lat="43.216398" lon="-0.831125"><ele>189.04</ele><time>2011-09-14T14:36:31Z</time></trkpt><trkpt lat="43.216304" lon="-0.831053"><ele>190.00</ele><time>2011-09-14T14:36:32Z</time></trkpt><trkpt lat="43.216218" lon="-0.830933"><ele>190.96</ele><time>2011-09-14T14:36:33Z</time></trkpt><trkpt lat="43.216144" lon="-0.830796"><ele>191.44</ele><time>2011-09-14T14:36:34Z</time></trkpt><trkpt lat="43.216066" lon="-0.830621"><ele>191.44</ele><time>2011-09-14T14:36:35Z</time></trkpt><trkpt lat="43.216000" lon="-0.830423"><ele>191.44</ele><time>2011-09-14T14:36:36Z</time></trkpt><trkpt lat="43.215921" lon="-0.830240"><ele>192.40</ele><time>2011-09-14T14:36:37Z</time></trkpt><trkpt lat="43.215598" lon="-0.829755"><ele>195.28</ele><time>2011-09-14T14:36:40Z</time></trkpt><trkpt lat="43.215443" lon="-0.829672"><ele>196.25</ele><time>2011-09-14T14:36:41Z</time></trkpt><trkpt lat="43.215293" lon="-0.829598"><ele>196.73</ele><time>2011-09-14T14:36:42Z</time></trkpt><trkpt lat="43.214821" lon="-0.829471"><ele>202.01</ele><time>2011-09-14T14:36:45Z</time></trkpt><trkpt lat="43.214405" lon="-0.829537"><ele>203.94</ele><time>2011-09-14T14:36:47Z</time></trkpt><trkpt lat="43.213534" lon="-0.829728"><ele>210.19</ele><time>2011-09-14T14:36:53Z</time></trkpt><trkpt lat="43.213263" lon="-0.829678"><ele>212.11</ele><time>2011-09-14T14:36:55Z</time></trkpt><trkpt lat="43.213135" lon="-0.829621"><ele>211.63</ele><time>2011-09-14T14:36:56Z</time></trkpt><trkpt lat="43.212433" lon="-0.829297"><ele>210.19</ele><time>2011-09-14T14:37:01Z</time></trkpt><trkpt lat="43.212277" lon="-0.829278"><ele>208.74</ele><time>2011-09-14T14:37:02Z</time></trkpt><trkpt lat="43.212115" lon="-0.829278"><ele>207.78</ele><time>2011-09-14T14:37:03Z</time></trkpt><trkpt lat="43.211648" lon="-0.829466"><ele>206.82</ele><time>2011-09-14T14:37:06Z</time></trkpt><trkpt lat="43.211505" lon="-0.829539"><ele>207.78</ele><time>2011-09-14T14:37:07Z</time></trkpt><trkpt lat="43.211364" lon="-0.829571"><ele>207.78</ele><time>2011-09-14T14:37:08Z</time></trkpt><trkpt lat="43.211252" lon="-0.829566"><ele>206.34</ele><time>2011-09-14T14:37:09Z</time></trkpt><trkpt lat="43.211151" lon="-0.829526"><ele>206.34</ele><time>2011-09-14T14:37:10Z</time></trkpt><trkpt lat="43.211055" lon="-0.829486"><ele>206.34</ele><time>2011-09-14T14:37:11Z</time></trkpt><trkpt lat="43.210956" lon="-0.829437"><ele>205.38</ele><time>2011-09-14T14:37:12Z</time></trkpt><trkpt lat="43.209990" lon="-0.829005"><ele>207.30</ele><time>2011-09-14T14:37:19Z</time></trkpt><trkpt lat="43.208641" lon="-0.828150"><ele>201.53</ele><time>2011-09-14T14:37:28Z</time></trkpt><trkpt lat="43.206817" lon="-0.826944"><ele>202.49</ele><time>2011-09-14T14:37:39Z</time></trkpt><trkpt lat="43.206517" lon="-0.826710"><ele>202.01</ele><time>2011-09-14T14:37:41Z</time></trkpt><trkpt lat="43.206364" lon="-0.826551"><ele>202.98</ele><time>2011-09-14T14:37:42Z</time></trkpt><trkpt lat="43.206211" lon="-0.826367"><ele>203.94</ele><time>2011-09-14T14:37:43Z</time></trkpt><trkpt lat="43.204962" lon="-0.824700"><ele>211.63</ele><time>2011-09-14T14:37:52Z</time></trkpt><trkpt lat="43.204125" lon="-0.822891"><ele>207.78</ele><time>2011-09-14T14:38:00Z</time></trkpt><trkpt lat="43.202797" lon="-0.820325"><ele>205.86</ele><time>2011-09-14T14:38:11Z</time></trkpt><trkpt lat="43.202009" lon="-0.818523"><ele>206.82</ele><time>2011-09-14T14:38:19Z</time></trkpt><trkpt lat="43.201836" lon="-0.818154"><ele>207.78</ele><time>2011-09-14T14:38:21Z</time></trkpt><trkpt lat="43.201717" lon="-0.818014"><ele>208.74</ele><time>2011-09-14T14:38:22Z</time></trkpt><trkpt lat="43.201567" lon="-0.817938"><ele>209.22</ele><time>2011-09-14T14:38:23Z</time></trkpt><trkpt lat="43.201395" lon="-0.817885"><ele>209.70</ele><time>2011-09-14T14:38:24Z</time></trkpt><trkpt lat="43.201209" lon="-0.817839"><ele>210.19</ele><time>2011-09-14T14:38:25Z</time></trkpt><trkpt lat="43.201010" lon="-0.817777"><ele>211.63</ele><time>2011-09-14T14:38:26Z</time></trkpt><trkpt lat="43.200493" lon="-0.817465"><ele>213.55</ele><time>2011-09-14T14:38:29Z</time></trkpt><trkpt lat="43.200362" lon="-0.817333"><ele>214.51</ele><time>2011-09-14T14:38:30Z</time></trkpt><trkpt lat="43.200130" lon="-0.817108"><ele>215.47</ele><time>2011-09-14T14:38:32Z</time></trkpt><trkpt lat="43.200023" lon="-0.817064"><ele>215.95</ele><time>2011-09-14T14:38:33Z</time></trkpt><trkpt lat="43.199915" lon="-0.817068"><ele>215.95</ele><time>2011-09-14T14:38:34Z</time></trkpt><trkpt lat="43.199820" lon="-0.817128"><ele>216.43</ele><time>2011-09-14T14:38:35Z</time></trkpt><trkpt lat="43.199736" lon="-0.817238"><ele>218.36</ele><time>2011-09-14T14:38:36Z</time></trkpt><trkpt lat="43.199677" lon="-0.817372"><ele>220.76</ele><time>2011-09-14T14:38:37Z</time></trkpt><trkpt lat="43.199653" lon="-0.817525"><ele>222.68</ele><time>2011-09-14T14:38:38Z</time></trkpt><trkpt lat="43.199671" lon="-0.817674"><ele>223.64</ele><time>2011-09-14T14:38:39Z</time></trkpt><trkpt lat="43.199711" lon="-0.817833"><ele>223.64</ele><time>2011-09-14T14:38:40Z</time></trkpt><trkpt lat="43.199745" lon="-0.818002"><ele>224.12</ele><time>2011-09-14T14:38:41Z</time></trkpt><trkpt lat="43.199767" lon="-0.818176"><ele>225.09</ele><time>2011-09-14T14:38:42Z</time></trkpt><trkpt lat="43.199771" lon="-0.818342"><ele>226.05</ele><time>2011-09-14T14:38:43Z</time></trkpt><trkpt lat="43.199729" lon="-0.818499"><ele>227.01</ele><time>2011-09-14T14:38:44Z</time></trkpt><trkpt lat="43.199631" lon="-0.818653"><ele>227.97</ele><time>2011-09-14T14:38:45Z</time></trkpt><trkpt lat="43.199483" lon="-0.818783"><ele>229.41</ele><time>2011-09-14T14:38:46Z</time></trkpt><trkpt lat="43.199353" lon="-0.818883"><ele>230.37</ele><time>2011-09-14T14:38:47Z</time></trkpt><trkpt lat="43.199233" lon="-0.818959"><ele>231.81</ele><time>2011-09-14T14:38:48Z</time></trkpt><trkpt lat="43.199096" lon="-0.818999"><ele>233.74</ele><time>2011-09-14T14:38:49Z</time></trkpt><trkpt lat="43.198966" lon="-0.818967"><ele>235.66</ele><time>2011-09-14T14:38:50Z</time></trkpt><trkpt lat="43.198849" lon="-0.818918"><ele>237.10</ele><time>2011-09-14T14:38:51Z</time></trkpt><trkpt lat="43.198742" lon="-0.818836"><ele>238.54</ele><time>2011-09-14T14:38:52Z</time></trkpt><trkpt lat="43.198636" lon="-0.818725"><ele>240.47</ele><time>2011-09-14T14:38:53Z</time></trkpt><trkpt lat="43.198529" lon="-0.818631"><ele>241.91</ele><time>2011-09-14T14:38:54Z</time></trkpt><trkpt lat="43.198424" lon="-0.818581"><ele>242.87</ele><time>2011-09-14T14:38:55Z</time></trkpt><trkpt lat="43.198325" lon="-0.818597"><ele>243.83</ele><time>2011-09-14T14:38:56Z</time></trkpt><trkpt lat="43.198239" lon="-0.818668"><ele>245.75</ele><time>2011-09-14T14:38:57Z</time></trkpt><trkpt lat="43.198154" lon="-0.818758"><ele>246.72</ele><time>2011-09-14T14:38:58Z</time></trkpt><trkpt lat="43.198073" lon="-0.818843"><ele>247.20</ele><time>2011-09-14T14:38:59Z</time></trkpt><trkpt lat="43.197974" lon="-0.818914"><ele>248.16</ele><time>2011-09-14T14:39:00Z</time></trkpt><trkpt lat="43.197855" lon="-0.818969"><ele>249.12</ele><time>2011-09-14T14:39:01Z</time></trkpt><trkpt lat="43.197722" lon="-0.819010"><ele>250.08</ele><time>2011-09-14T14:39:02Z</time></trkpt><trkpt lat="43.197591" lon="-0.819039"><ele>251.04</ele><time>2011-09-14T14:39:03Z</time></trkpt><trkpt lat="43.197472" lon="-0.819074"><ele>252.00</ele><time>2011-09-14T14:39:04Z</time></trkpt><trkpt lat="43.197361" lon="-0.819145"><ele>252.96</ele><time>2011-09-14T14:39:05Z</time></trkpt><trkpt lat="43.197257" lon="-0.819241"><ele>253.93</ele><time>2011-09-14T14:39:06Z</time></trkpt><trkpt lat="43.197145" lon="-0.819323"><ele>254.41</ele><time>2011-09-14T14:39:07Z</time></trkpt><trkpt lat="43.197004" lon="-0.819373"><ele>255.37</ele><time>2011-09-14T14:39:08Z</time></trkpt><trkpt lat="43.196863" lon="-0.819370"><ele>256.33</ele><time>2011-09-14T14:39:09Z</time></trkpt><trkpt lat="43.196721" lon="-0.819306"><ele>258.25</ele><time>2011-09-14T14:39:10Z</time></trkpt><trkpt lat="43.196583" lon="-0.819231"><ele>259.21</ele><time>2011-09-14T14:39:11Z</time></trkpt><trkpt lat="43.196450" lon="-0.819122"><ele>261.14</ele><time>2011-09-14T14:39:12Z</time></trkpt><trkpt lat="43.196319" lon="-0.818974"><ele>262.10</ele><time>2011-09-14T14:39:13Z</time></trkpt><trkpt lat="43.196177" lon="-0.818837"><ele>263.54</ele><time>2011-09-14T14:39:14Z</time></trkpt><trkpt lat="43.195586" lon="-0.818269"><ele>269.79</ele><time>2011-09-14T14:39:18Z</time></trkpt><trkpt lat="43.195466" lon="-0.818093"><ele>270.75</ele><time>2011-09-14T14:39:19Z</time></trkpt><trkpt lat="43.195344" lon="-0.817936"><ele>272.19</ele><time>2011-09-14T14:39:20Z</time></trkpt><trkpt lat="43.195230" lon="-0.817815"><ele>273.15</ele><time>2011-09-14T14:39:21Z</time></trkpt><trkpt lat="43.195098" lon="-0.817714"><ele>274.11</ele><time>2011-09-14T14:39:22Z</time></trkpt><trkpt lat="43.194954" lon="-0.817603"><ele>275.56</ele><time>2011-09-14T14:39:23Z</time></trkpt><trkpt lat="43.194390" lon="-0.817003"><ele>281.80</ele><time>2011-09-14T14:39:27Z</time></trkpt><trkpt lat="43.194271" lon="-0.816810"><ele>283.73</ele><time>2011-09-14T14:39:28Z</time></trkpt><trkpt lat="43.194164" lon="-0.816602"><ele>285.17</ele><time>2011-09-14T14:39:29Z</time></trkpt><trkpt lat="43.193377" lon="-0.815246"><ele>297.18</ele><time>2011-09-14T14:39:36Z</time></trkpt><trkpt lat="43.192419" lon="-0.814499"><ele>312.09</ele><time>2011-09-14T14:39:43Z</time></trkpt><trkpt lat="43.192325" lon="-0.814410"><ele>314.01</ele><time>2011-09-14T14:39:44Z</time></trkpt><trkpt lat="43.192248" lon="-0.814307"><ele>316.89</ele><time>2011-09-14T14:39:45Z</time></trkpt><trkpt lat="43.192249" lon="-0.814077"><ele>320.26</ele><time>2011-09-14T14:39:47Z</time></trkpt><trkpt lat="43.192267" lon="-0.813970"><ele>324.10</ele><time>2011-09-14T14:39:48Z</time></trkpt><trkpt lat="43.192423" lon="-0.813873"><ele>324.58</ele><time>2011-09-14T14:39:49Z</time></trkpt><trkpt lat="43.192602" lon="-0.813793"><ele>325.54</ele><time>2011-09-14T14:39:50Z</time></trkpt><trkpt lat="43.192755" lon="-0.813726"><ele>326.50</ele><time>2011-09-14T14:39:51Z</time></trkpt><trkpt lat="43.192919" lon="-0.813667"><ele>326.99</ele><time>2011-09-14T14:39:52Z</time></trkpt><trkpt lat="43.193187" lon="-0.813519"><ele>326.99</ele><time>2011-09-14T14:39:54Z</time></trkpt><trkpt lat="43.193272" lon="-0.813402"><ele>326.02</ele><time>2011-09-14T14:39:55Z</time></trkpt><trkpt lat="43.193315" lon="-0.813278"><ele>326.02</ele><time>2011-09-14T14:39:56Z</time></trkpt><trkpt lat="43.193318" lon="-0.813148"><ele>326.99</ele><time>2011-09-14T14:39:57Z</time></trkpt><trkpt lat="43.193270" lon="-0.813015"><ele>327.47</ele><time>2011-09-14T14:39:58Z</time></trkpt><trkpt lat="43.193191" lon="-0.812875"><ele>328.91</ele><time>2011-09-14T14:39:59Z</time></trkpt><trkpt lat="43.193092" lon="-0.812723"><ele>329.87</ele><time>2011-09-14T14:40:00Z</time></trkpt><trkpt lat="43.192979" lon="-0.812565"><ele>330.83</ele><time>2011-09-14T14:40:01Z</time></trkpt><trkpt lat="43.192858" lon="-0.812411"><ele>332.27</ele><time>2011-09-14T14:40:02Z</time></trkpt><trkpt lat="43.192735" lon="-0.812273"><ele>333.23</ele><time>2011-09-14T14:40:03Z</time></trkpt><trkpt lat="43.192611" lon="-0.812158"><ele>334.20</ele><time>2011-09-14T14:40:04Z</time></trkpt><trkpt lat="43.192477" lon="-0.812067"><ele>335.16</ele><time>2011-09-14T14:40:05Z</time></trkpt><trkpt lat="43.192331" lon="-0.812028"><ele>336.12</ele><time>2011-09-14T14:40:06Z</time></trkpt><trkpt lat="43.192178" lon="-0.812052"><ele>337.08</ele><time>2011-09-14T14:40:07Z</time></trkpt><trkpt lat="43.192022" lon="-0.812104"><ele>338.04</ele><time>2011-09-14T14:40:08Z</time></trkpt><trkpt lat="43.191860" lon="-0.812150"><ele>339.96</ele><time>2011-09-14T14:40:09Z</time></trkpt><trkpt lat="43.191686" lon="-0.812175"><ele>341.89</ele><time>2011-09-14T14:40:10Z</time></trkpt><trkpt lat="43.191501" lon="-0.812182"><ele>342.85</ele><time>2011-09-14T14:40:11Z</time></trkpt><trkpt lat="43.191314" lon="-0.812158"><ele>343.81</ele><time>2011-09-14T14:40:12Z</time></trkpt><trkpt lat="43.191131" lon="-0.812108"><ele>345.25</ele><time>2011-09-14T14:40:13Z</time></trkpt><trkpt lat="43.190952" lon="-0.812042"><ele>346.69</ele><time>2011-09-14T14:40:14Z</time></trkpt><trkpt lat="43.190238" lon="-0.811659"><ele>352.94</ele><time>2011-09-14T14:40:19Z</time></trkpt><trkpt lat="43.190151" lon="-0.811535"><ele>354.86</ele><time>2011-09-14T14:40:20Z</time></trkpt><trkpt lat="43.190095" lon="-0.811399"><ele>355.83</ele><time>2011-09-14T14:40:21Z</time></trkpt><trkpt lat="43.190096" lon="-0.811244"><ele>356.79</ele><time>2011-09-14T14:40:22Z</time></trkpt><trkpt lat="43.190151" lon="-0.811076"><ele>356.79</ele><time>2011-09-14T14:40:23Z</time></trkpt><trkpt lat="43.190256" lon="-0.810897"><ele>357.27</ele><time>2011-09-14T14:40:24Z</time></trkpt><trkpt lat="43.190406" lon="-0.810707"><ele>359.19</ele><time>2011-09-14T14:40:25Z</time></trkpt><trkpt lat="43.190542" lon="-0.810517"><ele>360.63</ele><time>2011-09-14T14:40:26Z</time></trkpt><trkpt lat="43.190636" lon="-0.810344"><ele>362.07</ele><time>2011-09-14T14:40:27Z</time></trkpt><trkpt lat="43.190750" lon="-0.810181"><ele>363.52</ele><time>2011-09-14T14:40:28Z</time></trkpt><trkpt lat="43.191285" lon="-0.809257"><ele>371.21</ele><time>2011-09-14T14:40:33Z</time></trkpt><trkpt lat="43.191368" lon="-0.809025"><ele>373.13</ele><time>2011-09-14T14:40:34Z</time></trkpt><trkpt lat="43.191560" lon="-0.808385"><ele>374.09</ele><time>2011-09-14T14:40:37Z</time></trkpt><trkpt lat="43.191559" lon="-0.808195"><ele>375.53</ele><time>2011-09-14T14:40:38Z</time></trkpt><trkpt lat="43.191530" lon="-0.808006"><ele>376.97</ele><time>2011-09-14T14:40:39Z</time></trkpt><trkpt lat="43.191486" lon="-0.807806"><ele>378.42</ele><time>2011-09-14T14:40:40Z</time></trkpt><trkpt lat="43.191442" lon="-0.807592"><ele>379.38</ele><time>2011-09-14T14:40:41Z</time></trkpt><trkpt lat="43.191347" lon="-0.806204"><ele>388.51</ele><time>2011-09-14T14:40:47Z</time></trkpt><trkpt lat="43.191363" lon="-0.805980"><ele>389.47</ele><time>2011-09-14T14:40:48Z</time></trkpt><trkpt lat="43.191423" lon="-0.805346"><ele>393.32</ele><time>2011-09-14T14:40:51Z</time></trkpt><trkpt lat="43.191415" lon="-0.805151"><ele>393.80</ele><time>2011-09-14T14:40:52Z</time></trkpt><trkpt lat="43.191388" lon="-0.804954"><ele>394.28</ele><time>2011-09-14T14:40:53Z</time></trkpt><trkpt lat="43.191345" lon="-0.804754"><ele>395.24</ele><time>2011-09-14T14:40:54Z</time></trkpt><trkpt lat="43.191297" lon="-0.804549"><ele>395.72</ele><time>2011-09-14T14:40:55Z</time></trkpt><trkpt lat="43.191156" lon="-0.803945"><ele>397.16</ele><time>2011-09-14T14:40:58Z</time></trkpt><trkpt lat="43.191135" lon="-0.803755"><ele>398.12</ele><time>2011-09-14T14:40:59Z</time></trkpt><trkpt lat="43.191144" lon="-0.803589"><ele>398.60</ele><time>2011-09-14T14:41:00Z</time></trkpt><trkpt lat="43.191182" lon="-0.803447"><ele>399.57</ele><time>2011-09-14T14:41:01Z</time></trkpt><trkpt lat="43.191251" lon="-0.803293"><ele>400.05</ele><time>2011-09-14T14:41:02Z</time></trkpt><trkpt lat="43.191332" lon="-0.803128"><ele>399.57</ele><time>2011-09-14T14:41:03Z</time></trkpt><trkpt lat="43.191387" lon="-0.802932"><ele>399.57</ele><time>2011-09-14T14:41:04Z</time></trkpt><trkpt lat="43.191405" lon="-0.802715"><ele>399.57</ele><time>2011-09-14T14:41:05Z</time></trkpt><trkpt lat="43.191409" lon="-0.802482"><ele>400.05</ele><time>2011-09-14T14:41:06Z</time></trkpt><trkpt lat="43.191469" lon="-0.800781"><ele>401.49</ele><time>2011-09-14T14:41:13Z</time></trkpt><trkpt lat="43.191443" lon="-0.800345"><ele>401.49</ele><time>2011-09-14T14:41:15Z</time></trkpt><trkpt lat="43.191407" lon="-0.800141"><ele>401.49</ele><time>2011-09-14T14:41:16Z</time></trkpt><trkpt lat="43.191336" lon="-0.799967"><ele>401.97</ele><time>2011-09-14T14:41:17Z</time></trkpt><trkpt lat="43.191217" lon="-0.799850"><ele>402.45</ele><time>2011-09-14T14:41:18Z</time></trkpt><trkpt lat="43.191087" lon="-0.799762"><ele>401.97</ele><time>2011-09-14T14:41:19Z</time></trkpt><trkpt lat="43.190948" lon="-0.799707"><ele>402.45</ele><time>2011-09-14T14:41:20Z</time></trkpt><trkpt lat="43.190829" lon="-0.799637"><ele>401.97</ele><time>2011-09-14T14:41:21Z</time></trkpt><trkpt lat="43.190729" lon="-0.799548"><ele>402.45</ele><time>2011-09-14T14:41:22Z</time></trkpt><trkpt lat="43.190680" lon="-0.799442"><ele>402.45</ele><time>2011-09-14T14:41:23Z</time></trkpt><trkpt lat="43.190674" lon="-0.799316"><ele>401.01</ele><time>2011-09-14T14:41:24Z</time></trkpt><trkpt lat="43.190700" lon="-0.799180"><ele>400.05</ele><time>2011-09-14T14:41:25Z</time></trkpt><trkpt lat="43.190725" lon="-0.799035"><ele>399.57</ele><time>2011-09-14T14:41:26Z</time></trkpt><trkpt lat="43.190752" lon="-0.798702"><ele>398.60</ele><time>2011-09-14T14:41:28Z</time></trkpt><trkpt lat="43.190748" lon="-0.798517"><ele>398.12</ele><time>2011-09-14T14:41:29Z</time></trkpt><trkpt lat="43.190723" lon="-0.797970"><ele>395.72</ele><time>2011-09-14T14:41:32Z</time></trkpt><trkpt lat="43.190752" lon="-0.797831"><ele>395.24</ele><time>2011-09-14T14:41:33Z</time></trkpt><trkpt lat="43.190822" lon="-0.797706"><ele>394.76</ele><time>2011-09-14T14:41:34Z</time></trkpt><trkpt lat="43.190894" lon="-0.797565"><ele>394.28</ele><time>2011-09-14T14:41:35Z</time></trkpt><trkpt lat="43.190998" lon="-0.797451"><ele>393.80</ele><time>2011-09-14T14:41:36Z</time></trkpt><trkpt lat="43.191108" lon="-0.797361"><ele>393.32</ele><time>2011-09-14T14:41:37Z</time></trkpt><trkpt lat="43.191186" lon="-0.797241"><ele>392.84</ele><time>2011-09-14T14:41:38Z</time></trkpt><trkpt lat="43.191222" lon="-0.797104"><ele>391.39</ele><time>2011-09-14T14:41:39Z</time></trkpt><trkpt lat="43.191206" lon="-0.796938"><ele>389.95</ele><time>2011-09-14T14:41:40Z</time></trkpt><trkpt lat="43.191154" lon="-0.796778"><ele>388.51</ele><time>2011-09-14T14:41:41Z</time></trkpt><trkpt lat="43.191082" lon="-0.796636"><ele>387.07</ele><time>2011-09-14T14:41:42Z</time></trkpt><trkpt lat="43.191030" lon="-0.796486"><ele>385.63</ele><time>2011-09-14T14:41:43Z</time></trkpt><trkpt lat="43.190998" lon="-0.796341"><ele>384.18</ele><time>2011-09-14T14:41:44Z</time></trkpt><trkpt lat="43.190982" lon="-0.796183"><ele>383.70</ele><time>2011-09-14T14:41:45Z</time></trkpt><trkpt lat="43.190999" lon="-0.796025"><ele>382.74</ele><time>2011-09-14T14:41:46Z</time></trkpt><trkpt lat="43.191000" lon="-0.795870"><ele>381.30</ele><time>2011-09-14T14:41:47Z</time></trkpt><trkpt lat="43.190970" lon="-0.795732"><ele>379.86</ele><time>2011-09-14T14:41:48Z</time></trkpt><trkpt lat="43.190905" lon="-0.795628"><ele>379.38</ele><time>2011-09-14T14:41:49Z</time></trkpt><trkpt lat="43.190820" lon="-0.795551"><ele>378.42</ele><time>2011-09-14T14:41:50Z</time></trkpt><trkpt lat="43.190711" lon="-0.795508"><ele>376.49</ele><time>2011-09-14T14:41:51Z</time></trkpt><trkpt lat="43.190547" lon="-0.795501"><ele>376.49</ele><time>2011-09-14T14:41:52Z</time></trkpt><trkpt lat="43.190379" lon="-0.795483"><ele>376.01</ele><time>2011-09-14T14:41:53Z</time></trkpt><trkpt lat="43.190052" lon="-0.795367"><ele>374.09</ele><time>2011-09-14T14:41:55Z</time></trkpt><trkpt lat="43.189918" lon="-0.795255"><ele>372.17</ele><time>2011-09-14T14:41:56Z</time></trkpt><trkpt lat="43.189796" lon="-0.795128"><ele>370.73</ele><time>2011-09-14T14:41:57Z</time></trkpt><trkpt lat="43.189478" lon="-0.794712"><ele>367.84</ele><time>2011-09-14T14:42:00Z</time></trkpt><trkpt lat="43.189399" lon="-0.794550"><ele>367.36</ele><time>2011-09-14T14:42:01Z</time></trkpt><trkpt lat="43.189340" lon="-0.794376"><ele>365.92</ele><time>2011-09-14T14:42:02Z</time></trkpt><trkpt lat="43.189277" lon="-0.794209"><ele>364.48</ele><time>2011-09-14T14:42:03Z</time></trkpt><trkpt lat="43.189200" lon="-0.794053"><ele>363.04</ele><time>2011-09-14T14:42:04Z</time></trkpt><trkpt lat="43.189112" lon="-0.793903"><ele>362.07</ele><time>2011-09-14T14:42:05Z</time></trkpt><trkpt lat="43.188848" lon="-0.793455"><ele>358.23</ele><time>2011-09-14T14:42:08Z</time></trkpt><trkpt lat="43.188798" lon="-0.793298"><ele>356.79</ele><time>2011-09-14T14:42:09Z</time></trkpt><trkpt lat="43.188773" lon="-0.793134"><ele>355.34</ele><time>2011-09-14T14:42:10Z</time></trkpt><trkpt lat="43.188773" lon="-0.792965"><ele>354.38</ele><time>2011-09-14T14:42:11Z</time></trkpt><trkpt lat="43.188799" lon="-0.792778"><ele>353.42</ele><time>2011-09-14T14:42:12Z</time></trkpt><trkpt lat="43.188819" lon="-0.792580"><ele>352.46</ele><time>2011-09-14T14:42:13Z</time></trkpt><trkpt lat="43.188839" lon="-0.791401"><ele>345.73</ele><time>2011-09-14T14:42:19Z</time></trkpt><trkpt lat="43.188885" lon="-0.791237"><ele>344.29</ele><time>2011-09-14T14:42:20Z</time></trkpt><trkpt lat="43.188960" lon="-0.791119"><ele>343.81</ele><time>2011-09-14T14:42:21Z</time></trkpt><trkpt lat="43.189063" lon="-0.791045"><ele>343.33</ele><time>2011-09-14T14:42:22Z</time></trkpt><trkpt lat="43.189163" lon="-0.790957"><ele>343.33</ele><time>2011-09-14T14:42:23Z</time></trkpt><trkpt lat="43.189267" lon="-0.790893"><ele>343.33</ele><time>2011-09-14T14:42:24Z</time></trkpt><trkpt lat="43.189366" lon="-0.790798"><ele>342.37</ele><time>2011-09-14T14:42:25Z</time></trkpt><trkpt lat="43.189445" lon="-0.790655"><ele>341.89</ele><time>2011-09-14T14:42:26Z</time></trkpt><trkpt lat="43.189494" lon="-0.790486"><ele>341.41</ele><time>2011-09-14T14:42:27Z</time></trkpt><trkpt lat="43.189508" lon="-0.790293"><ele>339.96</ele><time>2011-09-14T14:42:28Z</time></trkpt><trkpt lat="43.189489" lon="-0.790100"><ele>339.00</ele><time>2011-09-14T14:42:29Z</time></trkpt><trkpt lat="43.189415" lon="-0.789900"><ele>337.56</ele><time>2011-09-14T14:42:30Z</time></trkpt><trkpt lat="43.189366" lon="-0.789694"><ele>336.12</ele><time>2011-09-14T14:42:31Z</time></trkpt><trkpt lat="43.189181" lon="-0.787703"><ele>323.62</ele><time>2011-09-14T14:42:40Z</time></trkpt><trkpt lat="43.189133" lon="-0.787329"><ele>321.22</ele><time>2011-09-14T14:42:42Z</time></trkpt><trkpt lat="43.189082" lon="-0.787194"><ele>320.26</ele><time>2011-09-14T14:42:43Z</time></trkpt><trkpt lat="43.189005" lon="-0.787091"><ele>318.81</ele><time>2011-09-14T14:42:44Z</time></trkpt><trkpt lat="43.188916" lon="-0.786999"><ele>318.33</ele><time>2011-09-14T14:42:45Z</time></trkpt><trkpt lat="43.188841" lon="-0.786898"><ele>316.89</ele><time>2011-09-14T14:42:46Z</time></trkpt><trkpt lat="43.188792" lon="-0.786787"><ele>315.93</ele><time>2011-09-14T14:42:47Z</time></trkpt><trkpt lat="43.188751" lon="-0.786650"><ele>315.45</ele><time>2011-09-14T14:42:48Z</time></trkpt><trkpt lat="43.188735" lon="-0.786496"><ele>314.97</ele><time>2011-09-14T14:42:49Z</time></trkpt><trkpt lat="43.188775" lon="-0.786325"><ele>314.49</ele><time>2011-09-14T14:42:50Z</time></trkpt><trkpt lat="43.188878" lon="-0.786146"><ele>313.53</ele><time>2011-09-14T14:42:51Z</time></trkpt><trkpt lat="43.189000" lon="-0.785958"><ele>311.60</ele><time>2011-09-14T14:42:52Z</time></trkpt><trkpt lat="43.189109" lon="-0.785758"><ele>310.16</ele><time>2011-09-14T14:42:53Z</time></trkpt><trkpt lat="43.189567" lon="-0.784104"><ele>299.11</ele><time>2011-09-14T14:43:01Z</time></trkpt><trkpt lat="43.189546" lon="-0.783905"><ele>297.67</ele><time>2011-09-14T14:43:02Z</time></trkpt><trkpt lat="43.189511" lon="-0.783703"><ele>296.22</ele><time>2011-09-14T14:43:03Z</time></trkpt><trkpt lat="43.189465" lon="-0.783501"><ele>294.78</ele><time>2011-09-14T14:43:04Z</time></trkpt><trkpt lat="43.189421" lon="-0.783300"><ele>293.82</ele><time>2011-09-14T14:43:05Z</time></trkpt><trkpt lat="43.189323" lon="-0.782923"><ele>290.94</ele><time>2011-09-14T14:43:07Z</time></trkpt><trkpt lat="43.189252" lon="-0.782767"><ele>289.49</ele><time>2011-09-14T14:43:08Z</time></trkpt><trkpt lat="43.189155" lon="-0.782639"><ele>288.05</ele><time>2011-09-14T14:43:09Z</time></trkpt><trkpt lat="43.189027" lon="-0.782528"><ele>287.09</ele><time>2011-09-14T14:43:10Z</time></trkpt><trkpt lat="43.188896" lon="-0.782418"><ele>285.65</ele><time>2011-09-14T14:43:11Z</time></trkpt><trkpt lat="43.188249" lon="-0.781912"><ele>278.92</ele><time>2011-09-14T14:43:16Z</time></trkpt><trkpt lat="43.188102" lon="-0.781854"><ele>277.96</ele><time>2011-09-14T14:43:17Z</time></trkpt><trkpt lat="43.186259" lon="-0.781350"><ele>260.17</ele><time>2011-09-14T14:43:29Z</time></trkpt><trkpt lat="43.186128" lon="-0.781272"><ele>258.73</ele><time>2011-09-14T14:43:30Z</time></trkpt><trkpt lat="43.186014" lon="-0.781165"><ele>257.77</ele><time>2011-09-14T14:43:31Z</time></trkpt><trkpt lat="43.185917" lon="-0.781029"><ele>257.29</ele><time>2011-09-14T14:43:32Z</time></trkpt><trkpt lat="43.185833" lon="-0.780872"><ele>256.33</ele><time>2011-09-14T14:43:33Z</time></trkpt><trkpt lat="43.185751" lon="-0.780700"><ele>255.37</ele><time>2011-09-14T14:43:34Z</time></trkpt><trkpt lat="43.185073" lon="-0.779246"><ele>248.64</ele><time>2011-09-14T14:43:42Z</time></trkpt><trkpt lat="43.185024" lon="-0.779066"><ele>247.68</ele><time>2011-09-14T14:43:43Z</time></trkpt><trkpt lat="43.184997" lon="-0.778882"><ele>246.72</ele><time>2011-09-14T14:43:44Z</time></trkpt><trkpt lat="43.184984" lon="-0.778698"><ele>246.23</ele><time>2011-09-14T14:43:45Z</time></trkpt><trkpt lat="43.184977" lon="-0.778515"><ele>245.75</ele><time>2011-09-14T14:43:46Z</time></trkpt><trkpt lat="43.184949" lon="-0.777291"><ele>242.87</ele><time>2011-09-14T14:43:54Z</time></trkpt><trkpt lat="43.185118" lon="-0.776520"><ele>242.39</ele><time>2011-09-14T14:44:02Z</time></trkpt><trkpt lat="43.185389" lon="-0.775731"><ele>244.79</ele><time>2011-09-14T14:44:10Z</time></trkpt><trkpt lat="43.185418" lon="-0.775631"><ele>245.75</ele><time>2011-09-14T14:44:11Z</time></trkpt><trkpt lat="43.185483" lon="-0.775567"><ele>246.23</ele><time>2011-09-14T14:44:12Z</time></trkpt><trkpt lat="43.185571" lon="-0.775364"><ele>247.20</ele><time>2011-09-14T14:44:14Z</time></trkpt><trkpt lat="43.185790" lon="-0.774151"><ele>240.95</ele><time>2011-09-14T14:44:23Z</time></trkpt><trkpt lat="43.186076" lon="-0.772433"><ele>232.30</ele><time>2011-09-14T14:44:34Z</time></trkpt><trkpt lat="43.186121" lon="-0.772298"><ele>231.81</ele><time>2011-09-14T14:44:35Z</time></trkpt><trkpt lat="43.186188" lon="-0.772201"><ele>230.85</ele><time>2011-09-14T14:44:36Z</time></trkpt><trkpt lat="43.186272" lon="-0.772126"><ele>230.37</ele><time>2011-09-14T14:44:37Z</time></trkpt><trkpt lat="43.186368" lon="-0.772061"><ele>229.89</ele><time>2011-09-14T14:44:38Z</time></trkpt><trkpt lat="43.186465" lon="-0.772005"><ele>229.41</ele><time>2011-09-14T14:44:39Z</time></trkpt><trkpt lat="43.186565" lon="-0.771957"><ele>228.93</ele><time>2011-09-14T14:44:40Z</time></trkpt><trkpt lat="43.186673" lon="-0.771915"><ele>227.97</ele><time>2011-09-14T14:44:41Z</time></trkpt><trkpt lat="43.186885" lon="-0.771867"><ele>227.01</ele><time>2011-09-14T14:44:43Z</time></trkpt><trkpt lat="43.187014" lon="-0.771874"><ele>226.05</ele><time>2011-09-14T14:44:44Z</time></trkpt><trkpt lat="43.187142" lon="-0.771893"><ele>225.57</ele><time>2011-09-14T14:44:45Z</time></trkpt><trkpt lat="43.188331" lon="-0.772076"><ele>216.91</ele><time>2011-09-14T14:44:55Z</time></trkpt><trkpt lat="43.188430" lon="-0.772019"><ele>216.43</ele><time>2011-09-14T14:44:56Z</time></trkpt><trkpt lat="43.188527" lon="-0.771944"><ele>215.95</ele><time>2011-09-14T14:44:57Z</time></trkpt><trkpt lat="43.188622" lon="-0.771854"><ele>215.47</ele><time>2011-09-14T14:44:58Z</time></trkpt><trkpt lat="43.188717" lon="-0.771755"><ele>215.47</ele><time>2011-09-14T14:44:59Z</time></trkpt><trkpt lat="43.188990" lon="-0.771435"><ele>216.43</ele><time>2011-09-14T14:45:02Z</time></trkpt><trkpt lat="43.189055" lon="-0.771293"><ele>216.43</ele><time>2011-09-14T14:45:03Z</time></trkpt><trkpt lat="43.189105" lon="-0.771137"><ele>216.43</ele><time>2011-09-14T14:45:04Z</time></trkpt><trkpt lat="43.189143" lon="-0.770977"><ele>216.91</ele><time>2011-09-14T14:45:05Z</time></trkpt><trkpt lat="43.189166" lon="-0.770819"><ele>217.88</ele><time>2011-09-14T14:45:06Z</time></trkpt><trkpt lat="43.189186" lon="-0.770662"><ele>217.88</ele><time>2011-09-14T14:45:07Z</time></trkpt><trkpt lat="43.189332" lon="-0.769530"><ele>221.24</ele><time>2011-09-14T14:45:16Z</time></trkpt><trkpt lat="43.189353" lon="-0.769431"><ele>221.24</ele><time>2011-09-14T14:45:17Z</time></trkpt><trkpt lat="43.189384" lon="-0.769338"><ele>221.24</ele><time>2011-09-14T14:45:18Z</time></trkpt><trkpt lat="43.189431" lon="-0.769250"><ele>220.76</ele><time>2011-09-14T14:45:19Z</time></trkpt><trkpt lat="43.189491" lon="-0.769171"><ele>220.76</ele><time>2011-09-14T14:45:20Z</time></trkpt><trkpt lat="43.189554" lon="-0.769101"><ele>220.28</ele><time>2011-09-14T14:45:21Z</time></trkpt><trkpt lat="43.189628" lon="-0.769036"><ele>220.28</ele><time>2011-09-14T14:45:22Z</time></trkpt><trkpt lat="43.189712" lon="-0.768973"><ele>220.28</ele><time>2011-09-14T14:45:23Z</time></trkpt><trkpt lat="43.189808" lon="-0.768917"><ele>219.80</ele><time>2011-09-14T14:45:24Z</time></trkpt><trkpt lat="43.189919" lon="-0.768893"><ele>219.80</ele><time>2011-09-14T14:45:25Z</time></trkpt><trkpt lat="43.190031" lon="-0.768876"><ele>219.80</ele><time>2011-09-14T14:45:26Z</time></trkpt><trkpt lat="43.190142" lon="-0.768856"><ele>219.80</ele><time>2011-09-14T14:45:27Z</time></trkpt><trkpt lat="43.190236" lon="-0.768815"><ele>219.32</ele><time>2011-09-14T14:45:28Z</time></trkpt><trkpt lat="43.190322" lon="-0.768758"><ele>218.84</ele><time>2011-09-14T14:45:29Z</time></trkpt><trkpt lat="43.190397" lon="-0.768674"><ele>218.36</ele><time>2011-09-14T14:45:30Z</time></trkpt><trkpt lat="43.190463" lon="-0.768563"><ele>218.84</ele><time>2011-09-14T14:45:31Z</time></trkpt><trkpt lat="43.190523" lon="-0.768437"><ele>218.36</ele><time>2011-09-14T14:45:32Z</time></trkpt><trkpt lat="43.190576" lon="-0.768304"><ele>218.36</ele><time>2011-09-14T14:45:33Z</time></trkpt><trkpt lat="43.191211" lon="-0.767309"><ele>215.47</ele><time>2011-09-14T14:45:42Z</time></trkpt><trkpt lat="43.191258" lon="-0.767185"><ele>214.51</ele><time>2011-09-14T14:45:43Z</time></trkpt><trkpt lat="43.191296" lon="-0.767043"><ele>213.55</ele><time>2011-09-14T14:45:44Z</time></trkpt><trkpt lat="43.191680" lon="-0.765303"><ele>211.63</ele><time>2011-09-14T14:45:54Z</time></trkpt><trkpt lat="43.192196" lon="-0.763304"><ele>211.63</ele><time>2011-09-14T14:46:03Z</time></trkpt><trkpt lat="43.193087" lon="-0.761142"><ele>209.22</ele><time>2011-09-14T14:46:12Z</time></trkpt><trkpt lat="43.193359" lon="-0.760426"><ele>208.74</ele><time>2011-09-14T14:46:15Z</time></trkpt><trkpt lat="43.193414" lon="-0.760171"><ele>208.74</ele><time>2011-09-14T14:46:16Z</time></trkpt><trkpt lat="43.193453" lon="-0.759918"><ele>208.26</ele><time>2011-09-14T14:46:17Z</time></trkpt><trkpt lat="43.193605" lon="-0.759012"><ele>207.78</ele><time>2011-09-14T14:46:21Z</time></trkpt><trkpt lat="43.193664" lon="-0.758823"><ele>207.30</ele><time>2011-09-14T14:46:22Z</time></trkpt><trkpt lat="43.193754" lon="-0.758650"><ele>207.30</ele><time>2011-09-14T14:46:23Z</time></trkpt><trkpt lat="43.193883" lon="-0.758499"><ele>206.82</ele><time>2011-09-14T14:46:24Z</time></trkpt><trkpt lat="43.194035" lon="-0.758364"><ele>205.86</ele><time>2011-09-14T14:46:25Z</time></trkpt><trkpt lat="43.194223" lon="-0.758241"><ele>204.90</ele><time>2011-09-14T14:46:26Z</time></trkpt><trkpt lat="43.194437" lon="-0.758134"><ele>203.94</ele><time>2011-09-14T14:46:27Z</time></trkpt><trkpt lat="43.194645" lon="-0.758039"><ele>202.98</ele><time>2011-09-14T14:46:28Z</time></trkpt><trkpt lat="43.194847" lon="-0.757952"><ele>202.98</ele><time>2011-09-14T14:46:29Z</time></trkpt><trkpt lat="43.196846" lon="-0.757152"><ele>201.53</ele><time>2011-09-14T14:46:39Z</time></trkpt><trkpt lat="43.197831" lon="-0.756907"><ele>202.01</ele><time>2011-09-14T14:46:44Z</time></trkpt><trkpt lat="43.198007" lon="-0.756912"><ele>202.98</ele><time>2011-09-14T14:46:45Z</time></trkpt><trkpt lat="43.198490" lon="-0.756954"><ele>203.94</ele><time>2011-09-14T14:46:48Z</time></trkpt><trkpt lat="43.198630" lon="-0.756922"><ele>204.42</ele><time>2011-09-14T14:46:49Z</time></trkpt><trkpt lat="43.198761" lon="-0.756846"><ele>204.42</ele><time>2011-09-14T14:46:50Z</time></trkpt><trkpt lat="43.198861" lon="-0.756716"><ele>203.94</ele><time>2011-09-14T14:46:51Z</time></trkpt><trkpt lat="43.198954" lon="-0.756554"><ele>204.42</ele><time>2011-09-14T14:46:52Z</time></trkpt><trkpt lat="43.199044" lon="-0.756369"><ele>204.42</ele><time>2011-09-14T14:46:53Z</time></trkpt><trkpt lat="43.199131" lon="-0.756161"><ele>204.42</ele><time>2011-09-14T14:46:54Z</time></trkpt><trkpt lat="43.199218" lon="-0.755936"><ele>204.42</ele><time>2011-09-14T14:46:55Z</time></trkpt><trkpt lat="43.199919" lon="-0.754156"><ele>203.94</ele><time>2011-09-14T14:47:02Z</time></trkpt><trkpt lat="43.201191" lon="-0.751199"><ele>203.94</ele><time>2011-09-14T14:47:14Z</time></trkpt><trkpt lat="43.201756" lon="-0.749456"><ele>202.98</ele><time>2011-09-14T14:47:21Z</time></trkpt><trkpt lat="43.202144" lon="-0.746699"><ele>202.49</ele><time>2011-09-14T14:47:31Z</time></trkpt><trkpt lat="43.202545" lon="-0.744851"><ele>202.49</ele><time>2011-09-14T14:47:39Z</time></trkpt><trkpt lat="43.202590" lon="-0.744630"><ele>202.01</ele><time>2011-09-14T14:47:40Z</time></trkpt><trkpt lat="43.202615" lon="-0.744402"><ele>202.01</ele><time>2011-09-14T14:47:41Z</time></trkpt><trkpt lat="43.202614" lon="-0.744169"><ele>202.01</ele><time>2011-09-14T14:47:42Z</time></trkpt><trkpt lat="43.202586" lon="-0.743932"><ele>202.01</ele><time>2011-09-14T14:47:43Z</time></trkpt><trkpt lat="43.202538" lon="-0.743694"><ele>202.01</ele><time>2011-09-14T14:47:44Z</time></trkpt><trkpt lat="43.202478" lon="-0.743456"><ele>202.01</ele><time>2011-09-14T14:47:45Z</time></trkpt><trkpt lat="43.201893" lon="-0.741112"><ele>201.53</ele><time>2011-09-14T14:47:54Z</time></trkpt><trkpt lat="43.201232" lon="-0.737847"><ele>201.05</ele><time>2011-09-14T14:48:06Z</time></trkpt><trkpt lat="43.200979" lon="-0.735538"><ele>201.53</ele><time>2011-09-14T14:48:15Z</time></trkpt><trkpt lat="43.200910" lon="-0.735297"><ele>201.53</ele><time>2011-09-14T14:48:16Z</time></trkpt><trkpt lat="43.200829" lon="-0.735072"><ele>201.53</ele><time>2011-09-14T14:48:17Z</time></trkpt><trkpt lat="43.200735" lon="-0.734870"><ele>201.53</ele><time>2011-09-14T14:48:18Z</time></trkpt><trkpt lat="43.200632" lon="-0.734694"><ele>202.01</ele><time>2011-09-14T14:48:19Z</time></trkpt><trkpt lat="43.200519" lon="-0.734543"><ele>202.01</ele><time>2011-09-14T14:48:20Z</time></trkpt><trkpt lat="43.200386" lon="-0.734411"><ele>202.01</ele><time>2011-09-14T14:48:21Z</time></trkpt><trkpt lat="43.200248" lon="-0.734276"><ele>202.01</ele><time>2011-09-14T14:48:22Z</time></trkpt><trkpt lat="43.198977" lon="-0.732597"><ele>201.05</ele><time>2011-09-14T14:48:32Z</time></trkpt><trkpt lat="43.198468" lon="-0.731795"><ele>199.61</ele><time>2011-09-14T14:48:37Z</time></trkpt><trkpt lat="43.198404" lon="-0.731617"><ele>200.09</ele><time>2011-09-14T14:48:38Z</time></trkpt><trkpt lat="43.198358" lon="-0.731423"><ele>199.61</ele><time>2011-09-14T14:48:39Z</time></trkpt><trkpt lat="43.198018" lon="-0.729596"><ele>198.17</ele><time>2011-09-14T14:48:47Z</time></trkpt><trkpt lat="43.197842" lon="-0.727623"><ele>197.69</ele><time>2011-09-14T14:48:56Z</time></trkpt><trkpt lat="43.197829" lon="-0.724708"><ele>198.65</ele><time>2011-09-14T14:49:09Z</time></trkpt><trkpt lat="43.197847" lon="-0.723881"><ele>201.05</ele><time>2011-09-14T14:49:13Z</time></trkpt><trkpt lat="43.197819" lon="-0.723676"><ele>201.53</ele><time>2011-09-14T14:49:14Z</time></trkpt><trkpt lat="43.197672" lon="-0.722379"><ele>206.34</ele><time>2011-09-14T14:49:21Z</time></trkpt><trkpt lat="43.197624" lon="-0.722223"><ele>206.82</ele><time>2011-09-14T14:49:22Z</time></trkpt><trkpt lat="43.197554" lon="-0.722078"><ele>207.30</ele><time>2011-09-14T14:49:23Z</time></trkpt><trkpt lat="43.197465" lon="-0.721955"><ele>207.78</ele><time>2011-09-14T14:49:24Z</time></trkpt><trkpt lat="43.197349" lon="-0.721872"><ele>208.74</ele><time>2011-09-14T14:49:25Z</time></trkpt><trkpt lat="43.197202" lon="-0.721832"><ele>209.22</ele><time>2011-09-14T14:49:26Z</time></trkpt><trkpt lat="43.197026" lon="-0.721907"><ele>209.22</ele><time>2011-09-14T14:49:27Z</time></trkpt><trkpt lat="43.196864" lon="-0.721906"><ele>210.19</ele><time>2011-09-14T14:49:28Z</time></trkpt><trkpt lat="43.196721" lon="-0.721904"><ele>210.19</ele><time>2011-09-14T14:49:29Z</time></trkpt><trkpt lat="43.196601" lon="-0.721859"><ele>210.67</ele><time>2011-09-14T14:49:30Z</time></trkpt><trkpt lat="43.196496" lon="-0.721800"><ele>211.15</ele><time>2011-09-14T14:49:31Z</time></trkpt><trkpt lat="43.196409" lon="-0.721724"><ele>211.63</ele><time>2011-09-14T14:49:32Z</time></trkpt><trkpt lat="43.196360" lon="-0.721627"><ele>212.11</ele><time>2011-09-14T14:49:33Z</time></trkpt><trkpt lat="43.196365" lon="-0.721492"><ele>212.59</ele><time>2011-09-14T14:49:34Z</time></trkpt><trkpt lat="43.196411" lon="-0.721402"><ele>214.99</ele><time>2011-09-14T14:49:35Z</time></trkpt><trkpt lat="43.196498" lon="-0.721320"><ele>218.84</ele><time>2011-09-14T14:49:36Z</time></trkpt><trkpt lat="43.196636" lon="-0.721258"><ele>220.28</ele><time>2011-09-14T14:49:37Z</time></trkpt><trkpt lat="43.196798" lon="-0.721173"><ele>220.76</ele><time>2011-09-14T14:49:38Z</time></trkpt><trkpt lat="43.196948" lon="-0.721067"><ele>222.68</ele><time>2011-09-14T14:49:39Z</time></trkpt><trkpt lat="43.197072" lon="-0.720949"><ele>223.16</ele><time>2011-09-14T14:49:40Z</time></trkpt><trkpt lat="43.197527" lon="-0.720448"><ele>226.53</ele><time>2011-09-14T14:49:44Z</time></trkpt><trkpt lat="43.197644" lon="-0.720332"><ele>227.01</ele><time>2011-09-14T14:49:45Z</time></trkpt><trkpt lat="43.197749" lon="-0.720197"><ele>227.49</ele><time>2011-09-14T14:49:46Z</time></trkpt><trkpt lat="43.197848" lon="-0.720039"><ele>227.01</ele><time>2011-09-14T14:49:47Z</time></trkpt><trkpt lat="43.197934" lon="-0.719862"><ele>227.49</ele><time>2011-09-14T14:49:48Z</time></trkpt><trkpt lat="43.198006" lon="-0.719670"><ele>227.97</ele><time>2011-09-14T14:49:49Z</time></trkpt><trkpt lat="43.198060" lon="-0.719466"><ele>228.45</ele><time>2011-09-14T14:49:50Z</time></trkpt><trkpt lat="43.198098" lon="-0.719259"><ele>228.93</ele><time>2011-09-14T14:49:51Z</time></trkpt><trkpt lat="43.198122" lon="-0.719056"><ele>229.41</ele><time>2011-09-14T14:49:52Z</time></trkpt><trkpt lat="43.198127" lon="-0.718862"><ele>229.89</ele><time>2011-09-14T14:49:53Z</time></trkpt><trkpt lat="43.198111" lon="-0.718690"><ele>229.89</ele><time>2011-09-14T14:49:54Z</time></trkpt><trkpt lat="43.198072" lon="-0.718550"><ele>230.37</ele><time>2011-09-14T14:49:55Z</time></trkpt><trkpt lat="43.198005" lon="-0.718443"><ele>230.37</ele><time>2011-09-14T14:49:56Z</time></trkpt><trkpt lat="43.197925" lon="-0.718398"><ele>230.85</ele><time>2011-09-14T14:49:57Z</time></trkpt><trkpt lat="43.197841" lon="-0.718364"><ele>231.81</ele><time>2011-09-14T14:49:58Z</time></trkpt><trkpt lat="43.197735" lon="-0.718351"><ele>232.30</ele><time>2011-09-14T14:49:59Z</time></trkpt><trkpt lat="43.197619" lon="-0.718360"><ele>233.26</ele><time>2011-09-14T14:50:00Z</time></trkpt><trkpt lat="43.197493" lon="-0.718384"><ele>234.22</ele><time>2011-09-14T14:50:01Z</time></trkpt><trkpt lat="43.197308" lon="-0.718418"><ele>235.18</ele><time>2011-09-14T14:50:02Z</time></trkpt><trkpt lat="43.196302" lon="-0.718550"><ele>244.79</ele><time>2011-09-14T14:50:09Z</time></trkpt><trkpt lat="43.196194" lon="-0.718518"><ele>247.20</ele><time>2011-09-14T14:50:10Z</time></trkpt><trkpt lat="43.196086" lon="-0.718328"><ele>255.37</ele><time>2011-09-14T14:50:12Z</time></trkpt><trkpt lat="43.196101" lon="-0.718202"><ele>258.25</ele><time>2011-09-14T14:50:13Z</time></trkpt><trkpt lat="43.196176" lon="-0.718078"><ele>259.69</ele><time>2011-09-14T14:50:14Z</time></trkpt><trkpt lat="43.196261" lon="-0.717941"><ele>259.69</ele><time>2011-09-14T14:50:15Z</time></trkpt><trkpt lat="43.196351" lon="-0.717782"><ele>260.17</ele><time>2011-09-14T14:50:16Z</time></trkpt><trkpt lat="43.196414" lon="-0.717614"><ele>259.69</ele><time>2011-09-14T14:50:17Z</time></trkpt><trkpt lat="43.196461" lon="-0.717454"><ele>258.25</ele><time>2011-09-14T14:50:18Z</time></trkpt><trkpt lat="43.196482" lon="-0.717307"><ele>257.29</ele><time>2011-09-14T14:50:19Z</time></trkpt><trkpt lat="43.196489" lon="-0.717171"><ele>256.33</ele><time>2011-09-14T14:50:20Z</time></trkpt><trkpt lat="43.196450" lon="-0.717069"><ele>256.33</ele><time>2011-09-14T14:50:21Z</time></trkpt><trkpt lat="43.196372" lon="-0.717006"><ele>257.29</ele><time>2011-09-14T14:50:22Z</time></trkpt><trkpt lat="43.196276" lon="-0.716984"><ele>257.29</ele><time>2011-09-14T14:50:23Z</time></trkpt><trkpt lat="43.196165" lon="-0.717003"><ele>257.77</ele><time>2011-09-14T14:50:24Z</time></trkpt><trkpt lat="43.195996" lon="-0.717077"><ele>258.25</ele><time>2011-09-14T14:50:25Z</time></trkpt><trkpt lat="43.195847" lon="-0.717163"><ele>258.73</ele><time>2011-09-14T14:50:26Z</time></trkpt><trkpt lat="43.195704" lon="-0.717262"><ele>260.17</ele><time>2011-09-14T14:50:27Z</time></trkpt><trkpt lat="43.195576" lon="-0.717366"><ele>261.62</ele><time>2011-09-14T14:50:28Z</time></trkpt><trkpt lat="43.194903" lon="-0.717719"><ele>267.86</ele><time>2011-09-14T14:50:33Z</time></trkpt><trkpt lat="43.194654" lon="-0.717690"><ele>278.92</ele><time>2011-09-14T14:50:36Z</time></trkpt><trkpt lat="43.194644" lon="-0.717532"><ele>280.84</ele><time>2011-09-14T14:50:37Z</time></trkpt><trkpt lat="43.194688" lon="-0.716524"><ele>285.17</ele><time>2011-09-14T14:50:42Z</time></trkpt><trkpt lat="43.194724" lon="-0.716155"><ele>286.61</ele><time>2011-09-14T14:50:44Z</time></trkpt><trkpt lat="43.194864" lon="-0.715958"><ele>283.25</ele><time>2011-09-14T14:50:45Z</time></trkpt><trkpt lat="43.194969" lon="-0.715760"><ele>281.32</ele><time>2011-09-14T14:50:46Z</time></trkpt><trkpt lat="43.195563" lon="-0.714402"><ele>282.28</ele><time>2011-09-14T14:50:53Z</time></trkpt><trkpt lat="43.195679" lon="-0.714285"><ele>282.77</ele><time>2011-09-14T14:50:54Z</time></trkpt><trkpt lat="43.195814" lon="-0.714160"><ele>283.73</ele><time>2011-09-14T14:50:55Z</time></trkpt><trkpt lat="43.195957" lon="-0.714049"><ele>283.73</ele><time>2011-09-14T14:50:56Z</time></trkpt><trkpt lat="43.196079" lon="-0.713934"><ele>283.73</ele><time>2011-09-14T14:50:57Z</time></trkpt><trkpt lat="43.196174" lon="-0.713798"><ele>284.21</ele><time>2011-09-14T14:50:58Z</time></trkpt><trkpt lat="43.196243" lon="-0.713629"><ele>284.21</ele><time>2011-09-14T14:50:59Z</time></trkpt><trkpt lat="43.196287" lon="-0.713449"><ele>284.69</ele><time>2011-09-14T14:51:00Z</time></trkpt><trkpt lat="43.196291" lon="-0.713263"><ele>285.65</ele><time>2011-09-14T14:51:01Z</time></trkpt><trkpt lat="43.196265" lon="-0.713070"><ele>286.13</ele><time>2011-09-14T14:51:02Z</time></trkpt><trkpt lat="43.196219" lon="-0.712878"><ele>286.61</ele><time>2011-09-14T14:51:03Z</time></trkpt><trkpt lat="43.196198" lon="-0.712687"><ele>287.09</ele><time>2011-09-14T14:51:04Z</time></trkpt><trkpt lat="43.196191" lon="-0.712506"><ele>287.57</ele><time>2011-09-14T14:51:05Z</time></trkpt><trkpt lat="43.196194" lon="-0.712341"><ele>288.05</ele><time>2011-09-14T14:51:06Z</time></trkpt><trkpt lat="43.196188" lon="-0.712193"><ele>288.53</ele><time>2011-09-14T14:51:07Z</time></trkpt><trkpt lat="43.196162" lon="-0.712060"><ele>289.01</ele><time>2011-09-14T14:51:08Z</time></trkpt><trkpt lat="43.196116" lon="-0.711943"><ele>289.01</ele><time>2011-09-14T14:51:09Z</time></trkpt><trkpt lat="43.196043" lon="-0.711845"><ele>289.49</ele><time>2011-09-14T14:51:10Z</time></trkpt><trkpt lat="43.195956" lon="-0.711757"><ele>288.53</ele><time>2011-09-14T14:51:11Z</time></trkpt><trkpt lat="43.195864" lon="-0.711667"><ele>287.57</ele><time>2011-09-14T14:51:12Z</time></trkpt><trkpt lat="43.195119" lon="-0.710883"><ele>284.21</ele><time>2011-09-14T14:51:20Z</time></trkpt><trkpt lat="43.195064" lon="-0.710785"><ele>284.21</ele><time>2011-09-14T14:51:21Z</time></trkpt><trkpt lat="43.195032" lon="-0.710674"><ele>283.73</ele><time>2011-09-14T14:51:22Z</time></trkpt><trkpt lat="43.195003" lon="-0.710555"><ele>283.25</ele><time>2011-09-14T14:51:23Z</time></trkpt><trkpt lat="43.194976" lon="-0.710439"><ele>282.77</ele><time>2011-09-14T14:51:24Z</time></trkpt><trkpt lat="43.194908" lon="-0.710128"><ele>280.36</ele><time>2011-09-14T14:51:27Z</time></trkpt><trkpt lat="43.194874" lon="-0.710080"><ele>279.40</ele><time>2011-09-14T14:51:28Z</time></trkpt><trkpt lat="43.194827" lon="-0.710052"><ele>278.44</ele><time>2011-09-14T14:51:29Z</time></trkpt><trkpt lat="43.194764" lon="-0.710036"><ele>277.48</ele><time>2011-09-14T14:51:30Z</time></trkpt><trkpt lat="43.194686" lon="-0.710022"><ele>276.52</ele><time>2011-09-14T14:51:31Z</time></trkpt><trkpt lat="43.194283" lon="-0.709896"><ele>274.11</ele><time>2011-09-14T14:51:35Z</time></trkpt><trkpt lat="43.194191" lon="-0.709826"><ele>273.63</ele><time>2011-09-14T14:51:36Z</time></trkpt><trkpt lat="43.194114" lon="-0.709738"><ele>273.63</ele><time>2011-09-14T14:51:37Z</time></trkpt><trkpt lat="43.194051" lon="-0.709641"><ele>273.15</ele><time>2011-09-14T14:51:38Z</time></trkpt><trkpt lat="43.193999" lon="-0.709537"><ele>273.15</ele><time>2011-09-14T14:51:39Z</time></trkpt><trkpt lat="43.193959" lon="-0.709426"><ele>272.67</ele><time>2011-09-14T14:51:40Z</time></trkpt><trkpt lat="43.193916" lon="-0.709313"><ele>272.67</ele><time>2011-09-14T14:51:41Z</time></trkpt><trkpt lat="43.193858" lon="-0.709197"><ele>272.67</ele><time>2011-09-14T14:51:42Z</time></trkpt><trkpt lat="43.193785" lon="-0.709081"><ele>273.63</ele><time>2011-09-14T14:51:43Z</time></trkpt><trkpt lat="43.193707" lon="-0.708965"><ele>274.11</ele><time>2011-09-14T14:51:44Z</time></trkpt><trkpt lat="43.193280" lon="-0.708096"><ele>278.92</ele><time>2011-09-14T14:51:51Z</time></trkpt><trkpt lat="43.193255" lon="-0.707967"><ele>278.92</ele><time>2011-09-14T14:51:52Z</time></trkpt><trkpt lat="43.193258" lon="-0.707835"><ele>278.92</ele><time>2011-09-14T14:51:53Z</time></trkpt><trkpt lat="43.193284" lon="-0.707707"><ele>279.40</ele><time>2011-09-14T14:51:54Z</time></trkpt><trkpt lat="43.193334" lon="-0.707590"><ele>279.40</ele><time>2011-09-14T14:51:55Z</time></trkpt><trkpt lat="43.193410" lon="-0.707493"><ele>279.40</ele><time>2011-09-14T14:51:56Z</time></trkpt><trkpt lat="43.193485" lon="-0.707415"><ele>279.88</ele><time>2011-09-14T14:51:57Z</time></trkpt><trkpt lat="43.193557" lon="-0.707348"><ele>280.36</ele><time>2011-09-14T14:51:58Z</time></trkpt><trkpt lat="43.193671" lon="-0.707237"><ele>280.84</ele><time>2011-09-14T14:52:00Z</time></trkpt><trkpt lat="43.193708" lon="-0.707176"><ele>280.84</ele><time>2011-09-14T14:52:01Z</time></trkpt><trkpt lat="43.193731" lon="-0.707103"><ele>280.84</ele><time>2011-09-14T14:52:02Z</time></trkpt><trkpt lat="43.193739" lon="-0.707012"><ele>281.32</ele><time>2011-09-14T14:52:03Z</time></trkpt><trkpt lat="43.193730" lon="-0.706903"><ele>281.32</ele><time>2011-09-14T14:52:04Z</time></trkpt><trkpt lat="43.193710" lon="-0.706777"><ele>281.80</ele><time>2011-09-14T14:52:05Z</time></trkpt><trkpt lat="43.193691" lon="-0.706640"><ele>282.28</ele><time>2011-09-14T14:52:06Z</time></trkpt><trkpt lat="43.193687" lon="-0.706509"><ele>283.25</ele><time>2011-09-14T14:52:07Z</time></trkpt><trkpt lat="43.193703" lon="-0.706388"><ele>283.73</ele><time>2011-09-14T14:52:08Z</time></trkpt><trkpt lat="43.193738" lon="-0.706275"><ele>284.69</ele><time>2011-09-14T14:52:09Z</time></trkpt><trkpt lat="43.193794" lon="-0.706167"><ele>285.17</ele><time>2011-09-14T14:52:10Z</time></trkpt><trkpt lat="43.193874" lon="-0.706061"><ele>285.65</ele><time>2011-09-14T14:52:11Z</time></trkpt><trkpt lat="43.193962" lon="-0.705951"><ele>286.61</ele><time>2011-09-14T14:52:12Z</time></trkpt><trkpt lat="43.194130" lon="-0.705712"><ele>288.05</ele><time>2011-09-14T14:52:14Z</time></trkpt><trkpt lat="43.194197" lon="-0.705567"><ele>289.01</ele><time>2011-09-14T14:52:15Z</time></trkpt><trkpt lat="43.194256" lon="-0.705403"><ele>289.49</ele><time>2011-09-14T14:52:16Z</time></trkpt><trkpt lat="43.194299" lon="-0.705232"><ele>289.97</ele><time>2011-09-14T14:52:17Z</time></trkpt><trkpt lat="43.194326" lon="-0.705054"><ele>290.94</ele><time>2011-09-14T14:52:18Z</time></trkpt><trkpt lat="43.194334" lon="-0.704868"><ele>291.90</ele><time>2011-09-14T14:52:19Z</time></trkpt><trkpt lat="43.194320" lon="-0.704671"><ele>292.86</ele><time>2011-09-14T14:52:20Z</time></trkpt><trkpt lat="43.194291" lon="-0.704471"><ele>293.34</ele><time>2011-09-14T14:52:21Z</time></trkpt><trkpt lat="43.194256" lon="-0.704279"><ele>293.82</ele><time>2011-09-14T14:52:22Z</time></trkpt><trkpt lat="43.193781" lon="-0.702847"><ele>297.67</ele><time>2011-09-14T14:52:29Z</time></trkpt><trkpt lat="43.193620" lon="-0.702261"><ele>298.15</ele><time>2011-09-14T14:52:32Z</time></trkpt><trkpt lat="43.193596" lon="-0.702045"><ele>298.63</ele><time>2011-09-14T14:52:33Z</time></trkpt><trkpt lat="43.193588" lon="-0.701820"><ele>298.63</ele><time>2011-09-14T14:52:34Z</time></trkpt><trkpt lat="43.193632" lon="-0.700639"><ele>297.18</ele><time>2011-09-14T14:52:40Z</time></trkpt><trkpt lat="43.193695" lon="-0.700484"><ele>296.70</ele><time>2011-09-14T14:52:41Z</time></trkpt><trkpt lat="43.193787" lon="-0.700330"><ele>295.26</ele><time>2011-09-14T14:52:42Z</time></trkpt><trkpt lat="43.194102" lon="-0.699648"><ele>290.94</ele><time>2011-09-14T14:52:46Z</time></trkpt><trkpt lat="43.194152" lon="-0.699450"><ele>289.97</ele><time>2011-09-14T14:52:47Z</time></trkpt><trkpt lat="43.194176" lon="-0.699241"><ele>289.49</ele><time>2011-09-14T14:52:48Z</time></trkpt><trkpt lat="43.194181" lon="-0.699023"><ele>289.49</ele><time>2011-09-14T14:52:49Z</time></trkpt><trkpt lat="43.194174" lon="-0.698804"><ele>289.49</ele><time>2011-09-14T14:52:50Z</time></trkpt><trkpt lat="43.194159" lon="-0.698586"><ele>289.01</ele><time>2011-09-14T14:52:51Z</time></trkpt><trkpt lat="43.194080" lon="-0.697518"><ele>289.49</ele><time>2011-09-14T14:52:56Z</time></trkpt><trkpt lat="43.194091" lon="-0.697303"><ele>289.49</ele><time>2011-09-14T14:52:57Z</time></trkpt><trkpt lat="43.194192" lon="-0.695988"><ele>283.73</ele><time>2011-09-14T14:53:03Z</time></trkpt><trkpt lat="43.194246" lon="-0.695779"><ele>282.77</ele><time>2011-09-14T14:53:04Z</time></trkpt><trkpt lat="43.194438" lon="-0.695168"><ele>279.88</ele><time>2011-09-14T14:53:07Z</time></trkpt><trkpt lat="43.194480" lon="-0.694958"><ele>279.40</ele><time>2011-09-14T14:53:08Z</time></trkpt><trkpt lat="43.194578" lon="-0.693872"><ele>275.56</ele><time>2011-09-14T14:53:13Z</time></trkpt><trkpt lat="43.194547" lon="-0.693679"><ele>274.59</ele><time>2011-09-14T14:53:14Z</time></trkpt><trkpt lat="43.194481" lon="-0.693515"><ele>274.11</ele><time>2011-09-14T14:53:15Z</time></trkpt><trkpt lat="43.194403" lon="-0.693372"><ele>273.63</ele><time>2011-09-14T14:53:16Z</time></trkpt><trkpt lat="43.194334" lon="-0.693239"><ele>273.63</ele><time>2011-09-14T14:53:17Z</time></trkpt><trkpt lat="43.194297" lon="-0.693111"><ele>273.15</ele><time>2011-09-14T14:53:18Z</time></trkpt><trkpt lat="43.194292" lon="-0.692969"><ele>273.15</ele><time>2011-09-14T14:53:19Z</time></trkpt><trkpt lat="43.194309" lon="-0.692818"><ele>272.19</ele><time>2011-09-14T14:53:20Z</time></trkpt><trkpt lat="43.194358" lon="-0.692690"><ele>272.19</ele><time>2011-09-14T14:53:21Z</time></trkpt><trkpt lat="43.194430" lon="-0.692532"><ele>271.23</ele><time>2011-09-14T14:53:22Z</time></trkpt><trkpt lat="43.194507" lon="-0.692341"><ele>268.35</ele><time>2011-09-14T14:53:23Z</time></trkpt><trkpt lat="43.194559" lon="-0.692130"><ele>267.38</ele><time>2011-09-14T14:53:24Z</time></trkpt><trkpt lat="43.194571" lon="-0.691915"><ele>266.42</ele><time>2011-09-14T14:53:25Z</time></trkpt><trkpt lat="43.194560" lon="-0.691700"><ele>265.94</ele><time>2011-09-14T14:53:26Z</time></trkpt><trkpt lat="43.194547" lon="-0.691496"><ele>264.98</ele><time>2011-09-14T14:53:27Z</time></trkpt><trkpt lat="43.194559" lon="-0.691300"><ele>264.50</ele><time>2011-09-14T14:53:28Z</time></trkpt><trkpt lat="43.194595" lon="-0.691115"><ele>263.54</ele><time>2011-09-14T14:53:29Z</time></trkpt><trkpt lat="43.194624" lon="-0.690938"><ele>262.58</ele><time>2011-09-14T14:53:30Z</time></trkpt><trkpt lat="43.194615" lon="-0.690782"><ele>261.62</ele><time>2011-09-14T14:53:31Z</time></trkpt><trkpt lat="43.194571" lon="-0.690628"><ele>260.65</ele><time>2011-09-14T14:53:32Z</time></trkpt><trkpt lat="43.194488" lon="-0.690478"><ele>259.69</ele><time>2011-09-14T14:53:33Z</time></trkpt><trkpt lat="43.194390" lon="-0.690313"><ele>258.25</ele><time>2011-09-14T14:53:34Z</time></trkpt><trkpt lat="43.193922" lon="-0.689382"><ele>251.52</ele><time>2011-09-14T14:53:39Z</time></trkpt><trkpt lat="43.193871" lon="-0.689175"><ele>250.08</ele><time>2011-09-14T14:53:40Z</time></trkpt><trkpt lat="43.193833" lon="-0.688966"><ele>248.64</ele><time>2011-09-14T14:53:41Z</time></trkpt><trkpt lat="43.193752" lon="-0.688583"><ele>246.23</ele><time>2011-09-14T14:53:43Z</time></trkpt><trkpt lat="43.193695" lon="-0.688456"><ele>245.27</ele><time>2011-09-14T14:53:44Z</time></trkpt><trkpt lat="43.193616" lon="-0.688366"><ele>243.83</ele><time>2011-09-14T14:53:45Z</time></trkpt><trkpt lat="43.193508" lon="-0.688336"><ele>242.87</ele><time>2011-09-14T14:53:46Z</time></trkpt><trkpt lat="43.193387" lon="-0.688363"><ele>241.43</ele><time>2011-09-14T14:53:47Z</time></trkpt><trkpt lat="43.193259" lon="-0.688444"><ele>240.47</ele><time>2011-09-14T14:53:48Z</time></trkpt><trkpt lat="43.193134" lon="-0.688548"><ele>239.02</ele><time>2011-09-14T14:53:49Z</time></trkpt><trkpt lat="43.193005" lon="-0.688652"><ele>237.58</ele><time>2011-09-14T14:53:50Z</time></trkpt><trkpt lat="43.192866" lon="-0.688732"><ele>236.62</ele><time>2011-09-14T14:53:51Z</time></trkpt><trkpt lat="43.192718" lon="-0.688784"><ele>235.66</ele><time>2011-09-14T14:53:52Z</time></trkpt><trkpt lat="43.192568" lon="-0.688828"><ele>234.70</ele><time>2011-09-14T14:53:53Z</time></trkpt><trkpt lat="43.192426" lon="-0.688886"><ele>233.74</ele><time>2011-09-14T14:53:54Z</time></trkpt><trkpt lat="43.192304" lon="-0.688991"><ele>233.26</ele><time>2011-09-14T14:53:55Z</time></trkpt><trkpt lat="43.192203" lon="-0.689138"><ele>232.30</ele><time>2011-09-14T14:53:56Z</time></trkpt><trkpt lat="43.192107" lon="-0.689286"><ele>231.33</ele><time>2011-09-14T14:53:57Z</time></trkpt><trkpt lat="43.192004" lon="-0.689443"><ele>231.33</ele><time>2011-09-14T14:53:58Z</time></trkpt><trkpt lat="43.191067" lon="-0.690474"><ele>225.09</ele><time>2011-09-14T14:54:06Z</time></trkpt><trkpt lat="43.190943" lon="-0.690525"><ele>224.12</ele><time>2011-09-14T14:54:07Z</time></trkpt><trkpt lat="43.190819" lon="-0.690536"><ele>224.12</ele><time>2011-09-14T14:54:08Z</time></trkpt><trkpt lat="43.190702" lon="-0.690512"><ele>223.16</ele><time>2011-09-14T14:54:09Z</time></trkpt><trkpt lat="43.190581" lon="-0.690460"><ele>223.16</ele><time>2011-09-14T14:54:10Z</time></trkpt><trkpt lat="43.190457" lon="-0.690388"><ele>222.20</ele><time>2011-09-14T14:54:11Z</time></trkpt><trkpt lat="43.190328" lon="-0.690298"><ele>223.16</ele><time>2011-09-14T14:54:12Z</time></trkpt><trkpt lat="43.190203" lon="-0.690192"><ele>223.64</ele><time>2011-09-14T14:54:13Z</time></trkpt><trkpt lat="43.190083" lon="-0.690068"><ele>224.61</ele><time>2011-09-14T14:54:14Z</time></trkpt><trkpt lat="43.189972" lon="-0.689922"><ele>225.57</ele><time>2011-09-14T14:54:15Z</time></trkpt><trkpt lat="43.189868" lon="-0.689756"><ele>226.05</ele><time>2011-09-14T14:54:16Z</time></trkpt><trkpt lat="43.189765" lon="-0.689575"><ele>226.05</ele><time>2011-09-14T14:54:17Z</time></trkpt><trkpt lat="43.188931" lon="-0.687773"><ele>227.49</ele><time>2011-09-14T14:54:25Z</time></trkpt><trkpt lat="43.188409" lon="-0.686568"><ele>226.05</ele><time>2011-09-14T14:54:31Z</time></trkpt><trkpt lat="43.188370" lon="-0.686392"><ele>225.57</ele><time>2011-09-14T14:54:32Z</time></trkpt><trkpt lat="43.188377" lon="-0.686189"><ele>225.09</ele><time>2011-09-14T14:54:33Z</time></trkpt><trkpt lat="43.188414" lon="-0.685970"><ele>224.61</ele><time>2011-09-14T14:54:34Z</time></trkpt><trkpt lat="43.188442" lon="-0.685742"><ele>225.09</ele><time>2011-09-14T14:54:35Z</time></trkpt><trkpt lat="43.188455" lon="-0.685506"><ele>224.61</ele><time>2011-09-14T14:54:36Z</time></trkpt><trkpt lat="43.188452" lon="-0.685267"><ele>224.12</ele><time>2011-09-14T14:54:37Z</time></trkpt><trkpt lat="43.188432" lon="-0.685034"><ele>224.12</ele><time>2011-09-14T14:54:38Z</time></trkpt><trkpt lat="43.188387" lon="-0.683109"><ele>222.68</ele><time>2011-09-14T14:54:47Z</time></trkpt><trkpt lat="43.188375" lon="-0.682916"><ele>222.68</ele><time>2011-09-14T14:54:48Z</time></trkpt><trkpt lat="43.188347" lon="-0.682721"><ele>222.68</ele><time>2011-09-14T14:54:49Z</time></trkpt><trkpt lat="43.188298" lon="-0.682528"><ele>223.16</ele><time>2011-09-14T14:54:50Z</time></trkpt><trkpt lat="43.188237" lon="-0.682345"><ele>222.68</ele><time>2011-09-14T14:54:51Z</time></trkpt><trkpt lat="43.188156" lon="-0.682179"><ele>222.68</ele><time>2011-09-14T14:54:52Z</time></trkpt><trkpt lat="43.188064" lon="-0.682030"><ele>223.16</ele><time>2011-09-14T14:54:53Z</time></trkpt><trkpt lat="43.187973" lon="-0.681892"><ele>223.16</ele><time>2011-09-14T14:54:54Z</time></trkpt><trkpt lat="43.187846" lon="-0.681601"><ele>223.64</ele><time>2011-09-14T14:54:56Z</time></trkpt><trkpt lat="43.187819" lon="-0.681426"><ele>222.68</ele><time>2011-09-14T14:54:57Z</time></trkpt><trkpt lat="43.187798" lon="-0.681244"><ele>223.16</ele><time>2011-09-14T14:54:58Z</time></trkpt><trkpt lat="43.187792" lon="-0.681071"><ele>223.16</ele><time>2011-09-14T14:54:59Z</time></trkpt><trkpt lat="43.187810" lon="-0.680913"><ele>223.16</ele><time>2011-09-14T14:55:00Z</time></trkpt><trkpt lat="43.187854" lon="-0.680762"><ele>223.64</ele><time>2011-09-14T14:55:01Z</time></trkpt><trkpt lat="43.187921" lon="-0.680631"><ele>224.61</ele><time>2011-09-14T14:55:02Z</time></trkpt><trkpt lat="43.188032" lon="-0.680567"><ele>225.09</ele><time>2011-09-14T14:55:03Z</time></trkpt><trkpt lat="43.188153" lon="-0.680531"><ele>226.05</ele><time>2011-09-14T14:55:04Z</time></trkpt><trkpt lat="43.188262" lon="-0.680479"><ele>226.53</ele><time>2011-09-14T14:55:05Z</time></trkpt><trkpt lat="43.188366" lon="-0.680429"><ele>226.53</ele><time>2011-09-14T14:55:06Z</time></trkpt><trkpt lat="43.188465" lon="-0.680368"><ele>226.05</ele><time>2011-09-14T14:55:07Z</time></trkpt><trkpt lat="43.188547" lon="-0.680261"><ele>225.57</ele><time>2011-09-14T14:55:08Z</time></trkpt><trkpt lat="43.188613" lon="-0.680140"><ele>224.61</ele><time>2011-09-14T14:55:09Z</time></trkpt><trkpt lat="43.188655" lon="-0.680003"><ele>224.12</ele><time>2011-09-14T14:55:10Z</time></trkpt><trkpt lat="43.188668" lon="-0.679854"><ele>224.12</ele><time>2011-09-14T14:55:11Z</time></trkpt><trkpt lat="43.188659" lon="-0.679700"><ele>224.12</ele><time>2011-09-14T14:55:12Z</time></trkpt><trkpt lat="43.188629" lon="-0.679549"><ele>223.16</ele><time>2011-09-14T14:55:13Z</time></trkpt><trkpt lat="43.188577" lon="-0.679404"><ele>222.20</ele><time>2011-09-14T14:55:14Z</time></trkpt><trkpt lat="43.188503" lon="-0.679265"><ele>222.20</ele><time>2011-09-14T14:55:15Z</time></trkpt><trkpt lat="43.188426" lon="-0.679121"><ele>222.20</ele><time>2011-09-14T14:55:16Z</time></trkpt><trkpt lat="43.188357" lon="-0.678966"><ele>222.20</ele><time>2011-09-14T14:55:17Z</time></trkpt><trkpt lat="43.188303" lon="-0.678800"><ele>222.68</ele><time>2011-09-14T14:55:18Z</time></trkpt><trkpt lat="43.188278" lon="-0.678620"><ele>223.16</ele><time>2011-09-14T14:55:19Z</time></trkpt><trkpt lat="43.188284" lon="-0.678426"><ele>223.16</ele><time>2011-09-14T14:55:20Z</time></trkpt><trkpt lat="43.188316" lon="-0.678219"><ele>223.64</ele><time>2011-09-14T14:55:21Z</time></trkpt><trkpt lat="43.188368" lon="-0.678001"><ele>223.64</ele><time>2011-09-14T14:55:22Z</time></trkpt><trkpt lat="43.188431" lon="-0.677777"><ele>223.16</ele><time>2011-09-14T14:55:23Z</time></trkpt><trkpt lat="43.188734" lon="-0.676927"><ele>220.76</ele><time>2011-09-14T14:55:27Z</time></trkpt><trkpt lat="43.188841" lon="-0.676732"><ele>219.80</ele><time>2011-09-14T14:55:28Z</time></trkpt><trkpt lat="43.189550" lon="-0.675163"><ele>219.32</ele><time>2011-09-14T14:55:36Z</time></trkpt><trkpt lat="43.189949" lon="-0.673648"><ele>217.88</ele><time>2011-09-14T14:55:43Z</time></trkpt><trkpt lat="43.189964" lon="-0.673441"><ele>217.88</ele><time>2011-09-14T14:55:44Z</time></trkpt><trkpt lat="43.189960" lon="-0.673230"><ele>217.88</ele><time>2011-09-14T14:55:45Z</time></trkpt><trkpt lat="43.189945" lon="-0.673011"><ele>217.88</ele><time>2011-09-14T14:55:46Z</time></trkpt><trkpt lat="43.189924" lon="-0.672791"><ele>217.88</ele><time>2011-09-14T14:55:47Z</time></trkpt><trkpt lat="43.189887" lon="-0.671934"><ele>217.40</ele><time>2011-09-14T14:55:51Z</time></trkpt><trkpt lat="43.189914" lon="-0.671733"><ele>216.91</ele><time>2011-09-14T14:55:52Z</time></trkpt><trkpt lat="43.189960" lon="-0.671533"><ele>216.43</ele><time>2011-09-14T14:55:53Z</time></trkpt><trkpt lat="43.190023" lon="-0.671336"><ele>215.95</ele><time>2011-09-14T14:55:54Z</time></trkpt><trkpt lat="43.190095" lon="-0.671147"><ele>215.47</ele><time>2011-09-14T14:55:55Z</time></trkpt><trkpt lat="43.190156" lon="-0.670956"><ele>214.51</ele><time>2011-09-14T14:55:56Z</time></trkpt><trkpt lat="43.190197" lon="-0.670764"><ele>214.51</ele><time>2011-09-14T14:55:57Z</time></trkpt><trkpt lat="43.190221" lon="-0.670571"><ele>214.99</ele><time>2011-09-14T14:55:58Z</time></trkpt><trkpt lat="43.190226" lon="-0.670377"><ele>214.99</ele><time>2011-09-14T14:55:59Z</time></trkpt><trkpt lat="43.190213" lon="-0.670179"><ele>214.99</ele><time>2011-09-14T14:56:00Z</time></trkpt><trkpt lat="43.190184" lon="-0.669984"><ele>215.47</ele><time>2011-09-14T14:56:01Z</time></trkpt><trkpt lat="43.190142" lon="-0.669797"><ele>215.47</ele><time>2011-09-14T14:56:02Z</time></trkpt><trkpt lat="43.190109" lon="-0.669610"><ele>215.47</ele><time>2011-09-14T14:56:03Z</time></trkpt><trkpt lat="43.190082" lon="-0.669416"><ele>215.47</ele><time>2011-09-14T14:56:04Z</time></trkpt><trkpt lat="43.190072" lon="-0.669213"><ele>215.95</ele><time>2011-09-14T14:56:05Z</time></trkpt><trkpt lat="43.190079" lon="-0.669004"><ele>215.95</ele><time>2011-09-14T14:56:06Z</time></trkpt><trkpt lat="43.190094" lon="-0.668789"><ele>215.95</ele><time>2011-09-14T14:56:07Z</time></trkpt><trkpt lat="43.190124" lon="-0.668566"><ele>215.95</ele><time>2011-09-14T14:56:08Z</time></trkpt><trkpt lat="43.190185" lon="-0.668339"><ele>216.43</ele><time>2011-09-14T14:56:09Z</time></trkpt><trkpt lat="43.190253" lon="-0.668100"><ele>216.43</ele><time>2011-09-14T14:56:10Z</time></trkpt><trkpt lat="43.190859" lon="-0.665994"><ele>215.47</ele><time>2011-09-14T14:56:19Z</time></trkpt><trkpt lat="43.191332" lon="-0.664995"><ele>214.51</ele><time>2011-09-14T14:56:24Z</time></trkpt><trkpt lat="43.191479" lon="-0.664833"><ele>214.03</ele><time>2011-09-14T14:56:25Z</time></trkpt><trkpt lat="43.192078" lon="-0.664234"><ele>213.07</ele><time>2011-09-14T14:56:29Z</time></trkpt><trkpt lat="43.192230" lon="-0.664120"><ele>213.55</ele><time>2011-09-14T14:56:30Z</time></trkpt><trkpt lat="43.193182" lon="-0.663478"><ele>214.51</ele><time>2011-09-14T14:56:37Z</time></trkpt><trkpt lat="43.193276" lon="-0.663363"><ele>214.51</ele><time>2011-09-14T14:56:38Z</time></trkpt><trkpt lat="43.193367" lon="-0.663225"><ele>214.03</ele><time>2011-09-14T14:56:39Z</time></trkpt><trkpt lat="43.193456" lon="-0.663063"><ele>214.03</ele><time>2011-09-14T14:56:40Z</time></trkpt><trkpt lat="43.193546" lon="-0.662883"><ele>213.55</ele><time>2011-09-14T14:56:41Z</time></trkpt><trkpt lat="43.194377" lon="-0.661269"><ele>214.03</ele><time>2011-09-14T14:56:50Z</time></trkpt><trkpt lat="43.195190" lon="-0.659630"><ele>213.55</ele><time>2011-09-14T14:56:59Z</time></trkpt><trkpt lat="43.195235" lon="-0.659461"><ele>213.07</ele><time>2011-09-14T14:57:00Z</time></trkpt><trkpt lat="43.195258" lon="-0.659277"><ele>212.11</ele><time>2011-09-14T14:57:01Z</time></trkpt><trkpt lat="43.195262" lon="-0.659081"><ele>211.63</ele><time>2011-09-14T14:57:02Z</time></trkpt><trkpt lat="43.195245" lon="-0.658874"><ele>211.15</ele><time>2011-09-14T14:57:03Z</time></trkpt><trkpt lat="43.195206" lon="-0.658662"><ele>210.67</ele><time>2011-09-14T14:57:04Z</time></trkpt><trkpt lat="43.195161" lon="-0.658455"><ele>210.19</ele><time>2011-09-14T14:57:05Z</time></trkpt><trkpt lat="43.195057" lon="-0.657868"><ele>208.74</ele><time>2011-09-14T14:57:08Z</time></trkpt><trkpt lat="43.195062" lon="-0.657671"><ele>208.26</ele><time>2011-09-14T14:57:09Z</time></trkpt><trkpt lat="43.195098" lon="-0.657471"><ele>207.78</ele><time>2011-09-14T14:57:10Z</time></trkpt><trkpt lat="43.195167" lon="-0.657272"><ele>207.78</ele><time>2011-09-14T14:57:11Z</time></trkpt><trkpt lat="43.195243" lon="-0.657068"><ele>207.30</ele><time>2011-09-14T14:57:12Z</time></trkpt><trkpt lat="43.195824" lon="-0.655195"><ele>212.59</ele><time>2011-09-14T14:57:20Z</time></trkpt><trkpt lat="43.195915" lon="-0.653404"><ele>214.99</ele><time>2011-09-14T14:57:27Z</time></trkpt><trkpt lat="43.195835" lon="-0.652405"><ele>217.40</ele><time>2011-09-14T14:57:31Z</time></trkpt><trkpt lat="43.195922" lon="-0.650250"><ele>220.28</ele><time>2011-09-14T14:57:40Z</time></trkpt><trkpt lat="43.195906" lon="-0.650060"><ele>220.28</ele><time>2011-09-14T14:57:41Z</time></trkpt><trkpt lat="43.195870" lon="-0.649886"><ele>220.28</ele><time>2011-09-14T14:57:42Z</time></trkpt><trkpt lat="43.195808" lon="-0.649737"><ele>220.28</ele><time>2011-09-14T14:57:43Z</time></trkpt><trkpt lat="43.195713" lon="-0.649617"><ele>220.28</ele><time>2011-09-14T14:57:44Z</time></trkpt><trkpt lat="43.195573" lon="-0.649566"><ele>220.28</ele><time>2011-09-14T14:57:45Z</time></trkpt><trkpt lat="43.195418" lon="-0.649524"><ele>220.28</ele><time>2011-09-14T14:57:46Z</time></trkpt><trkpt lat="43.195253" lon="-0.649488"><ele>220.28</ele><time>2011-09-14T14:57:47Z</time></trkpt><trkpt lat="43.195078" lon="-0.649459"><ele>220.28</ele><time>2011-09-14T14:57:48Z</time></trkpt><trkpt lat="43.193704" lon="-0.649147"><ele>220.28</ele><time>2011-09-14T14:57:55Z</time></trkpt><trkpt lat="43.192355" lon="-0.648529"><ele>221.24</ele><time>2011-09-14T14:58:04Z</time></trkpt><trkpt lat="43.191244" lon="-0.647676"><ele>223.16</ele><time>2011-09-14T14:58:14Z</time></trkpt><trkpt lat="43.189837" lon="-0.646401"><ele>225.09</ele><time>2011-09-14T14:58:28Z</time></trkpt><trkpt lat="43.188850" lon="-0.644978"><ele>226.53</ele><time>2011-09-14T14:58:41Z</time></trkpt><trkpt lat="43.188359" lon="-0.643694"><ele>227.97</ele><time>2011-09-14T14:58:50Z</time></trkpt><trkpt lat="43.188331" lon="-0.643532"><ele>227.97</ele><time>2011-09-14T14:58:51Z</time></trkpt><trkpt lat="43.188236" lon="-0.642255"><ele>229.41</ele><time>2011-09-14T14:58:59Z</time></trkpt><trkpt lat="43.188213" lon="-0.642110"><ele>229.41</ele><time>2011-09-14T14:59:00Z</time></trkpt><trkpt lat="43.188098" lon="-0.640582"><ele>229.89</ele><time>2011-09-14T14:59:09Z</time></trkpt><trkpt lat="43.188225" lon="-0.639072"><ele>230.85</ele><time>2011-09-14T14:59:18Z</time></trkpt><trkpt lat="43.187876" lon="-0.637505"><ele>231.33</ele><time>2011-09-14T14:59:27Z</time></trkpt><trkpt lat="43.187832" lon="-0.637331"><ele>231.33</ele><time>2011-09-14T14:59:28Z</time></trkpt><trkpt lat="43.187804" lon="-0.637147"><ele>231.81</ele><time>2011-09-14T14:59:29Z</time></trkpt><trkpt lat="43.187792" lon="-0.636948"><ele>231.81</ele><time>2011-09-14T14:59:30Z</time></trkpt><trkpt lat="43.187621" lon="-0.635184"><ele>232.78</ele><time>2011-09-14T14:59:38Z</time></trkpt><trkpt lat="43.187085" lon="-0.633347"><ele>233.74</ele><time>2011-09-14T14:59:47Z</time></trkpt><trkpt lat="43.187029" lon="-0.633165"><ele>233.74</ele><time>2011-09-14T14:59:48Z</time></trkpt><trkpt lat="43.186990" lon="-0.632979"><ele>233.74</ele><time>2011-09-14T14:59:49Z</time></trkpt><trkpt lat="43.186964" lon="-0.632792"><ele>233.74</ele><time>2011-09-14T14:59:50Z</time></trkpt><trkpt lat="43.186730" lon="-0.630976"><ele>234.22</ele><time>2011-09-14T15:00:01Z</time></trkpt><trkpt lat="43.186560" lon="-0.629660"><ele>235.66</ele><time>2011-09-14T15:00:09Z</time></trkpt><trkpt lat="43.186568" lon="-0.629492"><ele>235.66</ele><time>2011-09-14T15:00:10Z</time></trkpt><trkpt lat="43.186848" lon="-0.626795"><ele>234.70</ele><time>2011-09-14T15:00:26Z</time></trkpt><trkpt lat="43.186872" lon="-0.626248"><ele>235.18</ele><time>2011-09-14T15:00:32Z</time></trkpt><trkpt lat="43.186858" lon="-0.626191"><ele>234.22</ele><time>2011-09-14T15:00:45Z</time></trkpt><trkpt lat="43.186849" lon="-0.626065"><ele>234.70</ele><time>2011-09-14T15:00:48Z</time></trkpt><trkpt lat="43.186861" lon="-0.626008"><ele>234.70</ele><time>2011-09-14T15:00:49Z</time></trkpt><trkpt lat="43.186878" lon="-0.625956"><ele>234.70</ele><time>2011-09-14T15:00:50Z</time></trkpt><trkpt lat="43.186894" lon="-0.625905"><ele>234.70</ele><time>2011-09-14T15:00:51Z</time></trkpt><trkpt lat="43.186904" lon="-0.625855"><ele>235.18</ele><time>2011-09-14T15:00:52Z</time></trkpt><trkpt lat="43.186910" lon="-0.625808"><ele>235.18</ele><time>2011-09-14T15:00:53Z</time></trkpt><trkpt lat="43.186913" lon="-0.625770"><ele>235.18</ele><time>2011-09-14T15:00:54Z</time></trkpt><trkpt lat="43.186923" lon="-0.625588"><ele>235.66</ele><time>2011-09-14T15:01:04Z</time></trkpt><trkpt lat="43.186932" lon="-0.625455"><ele>236.14</ele><time>2011-09-14T15:01:13Z</time></trkpt><trkpt lat="43.186906" lon="-0.625226"><ele>237.10</ele><time>2011-09-14T15:01:22Z</time></trkpt><trkpt lat="43.186903" lon="-0.625149"><ele>237.10</ele><time>2011-09-14T15:01:23Z</time></trkpt><trkpt lat="43.186911" lon="-0.625068"><ele>237.10</ele><time>2011-09-14T15:01:24Z</time></trkpt><trkpt lat="43.186935" lon="-0.624988"><ele>237.10</ele><time>2011-09-14T15:01:25Z</time></trkpt><trkpt lat="43.186974" lon="-0.624918"><ele>237.58</ele><time>2011-09-14T15:01:26Z</time></trkpt><trkpt lat="43.187023" lon="-0.624873"><ele>237.58</ele><time>2011-09-14T15:01:27Z</time></trkpt><trkpt lat="43.187079" lon="-0.624856"><ele>237.58</ele><time>2011-09-14T15:01:28Z</time></trkpt><trkpt lat="43.187142" lon="-0.624860"><ele>237.58</ele><time>2011-09-14T15:01:29Z</time></trkpt><trkpt lat="43.187212" lon="-0.624873"><ele>237.58</ele><time>2011-09-14T15:01:30Z</time></trkpt><trkpt lat="43.187293" lon="-0.624880"><ele>237.58</ele><time>2011-09-14T15:01:31Z</time></trkpt><trkpt lat="43.187384" lon="-0.624870"><ele>237.58</ele><time>2011-09-14T15:01:32Z</time></trkpt><trkpt lat="43.188086" lon="-0.624723"><ele>237.58</ele><time>2011-09-14T15:01:39Z</time></trkpt><trkpt lat="43.188194" lon="-0.624672"><ele>238.06</ele><time>2011-09-14T15:01:40Z</time></trkpt><trkpt lat="43.189096" lon="-0.623832"><ele>236.62</ele><time>2011-09-14T15:01:49Z</time></trkpt><trkpt lat="43.189797" lon="-0.622569"><ele>236.62</ele><time>2011-09-14T15:01:59Z</time></trkpt><trkpt lat="43.190218" lon="-0.621715"><ele>238.06</ele><time>2011-09-14T15:02:08Z</time></trkpt><trkpt lat="43.190273" lon="-0.621576"><ele>238.06</ele><time>2011-09-14T15:02:11Z</time></trkpt><trkpt lat="43.190285" lon="-0.621508"><ele>238.06</ele><time>2011-09-14T15:02:12Z</time></trkpt><trkpt lat="43.190317" lon="-0.621354"><ele>238.06</ele><time>2011-09-14T15:02:14Z</time></trkpt><trkpt lat="43.190352" lon="-0.621287"><ele>238.06</ele><time>2011-09-14T15:02:15Z</time></trkpt><trkpt lat="43.190399" lon="-0.621230"><ele>238.06</ele><time>2011-09-14T15:02:16Z</time></trkpt><trkpt lat="43.190496" lon="-0.621117"><ele>237.58</ele><time>2011-09-14T15:02:18Z</time></trkpt><trkpt lat="43.190539" lon="-0.621051"><ele>237.58</ele><time>2011-09-14T15:02:19Z</time></trkpt><trkpt lat="43.191019" lon="-0.620078"><ele>236.62</ele><time>2011-09-14T15:02:29Z</time></trkpt><trkpt lat="43.191496" lon="-0.619078"><ele>236.62</ele><time>2011-09-14T15:02:39Z</time></trkpt><trkpt lat="43.191523" lon="-0.618991"><ele>236.62</ele><time>2011-09-14T15:02:40Z</time></trkpt><trkpt lat="43.191537" lon="-0.618895"><ele>237.10</ele><time>2011-09-14T15:02:41Z</time></trkpt><trkpt lat="43.191541" lon="-0.618791"><ele>237.10</ele><time>2011-09-14T15:02:42Z</time></trkpt><trkpt lat="43.191543" lon="-0.618681"><ele>237.10</ele><time>2011-09-14T15:02:43Z</time></trkpt><trkpt lat="43.191535" lon="-0.618565"><ele>237.10</ele><time>2011-09-14T15:02:44Z</time></trkpt><trkpt lat="43.191508" lon="-0.618456"><ele>237.10</ele><time>2011-09-14T15:02:45Z</time></trkpt><trkpt lat="43.191463" lon="-0.618351"><ele>237.58</ele><time>2011-09-14T15:02:46Z</time></trkpt><trkpt lat="43.191394" lon="-0.618270"><ele>237.58</ele><time>2011-09-14T15:02:47Z</time></trkpt><trkpt lat="43.191316" lon="-0.618203"><ele>237.10</ele><time>2011-09-14T15:02:48Z</time></trkpt><trkpt lat="43.191233" lon="-0.618132"><ele>236.62</ele><time>2011-09-14T15:02:49Z</time></trkpt><trkpt lat="43.190502" lon="-0.617524"><ele>236.62</ele><time>2011-09-14T15:02:59Z</time></trkpt><trkpt lat="43.190454" lon="-0.617518"><ele>236.62</ele><time>2011-09-14T15:03:00Z</time></trkpt><trkpt lat="43.190404" lon="-0.617533"><ele>237.10</ele><time>2011-09-14T15:03:01Z</time></trkpt><trkpt lat="43.190356" lon="-0.617539"><ele>237.10</ele><time>2011-09-14T15:03:02Z</time></trkpt><trkpt lat="43.190312" lon="-0.617526"><ele>237.10</ele><time>2011-09-14T15:03:03Z</time></trkpt><trkpt lat="43.190278" lon="-0.617492"><ele>237.10</ele><time>2011-09-14T15:03:04Z</time></trkpt><trkpt lat="43.190259" lon="-0.617439"><ele>236.62</ele><time>2011-09-14T15:03:05Z</time></trkpt><trkpt lat="43.190257" lon="-0.617375"><ele>236.14</ele><time>2011-09-14T15:03:06Z</time></trkpt><trkpt lat="43.190274" lon="-0.617303"><ele>236.14</ele><time>2011-09-14T15:03:07Z</time></trkpt><trkpt lat="43.190301" lon="-0.617226"><ele>236.14</ele><time>2011-09-14T15:03:08Z</time></trkpt><trkpt lat="43.190331" lon="-0.617139"><ele>236.14</ele><time>2011-09-14T15:03:09Z</time></trkpt><trkpt lat="43.190360" lon="-0.617040"><ele>235.66</ele><time>2011-09-14T15:03:10Z</time></trkpt><trkpt lat="43.190769" lon="-0.615962"><ele>231.33</ele><time>2011-09-14T15:03:19Z</time></trkpt><trkpt lat="43.191604" lon="-0.614093"><ele>227.01</ele><time>2011-09-14T15:03:33Z</time></trkpt><trkpt lat="43.192299" lon="-0.613267"><ele>223.64</ele><time>2011-09-14T15:03:43Z</time></trkpt><trkpt lat="43.192527" lon="-0.612969"><ele>223.16</ele><time>2011-09-14T15:03:50Z</time></trkpt><trkpt lat="43.192546" lon="-0.612917"><ele>223.16</ele><time>2011-09-14T15:03:51Z</time></trkpt><trkpt lat="43.192576" lon="-0.612880"><ele>223.16</ele><time>2011-09-14T15:03:52Z</time></trkpt><trkpt lat="43.192616" lon="-0.612869"><ele>223.16</ele><time>2011-09-14T15:03:53Z</time></trkpt><trkpt lat="43.192651" lon="-0.612886"><ele>223.16</ele><time>2011-09-14T15:03:54Z</time></trkpt><trkpt lat="43.192672" lon="-0.612927"><ele>222.68</ele><time>2011-09-14T15:03:55Z</time></trkpt><trkpt lat="43.192673" lon="-0.612975"><ele>223.16</ele><time>2011-09-14T15:03:56Z</time></trkpt><trkpt lat="43.192659" lon="-0.613021"><ele>223.64</ele><time>2011-09-14T15:03:57Z</time></trkpt><trkpt lat="43.192629" lon="-0.613058"><ele>224.12</ele><time>2011-09-14T15:03:58Z</time></trkpt><trkpt lat="43.192586" lon="-0.613090"><ele>224.12</ele><time>2011-09-14T15:03:59Z</time></trkpt><trkpt lat="43.192545" lon="-0.613116"><ele>224.61</ele><time>2011-09-14T15:04:00Z</time></trkpt><trkpt lat="43.192510" lon="-0.613140"><ele>225.09</ele><time>2011-09-14T15:04:01Z</time></trkpt><trkpt lat="43.192439" lon="-0.613164"><ele>226.05</ele><time>2011-09-14T15:04:03Z</time></trkpt><trkpt lat="43.192413" lon="-0.613144"><ele>226.05</ele><time>2011-09-14T15:04:04Z</time></trkpt><trkpt lat="43.192397" lon="-0.613112"><ele>226.05</ele><time>2011-09-14T15:04:05Z</time></trkpt><trkpt lat="43.192359" lon="-0.613038"><ele>222.68</ele><time>2011-09-14T15:04:11Z</time></trkpt><trkpt lat="43.192330" lon="-0.613016"><ele>222.20</ele><time>2011-09-14T15:04:12Z</time></trkpt><trkpt lat="43.192280" lon="-0.613000"><ele>222.68</ele><time>2011-09-14T15:04:13Z</time></trkpt><trkpt lat="43.192223" lon="-0.612992"><ele>222.68</ele><time>2011-09-14T15:04:14Z</time></trkpt><trkpt lat="43.192163" lon="-0.612990"><ele>222.68</ele><time>2011-09-14T15:04:15Z</time></trkpt><trkpt lat="43.191567" lon="-0.613016"><ele>230.85</ele><time>2011-09-14T15:04:25Z</time></trkpt><trkpt lat="43.191500" lon="-0.613000"><ele>233.74</ele><time>2011-09-14T15:04:26Z</time></trkpt><trkpt lat="43.191418" lon="-0.612952"><ele>234.22</ele><time>2011-09-14T15:04:27Z</time></trkpt><trkpt lat="43.191349" lon="-0.612927"><ele>235.66</ele><time>2011-09-14T15:04:28Z</time></trkpt><trkpt lat="43.191275" lon="-0.612917"><ele>236.14</ele><time>2011-09-14T15:04:29Z</time></trkpt><trkpt lat="43.191204" lon="-0.612901"><ele>237.58</ele><time>2011-09-14T15:04:30Z</time></trkpt><trkpt lat="43.190634" lon="-0.612770"><ele>238.06</ele><time>2011-09-14T15:04:37Z</time></trkpt><trkpt lat="43.190558" lon="-0.612726"><ele>237.58</ele><time>2011-09-14T15:04:38Z</time></trkpt><trkpt lat="43.190488" lon="-0.612678"><ele>236.62</ele><time>2011-09-14T15:04:39Z</time></trkpt><trkpt lat="43.190281" lon="-0.612483"><ele>234.22</ele><time>2011-09-14T15:04:42Z</time></trkpt><trkpt lat="43.190092" lon="-0.612165"><ele>230.85</ele><time>2011-09-14T15:04:49Z</time></trkpt><trkpt lat="43.190099" lon="-0.612122"><ele>230.37</ele><time>2011-09-14T15:04:50Z</time></trkpt><trkpt lat="43.190124" lon="-0.612076"><ele>229.89</ele><time>2011-09-14T15:04:51Z</time></trkpt><trkpt lat="43.190163" lon="-0.612028"><ele>229.41</ele><time>2011-09-14T15:04:52Z</time></trkpt><trkpt lat="43.190418" lon="-0.611748"><ele>228.93</ele><time>2011-09-14T15:04:56Z</time></trkpt><trkpt lat="43.190664" lon="-0.611338"><ele>227.97</ele><time>2011-09-14T15:05:01Z</time></trkpt><trkpt lat="43.190778" lon="-0.610963"><ele>226.53</ele><time>2011-09-14T15:05:05Z</time></trkpt><trkpt lat="43.190827" lon="-0.610682"><ele>225.09</ele><time>2011-09-14T15:05:09Z</time></trkpt><trkpt lat="43.190857" lon="-0.610455"><ele>224.61</ele><time>2011-09-14T15:05:13Z</time></trkpt><trkpt lat="43.190836" lon="-0.610418"><ele>224.12</ele><time>2011-09-14T15:05:14Z</time></trkpt><trkpt lat="43.190807" lon="-0.610390"><ele>224.12</ele><time>2011-09-14T15:05:15Z</time></trkpt><trkpt lat="43.190775" lon="-0.610370"><ele>223.64</ele><time>2011-09-14T15:05:16Z</time></trkpt><trkpt lat="43.190745" lon="-0.610353"><ele>222.68</ele><time>2011-09-14T15:05:17Z</time></trkpt><trkpt lat="43.190726" lon="-0.610330"><ele>222.20</ele><time>2011-09-14T15:05:18Z</time></trkpt><trkpt lat="43.190720" lon="-0.610299"><ele>221.72</ele><time>2011-09-14T15:05:19Z</time></trkpt><trkpt lat="43.190723" lon="-0.610265"><ele>221.24</ele><time>2011-09-14T15:05:20Z</time></trkpt><trkpt lat="43.190737" lon="-0.610232"><ele>220.28</ele><time>2011-09-14T15:05:21Z</time></trkpt><trkpt lat="43.190750" lon="-0.610204"><ele>220.28</ele><time>2011-09-14T15:05:22Z</time></trkpt><trkpt lat="43.190763" lon="-0.610174"><ele>220.76</ele><time>2011-09-14T15:05:23Z</time></trkpt><trkpt lat="43.190778" lon="-0.610132"><ele>220.28</ele><time>2011-09-14T15:05:24Z</time></trkpt><trkpt lat="43.190793" lon="-0.610073"><ele>220.28</ele><time>2011-09-14T15:05:25Z</time></trkpt><trkpt lat="43.190969" lon="-0.609487"><ele>218.84</ele><time>2011-09-14T15:05:33Z</time></trkpt><trkpt lat="43.191003" lon="-0.609445"><ele>218.84</ele><time>2011-09-14T15:05:34Z</time></trkpt><trkpt lat="43.191034" lon="-0.609428"><ele>219.32</ele><time>2011-09-14T15:05:35Z</time></trkpt><trkpt lat="43.191063" lon="-0.609436"><ele>219.80</ele><time>2011-09-14T15:05:36Z</time></trkpt><trkpt lat="43.191086" lon="-0.609461"><ele>220.28</ele><time>2011-09-14T15:05:37Z</time></trkpt><trkpt lat="43.191096" lon="-0.609498"><ele>220.76</ele><time>2011-09-14T15:05:38Z</time></trkpt><trkpt lat="43.191096" lon="-0.609545"><ele>221.24</ele><time>2011-09-14T15:05:39Z</time></trkpt><trkpt lat="43.191088" lon="-0.609601"><ele>221.72</ele><time>2011-09-14T15:05:40Z</time></trkpt><trkpt lat="43.191074" lon="-0.609664"><ele>222.20</ele><time>2011-09-14T15:05:41Z</time></trkpt><trkpt lat="43.190951" lon="-0.610145"><ele>226.53</ele><time>2011-09-14T15:05:49Z</time></trkpt><trkpt lat="43.190692" lon="-0.611276"><ele>229.89</ele><time>2011-09-14T15:06:00Z</time></trkpt><trkpt lat="43.190652" lon="-0.611370"><ele>230.37</ele><time>2011-09-14T15:06:01Z</time></trkpt><trkpt lat="43.190606" lon="-0.611461"><ele>230.37</ele><time>2011-09-14T15:06:02Z</time></trkpt><trkpt lat="43.190557" lon="-0.611546"><ele>229.89</ele><time>2011-09-14T15:06:03Z</time></trkpt><trkpt lat="43.190509" lon="-0.611623"><ele>230.37</ele><time>2011-09-14T15:06:04Z</time></trkpt></trkseg></trk><trk><name>ACTIVE LOG: 14 SEP 2011 17:06</name><trkseg><trkpt lat="43.190385" lon="-0.611816"><ele>230.85</ele><time>2011-09-14T15:06:07Z</time></trkpt><trkpt lat="43.190221" lon="-0.612092"><ele>233.74</ele><time>2011-09-14T15:06:15Z</time></trkpt><trkpt lat="43.190189" lon="-0.612230"><ele>230.85</ele><time>2011-09-14T15:06:23Z</time></trkpt><trkpt lat="43.190219" lon="-0.612285"><ele>231.33</ele><time>2011-09-14T15:06:24Z</time></trkpt><trkpt lat="43.190271" lon="-0.612345"><ele>231.33</ele><time>2011-09-14T15:06:25Z</time></trkpt><trkpt lat="43.190747" lon="-0.612791"><ele>233.26</ele><time>2011-09-14T15:06:33Z</time></trkpt><trkpt lat="43.190830" lon="-0.612814"><ele>234.22</ele><time>2011-09-14T15:06:34Z</time></trkpt><trkpt lat="43.191593" lon="-0.613007"><ele>239.02</ele><time>2011-09-14T15:06:44Z</time></trkpt><trkpt lat="43.191768" lon="-0.612951"><ele>245.75</ele><time>2011-09-14T15:06:50Z</time></trkpt><trkpt lat="43.191795" lon="-0.612893"><ele>245.27</ele><time>2011-09-14T15:06:51Z</time></trkpt><trkpt lat="43.191805" lon="-0.612815"><ele>243.35</ele><time>2011-09-14T15:06:52Z</time></trkpt><trkpt lat="43.191800" lon="-0.612744"><ele>242.39</ele><time>2011-09-14T15:06:53Z</time></trkpt><trkpt lat="43.191790" lon="-0.612687"><ele>241.43</ele><time>2011-09-14T15:06:54Z</time></trkpt><trkpt lat="43.191773" lon="-0.612643"><ele>240.47</ele><time>2011-09-14T15:06:55Z</time></trkpt><trkpt lat="43.191765" lon="-0.612593"><ele>239.51</ele><time>2011-09-14T15:06:56Z</time></trkpt><trkpt lat="43.191735" lon="-0.611966"><ele>233.26</ele><time>2011-09-14T15:07:04Z</time></trkpt><trkpt lat="43.191732" lon="-0.611886"><ele>232.78</ele><time>2011-09-14T15:07:05Z</time></trkpt><trkpt lat="43.191761" lon="-0.611473"><ele>230.85</ele><time>2011-09-14T15:07:14Z</time></trkpt><trkpt lat="43.191783" lon="-0.611151"><ele>229.89</ele><time>2011-09-14T15:07:22Z</time></trkpt><trkpt lat="43.191786" lon="-0.610504"><ele>227.01</ele><time>2011-09-14T15:07:30Z</time></trkpt><trkpt lat="43.191801" lon="-0.609721"><ele>223.16</ele><time>2011-09-14T15:07:38Z</time></trkpt><trkpt lat="43.191799" lon="-0.609637"><ele>223.16</ele><time>2011-09-14T15:07:39Z</time></trkpt><trkpt lat="43.191825" lon="-0.609346"><ele>221.72</ele><time>2011-09-14T15:07:44Z</time></trkpt><trkpt lat="43.191850" lon="-0.609293"><ele>221.72</ele><time>2011-09-14T15:07:45Z</time></trkpt><trkpt lat="43.191884" lon="-0.609256"><ele>221.72</ele><time>2011-09-14T15:07:46Z</time></trkpt><trkpt lat="43.191935" lon="-0.609234"><ele>221.72</ele><time>2011-09-14T15:07:47Z</time></trkpt><trkpt lat="43.191983" lon="-0.609224"><ele>222.20</ele><time>2011-09-14T15:07:48Z</time></trkpt><trkpt lat="43.192030" lon="-0.609216"><ele>222.68</ele><time>2011-09-14T15:07:49Z</time></trkpt><trkpt lat="43.192235" lon="-0.609089"><ele>225.57</ele><time>2011-09-14T15:07:55Z</time></trkpt><trkpt lat="43.192246" lon="-0.609032"><ele>225.09</ele><time>2011-09-14T15:07:56Z</time></trkpt><trkpt lat="43.192259" lon="-0.608959"><ele>225.57</ele><time>2011-09-14T15:07:57Z</time></trkpt><trkpt lat="43.192254" lon="-0.607933"><ele>224.12</ele><time>2011-09-14T15:08:07Z</time></trkpt><trkpt lat="43.192287" lon="-0.607212"><ele>224.12</ele><time>2011-09-14T15:08:15Z</time></trkpt><trkpt lat="43.192305" lon="-0.607144"><ele>224.12</ele><time>2011-09-14T15:08:16Z</time></trkpt><trkpt lat="43.192451" lon="-0.606486"><ele>221.72</ele><time>2011-09-14T15:08:24Z</time></trkpt><trkpt lat="43.192467" lon="-0.606392"><ele>221.24</ele><time>2011-09-14T15:08:25Z</time></trkpt><trkpt lat="43.192542" lon="-0.606344"><ele>220.76</ele><time>2011-09-14T15:08:26Z</time></trkpt><trkpt lat="43.192602" lon="-0.606200"><ele>220.28</ele><time>2011-09-14T15:08:28Z</time></trkpt><trkpt lat="43.193098" lon="-0.605589"><ele>222.68</ele><time>2011-09-14T15:08:38Z</time></trkpt><trkpt lat="43.193121" lon="-0.605459"><ele>223.64</ele><time>2011-09-14T15:08:39Z</time></trkpt><trkpt lat="43.193130" lon="-0.605354"><ele>224.12</ele><time>2011-09-14T15:08:40Z</time></trkpt><trkpt lat="43.193328" lon="-0.604584"><ele>226.53</ele><time>2011-09-14T15:08:50Z</time></trkpt><trkpt lat="43.193325" lon="-0.604526"><ele>227.01</ele><time>2011-09-14T15:08:51Z</time></trkpt><trkpt lat="43.193317" lon="-0.604472"><ele>227.01</ele><time>2011-09-14T15:08:52Z</time></trkpt><trkpt lat="43.193305" lon="-0.604423"><ele>227.01</ele><time>2011-09-14T15:08:53Z</time></trkpt><trkpt lat="43.193291" lon="-0.604384"><ele>227.01</ele><time>2011-09-14T15:08:54Z</time></trkpt><trkpt lat="43.193281" lon="-0.604356"><ele>227.49</ele><time>2011-09-14T15:08:55Z</time></trkpt><trkpt lat="43.193279" lon="-0.604330"><ele>227.49</ele><time>2011-09-14T15:08:56Z</time></trkpt><trkpt lat="43.193290" lon="-0.604291"><ele>227.49</ele><time>2011-09-14T15:08:57Z</time></trkpt><trkpt lat="43.193311" lon="-0.604249"><ele>227.49</ele><time>2011-09-14T15:08:58Z</time></trkpt><trkpt lat="43.193334" lon="-0.604213"><ele>227.97</ele><time>2011-09-14T15:08:59Z</time></trkpt><trkpt lat="43.193362" lon="-0.604179"><ele>227.97</ele><time>2011-09-14T15:09:00Z</time></trkpt><trkpt lat="43.193388" lon="-0.604140"><ele>228.45</ele><time>2011-09-14T15:09:01Z</time></trkpt><trkpt lat="43.193417" lon="-0.604091"><ele>228.93</ele><time>2011-09-14T15:09:02Z</time></trkpt><trkpt lat="43.193447" lon="-0.604042"><ele>228.93</ele><time>2011-09-14T15:09:03Z</time></trkpt><trkpt lat="43.193480" lon="-0.603997"><ele>229.41</ele><time>2011-09-14T15:09:04Z</time></trkpt><trkpt lat="43.193519" lon="-0.603962"><ele>229.89</ele><time>2011-09-14T15:09:05Z</time></trkpt><trkpt lat="43.193563" lon="-0.603938"><ele>230.37</ele><time>2011-09-14T15:09:06Z</time></trkpt><trkpt lat="43.193607" lon="-0.603926"><ele>230.85</ele><time>2011-09-14T15:09:07Z</time></trkpt><trkpt lat="43.193650" lon="-0.603928"><ele>231.81</ele><time>2011-09-14T15:09:08Z</time></trkpt><trkpt lat="43.193682" lon="-0.603955"><ele>232.30</ele><time>2011-09-14T15:09:09Z</time></trkpt><trkpt lat="43.193708" lon="-0.603998"><ele>234.22</ele><time>2011-09-14T15:09:10Z</time></trkpt><trkpt lat="43.193770" lon="-0.604041"><ele>235.18</ele><time>2011-09-14T15:09:11Z</time></trkpt><trkpt lat="43.194468" lon="-0.604374"><ele>238.54</ele><time>2011-09-14T15:09:21Z</time></trkpt><trkpt lat="43.194616" lon="-0.604437"><ele>239.51</ele><time>2011-09-14T15:09:23Z</time></trkpt><trkpt lat="43.194756" lon="-0.604471"><ele>239.99</ele><time>2011-09-14T15:09:25Z</time></trkpt><trkpt lat="43.194824" lon="-0.604477"><ele>240.47</ele><time>2011-09-14T15:09:26Z</time></trkpt><trkpt lat="43.194907" lon="-0.604468"><ele>240.95</ele><time>2011-09-14T15:09:27Z</time></trkpt><trkpt lat="43.195002" lon="-0.604448"><ele>241.91</ele><time>2011-09-14T15:09:28Z</time></trkpt><trkpt lat="43.195094" lon="-0.604410"><ele>242.87</ele><time>2011-09-14T15:09:29Z</time></trkpt><trkpt lat="43.195190" lon="-0.604357"><ele>242.87</ele><time>2011-09-14T15:09:30Z</time></trkpt><trkpt lat="43.195280" lon="-0.604289"><ele>243.35</ele><time>2011-09-14T15:09:31Z</time></trkpt><trkpt lat="43.195483" lon="-0.604152"><ele>241.91</ele><time>2011-09-14T15:09:36Z</time></trkpt><trkpt lat="43.195639" lon="-0.604053"><ele>241.43</ele><time>2011-09-14T15:09:41Z</time></trkpt><trkpt lat="43.195671" lon="-0.604029"><ele>240.95</ele><time>2011-09-14T15:09:42Z</time></trkpt><trkpt lat="43.195731" lon="-0.604027"><ele>240.47</ele><time>2011-09-14T15:09:43Z</time></trkpt><trkpt lat="43.195795" lon="-0.604031"><ele>240.47</ele><time>2011-09-14T15:09:44Z</time></trkpt><trkpt lat="43.195863" lon="-0.604048"><ele>240.47</ele><time>2011-09-14T15:09:45Z</time></trkpt><trkpt lat="43.195939" lon="-0.604074"><ele>240.47</ele><time>2011-09-14T15:09:46Z</time></trkpt><trkpt lat="43.196779" lon="-0.604222"><ele>237.58</ele><time>2011-09-14T15:09:55Z</time></trkpt><trkpt lat="43.197354" lon="-0.604226"><ele>236.62</ele><time>2011-09-14T15:10:04Z</time></trkpt><trkpt lat="43.197399" lon="-0.604218"><ele>236.14</ele><time>2011-09-14T15:10:05Z</time></trkpt><trkpt lat="43.197448" lon="-0.604202"><ele>236.14</ele><time>2011-09-14T15:10:06Z</time></trkpt><trkpt lat="43.197564" lon="-0.604157"><ele>236.14</ele><time>2011-09-14T15:10:08Z</time></trkpt><trkpt lat="43.197627" lon="-0.604158"><ele>235.66</ele><time>2011-09-14T15:10:09Z</time></trkpt><trkpt lat="43.197683" lon="-0.604190"><ele>235.66</ele><time>2011-09-14T15:10:10Z</time></trkpt><trkpt lat="43.197727" lon="-0.604250"><ele>235.18</ele><time>2011-09-14T15:10:11Z</time></trkpt><trkpt lat="43.197747" lon="-0.604331"><ele>235.18</ele><time>2011-09-14T15:10:12Z</time></trkpt><trkpt lat="43.197744" lon="-0.604424"><ele>235.18</ele><time>2011-09-14T15:10:13Z</time></trkpt><trkpt lat="43.197721" lon="-0.604520"><ele>235.18</ele><time>2011-09-14T15:10:14Z</time></trkpt><trkpt lat="43.197688" lon="-0.604621"><ele>235.18</ele><time>2011-09-14T15:10:15Z</time></trkpt><trkpt lat="43.197456" lon="-0.605626"><ele>233.74</ele><time>2011-09-14T15:10:24Z</time></trkpt><trkpt lat="43.197461" lon="-0.605740"><ele>233.26</ele><time>2011-09-14T15:10:25Z</time></trkpt><trkpt lat="43.197568" lon="-0.607336"><ele>228.93</ele><time>2011-09-14T15:10:38Z</time></trkpt><trkpt lat="43.197588" lon="-0.607437"><ele>228.93</ele><time>2011-09-14T15:10:39Z</time></trkpt><trkpt lat="43.197620" lon="-0.607534"><ele>228.45</ele><time>2011-09-14T15:10:40Z</time></trkpt><trkpt lat="43.197665" lon="-0.607621"><ele>227.97</ele><time>2011-09-14T15:10:41Z</time></trkpt><trkpt lat="43.197726" lon="-0.607685"><ele>227.97</ele><time>2011-09-14T15:10:42Z</time></trkpt><trkpt lat="43.197800" lon="-0.607716"><ele>227.49</ele><time>2011-09-14T15:10:43Z</time></trkpt><trkpt lat="43.197878" lon="-0.607724"><ele>227.49</ele><time>2011-09-14T15:10:44Z</time></trkpt><trkpt lat="43.197964" lon="-0.607729"><ele>227.01</ele><time>2011-09-14T15:10:45Z</time></trkpt><trkpt lat="43.198057" lon="-0.607747"><ele>227.01</ele><time>2011-09-14T15:10:46Z</time></trkpt><trkpt lat="43.198156" lon="-0.607788"><ele>226.53</ele><time>2011-09-14T15:10:47Z</time></trkpt><trkpt lat="43.198257" lon="-0.607851"><ele>226.05</ele><time>2011-09-14T15:10:48Z</time></trkpt><trkpt lat="43.198350" lon="-0.607938"><ele>226.05</ele><time>2011-09-14T15:10:49Z</time></trkpt><trkpt lat="43.198435" lon="-0.608044"><ele>225.57</ele><time>2011-09-14T15:10:50Z</time></trkpt><trkpt lat="43.198505" lon="-0.608161"><ele>225.57</ele><time>2011-09-14T15:10:51Z</time></trkpt><trkpt lat="43.198557" lon="-0.608285"><ele>225.09</ele><time>2011-09-14T15:10:52Z</time></trkpt><trkpt lat="43.198585" lon="-0.608412"><ele>225.09</ele><time>2011-09-14T15:10:53Z</time></trkpt><trkpt lat="43.198591" lon="-0.608542"><ele>224.61</ele><time>2011-09-14T15:10:54Z</time></trkpt><trkpt lat="43.198570" lon="-0.608670"><ele>225.09</ele><time>2011-09-14T15:10:55Z</time></trkpt><trkpt lat="43.198533" lon="-0.608792"><ele>225.09</ele><time>2011-09-14T15:10:56Z</time></trkpt><trkpt lat="43.198483" lon="-0.608906"><ele>225.09</ele><time>2011-09-14T15:10:57Z</time></trkpt><trkpt lat="43.198393" lon="-0.608983"><ele>224.61</ele><time>2011-09-14T15:10:58Z</time></trkpt><trkpt lat="43.198304" lon="-0.609089"><ele>225.09</ele><time>2011-09-14T15:10:59Z</time></trkpt><trkpt lat="43.198106" lon="-0.609151"><ele>226.05</ele><time>2011-09-14T15:11:01Z</time></trkpt><trkpt lat="43.198011" lon="-0.609155"><ele>226.05</ele><time>2011-09-14T15:11:02Z</time></trkpt><trkpt lat="43.197912" lon="-0.609133"><ele>226.05</ele><time>2011-09-14T15:11:03Z</time></trkpt><trkpt lat="43.197819" lon="-0.609123"><ele>226.05</ele><time>2011-09-14T15:11:04Z</time></trkpt><trkpt lat="43.197728" lon="-0.609126"><ele>226.53</ele><time>2011-09-14T15:11:05Z</time></trkpt><trkpt lat="43.197640" lon="-0.609146"><ele>227.01</ele><time>2011-09-14T15:11:06Z</time></trkpt><trkpt lat="43.197552" lon="-0.609182"><ele>227.49</ele><time>2011-09-14T15:11:07Z</time></trkpt><trkpt lat="43.197462" lon="-0.609223"><ele>227.49</ele><time>2011-09-14T15:11:08Z</time></trkpt><trkpt lat="43.196403" lon="-0.609946"><ele>228.93</ele><time>2011-09-14T15:11:20Z</time></trkpt><trkpt lat="43.195359" lon="-0.610691"><ele>228.45</ele><time>2011-09-14T15:11:32Z</time></trkpt><trkpt lat="43.194488" lon="-0.611539"><ele>228.45</ele><time>2011-09-14T15:11:44Z</time></trkpt><trkpt lat="43.194404" lon="-0.611689"><ele>228.45</ele><time>2011-09-14T15:11:47Z</time></trkpt><trkpt lat="43.194388" lon="-0.611743"><ele>227.97</ele><time>2011-09-14T15:11:48Z</time></trkpt><trkpt lat="43.194369" lon="-0.611806"><ele>228.45</ele><time>2011-09-14T15:11:49Z</time></trkpt><trkpt lat="43.194337" lon="-0.611875"><ele>228.45</ele><time>2011-09-14T15:11:50Z</time></trkpt><trkpt lat="43.194300" lon="-0.611932"><ele>228.45</ele><time>2011-09-14T15:11:51Z</time></trkpt><trkpt lat="43.194252" lon="-0.611968"><ele>228.45</ele><time>2011-09-14T15:11:52Z</time></trkpt><trkpt lat="43.194198" lon="-0.611984"><ele>228.45</ele><time>2011-09-14T15:11:53Z</time></trkpt><trkpt lat="43.194143" lon="-0.611979"><ele>227.97</ele><time>2011-09-14T15:11:54Z</time></trkpt><trkpt lat="43.194093" lon="-0.611956"><ele>228.45</ele><time>2011-09-14T15:11:55Z</time></trkpt><trkpt lat="43.194067" lon="-0.611900"><ele>228.45</ele><time>2011-09-14T15:11:56Z</time></trkpt><trkpt lat="43.194062" lon="-0.611807"><ele>229.41</ele><time>2011-09-14T15:11:57Z</time></trkpt><trkpt lat="43.194065" lon="-0.611716"><ele>229.41</ele><time>2011-09-14T15:11:58Z</time></trkpt><trkpt lat="43.194064" lon="-0.611636"><ele>228.93</ele><time>2011-09-14T15:11:59Z</time></trkpt><trkpt lat="43.194055" lon="-0.611567"><ele>228.45</ele><time>2011-09-14T15:12:00Z</time></trkpt><trkpt lat="43.194036" lon="-0.611509"><ele>227.97</ele><time>2011-09-14T15:12:01Z</time></trkpt><trkpt lat="43.194010" lon="-0.611467"><ele>227.49</ele><time>2011-09-14T15:12:02Z</time></trkpt><trkpt lat="43.193983" lon="-0.611451"><ele>227.49</ele><time>2011-09-14T15:12:03Z</time></trkpt><trkpt lat="43.193962" lon="-0.611448"><ele>227.49</ele><time>2011-09-14T15:12:04Z</time></trkpt><trkpt lat="43.193949" lon="-0.611450"><ele>227.49</ele><time>2011-09-14T15:12:05Z</time></trkpt><trkpt lat="43.193972" lon="-0.611418"><ele>227.97</ele><time>2011-09-14T15:12:26Z</time></trkpt><trkpt lat="43.193952" lon="-0.611427"><ele>227.49</ele><time>2011-09-14T15:16:48Z</time></trkpt><trkpt lat="43.193921" lon="-0.611268"><ele>221.24</ele><time>2011-09-14T15:17:00Z</time></trkpt><trkpt lat="43.193907" lon="-0.611210"><ele>221.72</ele><time>2011-09-14T15:17:02Z</time></trkpt><trkpt lat="43.193915" lon="-0.611186"><ele>221.24</ele><time>2011-09-14T15:17:03Z</time></trkpt><trkpt lat="43.193996" lon="-0.611031"><ele>220.28</ele><time>2011-09-14T15:17:12Z</time></trkpt><trkpt lat="43.194050" lon="-0.610949"><ele>221.24</ele><time>2011-09-14T15:17:22Z</time></trkpt><trkpt lat="43.194083" lon="-0.610961"><ele>219.32</ele><time>2011-09-14T15:17:49Z</time></trkpt><trkpt lat="43.194088" lon="-0.610955"><ele>219.80</ele><time>2011-09-14T15:17:59Z</time></trkpt></trkseg></trk><trk><name>ACTIVE LOG: 15 SEP 2011 09:19</name><trkseg><trkpt lat="43.191777" lon="-0.611123"><ele>185.67</ele><time>2011-09-15T07:19:34Z</time></trkpt><trkpt lat="43.191710" lon="-0.611225"><ele>205.86</ele><time>2011-09-15T07:21:35Z</time></trkpt><trkpt lat="43.191781" lon="-0.610996"><ele>216.43</ele><time>2011-09-15T07:21:43Z</time></trkpt><trkpt lat="43.191789" lon="-0.610087"><ele>220.28</ele><time>2011-09-15T07:21:53Z</time></trkpt><trkpt lat="43.191784" lon="-0.609454"><ele>219.32</ele><time>2011-09-15T07:22:01Z</time></trkpt><trkpt lat="43.191795" lon="-0.609399"><ele>219.32</ele><time>2011-09-15T07:22:02Z</time></trkpt><trkpt lat="43.191814" lon="-0.609346"><ele>219.32</ele><time>2011-09-15T07:22:03Z</time></trkpt><trkpt lat="43.191847" lon="-0.609298"><ele>219.32</ele><time>2011-09-15T07:22:04Z</time></trkpt><trkpt lat="43.191892" lon="-0.609260"><ele>219.80</ele><time>2011-09-15T07:22:05Z</time></trkpt><trkpt lat="43.191949" lon="-0.609230"><ele>220.76</ele><time>2011-09-15T07:22:06Z</time></trkpt><trkpt lat="43.192015" lon="-0.609211"><ele>220.76</ele><time>2011-09-15T07:22:07Z</time></trkpt><trkpt lat="43.192068" lon="-0.609211"><ele>222.68</ele><time>2011-09-15T07:22:08Z</time></trkpt><trkpt lat="43.192193" lon="-0.609144"><ele>221.72</ele><time>2011-09-15T07:22:11Z</time></trkpt><trkpt lat="43.192216" lon="-0.609093"><ele>221.24</ele><time>2011-09-15T07:22:12Z</time></trkpt><trkpt lat="43.192224" lon="-0.609025"><ele>221.24</ele><time>2011-09-15T07:22:13Z</time></trkpt><trkpt lat="43.192231" lon="-0.607986"><ele>219.32</ele><time>2011-09-15T07:22:24Z</time></trkpt><trkpt lat="43.192248" lon="-0.607247"><ele>219.80</ele><time>2011-09-15T07:22:31Z</time></trkpt><trkpt lat="43.192263" lon="-0.607154"><ele>219.80</ele><time>2011-09-15T07:22:32Z</time></trkpt><trkpt lat="43.192287" lon="-0.607067"><ele>219.80</ele><time>2011-09-15T07:22:33Z</time></trkpt><trkpt lat="43.192369" lon="-0.606816"><ele>218.84</ele><time>2011-09-15T07:22:36Z</time></trkpt><trkpt lat="43.192390" lon="-0.606722"><ele>218.36</ele><time>2011-09-15T07:22:37Z</time></trkpt><trkpt lat="43.192440" lon="-0.606299"><ele>217.40</ele><time>2011-09-15T07:22:41Z</time></trkpt><trkpt lat="43.192472" lon="-0.606195"><ele>217.40</ele><time>2011-09-15T07:22:42Z</time></trkpt><trkpt lat="43.192511" lon="-0.606108"><ele>217.40</ele><time>2011-09-15T07:22:43Z</time></trkpt><trkpt lat="43.192566" lon="-0.606039"><ele>216.91</ele><time>2011-09-15T07:22:44Z</time></trkpt><trkpt lat="43.192624" lon="-0.605980"><ele>217.40</ele><time>2011-09-15T07:22:45Z</time></trkpt><trkpt lat="43.193005" lon="-0.605509"><ele>216.43</ele><time>2011-09-15T07:22:52Z</time></trkpt><trkpt lat="43.193038" lon="-0.605426"><ele>216.43</ele><time>2011-09-15T07:22:53Z</time></trkpt><trkpt lat="43.193065" lon="-0.605339"><ele>216.43</ele><time>2011-09-15T07:22:54Z</time></trkpt><trkpt lat="43.193252" lon="-0.604709"><ele>221.72</ele><time>2011-09-15T07:23:01Z</time></trkpt><trkpt lat="43.193256" lon="-0.604620"><ele>222.68</ele><time>2011-09-15T07:23:02Z</time></trkpt><trkpt lat="43.193246" lon="-0.604532"><ele>223.64</ele><time>2011-09-15T07:23:03Z</time></trkpt><trkpt lat="43.193219" lon="-0.604445"><ele>224.61</ele><time>2011-09-15T07:23:04Z</time></trkpt><trkpt lat="43.193179" lon="-0.604363"><ele>225.09</ele><time>2011-09-15T07:23:05Z</time></trkpt><trkpt lat="43.193124" lon="-0.604284"><ele>225.57</ele><time>2011-09-15T07:23:06Z</time></trkpt><trkpt lat="43.193059" lon="-0.604209"><ele>226.05</ele><time>2011-09-15T07:23:07Z</time></trkpt><trkpt lat="43.192988" lon="-0.604133"><ele>227.01</ele><time>2011-09-15T07:23:08Z</time></trkpt><trkpt lat="43.192382" lon="-0.603373"><ele>237.10</ele><time>2011-09-15T07:23:17Z</time></trkpt><trkpt lat="43.191789" lon="-0.602002"><ele>244.31</ele><time>2011-09-15T07:23:27Z</time></trkpt><trkpt lat="43.190871" lon="-0.599879"><ele>251.04</ele><time>2011-09-15T07:23:41Z</time></trkpt><trkpt lat="43.190486" lon="-0.598365"><ele>256.33</ele><time>2011-09-15T07:23:50Z</time></trkpt><trkpt lat="43.190004" lon="-0.596228"><ele>266.42</ele><time>2011-09-15T07:24:02Z</time></trkpt><trkpt lat="43.189461" lon="-0.593997"><ele>271.71</ele><time>2011-09-15T07:24:15Z</time></trkpt><trkpt lat="43.188802" lon="-0.591444"><ele>272.67</ele><time>2011-09-15T07:24:29Z</time></trkpt><trkpt lat="43.188016" lon="-0.589244"><ele>272.19</ele><time>2011-09-15T07:24:40Z</time></trkpt><trkpt lat="43.186989" lon="-0.586386"><ele>274.59</ele><time>2011-09-15T07:24:54Z</time></trkpt><trkpt lat="43.185852" lon="-0.583211"><ele>278.92</ele><time>2011-09-15T07:25:08Z</time></trkpt><trkpt lat="43.184442" lon="-0.579239"><ele>281.32</ele><time>2011-09-15T07:25:25Z</time></trkpt><trkpt lat="43.183493" lon="-0.576588"><ele>283.25</ele><time>2011-09-15T07:25:35Z</time></trkpt><trkpt lat="43.181997" lon="-0.572543"><ele>286.13</ele><time>2011-09-15T07:25:50Z</time></trkpt><trkpt lat="43.180848" lon="-0.569338"><ele>288.53</ele><time>2011-09-15T07:26:03Z</time></trkpt><trkpt lat="43.178938" lon="-0.563857"><ele>291.42</ele><time>2011-09-15T07:26:24Z</time></trkpt><trkpt lat="43.178621" lon="-0.562735"><ele>289.97</ele><time>2011-09-15T07:26:29Z</time></trkpt><trkpt lat="43.178599" lon="-0.562487"><ele>289.49</ele><time>2011-09-15T07:26:30Z</time></trkpt><trkpt lat="43.178586" lon="-0.562232"><ele>289.01</ele><time>2011-09-15T07:26:31Z</time></trkpt><trkpt lat="43.178250" lon="-0.560321"><ele>284.21</ele><time>2011-09-15T07:26:39Z</time></trkpt><trkpt lat="43.177217" lon="-0.556392"><ele>274.59</ele><time>2011-09-15T07:26:56Z</time></trkpt><trkpt lat="43.176351" lon="-0.553171"><ele>277.96</ele><time>2011-09-15T07:27:09Z</time></trkpt><trkpt lat="43.174806" lon="-0.547402"><ele>282.28</ele><time>2011-09-15T07:27:31Z</time></trkpt><trkpt lat="43.173440" lon="-0.542302"><ele>286.61</ele><time>2011-09-15T07:27:50Z</time></trkpt><trkpt lat="43.172368" lon="-0.538293"><ele>287.57</ele><time>2011-09-15T07:28:06Z</time></trkpt><trkpt lat="43.171921" lon="-0.536627"><ele>288.53</ele><time>2011-09-15T07:28:15Z</time></trkpt><trkpt lat="43.171364" lon="-0.534530"><ele>289.49</ele><time>2011-09-15T07:28:24Z</time></trkpt><trkpt lat="43.170558" lon="-0.531653"><ele>292.38</ele><time>2011-09-15T07:28:37Z</time></trkpt><trkpt lat="43.169801" lon="-0.528624"><ele>297.18</ele><time>2011-09-15T07:28:49Z</time></trkpt><trkpt lat="43.169295" lon="-0.526409"><ele>304.39</ele><time>2011-09-15T07:28:57Z</time></trkpt><trkpt lat="43.169168" lon="-0.526190"><ele>305.36</ele><time>2011-09-15T07:28:58Z</time></trkpt><trkpt lat="43.169012" lon="-0.526006"><ele>306.80</ele><time>2011-09-15T07:28:59Z</time></trkpt><trkpt lat="43.168841" lon="-0.525847"><ele>307.76</ele><time>2011-09-15T07:29:00Z</time></trkpt><trkpt lat="43.168664" lon="-0.525702"><ele>309.68</ele><time>2011-09-15T07:29:01Z</time></trkpt><trkpt lat="43.168073" lon="-0.524995"><ele>314.49</ele><time>2011-09-15T07:29:05Z</time></trkpt><trkpt lat="43.167964" lon="-0.524769"><ele>315.93</ele><time>2011-09-15T07:29:06Z</time></trkpt><trkpt lat="43.167874" lon="-0.524524"><ele>316.89</ele><time>2011-09-15T07:29:07Z</time></trkpt><trkpt lat="43.167805" lon="-0.524263"><ele>318.33</ele><time>2011-09-15T07:29:08Z</time></trkpt><trkpt lat="43.167759" lon="-0.523990"><ele>319.30</ele><time>2011-09-15T07:29:09Z</time></trkpt><trkpt lat="43.167715" lon="-0.523715"><ele>320.26</ele><time>2011-09-15T07:29:10Z</time></trkpt><trkpt lat="43.166865" lon="-0.519450"><ele>328.91</ele><time>2011-09-15T07:29:25Z</time></trkpt><trkpt lat="43.165239" lon="-0.511532"><ele>336.12</ele><time>2011-09-15T07:29:52Z</time></trkpt><trkpt lat="43.164113" lon="-0.506072"><ele>338.52</ele><time>2011-09-15T07:30:10Z</time></trkpt><trkpt lat="43.162855" lon="-0.500039"><ele>345.73</ele><time>2011-09-15T07:30:31Z</time></trkpt><trkpt lat="43.162038" lon="-0.495617"><ele>348.13</ele><time>2011-09-15T07:30:47Z</time></trkpt><trkpt lat="43.161595" lon="-0.492322"><ele>347.65</ele><time>2011-09-15T07:30:58Z</time></trkpt><trkpt lat="43.160875" lon="-0.487075"><ele>333.71</ele><time>2011-09-15T07:31:15Z</time></trkpt><trkpt lat="43.160393" lon="-0.483572"><ele>342.85</ele><time>2011-09-15T07:31:27Z</time></trkpt><trkpt lat="43.160305" lon="-0.481166"><ele>345.25</ele><time>2011-09-15T07:31:35Z</time></trkpt><trkpt lat="43.160322" lon="-0.476970"><ele>350.54</ele><time>2011-09-15T07:31:49Z</time></trkpt><trkpt lat="43.160321" lon="-0.470312"><ele>360.63</ele><time>2011-09-15T07:32:11Z</time></trkpt><trkpt lat="43.160252" lon="-0.466157"><ele>369.28</ele><time>2011-09-15T07:32:25Z</time></trkpt><trkpt lat="43.160371" lon="-0.461871"><ele>380.82</ele><time>2011-09-15T07:32:39Z</time></trkpt><trkpt lat="43.160927" lon="-0.459962"><ele>391.87</ele><time>2011-09-15T07:32:46Z</time></trkpt><trkpt lat="43.161725" lon="-0.458209"><ele>399.08</ele><time>2011-09-15T07:32:53Z</time></trkpt><trkpt lat="43.161798" lon="-0.457937"><ele>401.01</ele><time>2011-09-15T07:32:54Z</time></trkpt><trkpt lat="43.161843" lon="-0.457656"><ele>402.45</ele><time>2011-09-15T07:32:55Z</time></trkpt><trkpt lat="43.161859" lon="-0.457370"><ele>403.89</ele><time>2011-09-15T07:32:56Z</time></trkpt><trkpt lat="43.161855" lon="-0.457081"><ele>405.81</ele><time>2011-09-15T07:32:57Z</time></trkpt><trkpt lat="43.161842" lon="-0.456791"><ele>407.26</ele><time>2011-09-15T07:32:58Z</time></trkpt><trkpt lat="43.161936" lon="-0.453970"><ele>426.00</ele><time>2011-09-15T07:33:08Z</time></trkpt><trkpt lat="43.162165" lon="-0.452399"><ele>437.06</ele><time>2011-09-15T07:33:15Z</time></trkpt><trkpt lat="43.162576" lon="-0.450971"><ele>440.90</ele><time>2011-09-15T07:33:23Z</time></trkpt><trkpt lat="43.162597" lon="-0.450820"><ele>440.90</ele><time>2011-09-15T07:33:24Z</time></trkpt><trkpt lat="43.162795" lon="-0.449420"><ele>446.19</ele><time>2011-09-15T07:33:33Z</time></trkpt><trkpt lat="43.162848" lon="-0.447686"><ele>452.92</ele><time>2011-09-15T07:33:41Z</time></trkpt><trkpt lat="43.162783" lon="-0.446164"><ele>461.09</ele><time>2011-09-15T07:33:50Z</time></trkpt><trkpt lat="43.162768" lon="-0.446136"><ele>461.57</ele><time>2011-09-15T07:33:56Z</time></trkpt><trkpt lat="43.162728" lon="-0.445850"><ele>460.13</ele><time>2011-09-15T07:34:18Z</time></trkpt><trkpt lat="43.162610" lon="-0.444765"><ele>461.57</ele><time>2011-09-15T07:34:26Z</time></trkpt><trkpt lat="43.162565" lon="-0.444610"><ele>461.09</ele><time>2011-09-15T07:34:27Z</time></trkpt><trkpt lat="43.162503" lon="-0.444454"><ele>461.09</ele><time>2011-09-15T07:34:28Z</time></trkpt><trkpt lat="43.162427" lon="-0.444305"><ele>460.61</ele><time>2011-09-15T07:34:29Z</time></trkpt><trkpt lat="43.162340" lon="-0.444169"><ele>460.13</ele><time>2011-09-15T07:34:30Z</time></trkpt><trkpt lat="43.162244" lon="-0.444039"><ele>459.65</ele><time>2011-09-15T07:34:31Z</time></trkpt><trkpt lat="43.162034" lon="-0.443766"><ele>458.69</ele><time>2011-09-15T07:34:33Z</time></trkpt><trkpt lat="43.161933" lon="-0.443604"><ele>458.21</ele><time>2011-09-15T07:34:34Z</time></trkpt><trkpt lat="43.161836" lon="-0.443424"><ele>458.21</ele><time>2011-09-15T07:34:35Z</time></trkpt><trkpt lat="43.161269" lon="-0.441934"><ele>459.17</ele><time>2011-09-15T07:34:43Z</time></trkpt><trkpt lat="43.160834" lon="-0.439896"><ele>463.49</ele><time>2011-09-15T07:34:52Z</time></trkpt><trkpt lat="43.160834" lon="-0.439668"><ele>464.45</ele><time>2011-09-15T07:34:53Z</time></trkpt><trkpt lat="43.160848" lon="-0.439442"><ele>464.93</ele><time>2011-09-15T07:34:54Z</time></trkpt><trkpt lat="43.160864" lon="-0.438739"><ele>467.34</ele><time>2011-09-15T07:34:57Z</time></trkpt><trkpt lat="43.160839" lon="-0.438497"><ele>467.82</ele><time>2011-09-15T07:34:58Z</time></trkpt><trkpt lat="43.160798" lon="-0.438253"><ele>468.30</ele><time>2011-09-15T07:34:59Z</time></trkpt><trkpt lat="43.160244" lon="-0.435920"><ele>474.07</ele><time>2011-09-15T07:35:09Z</time></trkpt><trkpt lat="43.159653" lon="-0.434653"><ele>477.43</ele><time>2011-09-15T07:35:16Z</time></trkpt><trkpt lat="43.159590" lon="-0.434483"><ele>477.43</ele><time>2011-09-15T07:35:17Z</time></trkpt><trkpt lat="43.159542" lon="-0.434297"><ele>477.91</ele><time>2011-09-15T07:35:18Z</time></trkpt><trkpt lat="43.159508" lon="-0.434095"><ele>477.91</ele><time>2011-09-15T07:35:19Z</time></trkpt><trkpt lat="43.159485" lon="-0.433886"><ele>478.39</ele><time>2011-09-15T07:35:20Z</time></trkpt><trkpt lat="43.159466" lon="-0.433673"><ele>478.87</ele><time>2011-09-15T07:35:21Z</time></trkpt><trkpt lat="43.159503" lon="-0.431561"><ele>476.47</ele><time>2011-09-15T07:35:30Z</time></trkpt><trkpt lat="43.159679" lon="-0.428994"><ele>474.07</ele><time>2011-09-15T07:35:42Z</time></trkpt><trkpt lat="43.159779" lon="-0.428668"><ele>472.63</ele><time>2011-09-15T07:35:44Z</time></trkpt><trkpt lat="43.159862" lon="-0.428518"><ele>471.66</ele><time>2011-09-15T07:35:45Z</time></trkpt><trkpt lat="43.159941" lon="-0.428352"><ele>471.18</ele><time>2011-09-15T07:35:46Z</time></trkpt><trkpt lat="43.160155" lon="-0.427768"><ele>468.78</ele><time>2011-09-15T07:35:49Z</time></trkpt><trkpt lat="43.160182" lon="-0.427554"><ele>467.82</ele><time>2011-09-15T07:35:50Z</time></trkpt><trkpt lat="43.160197" lon="-0.427333"><ele>466.38</ele><time>2011-09-15T07:35:51Z</time></trkpt><trkpt lat="43.160204" lon="-0.427113"><ele>465.42</ele><time>2011-09-15T07:35:52Z</time></trkpt><trkpt lat="43.160190" lon="-0.426887"><ele>463.97</ele><time>2011-09-15T07:35:53Z</time></trkpt><trkpt lat="43.160163" lon="-0.426664"><ele>462.53</ele><time>2011-09-15T07:35:54Z</time></trkpt><trkpt lat="43.160131" lon="-0.426446"><ele>461.09</ele><time>2011-09-15T07:35:55Z</time></trkpt><trkpt lat="43.160057" lon="-0.425870"><ele>457.72</ele><time>2011-09-15T07:35:58Z</time></trkpt><trkpt lat="43.160074" lon="-0.425710"><ele>456.76</ele><time>2011-09-15T07:35:59Z</time></trkpt><trkpt lat="43.160115" lon="-0.425569"><ele>456.28</ele><time>2011-09-15T07:36:00Z</time></trkpt><trkpt lat="43.160208" lon="-0.425478"><ele>455.32</ele><time>2011-09-15T07:36:01Z</time></trkpt><trkpt lat="43.160321" lon="-0.425446"><ele>454.84</ele><time>2011-09-15T07:36:02Z</time></trkpt><trkpt lat="43.160433" lon="-0.425450"><ele>454.36</ele><time>2011-09-15T07:36:03Z</time></trkpt><trkpt lat="43.160545" lon="-0.425480"><ele>454.36</ele><time>2011-09-15T07:36:04Z</time></trkpt><trkpt lat="43.160670" lon="-0.425521"><ele>452.92</ele><time>2011-09-15T07:36:05Z</time></trkpt><trkpt lat="43.160814" lon="-0.425540"><ele>451.48</ele><time>2011-09-15T07:36:06Z</time></trkpt><trkpt lat="43.160953" lon="-0.425504"><ele>450.52</ele><time>2011-09-15T07:36:07Z</time></trkpt><trkpt lat="43.161100" lon="-0.425417"><ele>450.03</ele><time>2011-09-15T07:36:08Z</time></trkpt><trkpt lat="43.161237" lon="-0.425308"><ele>449.55</ele><time>2011-09-15T07:36:09Z</time></trkpt><trkpt lat="43.161356" lon="-0.425176"><ele>449.07</ele><time>2011-09-15T07:36:10Z</time></trkpt><trkpt lat="43.161467" lon="-0.425037"><ele>448.11</ele><time>2011-09-15T07:36:11Z</time></trkpt><trkpt lat="43.161609" lon="-0.424702"><ele>445.71</ele><time>2011-09-15T07:36:13Z</time></trkpt><trkpt lat="43.161673" lon="-0.424540"><ele>443.31</ele><time>2011-09-15T07:36:14Z</time></trkpt><trkpt lat="43.161727" lon="-0.424356"><ele>440.90</ele><time>2011-09-15T07:36:15Z</time></trkpt><trkpt lat="43.161746" lon="-0.424159"><ele>438.50</ele><time>2011-09-15T07:36:16Z</time></trkpt><trkpt lat="43.161733" lon="-0.423935"><ele>438.50</ele><time>2011-09-15T07:36:17Z</time></trkpt><trkpt lat="43.161723" lon="-0.423727"><ele>436.10</ele><time>2011-09-15T07:36:18Z</time></trkpt><trkpt lat="43.161706" lon="-0.423509"><ele>434.65</ele><time>2011-09-15T07:36:19Z</time></trkpt><trkpt lat="43.161642" lon="-0.422889"><ele>429.85</ele><time>2011-09-15T07:36:22Z</time></trkpt><trkpt lat="43.161450" lon="-0.421232"><ele>420.23</ele><time>2011-09-15T07:36:30Z</time></trkpt><trkpt lat="43.161465" lon="-0.421028"><ele>418.79</ele><time>2011-09-15T07:36:31Z</time></trkpt><trkpt lat="43.161477" lon="-0.420826"><ele>417.83</ele><time>2011-09-15T07:36:32Z</time></trkpt><trkpt lat="43.161457" lon="-0.420640"><ele>416.87</ele><time>2011-09-15T07:36:33Z</time></trkpt><trkpt lat="43.161410" lon="-0.420468"><ele>415.43</ele><time>2011-09-15T07:36:34Z</time></trkpt><trkpt lat="43.161342" lon="-0.420314"><ele>413.98</ele><time>2011-09-15T07:36:35Z</time></trkpt><trkpt lat="43.161249" lon="-0.420174"><ele>413.02</ele><time>2011-09-15T07:36:36Z</time></trkpt><trkpt lat="43.161151" lon="-0.420035"><ele>412.54</ele><time>2011-09-15T07:36:37Z</time></trkpt><trkpt lat="43.161057" lon="-0.419904"><ele>411.58</ele><time>2011-09-15T07:36:38Z</time></trkpt><trkpt lat="43.160813" lon="-0.419521"><ele>409.18</ele><time>2011-09-15T07:36:41Z</time></trkpt><trkpt lat="43.160767" lon="-0.419370"><ele>408.22</ele><time>2011-09-15T07:36:42Z</time></trkpt><trkpt lat="43.160765" lon="-0.419189"><ele>407.26</ele><time>2011-09-15T07:36:43Z</time></trkpt><trkpt lat="43.160778" lon="-0.419009"><ele>406.77</ele><time>2011-09-15T07:36:44Z</time></trkpt><trkpt lat="43.160823" lon="-0.418830"><ele>406.29</ele><time>2011-09-15T07:36:45Z</time></trkpt><trkpt lat="43.160912" lon="-0.418658"><ele>405.33</ele><time>2011-09-15T07:36:46Z</time></trkpt><trkpt lat="43.161012" lon="-0.418485"><ele>404.37</ele><time>2011-09-15T07:36:47Z</time></trkpt><trkpt lat="43.161111" lon="-0.418317"><ele>402.93</ele><time>2011-09-15T07:36:48Z</time></trkpt><trkpt lat="43.162278" lon="-0.416679"><ele>393.32</ele><time>2011-09-15T07:36:59Z</time></trkpt><trkpt lat="43.162371" lon="-0.416530"><ele>392.84</ele><time>2011-09-15T07:37:00Z</time></trkpt><trkpt lat="43.162554" lon="-0.415999"><ele>390.91</ele><time>2011-09-15T07:37:03Z</time></trkpt><trkpt lat="43.162566" lon="-0.415796"><ele>390.43</ele><time>2011-09-15T07:37:04Z</time></trkpt><trkpt lat="43.162554" lon="-0.415579"><ele>389.95</ele><time>2011-09-15T07:37:05Z</time></trkpt><trkpt lat="43.162541" lon="-0.415352"><ele>389.47</ele><time>2011-09-15T07:37:06Z</time></trkpt><trkpt lat="43.162544" lon="-0.415130"><ele>388.51</ele><time>2011-09-15T07:37:07Z</time></trkpt><trkpt lat="43.162533" lon="-0.413444"><ele>379.86</ele><time>2011-09-15T07:37:15Z</time></trkpt><trkpt lat="43.162506" lon="-0.413249"><ele>378.42</ele><time>2011-09-15T07:37:16Z</time></trkpt><trkpt lat="43.162457" lon="-0.413065"><ele>376.97</ele><time>2011-09-15T07:37:17Z</time></trkpt><trkpt lat="43.162398" lon="-0.412897"><ele>375.53</ele><time>2011-09-15T07:37:18Z</time></trkpt><trkpt lat="43.162272" lon="-0.412579"><ele>373.13</ele><time>2011-09-15T07:37:20Z</time></trkpt><trkpt lat="43.162235" lon="-0.412419"><ele>372.65</ele><time>2011-09-15T07:37:21Z</time></trkpt><trkpt lat="43.162221" lon="-0.412253"><ele>371.69</ele><time>2011-09-15T07:37:22Z</time></trkpt><trkpt lat="43.162245" lon="-0.412089"><ele>370.73</ele><time>2011-09-15T07:37:23Z</time></trkpt><trkpt lat="43.162298" lon="-0.411944"><ele>369.76</ele><time>2011-09-15T07:37:24Z</time></trkpt><trkpt lat="43.162419" lon="-0.411813"><ele>370.24</ele><time>2011-09-15T07:37:25Z</time></trkpt><trkpt lat="43.162516" lon="-0.411679"><ele>369.76</ele><time>2011-09-15T07:37:26Z</time></trkpt><trkpt lat="43.162591" lon="-0.411534"><ele>368.80</ele><time>2011-09-15T07:37:27Z</time></trkpt><trkpt lat="43.162651" lon="-0.411372"><ele>367.84</ele><time>2011-09-15T07:37:28Z</time></trkpt><trkpt lat="43.162688" lon="-0.411199"><ele>366.88</ele><time>2011-09-15T07:37:29Z</time></trkpt><trkpt lat="43.162683" lon="-0.411001"><ele>365.44</ele><time>2011-09-15T07:37:30Z</time></trkpt><trkpt lat="43.162666" lon="-0.410817"><ele>364.48</ele><time>2011-09-15T07:37:31Z</time></trkpt><trkpt lat="43.162612" lon="-0.410665"><ele>364.00</ele><time>2011-09-15T07:37:32Z</time></trkpt><trkpt lat="43.162544" lon="-0.410548"><ele>364.00</ele><time>2011-09-15T07:37:33Z</time></trkpt><trkpt lat="43.162465" lon="-0.410447"><ele>363.52</ele><time>2011-09-15T07:37:34Z</time></trkpt><trkpt lat="43.162373" lon="-0.410356"><ele>363.52</ele><time>2011-09-15T07:37:35Z</time></trkpt><trkpt lat="43.162284" lon="-0.410250"><ele>363.04</ele><time>2011-09-15T07:37:36Z</time></trkpt><trkpt lat="43.161980" lon="-0.409777"><ele>362.55</ele><time>2011-09-15T07:37:40Z</time></trkpt><trkpt lat="43.161971" lon="-0.409648"><ele>362.55</ele><time>2011-09-15T07:37:41Z</time></trkpt><trkpt lat="43.161971" lon="-0.409504"><ele>362.07</ele><time>2011-09-15T07:37:42Z</time></trkpt><trkpt lat="43.161971" lon="-0.409354"><ele>361.59</ele><time>2011-09-15T07:37:43Z</time></trkpt><trkpt lat="43.161958" lon="-0.409200"><ele>361.11</ele><time>2011-09-15T07:37:44Z</time></trkpt><trkpt lat="43.161935" lon="-0.409046"><ele>360.63</ele><time>2011-09-15T07:37:45Z</time></trkpt><trkpt lat="43.161906" lon="-0.408893"><ele>359.67</ele><time>2011-09-15T07:37:46Z</time></trkpt><trkpt lat="43.161843" lon="-0.408604"><ele>358.23</ele><time>2011-09-15T07:37:48Z</time></trkpt><trkpt lat="43.161788" lon="-0.408483"><ele>357.75</ele><time>2011-09-15T07:37:49Z</time></trkpt><trkpt lat="43.161709" lon="-0.408388"><ele>357.27</ele><time>2011-09-15T07:37:50Z</time></trkpt><trkpt lat="43.161606" lon="-0.408320"><ele>356.31</ele><time>2011-09-15T07:37:51Z</time></trkpt><trkpt lat="43.161484" lon="-0.408276"><ele>355.83</ele><time>2011-09-15T07:37:52Z</time></trkpt><trkpt lat="43.161350" lon="-0.408236"><ele>355.34</ele><time>2011-09-15T07:37:53Z</time></trkpt><trkpt lat="43.161210" lon="-0.408199"><ele>354.86</ele><time>2011-09-15T07:37:54Z</time></trkpt><trkpt lat="43.160824" lon="-0.408061"><ele>353.42</ele><time>2011-09-15T07:37:57Z</time></trkpt><trkpt lat="43.160727" lon="-0.407985"><ele>352.94</ele><time>2011-09-15T07:37:58Z</time></trkpt><trkpt lat="43.160649" lon="-0.407896"><ele>352.46</ele><time>2011-09-15T07:37:59Z</time></trkpt><trkpt lat="43.160606" lon="-0.407779"><ele>351.98</ele><time>2011-09-15T07:38:00Z</time></trkpt><trkpt lat="43.160631" lon="-0.407633"><ele>351.50</ele><time>2011-09-15T07:38:01Z</time></trkpt><trkpt lat="43.160682" lon="-0.407490"><ele>350.54</ele><time>2011-09-15T07:38:02Z</time></trkpt><trkpt lat="43.160699" lon="-0.407327"><ele>350.06</ele><time>2011-09-15T07:38:03Z</time></trkpt><trkpt lat="43.160711" lon="-0.407189"><ele>350.54</ele><time>2011-09-15T07:38:04Z</time></trkpt><trkpt lat="43.160714" lon="-0.407038"><ele>349.10</ele><time>2011-09-15T07:38:05Z</time></trkpt><trkpt lat="43.160618" lon="-0.406640"><ele>345.73</ele><time>2011-09-15T07:38:08Z</time></trkpt><trkpt lat="43.160563" lon="-0.406533"><ele>344.29</ele><time>2011-09-15T07:38:09Z</time></trkpt><trkpt lat="43.160491" lon="-0.406429"><ele>343.81</ele><time>2011-09-15T07:38:10Z</time></trkpt><trkpt lat="43.160489" lon="-0.406350"><ele>343.33</ele><time>2011-09-15T07:38:11Z</time></trkpt><trkpt lat="43.160515" lon="-0.406251"><ele>344.29</ele><time>2011-09-15T07:38:12Z</time></trkpt><trkpt lat="43.160558" lon="-0.406160"><ele>345.25</ele><time>2011-09-15T07:38:13Z</time></trkpt><trkpt lat="43.160616" lon="-0.406061"><ele>345.73</ele><time>2011-09-15T07:38:14Z</time></trkpt><trkpt lat="43.160687" lon="-0.405958"><ele>346.21</ele><time>2011-09-15T07:38:15Z</time></trkpt><trkpt lat="43.160780" lon="-0.405868"><ele>346.69</ele><time>2011-09-15T07:38:16Z</time></trkpt><trkpt lat="43.160878" lon="-0.405807"><ele>346.69</ele><time>2011-09-15T07:38:17Z</time></trkpt><trkpt lat="43.160987" lon="-0.405765"><ele>346.21</ele><time>2011-09-15T07:38:18Z</time></trkpt><trkpt lat="43.161073" lon="-0.405699"><ele>344.77</ele><time>2011-09-15T07:38:19Z</time></trkpt><trkpt lat="43.161157" lon="-0.405611"><ele>343.81</ele><time>2011-09-15T07:38:20Z</time></trkpt><trkpt lat="43.161209" lon="-0.405504"><ele>342.37</ele><time>2011-09-15T07:38:21Z</time></trkpt><trkpt lat="43.161245" lon="-0.405371"><ele>340.92</ele><time>2011-09-15T07:38:22Z</time></trkpt><trkpt lat="43.161273" lon="-0.405222"><ele>339.96</ele><time>2011-09-15T07:38:23Z</time></trkpt><trkpt lat="43.161286" lon="-0.405044"><ele>339.00</ele><time>2011-09-15T07:38:24Z</time></trkpt><trkpt lat="43.161281" lon="-0.404874"><ele>338.52</ele><time>2011-09-15T07:38:25Z</time></trkpt><trkpt lat="43.161262" lon="-0.404696"><ele>338.04</ele><time>2011-09-15T07:38:26Z</time></trkpt><trkpt lat="43.161221" lon="-0.404511"><ele>335.64</ele><time>2011-09-15T07:38:27Z</time></trkpt><trkpt lat="43.161173" lon="-0.404352"><ele>334.68</ele><time>2011-09-15T07:38:28Z</time></trkpt><trkpt lat="43.161071" lon="-0.404250"><ele>334.20</ele><time>2011-09-15T07:38:29Z</time></trkpt><trkpt lat="43.160936" lon="-0.404211"><ele>333.71</ele><time>2011-09-15T07:38:30Z</time></trkpt><trkpt lat="43.160842" lon="-0.404158"><ele>333.23</ele><time>2011-09-15T07:38:31Z</time></trkpt><trkpt lat="43.160748" lon="-0.404086"><ele>332.75</ele><time>2011-09-15T07:38:32Z</time></trkpt><trkpt lat="43.160675" lon="-0.404005"><ele>332.27</ele><time>2011-09-15T07:38:33Z</time></trkpt><trkpt lat="43.160641" lon="-0.403907"><ele>331.31</ele><time>2011-09-15T07:38:34Z</time></trkpt><trkpt lat="43.160607" lon="-0.403789"><ele>331.31</ele><time>2011-09-15T07:38:35Z</time></trkpt><trkpt lat="43.160577" lon="-0.403641"><ele>330.83</ele><time>2011-09-15T07:38:36Z</time></trkpt><trkpt lat="43.160557" lon="-0.403479"><ele>329.39</ele><time>2011-09-15T07:38:37Z</time></trkpt><trkpt lat="43.160538" lon="-0.403328"><ele>327.47</ele><time>2011-09-15T07:38:38Z</time></trkpt><trkpt lat="43.160472" lon="-0.402146"><ele>318.81</ele><time>2011-09-15T07:38:44Z</time></trkpt><trkpt lat="43.160334" lon="-0.401434"><ele>315.45</ele><time>2011-09-15T07:38:48Z</time></trkpt><trkpt lat="43.160183" lon="-0.400942"><ele>312.57</ele><time>2011-09-15T07:38:51Z</time></trkpt><trkpt lat="43.160154" lon="-0.400767"><ele>311.12</ele><time>2011-09-15T07:38:52Z</time></trkpt><trkpt lat="43.160136" lon="-0.400588"><ele>310.16</ele><time>2011-09-15T07:38:53Z</time></trkpt><trkpt lat="43.160010" lon="-0.398730"><ele>299.59</ele><time>2011-09-15T07:39:03Z</time></trkpt><trkpt lat="43.160026" lon="-0.398556"><ele>298.63</ele><time>2011-09-15T07:39:04Z</time></trkpt><trkpt lat="43.160057" lon="-0.398392"><ele>297.67</ele><time>2011-09-15T07:39:05Z</time></trkpt><trkpt lat="43.160104" lon="-0.398243"><ele>297.18</ele><time>2011-09-15T07:39:06Z</time></trkpt><trkpt lat="43.160169" lon="-0.398121"><ele>295.74</ele><time>2011-09-15T07:39:07Z</time></trkpt><trkpt lat="43.160251" lon="-0.398031"><ele>294.78</ele><time>2011-09-15T07:39:08Z</time></trkpt><trkpt lat="43.160331" lon="-0.397960"><ele>293.82</ele><time>2011-09-15T07:39:09Z</time></trkpt><trkpt lat="43.160399" lon="-0.397899"><ele>292.86</ele><time>2011-09-15T07:39:10Z</time></trkpt><trkpt lat="43.160492" lon="-0.397793"><ele>291.42</ele><time>2011-09-15T07:39:12Z</time></trkpt><trkpt lat="43.160513" lon="-0.397749"><ele>290.94</ele><time>2011-09-15T07:39:13Z</time></trkpt><trkpt lat="43.160520" lon="-0.397715"><ele>290.94</ele><time>2011-09-15T07:39:14Z</time></trkpt><trkpt lat="43.160523" lon="-0.397689"><ele>290.94</ele><time>2011-09-15T07:39:15Z</time></trkpt><trkpt lat="43.160524" lon="-0.397652"><ele>290.46</ele><time>2011-09-15T07:39:16Z</time></trkpt><trkpt lat="43.160520" lon="-0.397593"><ele>289.97</ele><time>2011-09-15T07:39:17Z</time></trkpt><trkpt lat="43.160499" lon="-0.397508"><ele>289.49</ele><time>2011-09-15T07:39:18Z</time></trkpt><trkpt lat="43.160468" lon="-0.397412"><ele>289.49</ele><time>2011-09-15T07:39:19Z</time></trkpt><trkpt lat="43.160434" lon="-0.397321"><ele>289.49</ele><time>2011-09-15T07:39:20Z</time></trkpt><trkpt lat="43.160063" lon="-0.396547"><ele>289.49</ele><time>2011-09-15T07:39:30Z</time></trkpt><trkpt lat="43.160023" lon="-0.396461"><ele>289.97</ele><time>2011-09-15T07:39:31Z</time></trkpt><trkpt lat="43.159572" lon="-0.395346"><ele>295.74</ele><time>2011-09-15T07:39:43Z</time></trkpt><trkpt lat="43.158988" lon="-0.394080"><ele>302.95</ele><time>2011-09-15T07:39:55Z</time></trkpt><trkpt lat="43.158349" lon="-0.392859"><ele>310.64</ele><time>2011-09-15T07:40:07Z</time></trkpt><trkpt lat="43.158275" lon="-0.392787"><ele>311.60</ele><time>2011-09-15T07:40:08Z</time></trkpt><trkpt lat="43.158191" lon="-0.392733"><ele>313.05</ele><time>2011-09-15T07:40:09Z</time></trkpt><trkpt lat="43.158095" lon="-0.392708"><ele>314.01</ele><time>2011-09-15T07:40:10Z</time></trkpt><trkpt lat="43.157994" lon="-0.392705"><ele>315.45</ele><time>2011-09-15T07:40:11Z</time></trkpt><trkpt lat="43.157889" lon="-0.392712"><ele>316.41</ele><time>2011-09-15T07:40:12Z</time></trkpt><trkpt lat="43.157435" lon="-0.392723"><ele>320.74</ele><time>2011-09-15T07:40:16Z</time></trkpt><trkpt lat="43.157316" lon="-0.392693"><ele>321.70</ele><time>2011-09-15T07:40:17Z</time></trkpt><trkpt lat="43.157201" lon="-0.392636"><ele>323.14</ele><time>2011-09-15T07:40:18Z</time></trkpt><trkpt lat="43.157098" lon="-0.392556"><ele>324.10</ele><time>2011-09-15T07:40:19Z</time></trkpt><trkpt lat="43.157016" lon="-0.392463"><ele>325.06</ele><time>2011-09-15T07:40:20Z</time></trkpt><trkpt lat="43.156981" lon="-0.392355"><ele>326.02</ele><time>2011-09-15T07:40:21Z</time></trkpt><trkpt lat="43.156993" lon="-0.392241"><ele>326.99</ele><time>2011-09-15T07:40:22Z</time></trkpt><trkpt lat="43.157024" lon="-0.392137"><ele>327.95</ele><time>2011-09-15T07:40:23Z</time></trkpt><trkpt lat="43.157065" lon="-0.392025"><ele>328.91</ele><time>2011-09-15T07:40:24Z</time></trkpt><trkpt lat="43.157108" lon="-0.391907"><ele>329.87</ele><time>2011-09-15T07:40:25Z</time></trkpt><trkpt lat="43.157206" lon="-0.391495"><ele>332.27</ele><time>2011-09-15T07:40:28Z</time></trkpt><trkpt lat="43.157217" lon="-0.391327"><ele>333.23</ele><time>2011-09-15T07:40:29Z</time></trkpt><trkpt lat="43.157211" lon="-0.391147"><ele>334.20</ele><time>2011-09-15T07:40:30Z</time></trkpt><trkpt lat="43.157187" lon="-0.390964"><ele>334.68</ele><time>2011-09-15T07:40:31Z</time></trkpt><trkpt lat="43.157155" lon="-0.390788"><ele>335.64</ele><time>2011-09-15T07:40:32Z</time></trkpt><trkpt lat="43.157119" lon="-0.390624"><ele>336.60</ele><time>2011-09-15T07:40:33Z</time></trkpt><trkpt lat="43.156663" lon="-0.388939"><ele>346.21</ele><time>2011-09-15T07:40:42Z</time></trkpt><trkpt lat="43.156541" lon="-0.388040"><ele>352.46</ele><time>2011-09-15T07:40:48Z</time></trkpt><trkpt lat="43.156555" lon="-0.387938"><ele>352.46</ele><time>2011-09-15T07:40:49Z</time></trkpt><trkpt lat="43.156589" lon="-0.387840"><ele>352.94</ele><time>2011-09-15T07:40:50Z</time></trkpt><trkpt lat="43.156638" lon="-0.387731"><ele>352.94</ele><time>2011-09-15T07:40:51Z</time></trkpt><trkpt lat="43.156697" lon="-0.387604"><ele>352.94</ele><time>2011-09-15T07:40:52Z</time></trkpt><trkpt lat="43.157340" lon="-0.386281"><ele>347.65</ele><time>2011-09-15T07:41:00Z</time></trkpt><trkpt lat="43.158628" lon="-0.384066"><ele>339.96</ele><time>2011-09-15T07:41:12Z</time></trkpt><trkpt lat="43.159683" lon="-0.382177"><ele>332.75</ele><time>2011-09-15T07:41:23Z</time></trkpt><trkpt lat="43.159746" lon="-0.381969"><ele>332.27</ele><time>2011-09-15T07:41:24Z</time></trkpt><trkpt lat="43.159798" lon="-0.381747"><ele>331.79</ele><time>2011-09-15T07:41:25Z</time></trkpt><trkpt lat="43.160220" lon="-0.379331"><ele>326.50</ele><time>2011-09-15T07:41:36Z</time></trkpt><trkpt lat="43.160316" lon="-0.378831"><ele>325.06</ele><time>2011-09-15T07:41:39Z</time></trkpt><trkpt lat="43.160364" lon="-0.378724"><ele>324.58</ele><time>2011-09-15T07:41:40Z</time></trkpt><trkpt lat="43.160442" lon="-0.378681"><ele>324.10</ele><time>2011-09-15T07:41:41Z</time></trkpt><trkpt lat="43.160529" lon="-0.378671"><ele>324.10</ele><time>2011-09-15T07:41:42Z</time></trkpt><trkpt lat="43.160626" lon="-0.378673"><ele>323.62</ele><time>2011-09-15T07:41:43Z</time></trkpt><trkpt lat="43.160736" lon="-0.378681"><ele>323.62</ele><time>2011-09-15T07:41:44Z</time></trkpt><trkpt lat="43.161601" lon="-0.378456"><ele>330.83</ele><time>2011-09-15T07:41:51Z</time></trkpt><trkpt lat="43.161710" lon="-0.378406"><ele>331.79</ele><time>2011-09-15T07:41:52Z</time></trkpt><trkpt lat="43.161810" lon="-0.378336"><ele>332.75</ele><time>2011-09-15T07:41:53Z</time></trkpt><trkpt lat="43.161901" lon="-0.378239"><ele>333.71</ele><time>2011-09-15T07:41:54Z</time></trkpt><trkpt lat="43.161982" lon="-0.378118"><ele>334.68</ele><time>2011-09-15T07:41:55Z</time></trkpt><trkpt lat="43.162049" lon="-0.377973"><ele>335.64</ele><time>2011-09-15T07:41:56Z</time></trkpt><trkpt lat="43.162098" lon="-0.377815"><ele>336.60</ele><time>2011-09-15T07:41:57Z</time></trkpt><trkpt lat="43.162124" lon="-0.377650"><ele>338.04</ele><time>2011-09-15T07:41:58Z</time></trkpt><trkpt lat="43.162126" lon="-0.377481"><ele>339.00</ele><time>2011-09-15T07:41:59Z</time></trkpt><trkpt lat="43.162110" lon="-0.377308"><ele>339.96</ele><time>2011-09-15T07:42:00Z</time></trkpt><trkpt lat="43.162078" lon="-0.377136"><ele>341.41</ele><time>2011-09-15T07:42:01Z</time></trkpt><trkpt lat="43.162029" lon="-0.376972"><ele>342.37</ele><time>2011-09-15T07:42:02Z</time></trkpt><trkpt lat="43.161961" lon="-0.376822"><ele>343.81</ele><time>2011-09-15T07:42:03Z</time></trkpt><trkpt lat="43.161874" lon="-0.376693"><ele>345.25</ele><time>2011-09-15T07:42:04Z</time></trkpt><trkpt lat="43.161773" lon="-0.376593"><ele>347.17</ele><time>2011-09-15T07:42:05Z</time></trkpt><trkpt lat="43.161663" lon="-0.376521"><ele>348.62</ele><time>2011-09-15T07:42:06Z</time></trkpt><trkpt lat="43.161555" lon="-0.376460"><ele>350.06</ele><time>2011-09-15T07:42:07Z</time></trkpt><trkpt lat="43.161239" lon="-0.376121"><ele>355.34</ele><time>2011-09-15T07:42:11Z</time></trkpt><trkpt lat="43.161199" lon="-0.375971"><ele>356.31</ele><time>2011-09-15T07:42:12Z</time></trkpt><trkpt lat="43.161153" lon="-0.375816"><ele>358.23</ele><time>2011-09-15T07:42:13Z</time></trkpt><trkpt lat="43.161147" lon="-0.375593"><ele>359.67</ele><time>2011-09-15T07:42:14Z</time></trkpt><trkpt lat="43.161142" lon="-0.375366"><ele>360.15</ele><time>2011-09-15T07:42:15Z</time></trkpt><trkpt lat="43.161130" lon="-0.375154"><ele>361.11</ele><time>2011-09-15T07:42:16Z</time></trkpt><trkpt lat="43.161115" lon="-0.373833"><ele>364.96</ele><time>2011-09-15T07:42:23Z</time></trkpt><trkpt lat="43.161086" lon="-0.373671"><ele>365.44</ele><time>2011-09-15T07:42:24Z</time></trkpt><trkpt lat="43.161038" lon="-0.373516"><ele>365.92</ele><time>2011-09-15T07:42:25Z</time></trkpt><trkpt lat="43.160993" lon="-0.373352"><ele>366.40</ele><time>2011-09-15T07:42:26Z</time></trkpt><trkpt lat="43.160957" lon="-0.373182"><ele>367.36</ele><time>2011-09-15T07:42:27Z</time></trkpt><trkpt lat="43.160941" lon="-0.372999"><ele>367.84</ele><time>2011-09-15T07:42:28Z</time></trkpt><trkpt lat="43.160942" lon="-0.372805"><ele>368.32</ele><time>2011-09-15T07:42:29Z</time></trkpt><trkpt lat="43.160952" lon="-0.372590"><ele>368.32</ele><time>2011-09-15T07:42:30Z</time></trkpt><trkpt lat="43.160968" lon="-0.372367"><ele>368.80</ele><time>2011-09-15T07:42:31Z</time></trkpt><trkpt lat="43.161013" lon="-0.370430"><ele>376.49</ele><time>2011-09-15T07:42:40Z</time></trkpt><trkpt lat="43.160978" lon="-0.370278"><ele>377.45</ele><time>2011-09-15T07:42:41Z</time></trkpt><trkpt lat="43.160932" lon="-0.370150"><ele>378.42</ele><time>2011-09-15T07:42:42Z</time></trkpt><trkpt lat="43.160875" lon="-0.370054"><ele>379.86</ele><time>2011-09-15T07:42:43Z</time></trkpt><trkpt lat="43.160804" lon="-0.369975"><ele>380.82</ele><time>2011-09-15T07:42:44Z</time></trkpt><trkpt lat="43.160726" lon="-0.369898"><ele>381.30</ele><time>2011-09-15T07:42:45Z</time></trkpt><trkpt lat="43.160653" lon="-0.369810"><ele>382.74</ele><time>2011-09-15T07:42:46Z</time></trkpt><trkpt lat="43.160282" lon="-0.369155"><ele>386.59</ele><time>2011-09-15T07:42:51Z</time></trkpt><trkpt lat="43.160251" lon="-0.369002"><ele>387.07</ele><time>2011-09-15T07:42:52Z</time></trkpt><trkpt lat="43.160240" lon="-0.368859"><ele>388.51</ele><time>2011-09-15T07:42:53Z</time></trkpt><trkpt lat="43.160267" lon="-0.368667"><ele>388.03</ele><time>2011-09-15T07:42:54Z</time></trkpt><trkpt lat="43.160290" lon="-0.368476"><ele>388.51</ele><time>2011-09-15T07:42:55Z</time></trkpt><trkpt lat="43.160341" lon="-0.368328"><ele>388.99</ele><time>2011-09-15T07:42:56Z</time></trkpt><trkpt lat="43.160494" lon="-0.368258"><ele>393.80</ele><time>2011-09-15T07:42:57Z</time></trkpt><trkpt lat="43.160606" lon="-0.368155"><ele>392.84</ele><time>2011-09-15T07:42:58Z</time></trkpt><trkpt lat="43.160701" lon="-0.368028"><ele>393.32</ele><time>2011-09-15T07:42:59Z</time></trkpt><trkpt lat="43.160789" lon="-0.367881"><ele>393.80</ele><time>2011-09-15T07:43:00Z</time></trkpt><trkpt lat="43.160873" lon="-0.367714"><ele>394.28</ele><time>2011-09-15T07:43:01Z</time></trkpt><trkpt lat="43.160954" lon="-0.367533"><ele>394.76</ele><time>2011-09-15T07:43:02Z</time></trkpt><trkpt lat="43.161027" lon="-0.367336"><ele>395.72</ele><time>2011-09-15T07:43:03Z</time></trkpt><trkpt lat="43.161331" lon="-0.366463"><ele>399.08</ele><time>2011-09-15T07:43:08Z</time></trkpt><trkpt lat="43.161393" lon="-0.366343"><ele>399.57</ele><time>2011-09-15T07:43:09Z</time></trkpt><trkpt lat="43.161458" lon="-0.366242"><ele>399.57</ele><time>2011-09-15T07:43:10Z</time></trkpt><trkpt lat="43.161530" lon="-0.366155"><ele>399.57</ele><time>2011-09-15T07:43:11Z</time></trkpt><trkpt lat="43.161618" lon="-0.366086"><ele>400.05</ele><time>2011-09-15T07:43:12Z</time></trkpt><trkpt lat="43.161721" lon="-0.366043"><ele>400.05</ele><time>2011-09-15T07:43:13Z</time></trkpt><trkpt lat="43.161827" lon="-0.366033"><ele>400.05</ele><time>2011-09-15T07:43:14Z</time></trkpt><trkpt lat="43.161932" lon="-0.366104"><ele>400.05</ele><time>2011-09-15T07:43:15Z</time></trkpt><trkpt lat="43.162024" lon="-0.366217"><ele>400.05</ele><time>2011-09-15T07:43:16Z</time></trkpt><trkpt lat="43.162107" lon="-0.366345"><ele>400.53</ele><time>2011-09-15T07:43:17Z</time></trkpt><trkpt lat="43.162161" lon="-0.366497"><ele>400.53</ele><time>2011-09-15T07:43:18Z</time></trkpt><trkpt lat="43.162190" lon="-0.366667"><ele>401.49</ele><time>2011-09-15T07:43:19Z</time></trkpt><trkpt lat="43.162207" lon="-0.366830"><ele>401.97</ele><time>2011-09-15T07:43:20Z</time></trkpt><trkpt lat="43.162218" lon="-0.366971"><ele>401.97</ele><time>2011-09-15T07:43:21Z</time></trkpt><trkpt lat="43.162293" lon="-0.367345"><ele>402.93</ele><time>2011-09-15T07:43:25Z</time></trkpt><trkpt lat="43.162336" lon="-0.367442"><ele>403.41</ele><time>2011-09-15T07:43:26Z</time></trkpt><trkpt lat="43.162398" lon="-0.367547"><ele>403.89</ele><time>2011-09-15T07:43:27Z</time></trkpt><trkpt lat="43.162483" lon="-0.367651"><ele>404.37</ele><time>2011-09-15T07:43:28Z</time></trkpt><trkpt lat="43.162579" lon="-0.367740"><ele>404.85</ele><time>2011-09-15T07:43:29Z</time></trkpt><trkpt lat="43.162676" lon="-0.367815"><ele>405.33</ele><time>2011-09-15T07:43:30Z</time></trkpt><trkpt lat="43.163586" lon="-0.368538"><ele>409.18</ele><time>2011-09-15T07:43:38Z</time></trkpt><trkpt lat="43.163986" lon="-0.368956"><ele>411.58</ele><time>2011-09-15T07:43:42Z</time></trkpt><trkpt lat="43.164073" lon="-0.369012"><ele>412.06</ele><time>2011-09-15T07:43:43Z</time></trkpt><trkpt lat="43.164150" lon="-0.368998"><ele>412.06</ele><time>2011-09-15T07:43:44Z</time></trkpt><trkpt lat="43.164208" lon="-0.368959"><ele>412.54</ele><time>2011-09-15T07:43:45Z</time></trkpt><trkpt lat="43.164239" lon="-0.368888"><ele>413.02</ele><time>2011-09-15T07:43:46Z</time></trkpt><trkpt lat="43.164261" lon="-0.368794"><ele>413.50</ele><time>2011-09-15T07:43:47Z</time></trkpt><trkpt lat="43.164280" lon="-0.368675"><ele>413.98</ele><time>2011-09-15T07:43:48Z</time></trkpt><trkpt lat="43.164307" lon="-0.368536"><ele>414.47</ele><time>2011-09-15T07:43:49Z</time></trkpt><trkpt lat="43.164349" lon="-0.368389"><ele>414.95</ele><time>2011-09-15T07:43:50Z</time></trkpt><trkpt lat="43.164402" lon="-0.368251"><ele>415.43</ele><time>2011-09-15T07:43:51Z</time></trkpt><trkpt lat="43.164471" lon="-0.368131"><ele>415.43</ele><time>2011-09-15T07:43:52Z</time></trkpt><trkpt lat="43.164559" lon="-0.368011"><ele>415.91</ele><time>2011-09-15T07:43:53Z</time></trkpt><trkpt lat="43.164663" lon="-0.367885"><ele>415.91</ele><time>2011-09-15T07:43:54Z</time></trkpt><trkpt lat="43.164890" lon="-0.367661"><ele>415.91</ele><time>2011-09-15T07:43:56Z</time></trkpt><trkpt lat="43.165010" lon="-0.367580"><ele>415.91</ele><time>2011-09-15T07:43:57Z</time></trkpt><trkpt lat="43.165137" lon="-0.367514"><ele>415.91</ele><time>2011-09-15T07:43:58Z</time></trkpt><trkpt lat="43.165257" lon="-0.367481"><ele>416.39</ele><time>2011-09-15T07:43:59Z</time></trkpt><trkpt lat="43.165400" lon="-0.367466"><ele>415.91</ele><time>2011-09-15T07:44:00Z</time></trkpt><trkpt lat="43.166064" lon="-0.367257"><ele>414.95</ele><time>2011-09-15T07:44:05Z</time></trkpt><trkpt lat="43.166162" lon="-0.367177"><ele>414.95</ele><time>2011-09-15T07:44:06Z</time></trkpt><trkpt lat="43.166248" lon="-0.367073"><ele>414.47</ele><time>2011-09-15T07:44:07Z</time></trkpt><trkpt lat="43.166421" lon="-0.366861"><ele>413.98</ele><time>2011-09-15T07:44:09Z</time></trkpt><trkpt lat="43.166533" lon="-0.366792"><ele>414.47</ele><time>2011-09-15T07:44:10Z</time></trkpt><trkpt lat="43.166653" lon="-0.366764"><ele>414.47</ele><time>2011-09-15T07:44:11Z</time></trkpt><trkpt lat="43.166774" lon="-0.366747"><ele>414.47</ele><time>2011-09-15T07:44:12Z</time></trkpt><trkpt lat="43.166879" lon="-0.366729"><ele>414.95</ele><time>2011-09-15T07:44:13Z</time></trkpt><trkpt lat="43.166969" lon="-0.366691"><ele>415.91</ele><time>2011-09-15T07:44:14Z</time></trkpt><trkpt lat="43.167047" lon="-0.366625"><ele>416.39</ele><time>2011-09-15T07:44:15Z</time></trkpt><trkpt lat="43.167120" lon="-0.366530"><ele>416.87</ele><time>2011-09-15T07:44:16Z</time></trkpt><trkpt lat="43.167194" lon="-0.366406"><ele>416.87</ele><time>2011-09-15T07:44:17Z</time></trkpt><trkpt lat="43.167281" lon="-0.366258"><ele>417.35</ele><time>2011-09-15T07:44:18Z</time></trkpt><trkpt lat="43.168127" lon="-0.364915"><ele>419.27</ele><time>2011-09-15T07:44:27Z</time></trkpt><trkpt lat="43.168433" lon="-0.363651"><ele>415.91</ele><time>2011-09-15T07:44:34Z</time></trkpt><trkpt lat="43.168481" lon="-0.363509"><ele>414.95</ele><time>2011-09-15T07:44:35Z</time></trkpt><trkpt lat="43.168563" lon="-0.363379"><ele>413.50</ele><time>2011-09-15T07:44:36Z</time></trkpt><trkpt lat="43.168671" lon="-0.363283"><ele>413.50</ele><time>2011-09-15T07:44:37Z</time></trkpt><trkpt lat="43.168780" lon="-0.363194"><ele>413.50</ele><time>2011-09-15T07:44:38Z</time></trkpt><trkpt lat="43.168880" lon="-0.363101"><ele>413.98</ele><time>2011-09-15T07:44:39Z</time></trkpt><trkpt lat="43.168963" lon="-0.362986"><ele>414.47</ele><time>2011-09-15T07:44:40Z</time></trkpt><trkpt lat="43.169026" lon="-0.362844"><ele>414.95</ele><time>2011-09-15T07:44:41Z</time></trkpt><trkpt lat="43.169077" lon="-0.362681"><ele>415.43</ele><time>2011-09-15T07:44:42Z</time></trkpt><trkpt lat="43.169127" lon="-0.362513"><ele>416.39</ele><time>2011-09-15T07:44:43Z</time></trkpt><trkpt lat="43.169186" lon="-0.362356"><ele>416.87</ele><time>2011-09-15T07:44:44Z</time></trkpt><trkpt lat="43.169261" lon="-0.362222"><ele>417.35</ele><time>2011-09-15T07:44:45Z</time></trkpt><trkpt lat="43.169353" lon="-0.362108"><ele>417.83</ele><time>2011-09-15T07:44:46Z</time></trkpt><trkpt lat="43.169472" lon="-0.362026"><ele>418.31</ele><time>2011-09-15T07:44:47Z</time></trkpt><trkpt lat="43.169595" lon="-0.361946"><ele>418.79</ele><time>2011-09-15T07:44:48Z</time></trkpt><trkpt lat="43.169719" lon="-0.361882"><ele>419.27</ele><time>2011-09-15T07:44:49Z</time></trkpt><trkpt lat="43.169839" lon="-0.361824"><ele>420.23</ele><time>2011-09-15T07:44:50Z</time></trkpt><trkpt lat="43.170249" lon="-0.361565"><ele>422.16</ele><time>2011-09-15T07:44:54Z</time></trkpt><trkpt lat="43.170327" lon="-0.361443"><ele>423.12</ele><time>2011-09-15T07:44:55Z</time></trkpt><trkpt lat="43.170348" lon="-0.361283"><ele>423.60</ele><time>2011-09-15T07:44:56Z</time></trkpt><trkpt lat="43.170368" lon="-0.361107"><ele>424.08</ele><time>2011-09-15T07:44:57Z</time></trkpt><trkpt lat="43.170392" lon="-0.360911"><ele>424.56</ele><time>2011-09-15T07:44:58Z</time></trkpt><trkpt lat="43.170535" lon="-0.360178"><ele>426.96</ele><time>2011-09-15T07:45:02Z</time></trkpt><trkpt lat="43.170588" lon="-0.360042"><ele>427.44</ele><time>2011-09-15T07:45:03Z</time></trkpt><trkpt lat="43.170652" lon="-0.359919"><ele>427.44</ele><time>2011-09-15T07:45:04Z</time></trkpt><trkpt lat="43.170724" lon="-0.359813"><ele>427.92</ele><time>2011-09-15T07:45:05Z</time></trkpt><trkpt lat="43.170801" lon="-0.359736"><ele>428.40</ele><time>2011-09-15T07:45:06Z</time></trkpt><trkpt lat="43.170880" lon="-0.359694"><ele>428.89</ele><time>2011-09-15T07:45:07Z</time></trkpt><trkpt lat="43.170962" lon="-0.359724"><ele>428.89</ele><time>2011-09-15T07:45:08Z</time></trkpt><trkpt lat="43.171041" lon="-0.359808"><ele>429.37</ele><time>2011-09-15T07:45:09Z</time></trkpt><trkpt lat="43.171135" lon="-0.359908"><ele>429.85</ele><time>2011-09-15T07:45:10Z</time></trkpt><trkpt lat="43.171223" lon="-0.360019"><ele>429.85</ele><time>2011-09-15T07:45:11Z</time></trkpt><trkpt lat="43.171917" lon="-0.360539"><ele>431.77</ele><time>2011-09-15T07:45:17Z</time></trkpt><trkpt lat="43.172046" lon="-0.360529"><ele>431.29</ele><time>2011-09-15T07:45:18Z</time></trkpt><trkpt lat="43.172193" lon="-0.360488"><ele>430.81</ele><time>2011-09-15T07:45:19Z</time></trkpt><trkpt lat="43.172335" lon="-0.360452"><ele>430.81</ele><time>2011-09-15T07:45:20Z</time></trkpt><trkpt lat="43.172470" lon="-0.360389"><ele>430.81</ele><time>2011-09-15T07:45:21Z</time></trkpt><trkpt lat="43.172575" lon="-0.360268"><ele>429.37</ele><time>2011-09-15T07:45:22Z</time></trkpt><trkpt lat="43.172685" lon="-0.360145"><ele>428.40</ele><time>2011-09-15T07:45:23Z</time></trkpt><trkpt lat="43.172792" lon="-0.360017"><ele>427.44</ele><time>2011-09-15T07:45:24Z</time></trkpt><trkpt lat="43.172889" lon="-0.359881"><ele>426.96</ele><time>2011-09-15T07:45:25Z</time></trkpt><trkpt lat="43.174091" lon="-0.358227"><ele>418.79</ele><time>2011-09-15T07:45:37Z</time></trkpt><trkpt lat="43.175448" lon="-0.356430"><ele>413.02</ele><time>2011-09-15T07:45:49Z</time></trkpt><trkpt lat="43.176462" lon="-0.355405"><ele>407.26</ele><time>2011-09-15T07:45:57Z</time></trkpt><trkpt lat="43.176607" lon="-0.355326"><ele>406.77</ele><time>2011-09-15T07:45:58Z</time></trkpt><trkpt lat="43.177899" lon="-0.354920"><ele>403.89</ele><time>2011-09-15T07:46:07Z</time></trkpt><trkpt lat="43.178166" lon="-0.354799"><ele>403.41</ele><time>2011-09-15T07:46:09Z</time></trkpt><trkpt lat="43.178293" lon="-0.354715"><ele>402.45</ele><time>2011-09-15T07:46:10Z</time></trkpt><trkpt lat="43.178411" lon="-0.354616"><ele>401.97</ele><time>2011-09-15T07:46:11Z</time></trkpt><trkpt lat="43.178517" lon="-0.354500"><ele>401.01</ele><time>2011-09-15T07:46:12Z</time></trkpt><trkpt lat="43.178606" lon="-0.354366"><ele>400.53</ele><time>2011-09-15T07:46:13Z</time></trkpt><trkpt lat="43.178681" lon="-0.354215"><ele>399.57</ele><time>2011-09-15T07:46:14Z</time></trkpt><trkpt lat="43.178748" lon="-0.354051"><ele>398.60</ele><time>2011-09-15T07:46:15Z</time></trkpt><trkpt lat="43.179090" lon="-0.353442"><ele>396.20</ele><time>2011-09-15T07:46:19Z</time></trkpt><trkpt lat="43.179192" lon="-0.353341"><ele>396.20</ele><time>2011-09-15T07:46:20Z</time></trkpt><trkpt lat="43.179301" lon="-0.353280"><ele>395.72</ele><time>2011-09-15T07:46:21Z</time></trkpt><trkpt lat="43.179414" lon="-0.353257"><ele>395.24</ele><time>2011-09-15T07:46:22Z</time></trkpt><trkpt lat="43.179532" lon="-0.353268"><ele>394.28</ele><time>2011-09-15T07:46:23Z</time></trkpt><trkpt lat="43.179651" lon="-0.353307"><ele>393.80</ele><time>2011-09-15T07:46:24Z</time></trkpt><trkpt lat="43.179762" lon="-0.353369"><ele>392.84</ele><time>2011-09-15T07:46:25Z</time></trkpt><trkpt lat="43.179866" lon="-0.353446"><ele>391.87</ele><time>2011-09-15T07:46:26Z</time></trkpt><trkpt lat="43.179963" lon="-0.353531"><ele>390.91</ele><time>2011-09-15T07:46:27Z</time></trkpt><trkpt lat="43.180135" lon="-0.353698"><ele>388.03</ele><time>2011-09-15T07:46:29Z</time></trkpt><trkpt lat="43.180217" lon="-0.353720"><ele>387.55</ele><time>2011-09-15T07:46:30Z</time></trkpt><trkpt lat="43.180320" lon="-0.353715"><ele>387.07</ele><time>2011-09-15T07:46:31Z</time></trkpt><trkpt lat="43.180425" lon="-0.353678"><ele>386.59</ele><time>2011-09-15T07:46:32Z</time></trkpt><trkpt lat="43.180526" lon="-0.353608"><ele>386.11</ele><time>2011-09-15T07:46:33Z</time></trkpt><trkpt lat="43.180632" lon="-0.353527"><ele>385.63</ele><time>2011-09-15T07:46:34Z</time></trkpt><trkpt lat="43.180750" lon="-0.353469"><ele>384.66</ele><time>2011-09-15T07:46:35Z</time></trkpt><trkpt lat="43.180859" lon="-0.353419"><ele>383.22</ele><time>2011-09-15T07:46:36Z</time></trkpt><trkpt lat="43.181154" lon="-0.353289"><ele>379.86</ele><time>2011-09-15T07:46:39Z</time></trkpt><trkpt lat="43.181236" lon="-0.353203"><ele>378.90</ele><time>2011-09-15T07:46:40Z</time></trkpt><trkpt lat="43.181307" lon="-0.353089"><ele>377.94</ele><time>2011-09-15T07:46:41Z</time></trkpt><trkpt lat="43.181472" lon="-0.352838"><ele>376.01</ele><time>2011-09-15T07:46:43Z</time></trkpt><trkpt lat="43.181575" lon="-0.352727"><ele>375.05</ele><time>2011-09-15T07:46:44Z</time></trkpt><trkpt lat="43.181685" lon="-0.352633"><ele>374.09</ele><time>2011-09-15T07:46:45Z</time></trkpt><trkpt lat="43.182018" lon="-0.352424"><ele>371.21</ele><time>2011-09-15T07:46:48Z</time></trkpt><trkpt lat="43.182128" lon="-0.352402"><ele>370.24</ele><time>2011-09-15T07:46:49Z</time></trkpt><trkpt lat="43.182229" lon="-0.352447"><ele>369.28</ele><time>2011-09-15T07:46:50Z</time></trkpt><trkpt lat="43.182311" lon="-0.352537"><ele>368.32</ele><time>2011-09-15T07:46:51Z</time></trkpt><trkpt lat="43.182384" lon="-0.352630"><ele>367.36</ele><time>2011-09-15T07:46:52Z</time></trkpt><trkpt lat="43.182439" lon="-0.352741"><ele>366.40</ele><time>2011-09-15T07:46:53Z</time></trkpt><trkpt lat="43.182487" lon="-0.352831"><ele>365.92</ele><time>2011-09-15T07:46:54Z</time></trkpt><trkpt lat="43.182546" lon="-0.352896"><ele>364.96</ele><time>2011-09-15T07:46:55Z</time></trkpt><trkpt lat="43.182624" lon="-0.352897"><ele>364.48</ele><time>2011-09-15T07:46:56Z</time></trkpt><trkpt lat="43.182703" lon="-0.352855"><ele>364.00</ele><time>2011-09-15T07:46:57Z</time></trkpt><trkpt lat="43.182767" lon="-0.352764"><ele>364.00</ele><time>2011-09-15T07:46:58Z</time></trkpt><trkpt lat="43.182850" lon="-0.352651"><ele>364.48</ele><time>2011-09-15T07:46:59Z</time></trkpt><trkpt lat="43.182924" lon="-0.352509"><ele>363.52</ele><time>2011-09-15T07:47:00Z</time></trkpt><trkpt lat="43.183010" lon="-0.352396"><ele>363.04</ele><time>2011-09-15T07:47:01Z</time></trkpt><trkpt lat="43.183604" lon="-0.351573"><ele>355.34</ele><time>2011-09-15T07:47:07Z</time></trkpt><trkpt lat="43.183676" lon="-0.351409"><ele>353.90</ele><time>2011-09-15T07:47:08Z</time></trkpt><trkpt lat="43.183915" lon="-0.350747"><ele>347.17</ele><time>2011-09-15T07:47:13Z</time></trkpt><trkpt lat="43.183957" lon="-0.350673"><ele>346.69</ele><time>2011-09-15T07:47:14Z</time></trkpt><trkpt lat="43.184025" lon="-0.350629"><ele>345.73</ele><time>2011-09-15T07:47:15Z</time></trkpt><trkpt lat="43.184108" lon="-0.350604"><ele>344.77</ele><time>2011-09-15T07:47:16Z</time></trkpt><trkpt lat="43.184203" lon="-0.350591"><ele>343.81</ele><time>2011-09-15T07:47:17Z</time></trkpt><trkpt lat="43.184303" lon="-0.350584"><ele>343.33</ele><time>2011-09-15T07:47:18Z</time></trkpt><trkpt lat="43.185849" lon="-0.350568"><ele>334.20</ele><time>2011-09-15T07:47:33Z</time></trkpt><trkpt lat="43.187263" lon="-0.350723"><ele>329.87</ele><time>2011-09-15T07:47:46Z</time></trkpt><trkpt lat="43.187378" lon="-0.350727"><ele>329.39</ele><time>2011-09-15T07:47:47Z</time></trkpt><trkpt lat="43.187491" lon="-0.350713"><ele>328.43</ele><time>2011-09-15T07:47:48Z</time></trkpt><trkpt lat="43.187600" lon="-0.350678"><ele>327.47</ele><time>2011-09-15T07:47:49Z</time></trkpt><trkpt lat="43.187704" lon="-0.350625"><ele>326.99</ele><time>2011-09-15T07:47:50Z</time></trkpt><trkpt lat="43.187801" lon="-0.350558"><ele>326.50</ele><time>2011-09-15T07:47:51Z</time></trkpt><trkpt lat="43.187883" lon="-0.350470"><ele>326.02</ele><time>2011-09-15T07:47:52Z</time></trkpt><trkpt lat="43.187954" lon="-0.350365"><ele>325.54</ele><time>2011-09-15T07:47:53Z</time></trkpt><trkpt lat="43.188038" lon="-0.350261"><ele>325.54</ele><time>2011-09-15T07:47:54Z</time></trkpt><trkpt lat="43.189005" lon="-0.349146"><ele>320.74</ele><time>2011-09-15T07:48:04Z</time></trkpt><trkpt lat="43.189115" lon="-0.349071"><ele>319.78</ele><time>2011-09-15T07:48:05Z</time></trkpt><trkpt lat="43.189233" lon="-0.349011"><ele>318.81</ele><time>2011-09-15T07:48:06Z</time></trkpt><trkpt lat="43.189469" lon="-0.348884"><ele>316.41</ele><time>2011-09-15T07:48:08Z</time></trkpt><trkpt lat="43.189579" lon="-0.348802"><ele>315.45</ele><time>2011-09-15T07:48:09Z</time></trkpt><trkpt lat="43.189791" lon="-0.348651"><ele>314.01</ele><time>2011-09-15T07:48:11Z</time></trkpt><trkpt lat="43.189902" lon="-0.348611"><ele>313.53</ele><time>2011-09-15T07:48:12Z</time></trkpt><trkpt lat="43.190015" lon="-0.348626"><ele>312.57</ele><time>2011-09-15T07:48:13Z</time></trkpt><trkpt lat="43.190128" lon="-0.348675"><ele>312.57</ele><time>2011-09-15T07:48:14Z</time></trkpt><trkpt lat="43.190240" lon="-0.348747"><ele>312.09</ele><time>2011-09-15T07:48:15Z</time></trkpt><trkpt lat="43.190348" lon="-0.348826"><ele>311.12</ele><time>2011-09-15T07:48:16Z</time></trkpt><trkpt lat="43.190453" lon="-0.348888"><ele>310.64</ele><time>2011-09-15T07:48:17Z</time></trkpt><trkpt lat="43.190561" lon="-0.348926"><ele>309.68</ele><time>2011-09-15T07:48:18Z</time></trkpt><trkpt lat="43.190673" lon="-0.348933"><ele>308.72</ele><time>2011-09-15T07:48:19Z</time></trkpt><trkpt lat="43.190794" lon="-0.348887"><ele>307.76</ele><time>2011-09-15T07:48:20Z</time></trkpt><trkpt lat="43.190893" lon="-0.348794"><ele>306.80</ele><time>2011-09-15T07:48:21Z</time></trkpt><trkpt lat="43.190982" lon="-0.348689"><ele>305.84</ele><time>2011-09-15T07:48:22Z</time></trkpt><trkpt lat="43.191035" lon="-0.348563"><ele>305.36</ele><time>2011-09-15T07:48:23Z</time></trkpt><trkpt lat="43.190998" lon="-0.348379"><ele>304.39</ele><time>2011-09-15T07:48:24Z</time></trkpt><trkpt lat="43.190953" lon="-0.348203"><ele>303.91</ele><time>2011-09-15T07:48:25Z</time></trkpt><trkpt lat="43.190899" lon="-0.348041"><ele>302.95</ele><time>2011-09-15T07:48:26Z</time></trkpt><trkpt lat="43.190834" lon="-0.347891"><ele>302.47</ele><time>2011-09-15T07:48:27Z</time></trkpt><trkpt lat="43.190770" lon="-0.347744"><ele>301.51</ele><time>2011-09-15T07:48:28Z</time></trkpt><trkpt lat="43.190712" lon="-0.347583"><ele>301.03</ele><time>2011-09-15T07:48:29Z</time></trkpt><trkpt lat="43.190663" lon="-0.347399"><ele>300.07</ele><time>2011-09-15T07:48:30Z</time></trkpt><trkpt lat="43.190624" lon="-0.347203"><ele>299.11</ele><time>2011-09-15T07:48:31Z</time></trkpt><trkpt lat="43.190597" lon="-0.347004"><ele>298.15</ele><time>2011-09-15T07:48:32Z</time></trkpt><trkpt lat="43.190582" lon="-0.346806"><ele>297.18</ele><time>2011-09-15T07:48:33Z</time></trkpt><trkpt lat="43.190580" lon="-0.346612"><ele>296.22</ele><time>2011-09-15T07:48:34Z</time></trkpt><trkpt lat="43.190580" lon="-0.346423"><ele>295.26</ele><time>2011-09-15T07:48:35Z</time></trkpt><trkpt lat="43.190561" lon="-0.346049"><ele>292.86</ele><time>2011-09-15T07:48:37Z</time></trkpt><trkpt lat="43.190531" lon="-0.345872"><ele>291.42</ele><time>2011-09-15T07:48:38Z</time></trkpt><trkpt lat="43.190440" lon="-0.345379"><ele>288.05</ele><time>2011-09-15T07:48:41Z</time></trkpt><trkpt lat="43.190440" lon="-0.345225"><ele>287.09</ele><time>2011-09-15T07:48:42Z</time></trkpt><trkpt lat="43.190463" lon="-0.345080"><ele>285.65</ele><time>2011-09-15T07:48:43Z</time></trkpt><trkpt lat="43.190515" lon="-0.344963"><ele>284.21</ele><time>2011-09-15T07:48:44Z</time></trkpt><trkpt lat="43.190606" lon="-0.344892"><ele>283.25</ele><time>2011-09-15T07:48:45Z</time></trkpt><trkpt lat="43.190722" lon="-0.344870"><ele>282.28</ele><time>2011-09-15T07:48:46Z</time></trkpt><trkpt lat="43.190836" lon="-0.344861"><ele>281.32</ele><time>2011-09-15T07:48:47Z</time></trkpt><trkpt lat="43.190954" lon="-0.344861"><ele>280.84</ele><time>2011-09-15T07:48:48Z</time></trkpt><trkpt lat="43.191067" lon="-0.344845"><ele>279.88</ele><time>2011-09-15T07:48:49Z</time></trkpt><trkpt lat="43.191168" lon="-0.344796"><ele>278.92</ele><time>2011-09-15T07:48:50Z</time></trkpt><trkpt lat="43.191246" lon="-0.344699"><ele>278.44</ele><time>2011-09-15T07:48:51Z</time></trkpt><trkpt lat="43.191303" lon="-0.344569"><ele>277.48</ele><time>2011-09-15T07:48:52Z</time></trkpt><trkpt lat="43.191336" lon="-0.344410"><ele>277.00</ele><time>2011-09-15T07:48:53Z</time></trkpt><trkpt lat="43.191358" lon="-0.344255"><ele>276.04</ele><time>2011-09-15T07:48:54Z</time></trkpt><trkpt lat="43.191349" lon="-0.344087"><ele>276.04</ele><time>2011-09-15T07:48:55Z</time></trkpt><trkpt lat="43.191339" lon="-0.343916"><ele>274.59</ele><time>2011-09-15T07:48:56Z</time></trkpt><trkpt lat="43.191340" lon="-0.343746"><ele>273.63</ele><time>2011-09-15T07:48:57Z</time></trkpt><trkpt lat="43.191361" lon="-0.343577"><ele>272.67</ele><time>2011-09-15T07:48:58Z</time></trkpt><trkpt lat="43.191393" lon="-0.343394"><ele>272.67</ele><time>2011-09-15T07:48:59Z</time></trkpt><trkpt lat="43.191484" lon="-0.343249"><ele>271.71</ele><time>2011-09-15T07:49:00Z</time></trkpt><trkpt lat="43.191606" lon="-0.343124"><ele>270.75</ele><time>2011-09-15T07:49:01Z</time></trkpt><trkpt lat="43.191707" lon="-0.342979"><ele>270.27</ele><time>2011-09-15T07:49:02Z</time></trkpt><trkpt lat="43.192283" lon="-0.341707"><ele>263.06</ele><time>2011-09-15T07:49:10Z</time></trkpt><trkpt lat="43.192593" lon="-0.341100"><ele>258.73</ele><time>2011-09-15T07:49:14Z</time></trkpt><trkpt lat="43.192692" lon="-0.340977"><ele>257.77</ele><time>2011-09-15T07:49:15Z</time></trkpt><trkpt lat="43.192806" lon="-0.340872"><ele>256.81</ele><time>2011-09-15T07:49:16Z</time></trkpt><trkpt lat="43.193170" lon="-0.340263"><ele>253.44</ele><time>2011-09-15T07:49:21Z</time></trkpt><trkpt lat="43.193200" lon="-0.340123"><ele>252.96</ele><time>2011-09-15T07:49:22Z</time></trkpt><trkpt lat="43.193215" lon="-0.339967"><ele>252.48</ele><time>2011-09-15T07:49:23Z</time></trkpt><trkpt lat="43.193197" lon="-0.339766"><ele>252.48</ele><time>2011-09-15T07:49:24Z</time></trkpt><trkpt lat="43.193163" lon="-0.339545"><ele>252.48</ele><time>2011-09-15T07:49:25Z</time></trkpt><trkpt lat="43.193144" lon="-0.339318"><ele>252.00</ele><time>2011-09-15T07:49:26Z</time></trkpt><trkpt lat="43.193281" lon="-0.337552"><ele>251.52</ele><time>2011-09-15T07:49:35Z</time></trkpt><trkpt lat="43.193417" lon="-0.335940"><ele>250.56</ele><time>2011-09-15T07:49:43Z</time></trkpt><trkpt lat="43.193303" lon="-0.335350"><ele>249.12</ele><time>2011-09-15T07:49:46Z</time></trkpt><trkpt lat="43.193236" lon="-0.335161"><ele>248.16</ele><time>2011-09-15T07:49:47Z</time></trkpt><trkpt lat="43.193159" lon="-0.334989"><ele>248.16</ele><time>2011-09-15T07:49:48Z</time></trkpt><trkpt lat="43.193014" lon="-0.334677"><ele>248.16</ele><time>2011-09-15T07:49:50Z</time></trkpt><trkpt lat="43.192970" lon="-0.334523"><ele>248.16</ele><time>2011-09-15T07:49:51Z</time></trkpt><trkpt lat="43.192957" lon="-0.334372"><ele>248.16</ele><time>2011-09-15T07:49:52Z</time></trkpt><trkpt lat="43.192970" lon="-0.334217"><ele>248.16</ele><time>2011-09-15T07:49:53Z</time></trkpt><trkpt lat="43.193002" lon="-0.334050"><ele>247.68</ele><time>2011-09-15T07:49:54Z</time></trkpt><trkpt lat="43.193054" lon="-0.333890"><ele>247.20</ele><time>2011-09-15T07:49:55Z</time></trkpt><trkpt lat="43.193116" lon="-0.333742"><ele>247.20</ele><time>2011-09-15T07:49:56Z</time></trkpt><trkpt lat="43.193170" lon="-0.333598"><ele>246.72</ele><time>2011-09-15T07:49:57Z</time></trkpt><trkpt lat="43.193201" lon="-0.333449"><ele>246.72</ele><time>2011-09-15T07:49:58Z</time></trkpt><trkpt lat="43.193189" lon="-0.333281"><ele>246.72</ele><time>2011-09-15T07:49:59Z</time></trkpt><trkpt lat="43.193157" lon="-0.333105"><ele>246.72</ele><time>2011-09-15T07:50:00Z</time></trkpt><trkpt lat="43.193118" lon="-0.332923"><ele>246.72</ele><time>2011-09-15T07:50:01Z</time></trkpt><trkpt lat="43.192582" lon="-0.331500"><ele>248.64</ele><time>2011-09-15T07:50:09Z</time></trkpt><trkpt lat="43.192109" lon="-0.329846"><ele>254.89</ele><time>2011-09-15T07:50:17Z</time></trkpt><trkpt lat="43.191632" lon="-0.328099"><ele>265.46</ele><time>2011-09-15T07:50:26Z</time></trkpt><trkpt lat="43.191164" lon="-0.326668"><ele>277.48</ele><time>2011-09-15T07:50:34Z</time></trkpt><trkpt lat="43.191137" lon="-0.324947"><ele>280.84</ele><time>2011-09-15T07:50:42Z</time></trkpt><trkpt lat="43.190855" lon="-0.323246"><ele>284.21</ele><time>2011-09-15T07:50:50Z</time></trkpt><trkpt lat="43.190359" lon="-0.321046"><ele>291.90</ele><time>2011-09-15T07:51:01Z</time></trkpt><trkpt lat="43.189751" lon="-0.319593"><ele>297.67</ele><time>2011-09-15T07:51:08Z</time></trkpt><trkpt lat="43.189619" lon="-0.319290"><ele>298.63</ele><time>2011-09-15T07:51:10Z</time></trkpt><trkpt lat="43.189540" lon="-0.319161"><ele>298.15</ele><time>2011-09-15T07:51:11Z</time></trkpt><trkpt lat="43.189386" lon="-0.318906"><ele>296.70</ele><time>2011-09-15T07:51:13Z</time></trkpt><trkpt lat="43.189322" lon="-0.318761"><ele>296.70</ele><time>2011-09-15T07:51:14Z</time></trkpt><trkpt lat="43.189265" lon="-0.318602"><ele>296.70</ele><time>2011-09-15T07:51:15Z</time></trkpt><trkpt lat="43.189008" lon="-0.317213"><ele>301.99</ele><time>2011-09-15T07:51:22Z</time></trkpt><trkpt lat="43.188980" lon="-0.316679"><ele>305.84</ele><time>2011-09-15T07:51:25Z</time></trkpt><trkpt lat="43.189007" lon="-0.316514"><ele>306.80</ele><time>2011-09-15T07:51:26Z</time></trkpt><trkpt lat="43.189050" lon="-0.316345"><ele>307.76</ele><time>2011-09-15T07:51:27Z</time></trkpt><trkpt lat="43.189489" lon="-0.314891"><ele>312.57</ele><time>2011-09-15T07:51:36Z</time></trkpt><trkpt lat="43.189476" lon="-0.314746"><ele>312.57</ele><time>2011-09-15T07:51:37Z</time></trkpt><trkpt lat="43.189436" lon="-0.314618"><ele>312.57</ele><time>2011-09-15T07:51:38Z</time></trkpt><trkpt lat="43.189371" lon="-0.314491"><ele>311.60</ele><time>2011-09-15T07:51:39Z</time></trkpt><trkpt lat="43.189291" lon="-0.314355"><ele>311.12</ele><time>2011-09-15T07:51:40Z</time></trkpt><trkpt lat="43.189204" lon="-0.314206"><ele>310.16</ele><time>2011-09-15T07:51:41Z</time></trkpt><trkpt lat="43.188597" lon="-0.312879"><ele>301.03</ele><time>2011-09-15T07:51:49Z</time></trkpt><trkpt lat="43.188541" lon="-0.312703"><ele>299.59</ele><time>2011-09-15T07:51:50Z</time></trkpt><trkpt lat="43.188498" lon="-0.312517"><ele>298.63</ele><time>2011-09-15T07:51:51Z</time></trkpt><trkpt lat="43.188465" lon="-0.312326"><ele>297.67</ele><time>2011-09-15T07:51:52Z</time></trkpt><trkpt lat="43.188439" lon="-0.312137"><ele>296.70</ele><time>2011-09-15T07:51:53Z</time></trkpt><trkpt lat="43.188342" lon="-0.311621"><ele>292.38</ele><time>2011-09-15T07:51:56Z</time></trkpt><trkpt lat="43.188280" lon="-0.311471"><ele>290.94</ele><time>2011-09-15T07:51:57Z</time></trkpt><trkpt lat="43.188203" lon="-0.311330"><ele>289.49</ele><time>2011-09-15T07:51:58Z</time></trkpt><trkpt lat="43.188110" lon="-0.311197"><ele>288.53</ele><time>2011-09-15T07:51:59Z</time></trkpt><trkpt lat="43.188007" lon="-0.311061"><ele>287.57</ele><time>2011-09-15T07:52:00Z</time></trkpt><trkpt lat="43.187152" lon="-0.309876"><ele>285.17</ele><time>2011-09-15T07:52:08Z</time></trkpt><trkpt lat="43.187071" lon="-0.309695"><ele>285.17</ele><time>2011-09-15T07:52:09Z</time></trkpt><trkpt lat="43.187003" lon="-0.309496"><ele>284.69</ele><time>2011-09-15T07:52:10Z</time></trkpt><trkpt lat="43.186944" lon="-0.309284"><ele>284.21</ele><time>2011-09-15T07:52:11Z</time></trkpt><trkpt lat="43.186893" lon="-0.309064"><ele>283.73</ele><time>2011-09-15T07:52:12Z</time></trkpt><trkpt lat="43.186599" lon="-0.307463"><ele>279.40</ele><time>2011-09-15T07:52:20Z</time></trkpt><trkpt lat="43.186614" lon="-0.307288"><ele>279.40</ele><time>2011-09-15T07:52:21Z</time></trkpt><trkpt lat="43.186656" lon="-0.307119"><ele>279.40</ele><time>2011-09-15T07:52:22Z</time></trkpt><trkpt lat="43.186724" lon="-0.306961"><ele>278.92</ele><time>2011-09-15T07:52:23Z</time></trkpt><trkpt lat="43.186812" lon="-0.306819"><ele>278.92</ele><time>2011-09-15T07:52:24Z</time></trkpt><trkpt lat="43.186913" lon="-0.306691"><ele>278.92</ele><time>2011-09-15T07:52:25Z</time></trkpt><trkpt lat="43.187019" lon="-0.306560"><ele>278.92</ele><time>2011-09-15T07:52:26Z</time></trkpt><trkpt lat="43.187125" lon="-0.306417"><ele>278.92</ele><time>2011-09-15T07:52:27Z</time></trkpt><trkpt lat="43.187237" lon="-0.306247"><ele>279.40</ele><time>2011-09-15T07:52:28Z</time></trkpt><trkpt lat="43.187307" lon="-0.306053"><ele>279.88</ele><time>2011-09-15T07:52:29Z</time></trkpt><trkpt lat="43.187489" lon="-0.305446"><ele>281.80</ele><time>2011-09-15T07:52:32Z</time></trkpt><trkpt lat="43.187588" lon="-0.305258"><ele>282.77</ele><time>2011-09-15T07:52:33Z</time></trkpt><trkpt lat="43.187699" lon="-0.305074"><ele>283.25</ele><time>2011-09-15T07:52:34Z</time></trkpt><trkpt lat="43.188781" lon="-0.303375"><ele>284.69</ele><time>2011-09-15T07:52:44Z</time></trkpt><trkpt lat="43.188829" lon="-0.303187"><ele>284.69</ele><time>2011-09-15T07:52:45Z</time></trkpt><trkpt lat="43.188841" lon="-0.302988"><ele>284.21</ele><time>2011-09-15T07:52:46Z</time></trkpt><trkpt lat="43.188832" lon="-0.302783"><ele>284.21</ele><time>2011-09-15T07:52:47Z</time></trkpt><trkpt lat="43.188808" lon="-0.302569"><ele>283.25</ele><time>2011-09-15T07:52:48Z</time></trkpt><trkpt lat="43.188782" lon="-0.302348"><ele>282.28</ele><time>2011-09-15T07:52:49Z</time></trkpt><trkpt lat="43.188732" lon="-0.301497"><ele>279.40</ele><time>2011-09-15T07:52:53Z</time></trkpt><trkpt lat="43.188757" lon="-0.301328"><ele>278.92</ele><time>2011-09-15T07:52:54Z</time></trkpt><trkpt lat="43.188826" lon="-0.301213"><ele>278.44</ele><time>2011-09-15T07:52:55Z</time></trkpt><trkpt lat="43.188915" lon="-0.301123"><ele>277.96</ele><time>2011-09-15T07:52:56Z</time></trkpt><trkpt lat="43.189018" lon="-0.301062"><ele>277.00</ele><time>2011-09-15T07:52:57Z</time></trkpt><trkpt lat="43.189134" lon="-0.301014"><ele>276.04</ele><time>2011-09-15T07:52:58Z</time></trkpt><trkpt lat="43.189262" lon="-0.300964"><ele>275.56</ele><time>2011-09-15T07:52:59Z</time></trkpt><trkpt lat="43.189962" lon="-0.300602"><ele>272.19</ele><time>2011-09-15T07:53:04Z</time></trkpt><trkpt lat="43.190088" lon="-0.300479"><ele>271.71</ele><time>2011-09-15T07:53:05Z</time></trkpt><trkpt lat="43.190183" lon="-0.300324"><ele>271.71</ele><time>2011-09-15T07:53:06Z</time></trkpt><trkpt lat="43.190242" lon="-0.300149"><ele>271.71</ele><time>2011-09-15T07:53:07Z</time></trkpt><trkpt lat="43.190273" lon="-0.299960"><ele>271.71</ele><time>2011-09-15T07:53:08Z</time></trkpt><trkpt lat="43.190296" lon="-0.299770"><ele>271.71</ele><time>2011-09-15T07:53:09Z</time></trkpt><trkpt lat="43.190296" lon="-0.299573"><ele>271.71</ele><time>2011-09-15T07:53:10Z</time></trkpt><trkpt lat="43.190265" lon="-0.299357"><ele>271.23</ele><time>2011-09-15T07:53:11Z</time></trkpt><trkpt lat="43.190221" lon="-0.299131"><ele>271.23</ele><time>2011-09-15T07:53:12Z</time></trkpt><trkpt lat="43.190177" lon="-0.298914"><ele>270.75</ele><time>2011-09-15T07:53:13Z</time></trkpt><trkpt lat="43.190118" lon="-0.298487"><ele>269.79</ele><time>2011-09-15T07:53:15Z</time></trkpt><trkpt lat="43.190117" lon="-0.298272"><ele>269.79</ele><time>2011-09-15T07:53:16Z</time></trkpt><trkpt lat="43.190145" lon="-0.298051"><ele>270.27</ele><time>2011-09-15T07:53:17Z</time></trkpt><trkpt lat="43.190187" lon="-0.297827"><ele>270.27</ele><time>2011-09-15T07:53:18Z</time></trkpt><trkpt lat="43.190246" lon="-0.297616"><ele>270.27</ele><time>2011-09-15T07:53:19Z</time></trkpt><trkpt lat="43.190319" lon="-0.297425"><ele>270.75</ele><time>2011-09-15T07:53:20Z</time></trkpt><trkpt lat="43.190396" lon="-0.297250"><ele>270.75</ele><time>2011-09-15T07:53:21Z</time></trkpt><trkpt lat="43.190473" lon="-0.297091"><ele>270.75</ele><time>2011-09-15T07:53:22Z</time></trkpt><trkpt lat="43.190580" lon="-0.296979"><ele>270.75</ele><time>2011-09-15T07:53:23Z</time></trkpt><trkpt lat="43.190719" lon="-0.296921"><ele>270.75</ele><time>2011-09-15T07:53:24Z</time></trkpt><trkpt lat="43.190845" lon="-0.296866"><ele>270.27</ele><time>2011-09-15T07:53:25Z</time></trkpt><trkpt lat="43.190973" lon="-0.296822"><ele>269.79</ele><time>2011-09-15T07:53:26Z</time></trkpt><trkpt lat="43.191300" lon="-0.296640"><ele>267.86</ele><time>2011-09-15T07:53:29Z</time></trkpt><trkpt lat="43.191369" lon="-0.296522"><ele>267.86</ele><time>2011-09-15T07:53:30Z</time></trkpt><trkpt lat="43.191383" lon="-0.296342"><ele>266.90</ele><time>2011-09-15T07:53:31Z</time></trkpt><trkpt lat="43.191381" lon="-0.296139"><ele>265.46</ele><time>2011-09-15T07:53:32Z</time></trkpt><trkpt lat="43.191390" lon="-0.295946"><ele>264.50</ele><time>2011-09-15T07:53:33Z</time></trkpt><trkpt lat="43.191453" lon="-0.295583"><ele>262.58</ele><time>2011-09-15T07:53:35Z</time></trkpt><trkpt lat="43.191511" lon="-0.295420"><ele>261.62</ele><time>2011-09-15T07:53:36Z</time></trkpt><trkpt lat="43.191592" lon="-0.295269"><ele>260.65</ele><time>2011-09-15T07:53:37Z</time></trkpt><trkpt lat="43.191696" lon="-0.295131"><ele>259.69</ele><time>2011-09-15T07:53:38Z</time></trkpt><trkpt lat="43.191802" lon="-0.294990"><ele>259.21</ele><time>2011-09-15T07:53:39Z</time></trkpt><trkpt lat="43.192051" lon="-0.294509"><ele>257.29</ele><time>2011-09-15T07:53:42Z</time></trkpt><trkpt lat="43.192056" lon="-0.294291"><ele>257.29</ele><time>2011-09-15T07:53:43Z</time></trkpt><trkpt lat="43.192041" lon="-0.294070"><ele>256.81</ele><time>2011-09-15T07:53:44Z</time></trkpt><trkpt lat="43.192013" lon="-0.293855"><ele>256.33</ele><time>2011-09-15T07:53:45Z</time></trkpt><trkpt lat="43.191991" lon="-0.293653"><ele>257.29</ele><time>2011-09-15T07:53:46Z</time></trkpt><trkpt lat="43.191983" lon="-0.293455"><ele>257.77</ele><time>2011-09-15T07:53:47Z</time></trkpt><trkpt lat="43.192008" lon="-0.293269"><ele>258.25</ele><time>2011-09-15T07:53:48Z</time></trkpt><trkpt lat="43.192062" lon="-0.293089"><ele>259.21</ele><time>2011-09-15T07:53:49Z</time></trkpt><trkpt lat="43.192137" lon="-0.292916"><ele>259.69</ele><time>2011-09-15T07:53:50Z</time></trkpt><trkpt lat="43.192236" lon="-0.292753"><ele>259.69</ele><time>2011-09-15T07:53:51Z</time></trkpt><trkpt lat="43.192348" lon="-0.292602"><ele>259.69</ele><time>2011-09-15T07:53:52Z</time></trkpt><trkpt lat="43.192467" lon="-0.292460"><ele>259.21</ele><time>2011-09-15T07:53:53Z</time></trkpt><trkpt lat="43.193210" lon="-0.291733"><ele>254.89</ele><time>2011-09-15T07:53:59Z</time></trkpt><trkpt lat="43.193351" lon="-0.291663"><ele>253.93</ele><time>2011-09-15T07:54:00Z</time></trkpt><trkpt lat="43.193495" lon="-0.291613"><ele>253.44</ele><time>2011-09-15T07:54:01Z</time></trkpt><trkpt lat="43.194782" lon="-0.290962"><ele>245.75</ele><time>2011-09-15T07:54:11Z</time></trkpt><trkpt lat="43.195316" lon="-0.290613"><ele>243.83</ele><time>2011-09-15T07:54:15Z</time></trkpt><trkpt lat="43.195433" lon="-0.290492"><ele>243.83</ele><time>2011-09-15T07:54:16Z</time></trkpt><trkpt lat="43.195539" lon="-0.290345"><ele>243.83</ele><time>2011-09-15T07:54:17Z</time></trkpt><trkpt lat="43.195636" lon="-0.290179"><ele>243.83</ele><time>2011-09-15T07:54:18Z</time></trkpt><trkpt lat="43.195733" lon="-0.289998"><ele>243.83</ele><time>2011-09-15T07:54:19Z</time></trkpt><trkpt lat="43.195823" lon="-0.289794"><ele>243.83</ele><time>2011-09-15T07:54:20Z</time></trkpt><trkpt lat="43.195906" lon="-0.289581"><ele>243.83</ele><time>2011-09-15T07:54:21Z</time></trkpt><trkpt lat="43.196559" lon="-0.287687"><ele>243.83</ele><time>2011-09-15T07:54:31Z</time></trkpt><trkpt lat="43.197121" lon="-0.285907"><ele>244.79</ele><time>2011-09-15T07:54:40Z</time></trkpt><trkpt lat="43.197818" lon="-0.283785"><ele>245.27</ele><time>2011-09-15T07:54:49Z</time></trkpt><trkpt lat="43.198287" lon="-0.282240"><ele>244.79</ele><time>2011-09-15T07:54:58Z</time></trkpt><trkpt lat="43.198365" lon="-0.281818"><ele>244.79</ele><time>2011-09-15T07:55:01Z</time></trkpt><trkpt lat="43.198380" lon="-0.281377"><ele>244.79</ele><time>2011-09-15T07:55:04Z</time></trkpt><trkpt lat="43.198345" lon="-0.281211"><ele>245.27</ele><time>2011-09-15T07:55:05Z</time></trkpt><trkpt lat="43.198281" lon="-0.281041"><ele>245.27</ele><time>2011-09-15T07:55:06Z</time></trkpt><trkpt lat="43.198200" lon="-0.280873"><ele>245.27</ele><time>2011-09-15T07:55:07Z</time></trkpt><trkpt lat="43.198115" lon="-0.280710"><ele>245.27</ele><time>2011-09-15T07:55:08Z</time></trkpt><trkpt lat="43.197363" lon="-0.279224"><ele>247.20</ele><time>2011-09-15T07:55:16Z</time></trkpt><trkpt lat="43.196527" lon="-0.277284"><ele>249.12</ele><time>2011-09-15T07:55:27Z</time></trkpt><trkpt lat="43.195823" lon="-0.275113"><ele>245.75</ele><time>2011-09-15T07:55:40Z</time></trkpt><trkpt lat="43.195680" lon="-0.274262"><ele>242.87</ele><time>2011-09-15T07:55:46Z</time></trkpt><trkpt lat="43.195652" lon="-0.274173"><ele>242.39</ele><time>2011-09-15T07:55:47Z</time></trkpt><trkpt lat="43.195280" lon="-0.273474"><ele>241.43</ele><time>2011-09-15T07:55:56Z</time></trkpt><trkpt lat="43.194471" lon="-0.272451"><ele>243.35</ele><time>2011-09-15T07:56:07Z</time></trkpt><trkpt lat="43.193672" lon="-0.271151"><ele>244.31</ele><time>2011-09-15T07:56:17Z</time></trkpt><trkpt lat="43.192179" lon="-0.268739"><ele>244.79</ele><time>2011-09-15T07:56:33Z</time></trkpt><trkpt lat="43.191248" lon="-0.267203"><ele>245.75</ele><time>2011-09-15T07:56:42Z</time></trkpt><trkpt lat="43.190066" lon="-0.265375"><ele>246.72</ele><time>2011-09-15T07:56:54Z</time></trkpt><trkpt lat="43.189090" lon="-0.264066"><ele>247.68</ele><time>2011-09-15T07:57:03Z</time></trkpt><trkpt lat="43.187023" lon="-0.261857"><ele>249.12</ele><time>2011-09-15T07:57:19Z</time></trkpt><trkpt lat="43.186390" lon="-0.261266"><ele>250.08</ele><time>2011-09-15T07:57:24Z</time></trkpt><trkpt lat="43.186256" lon="-0.261195"><ele>250.08</ele><time>2011-09-15T07:57:25Z</time></trkpt><trkpt lat="43.186124" lon="-0.261145"><ele>251.04</ele><time>2011-09-15T07:57:26Z</time></trkpt><trkpt lat="43.184713" lon="-0.260975"><ele>254.41</ele><time>2011-09-15T07:57:36Z</time></trkpt><trkpt lat="43.183299" lon="-0.261203"><ele>254.41</ele><time>2011-09-15T07:57:46Z</time></trkpt><trkpt lat="43.182023" lon="-0.261342"><ele>256.33</ele><time>2011-09-15T07:57:58Z</time></trkpt><trkpt lat="43.181045" lon="-0.261423"><ele>262.10</ele><time>2011-09-15T07:58:09Z</time></trkpt><trkpt lat="43.180027" lon="-0.261565"><ele>264.02</ele><time>2011-09-15T07:58:21Z</time></trkpt><trkpt lat="43.179800" lon="-0.261658"><ele>265.94</ele><time>2011-09-15T07:58:27Z</time></trkpt><trkpt lat="43.179747" lon="-0.261624"><ele>264.50</ele><time>2011-09-15T07:58:29Z</time></trkpt><trkpt lat="43.179733" lon="-0.261586"><ele>263.54</ele><time>2011-09-15T07:58:30Z</time></trkpt><trkpt lat="43.179728" lon="-0.261547"><ele>264.02</ele><time>2011-09-15T07:58:31Z</time></trkpt><trkpt lat="43.179725" lon="-0.261501"><ele>264.02</ele><time>2011-09-15T07:58:32Z</time></trkpt><trkpt lat="43.179723" lon="-0.261449"><ele>264.02</ele><time>2011-09-15T07:58:33Z</time></trkpt><trkpt lat="43.179720" lon="-0.261394"><ele>263.06</ele><time>2011-09-15T07:58:34Z</time></trkpt><trkpt lat="43.179715" lon="-0.261010"><ele>260.17</ele><time>2011-09-15T07:58:46Z</time></trkpt><trkpt lat="43.179673" lon="-0.260295"><ele>259.69</ele><time>2011-09-15T07:58:56Z</time></trkpt><trkpt lat="43.179609" lon="-0.259285"><ele>259.69</ele><time>2011-09-15T07:59:06Z</time></trkpt><trkpt lat="43.179566" lon="-0.259013"><ele>258.73</ele><time>2011-09-15T07:59:09Z</time></trkpt><trkpt lat="43.179543" lon="-0.258941"><ele>259.21</ele><time>2011-09-15T07:59:10Z</time></trkpt><trkpt lat="43.179504" lon="-0.258812"><ele>259.69</ele><time>2011-09-15T07:59:12Z</time></trkpt><trkpt lat="43.179510" lon="-0.258740"><ele>259.69</ele><time>2011-09-15T07:59:13Z</time></trkpt><trkpt lat="43.179534" lon="-0.258664"><ele>259.21</ele><time>2011-09-15T07:59:14Z</time></trkpt><trkpt lat="43.179574" lon="-0.258585"><ele>258.73</ele><time>2011-09-15T07:59:15Z</time></trkpt><trkpt lat="43.179624" lon="-0.258510"><ele>258.25</ele><time>2011-09-15T07:59:16Z</time></trkpt><trkpt lat="43.179677" lon="-0.258442"><ele>257.77</ele><time>2011-09-15T07:59:17Z</time></trkpt><trkpt lat="43.180325" lon="-0.257721"><ele>254.89</ele><time>2011-09-15T07:59:27Z</time></trkpt><trkpt lat="43.180751" lon="-0.257196"><ele>253.93</ele><time>2011-09-15T07:59:33Z</time></trkpt><trkpt lat="43.180967" lon="-0.256810"><ele>253.93</ele><time>2011-09-15T07:59:37Z</time></trkpt><trkpt lat="43.181028" lon="-0.256592"><ele>253.93</ele><time>2011-09-15T07:59:39Z</time></trkpt><trkpt lat="43.181028" lon="-0.256448"><ele>253.93</ele><time>2011-09-15T07:59:40Z</time></trkpt><trkpt lat="43.181031" lon="-0.256300"><ele>253.44</ele><time>2011-09-15T07:59:41Z</time></trkpt><trkpt lat="43.181083" lon="-0.254268"><ele>254.89</ele><time>2011-09-15T07:59:55Z</time></trkpt><trkpt lat="43.181293" lon="-0.252509"><ele>263.06</ele><time>2011-09-15T08:00:08Z</time></trkpt><trkpt lat="43.181754" lon="-0.250778"><ele>263.54</ele><time>2011-09-15T08:00:20Z</time></trkpt><trkpt lat="43.182160" lon="-0.249269"><ele>262.10</ele><time>2011-09-15T08:00:30Z</time></trkpt><trkpt lat="43.182570" lon="-0.247521"><ele>262.10</ele><time>2011-09-15T08:00:42Z</time></trkpt><trkpt lat="43.182943" lon="-0.245971"><ele>263.54</ele><time>2011-09-15T08:00:54Z</time></trkpt><trkpt lat="43.183022" lon="-0.245643"><ele>264.02</ele><time>2011-09-15T08:00:58Z</time></trkpt><trkpt lat="43.183024" lon="-0.245547"><ele>264.02</ele><time>2011-09-15T08:00:59Z</time></trkpt><trkpt lat="43.183010" lon="-0.245443"><ele>264.02</ele><time>2011-09-15T08:01:00Z</time></trkpt><trkpt lat="43.182974" lon="-0.245332"><ele>264.02</ele><time>2011-09-15T08:01:01Z</time></trkpt><trkpt lat="43.182915" lon="-0.245218"><ele>264.02</ele><time>2011-09-15T08:01:02Z</time></trkpt><trkpt lat="43.182841" lon="-0.245104"><ele>264.50</ele><time>2011-09-15T08:01:03Z</time></trkpt><trkpt lat="43.182758" lon="-0.244994"><ele>264.02</ele><time>2011-09-15T08:01:04Z</time></trkpt><trkpt lat="43.182672" lon="-0.244890"><ele>264.02</ele><time>2011-09-15T08:01:05Z</time></trkpt><trkpt lat="43.181682" lon="-0.243724"><ele>264.02</ele><time>2011-09-15T08:01:15Z</time></trkpt><trkpt lat="43.180232" lon="-0.242047"><ele>265.94</ele><time>2011-09-15T08:01:31Z</time></trkpt><trkpt lat="43.178584" lon="-0.240343"><ele>267.86</ele><time>2011-09-15T08:01:46Z</time></trkpt><trkpt lat="43.177103" lon="-0.239637"><ele>269.31</ele><time>2011-09-15T08:01:56Z</time></trkpt><trkpt lat="43.176234" lon="-0.239454"><ele>274.11</ele><time>2011-09-15T08:02:02Z</time></trkpt><trkpt lat="43.176133" lon="-0.239394"><ele>274.59</ele><time>2011-09-15T08:02:03Z</time></trkpt><trkpt lat="43.176057" lon="-0.239325"><ele>275.07</ele><time>2011-09-15T08:02:04Z</time></trkpt><trkpt lat="43.176015" lon="-0.239251"><ele>275.07</ele><time>2011-09-15T08:02:05Z</time></trkpt><trkpt lat="43.175991" lon="-0.239189"><ele>275.56</ele><time>2011-09-15T08:02:06Z</time></trkpt><trkpt lat="43.175972" lon="-0.239145"><ele>275.56</ele><time>2011-09-15T08:02:07Z</time></trkpt><trkpt lat="43.175946" lon="-0.239113"><ele>275.56</ele><time>2011-09-15T08:02:08Z</time></trkpt><trkpt lat="43.175908" lon="-0.239088"><ele>275.56</ele><time>2011-09-15T08:02:09Z</time></trkpt><trkpt lat="43.175855" lon="-0.239063"><ele>275.56</ele><time>2011-09-15T08:02:10Z</time></trkpt><trkpt lat="43.175786" lon="-0.239034"><ele>275.56</ele><time>2011-09-15T08:02:11Z</time></trkpt><trkpt lat="43.175703" lon="-0.238989"><ele>275.07</ele><time>2011-09-15T08:02:12Z</time></trkpt><trkpt lat="43.175612" lon="-0.238917"><ele>275.07</ele><time>2011-09-15T08:02:13Z</time></trkpt><trkpt lat="43.175520" lon="-0.238821"><ele>274.59</ele><time>2011-09-15T08:02:14Z</time></trkpt><trkpt lat="43.174647" lon="-0.237904"><ele>269.79</ele><time>2011-09-15T08:02:22Z</time></trkpt><trkpt lat="43.173110" lon="-0.236814"><ele>264.50</ele><time>2011-09-15T08:02:32Z</time></trkpt><trkpt lat="43.171412" lon="-0.236015"><ele>264.98</ele><time>2011-09-15T08:02:41Z</time></trkpt><trkpt lat="43.168965" lon="-0.235315"><ele>270.27</ele><time>2011-09-15T08:02:53Z</time></trkpt><trkpt lat="43.167575" lon="-0.234508"><ele>270.75</ele><time>2011-09-15T08:03:02Z</time></trkpt><trkpt lat="43.166972" lon="-0.233979"><ele>270.27</ele><time>2011-09-15T08:03:09Z</time></trkpt><trkpt lat="43.166677" lon="-0.233697"><ele>269.79</ele><time>2011-09-15T08:03:19Z</time></trkpt><trkpt lat="43.166669" lon="-0.233676"><ele>270.75</ele><time>2011-09-15T08:03:31Z</time></trkpt><trkpt lat="43.166486" lon="-0.233496"><ele>270.75</ele><time>2011-09-15T08:04:04Z</time></trkpt><trkpt lat="43.165939" lon="-0.232990"><ele>269.31</ele><time>2011-09-15T08:04:13Z</time></trkpt><trkpt lat="43.165008" lon="-0.232323"><ele>270.27</ele><time>2011-09-15T08:04:23Z</time></trkpt><trkpt lat="43.163893" lon="-0.231588"><ele>271.23</ele><time>2011-09-15T08:04:32Z</time></trkpt><trkpt lat="43.162660" lon="-0.231126"><ele>272.67</ele><time>2011-09-15T08:04:40Z</time></trkpt><trkpt lat="43.161504" lon="-0.230691"><ele>273.63</ele><time>2011-09-15T08:04:47Z</time></trkpt><trkpt lat="43.161356" lon="-0.230578"><ele>273.63</ele><time>2011-09-15T08:04:48Z</time></trkpt><trkpt lat="43.161211" lon="-0.230447"><ele>273.63</ele><time>2011-09-15T08:04:49Z</time></trkpt><trkpt lat="43.161068" lon="-0.230298"><ele>273.63</ele><time>2011-09-15T08:04:50Z</time></trkpt><trkpt lat="43.160927" lon="-0.230135"><ele>273.63</ele><time>2011-09-15T08:04:51Z</time></trkpt><trkpt lat="43.159427" lon="-0.228579"><ele>275.07</ele><time>2011-09-15T08:05:01Z</time></trkpt><trkpt lat="43.157294" lon="-0.227123"><ele>276.52</ele><time>2011-09-15T08:05:13Z</time></trkpt><trkpt lat="43.155198" lon="-0.225732"><ele>283.73</ele><time>2011-09-15T08:05:25Z</time></trkpt><trkpt lat="43.155024" lon="-0.225667"><ele>284.21</ele><time>2011-09-15T08:05:26Z</time></trkpt><trkpt lat="43.154848" lon="-0.225627"><ele>284.69</ele><time>2011-09-15T08:05:27Z</time></trkpt><trkpt lat="43.154671" lon="-0.225613"><ele>285.17</ele><time>2011-09-15T08:05:28Z</time></trkpt><trkpt lat="43.154494" lon="-0.225628"><ele>286.13</ele><time>2011-09-15T08:05:29Z</time></trkpt><trkpt lat="43.154320" lon="-0.225666"><ele>287.09</ele><time>2011-09-15T08:05:30Z</time></trkpt><trkpt lat="43.154151" lon="-0.225714"><ele>287.57</ele><time>2011-09-15T08:05:31Z</time></trkpt><trkpt lat="43.153347" lon="-0.225943"><ele>290.46</ele><time>2011-09-15T08:05:36Z</time></trkpt><trkpt lat="43.153183" lon="-0.225945"><ele>290.94</ele><time>2011-09-15T08:05:37Z</time></trkpt><trkpt lat="43.153028" lon="-0.225923"><ele>291.42</ele><time>2011-09-15T08:05:38Z</time></trkpt><trkpt lat="43.152884" lon="-0.225880"><ele>291.90</ele><time>2011-09-15T08:05:39Z</time></trkpt><trkpt lat="43.152753" lon="-0.225819"><ele>292.38</ele><time>2011-09-15T08:05:40Z</time></trkpt><trkpt lat="43.152633" lon="-0.225744"><ele>292.38</ele><time>2011-09-15T08:05:41Z</time></trkpt><trkpt lat="43.152524" lon="-0.225661"><ele>292.38</ele><time>2011-09-15T08:05:42Z</time></trkpt><trkpt lat="43.152424" lon="-0.225574"><ele>292.38</ele><time>2011-09-15T08:05:43Z</time></trkpt><trkpt lat="43.151514" lon="-0.224682"><ele>292.38</ele><time>2011-09-15T08:05:53Z</time></trkpt><trkpt lat="43.150091" lon="-0.223277"><ele>292.86</ele><time>2011-09-15T08:06:05Z</time></trkpt><trkpt lat="43.148473" lon="-0.221970"><ele>292.86</ele><time>2011-09-15T08:06:16Z</time></trkpt><trkpt lat="43.146182" lon="-0.220574"><ele>288.53</ele><time>2011-09-15T08:06:29Z</time></trkpt><trkpt lat="43.143639" lon="-0.219020"><ele>290.46</ele><time>2011-09-15T08:06:42Z</time></trkpt><trkpt lat="43.140755" lon="-0.217268"><ele>292.38</ele><time>2011-09-15T08:06:57Z</time></trkpt><trkpt lat="43.137853" lon="-0.215458"><ele>294.30</ele><time>2011-09-15T08:07:13Z</time></trkpt><trkpt lat="43.136049" lon="-0.214356"><ele>294.78</ele><time>2011-09-15T08:07:24Z</time></trkpt><trkpt lat="43.135411" lon="-0.214048"><ele>295.74</ele><time>2011-09-15T08:07:31Z</time></trkpt><trkpt lat="43.135343" lon="-0.213996"><ele>295.74</ele><time>2011-09-15T08:07:32Z</time></trkpt><trkpt lat="43.134547" lon="-0.213311"><ele>296.70</ele><time>2011-09-15T08:07:41Z</time></trkpt><trkpt lat="43.133488" lon="-0.212407"><ele>297.18</ele><time>2011-09-15T08:07:51Z</time></trkpt><trkpt lat="43.132278" lon="-0.211402"><ele>297.67</ele><time>2011-09-15T08:08:04Z</time></trkpt><trkpt lat="43.131834" lon="-0.211060"><ele>300.07</ele><time>2011-09-15T08:08:10Z</time></trkpt><trkpt lat="43.131778" lon="-0.210992"><ele>300.55</ele><time>2011-09-15T08:08:11Z</time></trkpt><trkpt lat="43.131491" lon="-0.210424"><ele>301.51</ele><time>2011-09-15T08:08:18Z</time></trkpt><trkpt lat="43.131250" lon="-0.209868"><ele>301.51</ele><time>2011-09-15T08:08:25Z</time></trkpt><trkpt lat="43.131192" lon="-0.209793"><ele>301.99</ele><time>2011-09-15T08:08:26Z</time></trkpt><trkpt lat="43.131127" lon="-0.209723"><ele>301.51</ele><time>2011-09-15T08:08:27Z</time></trkpt><trkpt lat="43.131059" lon="-0.209665"><ele>301.99</ele><time>2011-09-15T08:08:28Z</time></trkpt><trkpt lat="43.130994" lon="-0.209613"><ele>302.47</ele><time>2011-09-15T08:08:29Z</time></trkpt><trkpt lat="43.130112" lon="-0.208917"><ele>305.36</ele><time>2011-09-15T08:08:42Z</time></trkpt><trkpt lat="43.129707" lon="-0.208638"><ele>305.36</ele><time>2011-09-15T08:08:49Z</time></trkpt><trkpt lat="43.129025" lon="-0.208040"><ele>310.16</ele><time>2011-09-15T08:09:00Z</time></trkpt><trkpt lat="43.128186" lon="-0.207633"><ele>310.64</ele><time>2011-09-15T08:09:10Z</time></trkpt><trkpt lat="43.127384" lon="-0.207561"><ele>312.09</ele><time>2011-09-15T08:09:19Z</time></trkpt><trkpt lat="43.126531" lon="-0.207545"><ele>310.16</ele><time>2011-09-15T08:09:30Z</time></trkpt><trkpt lat="43.125316" lon="-0.207532"><ele>305.84</ele><time>2011-09-15T08:09:43Z</time></trkpt><trkpt lat="43.124193" lon="-0.207358"><ele>304.39</ele><time>2011-09-15T08:09:54Z</time></trkpt><trkpt lat="43.124100" lon="-0.207307"><ele>304.39</ele><time>2011-09-15T08:09:55Z</time></trkpt><trkpt lat="43.124017" lon="-0.207241"><ele>304.88</ele><time>2011-09-15T08:09:56Z</time></trkpt><trkpt lat="43.123941" lon="-0.207164"><ele>305.36</ele><time>2011-09-15T08:09:57Z</time></trkpt><trkpt lat="43.123871" lon="-0.207085"><ele>305.84</ele><time>2011-09-15T08:09:58Z</time></trkpt><trkpt lat="43.123284" lon="-0.206299"><ele>312.09</ele><time>2011-09-15T08:10:08Z</time></trkpt><trkpt lat="43.122831" lon="-0.205047"><ele>315.93</ele><time>2011-09-15T08:10:17Z</time></trkpt><trkpt lat="43.122257" lon="-0.203110"><ele>317.37</ele><time>2011-09-15T08:10:27Z</time></trkpt><trkpt lat="43.121598" lon="-0.200930"><ele>318.81</ele><time>2011-09-15T08:10:38Z</time></trkpt><trkpt lat="43.120777" lon="-0.198261"><ele>319.30</ele><time>2011-09-15T08:10:51Z</time></trkpt><trkpt lat="43.119966" lon="-0.195908"><ele>318.81</ele><time>2011-09-15T08:11:03Z</time></trkpt><trkpt lat="43.118985" lon="-0.194822"><ele>315.45</ele><time>2011-09-15T08:11:11Z</time></trkpt><trkpt lat="43.117292" lon="-0.194075"><ele>314.97</ele><time>2011-09-15T08:11:22Z</time></trkpt><trkpt lat="43.115959" lon="-0.193544"><ele>315.45</ele><time>2011-09-15T08:11:31Z</time></trkpt><trkpt lat="43.114859" lon="-0.192995"><ele>316.89</ele><time>2011-09-15T08:11:41Z</time></trkpt><trkpt lat="43.114026" lon="-0.192225"><ele>317.37</ele><time>2011-09-15T08:11:47Z</time></trkpt><trkpt lat="43.112712" lon="-0.191140"><ele>318.33</ele><time>2011-09-15T08:11:55Z</time></trkpt><trkpt lat="43.111127" lon="-0.190326"><ele>318.81</ele><time>2011-09-15T08:12:03Z</time></trkpt><trkpt lat="43.109636" lon="-0.189368"><ele>319.78</ele><time>2011-09-15T08:12:11Z</time></trkpt><trkpt lat="43.107363" lon="-0.186869"><ele>325.06</ele><time>2011-09-15T08:12:25Z</time></trkpt><trkpt lat="43.106953" lon="-0.186236"><ele>326.99</ele><time>2011-09-15T08:12:29Z</time></trkpt><trkpt lat="43.106933" lon="-0.186099"><ele>327.95</ele><time>2011-09-15T08:12:30Z</time></trkpt><trkpt lat="43.106937" lon="-0.185959"><ele>327.47</ele><time>2011-09-15T08:12:31Z</time></trkpt><trkpt lat="43.106944" lon="-0.185814"><ele>327.47</ele><time>2011-09-15T08:12:32Z</time></trkpt><trkpt lat="43.106944" lon="-0.185663"><ele>327.47</ele><time>2011-09-15T08:12:33Z</time></trkpt><trkpt lat="43.106749" lon="-0.184323"><ele>331.79</ele><time>2011-09-15T08:12:40Z</time></trkpt><trkpt lat="43.106327" lon="-0.182144"><ele>339.96</ele><time>2011-09-15T08:12:49Z</time></trkpt><trkpt lat="43.105662" lon="-0.179492"><ele>345.25</ele><time>2011-09-15T08:13:00Z</time></trkpt><trkpt lat="43.104946" lon="-0.177429"><ele>347.17</ele><time>2011-09-15T08:13:10Z</time></trkpt><trkpt lat="43.104430" lon="-0.176403"><ele>345.73</ele><time>2011-09-15T08:13:17Z</time></trkpt><trkpt lat="43.104371" lon="-0.176229"><ele>345.25</ele><time>2011-09-15T08:13:18Z</time></trkpt><trkpt lat="43.104325" lon="-0.176049"><ele>345.25</ele><time>2011-09-15T08:13:19Z</time></trkpt><trkpt lat="43.104290" lon="-0.175863"><ele>344.77</ele><time>2011-09-15T08:13:20Z</time></trkpt><trkpt lat="43.104257" lon="-0.175676"><ele>344.29</ele><time>2011-09-15T08:13:21Z</time></trkpt><trkpt lat="43.104214" lon="-0.175495"><ele>344.29</ele><time>2011-09-15T08:13:22Z</time></trkpt><trkpt lat="43.104156" lon="-0.175321"><ele>344.29</ele><time>2011-09-15T08:13:23Z</time></trkpt><trkpt lat="43.104009" lon="-0.175001"><ele>344.77</ele><time>2011-09-15T08:13:25Z</time></trkpt><trkpt lat="43.103319" lon="-0.173238"><ele>345.73</ele><time>2011-09-15T08:13:35Z</time></trkpt><trkpt lat="43.102688" lon="-0.171377"><ele>344.77</ele><time>2011-09-15T08:13:45Z</time></trkpt><trkpt lat="43.102188" lon="-0.169296"><ele>344.77</ele><time>2011-09-15T08:13:56Z</time></trkpt><trkpt lat="43.102171" lon="-0.169123"><ele>344.77</ele><time>2011-09-15T08:13:57Z</time></trkpt><trkpt lat="43.102166" lon="-0.168947"><ele>344.77</ele><time>2011-09-15T08:13:58Z</time></trkpt><trkpt lat="43.102171" lon="-0.168771"><ele>344.77</ele><time>2011-09-15T08:13:59Z</time></trkpt><trkpt lat="43.102185" lon="-0.168595"><ele>344.77</ele><time>2011-09-15T08:14:00Z</time></trkpt><trkpt lat="43.102607" lon="-0.165939"><ele>345.25</ele><time>2011-09-15T08:14:15Z</time></trkpt><trkpt lat="43.102928" lon="-0.163534"><ele>345.25</ele><time>2011-09-15T08:14:29Z</time></trkpt><trkpt lat="43.103298" lon="-0.162235"><ele>347.65</ele><time>2011-09-15T08:14:38Z</time></trkpt><trkpt lat="43.103388" lon="-0.161964"><ele>348.13</ele><time>2011-09-15T08:14:40Z</time></trkpt><trkpt lat="43.103668" lon="-0.161228"><ele>355.83</ele><time>2011-09-15T08:14:46Z</time></trkpt><trkpt lat="43.103796" lon="-0.160723"><ele>360.15</ele><time>2011-09-15T08:14:50Z</time></trkpt><trkpt lat="43.103789" lon="-0.160581"><ele>362.07</ele><time>2011-09-15T08:14:51Z</time></trkpt><trkpt lat="43.103785" lon="-0.160461"><ele>364.48</ele><time>2011-09-15T08:14:52Z</time></trkpt><trkpt lat="43.103772" lon="-0.160336"><ele>366.88</ele><time>2011-09-15T08:14:53Z</time></trkpt><trkpt lat="43.103755" lon="-0.160192"><ele>368.80</ele><time>2011-09-15T08:14:54Z</time></trkpt><trkpt lat="43.103710" lon="-0.160089"><ele>370.73</ele><time>2011-09-15T08:14:55Z</time></trkpt><trkpt lat="43.103522" lon="-0.159367"><ele>372.65</ele><time>2011-09-15T08:15:01Z</time></trkpt><trkpt lat="43.103465" lon="-0.159275"><ele>372.65</ele><time>2011-09-15T08:15:02Z</time></trkpt><trkpt lat="43.103380" lon="-0.159223"><ele>372.17</ele><time>2011-09-15T08:15:03Z</time></trkpt><trkpt lat="43.103297" lon="-0.159183"><ele>372.17</ele><time>2011-09-15T08:15:04Z</time></trkpt><trkpt lat="43.103218" lon="-0.159138"><ele>372.17</ele><time>2011-09-15T08:15:05Z</time></trkpt><trkpt lat="43.103143" lon="-0.159111"><ele>371.69</ele><time>2011-09-15T08:15:06Z</time></trkpt><trkpt lat="43.103051" lon="-0.159095"><ele>371.21</ele><time>2011-09-15T08:15:07Z</time></trkpt><trkpt lat="43.102967" lon="-0.159105"><ele>370.73</ele><time>2011-09-15T08:15:08Z</time></trkpt><trkpt lat="43.102892" lon="-0.159109"><ele>370.24</ele><time>2011-09-15T08:15:09Z</time></trkpt><trkpt lat="43.102824" lon="-0.159093"><ele>369.76</ele><time>2011-09-15T08:15:10Z</time></trkpt><trkpt lat="43.102755" lon="-0.159070"><ele>369.28</ele><time>2011-09-15T08:15:11Z</time></trkpt><trkpt lat="43.102686" lon="-0.159030"><ele>369.28</ele><time>2011-09-15T08:15:12Z</time></trkpt><trkpt lat="43.102614" lon="-0.158973"><ele>368.32</ele><time>2011-09-15T08:15:13Z</time></trkpt><trkpt lat="43.101832" lon="-0.158068"><ele>363.04</ele><time>2011-09-15T08:15:25Z</time></trkpt><trkpt lat="43.101407" lon="-0.157429"><ele>358.71</ele><time>2011-09-15T08:15:31Z</time></trkpt><trkpt lat="43.101350" lon="-0.157284"><ele>358.71</ele><time>2011-09-15T08:15:32Z</time></trkpt><trkpt lat="43.101304" lon="-0.157130"><ele>357.75</ele><time>2011-09-15T08:15:33Z</time></trkpt><trkpt lat="43.100855" lon="-0.155090"><ele>356.31</ele><time>2011-09-15T08:15:45Z</time></trkpt><trkpt lat="43.100628" lon="-0.153137"><ele>361.59</ele><time>2011-09-15T08:15:55Z</time></trkpt><trkpt lat="43.100644" lon="-0.152951"><ele>362.07</ele><time>2011-09-15T08:15:56Z</time></trkpt><trkpt lat="43.100681" lon="-0.152765"><ele>362.07</ele><time>2011-09-15T08:15:57Z</time></trkpt><trkpt lat="43.101107" lon="-0.150791"><ele>360.63</ele><time>2011-09-15T08:16:07Z</time></trkpt><trkpt lat="43.101412" lon="-0.149152"><ele>359.19</ele><time>2011-09-15T08:16:16Z</time></trkpt><trkpt lat="43.101470" lon="-0.148831"><ele>360.15</ele><time>2011-09-15T08:16:22Z</time></trkpt><trkpt lat="43.101483" lon="-0.148809"><ele>363.04</ele><time>2011-09-15T08:16:35Z</time></trkpt><trkpt lat="43.101498" lon="-0.148677"><ele>362.55</ele><time>2011-09-15T08:16:48Z</time></trkpt><trkpt lat="43.101545" lon="-0.148363"><ele>363.04</ele><time>2011-09-15T08:16:57Z</time></trkpt><trkpt lat="43.101557" lon="-0.148259"><ele>364.96</ele><time>2011-09-15T08:17:05Z</time></trkpt><trkpt lat="43.101627" lon="-0.147959"><ele>366.40</ele><time>2011-09-15T08:18:08Z</time></trkpt><trkpt lat="43.101786" lon="-0.147110"><ele>364.48</ele><time>2011-09-15T08:18:18Z</time></trkpt><trkpt lat="43.102144" lon="-0.146141"><ele>364.48</ele><time>2011-09-15T08:18:26Z</time></trkpt><trkpt lat="43.102845" lon="-0.145002"><ele>362.55</ele><time>2011-09-15T08:18:35Z</time></trkpt><trkpt lat="43.103681" lon="-0.143443"><ele>355.83</ele><time>2011-09-15T08:18:45Z</time></trkpt><trkpt lat="43.103884" lon="-0.142940"><ele>352.94</ele><time>2011-09-15T08:18:48Z</time></trkpt><trkpt lat="43.103928" lon="-0.142763"><ele>352.46</ele><time>2011-09-15T08:18:49Z</time></trkpt><trkpt lat="43.103939" lon="-0.142565"><ele>351.50</ele><time>2011-09-15T08:18:50Z</time></trkpt><trkpt lat="43.103915" lon="-0.142365"><ele>351.50</ele><time>2011-09-15T08:18:51Z</time></trkpt><trkpt lat="43.103886" lon="-0.142166"><ele>351.02</ele><time>2011-09-15T08:18:52Z</time></trkpt><trkpt lat="43.103608" lon="-0.140184"><ele>350.54</ele><time>2011-09-15T08:19:03Z</time></trkpt><trkpt lat="43.103493" lon="-0.138058"><ele>353.90</ele><time>2011-09-15T08:19:15Z</time></trkpt><trkpt lat="43.102958" lon="-0.136263"><ele>357.27</ele><time>2011-09-15T08:19:25Z</time></trkpt><trkpt lat="43.102650" lon="-0.134812"><ele>364.48</ele><time>2011-09-15T08:19:33Z</time></trkpt><trkpt lat="43.102283" lon="-0.132646"><ele>370.73</ele><time>2011-09-15T08:19:44Z</time></trkpt><trkpt lat="43.101826" lon="-0.129920"><ele>373.13</ele><time>2011-09-15T08:19:56Z</time></trkpt><trkpt lat="43.101422" lon="-0.127391"><ele>374.57</ele><time>2011-09-15T08:20:06Z</time></trkpt><trkpt lat="43.101420" lon="-0.127137"><ele>374.57</ele><time>2011-09-15T08:20:07Z</time></trkpt><trkpt lat="43.101540" lon="-0.125485"><ele>373.61</ele><time>2011-09-15T08:20:14Z</time></trkpt><trkpt lat="43.101602" lon="-0.125242"><ele>373.61</ele><time>2011-09-15T08:20:15Z</time></trkpt><trkpt lat="43.101677" lon="-0.125000"><ele>373.13</ele><time>2011-09-15T08:20:16Z</time></trkpt><trkpt lat="43.102480" lon="-0.122838"><ele>373.13</ele><time>2011-09-15T08:20:26Z</time></trkpt><trkpt lat="43.102984" lon="-0.121174"><ele>367.84</ele><time>2011-09-15T08:20:34Z</time></trkpt><trkpt lat="43.103384" lon="-0.119162"><ele>365.92</ele><time>2011-09-15T08:20:45Z</time></trkpt><trkpt lat="43.103783" lon="-0.116969"><ele>369.76</ele><time>2011-09-15T08:20:59Z</time></trkpt><trkpt lat="43.103977" lon="-0.115003"><ele>374.09</ele><time>2011-09-15T08:21:11Z</time></trkpt><trkpt lat="43.104036" lon="-0.113084"><ele>378.90</ele><time>2011-09-15T08:21:21Z</time></trkpt><trkpt lat="43.103996" lon="-0.111195"><ele>383.70</ele><time>2011-09-15T08:21:30Z</time></trkpt><trkpt lat="43.103605" lon="-0.108595"><ele>389.95</ele><time>2011-09-15T08:21:42Z</time></trkpt><trkpt lat="43.103281" lon="-0.106497"><ele>395.24</ele><time>2011-09-15T08:21:52Z</time></trkpt><trkpt lat="43.102864" lon="-0.103932"><ele>404.37</ele><time>2011-09-15T08:22:04Z</time></trkpt><trkpt lat="43.102300" lon="-0.102137"><ele>406.77</ele><time>2011-09-15T08:22:13Z</time></trkpt><trkpt lat="43.101539" lon="-0.100127"><ele>405.33</ele><time>2011-09-15T08:22:23Z</time></trkpt><trkpt lat="43.100991" lon="-0.098098"><ele>402.45</ele><time>2011-09-15T08:22:33Z</time></trkpt><trkpt lat="43.100536" lon="-0.096416"><ele>400.53</ele><time>2011-09-15T08:22:43Z</time></trkpt><trkpt lat="43.100493" lon="-0.096256"><ele>400.05</ele><time>2011-09-15T08:22:44Z</time></trkpt><trkpt lat="43.100438" lon="-0.096106"><ele>400.05</ele><time>2011-09-15T08:22:45Z</time></trkpt><trkpt lat="43.100389" lon="-0.095957"><ele>400.05</ele><time>2011-09-15T08:22:46Z</time></trkpt><trkpt lat="43.100358" lon="-0.095797"><ele>399.57</ele><time>2011-09-15T08:22:47Z</time></trkpt><trkpt lat="43.100351" lon="-0.095615"><ele>399.57</ele><time>2011-09-15T08:22:48Z</time></trkpt><trkpt lat="43.100354" lon="-0.095408"><ele>398.60</ele><time>2011-09-15T08:22:49Z</time></trkpt><trkpt lat="43.100359" lon="-0.095195"><ele>398.12</ele><time>2011-09-15T08:22:50Z</time></trkpt><trkpt lat="43.100488" lon="-0.092846"><ele>393.80</ele><time>2011-09-15T08:23:01Z</time></trkpt><trkpt lat="43.100705" lon="-0.090674"><ele>388.51</ele><time>2011-09-15T08:23:12Z</time></trkpt><trkpt lat="43.100673" lon="-0.090114"><ele>385.63</ele><time>2011-09-15T08:23:15Z</time></trkpt><trkpt lat="43.100749" lon="-0.089025"><ele>382.26</ele><time>2011-09-15T08:23:21Z</time></trkpt><trkpt lat="43.101041" lon="-0.087837"><ele>379.86</ele><time>2011-09-15T08:23:28Z</time></trkpt><trkpt lat="43.101059" lon="-0.087645"><ele>379.38</ele><time>2011-09-15T08:23:29Z</time></trkpt><trkpt lat="43.101056" lon="-0.087435"><ele>378.90</ele><time>2011-09-15T08:23:30Z</time></trkpt><trkpt lat="43.101026" lon="-0.087209"><ele>378.42</ele><time>2011-09-15T08:23:31Z</time></trkpt><trkpt lat="43.100988" lon="-0.086981"><ele>377.94</ele><time>2011-09-15T08:23:32Z</time></trkpt><trkpt lat="43.100528" lon="-0.084449"><ele>377.45</ele><time>2011-09-15T08:23:44Z</time></trkpt><trkpt lat="43.100209" lon="-0.082113"><ele>373.61</ele><time>2011-09-15T08:23:54Z</time></trkpt><trkpt lat="43.099514" lon="-0.080009"><ele>373.61</ele><time>2011-09-15T08:24:01Z</time></trkpt><trkpt lat="43.099105" lon="-0.078711"><ele>375.05</ele><time>2011-09-15T08:24:07Z</time></trkpt><trkpt lat="43.098995" lon="-0.077284"><ele>378.90</ele><time>2011-09-15T08:24:15Z</time></trkpt><trkpt lat="43.099028" lon="-0.076515"><ele>380.82</ele><time>2011-09-15T08:24:22Z</time></trkpt><trkpt lat="43.099033" lon="-0.076361"><ele>381.30</ele><time>2011-09-15T08:24:24Z</time></trkpt><trkpt lat="43.099061" lon="-0.076289"><ele>381.78</ele><time>2011-09-15T08:24:25Z</time></trkpt><trkpt lat="43.099107" lon="-0.076220"><ele>382.26</ele><time>2011-09-15T08:24:26Z</time></trkpt><trkpt lat="43.099152" lon="-0.076151"><ele>382.26</ele><time>2011-09-15T08:24:27Z</time></trkpt><trkpt lat="43.099194" lon="-0.076068"><ele>382.26</ele><time>2011-09-15T08:24:28Z</time></trkpt><trkpt lat="43.099236" lon="-0.075978"><ele>382.26</ele><time>2011-09-15T08:24:29Z</time></trkpt><trkpt lat="43.099611" lon="-0.075187"><ele>388.51</ele><time>2011-09-15T08:24:35Z</time></trkpt><trkpt lat="43.100108" lon="-0.073779"><ele>392.36</ele><time>2011-09-15T08:24:42Z</time></trkpt><trkpt lat="43.101097" lon="-0.072037"><ele>392.36</ele><time>2011-09-15T08:24:49Z</time></trkpt><trkpt lat="43.102592" lon="-0.069938"><ele>396.20</ele><time>2011-09-15T08:24:58Z</time></trkpt><trkpt lat="43.103883" lon="-0.067398"><ele>400.53</ele><time>2011-09-15T08:25:08Z</time></trkpt><trkpt lat="43.104980" lon="-0.065602"><ele>405.33</ele><time>2011-09-15T08:25:16Z</time></trkpt><trkpt lat="43.105859" lon="-0.064368"><ele>411.58</ele><time>2011-09-15T08:25:24Z</time></trkpt><trkpt lat="43.106121" lon="-0.063697"><ele>413.50</ele><time>2011-09-15T08:25:29Z</time></trkpt><trkpt lat="43.106137" lon="-0.063574"><ele>413.50</ele><time>2011-09-15T08:25:30Z</time></trkpt><trkpt lat="43.106143" lon="-0.063450"><ele>413.02</ele><time>2011-09-15T08:25:31Z</time></trkpt><trkpt lat="43.106141" lon="-0.063328"><ele>413.50</ele><time>2011-09-15T08:25:32Z</time></trkpt><trkpt lat="43.106129" lon="-0.063210"><ele>413.50</ele><time>2011-09-15T08:25:33Z</time></trkpt><trkpt lat="43.106108" lon="-0.063096"><ele>413.02</ele><time>2011-09-15T08:25:34Z</time></trkpt><trkpt lat="43.106075" lon="-0.062978"><ele>413.02</ele><time>2011-09-15T08:25:35Z</time></trkpt><trkpt lat="43.106031" lon="-0.062856"><ele>413.02</ele><time>2011-09-15T08:25:36Z</time></trkpt><trkpt lat="43.105976" lon="-0.062728"><ele>413.02</ele><time>2011-09-15T08:25:37Z</time></trkpt><trkpt lat="43.105308" lon="-0.061673"><ele>413.98</ele><time>2011-09-15T08:25:46Z</time></trkpt><trkpt lat="43.105209" lon="-0.061579"><ele>413.98</ele><time>2011-09-15T08:25:47Z</time></trkpt><trkpt lat="43.103868" lon="-0.060409"><ele>417.83</ele><time>2011-09-15T08:26:00Z</time></trkpt><trkpt lat="43.102731" lon="-0.059390"><ele>417.83</ele><time>2011-09-15T08:26:11Z</time></trkpt><trkpt lat="43.101532" lon="-0.058750"><ele>414.95</ele><time>2011-09-15T08:26:21Z</time></trkpt><trkpt lat="43.101441" lon="-0.058674"><ele>414.47</ele><time>2011-09-15T08:26:22Z</time></trkpt><trkpt lat="43.101358" lon="-0.058577"><ele>414.47</ele><time>2011-09-15T08:26:23Z</time></trkpt><trkpt lat="43.101283" lon="-0.058468"><ele>414.47</ele><time>2011-09-15T08:26:24Z</time></trkpt><trkpt lat="43.101214" lon="-0.058341"><ele>413.98</ele><time>2011-09-15T08:26:25Z</time></trkpt><trkpt lat="43.101151" lon="-0.058204"><ele>413.98</ele><time>2011-09-15T08:26:26Z</time></trkpt><trkpt lat="43.101093" lon="-0.058063"><ele>413.98</ele><time>2011-09-15T08:26:27Z</time></trkpt><trkpt lat="43.100662" lon="-0.056470"><ele>413.98</ele><time>2011-09-15T08:26:38Z</time></trkpt><trkpt lat="43.100263" lon="-0.054466"><ele>415.43</ele><time>2011-09-15T08:26:52Z</time></trkpt><trkpt lat="43.100013" lon="-0.052824"><ele>414.47</ele><time>2011-09-15T08:27:05Z</time></trkpt><trkpt lat="43.099982" lon="-0.052325"><ele>413.02</ele><time>2011-09-15T08:27:09Z</time></trkpt><trkpt lat="43.099937" lon="-0.052190"><ele>413.02</ele><time>2011-09-15T08:27:10Z</time></trkpt><trkpt lat="43.099897" lon="-0.052040"><ele>413.02</ele><time>2011-09-15T08:27:11Z</time></trkpt><trkpt lat="43.099867" lon="-0.051884"><ele>413.50</ele><time>2011-09-15T08:27:12Z</time></trkpt><trkpt lat="43.099845" lon="-0.051721"><ele>413.98</ele><time>2011-09-15T08:27:13Z</time></trkpt><trkpt lat="43.099833" lon="-0.051552"><ele>414.95</ele><time>2011-09-15T08:27:14Z</time></trkpt><trkpt lat="43.099827" lon="-0.051378"><ele>415.43</ele><time>2011-09-15T08:27:15Z</time></trkpt><trkpt lat="43.099904" lon="-0.049668"><ele>420.71</ele><time>2011-09-15T08:27:25Z</time></trkpt><trkpt lat="43.100029" lon="-0.048260"><ele>422.64</ele><time>2011-09-15T08:27:35Z</time></trkpt><trkpt lat="43.100139" lon="-0.047572"><ele>422.64</ele><time>2011-09-15T08:27:41Z</time></trkpt><trkpt lat="43.100176" lon="-0.047436"><ele>422.16</ele><time>2011-09-15T08:27:42Z</time></trkpt><trkpt lat="43.100225" lon="-0.047301"><ele>421.68</ele><time>2011-09-15T08:27:43Z</time></trkpt><trkpt lat="43.100282" lon="-0.047175"><ele>421.68</ele><time>2011-09-15T08:27:44Z</time></trkpt><trkpt lat="43.100345" lon="-0.047059"><ele>421.19</ele><time>2011-09-15T08:27:45Z</time></trkpt><trkpt lat="43.100413" lon="-0.046951"><ele>420.71</ele><time>2011-09-15T08:27:46Z</time></trkpt><trkpt lat="43.100667" lon="-0.046528"><ele>418.79</ele><time>2011-09-15T08:27:50Z</time></trkpt><trkpt lat="43.100713" lon="-0.046420"><ele>418.79</ele><time>2011-09-15T08:27:51Z</time></trkpt><trkpt lat="43.100737" lon="-0.046307"><ele>418.31</ele><time>2011-09-15T08:27:52Z</time></trkpt><trkpt lat="43.100742" lon="-0.046192"><ele>418.31</ele><time>2011-09-15T08:27:53Z</time></trkpt><trkpt lat="43.100715" lon="-0.046079"><ele>417.35</ele><time>2011-09-15T08:27:54Z</time></trkpt><trkpt lat="43.100671" lon="-0.045974"><ele>417.35</ele><time>2011-09-15T08:27:55Z</time></trkpt><trkpt lat="43.100619" lon="-0.045870"><ele>416.87</ele><time>2011-09-15T08:27:56Z</time></trkpt><trkpt lat="43.100568" lon="-0.045764"><ele>416.39</ele><time>2011-09-15T08:27:57Z</time></trkpt><trkpt lat="43.100533" lon="-0.045653"><ele>415.91</ele><time>2011-09-15T08:27:58Z</time></trkpt><trkpt lat="43.100504" lon="-0.045548"><ele>414.95</ele><time>2011-09-15T08:27:59Z</time></trkpt><trkpt lat="43.100492" lon="-0.045458"><ele>414.47</ele><time>2011-09-15T08:28:00Z</time></trkpt><trkpt lat="43.100489" lon="-0.045396"><ele>414.47</ele><time>2011-09-15T08:28:01Z</time></trkpt><trkpt lat="43.100474" lon="-0.045371"><ele>415.43</ele><time>2011-09-15T08:28:02Z</time></trkpt><trkpt lat="43.100479" lon="-0.045296"><ele>411.10</ele><time>2011-09-15T08:28:11Z</time></trkpt><trkpt lat="43.100461" lon="-0.045158"><ele>408.22</ele><time>2011-09-15T08:28:46Z</time></trkpt><trkpt lat="43.100439" lon="-0.045104"><ele>407.74</ele><time>2011-09-15T08:28:47Z</time></trkpt><trkpt lat="43.100415" lon="-0.045079"><ele>407.74</ele><time>2011-09-15T08:28:48Z</time></trkpt><trkpt lat="43.100358" lon="-0.045027"><ele>407.74</ele><time>2011-09-15T08:28:49Z</time></trkpt><trkpt lat="43.100293" lon="-0.045052"><ele>406.29</ele><time>2011-09-15T08:28:50Z</time></trkpt><trkpt lat="43.100221" lon="-0.045106"><ele>406.29</ele><time>2011-09-15T08:28:51Z</time></trkpt><trkpt lat="43.100129" lon="-0.045170"><ele>405.81</ele><time>2011-09-15T08:28:52Z</time></trkpt><trkpt lat="43.100041" lon="-0.045202"><ele>404.85</ele><time>2011-09-15T08:28:53Z</time></trkpt><trkpt lat="43.099681" lon="-0.045294"><ele>403.41</ele><time>2011-09-15T08:28:58Z</time></trkpt><trkpt lat="43.099618" lon="-0.045320"><ele>402.93</ele><time>2011-09-15T08:28:59Z</time></trkpt><trkpt lat="43.099479" lon="-0.045386"><ele>401.97</ele><time>2011-09-15T08:29:01Z</time></trkpt><trkpt lat="43.099402" lon="-0.045391"><ele>401.97</ele><time>2011-09-15T08:29:02Z</time></trkpt><trkpt lat="43.098467" lon="-0.045482"><ele>402.93</ele><time>2011-09-15T08:29:13Z</time></trkpt><trkpt lat="43.097473" lon="-0.045787"><ele>401.97</ele><time>2011-09-15T08:29:24Z</time></trkpt><trkpt lat="43.096821" lon="-0.045854"><ele>409.66</ele><time>2011-09-15T08:29:35Z</time></trkpt><trkpt lat="43.096842" lon="-0.045799"><ele>420.71</ele><time>2011-09-15T08:29:44Z</time></trkpt><trkpt lat="43.096875" lon="-0.045791"><ele>428.89</ele><time>2011-09-15T08:29:56Z</time></trkpt><trkpt lat="43.096848" lon="-0.045803"><ele>428.40</ele><time>2011-09-15T08:29:57Z</time></trkpt><trkpt lat="43.096807" lon="-0.045814"><ele>427.44</ele><time>2011-09-15T08:29:58Z</time></trkpt><trkpt lat="43.096652" lon="-0.045883"><ele>425.52</ele><time>2011-09-15T08:30:02Z</time></trkpt><trkpt lat="43.096601" lon="-0.045897"><ele>424.56</ele><time>2011-09-15T08:30:03Z</time></trkpt><trkpt lat="43.096553" lon="-0.045916"><ele>424.08</ele><time>2011-09-15T08:30:04Z</time></trkpt><trkpt lat="43.096158" lon="-0.046054"><ele>414.47</ele><time>2011-09-15T08:30:14Z</time></trkpt><trkpt lat="43.095887" lon="-0.046228"><ele>415.91</ele><time>2011-09-15T08:30:25Z</time></trkpt></trkseg></trk><trk><name>ACTIVE LOG: 15 SEP 2011 10:30</name><trkseg><trkpt lat="43.095810" lon="-0.046217"><ele>413.50</ele><time>2011-09-15T08:30:34Z</time></trkpt><trkpt lat="43.095646" lon="-0.046208"><ele>414.47</ele><time>2011-09-15T08:31:00Z</time></trkpt><trkpt lat="43.095444" lon="-0.046291"><ele>415.91</ele><time>2011-09-15T08:31:07Z</time></trkpt><trkpt lat="43.095431" lon="-0.046323"><ele>416.39</ele><time>2011-09-15T08:31:08Z</time></trkpt><trkpt lat="43.095410" lon="-0.046371"><ele>416.39</ele><time>2011-09-15T08:31:09Z</time></trkpt><trkpt lat="43.095324" lon="-0.046683"><ele>417.83</ele><time>2011-09-15T08:31:13Z</time></trkpt><trkpt lat="43.095301" lon="-0.046826"><ele>417.83</ele><time>2011-09-15T08:31:14Z</time></trkpt><trkpt lat="43.095246" lon="-0.047241"><ele>422.64</ele><time>2011-09-15T08:31:18Z</time></trkpt><trkpt lat="43.095188" lon="-0.047552"><ele>423.60</ele><time>2011-09-15T08:31:21Z</time></trkpt><trkpt lat="43.095115" lon="-0.047883"><ele>421.19</ele><time>2011-09-15T08:31:25Z</time></trkpt><trkpt lat="43.095044" lon="-0.048099"><ele>419.75</ele><time>2011-09-15T08:31:28Z</time></trkpt><trkpt lat="43.095017" lon="-0.048166"><ele>419.27</ele><time>2011-09-15T08:31:29Z</time></trkpt><trkpt lat="43.094941" lon="-0.048850"><ele>416.39</ele><time>2011-09-15T08:31:38Z</time></trkpt><trkpt lat="43.094900" lon="-0.049212"><ele>413.98</ele><time>2011-09-15T08:31:43Z</time></trkpt><trkpt lat="43.094912" lon="-0.049291"><ele>413.50</ele><time>2011-09-15T08:31:44Z</time></trkpt><trkpt lat="43.095018" lon="-0.049430"><ele>413.50</ele><time>2011-09-15T08:31:46Z</time></trkpt><trkpt lat="43.095103" lon="-0.049517"><ele>415.43</ele><time>2011-09-15T08:31:47Z</time></trkpt><trkpt lat="43.095145" lon="-0.049584"><ele>414.95</ele><time>2011-09-15T08:31:48Z</time></trkpt><trkpt lat="43.095347" lon="-0.049650"><ele>412.54</ele><time>2011-09-15T08:31:54Z</time></trkpt><trkpt lat="43.095381" lon="-0.049651"><ele>411.58</ele><time>2011-09-15T08:31:55Z</time></trkpt><trkpt lat="43.095416" lon="-0.049678"><ele>410.62</ele><time>2011-09-15T08:31:56Z</time></trkpt><trkpt lat="43.095465" lon="-0.049694"><ele>412.06</ele><time>2011-09-15T08:31:57Z</time></trkpt><trkpt lat="43.095519" lon="-0.049702"><ele>413.50</ele><time>2011-09-15T08:31:58Z</time></trkpt><trkpt lat="43.095576" lon="-0.049927"><ele>426.96</ele><time>2011-09-15T08:32:07Z</time></trkpt><trkpt lat="43.095500" lon="-0.049948"><ele>426.48</ele><time>2011-09-15T08:32:47Z</time></trkpt><trkpt lat="43.095479" lon="-0.050036"><ele>427.92</ele><time>2011-09-15T08:33:37Z</time></trkpt><trkpt lat="43.095518" lon="-0.050066"><ele>429.85</ele><time>2011-09-15T08:34:37Z</time></trkpt><trkpt lat="43.095548" lon="-0.050096"><ele>432.25</ele><time>2011-09-15T08:34:41Z</time></trkpt><trkpt lat="43.095572" lon="-0.050100"><ele>433.69</ele><time>2011-09-15T08:34:42Z</time></trkpt><trkpt lat="43.095714" lon="-0.050205"><ele>442.34</ele><time>2011-09-15T08:34:51Z</time></trkpt><trkpt lat="43.095769" lon="-0.050429"><ele>442.82</ele><time>2011-09-15T08:34:56Z</time></trkpt><trkpt lat="43.095771" lon="-0.050497"><ele>441.86</ele><time>2011-09-15T08:34:57Z</time></trkpt><trkpt lat="43.095779" lon="-0.051031"><ele>424.08</ele><time>2011-09-15T08:35:07Z</time></trkpt><trkpt lat="43.095781" lon="-0.051093"><ele>423.12</ele><time>2011-09-15T08:35:08Z</time></trkpt><trkpt lat="43.095761" lon="-0.051348"><ele>417.83</ele><time>2011-09-15T08:35:12Z</time></trkpt><trkpt lat="43.095751" lon="-0.051400"><ele>416.39</ele><time>2011-09-15T08:35:13Z</time></trkpt><trkpt lat="43.095741" lon="-0.051433"><ele>414.95</ele><time>2011-09-15T08:35:14Z</time></trkpt><trkpt lat="43.095733" lon="-0.051461"><ele>413.98</ele><time>2011-09-15T08:35:15Z</time></trkpt><trkpt lat="43.095723" lon="-0.051486"><ele>413.02</ele><time>2011-09-15T08:35:16Z</time></trkpt><trkpt lat="43.095712" lon="-0.051515"><ele>412.06</ele><time>2011-09-15T08:35:17Z</time></trkpt><trkpt lat="43.095517" lon="-0.051835"><ele>408.70</ele><time>2011-09-15T08:35:26Z</time></trkpt><trkpt lat="43.095293" lon="-0.052099"><ele>409.66</ele><time>2011-09-15T08:35:36Z</time></trkpt><trkpt lat="43.095131" lon="-0.052223"><ele>398.60</ele><time>2011-09-15T08:35:48Z</time></trkpt><trkpt lat="43.094916" lon="-0.052424"><ele>401.01</ele><time>2011-09-15T08:35:58Z</time></trkpt><trkpt lat="43.094881" lon="-0.052439"><ele>400.53</ele><time>2011-09-15T08:35:59Z</time></trkpt><trkpt lat="43.094774" lon="-0.052473"><ele>399.57</ele><time>2011-09-15T08:36:01Z</time></trkpt><trkpt lat="43.094124" lon="-0.052833"><ele>391.87</ele><time>2011-09-15T08:36:12Z</time></trkpt><trkpt lat="43.093775" lon="-0.053019"><ele>388.03</ele><time>2011-09-15T08:36:17Z</time></trkpt><trkpt lat="43.093702" lon="-0.053095"><ele>387.07</ele><time>2011-09-15T08:36:18Z</time></trkpt><trkpt lat="43.093042" lon="-0.053966"><ele>382.26</ele><time>2011-09-15T08:36:29Z</time></trkpt><trkpt lat="43.092291" lon="-0.054786"><ele>382.74</ele><time>2011-09-15T08:36:40Z</time></trkpt><trkpt lat="43.091961" lon="-0.055024"><ele>384.18</ele><time>2011-09-15T08:36:46Z</time></trkpt><trkpt lat="43.091907" lon="-0.055016"><ele>383.22</ele><time>2011-09-15T08:36:47Z</time></trkpt><trkpt lat="43.091846" lon="-0.054992"><ele>382.74</ele><time>2011-09-15T08:36:48Z</time></trkpt><trkpt lat="43.091777" lon="-0.054964"><ele>382.74</ele><time>2011-09-15T08:36:49Z</time></trkpt><trkpt lat="43.091703" lon="-0.054924"><ele>382.26</ele><time>2011-09-15T08:36:50Z</time></trkpt><trkpt lat="43.091627" lon="-0.054876"><ele>382.26</ele><time>2011-09-15T08:36:51Z</time></trkpt><trkpt lat="43.090313" lon="-0.054061"><ele>379.38</ele><time>2011-09-15T08:37:07Z</time></trkpt><trkpt lat="43.089637" lon="-0.053666"><ele>377.94</ele><time>2011-09-15T08:37:18Z</time></trkpt><trkpt lat="43.088942" lon="-0.053267"><ele>379.86</ele><time>2011-09-15T08:37:26Z</time></trkpt><trkpt lat="43.088295" lon="-0.052899"><ele>383.22</ele><time>2011-09-15T08:37:34Z</time></trkpt><trkpt lat="43.088236" lon="-0.052841"><ele>383.22</ele><time>2011-09-15T08:37:35Z</time></trkpt><trkpt lat="43.088185" lon="-0.052775"><ele>383.70</ele><time>2011-09-15T08:37:36Z</time></trkpt><trkpt lat="43.088101" lon="-0.052645"><ele>384.66</ele><time>2011-09-15T08:37:38Z</time></trkpt><trkpt lat="43.088062" lon="-0.052537"><ele>385.15</ele><time>2011-09-15T08:37:41Z</time></trkpt><trkpt lat="43.088097" lon="-0.052525"><ele>385.15</ele><time>2011-09-15T08:37:52Z</time></trkpt><trkpt lat="43.088099" lon="-0.052528"><ele>385.15</ele><time>2011-09-15T08:37:54Z</time></trkpt><trkpt lat="43.088163" lon="-0.052652"><ele>384.66</ele><time>2011-09-15T08:37:58Z</time></trkpt><trkpt lat="43.088205" lon="-0.052727"><ele>384.66</ele><time>2011-09-15T08:37:59Z</time></trkpt><trkpt lat="43.088261" lon="-0.052810"><ele>384.18</ele><time>2011-09-15T08:38:00Z</time></trkpt><trkpt lat="43.088328" lon="-0.052886"><ele>384.18</ele><time>2011-09-15T08:38:01Z</time></trkpt><trkpt lat="43.088408" lon="-0.052963"><ele>383.70</ele><time>2011-09-15T08:38:02Z</time></trkpt><trkpt lat="43.088504" lon="-0.053033"><ele>383.70</ele><time>2011-09-15T08:38:03Z</time></trkpt><trkpt lat="43.088604" lon="-0.053091"><ele>384.18</ele><time>2011-09-15T08:38:04Z</time></trkpt><trkpt lat="43.089681" lon="-0.053679"><ele>382.26</ele><time>2011-09-15T08:38:15Z</time></trkpt><trkpt lat="43.089738" lon="-0.053677"><ele>382.26</ele><time>2011-09-15T08:38:16Z</time></trkpt><trkpt lat="43.089786" lon="-0.053666"><ele>382.26</ele><time>2011-09-15T08:38:17Z</time></trkpt><trkpt lat="43.089818" lon="-0.053660"><ele>382.26</ele><time>2011-09-15T08:38:18Z</time></trkpt><trkpt lat="43.089836" lon="-0.053662"><ele>382.26</ele><time>2011-09-15T08:38:19Z</time></trkpt><trkpt lat="43.089926" lon="-0.053725"><ele>381.30</ele><time>2011-09-15T08:38:27Z</time></trkpt><trkpt lat="43.090019" lon="-0.053818"><ele>380.82</ele><time>2011-09-15T08:38:29Z</time></trkpt><trkpt lat="43.090077" lon="-0.053858"><ele>380.82</ele><time>2011-09-15T08:38:30Z</time></trkpt><trkpt lat="43.090890" lon="-0.054335"><ele>380.82</ele><time>2011-09-15T08:38:42Z</time></trkpt><trkpt lat="43.091671" lon="-0.054788"><ele>380.34</ele><time>2011-09-15T08:38:53Z</time></trkpt><trkpt lat="43.091921" lon="-0.054911"><ele>381.78</ele><time>2011-09-15T08:38:59Z</time></trkpt><trkpt lat="43.091951" lon="-0.054969"><ele>382.26</ele><time>2011-09-15T08:39:00Z</time></trkpt><trkpt lat="43.091983" lon="-0.055053"><ele>382.26</ele><time>2011-09-15T08:39:01Z</time></trkpt><trkpt lat="43.092240" lon="-0.055601"><ele>382.74</ele><time>2011-09-15T08:39:08Z</time></trkpt><trkpt lat="43.092285" lon="-0.055613"><ele>382.74</ele><time>2011-09-15T08:39:09Z</time></trkpt><trkpt lat="43.092345" lon="-0.055578"><ele>382.74</ele><time>2011-09-15T08:39:10Z</time></trkpt><trkpt lat="43.092406" lon="-0.055524"><ele>382.26</ele><time>2011-09-15T08:39:11Z</time></trkpt><trkpt lat="43.092473" lon="-0.055421"><ele>382.26</ele><time>2011-09-15T08:39:12Z</time></trkpt><trkpt lat="43.092540" lon="-0.055341"><ele>382.26</ele><time>2011-09-15T08:39:13Z</time></trkpt><trkpt lat="43.093338" lon="-0.054566"><ele>381.78</ele><time>2011-09-15T08:39:24Z</time></trkpt><trkpt lat="43.094254" lon="-0.053615"><ele>384.18</ele><time>2011-09-15T08:39:41Z</time></trkpt><trkpt lat="43.094796" lon="-0.053321"><ele>386.11</ele><time>2011-09-15T08:39:52Z</time></trkpt><trkpt lat="43.094841" lon="-0.053310"><ele>386.11</ele><time>2011-09-15T08:39:53Z</time></trkpt><trkpt lat="43.094922" lon="-0.053259"><ele>387.07</ele><time>2011-09-15T08:39:55Z</time></trkpt><trkpt lat="43.095215" lon="-0.053195"><ele>396.20</ele><time>2011-09-15T08:40:08Z</time></trkpt><trkpt lat="43.095344" lon="-0.053191"><ele>397.16</ele><time>2011-09-15T08:40:12Z</time></trkpt><trkpt lat="43.095379" lon="-0.053209"><ele>396.68</ele><time>2011-09-15T08:40:13Z</time></trkpt><trkpt lat="43.095707" lon="-0.053485"><ele>390.43</ele><time>2011-09-15T08:40:25Z</time></trkpt><trkpt lat="43.096032" lon="-0.053723"><ele>385.63</ele><time>2011-09-15T08:40:36Z</time></trkpt><trkpt lat="43.096358" lon="-0.053964"><ele>383.70</ele><time>2011-09-15T08:40:46Z</time></trkpt><trkpt lat="43.096512" lon="-0.054015"><ele>384.18</ele><time>2011-09-15T08:40:51Z</time></trkpt><trkpt lat="43.096728" lon="-0.054250"><ele>380.34</ele><time>2011-09-15T08:41:02Z</time></trkpt><trkpt lat="43.096740" lon="-0.054254"><ele>380.34</ele><time>2011-09-15T08:41:03Z</time></trkpt><trkpt lat="43.096758" lon="-0.054248"><ele>380.82</ele><time>2011-09-15T08:41:04Z</time></trkpt><trkpt lat="43.096775" lon="-0.054229"><ele>380.82</ele><time>2011-09-15T08:41:05Z</time></trkpt><trkpt lat="43.096786" lon="-0.054195"><ele>380.82</ele><time>2011-09-15T08:41:06Z</time></trkpt><trkpt lat="43.096792" lon="-0.054149"><ele>380.34</ele><time>2011-09-15T08:41:07Z</time></trkpt><trkpt lat="43.096796" lon="-0.054094"><ele>380.34</ele><time>2011-09-15T08:41:08Z</time></trkpt><trkpt lat="43.096887" lon="-0.053063"><ele>378.42</ele><time>2011-09-15T08:41:21Z</time></trkpt><trkpt lat="43.096991" lon="-0.052346"><ele>376.97</ele><time>2011-09-15T08:41:29Z</time></trkpt><trkpt lat="43.097022" lon="-0.052262"><ele>376.97</ele><time>2011-09-15T08:41:30Z</time></trkpt><trkpt lat="43.097061" lon="-0.052181"><ele>376.97</ele><time>2011-09-15T08:41:31Z</time></trkpt><trkpt lat="43.097108" lon="-0.052110"><ele>377.45</ele><time>2011-09-15T08:41:32Z</time></trkpt><trkpt lat="43.097161" lon="-0.052058"><ele>377.45</ele><time>2011-09-15T08:41:33Z</time></trkpt><trkpt lat="43.097217" lon="-0.052010"><ele>377.45</ele><time>2011-09-15T08:41:34Z</time></trkpt><trkpt lat="43.097272" lon="-0.051969"><ele>377.45</ele><time>2011-09-15T08:41:35Z</time></trkpt><trkpt lat="43.097327" lon="-0.051936"><ele>377.45</ele><time>2011-09-15T08:41:36Z</time></trkpt><trkpt lat="43.097378" lon="-0.051913"><ele>377.94</ele><time>2011-09-15T08:41:37Z</time></trkpt><trkpt lat="43.097433" lon="-0.051901"><ele>377.45</ele><time>2011-09-15T08:41:38Z</time></trkpt><trkpt lat="43.097483" lon="-0.051895"><ele>377.45</ele><time>2011-09-15T08:41:39Z</time></trkpt><trkpt lat="43.097532" lon="-0.051890"><ele>377.45</ele><time>2011-09-15T08:41:40Z</time></trkpt><trkpt lat="43.097885" lon="-0.051817"><ele>379.38</ele><time>2011-09-15T08:41:49Z</time></trkpt><trkpt lat="43.097919" lon="-0.051794"><ele>379.38</ele><time>2011-09-15T08:41:50Z</time></trkpt><trkpt lat="43.097946" lon="-0.051767"><ele>379.38</ele><time>2011-09-15T08:41:51Z</time></trkpt><trkpt lat="43.097969" lon="-0.051737"><ele>379.86</ele><time>2011-09-15T08:41:52Z</time></trkpt><trkpt lat="43.097992" lon="-0.051703"><ele>379.86</ele><time>2011-09-15T08:41:53Z</time></trkpt><trkpt lat="43.098015" lon="-0.051662"><ele>379.86</ele><time>2011-09-15T08:41:54Z</time></trkpt><trkpt lat="43.098036" lon="-0.051618"><ele>379.86</ele><time>2011-09-15T08:41:55Z</time></trkpt><trkpt lat="43.098075" lon="-0.051515"><ele>380.34</ele><time>2011-09-15T08:41:57Z</time></trkpt><trkpt lat="43.098089" lon="-0.051463"><ele>380.34</ele><time>2011-09-15T08:41:58Z</time></trkpt><trkpt lat="43.098178" lon="-0.050795"><ele>381.30</ele><time>2011-09-15T08:42:12Z</time></trkpt><trkpt lat="43.098199" lon="-0.050488"><ele>381.30</ele><time>2011-09-15T08:42:24Z</time></trkpt><trkpt lat="43.098235" lon="-0.050286"><ele>381.78</ele><time>2011-09-15T08:42:33Z</time></trkpt><trkpt lat="43.098264" lon="-0.050123"><ele>382.26</ele><time>2011-09-15T08:42:47Z</time></trkpt><trkpt lat="43.098409" lon="-0.049378"><ele>388.03</ele><time>2011-09-15T08:42:57Z</time></trkpt><trkpt lat="43.098413" lon="-0.049304"><ele>388.51</ele><time>2011-09-15T08:42:58Z</time></trkpt><trkpt lat="43.098418" lon="-0.049228"><ele>388.51</ele><time>2011-09-15T08:42:59Z</time></trkpt><trkpt lat="43.098435" lon="-0.048804"><ele>388.03</ele><time>2011-09-15T08:43:04Z</time></trkpt><trkpt lat="43.098365" lon="-0.048500"><ele>388.03</ele><time>2011-09-15T08:43:08Z</time></trkpt><trkpt lat="43.098345" lon="-0.048426"><ele>388.03</ele><time>2011-09-15T08:43:09Z</time></trkpt><trkpt lat="43.098333" lon="-0.048344"><ele>388.03</ele><time>2011-09-15T08:43:10Z</time></trkpt><trkpt lat="43.098241" lon="-0.047807"><ele>395.24</ele><time>2011-09-15T08:43:18Z</time></trkpt><trkpt lat="43.098219" lon="-0.047730"><ele>395.24</ele><time>2011-09-15T08:43:19Z</time></trkpt><trkpt lat="43.098073" lon="-0.047244"><ele>395.24</ele><time>2011-09-15T08:43:26Z</time></trkpt><trkpt lat="43.098061" lon="-0.046804"><ele>406.29</ele><time>2011-09-15T08:43:34Z</time></trkpt><trkpt lat="43.098058" lon="-0.046657"><ele>416.39</ele><time>2011-09-15T08:43:39Z</time></trkpt><trkpt lat="43.098003" lon="-0.046678"><ele>419.27</ele><time>2011-09-15T08:43:40Z</time></trkpt><trkpt lat="43.097935" lon="-0.046698"><ele>420.71</ele><time>2011-09-15T08:43:41Z</time></trkpt><trkpt lat="43.097847" lon="-0.046800"><ele>422.16</ele><time>2011-09-15T08:43:42Z</time></trkpt><trkpt lat="43.097723" lon="-0.046845"><ele>423.60</ele><time>2011-09-15T08:43:43Z</time></trkpt><trkpt lat="43.097620" lon="-0.046862"><ele>425.52</ele><time>2011-09-15T08:43:44Z</time></trkpt><trkpt lat="43.097513" lon="-0.046896"><ele>424.56</ele><time>2011-09-15T08:43:45Z</time></trkpt><trkpt lat="43.097423" lon="-0.046897"><ele>423.12</ele><time>2011-09-15T08:43:46Z</time></trkpt><trkpt lat="43.097347" lon="-0.046886"><ele>421.19</ele><time>2011-09-15T08:43:47Z</time></trkpt><trkpt lat="43.097217" lon="-0.046805"><ele>415.91</ele><time>2011-09-15T08:43:49Z</time></trkpt><trkpt lat="43.097157" lon="-0.046754"><ele>414.47</ele><time>2011-09-15T08:43:50Z</time></trkpt><trkpt lat="43.096833" lon="-0.046512"><ele>410.14</ele><time>2011-09-15T08:43:55Z</time></trkpt><trkpt lat="43.096740" lon="-0.046509"><ele>410.62</ele><time>2011-09-15T08:43:56Z</time></trkpt><trkpt lat="43.096595" lon="-0.046519"><ele>410.14</ele><time>2011-09-15T08:43:58Z</time></trkpt><trkpt lat="43.096522" lon="-0.046505"><ele>411.58</ele><time>2011-09-15T08:43:59Z</time></trkpt><trkpt lat="43.096271" lon="-0.046660"><ele>420.23</ele><time>2011-09-15T08:44:04Z</time></trkpt><trkpt lat="43.096225" lon="-0.046686"><ele>419.75</ele><time>2011-09-15T08:44:05Z</time></trkpt><trkpt lat="43.096174" lon="-0.046690"><ele>419.27</ele><time>2011-09-15T08:44:06Z</time></trkpt><trkpt lat="43.096124" lon="-0.046676"><ele>416.87</ele><time>2011-09-15T08:44:07Z</time></trkpt><trkpt lat="43.096081" lon="-0.046648"><ele>415.91</ele><time>2011-09-15T08:44:08Z</time></trkpt><trkpt lat="43.096044" lon="-0.046615"><ele>415.43</ele><time>2011-09-15T08:44:09Z</time></trkpt><trkpt lat="43.096022" lon="-0.046579"><ele>414.95</ele><time>2011-09-15T08:44:10Z</time></trkpt><trkpt lat="43.096009" lon="-0.046549"><ele>416.39</ele><time>2011-09-15T08:44:11Z</time></trkpt><trkpt lat="43.096004" lon="-0.046507"><ele>416.87</ele><time>2011-09-15T08:44:12Z</time></trkpt><trkpt lat="43.095994" lon="-0.046459"><ele>417.35</ele><time>2011-09-15T08:44:13Z</time></trkpt><trkpt lat="43.095961" lon="-0.046418"><ele>417.35</ele><time>2011-09-15T08:44:14Z</time></trkpt><trkpt lat="43.095917" lon="-0.046381"><ele>416.39</ele><time>2011-09-15T08:44:15Z</time></trkpt><trkpt lat="43.095866" lon="-0.046354"><ele>415.91</ele><time>2011-09-15T08:44:16Z</time></trkpt><trkpt lat="43.095812" lon="-0.046317"><ele>414.95</ele><time>2011-09-15T08:44:17Z</time></trkpt><trkpt lat="43.095740" lon="-0.046285"><ele>414.95</ele><time>2011-09-15T08:44:18Z</time></trkpt><trkpt lat="43.095675" lon="-0.046277"><ele>414.95</ele><time>2011-09-15T08:44:19Z</time></trkpt><trkpt lat="43.095621" lon="-0.046264"><ele>415.43</ele><time>2011-09-15T08:44:20Z</time></trkpt><trkpt lat="43.095579" lon="-0.046262"><ele>415.91</ele><time>2011-09-15T08:44:21Z</time></trkpt><trkpt lat="43.095545" lon="-0.046278"><ele>416.39</ele><time>2011-09-15T08:44:22Z</time></trkpt><trkpt lat="43.095526" lon="-0.046297"><ele>416.39</ele><time>2011-09-15T08:44:23Z</time></trkpt><trkpt lat="43.095515" lon="-0.046319"><ele>415.91</ele><time>2011-09-15T08:44:24Z</time></trkpt><trkpt lat="43.095499" lon="-0.046343"><ele>415.91</ele><time>2011-09-15T08:44:25Z</time></trkpt><trkpt lat="43.095486" lon="-0.046384"><ele>416.39</ele><time>2011-09-15T08:44:26Z</time></trkpt><trkpt lat="43.095437" lon="-0.046490"><ele>416.87</ele><time>2011-09-15T08:44:27Z</time></trkpt><trkpt lat="43.095382" lon="-0.046581"><ele>417.83</ele><time>2011-09-15T08:44:28Z</time></trkpt><trkpt lat="43.095332" lon="-0.046772"><ele>419.75</ele><time>2011-09-15T08:44:30Z</time></trkpt><trkpt lat="43.095289" lon="-0.046992"><ele>423.12</ele><time>2011-09-15T08:44:33Z</time></trkpt><trkpt lat="43.095233" lon="-0.047242"><ele>426.00</ele><time>2011-09-15T08:44:37Z</time></trkpt><trkpt lat="43.095189" lon="-0.047292"><ele>426.96</ele><time>2011-09-15T08:44:38Z</time></trkpt><trkpt lat="43.095083" lon="-0.047594"><ele>426.00</ele><time>2011-09-15T08:44:43Z</time></trkpt><trkpt lat="43.095054" lon="-0.047681"><ele>426.96</ele><time>2011-09-15T08:44:44Z</time></trkpt><trkpt lat="43.095022" lon="-0.047823"><ele>425.04</ele><time>2011-09-15T08:44:46Z</time></trkpt><trkpt lat="43.095029" lon="-0.047889"><ele>423.12</ele><time>2011-09-15T08:44:47Z</time></trkpt><trkpt lat="43.095035" lon="-0.048067"><ele>419.75</ele><time>2011-09-15T08:44:50Z</time></trkpt><trkpt lat="43.095028" lon="-0.048350"><ele>417.83</ele><time>2011-09-15T08:44:55Z</time></trkpt><trkpt lat="43.095021" lon="-0.048545"><ele>417.35</ele><time>2011-09-15T08:44:58Z</time></trkpt><trkpt lat="43.095018" lon="-0.048618"><ele>416.87</ele><time>2011-09-15T08:44:59Z</time></trkpt><trkpt lat="43.095017" lon="-0.048690"><ele>416.39</ele><time>2011-09-15T08:45:00Z</time></trkpt><trkpt lat="43.094940" lon="-0.049219"><ele>414.47</ele><time>2011-09-15T08:45:08Z</time></trkpt><trkpt lat="43.094950" lon="-0.049279"><ele>414.47</ele><time>2011-09-15T08:45:09Z</time></trkpt><trkpt lat="43.094978" lon="-0.049332"><ele>413.98</ele><time>2011-09-15T08:45:10Z</time></trkpt><trkpt lat="43.095001" lon="-0.049371"><ele>413.50</ele><time>2011-09-15T08:45:11Z</time></trkpt><trkpt lat="43.095027" lon="-0.049404"><ele>413.02</ele><time>2011-09-15T08:45:12Z</time></trkpt><trkpt lat="43.095062" lon="-0.049448"><ele>413.02</ele><time>2011-09-15T08:45:13Z</time></trkpt><trkpt lat="43.095092" lon="-0.049500"><ele>412.54</ele><time>2011-09-15T08:45:14Z</time></trkpt><trkpt lat="43.095120" lon="-0.049550"><ele>411.58</ele><time>2011-09-15T08:45:15Z</time></trkpt><trkpt lat="43.095161" lon="-0.049608"><ele>411.10</ele><time>2011-09-15T08:45:16Z</time></trkpt><trkpt lat="43.095209" lon="-0.049679"><ele>411.58</ele><time>2011-09-15T08:45:17Z</time></trkpt><trkpt lat="43.095278" lon="-0.049751"><ele>411.58</ele><time>2011-09-15T08:45:18Z</time></trkpt><trkpt lat="43.095364" lon="-0.049834"><ele>413.02</ele><time>2011-09-15T08:45:19Z</time></trkpt><trkpt lat="43.095525" lon="-0.049805"><ele>415.91</ele><time>2011-09-15T08:45:20Z</time></trkpt><trkpt lat="43.095555" lon="-0.049888"><ele>416.87</ele><time>2011-09-15T08:45:21Z</time></trkpt><trkpt lat="43.095565" lon="-0.049971"><ele>416.87</ele><time>2011-09-15T08:45:22Z</time></trkpt><trkpt lat="43.095605" lon="-0.050019"><ele>417.35</ele><time>2011-09-15T08:45:23Z</time></trkpt><trkpt lat="43.095656" lon="-0.050068"><ele>417.83</ele><time>2011-09-15T08:45:24Z</time></trkpt><trkpt lat="43.095685" lon="-0.050160"><ele>419.27</ele><time>2011-09-15T08:45:25Z</time></trkpt><trkpt lat="43.095699" lon="-0.050252"><ele>419.75</ele><time>2011-09-15T08:45:26Z</time></trkpt><trkpt lat="43.095742" lon="-0.050325"><ele>421.68</ele><time>2011-09-15T08:45:27Z</time></trkpt><trkpt lat="43.095755" lon="-0.050430"><ele>421.68</ele><time>2011-09-15T08:45:28Z</time></trkpt><trkpt lat="43.095753" lon="-0.050533"><ele>420.23</ele><time>2011-09-15T08:45:29Z</time></trkpt><trkpt lat="43.095746" lon="-0.050630"><ele>417.83</ele><time>2011-09-15T08:45:30Z</time></trkpt><trkpt lat="43.095749" lon="-0.050713"><ele>416.39</ele><time>2011-09-15T08:45:31Z</time></trkpt><trkpt lat="43.095731" lon="-0.051416"><ele>405.33</ele><time>2011-09-15T08:45:40Z</time></trkpt><trkpt lat="43.095713" lon="-0.051497"><ele>404.85</ele><time>2011-09-15T08:45:41Z</time></trkpt><trkpt lat="43.095688" lon="-0.051578"><ele>403.41</ele><time>2011-09-15T08:45:42Z</time></trkpt><trkpt lat="43.095477" lon="-0.051933"><ele>401.97</ele><time>2011-09-15T08:45:47Z</time></trkpt><trkpt lat="43.095413" lon="-0.051994"><ele>401.97</ele><time>2011-09-15T08:45:48Z</time></trkpt><trkpt lat="43.095328" lon="-0.052037"><ele>401.97</ele><time>2011-09-15T08:45:49Z</time></trkpt><trkpt lat="43.095025" lon="-0.052320"><ele>401.49</ele><time>2011-09-15T08:45:54Z</time></trkpt><trkpt lat="43.095000" lon="-0.052389"><ele>401.49</ele><time>2011-09-15T08:45:55Z</time></trkpt><trkpt lat="43.094993" lon="-0.052464"><ele>401.97</ele><time>2011-09-15T08:45:56Z</time></trkpt><trkpt lat="43.095002" lon="-0.052598"><ele>400.05</ele><time>2011-09-15T08:45:58Z</time></trkpt><trkpt lat="43.095020" lon="-0.052726"><ele>398.12</ele><time>2011-09-15T08:46:00Z</time></trkpt><trkpt lat="43.095033" lon="-0.052783"><ele>397.64</ele><time>2011-09-15T08:46:01Z</time></trkpt><trkpt lat="43.095047" lon="-0.052832"><ele>396.68</ele><time>2011-09-15T08:46:02Z</time></trkpt><trkpt lat="43.095064" lon="-0.052877"><ele>396.20</ele><time>2011-09-15T08:46:03Z</time></trkpt><trkpt lat="43.095089" lon="-0.052918"><ele>396.68</ele><time>2011-09-15T08:46:04Z</time></trkpt><trkpt lat="43.095123" lon="-0.052970"><ele>398.12</ele><time>2011-09-15T08:46:05Z</time></trkpt><trkpt lat="43.095271" lon="-0.053196"><ele>393.80</ele><time>2011-09-15T08:46:09Z</time></trkpt><trkpt lat="43.095308" lon="-0.053236"><ele>393.32</ele><time>2011-09-15T08:46:10Z</time></trkpt><trkpt lat="43.095355" lon="-0.053274"><ele>392.84</ele><time>2011-09-15T08:46:11Z</time></trkpt><trkpt lat="43.095408" lon="-0.053308"><ele>392.84</ele><time>2011-09-15T08:46:12Z</time></trkpt><trkpt lat="43.095472" lon="-0.053343"><ele>391.87</ele><time>2011-09-15T08:46:13Z</time></trkpt><trkpt lat="43.095920" lon="-0.053691"><ele>389.47</ele><time>2011-09-15T08:46:23Z</time></trkpt><trkpt lat="43.096137" lon="-0.053813"><ele>388.03</ele><time>2011-09-15T08:46:36Z</time></trkpt><trkpt lat="43.096250" lon="-0.053870"><ele>384.18</ele><time>2011-09-15T08:46:42Z</time></trkpt><trkpt lat="43.096483" lon="-0.054077"><ele>386.11</ele><time>2011-09-15T08:46:54Z</time></trkpt><trkpt lat="43.096705" lon="-0.054362"><ele>386.11</ele><time>2011-09-15T08:47:03Z</time></trkpt><trkpt lat="43.096664" lon="-0.054855"><ele>385.63</ele><time>2011-09-15T08:47:14Z</time></trkpt><trkpt lat="43.096641" lon="-0.054891"><ele>385.63</ele><time>2011-09-15T08:47:15Z</time></trkpt><trkpt lat="43.096617" lon="-0.055281"><ele>385.15</ele><time>2011-09-15T08:47:25Z</time></trkpt><trkpt lat="43.096646" lon="-0.055416"><ele>391.39</ele><time>2011-09-15T08:47:36Z</time></trkpt><trkpt lat="43.096667" lon="-0.055555"><ele>392.84</ele><time>2011-09-15T08:47:43Z</time></trkpt><trkpt lat="43.096656" lon="-0.055597"><ele>399.08</ele><time>2011-09-15T08:48:07Z</time></trkpt><trkpt lat="43.096656" lon="-0.055796"><ele>400.53</ele><time>2011-09-15T08:48:16Z</time></trkpt><trkpt lat="43.096598" lon="-0.055824"><ele>407.26</ele><time>2011-09-15T08:48:27Z</time></trkpt><trkpt lat="43.096603" lon="-0.055802"><ele>416.39</ele><time>2011-09-15T08:49:26Z</time></trkpt></trkseg><trkseg><trkpt lat="43.096828" lon="-0.055840"><ele>355.83</ele><time>2011-09-15T09:59:22Z</time></trkpt><trkpt lat="43.096721" lon="-0.055765"><ele>381.78</ele><time>2011-09-15T10:02:55Z</time></trkpt><trkpt lat="43.096716" lon="-0.055771"><ele>382.26</ele><time>2011-09-15T10:03:12Z</time></trkpt><trkpt lat="43.096641" lon="-0.055745"><ele>381.30</ele><time>2011-09-15T10:03:20Z</time></trkpt><trkpt lat="43.096595" lon="-0.055371"><ele>379.38</ele><time>2011-09-15T10:03:34Z</time></trkpt><trkpt lat="43.096636" lon="-0.054743"><ele>380.82</ele><time>2011-09-15T10:03:45Z</time></trkpt><trkpt lat="43.096675" lon="-0.054665"><ele>378.90</ele><time>2011-09-15T10:03:56Z</time></trkpt><trkpt lat="43.096695" lon="-0.054523"><ele>379.86</ele><time>2011-09-15T10:04:10Z</time></trkpt><trkpt lat="43.096751" lon="-0.054296"><ele>380.34</ele><time>2011-09-15T10:04:18Z</time></trkpt><trkpt lat="43.096819" lon="-0.053743"><ele>378.42</ele><time>2011-09-15T10:04:28Z</time></trkpt><trkpt lat="43.096868" lon="-0.053050"><ele>377.94</ele><time>2011-09-15T10:04:39Z</time></trkpt><trkpt lat="43.097023" lon="-0.052213"><ele>375.53</ele><time>2011-09-15T10:04:51Z</time></trkpt><trkpt lat="43.097058" lon="-0.052159"><ele>375.53</ele><time>2011-09-15T10:04:52Z</time></trkpt><trkpt lat="43.097095" lon="-0.052109"><ele>375.53</ele><time>2011-09-15T10:04:53Z</time></trkpt><trkpt lat="43.097134" lon="-0.052063"><ele>376.01</ele><time>2011-09-15T10:04:54Z</time></trkpt><trkpt lat="43.097174" lon="-0.052021"><ele>376.01</ele><time>2011-09-15T10:04:55Z</time></trkpt><trkpt lat="43.097265" lon="-0.051939"><ele>376.01</ele><time>2011-09-15T10:04:57Z</time></trkpt><trkpt lat="43.097317" lon="-0.051906"><ele>376.49</ele><time>2011-09-15T10:04:58Z</time></trkpt><trkpt lat="43.097374" lon="-0.051881"><ele>376.49</ele><time>2011-09-15T10:04:59Z</time></trkpt><trkpt lat="43.097434" lon="-0.051867"><ele>376.49</ele><time>2011-09-15T10:05:00Z</time></trkpt><trkpt lat="43.097496" lon="-0.051858"><ele>376.97</ele><time>2011-09-15T10:05:01Z</time></trkpt><trkpt lat="43.097562" lon="-0.051855"><ele>377.45</ele><time>2011-09-15T10:05:02Z</time></trkpt><trkpt lat="43.097632" lon="-0.051850"><ele>377.94</ele><time>2011-09-15T10:05:03Z</time></trkpt><trkpt lat="43.097782" lon="-0.051828"><ele>378.42</ele><time>2011-09-15T10:05:05Z</time></trkpt><trkpt lat="43.097848" lon="-0.051803"><ele>378.90</ele><time>2011-09-15T10:05:06Z</time></trkpt><trkpt lat="43.097910" lon="-0.051765"><ele>378.90</ele><time>2011-09-15T10:05:07Z</time></trkpt><trkpt lat="43.097967" lon="-0.051708"><ele>379.38</ele><time>2011-09-15T10:05:08Z</time></trkpt><trkpt lat="43.098017" lon="-0.051637"><ele>379.86</ele><time>2011-09-15T10:05:09Z</time></trkpt><trkpt lat="43.098060" lon="-0.051558"><ele>380.34</ele><time>2011-09-15T10:05:10Z</time></trkpt><trkpt lat="43.098092" lon="-0.051478"><ele>380.34</ele><time>2011-09-15T10:05:11Z</time></trkpt><trkpt lat="43.098112" lon="-0.051400"><ele>380.82</ele><time>2011-09-15T10:05:12Z</time></trkpt><trkpt lat="43.098124" lon="-0.051325"><ele>381.30</ele><time>2011-09-15T10:05:13Z</time></trkpt><trkpt lat="43.098132" lon="-0.051252"><ele>381.30</ele><time>2011-09-15T10:05:14Z</time></trkpt><trkpt lat="43.098222" lon="-0.050309"><ele>382.26</ele><time>2011-09-15T10:05:30Z</time></trkpt><trkpt lat="43.098360" lon="-0.049817"><ele>387.07</ele><time>2011-09-15T10:05:41Z</time></trkpt><trkpt lat="43.098519" lon="-0.049266"><ele>385.63</ele><time>2011-09-15T10:05:53Z</time></trkpt><trkpt lat="43.098479" lon="-0.048746"><ele>385.63</ele><time>2011-09-15T10:06:04Z</time></trkpt><trkpt lat="43.098371" lon="-0.048275"><ele>390.91</ele><time>2011-09-15T10:06:14Z</time></trkpt><trkpt lat="43.098320" lon="-0.047860"><ele>398.12</ele><time>2011-09-15T10:06:22Z</time></trkpt><trkpt lat="43.098286" lon="-0.047744"><ele>398.12</ele><time>2011-09-15T10:06:24Z</time></trkpt><trkpt lat="43.098267" lon="-0.047686"><ele>398.12</ele><time>2011-09-15T10:06:25Z</time></trkpt><trkpt lat="43.098249" lon="-0.047629"><ele>397.64</ele><time>2011-09-15T10:06:26Z</time></trkpt><trkpt lat="43.098157" lon="-0.047300"><ele>396.20</ele><time>2011-09-15T10:06:32Z</time></trkpt><trkpt lat="43.098152" lon="-0.047233"><ele>396.20</ele><time>2011-09-15T10:06:33Z</time></trkpt><trkpt lat="43.098171" lon="-0.046977"><ele>394.28</ele><time>2011-09-15T10:06:37Z</time></trkpt><trkpt lat="43.098178" lon="-0.046922"><ele>394.28</ele><time>2011-09-15T10:06:38Z</time></trkpt><trkpt lat="43.098167" lon="-0.046517"><ele>395.72</ele><time>2011-09-15T10:06:46Z</time></trkpt><trkpt lat="43.098163" lon="-0.046444"><ele>396.20</ele><time>2011-09-15T10:06:47Z</time></trkpt><trkpt lat="43.098156" lon="-0.046370"><ele>396.20</ele><time>2011-09-15T10:06:48Z</time></trkpt><trkpt lat="43.098117" lon="-0.045674"><ele>401.01</ele><time>2011-09-15T10:06:56Z</time></trkpt><trkpt lat="43.098070" lon="-0.044921"><ele>398.12</ele><time>2011-09-15T10:07:04Z</time></trkpt><trkpt lat="43.098074" lon="-0.044837"><ele>397.64</ele><time>2011-09-15T10:07:05Z</time></trkpt><trkpt lat="43.098084" lon="-0.044764"><ele>397.64</ele><time>2011-09-15T10:07:06Z</time></trkpt><trkpt lat="43.098096" lon="-0.044706"><ele>397.16</ele><time>2011-09-15T10:07:07Z</time></trkpt><trkpt lat="43.098108" lon="-0.044658"><ele>397.16</ele><time>2011-09-15T10:07:08Z</time></trkpt><trkpt lat="43.098341" lon="-0.044119"><ele>396.20</ele><time>2011-09-15T10:07:17Z</time></trkpt><trkpt lat="43.098371" lon="-0.044056"><ele>396.20</ele><time>2011-09-15T10:07:18Z</time></trkpt><trkpt lat="43.098393" lon="-0.043984"><ele>396.68</ele><time>2011-09-15T10:07:19Z</time></trkpt><trkpt lat="43.098404" lon="-0.043905"><ele>396.68</ele><time>2011-09-15T10:07:20Z</time></trkpt><trkpt lat="43.098405" lon="-0.043818"><ele>396.68</ele><time>2011-09-15T10:07:21Z</time></trkpt><trkpt lat="43.098401" lon="-0.043726"><ele>397.16</ele><time>2011-09-15T10:07:22Z</time></trkpt><trkpt lat="43.098331" lon="-0.042591"><ele>397.64</ele><time>2011-09-15T10:07:34Z</time></trkpt><trkpt lat="43.098410" lon="-0.041190"><ele>396.68</ele><time>2011-09-15T10:07:45Z</time></trkpt><trkpt lat="43.098519" lon="-0.040606"><ele>397.16</ele><time>2011-09-15T10:07:50Z</time></trkpt><trkpt lat="43.098518" lon="-0.040486"><ele>397.16</ele><time>2011-09-15T10:07:51Z</time></trkpt><trkpt lat="43.098501" lon="-0.040366"><ele>397.16</ele><time>2011-09-15T10:07:52Z</time></trkpt><trkpt lat="43.098464" lon="-0.040249"><ele>397.16</ele><time>2011-09-15T10:07:53Z</time></trkpt><trkpt lat="43.098415" lon="-0.040139"><ele>397.16</ele><time>2011-09-15T10:07:54Z</time></trkpt><trkpt lat="43.098358" lon="-0.040033"><ele>397.64</ele><time>2011-09-15T10:07:55Z</time></trkpt><trkpt lat="43.098298" lon="-0.039927"><ele>397.64</ele><time>2011-09-15T10:07:56Z</time></trkpt><trkpt lat="43.097973" lon="-0.039428"><ele>398.12</ele><time>2011-09-15T10:08:02Z</time></trkpt><trkpt lat="43.097935" lon="-0.039407"><ele>398.12</ele><time>2011-09-15T10:08:03Z</time></trkpt><trkpt lat="43.097900" lon="-0.039398"><ele>398.12</ele><time>2011-09-15T10:08:04Z</time></trkpt><trkpt lat="43.097865" lon="-0.039401"><ele>398.12</ele><time>2011-09-15T10:08:05Z</time></trkpt><trkpt lat="43.097771" lon="-0.039540"><ele>398.12</ele><time>2011-09-15T10:08:09Z</time></trkpt><trkpt lat="43.097771" lon="-0.039598"><ele>398.60</ele><time>2011-09-15T10:08:10Z</time></trkpt><trkpt lat="43.097777" lon="-0.039653"><ele>398.60</ele><time>2011-09-15T10:08:11Z</time></trkpt><trkpt lat="43.097781" lon="-0.039701"><ele>398.60</ele><time>2011-09-15T10:08:12Z</time></trkpt><trkpt lat="43.097777" lon="-0.039742"><ele>398.60</ele><time>2011-09-15T10:08:13Z</time></trkpt><trkpt lat="43.097683" lon="-0.039747"><ele>398.12</ele><time>2011-09-15T10:08:19Z</time></trkpt><trkpt lat="43.097680" lon="-0.039678"><ele>397.64</ele><time>2011-09-15T10:08:34Z</time></trkpt><trkpt lat="43.097690" lon="-0.039698"><ele>394.76</ele><time>2011-09-15T10:09:02Z</time></trkpt></trkseg></trk><trk><name>ACTIVE LOG: 15 SEP 2011 12:31</name><trkseg><trkpt lat="43.097695" lon="-0.039685"><ele>394.28</ele><time>2011-09-15T10:31:42Z</time></trkpt><trkpt lat="43.097794" lon="-0.039529"><ele>396.68</ele><time>2011-09-15T10:36:49Z</time></trkpt><trkpt lat="43.097816" lon="-0.039366"><ele>396.20</ele><time>2011-09-15T10:36:52Z</time></trkpt><trkpt lat="43.097813" lon="-0.039310"><ele>396.20</ele><time>2011-09-15T10:36:53Z</time></trkpt><trkpt lat="43.097802" lon="-0.039257"><ele>396.20</ele><time>2011-09-15T10:36:54Z</time></trkpt><trkpt lat="43.097790" lon="-0.039207"><ele>395.72</ele><time>2011-09-15T10:36:55Z</time></trkpt><trkpt lat="43.097778" lon="-0.039161"><ele>395.24</ele><time>2011-09-15T10:36:56Z</time></trkpt><trkpt lat="43.097708" lon="-0.038964"><ele>395.24</ele><time>2011-09-15T10:37:00Z</time></trkpt><trkpt lat="43.097665" lon="-0.038909"><ele>395.72</ele><time>2011-09-15T10:37:01Z</time></trkpt><trkpt lat="43.097607" lon="-0.038855"><ele>395.72</ele><time>2011-09-15T10:37:02Z</time></trkpt><trkpt lat="43.097316" lon="-0.038613"><ele>396.68</ele><time>2011-09-15T10:37:07Z</time></trkpt><trkpt lat="43.097253" lon="-0.038590"><ele>397.16</ele><time>2011-09-15T10:37:08Z</time></trkpt><trkpt lat="43.097183" lon="-0.038595"><ele>397.16</ele><time>2011-09-15T10:37:09Z</time></trkpt><trkpt lat="43.097114" lon="-0.038627"><ele>397.16</ele><time>2011-09-15T10:37:10Z</time></trkpt><trkpt lat="43.097049" lon="-0.038679"><ele>397.16</ele><time>2011-09-15T10:37:11Z</time></trkpt><trkpt lat="43.096990" lon="-0.038745"><ele>397.64</ele><time>2011-09-15T10:37:12Z</time></trkpt><trkpt lat="43.096942" lon="-0.038819"><ele>397.64</ele><time>2011-09-15T10:37:13Z</time></trkpt><trkpt lat="43.096913" lon="-0.038899"><ele>398.12</ele><time>2011-09-15T10:37:14Z</time></trkpt><trkpt lat="43.096901" lon="-0.038986"><ele>398.12</ele><time>2011-09-15T10:37:15Z</time></trkpt><trkpt lat="43.096900" lon="-0.039079"><ele>398.60</ele><time>2011-09-15T10:37:16Z</time></trkpt><trkpt lat="43.096902" lon="-0.039174"><ele>398.60</ele><time>2011-09-15T10:37:17Z</time></trkpt><trkpt lat="43.096900" lon="-0.039450"><ele>400.53</ele><time>2011-09-15T10:37:20Z</time></trkpt><trkpt lat="43.096890" lon="-0.039511"><ele>401.01</ele><time>2011-09-15T10:37:21Z</time></trkpt><trkpt lat="43.096871" lon="-0.039595"><ele>402.45</ele><time>2011-09-15T10:37:29Z</time></trkpt><trkpt lat="43.096898" lon="-0.039808"><ele>401.01</ele><time>2011-09-15T10:37:47Z</time></trkpt><trkpt lat="43.096969" lon="-0.040977"><ele>401.97</ele><time>2011-09-15T10:37:58Z</time></trkpt><trkpt lat="43.096965" lon="-0.041052"><ele>401.97</ele><time>2011-09-15T10:37:59Z</time></trkpt><trkpt lat="43.096953" lon="-0.041109"><ele>402.45</ele><time>2011-09-15T10:38:00Z</time></trkpt><trkpt lat="43.096928" lon="-0.041146"><ele>402.93</ele><time>2011-09-15T10:38:01Z</time></trkpt><trkpt lat="43.096891" lon="-0.041169"><ele>402.93</ele><time>2011-09-15T10:38:02Z</time></trkpt><trkpt lat="43.096843" lon="-0.041183"><ele>403.41</ele><time>2011-09-15T10:38:03Z</time></trkpt><trkpt lat="43.096786" lon="-0.041186"><ele>403.41</ele><time>2011-09-15T10:38:04Z</time></trkpt><trkpt lat="43.096728" lon="-0.041191"><ele>404.37</ele><time>2011-09-15T10:38:05Z</time></trkpt><trkpt lat="43.096668" lon="-0.041210"><ele>405.33</ele><time>2011-09-15T10:38:06Z</time></trkpt><trkpt lat="43.096605" lon="-0.041229"><ele>405.81</ele><time>2011-09-15T10:38:07Z</time></trkpt><trkpt lat="43.095690" lon="-0.041480"><ele>406.77</ele><time>2011-09-15T10:38:19Z</time></trkpt><trkpt lat="43.095458" lon="-0.041517"><ele>406.29</ele><time>2011-09-15T10:38:27Z</time></trkpt><trkpt lat="43.095441" lon="-0.041501"><ele>405.81</ele><time>2011-09-15T10:38:28Z</time></trkpt><trkpt lat="43.095419" lon="-0.041446"><ele>406.29</ele><time>2011-09-15T10:38:29Z</time></trkpt><trkpt lat="43.095391" lon="-0.041377"><ele>406.29</ele><time>2011-09-15T10:38:30Z</time></trkpt><trkpt lat="43.095371" lon="-0.041250"><ele>407.26</ele><time>2011-09-15T10:38:31Z</time></trkpt><trkpt lat="43.094974" lon="-0.040138"><ele>407.74</ele><time>2011-09-15T10:38:42Z</time></trkpt><trkpt lat="43.094930" lon="-0.040076"><ele>405.81</ele><time>2011-09-15T10:38:49Z</time></trkpt><trkpt lat="43.094886" lon="-0.039994"><ele>404.37</ele><time>2011-09-15T10:38:55Z</time></trkpt><trkpt lat="43.094849" lon="-0.039950"><ele>403.89</ele><time>2011-09-15T10:38:56Z</time></trkpt><trkpt lat="43.094788" lon="-0.039971"><ele>403.41</ele><time>2011-09-15T10:38:57Z</time></trkpt><trkpt lat="43.094735" lon="-0.040027"><ele>403.41</ele><time>2011-09-15T10:38:58Z</time></trkpt><trkpt lat="43.094693" lon="-0.040105"><ele>402.93</ele><time>2011-09-15T10:38:59Z</time></trkpt><trkpt lat="43.094660" lon="-0.040187"><ele>402.93</ele><time>2011-09-15T10:39:00Z</time></trkpt><trkpt lat="43.094629" lon="-0.040271"><ele>402.93</ele><time>2011-09-15T10:39:01Z</time></trkpt><trkpt lat="43.094268" lon="-0.041157"><ele>402.45</ele><time>2011-09-15T10:39:09Z</time></trkpt><trkpt lat="43.093973" lon="-0.041923"><ele>401.01</ele><time>2011-09-15T10:39:16Z</time></trkpt><trkpt lat="43.093969" lon="-0.042006"><ele>401.01</ele><time>2011-09-15T10:39:17Z</time></trkpt><trkpt lat="43.093964" lon="-0.042083"><ele>401.01</ele><time>2011-09-15T10:39:18Z</time></trkpt><trkpt lat="43.093941" lon="-0.042154"><ele>401.01</ele><time>2011-09-15T10:39:19Z</time></trkpt><trkpt lat="43.093903" lon="-0.042221"><ele>400.53</ele><time>2011-09-15T10:39:20Z</time></trkpt><trkpt lat="43.093865" lon="-0.042289"><ele>400.53</ele><time>2011-09-15T10:39:21Z</time></trkpt><trkpt lat="43.093837" lon="-0.042356"><ele>400.05</ele><time>2011-09-15T10:39:22Z</time></trkpt><trkpt lat="43.093818" lon="-0.042421"><ele>400.05</ele><time>2011-09-15T10:39:23Z</time></trkpt><trkpt lat="43.093799" lon="-0.042483"><ele>400.05</ele><time>2011-09-15T10:39:24Z</time></trkpt><trkpt lat="43.093769" lon="-0.042525"><ele>400.05</ele><time>2011-09-15T10:39:25Z</time></trkpt><trkpt lat="43.093743" lon="-0.042544"><ele>400.05</ele><time>2011-09-15T10:39:26Z</time></trkpt><trkpt lat="43.093723" lon="-0.042531"><ele>399.57</ele><time>2011-09-15T10:39:27Z</time></trkpt><trkpt lat="43.093719" lon="-0.042491"><ele>400.05</ele><time>2011-09-15T10:39:28Z</time></trkpt><trkpt lat="43.093720" lon="-0.042434"><ele>400.53</ele><time>2011-09-15T10:39:29Z</time></trkpt><trkpt lat="43.093717" lon="-0.042366"><ele>400.53</ele><time>2011-09-15T10:39:30Z</time></trkpt><trkpt lat="43.093700" lon="-0.042295"><ele>401.01</ele><time>2011-09-15T10:39:31Z</time></trkpt><trkpt lat="43.093675" lon="-0.042228"><ele>401.01</ele><time>2011-09-15T10:39:32Z</time></trkpt><trkpt lat="43.093641" lon="-0.042174"><ele>401.49</ele><time>2011-09-15T10:39:33Z</time></trkpt><trkpt lat="43.093574" lon="-0.042142"><ele>402.45</ele><time>2011-09-15T10:39:34Z</time></trkpt><trkpt lat="43.093488" lon="-0.042118"><ele>403.41</ele><time>2011-09-15T10:39:35Z</time></trkpt><trkpt lat="43.093417" lon="-0.042100"><ele>404.37</ele><time>2011-09-15T10:39:36Z</time></trkpt><trkpt lat="43.093249" lon="-0.042053"><ele>406.29</ele><time>2011-09-15T10:39:39Z</time></trkpt><trkpt lat="43.093191" lon="-0.042070"><ele>404.85</ele><time>2011-09-15T10:39:40Z</time></trkpt><trkpt lat="43.093125" lon="-0.042102"><ele>404.37</ele><time>2011-09-15T10:39:41Z</time></trkpt><trkpt lat="43.092822" lon="-0.042261"><ele>400.53</ele><time>2011-09-15T10:39:45Z</time></trkpt><trkpt lat="43.092784" lon="-0.042275"><ele>400.53</ele><time>2011-09-15T10:39:46Z</time></trkpt><trkpt lat="43.092769" lon="-0.042278"><ele>400.05</ele><time>2011-09-15T10:39:47Z</time></trkpt><trkpt lat="43.092755" lon="-0.042270"><ele>399.57</ele><time>2011-09-15T10:39:48Z</time></trkpt><trkpt lat="43.092745" lon="-0.042248"><ele>399.57</ele><time>2011-09-15T10:39:49Z</time></trkpt><trkpt lat="43.092744" lon="-0.042209"><ele>399.57</ele><time>2011-09-15T10:39:50Z</time></trkpt><trkpt lat="43.092747" lon="-0.042149"><ele>400.05</ele><time>2011-09-15T10:39:51Z</time></trkpt><trkpt lat="43.092741" lon="-0.041180"><ele>404.37</ele><time>2011-09-15T10:40:00Z</time></trkpt><trkpt lat="43.092733" lon="-0.040993"><ele>405.33</ele><time>2011-09-15T10:40:02Z</time></trkpt><trkpt lat="43.092719" lon="-0.040932"><ele>405.81</ele><time>2011-09-15T10:40:03Z</time></trkpt><trkpt lat="43.092691" lon="-0.040898"><ele>405.81</ele><time>2011-09-15T10:40:04Z</time></trkpt><trkpt lat="43.092652" lon="-0.040890"><ele>405.81</ele><time>2011-09-15T10:40:05Z</time></trkpt><trkpt lat="43.092600" lon="-0.040908"><ele>405.81</ele><time>2011-09-15T10:40:06Z</time></trkpt><trkpt lat="43.092535" lon="-0.040948"><ele>405.33</ele><time>2011-09-15T10:40:07Z</time></trkpt><trkpt lat="43.092467" lon="-0.041001"><ele>404.85</ele><time>2011-09-15T10:40:08Z</time></trkpt><trkpt lat="43.092401" lon="-0.041062"><ele>404.85</ele><time>2011-09-15T10:40:09Z</time></trkpt><trkpt lat="43.092337" lon="-0.041128"><ele>404.85</ele><time>2011-09-15T10:40:10Z</time></trkpt><trkpt lat="43.091824" lon="-0.041690"><ele>402.45</ele><time>2011-09-15T10:40:18Z</time></trkpt><trkpt lat="43.091770" lon="-0.041702"><ele>402.45</ele><time>2011-09-15T10:40:19Z</time></trkpt><trkpt lat="43.091718" lon="-0.041686"><ele>402.45</ele><time>2011-09-15T10:40:20Z</time></trkpt><trkpt lat="43.091667" lon="-0.041650"><ele>401.97</ele><time>2011-09-15T10:40:21Z</time></trkpt><trkpt lat="43.091615" lon="-0.041609"><ele>401.97</ele><time>2011-09-15T10:40:22Z</time></trkpt><trkpt lat="43.091558" lon="-0.041580"><ele>401.97</ele><time>2011-09-15T10:40:23Z</time></trkpt><trkpt lat="43.091496" lon="-0.041573"><ele>402.45</ele><time>2011-09-15T10:40:24Z</time></trkpt><trkpt lat="43.091433" lon="-0.041581"><ele>402.45</ele><time>2011-09-15T10:40:25Z</time></trkpt><trkpt lat="43.091372" lon="-0.041594"><ele>402.45</ele><time>2011-09-15T10:40:26Z</time></trkpt><trkpt lat="43.091252" lon="-0.041633"><ele>402.45</ele><time>2011-09-15T10:40:28Z</time></trkpt><trkpt lat="43.091182" lon="-0.041677"><ele>402.45</ele><time>2011-09-15T10:40:29Z</time></trkpt><trkpt lat="43.091101" lon="-0.041740"><ele>402.45</ele><time>2011-09-15T10:40:30Z</time></trkpt><trkpt lat="43.090215" lon="-0.042508"><ele>403.41</ele><time>2011-09-15T10:40:39Z</time></trkpt><trkpt lat="43.089047" lon="-0.043030"><ele>404.37</ele><time>2011-09-15T10:40:48Z</time></trkpt><trkpt lat="43.086744" lon="-0.043384"><ele>403.41</ele><time>2011-09-15T10:41:05Z</time></trkpt><trkpt lat="43.085274" lon="-0.043818"><ele>405.81</ele><time>2011-09-15T10:41:17Z</time></trkpt><trkpt lat="43.083839" lon="-0.044440"><ele>408.70</ele><time>2011-09-15T10:41:30Z</time></trkpt><trkpt lat="43.083254" lon="-0.044499"><ele>410.62</ele><time>2011-09-15T10:41:36Z</time></trkpt><trkpt lat="43.083211" lon="-0.044555"><ele>411.10</ele><time>2011-09-15T10:41:37Z</time></trkpt><trkpt lat="43.083179" lon="-0.044614"><ele>412.06</ele><time>2011-09-15T10:41:38Z</time></trkpt><trkpt lat="43.083160" lon="-0.044702"><ele>412.06</ele><time>2011-09-15T10:41:39Z</time></trkpt><trkpt lat="43.083129" lon="-0.044786"><ele>412.06</ele><time>2011-09-15T10:41:40Z</time></trkpt><trkpt lat="43.083081" lon="-0.044855"><ele>412.54</ele><time>2011-09-15T10:41:41Z</time></trkpt><trkpt lat="43.083027" lon="-0.044906"><ele>412.54</ele><time>2011-09-15T10:41:42Z</time></trkpt><trkpt lat="43.082963" lon="-0.044926"><ele>412.54</ele><time>2011-09-15T10:41:43Z</time></trkpt><trkpt lat="43.082900" lon="-0.044919"><ele>413.02</ele><time>2011-09-15T10:41:44Z</time></trkpt><trkpt lat="43.082837" lon="-0.044891"><ele>413.02</ele><time>2011-09-15T10:41:45Z</time></trkpt><trkpt lat="43.082771" lon="-0.044852"><ele>412.54</ele><time>2011-09-15T10:41:46Z</time></trkpt><trkpt lat="43.082695" lon="-0.044819"><ele>412.54</ele><time>2011-09-15T10:41:47Z</time></trkpt><trkpt lat="43.082606" lon="-0.044808"><ele>412.06</ele><time>2011-09-15T10:41:48Z</time></trkpt><trkpt lat="43.082500" lon="-0.044814"><ele>412.06</ele><time>2011-09-15T10:41:49Z</time></trkpt><trkpt lat="43.081573" lon="-0.044890"><ele>409.66</ele><time>2011-09-15T10:41:55Z</time></trkpt><trkpt lat="43.080215" lon="-0.044796"><ele>405.81</ele><time>2011-09-15T10:42:01Z</time></trkpt><trkpt lat="43.078003" lon="-0.044162"><ele>407.74</ele><time>2011-09-15T10:42:10Z</time></trkpt><trkpt lat="43.074666" lon="-0.042868"><ele>416.39</ele><time>2011-09-15T10:42:24Z</time></trkpt><trkpt lat="43.073176" lon="-0.042861"><ele>414.47</ele><time>2011-09-15T10:42:30Z</time></trkpt><trkpt lat="43.071817" lon="-0.043520"><ele>409.66</ele><time>2011-09-15T10:42:36Z</time></trkpt><trkpt lat="43.070460" lon="-0.043815"><ele>402.45</ele><time>2011-09-15T10:42:42Z</time></trkpt><trkpt lat="43.069300" lon="-0.043435"><ele>396.20</ele><time>2011-09-15T10:42:47Z</time></trkpt><trkpt lat="43.067650" lon="-0.042197"><ele>388.99</ele><time>2011-09-15T10:42:55Z</time></trkpt><trkpt lat="43.066283" lon="-0.041845"><ele>390.91</ele><time>2011-09-15T10:43:01Z</time></trkpt><trkpt lat="43.064429" lon="-0.041978"><ele>390.91</ele><time>2011-09-15T10:43:08Z</time></trkpt><trkpt lat="43.061500" lon="-0.042623"><ele>390.43</ele><time>2011-09-15T10:43:19Z</time></trkpt><trkpt lat="43.059216" lon="-0.043922"><ele>391.87</ele><time>2011-09-15T10:43:28Z</time></trkpt><trkpt lat="43.057396" lon="-0.045742"><ele>395.24</ele><time>2011-09-15T10:43:36Z</time></trkpt><trkpt lat="43.053652" lon="-0.050323"><ele>398.60</ele><time>2011-09-15T10:43:54Z</time></trkpt><trkpt lat="43.049970" lon="-0.054818"><ele>408.70</ele><time>2011-09-15T10:44:11Z</time></trkpt><trkpt lat="43.048759" lon="-0.056906"><ele>413.02</ele><time>2011-09-15T10:44:18Z</time></trkpt><trkpt lat="43.047291" lon="-0.058556"><ele>413.98</ele><time>2011-09-15T10:44:25Z</time></trkpt><trkpt lat="43.043483" lon="-0.062296"><ele>412.06</ele><time>2011-09-15T10:44:42Z</time></trkpt><trkpt lat="43.041644" lon="-0.064228"><ele>406.29</ele><time>2011-09-15T10:44:51Z</time></trkpt><trkpt lat="43.040157" lon="-0.064918"><ele>404.85</ele><time>2011-09-15T10:44:57Z</time></trkpt><trkpt lat="43.038562" lon="-0.064943"><ele>405.33</ele><time>2011-09-15T10:45:03Z</time></trkpt><trkpt lat="43.036699" lon="-0.064285"><ele>406.29</ele><time>2011-09-15T10:45:10Z</time></trkpt><trkpt lat="43.034294" lon="-0.063800"><ele>405.33</ele><time>2011-09-15T10:45:19Z</time></trkpt><trkpt lat="43.032691" lon="-0.064244"><ele>405.33</ele><time>2011-09-15T10:45:25Z</time></trkpt><trkpt lat="43.031220" lon="-0.065319"><ele>405.81</ele><time>2011-09-15T10:45:31Z</time></trkpt><trkpt lat="43.030011" lon="-0.066966"><ele>406.29</ele><time>2011-09-15T10:45:37Z</time></trkpt><trkpt lat="43.029214" lon="-0.069061"><ele>409.18</ele><time>2011-09-15T10:45:43Z</time></trkpt><trkpt lat="43.028821" lon="-0.071698"><ele>413.02</ele><time>2011-09-15T10:45:50Z</time></trkpt><trkpt lat="43.027433" lon="-0.080650"><ele>413.98</ele><time>2011-09-15T10:46:15Z</time></trkpt><trkpt lat="43.026395" lon="-0.082381"><ele>414.95</ele><time>2011-09-15T10:46:21Z</time></trkpt><trkpt lat="43.024988" lon="-0.083627"><ele>416.39</ele><time>2011-09-15T10:46:27Z</time></trkpt><trkpt lat="43.022741" lon="-0.084918"><ele>418.31</ele><time>2011-09-15T10:46:35Z</time></trkpt><trkpt lat="43.019755" lon="-0.086624"><ele>417.35</ele><time>2011-09-15T10:46:46Z</time></trkpt><trkpt lat="43.017847" lon="-0.087298"><ele>418.79</ele><time>2011-09-15T10:46:53Z</time></trkpt><trkpt lat="43.015870" lon="-0.087317"><ele>419.27</ele><time>2011-09-15T10:47:00Z</time></trkpt><trkpt lat="43.014158" lon="-0.086903"><ele>422.16</ele><time>2011-09-15T10:47:07Z</time></trkpt><trkpt lat="43.013261" lon="-0.086691"><ele>423.60</ele><time>2011-09-15T10:47:13Z</time></trkpt><trkpt lat="43.013158" lon="-0.086688"><ele>423.60</ele><time>2011-09-15T10:47:14Z</time></trkpt><trkpt lat="43.013064" lon="-0.086706"><ele>424.08</ele><time>2011-09-15T10:47:15Z</time></trkpt><trkpt lat="43.012974" lon="-0.086724"><ele>424.08</ele><time>2011-09-15T10:47:16Z</time></trkpt><trkpt lat="43.012910" lon="-0.086687"><ele>423.60</ele><time>2011-09-15T10:47:17Z</time></trkpt><trkpt lat="43.012831" lon="-0.086623"><ele>424.08</ele><time>2011-09-15T10:47:18Z</time></trkpt><trkpt lat="43.012743" lon="-0.086546"><ele>423.60</ele><time>2011-09-15T10:47:19Z</time></trkpt><trkpt lat="43.012633" lon="-0.086483"><ele>423.60</ele><time>2011-09-15T10:47:20Z</time></trkpt><trkpt lat="43.012500" lon="-0.086442"><ele>424.08</ele><time>2011-09-15T10:47:21Z</time></trkpt><trkpt lat="43.011312" lon="-0.086184"><ele>424.08</ele><time>2011-09-15T10:47:28Z</time></trkpt><trkpt lat="43.009417" lon="-0.085763"><ele>424.56</ele><time>2011-09-15T10:47:37Z</time></trkpt><trkpt lat="43.006972" lon="-0.085164"><ele>425.52</ele><time>2011-09-15T10:47:49Z</time></trkpt><trkpt lat="43.006796" lon="-0.085059"><ele>426.00</ele><time>2011-09-15T10:47:50Z</time></trkpt><trkpt lat="43.006626" lon="-0.084935"><ele>426.00</ele><time>2011-09-15T10:47:51Z</time></trkpt><trkpt lat="43.006466" lon="-0.084794"><ele>426.00</ele><time>2011-09-15T10:47:52Z</time></trkpt><trkpt lat="43.006314" lon="-0.084638"><ele>426.00</ele><time>2011-09-15T10:47:53Z</time></trkpt><trkpt lat="43.006171" lon="-0.084464"><ele>426.00</ele><time>2011-09-15T10:47:54Z</time></trkpt><trkpt lat="43.006039" lon="-0.084278"><ele>425.52</ele><time>2011-09-15T10:47:55Z</time></trkpt><trkpt lat="43.005919" lon="-0.084087"><ele>425.52</ele><time>2011-09-15T10:47:56Z</time></trkpt><trkpt lat="43.005812" lon="-0.083893"><ele>425.52</ele><time>2011-09-15T10:47:57Z</time></trkpt><trkpt lat="43.005348" lon="-0.083045"><ele>426.00</ele><time>2011-09-15T10:48:03Z</time></trkpt><trkpt lat="43.005275" lon="-0.083006"><ele>426.00</ele><time>2011-09-15T10:48:04Z</time></trkpt><trkpt lat="43.005201" lon="-0.082975"><ele>426.00</ele><time>2011-09-15T10:48:05Z</time></trkpt><trkpt lat="43.005132" lon="-0.082928"><ele>426.00</ele><time>2011-09-15T10:48:06Z</time></trkpt><trkpt lat="43.005076" lon="-0.082858"><ele>425.52</ele><time>2011-09-15T10:48:07Z</time></trkpt><trkpt lat="43.005035" lon="-0.082770"><ele>425.52</ele><time>2011-09-15T10:48:08Z</time></trkpt><trkpt lat="43.005020" lon="-0.082671"><ele>425.52</ele><time>2011-09-15T10:48:09Z</time></trkpt><trkpt lat="43.005032" lon="-0.082574"><ele>426.00</ele><time>2011-09-15T10:48:10Z</time></trkpt><trkpt lat="43.005079" lon="-0.082492"><ele>426.00</ele><time>2011-09-15T10:48:11Z</time></trkpt><trkpt lat="43.005146" lon="-0.082435"><ele>426.48</ele><time>2011-09-15T10:48:12Z</time></trkpt><trkpt lat="43.005225" lon="-0.082395"><ele>426.48</ele><time>2011-09-15T10:48:13Z</time></trkpt><trkpt lat="43.005303" lon="-0.082352"><ele>426.48</ele><time>2011-09-15T10:48:14Z</time></trkpt><trkpt lat="43.005368" lon="-0.082283"><ele>426.96</ele><time>2011-09-15T10:48:15Z</time></trkpt><trkpt lat="43.005412" lon="-0.082190"><ele>427.44</ele><time>2011-09-15T10:48:16Z</time></trkpt><trkpt lat="43.005429" lon="-0.082076"><ele>427.44</ele><time>2011-09-15T10:48:17Z</time></trkpt><trkpt lat="43.005432" lon="-0.081951"><ele>427.92</ele><time>2011-09-15T10:48:18Z</time></trkpt><trkpt lat="43.005429" lon="-0.081817"><ele>427.92</ele><time>2011-09-15T10:48:19Z</time></trkpt><trkpt lat="43.005373" lon="-0.080969"><ele>428.89</ele><time>2011-09-15T10:48:25Z</time></trkpt><trkpt lat="43.005329" lon="-0.080839"><ele>429.37</ele><time>2011-09-15T10:48:26Z</time></trkpt><trkpt lat="43.005264" lon="-0.080708"><ele>429.37</ele><time>2011-09-15T10:48:27Z</time></trkpt><trkpt lat="43.005185" lon="-0.080578"><ele>429.85</ele><time>2011-09-15T10:48:28Z</time></trkpt><trkpt lat="43.005104" lon="-0.080450"><ele>429.37</ele><time>2011-09-15T10:48:29Z</time></trkpt><trkpt lat="43.004507" lon="-0.079628"><ele>428.40</ele><time>2011-09-15T10:48:36Z</time></trkpt><trkpt lat="43.004390" lon="-0.079539"><ele>427.92</ele><time>2011-09-15T10:48:37Z</time></trkpt><trkpt lat="43.004263" lon="-0.079465"><ele>427.92</ele><time>2011-09-15T10:48:38Z</time></trkpt><trkpt lat="43.004124" lon="-0.079402"><ele>427.92</ele><time>2011-09-15T10:48:39Z</time></trkpt><trkpt lat="43.003975" lon="-0.079347"><ele>427.92</ele><time>2011-09-15T10:48:40Z</time></trkpt><trkpt lat="43.003815" lon="-0.079298"><ele>428.40</ele><time>2011-09-15T10:48:41Z</time></trkpt><trkpt lat="43.003646" lon="-0.079260"><ele>428.40</ele><time>2011-09-15T10:48:42Z</time></trkpt><trkpt lat="43.001574" lon="-0.078824"><ele>428.89</ele><time>2011-09-15T10:48:53Z</time></trkpt><trkpt lat="43.000047" lon="-0.078017"><ele>428.89</ele><time>2011-09-15T10:49:01Z</time></trkpt><trkpt lat="42.998548" lon="-0.077540"><ele>428.40</ele><time>2011-09-15T10:49:08Z</time></trkpt><trkpt lat="42.995880" lon="-0.077560"><ele>427.92</ele><time>2011-09-15T10:49:19Z</time></trkpt><trkpt lat="42.994383" lon="-0.077066"><ele>429.37</ele><time>2011-09-15T10:49:26Z</time></trkpt><trkpt lat="42.991610" lon="-0.075355"><ele>431.77</ele><time>2011-09-15T10:49:40Z</time></trkpt><trkpt lat="42.989514" lon="-0.073478"><ele>434.17</ele><time>2011-09-15T10:49:51Z</time></trkpt><trkpt lat="42.988051" lon="-0.072747"><ele>434.65</ele><time>2011-09-15T10:49:58Z</time></trkpt><trkpt lat="42.984403" lon="-0.071670"><ele>437.54</ele><time>2011-09-15T10:50:14Z</time></trkpt><trkpt lat="42.981275" lon="-0.070329"><ele>440.42</ele><time>2011-09-15T10:50:28Z</time></trkpt><trkpt lat="42.978147" lon="-0.068954"><ele>444.75</ele><time>2011-09-15T10:50:43Z</time></trkpt><trkpt lat="42.975212" lon="-0.067411"><ele>446.67</ele><time>2011-09-15T10:50:57Z</time></trkpt><trkpt lat="42.973834" lon="-0.065746"><ele>447.63</ele><time>2011-09-15T10:51:05Z</time></trkpt><trkpt lat="42.972354" lon="-0.064347"><ele>449.55</ele><time>2011-09-15T10:51:13Z</time></trkpt><trkpt lat="42.969144" lon="-0.062109"><ele>456.28</ele><time>2011-09-15T10:51:29Z</time></trkpt><trkpt lat="42.966913" lon="-0.061228"><ele>460.13</ele><time>2011-09-15T10:51:39Z</time></trkpt><trkpt lat="42.965870" lon="-0.060597"><ele>455.80</ele><time>2011-09-15T10:51:44Z</time></trkpt><trkpt lat="42.965663" lon="-0.060548"><ele>455.32</ele><time>2011-09-15T10:51:45Z</time></trkpt><trkpt lat="42.965460" lon="-0.060549"><ele>454.84</ele><time>2011-09-15T10:51:46Z</time></trkpt><trkpt lat="42.965275" lon="-0.060635"><ele>457.72</ele><time>2011-09-15T10:51:47Z</time></trkpt><trkpt lat="42.965081" lon="-0.060733"><ele>458.21</ele><time>2011-09-15T10:51:48Z</time></trkpt><trkpt lat="42.964886" lon="-0.060851"><ele>458.69</ele><time>2011-09-15T10:51:49Z</time></trkpt><trkpt lat="42.964693" lon="-0.060996"><ele>459.65</ele><time>2011-09-15T10:51:50Z</time></trkpt><trkpt lat="42.962746" lon="-0.062586"><ele>464.45</ele><time>2011-09-15T10:52:00Z</time></trkpt><trkpt lat="42.961449" lon="-0.062968"><ele>464.93</ele><time>2011-09-15T10:52:06Z</time></trkpt><trkpt lat="42.959818" lon="-0.063096"><ele>466.86</ele><time>2011-09-15T10:52:14Z</time></trkpt><trkpt lat="42.959638" lon="-0.063165"><ele>466.86</ele><time>2011-09-15T10:52:15Z</time></trkpt><trkpt lat="42.959462" lon="-0.063253"><ele>467.34</ele><time>2011-09-15T10:52:16Z</time></trkpt><trkpt lat="42.958085" lon="-0.064280"><ele>469.74</ele><time>2011-09-15T10:52:25Z</time></trkpt><trkpt lat="42.957309" lon="-0.065409"><ele>471.18</ele><time>2011-09-15T10:52:32Z</time></trkpt><trkpt lat="42.957172" lon="-0.065544"><ele>471.66</ele><time>2011-09-15T10:52:33Z</time></trkpt><trkpt lat="42.957024" lon="-0.065655"><ele>471.66</ele><time>2011-09-15T10:52:34Z</time></trkpt><trkpt lat="42.956867" lon="-0.065734"><ele>471.66</ele><time>2011-09-15T10:52:35Z</time></trkpt><trkpt lat="42.956698" lon="-0.065775"><ele>472.14</ele><time>2011-09-15T10:52:36Z</time></trkpt><trkpt lat="42.956525" lon="-0.065792"><ele>472.14</ele><time>2011-09-15T10:52:37Z</time></trkpt><trkpt lat="42.956350" lon="-0.065798"><ele>472.63</ele><time>2011-09-15T10:52:38Z</time></trkpt><trkpt lat="42.955482" lon="-0.065703"><ele>475.99</ele><time>2011-09-15T10:52:43Z</time></trkpt><trkpt lat="42.955316" lon="-0.065629"><ele>476.47</ele><time>2011-09-15T10:52:44Z</time></trkpt><trkpt lat="42.954404" lon="-0.065086"><ele>482.72</ele><time>2011-09-15T10:52:50Z</time></trkpt><trkpt lat="42.954253" lon="-0.065038"><ele>483.20</ele><time>2011-09-15T10:52:51Z</time></trkpt><trkpt lat="42.954099" lon="-0.065020"><ele>483.68</ele><time>2011-09-15T10:52:52Z</time></trkpt><trkpt lat="42.953948" lon="-0.065036"><ele>484.16</ele><time>2011-09-15T10:52:53Z</time></trkpt><trkpt lat="42.953806" lon="-0.065084"><ele>484.16</ele><time>2011-09-15T10:52:54Z</time></trkpt><trkpt lat="42.953671" lon="-0.065156"><ele>484.64</ele><time>2011-09-15T10:52:55Z</time></trkpt><trkpt lat="42.953540" lon="-0.065249"><ele>484.64</ele><time>2011-09-15T10:52:56Z</time></trkpt><trkpt lat="42.953411" lon="-0.065361"><ele>484.64</ele><time>2011-09-15T10:52:57Z</time></trkpt><trkpt lat="42.953283" lon="-0.065486"><ele>484.64</ele><time>2011-09-15T10:52:58Z</time></trkpt><trkpt lat="42.952881" lon="-0.065867"><ele>483.20</ele><time>2011-09-15T10:53:01Z</time></trkpt><trkpt lat="42.952729" lon="-0.065970"><ele>482.24</ele><time>2011-09-15T10:53:02Z</time></trkpt><trkpt lat="42.952573" lon="-0.066055"><ele>481.28</ele><time>2011-09-15T10:53:03Z</time></trkpt><trkpt lat="42.951718" lon="-0.066521"><ele>479.84</ele><time>2011-09-15T10:53:09Z</time></trkpt><trkpt lat="42.951600" lon="-0.066637"><ele>480.32</ele><time>2011-09-15T10:53:10Z</time></trkpt><trkpt lat="42.951060" lon="-0.067335"><ele>482.72</ele><time>2011-09-15T10:53:16Z</time></trkpt><trkpt lat="42.951016" lon="-0.067441"><ele>483.20</ele><time>2011-09-15T10:53:17Z</time></trkpt><trkpt lat="42.950987" lon="-0.067551"><ele>483.68</ele><time>2011-09-15T10:53:18Z</time></trkpt><trkpt lat="42.950955" lon="-0.067654"><ele>483.68</ele><time>2011-09-15T10:53:19Z</time></trkpt><trkpt lat="42.950910" lon="-0.067735"><ele>484.16</ele><time>2011-09-15T10:53:20Z</time></trkpt><trkpt lat="42.950850" lon="-0.067779"><ele>484.64</ele><time>2011-09-15T10:53:21Z</time></trkpt><trkpt lat="42.950776" lon="-0.067771"><ele>485.12</ele><time>2011-09-15T10:53:22Z</time></trkpt><trkpt lat="42.950712" lon="-0.067723"><ele>485.60</ele><time>2011-09-15T10:53:23Z</time></trkpt><trkpt lat="42.950658" lon="-0.067640"><ele>486.08</ele><time>2011-09-15T10:53:24Z</time></trkpt><trkpt lat="42.950606" lon="-0.067540"><ele>486.08</ele><time>2011-09-15T10:53:25Z</time></trkpt><trkpt lat="42.950482" lon="-0.067299"><ele>486.56</ele><time>2011-09-15T10:53:27Z</time></trkpt><trkpt lat="42.950422" lon="-0.067138"><ele>487.05</ele><time>2011-09-15T10:53:28Z</time></trkpt><trkpt lat="42.950061" lon="-0.065522"><ele>487.53</ele><time>2011-09-15T10:53:36Z</time></trkpt><trkpt lat="42.949603" lon="-0.063668"><ele>490.89</ele><time>2011-09-15T10:53:44Z</time></trkpt><trkpt lat="42.948727" lon="-0.061901"><ele>494.26</ele><time>2011-09-15T10:53:52Z</time></trkpt><trkpt lat="42.947682" lon="-0.059947"><ele>506.75</ele><time>2011-09-15T10:54:01Z</time></trkpt><trkpt lat="42.947040" lon="-0.058232"><ele>501.95</ele><time>2011-09-15T10:54:08Z</time></trkpt><trkpt lat="42.946789" lon="-0.057208"><ele>500.02</ele><time>2011-09-15T10:54:12Z</time></trkpt><trkpt lat="42.946687" lon="-0.056984"><ele>500.02</ele><time>2011-09-15T10:54:13Z</time></trkpt><trkpt lat="42.946566" lon="-0.056781"><ele>500.50</ele><time>2011-09-15T10:54:14Z</time></trkpt><trkpt lat="42.946426" lon="-0.056597"><ele>500.98</ele><time>2011-09-15T10:54:15Z</time></trkpt><trkpt lat="42.946272" lon="-0.056423"><ele>501.95</ele><time>2011-09-15T10:54:16Z</time></trkpt><trkpt lat="42.946112" lon="-0.056248"><ele>502.43</ele><time>2011-09-15T10:54:17Z</time></trkpt><trkpt lat="42.944041" lon="-0.053881"><ele>509.64</ele><time>2011-09-15T10:54:30Z</time></trkpt><trkpt lat="42.942857" lon="-0.053019"><ele>509.16</ele><time>2011-09-15T10:54:37Z</time></trkpt><trkpt lat="42.942419" lon="-0.052654"><ele>509.16</ele><time>2011-09-15T10:54:40Z</time></trkpt><trkpt lat="42.941956" lon="-0.052178"><ele>509.16</ele><time>2011-09-15T10:54:44Z</time></trkpt><trkpt lat="42.941834" lon="-0.052124"><ele>508.67</ele><time>2011-09-15T10:54:45Z</time></trkpt><trkpt lat="42.941703" lon="-0.052104"><ele>507.71</ele><time>2011-09-15T10:54:46Z</time></trkpt><trkpt lat="42.941566" lon="-0.052125"><ele>507.23</ele><time>2011-09-15T10:54:47Z</time></trkpt><trkpt lat="42.941430" lon="-0.052188"><ele>506.27</ele><time>2011-09-15T10:54:48Z</time></trkpt><trkpt lat="42.941296" lon="-0.052288"><ele>504.83</ele><time>2011-09-15T10:54:49Z</time></trkpt><trkpt lat="42.941156" lon="-0.052399"><ele>505.79</ele><time>2011-09-15T10:54:50Z</time></trkpt><trkpt lat="42.941023" lon="-0.052541"><ele>505.31</ele><time>2011-09-15T10:54:51Z</time></trkpt><trkpt lat="42.940890" lon="-0.052698"><ele>504.83</ele><time>2011-09-15T10:54:52Z</time></trkpt><trkpt lat="42.940768" lon="-0.052846"><ele>504.35</ele><time>2011-09-15T10:54:53Z</time></trkpt><trkpt lat="42.940161" lon="-0.053342"><ele>517.33</ele><time>2011-09-15T10:54:58Z</time></trkpt><trkpt lat="42.940027" lon="-0.053303"><ele>517.81</ele><time>2011-09-15T10:54:59Z</time></trkpt><trkpt lat="42.939900" lon="-0.053206"><ele>516.85</ele><time>2011-09-15T10:55:00Z</time></trkpt><trkpt lat="42.939792" lon="-0.053068"><ele>515.40</ele><time>2011-09-15T10:55:01Z</time></trkpt><trkpt lat="42.939707" lon="-0.052873"><ele>514.44</ele><time>2011-09-15T10:55:02Z</time></trkpt><trkpt lat="42.939634" lon="-0.052671"><ele>513.96</ele><time>2011-09-15T10:55:03Z</time></trkpt><trkpt lat="42.939563" lon="-0.052442"><ele>514.44</ele><time>2011-09-15T10:55:04Z</time></trkpt><trkpt lat="42.939498" lon="-0.052209"><ele>515.40</ele><time>2011-09-15T10:55:05Z</time></trkpt><trkpt lat="42.939442" lon="-0.051971"><ele>515.88</ele><time>2011-09-15T10:55:06Z</time></trkpt><trkpt lat="42.939397" lon="-0.051730"><ele>516.85</ele><time>2011-09-15T10:55:07Z</time></trkpt><trkpt lat="42.939357" lon="-0.051491"><ele>516.85</ele><time>2011-09-15T10:55:08Z</time></trkpt><trkpt lat="42.939253" lon="-0.051047"><ele>517.81</ele><time>2011-09-15T10:55:10Z</time></trkpt><trkpt lat="42.939157" lon="-0.050851"><ele>517.81</ele><time>2011-09-15T10:55:11Z</time></trkpt><trkpt lat="42.939048" lon="-0.050667"><ele>518.29</ele><time>2011-09-15T10:55:12Z</time></trkpt><trkpt lat="42.938928" lon="-0.050496"><ele>518.77</ele><time>2011-09-15T10:55:13Z</time></trkpt><trkpt lat="42.938796" lon="-0.050345"><ele>518.77</ele><time>2011-09-15T10:55:14Z</time></trkpt><trkpt lat="42.938647" lon="-0.050221"><ele>518.77</ele><time>2011-09-15T10:55:15Z</time></trkpt><trkpt lat="42.938482" lon="-0.050118"><ele>518.77</ele><time>2011-09-15T10:55:16Z</time></trkpt><trkpt lat="42.938306" lon="-0.050024"><ele>518.29</ele><time>2011-09-15T10:55:17Z</time></trkpt><trkpt lat="42.936927" lon="-0.049202"><ele>518.29</ele><time>2011-09-15T10:55:25Z</time></trkpt><trkpt lat="42.936812" lon="-0.049048"><ele>518.77</ele><time>2011-09-15T10:55:26Z</time></trkpt><trkpt lat="42.936722" lon="-0.048876"><ele>518.77</ele><time>2011-09-15T10:55:27Z</time></trkpt><trkpt lat="42.936525" lon="-0.048583"><ele>519.73</ele><time>2011-09-15T10:55:29Z</time></trkpt><trkpt lat="42.936408" lon="-0.048468"><ele>520.21</ele><time>2011-09-15T10:55:30Z</time></trkpt><trkpt lat="42.936259" lon="-0.048392"><ele>520.21</ele><time>2011-09-15T10:55:31Z</time></trkpt><trkpt lat="42.936093" lon="-0.048421"><ele>521.17</ele><time>2011-09-15T10:55:32Z</time></trkpt><trkpt lat="42.935925" lon="-0.048429"><ele>521.65</ele><time>2011-09-15T10:55:33Z</time></trkpt><trkpt lat="42.935754" lon="-0.048451"><ele>522.13</ele><time>2011-09-15T10:55:34Z</time></trkpt><trkpt lat="42.935584" lon="-0.048484"><ele>521.65</ele><time>2011-09-15T10:55:35Z</time></trkpt><trkpt lat="42.934749" lon="-0.048696"><ele>525.02</ele><time>2011-09-15T10:55:41Z</time></trkpt><trkpt lat="42.934620" lon="-0.048690"><ele>526.94</ele><time>2011-09-15T10:55:42Z</time></trkpt><trkpt lat="42.934496" lon="-0.048655"><ele>528.86</ele><time>2011-09-15T10:55:43Z</time></trkpt><trkpt lat="42.934387" lon="-0.048578"><ele>530.30</ele><time>2011-09-15T10:55:44Z</time></trkpt><trkpt lat="42.934294" lon="-0.048495"><ele>533.67</ele><time>2011-09-15T10:55:45Z</time></trkpt><trkpt lat="42.934198" lon="-0.048431"><ele>536.55</ele><time>2011-09-15T10:55:46Z</time></trkpt><trkpt lat="42.934066" lon="-0.048434"><ele>538.96</ele><time>2011-09-15T10:55:47Z</time></trkpt><trkpt lat="42.933947" lon="-0.048425"><ele>546.17</ele><time>2011-09-15T10:55:48Z</time></trkpt><trkpt lat="42.933584" lon="-0.048141"><ele>559.14</ele><time>2011-09-15T10:55:51Z</time></trkpt><trkpt lat="42.933182" lon="-0.047681"><ele>568.76</ele><time>2011-09-15T10:55:54Z</time></trkpt><trkpt lat="42.933047" lon="-0.047538"><ele>571.16</ele><time>2011-09-15T10:55:55Z</time></trkpt><trkpt lat="42.931915" lon="-0.046511"><ele>570.20</ele><time>2011-09-15T10:56:03Z</time></trkpt><trkpt lat="42.931743" lon="-0.046435"><ele>569.72</ele><time>2011-09-15T10:56:04Z</time></trkpt><trkpt lat="42.931575" lon="-0.046387"><ele>569.24</ele><time>2011-09-15T10:56:05Z</time></trkpt><trkpt lat="42.931413" lon="-0.046369"><ele>569.24</ele><time>2011-09-15T10:56:06Z</time></trkpt><trkpt lat="42.931259" lon="-0.046378"><ele>568.76</ele><time>2011-09-15T10:56:07Z</time></trkpt><trkpt lat="42.931105" lon="-0.046377"><ele>568.76</ele><time>2011-09-15T10:56:08Z</time></trkpt><trkpt lat="42.930951" lon="-0.046357"><ele>568.76</ele><time>2011-09-15T10:56:09Z</time></trkpt><trkpt lat="42.930799" lon="-0.046302"><ele>568.76</ele><time>2011-09-15T10:56:10Z</time></trkpt><trkpt lat="42.930654" lon="-0.046207"><ele>568.76</ele><time>2011-09-15T10:56:11Z</time></trkpt><trkpt lat="42.930520" lon="-0.046059"><ele>567.80</ele><time>2011-09-15T10:56:12Z</time></trkpt><trkpt lat="42.930403" lon="-0.045862"><ele>567.32</ele><time>2011-09-15T10:56:13Z</time></trkpt><trkpt lat="42.930288" lon="-0.045657"><ele>566.83</ele><time>2011-09-15T10:56:14Z</time></trkpt><trkpt lat="42.930174" lon="-0.045455"><ele>565.87</ele><time>2011-09-15T10:56:15Z</time></trkpt><trkpt lat="42.930069" lon="-0.045241"><ele>565.87</ele><time>2011-09-15T10:56:16Z</time></trkpt><trkpt lat="42.929975" lon="-0.045010"><ele>565.39</ele><time>2011-09-15T10:56:17Z</time></trkpt><trkpt lat="42.929889" lon="-0.044779"><ele>564.91</ele><time>2011-09-15T10:56:18Z</time></trkpt><trkpt lat="42.929478" lon="-0.043558"><ele>563.95</ele><time>2011-09-15T10:56:24Z</time></trkpt><trkpt lat="42.929401" lon="-0.043390"><ele>569.24</ele><time>2011-09-15T10:56:25Z</time></trkpt><trkpt lat="42.928451" lon="-0.042138"><ele>563.95</ele><time>2011-09-15T10:56:32Z</time></trkpt><trkpt lat="42.928275" lon="-0.042084"><ele>568.28</ele><time>2011-09-15T10:56:33Z</time></trkpt><trkpt lat="42.928108" lon="-0.042042"><ele>571.64</ele><time>2011-09-15T10:56:34Z</time></trkpt><trkpt lat="42.926586" lon="-0.041620"><ele>587.02</ele><time>2011-09-15T10:56:43Z</time></trkpt><trkpt lat="42.926176" lon="-0.041618"><ele>588.95</ele><time>2011-09-15T10:56:46Z</time></trkpt><trkpt lat="42.926054" lon="-0.041661"><ele>589.91</ele><time>2011-09-15T10:56:47Z</time></trkpt><trkpt lat="42.925937" lon="-0.041728"><ele>590.39</ele><time>2011-09-15T10:56:48Z</time></trkpt><trkpt lat="42.925826" lon="-0.041809"><ele>590.87</ele><time>2011-09-15T10:56:49Z</time></trkpt><trkpt lat="42.925725" lon="-0.041913"><ele>591.83</ele><time>2011-09-15T10:56:50Z</time></trkpt><trkpt lat="42.925612" lon="-0.041994"><ele>592.79</ele><time>2011-09-15T10:56:51Z</time></trkpt><trkpt lat="42.925499" lon="-0.042066"><ele>593.75</ele><time>2011-09-15T10:56:52Z</time></trkpt><trkpt lat="42.925368" lon="-0.042085"><ele>594.23</ele><time>2011-09-15T10:56:53Z</time></trkpt><trkpt lat="42.925229" lon="-0.042059"><ele>594.23</ele><time>2011-09-15T10:56:54Z</time></trkpt><trkpt lat="42.925089" lon="-0.041995"><ele>594.23</ele><time>2011-09-15T10:56:55Z</time></trkpt><trkpt lat="42.924956" lon="-0.041888"><ele>594.23</ele><time>2011-09-15T10:56:56Z</time></trkpt><trkpt lat="42.924815" lon="-0.041769"><ele>593.75</ele><time>2011-09-15T10:56:57Z</time></trkpt><trkpt lat="42.924668" lon="-0.041632"><ele>593.75</ele><time>2011-09-15T10:56:58Z</time></trkpt><trkpt lat="42.924526" lon="-0.041494"><ele>593.27</ele><time>2011-09-15T10:56:59Z</time></trkpt><trkpt lat="42.923850" lon="-0.040765"><ele>601.92</ele><time>2011-09-15T10:57:05Z</time></trkpt><trkpt lat="42.923704" lon="-0.040784"><ele>601.92</ele><time>2011-09-15T10:57:06Z</time></trkpt><trkpt lat="42.923560" lon="-0.040832"><ele>602.40</ele><time>2011-09-15T10:57:07Z</time></trkpt><trkpt lat="42.923409" lon="-0.040848"><ele>603.36</ele><time>2011-09-15T10:57:08Z</time></trkpt><trkpt lat="42.923247" lon="-0.040825"><ele>604.33</ele><time>2011-09-15T10:57:09Z</time></trkpt><trkpt lat="42.923085" lon="-0.040776"><ele>605.29</ele><time>2011-09-15T10:57:10Z</time></trkpt><trkpt lat="42.922929" lon="-0.040730"><ele>606.25</ele><time>2011-09-15T10:57:11Z</time></trkpt><trkpt lat="42.922778" lon="-0.040713"><ele>607.21</ele><time>2011-09-15T10:57:12Z</time></trkpt><trkpt lat="42.922631" lon="-0.040738"><ele>608.17</ele><time>2011-09-15T10:57:13Z</time></trkpt><trkpt lat="42.922479" lon="-0.040774"><ele>610.09</ele><time>2011-09-15T10:57:14Z</time></trkpt><trkpt lat="42.922038" lon="-0.040835"><ele>613.46</ele><time>2011-09-15T10:57:17Z</time></trkpt><trkpt lat="42.921905" lon="-0.040889"><ele>614.90</ele><time>2011-09-15T10:57:18Z</time></trkpt><trkpt lat="42.920658" lon="-0.041329"><ele>620.19</ele><time>2011-09-15T10:57:27Z</time></trkpt><trkpt lat="42.920543" lon="-0.041344"><ele>621.63</ele><time>2011-09-15T10:57:28Z</time></trkpt><trkpt lat="42.919655" lon="-0.040681"><ele>615.86</ele><time>2011-09-15T10:57:36Z</time></trkpt><trkpt lat="42.919513" lon="-0.040543"><ele>611.54</ele><time>2011-09-15T10:57:37Z</time></trkpt><trkpt lat="42.919236" lon="-0.040325"><ele>607.21</ele><time>2011-09-15T10:57:39Z</time></trkpt><trkpt lat="42.919102" lon="-0.040354"><ele>610.09</ele><time>2011-09-15T10:57:40Z</time></trkpt><trkpt lat="42.918983" lon="-0.040437"><ele>612.50</ele><time>2011-09-15T10:57:41Z</time></trkpt><trkpt lat="42.918758" lon="-0.040531"><ele>615.86</ele><time>2011-09-15T10:57:43Z</time></trkpt><trkpt lat="42.918645" lon="-0.040517"><ele>616.34</ele><time>2011-09-15T10:57:44Z</time></trkpt><trkpt lat="42.918537" lon="-0.040418"><ele>617.30</ele><time>2011-09-15T10:57:45Z</time></trkpt><trkpt lat="42.918437" lon="-0.040290"><ele>617.30</ele><time>2011-09-15T10:57:46Z</time></trkpt><trkpt lat="42.918329" lon="-0.040177"><ele>617.30</ele><time>2011-09-15T10:57:47Z</time></trkpt><trkpt lat="42.918223" lon="-0.040065"><ele>617.30</ele><time>2011-09-15T10:57:48Z</time></trkpt><trkpt lat="42.918104" lon="-0.039962"><ele>617.30</ele><time>2011-09-15T10:57:49Z</time></trkpt><trkpt lat="42.917970" lon="-0.040009"><ele>620.19</ele><time>2011-09-15T10:57:50Z</time></trkpt><trkpt lat="42.917831" lon="-0.040012"><ele>623.07</ele><time>2011-09-15T10:57:51Z</time></trkpt><trkpt lat="42.917696" lon="-0.039961"><ele>622.59</ele><time>2011-09-15T10:57:52Z</time></trkpt><trkpt lat="42.917562" lon="-0.039937"><ele>622.59</ele><time>2011-09-15T10:57:53Z</time></trkpt><trkpt lat="42.917440" lon="-0.039900"><ele>623.55</ele><time>2011-09-15T10:57:54Z</time></trkpt><trkpt lat="42.917327" lon="-0.039822"><ele>624.99</ele><time>2011-09-15T10:57:55Z</time></trkpt><trkpt lat="42.917232" lon="-0.039699"><ele>626.44</ele><time>2011-09-15T10:57:56Z</time></trkpt><trkpt lat="42.917137" lon="-0.039540"><ele>627.88</ele><time>2011-09-15T10:57:57Z</time></trkpt><trkpt lat="42.917038" lon="-0.039352"><ele>628.84</ele><time>2011-09-15T10:57:58Z</time></trkpt><trkpt lat="42.916925" lon="-0.039158"><ele>629.32</ele><time>2011-09-15T10:57:59Z</time></trkpt><trkpt lat="42.916330" lon="-0.038279"><ele>629.80</ele><time>2011-09-15T10:58:04Z</time></trkpt><trkpt lat="42.916183" lon="-0.038161"><ele>629.80</ele><time>2011-09-15T10:58:05Z</time></trkpt><trkpt lat="42.916015" lon="-0.038063"><ele>628.84</ele><time>2011-09-15T10:58:06Z</time></trkpt><trkpt lat="42.914199" lon="-0.037097"><ele>624.03</ele><time>2011-09-15T10:58:17Z</time></trkpt><trkpt lat="42.913877" lon="-0.037009"><ele>624.99</ele><time>2011-09-15T10:58:19Z</time></trkpt><trkpt lat="42.913714" lon="-0.037035"><ele>625.47</ele><time>2011-09-15T10:58:20Z</time></trkpt><trkpt lat="42.913556" lon="-0.037096"><ele>625.96</ele><time>2011-09-15T10:58:21Z</time></trkpt><trkpt lat="42.913238" lon="-0.037206"><ele>626.44</ele><time>2011-09-15T10:58:23Z</time></trkpt><trkpt lat="42.913080" lon="-0.037228"><ele>626.44</ele><time>2011-09-15T10:58:24Z</time></trkpt><trkpt lat="42.912928" lon="-0.037264"><ele>627.88</ele><time>2011-09-15T10:58:25Z</time></trkpt><trkpt lat="42.912781" lon="-0.037317"><ele>628.36</ele><time>2011-09-15T10:58:26Z</time></trkpt><trkpt lat="42.912632" lon="-0.037383"><ele>627.40</ele><time>2011-09-15T10:58:27Z</time></trkpt><trkpt lat="42.912323" lon="-0.037476"><ele>629.32</ele><time>2011-09-15T10:58:29Z</time></trkpt><trkpt lat="42.912149" lon="-0.037456"><ele>630.28</ele><time>2011-09-15T10:58:30Z</time></trkpt><trkpt lat="42.911978" lon="-0.037403"><ele>629.80</ele><time>2011-09-15T10:58:31Z</time></trkpt><trkpt lat="42.911808" lon="-0.037323"><ele>629.80</ele><time>2011-09-15T10:58:32Z</time></trkpt><trkpt lat="42.911636" lon="-0.037256"><ele>630.28</ele><time>2011-09-15T10:58:33Z</time></trkpt><trkpt lat="42.910660" lon="-0.036795"><ele>637.01</ele><time>2011-09-15T10:58:39Z</time></trkpt><trkpt lat="42.910468" lon="-0.036766"><ele>637.01</ele><time>2011-09-15T10:58:40Z</time></trkpt><trkpt lat="42.909020" lon="-0.036550"><ele>633.17</ele><time>2011-09-15T10:58:48Z</time></trkpt><trkpt lat="42.908849" lon="-0.036460"><ele>632.68</ele><time>2011-09-15T10:58:49Z</time></trkpt><trkpt lat="42.908680" lon="-0.036351"><ele>632.20</ele><time>2011-09-15T10:58:50Z</time></trkpt><trkpt lat="42.908515" lon="-0.036222"><ele>631.72</ele><time>2011-09-15T10:58:51Z</time></trkpt><trkpt lat="42.908359" lon="-0.036076"><ele>631.24</ele><time>2011-09-15T10:58:52Z</time></trkpt><trkpt lat="42.908203" lon="-0.035932"><ele>630.76</ele><time>2011-09-15T10:58:53Z</time></trkpt><trkpt lat="42.907102" lon="-0.035069"><ele>628.84</ele><time>2011-09-15T10:59:01Z</time></trkpt><trkpt lat="42.906982" lon="-0.035016"><ele>628.36</ele><time>2011-09-15T10:59:02Z</time></trkpt><trkpt lat="42.906322" lon="-0.034620"><ele>626.44</ele><time>2011-09-15T10:59:08Z</time></trkpt><trkpt lat="42.906235" lon="-0.034630"><ele>625.96</ele><time>2011-09-15T10:59:09Z</time></trkpt><trkpt lat="42.906154" lon="-0.034707"><ele>628.36</ele><time>2011-09-15T10:59:10Z</time></trkpt><trkpt lat="42.906059" lon="-0.034738"><ele>624.99</ele><time>2011-09-15T10:59:11Z</time></trkpt><trkpt lat="42.905972" lon="-0.034721"><ele>622.11</ele><time>2011-09-15T10:59:12Z</time></trkpt><trkpt lat="42.905901" lon="-0.034637"><ele>620.67</ele><time>2011-09-15T10:59:13Z</time></trkpt><trkpt lat="42.905825" lon="-0.034541"><ele>619.23</ele><time>2011-09-15T10:59:14Z</time></trkpt><trkpt lat="42.905763" lon="-0.034418"><ele>618.26</ele><time>2011-09-15T10:59:15Z</time></trkpt><trkpt lat="42.905716" lon="-0.034271"><ele>618.26</ele><time>2011-09-15T10:59:16Z</time></trkpt><trkpt lat="42.905679" lon="-0.034103"><ele>618.75</ele><time>2011-09-15T10:59:17Z</time></trkpt><trkpt lat="42.905035" lon="-0.032975"><ele>617.78</ele><time>2011-09-15T10:59:24Z</time></trkpt><trkpt lat="42.904345" lon="-0.031734"><ele>618.75</ele><time>2011-09-15T10:59:31Z</time></trkpt><trkpt lat="42.904241" lon="-0.031594"><ele>618.75</ele><time>2011-09-15T10:59:32Z</time></trkpt><trkpt lat="42.904126" lon="-0.031475"><ele>618.75</ele><time>2011-09-15T10:59:33Z</time></trkpt><trkpt lat="42.904003" lon="-0.031377"><ele>618.75</ele><time>2011-09-15T10:59:34Z</time></trkpt><trkpt lat="42.903850" lon="-0.031300"><ele>620.19</ele><time>2011-09-15T10:59:35Z</time></trkpt><trkpt lat="42.903697" lon="-0.031279"><ele>621.63</ele><time>2011-09-15T10:59:36Z</time></trkpt><trkpt lat="42.903543" lon="-0.031306"><ele>624.51</ele><time>2011-09-15T10:59:37Z</time></trkpt><trkpt lat="42.903397" lon="-0.031351"><ele>625.96</ele><time>2011-09-15T10:59:38Z</time></trkpt><trkpt lat="42.903250" lon="-0.031380"><ele>627.40</ele><time>2011-09-15T10:59:39Z</time></trkpt><trkpt lat="42.903126" lon="-0.031394"><ele>627.40</ele><time>2011-09-15T10:59:40Z</time></trkpt><trkpt lat="42.903005" lon="-0.031367"><ele>626.44</ele><time>2011-09-15T10:59:41Z</time></trkpt><trkpt lat="42.902871" lon="-0.031311"><ele>626.44</ele><time>2011-09-15T10:59:42Z</time></trkpt><trkpt lat="42.902729" lon="-0.031241"><ele>625.47</ele><time>2011-09-15T10:59:43Z</time></trkpt><trkpt lat="42.902583" lon="-0.031159"><ele>624.99</ele><time>2011-09-15T10:59:44Z</time></trkpt><trkpt lat="42.901214" lon="-0.030161"><ele>622.11</ele><time>2011-09-15T10:59:54Z</time></trkpt><trkpt lat="42.899117" lon="-0.028596"><ele>627.40</ele><time>2011-09-15T11:00:09Z</time></trkpt><trkpt lat="42.897865" lon="-0.027830"><ele>627.40</ele><time>2011-09-15T11:00:18Z</time></trkpt><trkpt lat="42.895876" lon="-0.026566"><ele>635.09</ele><time>2011-09-15T11:00:32Z</time></trkpt><trkpt lat="42.893972" lon="-0.025396"><ele>637.97</ele><time>2011-09-15T11:00:44Z</time></trkpt><trkpt lat="42.891580" lon="-0.023921"><ele>642.78</ele><time>2011-09-15T11:01:00Z</time></trkpt><trkpt lat="42.891165" lon="-0.023607"><ele>643.26</ele><time>2011-09-15T11:01:03Z</time></trkpt><trkpt lat="42.891031" lon="-0.023467"><ele>642.78</ele><time>2011-09-15T11:01:04Z</time></trkpt><trkpt lat="42.890900" lon="-0.023307"><ele>642.30</ele><time>2011-09-15T11:01:05Z</time></trkpt><trkpt lat="42.890777" lon="-0.023122"><ele>642.30</ele><time>2011-09-15T11:01:06Z</time></trkpt><trkpt lat="42.890664" lon="-0.022912"><ele>641.82</ele><time>2011-09-15T11:01:07Z</time></trkpt><trkpt lat="42.890558" lon="-0.022688"><ele>641.82</ele><time>2011-09-15T11:01:08Z</time></trkpt><trkpt lat="42.889451" lon="-0.020845"><ele>640.86</ele><time>2011-09-15T11:01:17Z</time></trkpt><trkpt lat="42.888476" lon="-0.019514"><ele>641.34</ele><time>2011-09-15T11:01:24Z</time></trkpt><trkpt lat="42.888239" lon="-0.019100"><ele>641.34</ele><time>2011-09-15T11:01:26Z</time></trkpt><trkpt lat="42.888102" lon="-0.018913"><ele>641.82</ele><time>2011-09-15T11:01:27Z</time></trkpt><trkpt lat="42.887950" lon="-0.018746"><ele>641.82</ele><time>2011-09-15T11:01:28Z</time></trkpt><trkpt lat="42.887787" lon="-0.018592"><ele>642.30</ele><time>2011-09-15T11:01:29Z</time></trkpt><trkpt lat="42.887619" lon="-0.018443"><ele>642.78</ele><time>2011-09-15T11:01:30Z</time></trkpt><trkpt lat="42.886318" lon="-0.017299"><ele>643.74</ele><time>2011-09-15T11:01:39Z</time></trkpt><trkpt lat="42.885346" lon="-0.016372"><ele>649.03</ele><time>2011-09-15T11:01:48Z</time></trkpt><trkpt lat="42.885287" lon="-0.016240"><ele>649.99</ele><time>2011-09-15T11:01:49Z</time></trkpt><trkpt lat="42.885274" lon="-0.016085"><ele>652.87</ele><time>2011-09-15T11:01:50Z</time></trkpt><trkpt lat="42.885276" lon="-0.015925"><ele>653.83</ele><time>2011-09-15T11:01:51Z</time></trkpt><trkpt lat="42.885262" lon="-0.015767"><ele>654.80</ele><time>2011-09-15T11:01:52Z</time></trkpt><trkpt lat="42.885226" lon="-0.015616"><ele>654.80</ele><time>2011-09-15T11:01:53Z</time></trkpt><trkpt lat="42.885165" lon="-0.015476"><ele>654.80</ele><time>2011-09-15T11:01:54Z</time></trkpt><trkpt lat="42.885087" lon="-0.015354"><ele>654.80</ele><time>2011-09-15T11:01:55Z</time></trkpt><trkpt lat="42.884993" lon="-0.015249"><ele>655.28</ele><time>2011-09-15T11:01:56Z</time></trkpt><trkpt lat="42.884880" lon="-0.015157"><ele>655.76</ele><time>2011-09-15T11:01:57Z</time></trkpt><trkpt lat="42.884750" lon="-0.015071"><ele>655.76</ele><time>2011-09-15T11:01:58Z</time></trkpt><trkpt lat="42.884626" lon="-0.014982"><ele>656.24</ele><time>2011-09-15T11:01:59Z</time></trkpt><trkpt lat="42.882759" lon="-0.013594"><ele>665.85</ele><time>2011-09-15T11:02:13Z</time></trkpt><trkpt lat="42.881145" lon="-0.012391"><ele>675.46</ele><time>2011-09-15T11:02:25Z</time></trkpt><trkpt lat="42.880081" lon="-0.011505"><ele>679.31</ele><time>2011-09-15T11:02:34Z</time></trkpt><trkpt lat="42.879983" lon="-0.011378"><ele>680.27</ele><time>2011-09-15T11:02:35Z</time></trkpt><trkpt lat="42.879128" lon="-0.009994"><ele>689.88</ele><time>2011-09-15T11:02:46Z</time></trkpt><trkpt lat="42.878408" lon="-0.008956"><ele>695.17</ele><time>2011-09-15T11:02:56Z</time></trkpt><trkpt lat="42.877690" lon="-0.007944"><ele>698.53</ele><time>2011-09-15T11:03:04Z</time></trkpt><trkpt lat="42.876834" lon="-0.006730"><ele>700.46</ele><time>2011-09-15T11:03:16Z</time></trkpt><trkpt lat="42.875858" lon="-0.005330"><ele>704.78</ele><time>2011-09-15T11:03:30Z</time></trkpt><trkpt lat="42.874895" lon="-0.003954"><ele>713.44</ele><time>2011-09-15T11:03:44Z</time></trkpt><trkpt lat="42.874413" lon="-0.003240"><ele>719.68</ele><time>2011-09-15T11:03:52Z</time></trkpt><trkpt lat="42.874346" lon="-0.003175"><ele>720.16</ele><time>2011-09-15T11:03:53Z</time></trkpt><trkpt lat="42.874274" lon="-0.003133"><ele>720.65</ele><time>2011-09-15T11:03:54Z</time></trkpt><trkpt lat="42.874207" lon="-0.003108"><ele>722.57</ele><time>2011-09-15T11:03:55Z</time></trkpt><trkpt lat="42.874123" lon="-0.003143"><ele>724.01</ele><time>2011-09-15T11:03:56Z</time></trkpt><trkpt lat="42.874023" lon="-0.003144"><ele>726.89</ele><time>2011-09-15T11:03:57Z</time></trkpt><trkpt lat="42.873889" lon="-0.003164"><ele>729.78</ele><time>2011-09-15T11:03:58Z</time></trkpt><trkpt lat="42.873198" lon="-0.003266"><ele>727.86</ele><time>2011-09-15T11:04:07Z</time></trkpt><trkpt lat="42.873140" lon="-0.003213"><ele>726.89</ele><time>2011-09-15T11:04:08Z</time></trkpt><trkpt lat="42.873086" lon="-0.003157"><ele>726.41</ele><time>2011-09-15T11:04:09Z</time></trkpt><trkpt lat="42.873031" lon="-0.003086"><ele>726.41</ele><time>2011-09-15T11:04:10Z</time></trkpt><trkpt lat="42.872978" lon="-0.003002"><ele>726.41</ele><time>2011-09-15T11:04:11Z</time></trkpt><trkpt lat="42.872918" lon="-0.002905"><ele>726.41</ele><time>2011-09-15T11:04:12Z</time></trkpt><trkpt lat="42.872277" lon="-0.001745"><ele>733.62</ele><time>2011-09-15T11:04:23Z</time></trkpt><trkpt lat="42.872259" lon="-0.001659"><ele>733.62</ele><time>2011-09-15T11:04:24Z</time></trkpt><trkpt lat="42.872276" lon="-0.001563"><ele>733.62</ele><time>2011-09-15T11:04:25Z</time></trkpt><trkpt lat="42.872305" lon="-0.001456"><ele>733.62</ele><time>2011-09-15T11:04:26Z</time></trkpt><trkpt lat="42.872339" lon="-0.001338"><ele>734.10</ele><time>2011-09-15T11:04:27Z</time></trkpt><trkpt lat="42.872741" lon="0.000059"><ele>737.95</ele><time>2011-09-15T11:04:38Z</time></trkpt><trkpt lat="42.873528" lon="0.002945"><ele>741.31</ele><time>2011-09-15T11:04:58Z</time></trkpt><trkpt lat="42.874175" lon="0.005212"><ele>750.93</ele><time>2011-09-15T11:05:14Z</time></trkpt><trkpt lat="42.874237" lon="0.005325"><ele>751.41</ele><time>2011-09-15T11:05:15Z</time></trkpt><trkpt lat="42.874915" lon="0.006384"><ele>756.21</ele><time>2011-09-15T11:05:26Z</time></trkpt><trkpt lat="42.875806" lon="0.007651"><ele>763.90</ele><time>2011-09-15T11:05:40Z</time></trkpt><trkpt lat="42.876520" lon="0.008685"><ele>769.19</ele><time>2011-09-15T11:05:48Z</time></trkpt><trkpt lat="42.876770" lon="0.009125"><ele>771.11</ele><time>2011-09-15T11:05:51Z</time></trkpt><trkpt lat="42.876840" lon="0.009303"><ele>772.08</ele><time>2011-09-15T11:05:52Z</time></trkpt><trkpt lat="42.877542" lon="0.011379"><ele>784.09</ele><time>2011-09-15T11:06:02Z</time></trkpt><trkpt lat="42.878126" lon="0.013340"><ele>797.55</ele><time>2011-09-15T11:06:11Z</time></trkpt><trkpt lat="42.878172" lon="0.014996"><ele>806.68</ele><time>2011-09-15T11:06:18Z</time></trkpt><trkpt lat="42.878347" lon="0.018111"><ele>824.95</ele><time>2011-09-15T11:06:32Z</time></trkpt><trkpt lat="42.878481" lon="0.021667"><ele>845.14</ele><time>2011-09-15T11:06:48Z</time></trkpt><trkpt lat="42.878788" lon="0.023707"><ele>855.71</ele><time>2011-09-15T11:06:57Z</time></trkpt><trkpt lat="42.879328" lon="0.026076"><ele>870.61</ele><time>2011-09-15T11:07:07Z</time></trkpt><trkpt lat="42.879413" lon="0.026283"><ele>872.05</ele><time>2011-09-15T11:07:08Z</time></trkpt><trkpt lat="42.879520" lon="0.026476"><ele>873.50</ele><time>2011-09-15T11:07:09Z</time></trkpt><trkpt lat="42.879644" lon="0.026654"><ele>874.94</ele><time>2011-09-15T11:07:10Z</time></trkpt><trkpt lat="42.879780" lon="0.026820"><ele>876.38</ele><time>2011-09-15T11:07:11Z</time></trkpt><trkpt lat="42.881868" lon="0.029187"><ele>897.53</ele><time>2011-09-15T11:07:27Z</time></trkpt><trkpt lat="42.883112" lon="0.030627"><ele>912.43</ele><time>2011-09-15T11:07:37Z</time></trkpt><trkpt lat="42.883197" lon="0.030803"><ele>913.87</ele><time>2011-09-15T11:07:38Z</time></trkpt><trkpt lat="42.883260" lon="0.030993"><ele>915.79</ele><time>2011-09-15T11:07:39Z</time></trkpt><trkpt lat="42.883302" lon="0.031184"><ele>917.24</ele><time>2011-09-15T11:07:40Z</time></trkpt><trkpt lat="42.883328" lon="0.031366"><ele>918.68</ele><time>2011-09-15T11:07:41Z</time></trkpt><trkpt lat="42.883341" lon="0.031543"><ele>920.12</ele><time>2011-09-15T11:07:42Z</time></trkpt><trkpt lat="42.883336" lon="0.031720"><ele>922.04</ele><time>2011-09-15T11:07:43Z</time></trkpt><trkpt lat="42.883297" lon="0.031895"><ele>923.48</ele><time>2011-09-15T11:07:44Z</time></trkpt><trkpt lat="42.883234" lon="0.032071"><ele>925.41</ele><time>2011-09-15T11:07:45Z</time></trkpt><trkpt lat="42.883162" lon="0.032261"><ele>926.85</ele><time>2011-09-15T11:07:46Z</time></trkpt><trkpt lat="42.882955" lon="0.033671"><ele>937.42</ele><time>2011-09-15T11:07:52Z</time></trkpt><trkpt lat="42.882902" lon="0.034781"><ele>945.59</ele><time>2011-09-15T11:07:57Z</time></trkpt><trkpt lat="42.882846" lon="0.034966"><ele>947.04</ele><time>2011-09-15T11:07:58Z</time></trkpt><trkpt lat="42.882764" lon="0.035137"><ele>948.96</ele><time>2011-09-15T11:07:59Z</time></trkpt><trkpt lat="42.882671" lon="0.035302"><ele>950.40</ele><time>2011-09-15T11:08:00Z</time></trkpt><trkpt lat="42.882590" lon="0.035472"><ele>951.36</ele><time>2011-09-15T11:08:01Z</time></trkpt><trkpt lat="42.882529" lon="0.035656"><ele>953.28</ele><time>2011-09-15T11:08:02Z</time></trkpt><trkpt lat="42.882491" lon="0.035852"><ele>954.25</ele><time>2011-09-15T11:08:03Z</time></trkpt><trkpt lat="42.882483" lon="0.036058"><ele>955.69</ele><time>2011-09-15T11:08:04Z</time></trkpt><trkpt lat="42.882504" lon="0.036273"><ele>957.13</ele><time>2011-09-15T11:08:05Z</time></trkpt><trkpt lat="42.882535" lon="0.036491"><ele>958.57</ele><time>2011-09-15T11:08:06Z</time></trkpt><trkpt lat="42.882565" lon="0.036707"><ele>960.01</ele><time>2011-09-15T11:08:07Z</time></trkpt><trkpt lat="42.882746" lon="0.037749"><ele>967.22</ele><time>2011-09-15T11:08:12Z</time></trkpt><trkpt lat="42.882811" lon="0.037942"><ele>968.67</ele><time>2011-09-15T11:08:13Z</time></trkpt><trkpt lat="42.882886" lon="0.038128"><ele>970.11</ele><time>2011-09-15T11:08:14Z</time></trkpt><trkpt lat="42.883707" lon="0.040069"><ele>983.57</ele><time>2011-09-15T11:08:26Z</time></trkpt><trkpt lat="42.883735" lon="0.040184"><ele>984.05</ele><time>2011-09-15T11:08:27Z</time></trkpt><trkpt lat="42.883742" lon="0.040295"><ele>985.01</ele><time>2011-09-15T11:08:28Z</time></trkpt><trkpt lat="42.883698" lon="0.040349"><ele>985.49</ele><time>2011-09-15T11:08:29Z</time></trkpt><trkpt lat="42.883630" lon="0.040367"><ele>985.97</ele><time>2011-09-15T11:08:30Z</time></trkpt><trkpt lat="42.883539" lon="0.040345"><ele>986.93</ele><time>2011-09-15T11:08:31Z</time></trkpt><trkpt lat="42.883471" lon="0.040285"><ele>987.89</ele><time>2011-09-15T11:08:32Z</time></trkpt><trkpt lat="42.883416" lon="0.040186"><ele>988.37</ele><time>2011-09-15T11:08:33Z</time></trkpt><trkpt lat="42.883361" lon="0.040063"><ele>989.33</ele><time>2011-09-15T11:08:34Z</time></trkpt><trkpt lat="42.883285" lon="0.039927"><ele>990.30</ele><time>2011-09-15T11:08:35Z</time></trkpt><trkpt lat="42.883195" lon="0.039806"><ele>990.78</ele><time>2011-09-15T11:08:36Z</time></trkpt><trkpt lat="42.883092" lon="0.039705"><ele>991.26</ele><time>2011-09-15T11:08:37Z</time></trkpt><trkpt lat="42.882988" lon="0.039620"><ele>991.74</ele><time>2011-09-15T11:08:38Z</time></trkpt><trkpt lat="42.882891" lon="0.039544"><ele>992.22</ele><time>2011-09-15T11:08:39Z</time></trkpt><trkpt lat="42.882720" lon="0.039428"><ele>993.66</ele><time>2011-09-15T11:08:41Z</time></trkpt><trkpt lat="42.882643" lon="0.039406"><ele>994.14</ele><time>2011-09-15T11:08:42Z</time></trkpt><trkpt lat="42.882580" lon="0.039451"><ele>994.62</ele><time>2011-09-15T11:08:43Z</time></trkpt><trkpt lat="42.882523" lon="0.039539"><ele>994.62</ele><time>2011-09-15T11:08:44Z</time></trkpt><trkpt lat="42.882497" lon="0.039649"><ele>995.10</ele><time>2011-09-15T11:08:45Z</time></trkpt><trkpt lat="42.882562" lon="0.039842"><ele>996.54</ele><time>2011-09-15T11:08:47Z</time></trkpt><trkpt lat="42.882649" lon="0.039877"><ele>997.51</ele><time>2011-09-15T11:08:48Z</time></trkpt><trkpt lat="42.882749" lon="0.039899"><ele>997.99</ele><time>2011-09-15T11:08:49Z</time></trkpt><trkpt lat="42.882854" lon="0.039934"><ele>998.95</ele><time>2011-09-15T11:08:50Z</time></trkpt><trkpt lat="42.882961" lon="0.039990"><ele>999.43</ele><time>2011-09-15T11:08:51Z</time></trkpt><trkpt lat="42.883056" lon="0.040063"><ele>1000.39</ele><time>2011-09-15T11:08:52Z</time></trkpt><trkpt lat="42.883139" lon="0.040152"><ele>1000.87</ele><time>2011-09-15T11:08:53Z</time></trkpt><trkpt lat="42.883220" lon="0.040261"><ele>1001.83</ele><time>2011-09-15T11:08:54Z</time></trkpt><trkpt lat="42.883305" lon="0.040385"><ele>1002.79</ele><time>2011-09-15T11:08:55Z</time></trkpt><trkpt lat="42.884078" lon="0.041490"><ele>1010.96</ele><time>2011-09-15T11:09:03Z</time></trkpt><trkpt lat="42.885102" lon="0.042794"><ele>1022.02</ele><time>2011-09-15T11:09:11Z</time></trkpt><trkpt lat="42.885870" lon="0.043999"><ele>1032.11</ele><time>2011-09-15T11:09:17Z</time></trkpt><trkpt lat="42.886561" lon="0.044895"><ele>1041.25</ele><time>2011-09-15T11:09:22Z</time></trkpt><trkpt lat="42.886702" lon="0.045018"><ele>1043.17</ele><time>2011-09-15T11:09:23Z</time></trkpt><trkpt lat="42.886851" lon="0.045106"><ele>1045.09</ele><time>2011-09-15T11:09:24Z</time></trkpt><trkpt lat="42.886991" lon="0.045188"><ele>1046.53</ele><time>2011-09-15T11:09:25Z</time></trkpt><trkpt lat="42.887109" lon="0.045290"><ele>1047.01</ele><time>2011-09-15T11:09:26Z</time></trkpt><trkpt lat="42.887206" lon="0.045411"><ele>1047.97</ele><time>2011-09-15T11:09:27Z</time></trkpt><trkpt lat="42.887289" lon="0.045552"><ele>1048.94</ele><time>2011-09-15T11:09:28Z</time></trkpt><trkpt lat="42.887373" lon="0.045708"><ele>1049.90</ele><time>2011-09-15T11:09:29Z</time></trkpt><trkpt lat="42.887468" lon="0.045864"><ele>1050.86</ele><time>2011-09-15T11:09:30Z</time></trkpt><trkpt lat="42.887584" lon="0.046008"><ele>1051.34</ele><time>2011-09-15T11:09:31Z</time></trkpt><trkpt lat="42.887720" lon="0.046135"><ele>1052.30</ele><time>2011-09-15T11:09:32Z</time></trkpt><trkpt lat="42.887870" lon="0.046238"><ele>1053.26</ele><time>2011-09-15T11:09:33Z</time></trkpt><trkpt lat="42.888026" lon="0.046313"><ele>1054.70</ele><time>2011-09-15T11:09:34Z</time></trkpt><trkpt lat="42.888182" lon="0.046362"><ele>1056.15</ele><time>2011-09-15T11:09:35Z</time></trkpt><trkpt lat="42.888336" lon="0.046398"><ele>1057.11</ele><time>2011-09-15T11:09:36Z</time></trkpt><trkpt lat="42.888909" lon="0.046545"><ele>1062.39</ele><time>2011-09-15T11:09:40Z</time></trkpt><trkpt lat="42.889034" lon="0.046615"><ele>1063.84</ele><time>2011-09-15T11:09:41Z</time></trkpt><trkpt lat="42.890243" lon="0.047198"><ele>1076.33</ele><time>2011-09-15T11:09:50Z</time></trkpt><trkpt lat="42.890350" lon="0.047298"><ele>1077.29</ele><time>2011-09-15T11:09:51Z</time></trkpt><trkpt lat="42.890447" lon="0.047419"><ele>1078.26</ele><time>2011-09-15T11:09:52Z</time></trkpt><trkpt lat="42.890538" lon="0.047555"><ele>1079.22</ele><time>2011-09-15T11:09:53Z</time></trkpt><trkpt lat="42.890627" lon="0.047699"><ele>1080.66</ele><time>2011-09-15T11:09:54Z</time></trkpt><trkpt lat="42.891110" lon="0.048436"><ele>1086.43</ele><time>2011-09-15T11:10:00Z</time></trkpt><trkpt lat="42.891146" lon="0.048543"><ele>1087.39</ele><time>2011-09-15T11:10:01Z</time></trkpt><trkpt lat="42.891155" lon="0.048654"><ele>1088.35</ele><time>2011-09-15T11:10:02Z</time></trkpt><trkpt lat="42.891101" lon="0.048732"><ele>1088.83</ele><time>2011-09-15T11:10:03Z</time></trkpt><trkpt lat="42.891012" lon="0.048766"><ele>1089.31</ele><time>2011-09-15T11:10:04Z</time></trkpt><trkpt lat="42.890916" lon="0.048741"><ele>1089.79</ele><time>2011-09-15T11:10:05Z</time></trkpt><trkpt lat="42.890828" lon="0.048690"><ele>1090.27</ele><time>2011-09-15T11:10:06Z</time></trkpt><trkpt lat="42.890735" lon="0.048598"><ele>1091.23</ele><time>2011-09-15T11:10:07Z</time></trkpt><trkpt lat="42.890655" lon="0.048487"><ele>1091.23</ele><time>2011-09-15T11:10:08Z</time></trkpt><trkpt lat="42.890582" lon="0.048365"><ele>1091.71</ele><time>2011-09-15T11:10:09Z</time></trkpt><trkpt lat="42.890514" lon="0.048243"><ele>1092.68</ele><time>2011-09-15T11:10:10Z</time></trkpt><trkpt lat="42.890369" lon="0.048046"><ele>1093.64</ele><time>2011-09-15T11:10:12Z</time></trkpt><trkpt lat="42.890282" lon="0.048014"><ele>1094.12</ele><time>2011-09-15T11:10:13Z</time></trkpt><trkpt lat="42.890197" lon="0.048041"><ele>1094.60</ele><time>2011-09-15T11:10:14Z</time></trkpt><trkpt lat="42.890128" lon="0.048119"><ele>1095.08</ele><time>2011-09-15T11:10:15Z</time></trkpt><trkpt lat="42.890085" lon="0.048231"><ele>1095.56</ele><time>2011-09-15T11:10:16Z</time></trkpt><trkpt lat="42.890055" lon="0.048346"><ele>1096.04</ele><time>2011-09-15T11:10:17Z</time></trkpt><trkpt lat="42.890055" lon="0.048445"><ele>1096.52</ele><time>2011-09-15T11:10:18Z</time></trkpt><trkpt lat="42.890113" lon="0.048538"><ele>1097.00</ele><time>2011-09-15T11:10:19Z</time></trkpt><trkpt lat="42.890219" lon="0.048638"><ele>1097.48</ele><time>2011-09-15T11:10:20Z</time></trkpt><trkpt lat="42.890328" lon="0.048746"><ele>1097.48</ele><time>2011-09-15T11:10:21Z</time></trkpt><trkpt lat="42.890410" lon="0.048862"><ele>1097.96</ele><time>2011-09-15T11:10:22Z</time></trkpt><trkpt lat="42.890468" lon="0.048993"><ele>1098.44</ele><time>2011-09-15T11:10:23Z</time></trkpt><trkpt lat="42.890501" lon="0.049139"><ele>1099.40</ele><time>2011-09-15T11:10:24Z</time></trkpt><trkpt lat="42.890517" lon="0.049295"><ele>1100.37</ele><time>2011-09-15T11:10:25Z</time></trkpt><trkpt lat="42.890530" lon="0.049457"><ele>1100.85</ele><time>2011-09-15T11:10:26Z</time></trkpt><trkpt lat="42.890557" lon="0.049621"><ele>1101.81</ele><time>2011-09-15T11:10:27Z</time></trkpt><trkpt lat="42.890606" lon="0.049784"><ele>1102.29</ele><time>2011-09-15T11:10:28Z</time></trkpt><trkpt lat="42.890677" lon="0.049940"><ele>1103.25</ele><time>2011-09-15T11:10:29Z</time></trkpt><trkpt lat="42.890766" lon="0.050083"><ele>1104.69</ele><time>2011-09-15T11:10:30Z</time></trkpt><trkpt lat="42.890864" lon="0.050218"><ele>1106.13</ele><time>2011-09-15T11:10:31Z</time></trkpt><trkpt lat="42.891157" lon="0.050606"><ele>1109.50</ele><time>2011-09-15T11:10:34Z</time></trkpt><trkpt lat="42.891273" lon="0.050711"><ele>1110.46</ele><time>2011-09-15T11:10:35Z</time></trkpt><trkpt lat="42.891400" lon="0.050794"><ele>1111.90</ele><time>2011-09-15T11:10:36Z</time></trkpt><trkpt lat="42.891531" lon="0.050863"><ele>1112.86</ele><time>2011-09-15T11:10:37Z</time></trkpt><trkpt lat="42.891658" lon="0.050924"><ele>1114.31</ele><time>2011-09-15T11:10:38Z</time></trkpt><trkpt lat="42.891889" lon="0.051054"><ele>1116.71</ele><time>2011-09-15T11:10:40Z</time></trkpt><trkpt lat="42.891992" lon="0.051144"><ele>1117.67</ele><time>2011-09-15T11:10:41Z</time></trkpt><trkpt lat="42.892083" lon="0.051261"><ele>1118.63</ele><time>2011-09-15T11:10:42Z</time></trkpt><trkpt lat="42.892166" lon="0.051404"><ele>1119.59</ele><time>2011-09-15T11:10:43Z</time></trkpt><trkpt lat="42.892245" lon="0.051558"><ele>1120.55</ele><time>2011-09-15T11:10:44Z</time></trkpt><trkpt lat="42.892854" lon="0.052916"><ele>1130.65</ele><time>2011-09-15T11:10:53Z</time></trkpt><trkpt lat="42.892889" lon="0.053080"><ele>1131.61</ele><time>2011-09-15T11:10:54Z</time></trkpt><trkpt lat="42.892914" lon="0.053241"><ele>1132.57</ele><time>2011-09-15T11:10:55Z</time></trkpt><trkpt lat="42.892962" lon="0.053815"><ele>1136.42</ele><time>2011-09-15T11:11:01Z</time></trkpt><trkpt lat="42.893043" lon="0.053946"><ele>1137.86</ele><time>2011-09-15T11:11:05Z</time></trkpt><trkpt lat="42.893075" lon="0.054012"><ele>1138.34</ele><time>2011-09-15T11:11:06Z</time></trkpt><trkpt lat="42.893393" lon="0.054785"><ele>1142.66</ele><time>2011-09-15T11:11:13Z</time></trkpt><trkpt lat="42.893879" lon="0.055854"><ele>1152.76</ele><time>2011-09-15T11:11:21Z</time></trkpt><trkpt lat="42.894384" lon="0.057287"><ele>1165.26</ele><time>2011-09-15T11:11:31Z</time></trkpt><trkpt lat="42.895045" lon="0.058387"><ele>1175.35</ele><time>2011-09-15T11:11:40Z</time></trkpt><trkpt lat="42.895137" lon="0.058463"><ele>1176.31</ele><time>2011-09-15T11:11:41Z</time></trkpt><trkpt lat="42.895233" lon="0.058529"><ele>1177.27</ele><time>2011-09-15T11:11:42Z</time></trkpt><trkpt lat="42.895521" lon="0.058713"><ele>1180.16</ele><time>2011-09-15T11:11:45Z</time></trkpt><trkpt lat="42.895593" lon="0.058792"><ele>1181.12</ele><time>2011-09-15T11:11:46Z</time></trkpt><trkpt lat="42.895640" lon="0.058886"><ele>1182.08</ele><time>2011-09-15T11:11:47Z</time></trkpt><trkpt lat="42.895653" lon="0.058981"><ele>1183.04</ele><time>2011-09-15T11:11:48Z</time></trkpt><trkpt lat="42.895634" lon="0.059067"><ele>1184.00</ele><time>2011-09-15T11:11:49Z</time></trkpt><trkpt lat="42.895601" lon="0.059143"><ele>1184.96</ele><time>2011-09-15T11:11:50Z</time></trkpt><trkpt lat="42.895557" lon="0.059163"><ele>1186.40</ele><time>2011-09-15T11:11:51Z</time></trkpt><trkpt lat="42.895487" lon="0.059156"><ele>1188.33</ele><time>2011-09-15T11:11:52Z</time></trkpt><trkpt lat="42.895359" lon="0.059086"><ele>1187.85</ele><time>2011-09-15T11:11:53Z</time></trkpt><trkpt lat="42.895267" lon="0.059013"><ele>1188.33</ele><time>2011-09-15T11:11:54Z</time></trkpt><trkpt lat="42.895183" lon="0.058963"><ele>1188.33</ele><time>2011-09-15T11:11:55Z</time></trkpt><trkpt lat="42.895105" lon="0.058945"><ele>1188.33</ele><time>2011-09-15T11:11:56Z</time></trkpt><trkpt lat="42.895017" lon="0.058960"><ele>1189.77</ele><time>2011-09-15T11:11:57Z</time></trkpt><trkpt lat="42.894978" lon="0.059061"><ele>1191.69</ele><time>2011-09-15T11:11:58Z</time></trkpt><trkpt lat="42.894907" lon="0.059171"><ele>1192.17</ele><time>2011-09-15T11:11:59Z</time></trkpt><trkpt lat="42.894863" lon="0.059284"><ele>1191.69</ele><time>2011-09-15T11:12:00Z</time></trkpt><trkpt lat="42.894901" lon="0.059404"><ele>1190.73</ele><time>2011-09-15T11:12:01Z</time></trkpt><trkpt lat="42.894978" lon="0.059502"><ele>1192.17</ele><time>2011-09-15T11:12:02Z</time></trkpt><trkpt lat="42.895065" lon="0.059559"><ele>1193.13</ele><time>2011-09-15T11:12:03Z</time></trkpt><trkpt lat="42.895160" lon="0.059569"><ele>1194.09</ele><time>2011-09-15T11:12:04Z</time></trkpt><trkpt lat="42.895259" lon="0.059517"><ele>1195.54</ele><time>2011-09-15T11:12:05Z</time></trkpt><trkpt lat="42.895399" lon="0.059417"><ele>1198.42</ele><time>2011-09-15T11:12:06Z</time></trkpt><trkpt lat="42.895595" lon="0.059383"><ele>1201.30</ele><time>2011-09-15T11:12:08Z</time></trkpt><trkpt lat="42.895690" lon="0.059466"><ele>1201.79</ele><time>2011-09-15T11:12:09Z</time></trkpt><trkpt lat="42.895778" lon="0.059522"><ele>1202.27</ele><time>2011-09-15T11:12:10Z</time></trkpt><trkpt lat="42.895862" lon="0.059605"><ele>1202.75</ele><time>2011-09-15T11:12:11Z</time></trkpt><trkpt lat="42.895930" lon="0.059719"><ele>1203.23</ele><time>2011-09-15T11:12:12Z</time></trkpt><trkpt lat="42.895981" lon="0.059844"><ele>1203.71</ele><time>2011-09-15T11:12:13Z</time></trkpt><trkpt lat="42.896008" lon="0.059975"><ele>1204.19</ele><time>2011-09-15T11:12:14Z</time></trkpt><trkpt lat="42.896021" lon="0.060108"><ele>1204.67</ele><time>2011-09-15T11:12:15Z</time></trkpt><trkpt lat="42.896027" lon="0.060237"><ele>1205.15</ele><time>2011-09-15T11:12:16Z</time></trkpt><trkpt lat="42.896034" lon="0.060359"><ele>1205.63</ele><time>2011-09-15T11:12:17Z</time></trkpt><trkpt lat="42.896115" lon="0.061797"><ele>1211.88</ele><time>2011-09-15T11:12:29Z</time></trkpt><trkpt lat="42.896234" lon="0.063402"><ele>1221.49</ele><time>2011-09-15T11:12:43Z</time></trkpt><trkpt lat="42.896261" lon="0.063506"><ele>1221.97</ele><time>2011-09-15T11:12:44Z</time></trkpt><trkpt lat="42.896296" lon="0.063610"><ele>1222.93</ele><time>2011-09-15T11:12:45Z</time></trkpt><trkpt lat="42.896940" lon="0.065325"><ele>1233.51</ele><time>2011-09-15T11:13:01Z</time></trkpt><trkpt lat="42.897455" lon="0.066801"><ele>1242.64</ele><time>2011-09-15T11:13:14Z</time></trkpt><trkpt lat="42.897823" lon="0.068361"><ele>1251.77</ele><time>2011-09-15T11:13:26Z</time></trkpt><trkpt lat="42.898186" lon="0.070425"><ele>1268.60</ele><time>2011-09-15T11:13:39Z</time></trkpt><trkpt lat="42.898402" lon="0.072273"><ele>1283.50</ele><time>2011-09-15T11:13:49Z</time></trkpt><trkpt lat="42.898419" lon="0.072455"><ele>1284.94</ele><time>2011-09-15T11:13:50Z</time></trkpt><trkpt lat="42.898453" lon="0.072638"><ele>1286.38</ele><time>2011-09-15T11:13:51Z</time></trkpt><trkpt lat="42.898648" lon="0.074300"><ele>1298.40</ele><time>2011-09-15T11:13:59Z</time></trkpt><trkpt lat="42.898695" lon="0.074922"><ele>1302.72</ele><time>2011-09-15T11:14:02Z</time></trkpt><trkpt lat="42.898747" lon="0.075114"><ele>1304.17</ele><time>2011-09-15T11:14:03Z</time></trkpt><trkpt lat="42.898822" lon="0.075296"><ele>1305.61</ele><time>2011-09-15T11:14:04Z</time></trkpt><trkpt lat="42.898923" lon="0.075478"><ele>1308.01</ele><time>2011-09-15T11:14:05Z</time></trkpt><trkpt lat="42.899022" lon="0.075654"><ele>1309.45</ele><time>2011-09-15T11:14:06Z</time></trkpt><trkpt lat="42.899447" lon="0.076526"><ele>1316.66</ele><time>2011-09-15T11:14:11Z</time></trkpt><trkpt lat="42.899492" lon="0.076722"><ele>1318.10</ele><time>2011-09-15T11:14:12Z</time></trkpt><trkpt lat="42.899526" lon="0.076931"><ele>1319.55</ele><time>2011-09-15T11:14:13Z</time></trkpt><trkpt lat="42.899927" lon="0.078702"><ele>1332.52</ele><time>2011-09-15T11:14:21Z</time></trkpt><trkpt lat="42.900929" lon="0.081917"><ele>1356.56</ele><time>2011-09-15T11:14:35Z</time></trkpt><trkpt lat="42.901544" lon="0.083350"><ele>1370.02</ele><time>2011-09-15T11:14:42Z</time></trkpt><trkpt lat="42.901587" lon="0.083538"><ele>1371.46</ele><time>2011-09-15T11:14:43Z</time></trkpt><trkpt lat="42.901605" lon="0.083732"><ele>1373.38</ele><time>2011-09-15T11:14:44Z</time></trkpt><trkpt lat="42.901600" lon="0.083929"><ele>1374.82</ele><time>2011-09-15T11:14:45Z</time></trkpt><trkpt lat="42.901604" lon="0.084135"><ele>1376.75</ele><time>2011-09-15T11:14:46Z</time></trkpt><trkpt lat="42.901619" lon="0.084349"><ele>1378.19</ele><time>2011-09-15T11:14:47Z</time></trkpt><trkpt lat="42.901648" lon="0.084572"><ele>1379.63</ele><time>2011-09-15T11:14:48Z</time></trkpt><trkpt lat="42.901682" lon="0.084805"><ele>1381.55</ele><time>2011-09-15T11:14:49Z</time></trkpt><trkpt lat="42.901926" lon="0.087003"><ele>1396.45</ele><time>2011-09-15T11:14:58Z</time></trkpt><trkpt lat="42.902508" lon="0.089253"><ele>1402.22</ele><time>2011-09-15T11:15:08Z</time></trkpt><trkpt lat="42.902737" lon="0.090357"><ele>1404.14</ele><time>2011-09-15T11:15:13Z</time></trkpt><trkpt lat="42.902729" lon="0.090570"><ele>1405.10</ele><time>2011-09-15T11:15:14Z</time></trkpt><trkpt lat="42.902711" lon="0.090790"><ele>1406.55</ele><time>2011-09-15T11:15:15Z</time></trkpt><trkpt lat="42.902690" lon="0.091455"><ele>1409.91</ele><time>2011-09-15T11:15:18Z</time></trkpt><trkpt lat="42.902715" lon="0.091677"><ele>1410.87</ele><time>2011-09-15T11:15:19Z</time></trkpt><trkpt lat="42.902760" lon="0.091897"><ele>1412.31</ele><time>2011-09-15T11:15:20Z</time></trkpt><trkpt lat="42.902816" lon="0.092113"><ele>1413.28</ele><time>2011-09-15T11:15:21Z</time></trkpt><trkpt lat="42.902873" lon="0.092330"><ele>1414.24</ele><time>2011-09-15T11:15:22Z</time></trkpt><trkpt lat="42.903291" lon="0.094748"><ele>1422.41</ele><time>2011-09-15T11:15:33Z</time></trkpt><trkpt lat="42.903319" lon="0.096856"><ele>1432.02</ele><time>2011-09-15T11:15:44Z</time></trkpt><trkpt lat="42.903538" lon="0.099466"><ele>1445.48</ele><time>2011-09-15T11:15:57Z</time></trkpt><trkpt lat="42.903544" lon="0.100153"><ele>1450.77</ele><time>2011-09-15T11:16:01Z</time></trkpt><trkpt lat="42.903515" lon="0.100283"><ele>1451.73</ele><time>2011-09-15T11:16:02Z</time></trkpt><trkpt lat="42.903471" lon="0.100390"><ele>1453.17</ele><time>2011-09-15T11:16:03Z</time></trkpt><trkpt lat="42.903418" lon="0.100477"><ele>1454.13</ele><time>2011-09-15T11:16:04Z</time></trkpt><trkpt lat="42.903358" lon="0.100555"><ele>1455.09</ele><time>2011-09-15T11:16:05Z</time></trkpt><trkpt lat="42.903299" lon="0.100637"><ele>1456.05</ele><time>2011-09-15T11:16:06Z</time></trkpt><trkpt lat="42.903246" lon="0.100731"><ele>1457.02</ele><time>2011-09-15T11:16:07Z</time></trkpt><trkpt lat="42.903200" lon="0.100833"><ele>1457.50</ele><time>2011-09-15T11:16:08Z</time></trkpt><trkpt lat="42.903168" lon="0.100942"><ele>1458.46</ele><time>2011-09-15T11:16:09Z</time></trkpt><trkpt lat="42.903157" lon="0.101057"><ele>1458.94</ele><time>2011-09-15T11:16:10Z</time></trkpt><trkpt lat="42.903165" lon="0.101173"><ele>1458.94</ele><time>2011-09-15T11:16:11Z</time></trkpt><trkpt lat="42.903186" lon="0.101288"><ele>1459.42</ele><time>2011-09-15T11:16:12Z</time></trkpt><trkpt lat="42.903211" lon="0.101408"><ele>1459.42</ele><time>2011-09-15T11:16:13Z</time></trkpt><trkpt lat="42.903417" lon="0.102818"><ele>1465.19</ele><time>2011-09-15T11:16:24Z</time></trkpt><trkpt lat="42.903445" lon="0.102911"><ele>1465.67</ele><time>2011-09-15T11:16:25Z</time></trkpt><trkpt lat="42.903494" lon="0.103033"><ele>1466.15</ele><time>2011-09-15T11:16:27Z</time></trkpt><trkpt lat="42.903518" lon="0.103078"><ele>1466.15</ele><time>2011-09-15T11:16:28Z</time></trkpt><trkpt lat="42.903836" lon="0.103590"><ele>1469.51</ele><time>2011-09-15T11:16:35Z</time></trkpt><trkpt lat="42.903913" lon="0.103662"><ele>1469.99</ele><time>2011-09-15T11:16:36Z</time></trkpt><trkpt lat="42.903998" lon="0.103717"><ele>1470.95</ele><time>2011-09-15T11:16:37Z</time></trkpt><trkpt lat="42.904086" lon="0.103746"><ele>1471.44</ele><time>2011-09-15T11:16:38Z</time></trkpt><trkpt lat="42.904178" lon="0.103746"><ele>1471.92</ele><time>2011-09-15T11:16:39Z</time></trkpt><trkpt lat="42.904271" lon="0.103719"><ele>1472.40</ele><time>2011-09-15T11:16:40Z</time></trkpt><trkpt lat="42.904359" lon="0.103663"><ele>1472.88</ele><time>2011-09-15T11:16:41Z</time></trkpt><trkpt lat="42.904440" lon="0.103584"><ele>1473.36</ele><time>2011-09-15T11:16:42Z</time></trkpt><trkpt lat="42.904520" lon="0.103493"><ele>1473.84</ele><time>2011-09-15T11:16:43Z</time></trkpt><trkpt lat="42.904603" lon="0.103390"><ele>1474.80</ele><time>2011-09-15T11:16:44Z</time></trkpt><trkpt lat="42.905098" lon="0.102785"><ele>1481.05</ele><time>2011-09-15T11:16:49Z</time></trkpt><trkpt lat="42.905178" lon="0.102639"><ele>1482.49</ele><time>2011-09-15T11:16:50Z</time></trkpt><trkpt lat="42.905239" lon="0.102483"><ele>1483.93</ele><time>2011-09-15T11:16:51Z</time></trkpt><trkpt lat="42.905279" lon="0.102323"><ele>1485.37</ele><time>2011-09-15T11:16:52Z</time></trkpt><trkpt lat="42.905284" lon="0.102161"><ele>1486.34</ele><time>2011-09-15T11:16:53Z</time></trkpt><trkpt lat="42.905272" lon="0.102009"><ele>1487.30</ele><time>2011-09-15T11:16:54Z</time></trkpt><trkpt lat="42.905268" lon="0.101874"><ele>1488.26</ele><time>2011-09-15T11:16:55Z</time></trkpt><trkpt lat="42.905283" lon="0.101759"><ele>1489.22</ele><time>2011-09-15T11:16:56Z</time></trkpt><trkpt lat="42.905332" lon="0.101666"><ele>1489.70</ele><time>2011-09-15T11:16:57Z</time></trkpt><trkpt lat="42.905405" lon="0.101635"><ele>1490.18</ele><time>2011-09-15T11:16:58Z</time></trkpt><trkpt lat="42.905477" lon="0.101664"><ele>1490.66</ele><time>2011-09-15T11:16:59Z</time></trkpt><trkpt lat="42.905534" lon="0.101726"><ele>1491.62</ele><time>2011-09-15T11:17:00Z</time></trkpt><trkpt lat="42.905574" lon="0.101822"><ele>1492.10</ele><time>2011-09-15T11:17:01Z</time></trkpt><trkpt lat="42.905601" lon="0.101942"><ele>1492.58</ele><time>2011-09-15T11:17:02Z</time></trkpt><trkpt lat="42.905626" lon="0.102074"><ele>1493.06</ele><time>2011-09-15T11:17:03Z</time></trkpt><trkpt lat="42.905641" lon="0.102223"><ele>1494.03</ele><time>2011-09-15T11:17:04Z</time></trkpt><trkpt lat="42.905647" lon="0.102385"><ele>1494.99</ele><time>2011-09-15T11:17:05Z</time></trkpt><trkpt lat="42.905647" lon="0.102547"><ele>1495.95</ele><time>2011-09-15T11:17:06Z</time></trkpt><trkpt lat="42.905462" lon="0.103918"><ele>1503.16</ele><time>2011-09-15T11:17:16Z</time></trkpt><trkpt lat="42.905416" lon="0.104058"><ele>1503.64</ele><time>2011-09-15T11:17:17Z</time></trkpt><trkpt lat="42.905355" lon="0.104188"><ele>1504.60</ele><time>2011-09-15T11:17:18Z</time></trkpt><trkpt lat="42.905286" lon="0.104306"><ele>1505.08</ele><time>2011-09-15T11:17:19Z</time></trkpt><trkpt lat="42.905222" lon="0.104412"><ele>1506.04</ele><time>2011-09-15T11:17:20Z</time></trkpt><trkpt lat="42.905158" lon="0.104598"><ele>1507.48</ele><time>2011-09-15T11:17:22Z</time></trkpt><trkpt lat="42.905178" lon="0.104665"><ele>1507.97</ele><time>2011-09-15T11:17:23Z</time></trkpt><trkpt lat="42.905243" lon="0.104699"><ele>1508.45</ele><time>2011-09-15T11:17:24Z</time></trkpt><trkpt lat="42.905327" lon="0.104691"><ele>1509.41</ele><time>2011-09-15T11:17:25Z</time></trkpt><trkpt lat="42.905416" lon="0.104637"><ele>1509.89</ele><time>2011-09-15T11:17:26Z</time></trkpt><trkpt lat="42.905515" lon="0.104497"><ele>1510.85</ele><time>2011-09-15T11:17:27Z</time></trkpt><trkpt lat="42.905603" lon="0.104356"><ele>1511.81</ele><time>2011-09-15T11:17:28Z</time></trkpt><trkpt lat="42.905678" lon="0.104219"><ele>1512.77</ele><time>2011-09-15T11:17:29Z</time></trkpt><trkpt lat="42.906158" lon="0.103010"><ele>1519.50</ele><time>2011-09-15T11:17:36Z</time></trkpt><trkpt lat="42.906299" lon="0.102642"><ele>1521.90</ele><time>2011-09-15T11:17:38Z</time></trkpt><trkpt lat="42.906340" lon="0.102475"><ele>1522.87</ele><time>2011-09-15T11:17:39Z</time></trkpt><trkpt lat="42.906356" lon="0.102322"><ele>1523.83</ele><time>2011-09-15T11:17:40Z</time></trkpt><trkpt lat="42.906357" lon="0.102186"><ele>1524.79</ele><time>2011-09-15T11:17:41Z</time></trkpt><trkpt lat="42.906361" lon="0.102067"><ele>1525.27</ele><time>2011-09-15T11:17:42Z</time></trkpt><trkpt lat="42.906381" lon="0.101982"><ele>1526.23</ele><time>2011-09-15T11:17:43Z</time></trkpt><trkpt lat="42.906431" lon="0.101952"><ele>1526.71</ele><time>2011-09-15T11:17:44Z</time></trkpt><trkpt lat="42.906485" lon="0.101970"><ele>1527.67</ele><time>2011-09-15T11:17:45Z</time></trkpt><trkpt lat="42.906532" lon="0.102038"><ele>1528.15</ele><time>2011-09-15T11:17:46Z</time></trkpt><trkpt lat="42.906560" lon="0.102130"><ele>1528.63</ele><time>2011-09-15T11:17:47Z</time></trkpt><trkpt lat="42.906553" lon="0.102257"><ele>1529.59</ele><time>2011-09-15T11:17:48Z</time></trkpt><trkpt lat="42.906533" lon="0.102406"><ele>1530.56</ele><time>2011-09-15T11:17:49Z</time></trkpt><trkpt lat="42.906513" lon="0.102562"><ele>1531.52</ele><time>2011-09-15T11:17:50Z</time></trkpt><trkpt lat="42.906346" lon="0.104041"><ele>1540.17</ele><time>2011-09-15T11:17:58Z</time></trkpt><trkpt lat="42.906250" lon="0.105471"><ele>1549.30</ele><time>2011-09-15T11:18:05Z</time></trkpt><trkpt lat="42.906213" lon="0.105657"><ele>1550.26</ele><time>2011-09-15T11:18:06Z</time></trkpt><trkpt lat="42.906133" lon="0.106017"><ele>1552.67</ele><time>2011-09-15T11:18:08Z</time></trkpt><trkpt lat="42.906133" lon="0.106202"><ele>1553.63</ele><time>2011-09-15T11:18:09Z</time></trkpt><trkpt lat="42.906162" lon="0.106395"><ele>1555.07</ele><time>2011-09-15T11:18:10Z</time></trkpt><trkpt lat="42.906340" lon="0.107955"><ele>1566.12</ele><time>2011-09-15T11:18:17Z</time></trkpt><trkpt lat="42.906552" lon="0.109754"><ele>1579.58</ele><time>2011-09-15T11:18:25Z</time></trkpt><trkpt lat="42.907116" lon="0.111820"><ele>1594.48</ele><time>2011-09-15T11:18:34Z</time></trkpt><trkpt lat="42.907199" lon="0.112303"><ele>1597.85</ele><time>2011-09-15T11:18:36Z</time></trkpt><trkpt lat="42.907215" lon="0.112550"><ele>1599.29</ele><time>2011-09-15T11:18:37Z</time></trkpt><trkpt lat="42.907337" lon="0.114912"><ele>1615.63</ele><time>2011-09-15T11:18:47Z</time></trkpt><trkpt lat="42.907133" lon="0.116052"><ele>1623.80</ele><time>2011-09-15T11:18:53Z</time></trkpt><trkpt lat="42.907105" lon="0.116174"><ele>1624.77</ele><time>2011-09-15T11:18:54Z</time></trkpt><trkpt lat="42.907102" lon="0.116277"><ele>1625.73</ele><time>2011-09-15T11:18:55Z</time></trkpt><trkpt lat="42.907133" lon="0.116352"><ele>1626.69</ele><time>2011-09-15T11:18:56Z</time></trkpt><trkpt lat="42.907193" lon="0.116386"><ele>1627.17</ele><time>2011-09-15T11:18:57Z</time></trkpt><trkpt lat="42.907267" lon="0.116341"><ele>1627.65</ele><time>2011-09-15T11:18:58Z</time></trkpt><trkpt lat="42.907346" lon="0.116273"><ele>1628.61</ele><time>2011-09-15T11:18:59Z</time></trkpt><trkpt lat="42.907430" lon="0.116162"><ele>1629.09</ele><time>2011-09-15T11:19:00Z</time></trkpt><trkpt lat="42.907514" lon="0.116049"><ele>1630.05</ele><time>2011-09-15T11:19:01Z</time></trkpt><trkpt lat="42.907922" lon="0.115573"><ele>1633.90</ele><time>2011-09-15T11:19:06Z</time></trkpt><trkpt lat="42.907989" lon="0.115536"><ele>1634.38</ele><time>2011-09-15T11:19:07Z</time></trkpt><trkpt lat="42.908048" lon="0.115532"><ele>1634.86</ele><time>2011-09-15T11:19:08Z</time></trkpt><trkpt lat="42.908093" lon="0.115561"><ele>1635.34</ele><time>2011-09-15T11:19:09Z</time></trkpt><trkpt lat="42.908122" lon="0.115613"><ele>1635.82</ele><time>2011-09-15T11:19:10Z</time></trkpt><trkpt lat="42.908126" lon="0.115688"><ele>1636.30</ele><time>2011-09-15T11:19:11Z</time></trkpt><trkpt lat="42.908110" lon="0.115775"><ele>1636.78</ele><time>2011-09-15T11:19:12Z</time></trkpt><trkpt lat="42.908075" lon="0.115871"><ele>1637.74</ele><time>2011-09-15T11:19:13Z</time></trkpt><trkpt lat="42.908021" lon="0.115978"><ele>1637.74</ele><time>2011-09-15T11:19:14Z</time></trkpt><trkpt lat="42.907959" lon="0.116098"><ele>1638.70</ele><time>2011-09-15T11:19:15Z</time></trkpt><trkpt lat="42.907487" lon="0.117276"><ele>1646.88</ele><time>2011-09-15T11:19:23Z</time></trkpt><trkpt lat="42.907233" lon="0.118911"><ele>1657.93</ele><time>2011-09-15T11:19:31Z</time></trkpt><trkpt lat="42.907046" lon="0.121242"><ele>1675.72</ele><time>2011-09-15T11:19:41Z</time></trkpt><trkpt lat="42.907004" lon="0.124366"><ele>1696.38</ele><time>2011-09-15T11:19:53Z</time></trkpt><trkpt lat="42.907047" lon="0.126731"><ele>1712.25</ele><time>2011-09-15T11:20:02Z</time></trkpt><trkpt lat="42.906900" lon="0.129538"><ele>1730.51</ele><time>2011-09-15T11:20:13Z</time></trkpt><trkpt lat="42.906881" lon="0.129752"><ele>1731.47</ele><time>2011-09-15T11:20:14Z</time></trkpt><trkpt lat="42.906843" lon="0.129965"><ele>1732.91</ele><time>2011-09-15T11:20:15Z</time></trkpt><trkpt lat="42.906787" lon="0.130173"><ele>1733.88</ele><time>2011-09-15T11:20:16Z</time></trkpt><trkpt lat="42.906501" lon="0.131302"><ele>1739.16</ele><time>2011-09-15T11:20:22Z</time></trkpt><trkpt lat="42.906429" lon="0.131437"><ele>1739.16</ele><time>2011-09-15T11:20:23Z</time></trkpt><trkpt lat="42.906338" lon="0.131520"><ele>1740.12</ele><time>2011-09-15T11:20:24Z</time></trkpt><trkpt lat="42.906219" lon="0.131582"><ele>1740.12</ele><time>2011-09-15T11:20:25Z</time></trkpt><trkpt lat="42.906082" lon="0.131624"><ele>1740.12</ele><time>2011-09-15T11:20:26Z</time></trkpt><trkpt lat="42.905948" lon="0.131632"><ele>1740.60</ele><time>2011-09-15T11:20:27Z</time></trkpt><trkpt lat="42.905827" lon="0.131597"><ele>1741.08</ele><time>2011-09-15T11:20:28Z</time></trkpt><trkpt lat="42.905727" lon="0.131514"><ele>1741.08</ele><time>2011-09-15T11:20:29Z</time></trkpt><trkpt lat="42.905657" lon="0.131387"><ele>1742.05</ele><time>2011-09-15T11:20:30Z</time></trkpt><trkpt lat="42.905610" lon="0.131242"><ele>1742.53</ele><time>2011-09-15T11:20:31Z</time></trkpt><trkpt lat="42.905581" lon="0.131083"><ele>1743.49</ele><time>2011-09-15T11:20:32Z</time></trkpt><trkpt lat="42.905550" lon="0.130918"><ele>1744.45</ele><time>2011-09-15T11:20:33Z</time></trkpt><trkpt lat="42.905501" lon="0.130753"><ele>1745.41</ele><time>2011-09-15T11:20:34Z</time></trkpt><trkpt lat="42.905431" lon="0.130587"><ele>1746.85</ele><time>2011-09-15T11:20:35Z</time></trkpt><trkpt lat="42.905339" lon="0.130429"><ele>1747.81</ele><time>2011-09-15T11:20:36Z</time></trkpt><trkpt lat="42.905231" lon="0.130281"><ele>1748.78</ele><time>2011-09-15T11:20:37Z</time></trkpt><trkpt lat="42.905109" lon="0.130154"><ele>1749.74</ele><time>2011-09-15T11:20:38Z</time></trkpt><trkpt lat="42.904974" lon="0.130052"><ele>1751.18</ele><time>2011-09-15T11:20:39Z</time></trkpt><trkpt lat="42.904835" lon="0.129955"><ele>1752.62</ele><time>2011-09-15T11:20:40Z</time></trkpt><trkpt lat="42.904705" lon="0.129835"><ele>1754.06</ele><time>2011-09-15T11:20:41Z</time></trkpt><trkpt lat="42.904594" lon="0.129682"><ele>1755.50</ele><time>2011-09-15T11:20:42Z</time></trkpt><trkpt lat="42.904505" lon="0.129501"><ele>1756.95</ele><time>2011-09-15T11:20:43Z</time></trkpt><trkpt lat="42.904437" lon="0.129302"><ele>1758.87</ele><time>2011-09-15T11:20:44Z</time></trkpt><trkpt lat="42.904382" lon="0.129094"><ele>1760.31</ele><time>2011-09-15T11:20:45Z</time></trkpt><trkpt lat="42.904336" lon="0.128883"><ele>1761.27</ele><time>2011-09-15T11:20:46Z</time></trkpt><trkpt lat="42.904219" lon="0.128079"><ele>1765.12</ele><time>2011-09-15T11:20:50Z</time></trkpt><trkpt lat="42.904196" lon="0.127673"><ele>1766.56</ele><time>2011-09-15T11:20:52Z</time></trkpt><trkpt lat="42.904161" lon="0.127473"><ele>1767.52</ele><time>2011-09-15T11:20:53Z</time></trkpt><trkpt lat="42.904080" lon="0.127094"><ele>1768.96</ele><time>2011-09-15T11:20:55Z</time></trkpt><trkpt lat="42.904075" lon="0.126923"><ele>1769.92</ele><time>2011-09-15T11:20:56Z</time></trkpt><trkpt lat="42.904093" lon="0.126772"><ele>1770.89</ele><time>2011-09-15T11:20:57Z</time></trkpt><trkpt lat="42.904107" lon="0.126526"><ele>1772.81</ele><time>2011-09-15T11:20:59Z</time></trkpt><trkpt lat="42.904080" lon="0.126430"><ele>1773.77</ele><time>2011-09-15T11:21:00Z</time></trkpt><trkpt lat="42.904034" lon="0.126355"><ele>1774.25</ele><time>2011-09-15T11:21:01Z</time></trkpt><trkpt lat="42.903980" lon="0.126342"><ele>1775.21</ele><time>2011-09-15T11:21:02Z</time></trkpt><trkpt lat="42.903819" lon="0.126518"><ele>1776.65</ele><time>2011-09-15T11:21:04Z</time></trkpt><trkpt lat="42.903753" lon="0.126634"><ele>1777.61</ele><time>2011-09-15T11:21:05Z</time></trkpt><trkpt lat="42.903716" lon="0.126777"><ele>1777.61</ele><time>2011-09-15T11:21:06Z</time></trkpt><trkpt lat="42.903700" lon="0.126937"><ele>1779.06</ele><time>2011-09-15T11:21:07Z</time></trkpt><trkpt lat="42.903700" lon="0.127097"><ele>1780.02</ele><time>2011-09-15T11:21:08Z</time></trkpt><trkpt lat="42.903698" lon="0.127243"><ele>1780.98</ele><time>2011-09-15T11:21:09Z</time></trkpt><trkpt lat="42.903685" lon="0.127376"><ele>1781.94</ele><time>2011-09-15T11:21:10Z</time></trkpt><trkpt lat="42.903658" lon="0.127506"><ele>1782.90</ele><time>2011-09-15T11:21:11Z</time></trkpt><trkpt lat="42.903621" lon="0.127640"><ele>1783.86</ele><time>2011-09-15T11:21:12Z</time></trkpt><trkpt lat="42.903584" lon="0.127781"><ele>1784.82</ele><time>2011-09-15T11:21:13Z</time></trkpt><trkpt lat="42.903559" lon="0.127932"><ele>1785.79</ele><time>2011-09-15T11:21:14Z</time></trkpt><trkpt lat="42.903555" lon="0.128091"><ele>1786.75</ele><time>2011-09-15T11:21:15Z</time></trkpt><trkpt lat="42.903579" lon="0.128251"><ele>1787.71</ele><time>2011-09-15T11:21:16Z</time></trkpt><trkpt lat="42.903625" lon="0.128406"><ele>1788.67</ele><time>2011-09-15T11:21:17Z</time></trkpt><trkpt lat="42.903674" lon="0.128556"><ele>1790.59</ele><time>2011-09-15T11:21:18Z</time></trkpt><trkpt lat="42.903716" lon="0.128704"><ele>1791.55</ele><time>2011-09-15T11:21:19Z</time></trkpt><trkpt lat="42.903743" lon="0.128863"><ele>1792.52</ele><time>2011-09-15T11:21:20Z</time></trkpt><trkpt lat="42.903755" lon="0.129025"><ele>1793.96</ele><time>2011-09-15T11:21:21Z</time></trkpt><trkpt lat="42.903749" lon="0.129189"><ele>1794.92</ele><time>2011-09-15T11:21:22Z</time></trkpt><trkpt lat="42.903727" lon="0.129364"><ele>1796.36</ele><time>2011-09-15T11:21:23Z</time></trkpt><trkpt lat="42.903687" lon="0.129548"><ele>1797.32</ele><time>2011-09-15T11:21:24Z</time></trkpt><trkpt lat="42.903636" lon="0.129732"><ele>1798.76</ele><time>2011-09-15T11:21:25Z</time></trkpt><trkpt lat="42.903578" lon="0.129923"><ele>1800.21</ele><time>2011-09-15T11:21:26Z</time></trkpt><trkpt lat="42.903348" lon="0.130852"><ele>1806.45</ele><time>2011-09-15T11:21:31Z</time></trkpt><trkpt lat="42.903352" lon="0.131020"><ele>1808.38</ele><time>2011-09-15T11:21:32Z</time></trkpt><trkpt lat="42.903357" lon="0.131177"><ele>1809.82</ele><time>2011-09-15T11:21:33Z</time></trkpt><trkpt lat="42.903346" lon="0.131326"><ele>1810.78</ele><time>2011-09-15T11:21:34Z</time></trkpt><trkpt lat="42.903318" lon="0.131461"><ele>1812.22</ele><time>2011-09-15T11:21:35Z</time></trkpt><trkpt lat="42.903265" lon="0.131581"><ele>1814.15</ele><time>2011-09-15T11:21:36Z</time></trkpt><trkpt lat="42.903180" lon="0.131692"><ele>1815.59</ele><time>2011-09-15T11:21:37Z</time></trkpt><trkpt lat="42.903084" lon="0.131808"><ele>1817.03</ele><time>2011-09-15T11:21:38Z</time></trkpt><trkpt lat="42.902765" lon="0.132230"><ele>1821.84</ele><time>2011-09-15T11:21:42Z</time></trkpt><trkpt lat="42.902687" lon="0.132288"><ele>1822.80</ele><time>2011-09-15T11:21:43Z</time></trkpt><trkpt lat="42.902600" lon="0.132326"><ele>1823.76</ele><time>2011-09-15T11:21:44Z</time></trkpt><trkpt lat="42.902506" lon="0.132352"><ele>1824.72</ele><time>2011-09-15T11:21:45Z</time></trkpt><trkpt lat="42.902405" lon="0.132372"><ele>1825.68</ele><time>2011-09-15T11:21:46Z</time></trkpt><trkpt lat="42.902025" lon="0.132428"><ele>1828.56</ele><time>2011-09-15T11:21:50Z</time></trkpt><trkpt lat="42.901959" lon="0.132481"><ele>1829.05</ele><time>2011-09-15T11:21:51Z</time></trkpt><trkpt lat="42.901909" lon="0.132562"><ele>1830.01</ele><time>2011-09-15T11:21:52Z</time></trkpt><trkpt lat="42.901876" lon="0.132663"><ele>1830.49</ele><time>2011-09-15T11:21:53Z</time></trkpt><trkpt lat="42.901870" lon="0.132777"><ele>1831.93</ele><time>2011-09-15T11:21:54Z</time></trkpt><trkpt lat="42.901898" lon="0.132893"><ele>1832.89</ele><time>2011-09-15T11:21:55Z</time></trkpt><trkpt lat="42.901961" lon="0.133018"><ele>1833.37</ele><time>2011-09-15T11:21:56Z</time></trkpt><trkpt lat="42.902025" lon="0.133145"><ele>1834.33</ele><time>2011-09-15T11:21:57Z</time></trkpt><trkpt lat="42.902078" lon="0.133269"><ele>1835.29</ele><time>2011-09-15T11:21:58Z</time></trkpt><trkpt lat="42.902120" lon="0.133398"><ele>1836.26</ele><time>2011-09-15T11:21:59Z</time></trkpt><trkpt lat="42.902148" lon="0.133533"><ele>1837.22</ele><time>2011-09-15T11:22:00Z</time></trkpt><trkpt lat="42.902163" lon="0.133667"><ele>1838.18</ele><time>2011-09-15T11:22:01Z</time></trkpt><trkpt lat="42.902181" lon="0.133799"><ele>1839.14</ele><time>2011-09-15T11:22:02Z</time></trkpt><trkpt lat="42.902216" lon="0.133922"><ele>1840.10</ele><time>2011-09-15T11:22:03Z</time></trkpt><trkpt lat="42.902281" lon="0.134020"><ele>1840.58</ele><time>2011-09-15T11:22:04Z</time></trkpt><trkpt lat="42.902365" lon="0.134084"><ele>1841.54</ele><time>2011-09-15T11:22:05Z</time></trkpt><trkpt lat="42.902456" lon="0.134132"><ele>1842.02</ele><time>2011-09-15T11:22:06Z</time></trkpt><trkpt lat="42.902541" lon="0.134194"><ele>1842.98</ele><time>2011-09-15T11:22:07Z</time></trkpt><trkpt lat="42.902614" lon="0.134282"><ele>1843.95</ele><time>2011-09-15T11:22:08Z</time></trkpt><trkpt lat="42.902670" lon="0.134393"><ele>1844.91</ele><time>2011-09-15T11:22:09Z</time></trkpt><trkpt lat="42.902713" lon="0.134520"><ele>1846.35</ele><time>2011-09-15T11:22:10Z</time></trkpt><trkpt lat="42.902740" lon="0.134655"><ele>1847.31</ele><time>2011-09-15T11:22:11Z</time></trkpt><trkpt lat="42.902745" lon="0.134792"><ele>1848.27</ele><time>2011-09-15T11:22:12Z</time></trkpt><trkpt lat="42.902729" lon="0.134926"><ele>1849.23</ele><time>2011-09-15T11:22:13Z</time></trkpt><trkpt lat="42.902710" lon="0.135059"><ele>1849.71</ele><time>2011-09-15T11:22:14Z</time></trkpt><trkpt lat="42.902712" lon="0.135338"><ele>1852.12</ele><time>2011-09-15T11:22:16Z</time></trkpt><trkpt lat="42.902746" lon="0.135486"><ele>1853.08</ele><time>2011-09-15T11:22:17Z</time></trkpt><trkpt lat="42.902864" lon="0.136049"><ele>1856.92</ele><time>2011-09-15T11:22:21Z</time></trkpt><trkpt lat="42.902923" lon="0.136127"><ele>1857.89</ele><time>2011-09-15T11:22:22Z</time></trkpt><trkpt lat="42.902996" lon="0.136166"><ele>1858.37</ele><time>2011-09-15T11:22:23Z</time></trkpt><trkpt lat="42.903078" lon="0.136183"><ele>1858.85</ele><time>2011-09-15T11:22:24Z</time></trkpt><trkpt lat="42.903166" lon="0.136208"><ele>1859.81</ele><time>2011-09-15T11:22:25Z</time></trkpt><trkpt lat="42.903257" lon="0.136254"><ele>1860.77</ele><time>2011-09-15T11:22:26Z</time></trkpt><trkpt lat="42.903349" lon="0.136318"><ele>1861.25</ele><time>2011-09-15T11:22:27Z</time></trkpt><trkpt lat="42.903437" lon="0.136400"><ele>1862.21</ele><time>2011-09-15T11:22:28Z</time></trkpt><trkpt lat="42.903513" lon="0.136503"><ele>1863.17</ele><time>2011-09-15T11:22:29Z</time></trkpt><trkpt lat="42.903569" lon="0.136620"><ele>1864.13</ele><time>2011-09-15T11:22:30Z</time></trkpt><trkpt lat="42.903613" lon="0.136742"><ele>1865.09</ele><time>2011-09-15T11:22:31Z</time></trkpt><trkpt lat="42.903663" lon="0.136854"><ele>1866.06</ele><time>2011-09-15T11:22:32Z</time></trkpt><trkpt lat="42.903734" lon="0.136944"><ele>1867.02</ele><time>2011-09-15T11:22:33Z</time></trkpt><trkpt lat="42.903824" lon="0.137007"><ele>1867.98</ele><time>2011-09-15T11:22:34Z</time></trkpt><trkpt lat="42.903921" lon="0.137056"><ele>1868.94</ele><time>2011-09-15T11:22:35Z</time></trkpt><trkpt lat="42.904019" lon="0.137100"><ele>1869.90</ele><time>2011-09-15T11:22:36Z</time></trkpt><trkpt lat="42.904213" lon="0.137172"><ele>1871.34</ele><time>2011-09-15T11:22:38Z</time></trkpt><trkpt lat="42.904314" lon="0.137190"><ele>1871.82</ele><time>2011-09-15T11:22:39Z</time></trkpt><trkpt lat="42.904417" lon="0.137193"><ele>1872.79</ele><time>2011-09-15T11:22:40Z</time></trkpt><trkpt lat="42.904520" lon="0.137186"><ele>1873.75</ele><time>2011-09-15T11:22:41Z</time></trkpt><trkpt lat="42.904623" lon="0.137173"><ele>1874.71</ele><time>2011-09-15T11:22:42Z</time></trkpt><trkpt lat="42.904725" lon="0.137169"><ele>1875.19</ele><time>2011-09-15T11:22:43Z</time></trkpt><trkpt lat="42.904828" lon="0.137187"><ele>1876.15</ele><time>2011-09-15T11:22:44Z</time></trkpt><trkpt lat="42.904926" lon="0.137235"><ele>1877.11</ele><time>2011-09-15T11:22:45Z</time></trkpt><trkpt lat="42.905017" lon="0.137314"><ele>1878.55</ele><time>2011-09-15T11:22:46Z</time></trkpt><trkpt lat="42.905102" lon="0.137415"><ele>1879.51</ele><time>2011-09-15T11:22:47Z</time></trkpt><trkpt lat="42.905180" lon="0.137530"><ele>1880.48</ele><time>2011-09-15T11:22:48Z</time></trkpt><trkpt lat="42.905248" lon="0.137654"><ele>1881.92</ele><time>2011-09-15T11:22:49Z</time></trkpt><trkpt lat="42.905315" lon="0.137781"><ele>1882.88</ele><time>2011-09-15T11:22:50Z</time></trkpt><trkpt lat="42.905390" lon="0.137906"><ele>1883.84</ele><time>2011-09-15T11:22:51Z</time></trkpt><trkpt lat="42.905479" lon="0.138026"><ele>1884.80</ele><time>2011-09-15T11:22:52Z</time></trkpt><trkpt lat="42.905579" lon="0.138134"><ele>1886.24</ele><time>2011-09-15T11:22:53Z</time></trkpt><trkpt lat="42.905682" lon="0.138231"><ele>1887.21</ele><time>2011-09-15T11:22:54Z</time></trkpt><trkpt lat="42.905790" lon="0.138313"><ele>1888.17</ele><time>2011-09-15T11:22:55Z</time></trkpt><trkpt lat="42.905908" lon="0.138383"><ele>1889.61</ele><time>2011-09-15T11:22:56Z</time></trkpt><trkpt lat="42.906026" lon="0.138457"><ele>1891.05</ele><time>2011-09-15T11:22:57Z</time></trkpt><trkpt lat="42.906135" lon="0.138548"><ele>1892.01</ele><time>2011-09-15T11:22:58Z</time></trkpt><trkpt lat="42.906239" lon="0.138638"><ele>1893.45</ele><time>2011-09-15T11:22:59Z</time></trkpt><trkpt lat="42.906351" lon="0.138705"><ele>1894.42</ele><time>2011-09-15T11:23:00Z</time></trkpt><trkpt lat="42.906475" lon="0.138740"><ele>1895.38</ele><time>2011-09-15T11:23:01Z</time></trkpt><trkpt lat="42.906603" lon="0.138745"><ele>1896.82</ele><time>2011-09-15T11:23:02Z</time></trkpt><trkpt lat="42.906729" lon="0.138720"><ele>1897.78</ele><time>2011-09-15T11:23:03Z</time></trkpt><trkpt lat="42.906852" lon="0.138683"><ele>1898.74</ele><time>2011-09-15T11:23:04Z</time></trkpt><trkpt lat="42.907078" lon="0.138631"><ele>1900.66</ele><time>2011-09-15T11:23:06Z</time></trkpt><trkpt lat="42.907179" lon="0.138628"><ele>1901.63</ele><time>2011-09-15T11:23:07Z</time></trkpt><trkpt lat="42.907378" lon="0.138628"><ele>1903.55</ele><time>2011-09-15T11:23:09Z</time></trkpt><trkpt lat="42.907479" lon="0.138594"><ele>1904.03</ele><time>2011-09-15T11:23:10Z</time></trkpt><trkpt lat="42.907573" lon="0.138526"><ele>1904.99</ele><time>2011-09-15T11:23:11Z</time></trkpt><trkpt lat="42.907657" lon="0.138438"><ele>1905.95</ele><time>2011-09-15T11:23:12Z</time></trkpt><trkpt lat="42.907729" lon="0.138342"><ele>1906.43</ele><time>2011-09-15T11:23:13Z</time></trkpt><trkpt lat="42.907796" lon="0.138255"><ele>1906.91</ele><time>2011-09-15T11:23:14Z</time></trkpt><trkpt lat="42.908014" lon="0.138016"><ele>1910.28</ele><time>2011-09-15T11:23:18Z</time></trkpt><trkpt lat="42.908058" lon="0.137987"><ele>1910.76</ele><time>2011-09-15T11:23:19Z</time></trkpt><trkpt lat="42.908127" lon="0.137937"><ele>1911.24</ele><time>2011-09-15T11:23:26Z</time></trkpt><trkpt lat="42.908336" lon="0.137838"><ele>1914.60</ele><time>2011-09-15T11:23:38Z</time></trkpt><trkpt lat="42.908421" lon="0.137815"><ele>1915.56</ele><time>2011-09-15T11:23:39Z</time></trkpt><trkpt lat="42.908501" lon="0.137806"><ele>1916.04</ele><time>2011-09-15T11:23:40Z</time></trkpt><trkpt lat="42.908936" lon="0.137834"><ele>1919.89</ele><time>2011-09-15T11:23:45Z</time></trkpt><trkpt lat="42.909027" lon="0.137869"><ele>1920.85</ele><time>2011-09-15T11:23:46Z</time></trkpt><trkpt lat="42.909978" lon="0.138054"><ele>1930.95</ele><time>2011-09-15T11:23:57Z</time></trkpt><trkpt lat="42.910551" lon="0.138070"><ele>1936.71</ele><time>2011-09-15T11:24:03Z</time></trkpt><trkpt lat="42.910634" lon="0.138111"><ele>1937.67</ele><time>2011-09-15T11:24:04Z</time></trkpt><trkpt lat="42.910699" lon="0.138176"><ele>1938.16</ele><time>2011-09-15T11:24:05Z</time></trkpt><trkpt lat="42.910757" lon="0.138262"><ele>1938.64</ele><time>2011-09-15T11:24:06Z</time></trkpt><trkpt lat="42.910813" lon="0.138362"><ele>1939.60</ele><time>2011-09-15T11:24:07Z</time></trkpt><trkpt lat="42.910866" lon="0.138459"><ele>1940.56</ele><time>2011-09-15T11:24:08Z</time></trkpt><trkpt lat="42.910923" lon="0.138532"><ele>1941.04</ele><time>2011-09-15T11:24:09Z</time></trkpt><trkpt lat="42.910987" lon="0.138565"><ele>1942.00</ele><time>2011-09-15T11:24:10Z</time></trkpt><trkpt lat="42.911053" lon="0.138548"><ele>1942.96</ele><time>2011-09-15T11:24:11Z</time></trkpt><trkpt lat="42.911119" lon="0.138507"><ele>1943.44</ele><time>2011-09-15T11:24:12Z</time></trkpt><trkpt lat="42.911203" lon="0.138401"><ele>1944.40</ele><time>2011-09-15T11:24:13Z</time></trkpt><trkpt lat="42.911284" lon="0.138283"><ele>1944.40</ele><time>2011-09-15T11:24:14Z</time></trkpt><trkpt lat="42.911359" lon="0.138173"><ele>1944.88</ele><time>2011-09-15T11:24:15Z</time></trkpt><trkpt lat="42.911506" lon="0.137986"><ele>1945.85</ele><time>2011-09-15T11:24:17Z</time></trkpt><trkpt lat="42.911590" lon="0.137914"><ele>1946.33</ele><time>2011-09-15T11:24:18Z</time></trkpt><trkpt lat="42.911686" lon="0.137869"><ele>1946.81</ele><time>2011-09-15T11:24:19Z</time></trkpt><trkpt lat="42.911792" lon="0.137849"><ele>1947.29</ele><time>2011-09-15T11:24:20Z</time></trkpt><trkpt lat="42.911907" lon="0.137850"><ele>1947.29</ele><time>2011-09-15T11:24:21Z</time></trkpt><trkpt lat="42.912023" lon="0.137863"><ele>1947.77</ele><time>2011-09-15T11:24:22Z</time></trkpt><trkpt lat="42.912139" lon="0.137864"><ele>1947.77</ele><time>2011-09-15T11:24:23Z</time></trkpt><trkpt lat="42.912253" lon="0.137834"><ele>1947.77</ele><time>2011-09-15T11:24:24Z</time></trkpt><trkpt lat="42.912365" lon="0.137786"><ele>1948.25</ele><time>2011-09-15T11:24:25Z</time></trkpt><trkpt lat="42.912472" lon="0.137728"><ele>1948.25</ele><time>2011-09-15T11:24:26Z</time></trkpt><trkpt lat="42.912570" lon="0.137654"><ele>1948.25</ele><time>2011-09-15T11:24:27Z</time></trkpt><trkpt lat="42.912657" lon="0.137557"><ele>1948.25</ele><time>2011-09-15T11:24:28Z</time></trkpt><trkpt lat="42.912731" lon="0.137442"><ele>1948.73</ele><time>2011-09-15T11:24:29Z</time></trkpt><trkpt lat="42.912790" lon="0.137313"><ele>1948.73</ele><time>2011-09-15T11:24:30Z</time></trkpt><trkpt lat="42.912840" lon="0.137182"><ele>1949.21</ele><time>2011-09-15T11:24:31Z</time></trkpt><trkpt lat="42.912900" lon="0.137056"><ele>1949.21</ele><time>2011-09-15T11:24:32Z</time></trkpt><trkpt lat="42.912976" lon="0.136944"><ele>1949.69</ele><time>2011-09-15T11:24:33Z</time></trkpt><trkpt lat="42.913066" lon="0.136853"><ele>1950.17</ele><time>2011-09-15T11:24:34Z</time></trkpt><trkpt lat="42.913162" lon="0.136793"><ele>1950.17</ele><time>2011-09-15T11:24:35Z</time></trkpt><trkpt lat="42.913258" lon="0.136772"><ele>1950.65</ele><time>2011-09-15T11:24:36Z</time></trkpt><trkpt lat="42.913344" lon="0.136793"><ele>1951.13</ele><time>2011-09-15T11:24:37Z</time></trkpt><trkpt lat="42.913414" lon="0.136855"><ele>1951.13</ele><time>2011-09-15T11:24:38Z</time></trkpt><trkpt lat="42.913421" lon="0.136981"><ele>1952.57</ele><time>2011-09-15T11:24:39Z</time></trkpt><trkpt lat="42.913391" lon="0.137105"><ele>1953.54</ele><time>2011-09-15T11:24:40Z</time></trkpt><trkpt lat="42.913326" lon="0.137203"><ele>1954.02</ele><time>2011-09-15T11:24:41Z</time></trkpt><trkpt lat="42.913256" lon="0.137276"><ele>1954.50</ele><time>2011-09-15T11:24:42Z</time></trkpt><trkpt lat="42.913171" lon="0.137312"><ele>1954.98</ele><time>2011-09-15T11:24:43Z</time></trkpt><trkpt lat="42.913094" lon="0.137340"><ele>1955.94</ele><time>2011-09-15T11:24:44Z</time></trkpt><trkpt lat="42.912940" lon="0.137440"><ele>1957.86</ele><time>2011-09-15T11:24:47Z</time></trkpt><trkpt lat="42.912907" lon="0.137484"><ele>1958.34</ele><time>2011-09-15T11:24:48Z</time></trkpt><trkpt lat="42.912878" lon="0.137535"><ele>1959.30</ele><time>2011-09-15T11:24:49Z</time></trkpt><trkpt lat="42.912538" lon="0.138116"><ele>1965.07</ele><time>2011-09-15T11:24:56Z</time></trkpt><trkpt lat="42.912466" lon="0.138189"><ele>1966.03</ele><time>2011-09-15T11:24:57Z</time></trkpt><trkpt lat="42.912383" lon="0.138256"><ele>1966.99</ele><time>2011-09-15T11:24:58Z</time></trkpt><trkpt lat="42.912291" lon="0.138313"><ele>1967.96</ele><time>2011-09-15T11:24:59Z</time></trkpt><trkpt lat="42.912192" lon="0.138357"><ele>1969.40</ele><time>2011-09-15T11:25:00Z</time></trkpt><trkpt lat="42.912090" lon="0.138385"><ele>1970.36</ele><time>2011-09-15T11:25:01Z</time></trkpt><trkpt lat="42.911988" lon="0.138401"><ele>1971.32</ele><time>2011-09-15T11:25:02Z</time></trkpt><trkpt lat="42.911888" lon="0.138421"><ele>1972.28</ele><time>2011-09-15T11:25:03Z</time></trkpt><trkpt lat="42.911791" lon="0.138463"><ele>1973.72</ele><time>2011-09-15T11:25:04Z</time></trkpt><trkpt lat="42.911703" lon="0.138536"><ele>1974.69</ele><time>2011-09-15T11:25:05Z</time></trkpt><trkpt lat="42.911628" lon="0.138644"><ele>1975.65</ele><time>2011-09-15T11:25:06Z</time></trkpt><trkpt lat="42.911558" lon="0.138775"><ele>1977.09</ele><time>2011-09-15T11:25:07Z</time></trkpt><trkpt lat="42.911384" lon="0.139150"><ele>1980.93</ele><time>2011-09-15T11:25:10Z</time></trkpt><trkpt lat="42.911294" lon="0.139381"><ele>1983.34</ele><time>2011-09-15T11:25:12Z</time></trkpt><trkpt lat="42.911231" lon="0.139468"><ele>1984.78</ele><time>2011-09-15T11:25:13Z</time></trkpt><trkpt lat="42.911152" lon="0.139538"><ele>1985.74</ele><time>2011-09-15T11:25:14Z</time></trkpt><trkpt lat="42.911061" lon="0.139543"><ele>1986.70</ele><time>2011-09-15T11:25:15Z</time></trkpt><trkpt lat="42.910959" lon="0.139526"><ele>1987.66</ele><time>2011-09-15T11:25:16Z</time></trkpt><trkpt lat="42.910849" lon="0.139495"><ele>1988.14</ele><time>2011-09-15T11:25:17Z</time></trkpt><trkpt lat="42.910727" lon="0.139456"><ele>1989.10</ele><time>2011-09-15T11:25:18Z</time></trkpt><trkpt lat="42.909712" lon="0.139324"><ele>1998.72</ele><time>2011-09-15T11:25:26Z</time></trkpt><trkpt lat="42.909475" lon="0.139300"><ele>2001.12</ele><time>2011-09-15T11:25:28Z</time></trkpt><trkpt lat="42.909354" lon="0.139307"><ele>2002.56</ele><time>2011-09-15T11:25:29Z</time></trkpt><trkpt lat="42.909235" lon="0.139325"><ele>2004.01</ele><time>2011-09-15T11:25:30Z</time></trkpt><trkpt lat="42.909123" lon="0.139357"><ele>2004.97</ele><time>2011-09-15T11:25:31Z</time></trkpt><trkpt lat="42.909020" lon="0.139404"><ele>2006.41</ele><time>2011-09-15T11:25:32Z</time></trkpt><trkpt lat="42.908924" lon="0.139463"><ele>2007.37</ele><time>2011-09-15T11:25:33Z</time></trkpt><trkpt lat="42.908835" lon="0.139530"><ele>2008.33</ele><time>2011-09-15T11:25:34Z</time></trkpt><trkpt lat="42.908755" lon="0.139604"><ele>2009.29</ele><time>2011-09-15T11:25:35Z</time></trkpt><trkpt lat="42.908682" lon="0.139687"><ele>2010.25</ele><time>2011-09-15T11:25:36Z</time></trkpt><trkpt lat="42.908616" lon="0.139776"><ele>2011.22</ele><time>2011-09-15T11:25:37Z</time></trkpt><trkpt lat="42.908551" lon="0.139869"><ele>2012.18</ele><time>2011-09-15T11:25:38Z</time></trkpt><trkpt lat="42.908415" lon="0.140048"><ele>2014.58</ele><time>2011-09-15T11:25:40Z</time></trkpt><trkpt lat="42.908333" lon="0.140117"><ele>2015.54</ele><time>2011-09-15T11:25:41Z</time></trkpt><trkpt lat="42.908157" lon="0.140249"><ele>2017.94</ele><time>2011-09-15T11:25:43Z</time></trkpt><trkpt lat="42.908080" lon="0.140329"><ele>2018.91</ele><time>2011-09-15T11:25:44Z</time></trkpt><trkpt lat="42.908016" lon="0.140419"><ele>2019.87</ele><time>2011-09-15T11:25:45Z</time></trkpt><trkpt lat="42.907500" lon="0.141162"><ele>2026.12</ele><time>2011-09-15T11:25:54Z</time></trkpt><trkpt lat="42.907451" lon="0.141259"><ele>2026.60</ele><time>2011-09-15T11:25:55Z</time></trkpt><trkpt lat="42.907408" lon="0.141369"><ele>2027.56</ele><time>2011-09-15T11:25:56Z</time></trkpt><trkpt lat="42.907182" lon="0.142364"><ele>2034.29</ele><time>2011-09-15T11:26:05Z</time></trkpt><trkpt lat="42.907185" lon="0.142479"><ele>2035.25</ele><time>2011-09-15T11:26:06Z</time></trkpt><trkpt lat="42.907205" lon="0.142595"><ele>2036.21</ele><time>2011-09-15T11:26:07Z</time></trkpt><trkpt lat="42.907239" lon="0.142705"><ele>2037.17</ele><time>2011-09-15T11:26:08Z</time></trkpt><trkpt lat="42.907281" lon="0.142806"><ele>2038.13</ele><time>2011-09-15T11:26:09Z</time></trkpt><trkpt lat="42.907464" lon="0.143509"><ele>2044.86</ele><time>2011-09-15T11:26:16Z</time></trkpt><trkpt lat="42.907466" lon="0.143611"><ele>2045.82</ele><time>2011-09-15T11:26:17Z</time></trkpt><trkpt lat="42.907456" lon="0.143710"><ele>2046.78</ele><time>2011-09-15T11:26:18Z</time></trkpt><trkpt lat="42.907433" lon="0.143808"><ele>2047.75</ele><time>2011-09-15T11:26:19Z</time></trkpt><trkpt lat="42.907390" lon="0.143903"><ele>2048.71</ele><time>2011-09-15T11:26:20Z</time></trkpt><trkpt lat="42.907327" lon="0.143980"><ele>2049.67</ele><time>2011-09-15T11:26:21Z</time></trkpt><trkpt lat="42.907246" lon="0.144050"><ele>2050.63</ele><time>2011-09-15T11:26:22Z</time></trkpt><trkpt lat="42.907152" lon="0.144128"><ele>2051.59</ele><time>2011-09-15T11:26:23Z</time></trkpt><trkpt lat="42.906952" lon="0.144275"><ele>2053.99</ele><time>2011-09-15T11:26:25Z</time></trkpt><trkpt lat="42.906851" lon="0.144328"><ele>2054.47</ele><time>2011-09-15T11:26:26Z</time></trkpt><trkpt lat="42.906412" lon="0.144556"><ele>2059.28</ele><time>2011-09-15T11:26:30Z</time></trkpt><trkpt lat="42.906317" lon="0.144641"><ele>2060.24</ele><time>2011-09-15T11:26:31Z</time></trkpt><trkpt lat="42.906240" lon="0.144755"><ele>2061.68</ele><time>2011-09-15T11:26:32Z</time></trkpt><trkpt lat="42.906175" lon="0.144896"><ele>2062.65</ele><time>2011-09-15T11:26:33Z</time></trkpt><trkpt lat="42.906117" lon="0.145051"><ele>2064.09</ele><time>2011-09-15T11:26:34Z</time></trkpt><trkpt lat="42.905924" lon="0.145702"><ele>2069.38</ele><time>2011-09-15T11:26:38Z</time></trkpt><trkpt lat="42.905866" lon="0.145849"><ele>2070.82</ele><time>2011-09-15T11:26:39Z</time></trkpt><trkpt lat="42.905798" lon="0.145989"><ele>2072.26</ele><time>2011-09-15T11:26:40Z</time></trkpt><trkpt lat="42.905559" lon="0.146347"><ele>2076.10</ele><time>2011-09-15T11:26:43Z</time></trkpt><trkpt lat="42.905469" lon="0.146415"><ele>2077.07</ele><time>2011-09-15T11:26:44Z</time></trkpt><trkpt lat="42.905373" lon="0.146458"><ele>2077.55</ele><time>2011-09-15T11:26:45Z</time></trkpt><trkpt lat="42.905201" lon="0.146524"><ele>2078.51</ele><time>2011-09-15T11:26:47Z</time></trkpt><trkpt lat="42.905139" lon="0.146566"><ele>2079.47</ele><time>2011-09-15T11:26:48Z</time></trkpt><trkpt lat="42.905105" lon="0.146620"><ele>2080.43</ele><time>2011-09-15T11:26:49Z</time></trkpt><trkpt lat="42.905082" lon="0.146677"><ele>2081.87</ele><time>2011-09-15T11:26:50Z</time></trkpt><trkpt lat="42.905106" lon="0.146717"><ele>2082.35</ele><time>2011-09-15T11:26:51Z</time></trkpt><trkpt lat="42.905215" lon="0.146731"><ele>2082.83</ele><time>2011-09-15T11:26:52Z</time></trkpt><trkpt lat="42.905300" lon="0.146711"><ele>2083.79</ele><time>2011-09-15T11:26:53Z</time></trkpt><trkpt lat="42.905386" lon="0.146676"><ele>2085.24</ele><time>2011-09-15T11:26:54Z</time></trkpt><trkpt lat="42.905469" lon="0.146640"><ele>2085.72</ele><time>2011-09-15T11:26:55Z</time></trkpt><trkpt lat="42.905704" lon="0.146471"><ele>2089.56</ele><time>2011-09-15T11:26:58Z</time></trkpt><trkpt lat="42.905787" lon="0.146378"><ele>2091.00</ele><time>2011-09-15T11:26:59Z</time></trkpt><trkpt lat="42.905867" lon="0.146274"><ele>2093.41</ele><time>2011-09-15T11:27:00Z</time></trkpt><trkpt lat="42.906642" lon="0.145543"><ele>2103.02</ele><time>2011-09-15T11:27:09Z</time></trkpt><trkpt lat="42.906715" lon="0.145460"><ele>2103.98</ele><time>2011-09-15T11:27:10Z</time></trkpt><trkpt lat="42.906844" lon="0.145285"><ele>2106.39</ele><time>2011-09-15T11:27:12Z</time></trkpt><trkpt lat="42.906903" lon="0.145223"><ele>2107.35</ele><time>2011-09-15T11:27:13Z</time></trkpt><trkpt lat="42.906995" lon="0.145148"><ele>2109.75</ele><time>2011-09-15T11:27:15Z</time></trkpt><trkpt lat="42.907049" lon="0.145131"><ele>2110.23</ele><time>2011-09-15T11:27:16Z</time></trkpt><trkpt lat="42.907111" lon="0.145128"><ele>2111.19</ele><time>2011-09-15T11:27:17Z</time></trkpt><trkpt lat="42.907493" lon="0.145116"><ele>2116.00</ele><time>2011-09-15T11:27:22Z</time></trkpt><trkpt lat="42.907570" lon="0.145132"><ele>2116.96</ele><time>2011-09-15T11:27:23Z</time></trkpt><trkpt lat="42.907644" lon="0.145155"><ele>2118.40</ele><time>2011-09-15T11:27:24Z</time></trkpt><trkpt lat="42.907715" lon="0.145177"><ele>2119.36</ele><time>2011-09-15T11:27:25Z</time></trkpt><trkpt lat="42.907786" lon="0.145189"><ele>2120.32</ele><time>2011-09-15T11:27:26Z</time></trkpt><trkpt lat="42.907856" lon="0.145186"><ele>2120.81</ele><time>2011-09-15T11:27:27Z</time></trkpt><trkpt lat="42.907924" lon="0.145169"><ele>2121.29</ele><time>2011-09-15T11:27:28Z</time></trkpt><trkpt lat="42.907983" lon="0.145141"><ele>2121.77</ele><time>2011-09-15T11:27:29Z</time></trkpt><trkpt lat="42.908033" lon="0.145108"><ele>2122.73</ele><time>2011-09-15T11:27:30Z</time></trkpt><trkpt lat="42.908075" lon="0.145076"><ele>2123.21</ele><time>2011-09-15T11:27:31Z</time></trkpt><trkpt lat="42.908111" lon="0.145051"><ele>2123.69</ele><time>2011-09-15T11:27:32Z</time></trkpt><trkpt lat="42.908146" lon="0.145043"><ele>2123.21</ele><time>2011-09-15T11:27:33Z</time></trkpt><trkpt lat="42.908170" lon="0.145042"><ele>2123.21</ele><time>2011-09-15T11:27:34Z</time></trkpt><trkpt lat="42.908141" lon="0.145040"><ele>2122.73</ele><time>2011-09-15T11:27:45Z</time></trkpt><trkpt lat="42.908127" lon="0.145055"><ele>2120.32</ele><time>2011-09-15T11:28:20Z</time></trkpt><trkpt lat="42.908116" lon="0.145065"><ele>2119.36</ele><time>2011-09-15T11:34:36Z</time></trkpt><trkpt lat="42.908133" lon="0.145084"><ele>2119.84</ele><time>2011-09-15T11:34:37Z</time></trkpt><trkpt lat="42.908163" lon="0.145114"><ele>2119.84</ele><time>2011-09-15T11:34:38Z</time></trkpt><trkpt lat="42.908205" lon="0.145145"><ele>2120.32</ele><time>2011-09-15T11:34:39Z</time></trkpt><trkpt lat="42.908257" lon="0.145178"><ele>2120.81</ele><time>2011-09-15T11:34:40Z</time></trkpt><trkpt lat="42.908307" lon="0.145217"><ele>2121.29</ele><time>2011-09-15T11:34:41Z</time></trkpt><trkpt lat="42.908352" lon="0.145265"><ele>2121.77</ele><time>2011-09-15T11:34:42Z</time></trkpt><trkpt lat="42.908393" lon="0.145325"><ele>2121.77</ele><time>2011-09-15T11:34:43Z</time></trkpt><trkpt lat="42.908431" lon="0.145396"><ele>2121.77</ele><time>2011-09-15T11:34:44Z</time></trkpt><trkpt lat="42.908466" lon="0.145470"><ele>2121.29</ele><time>2011-09-15T11:34:45Z</time></trkpt><trkpt lat="42.908580" lon="0.145769"><ele>2118.40</ele><time>2011-09-15T11:34:49Z</time></trkpt><trkpt lat="42.908593" lon="0.145852"><ele>2117.44</ele><time>2011-09-15T11:34:50Z</time></trkpt><trkpt lat="42.908592" lon="0.145938"><ele>2116.48</ele><time>2011-09-15T11:34:51Z</time></trkpt><trkpt lat="42.908576" lon="0.146023"><ele>2115.52</ele><time>2011-09-15T11:34:52Z</time></trkpt><trkpt lat="42.908545" lon="0.146099"><ele>2114.56</ele><time>2011-09-15T11:34:53Z</time></trkpt><trkpt lat="42.908510" lon="0.146169"><ele>2114.08</ele><time>2011-09-15T11:34:54Z</time></trkpt><trkpt lat="42.908477" lon="0.146234"><ele>2113.12</ele><time>2011-09-15T11:34:55Z</time></trkpt><trkpt lat="42.908448" lon="0.146295"><ele>2112.63</ele><time>2011-09-15T11:34:56Z</time></trkpt><trkpt lat="42.908356" lon="0.146459"><ele>2110.71</ele><time>2011-09-15T11:34:59Z</time></trkpt><trkpt lat="42.908315" lon="0.146513"><ele>2109.75</ele><time>2011-09-15T11:35:00Z</time></trkpt><trkpt lat="42.907657" lon="0.147296"><ele>2099.66</ele><time>2011-09-15T11:35:11Z</time></trkpt><trkpt lat="42.907397" lon="0.147558"><ele>2095.81</ele><time>2011-09-15T11:35:14Z</time></trkpt><trkpt lat="42.907293" lon="0.147626"><ele>2094.37</ele><time>2011-09-15T11:35:15Z</time></trkpt><trkpt lat="42.907183" lon="0.147678"><ele>2092.93</ele><time>2011-09-15T11:35:16Z</time></trkpt><trkpt lat="42.906025" lon="0.148037"><ele>2078.51</ele><time>2011-09-15T11:35:27Z</time></trkpt><trkpt lat="42.905971" lon="0.148100"><ele>2077.55</ele><time>2011-09-15T11:35:28Z</time></trkpt><trkpt lat="42.905940" lon="0.148172"><ele>2077.07</ele><time>2011-09-15T11:35:29Z</time></trkpt><trkpt lat="42.905944" lon="0.148246"><ele>2077.07</ele><time>2011-09-15T11:35:30Z</time></trkpt><trkpt lat="42.905981" lon="0.148300"><ele>2075.62</ele><time>2011-09-15T11:35:31Z</time></trkpt><trkpt lat="42.906063" lon="0.148301"><ele>2073.70</ele><time>2011-09-15T11:35:32Z</time></trkpt><trkpt lat="42.906166" lon="0.148268"><ele>2072.74</ele><time>2011-09-15T11:35:33Z</time></trkpt><trkpt lat="42.906271" lon="0.148231"><ele>2071.78</ele><time>2011-09-15T11:35:34Z</time></trkpt><trkpt lat="42.906371" lon="0.148206"><ele>2070.82</ele><time>2011-09-15T11:35:35Z</time></trkpt><trkpt lat="42.906477" lon="0.148208"><ele>2069.86</ele><time>2011-09-15T11:35:36Z</time></trkpt><trkpt lat="42.906601" lon="0.148233"><ele>2068.89</ele><time>2011-09-15T11:35:37Z</time></trkpt><trkpt lat="42.906727" lon="0.148289"><ele>2068.41</ele><time>2011-09-15T11:35:38Z</time></trkpt><trkpt lat="42.906846" lon="0.148363"><ele>2066.97</ele><time>2011-09-15T11:35:39Z</time></trkpt><trkpt lat="42.906959" lon="0.148448"><ele>2066.01</ele><time>2011-09-15T11:35:40Z</time></trkpt><trkpt lat="42.907069" lon="0.148538"><ele>2065.05</ele><time>2011-09-15T11:35:41Z</time></trkpt><trkpt lat="42.907297" lon="0.148707"><ele>2063.61</ele><time>2011-09-15T11:35:43Z</time></trkpt><trkpt lat="42.907415" lon="0.148757"><ele>2063.13</ele><time>2011-09-15T11:35:44Z</time></trkpt><trkpt lat="42.907536" lon="0.148773"><ele>2062.17</ele><time>2011-09-15T11:35:45Z</time></trkpt><trkpt lat="42.907774" lon="0.148796"><ele>2059.76</ele><time>2011-09-15T11:35:47Z</time></trkpt><trkpt lat="42.907894" lon="0.148841"><ele>2059.28</ele><time>2011-09-15T11:35:48Z</time></trkpt><trkpt lat="42.908130" lon="0.148921"><ele>2056.88</ele><time>2011-09-15T11:35:50Z</time></trkpt><trkpt lat="42.908250" lon="0.148932"><ele>2055.92</ele><time>2011-09-15T11:35:51Z</time></trkpt><trkpt lat="42.908367" lon="0.148927"><ele>2054.96</ele><time>2011-09-15T11:35:52Z</time></trkpt><trkpt lat="42.908576" lon="0.148936"><ele>2053.03</ele><time>2011-09-15T11:35:54Z</time></trkpt><trkpt lat="42.908652" lon="0.148995"><ele>2052.07</ele><time>2011-09-15T11:35:55Z</time></trkpt><trkpt lat="42.908699" lon="0.149086"><ele>2051.11</ele><time>2011-09-15T11:35:56Z</time></trkpt><trkpt lat="42.908693" lon="0.149209"><ele>2050.15</ele><time>2011-09-15T11:35:57Z</time></trkpt><trkpt lat="42.908668" lon="0.149331"><ele>2049.19</ele><time>2011-09-15T11:35:58Z</time></trkpt><trkpt lat="42.908633" lon="0.149447"><ele>2047.75</ele><time>2011-09-15T11:35:59Z</time></trkpt><trkpt lat="42.908606" lon="0.149568"><ele>2046.78</ele><time>2011-09-15T11:36:00Z</time></trkpt><trkpt lat="42.908593" lon="0.149695"><ele>2045.34</ele><time>2011-09-15T11:36:01Z</time></trkpt><trkpt lat="42.908595" lon="0.149825"><ele>2044.38</ele><time>2011-09-15T11:36:02Z</time></trkpt><trkpt lat="42.908611" lon="0.149953"><ele>2043.42</ele><time>2011-09-15T11:36:03Z</time></trkpt><trkpt lat="42.908641" lon="0.150076"><ele>2041.98</ele><time>2011-09-15T11:36:04Z</time></trkpt><trkpt lat="42.908685" lon="0.150193"><ele>2041.02</ele><time>2011-09-15T11:36:05Z</time></trkpt><trkpt lat="42.908736" lon="0.150305"><ele>2040.05</ele><time>2011-09-15T11:36:06Z</time></trkpt><trkpt lat="42.908986" lon="0.151088"><ele>2033.81</ele><time>2011-09-15T11:36:12Z</time></trkpt><trkpt lat="42.909004" lon="0.151235"><ele>2032.84</ele><time>2011-09-15T11:36:13Z</time></trkpt><trkpt lat="42.908999" lon="0.151381"><ele>2031.88</ele><time>2011-09-15T11:36:14Z</time></trkpt><trkpt lat="42.908969" lon="0.151522"><ele>2030.44</ele><time>2011-09-15T11:36:15Z</time></trkpt><trkpt lat="42.908931" lon="0.151658"><ele>2029.48</ele><time>2011-09-15T11:36:16Z</time></trkpt><trkpt lat="42.908727" lon="0.152541"><ele>2022.75</ele><time>2011-09-15T11:36:22Z</time></trkpt><trkpt lat="42.908436" lon="0.153348"><ele>2016.98</ele><time>2011-09-15T11:36:28Z</time></trkpt><trkpt lat="42.908412" lon="0.153485"><ele>2015.54</ele><time>2011-09-15T11:36:29Z</time></trkpt><trkpt lat="42.908408" lon="0.153625"><ele>2014.58</ele><time>2011-09-15T11:36:30Z</time></trkpt><trkpt lat="42.908426" lon="0.153764"><ele>2013.62</ele><time>2011-09-15T11:36:31Z</time></trkpt><trkpt lat="42.908462" lon="0.153902"><ele>2012.18</ele><time>2011-09-15T11:36:32Z</time></trkpt><trkpt lat="42.908508" lon="0.154038"><ele>2011.22</ele><time>2011-09-15T11:36:33Z</time></trkpt><trkpt lat="42.908718" lon="0.154553"><ele>2007.37</ele><time>2011-09-15T11:36:37Z</time></trkpt><trkpt lat="42.908798" lon="0.154640"><ele>2005.93</ele><time>2011-09-15T11:36:38Z</time></trkpt><trkpt lat="42.908893" lon="0.154685"><ele>2004.97</ele><time>2011-09-15T11:36:39Z</time></trkpt><trkpt lat="42.908999" lon="0.154704"><ele>2004.01</ele><time>2011-09-15T11:36:40Z</time></trkpt><trkpt lat="42.909107" lon="0.154735"><ele>2002.56</ele><time>2011-09-15T11:36:41Z</time></trkpt><trkpt lat="42.909207" lon="0.154801"><ele>2001.12</ele><time>2011-09-15T11:36:42Z</time></trkpt><trkpt lat="42.909294" lon="0.154902"><ele>2000.16</ele><time>2011-09-15T11:36:43Z</time></trkpt><trkpt lat="42.909373" lon="0.155019"><ele>1998.72</ele><time>2011-09-15T11:36:44Z</time></trkpt><trkpt lat="42.909446" lon="0.155140"><ele>1997.76</ele><time>2011-09-15T11:36:45Z</time></trkpt><trkpt lat="42.909589" lon="0.155356"><ele>1995.83</ele><time>2011-09-15T11:36:47Z</time></trkpt><trkpt lat="42.909658" lon="0.155431"><ele>1994.87</ele><time>2011-09-15T11:36:48Z</time></trkpt><trkpt lat="42.909720" lon="0.155485"><ele>1993.91</ele><time>2011-09-15T11:36:49Z</time></trkpt><trkpt lat="42.909770" lon="0.155521"><ele>1993.43</ele><time>2011-09-15T11:36:50Z</time></trkpt><trkpt lat="42.909804" lon="0.155543"><ele>1992.95</ele><time>2011-09-15T11:36:51Z</time></trkpt><trkpt lat="42.910017" lon="0.155712"><ele>1990.55</ele><time>2011-09-15T11:37:01Z</time></trkpt><trkpt lat="42.910047" lon="0.155738"><ele>1990.55</ele><time>2011-09-15T11:37:14Z</time></trkpt><trkpt lat="42.910076" lon="0.155780"><ele>1990.55</ele><time>2011-09-15T11:37:22Z</time></trkpt><trkpt lat="42.910105" lon="0.155835"><ele>1990.07</ele><time>2011-09-15T11:37:23Z</time></trkpt><trkpt lat="42.910133" lon="0.155904"><ele>1989.59</ele><time>2011-09-15T11:37:24Z</time></trkpt><trkpt lat="42.910154" lon="0.155977"><ele>1989.10</ele><time>2011-09-15T11:37:25Z</time></trkpt><trkpt lat="42.910162" lon="0.156047"><ele>1988.62</ele><time>2011-09-15T11:37:26Z</time></trkpt><trkpt lat="42.910153" lon="0.156118"><ele>1988.14</ele><time>2011-09-15T11:37:27Z</time></trkpt><trkpt lat="42.910128" lon="0.156187"><ele>1987.18</ele><time>2011-09-15T11:37:28Z</time></trkpt><trkpt lat="42.910084" lon="0.156244"><ele>1986.70</ele><time>2011-09-15T11:37:29Z</time></trkpt><trkpt lat="42.910025" lon="0.156273"><ele>1985.74</ele><time>2011-09-15T11:37:30Z</time></trkpt><trkpt lat="42.909959" lon="0.156270"><ele>1985.26</ele><time>2011-09-15T11:37:31Z</time></trkpt><trkpt lat="42.909894" lon="0.156233"><ele>1984.78</ele><time>2011-09-15T11:37:32Z</time></trkpt><trkpt lat="42.909832" lon="0.156172"><ele>1983.82</ele><time>2011-09-15T11:37:33Z</time></trkpt><trkpt lat="42.909768" lon="0.156106"><ele>1983.34</ele><time>2011-09-15T11:37:34Z</time></trkpt><trkpt lat="42.909696" lon="0.156051"><ele>1982.38</ele><time>2011-09-15T11:37:35Z</time></trkpt><trkpt lat="42.909614" lon="0.156024"><ele>1981.41</ele><time>2011-09-15T11:37:36Z</time></trkpt><trkpt lat="42.909529" lon="0.156031"><ele>1980.93</ele><time>2011-09-15T11:37:37Z</time></trkpt><trkpt lat="42.909443" lon="0.156064"><ele>1979.97</ele><time>2011-09-15T11:37:38Z</time></trkpt><trkpt lat="42.909359" lon="0.156113"><ele>1979.01</ele><time>2011-09-15T11:37:39Z</time></trkpt><trkpt lat="42.909274" lon="0.156172"><ele>1978.53</ele><time>2011-09-15T11:37:40Z</time></trkpt><trkpt lat="42.909011" lon="0.156379"><ele>1975.65</ele><time>2011-09-15T11:37:43Z</time></trkpt><trkpt lat="42.908920" lon="0.156411"><ele>1974.20</ele><time>2011-09-15T11:37:44Z</time></trkpt><trkpt lat="42.908825" lon="0.156414"><ele>1973.24</ele><time>2011-09-15T11:37:45Z</time></trkpt><trkpt lat="42.908731" lon="0.156393"><ele>1972.28</ele><time>2011-09-15T11:37:46Z</time></trkpt><trkpt lat="42.908639" lon="0.156358"><ele>1971.32</ele><time>2011-09-15T11:37:47Z</time></trkpt><trkpt lat="42.908549" lon="0.156313"><ele>1970.36</ele><time>2011-09-15T11:37:48Z</time></trkpt><trkpt lat="42.908371" lon="0.156236"><ele>1968.92</ele><time>2011-09-15T11:37:50Z</time></trkpt><trkpt lat="42.908282" lon="0.156227"><ele>1967.96</ele><time>2011-09-15T11:37:51Z</time></trkpt><trkpt lat="42.908127" lon="0.156224"><ele>1966.03</ele><time>2011-09-15T11:37:53Z</time></trkpt><trkpt lat="42.908056" lon="0.156199"><ele>1965.07</ele><time>2011-09-15T11:37:54Z</time></trkpt><trkpt lat="42.907993" lon="0.156150"><ele>1964.11</ele><time>2011-09-15T11:37:55Z</time></trkpt><trkpt lat="42.907940" lon="0.156079"><ele>1963.15</ele><time>2011-09-15T11:37:56Z</time></trkpt><trkpt lat="42.907891" lon="0.156002"><ele>1962.19</ele><time>2011-09-15T11:37:57Z</time></trkpt><trkpt lat="42.907569" lon="0.155648"><ele>1958.34</ele><time>2011-09-15T11:38:02Z</time></trkpt><trkpt lat="42.907483" lon="0.155601"><ele>1957.38</ele><time>2011-09-15T11:38:03Z</time></trkpt><trkpt lat="42.907396" lon="0.155551"><ele>1956.42</ele><time>2011-09-15T11:38:04Z</time></trkpt><trkpt lat="42.907312" lon="0.155475"><ele>1955.46</ele><time>2011-09-15T11:38:05Z</time></trkpt><trkpt lat="42.907229" lon="0.155372"><ele>1954.02</ele><time>2011-09-15T11:38:06Z</time></trkpt><trkpt lat="42.907143" lon="0.155256"><ele>1953.06</ele><time>2011-09-15T11:38:07Z</time></trkpt><trkpt lat="42.906810" lon="0.154777"><ele>1948.25</ele><time>2011-09-15T11:38:11Z</time></trkpt><trkpt lat="42.906761" lon="0.154645"><ele>1947.29</ele><time>2011-09-15T11:38:12Z</time></trkpt><trkpt lat="42.906748" lon="0.154501"><ele>1946.81</ele><time>2011-09-15T11:38:13Z</time></trkpt><trkpt lat="42.906756" lon="0.154355"><ele>1945.85</ele><time>2011-09-15T11:38:14Z</time></trkpt><trkpt lat="42.906776" lon="0.154215"><ele>1944.88</ele><time>2011-09-15T11:38:15Z</time></trkpt><trkpt lat="42.906791" lon="0.154087"><ele>1944.40</ele><time>2011-09-15T11:38:16Z</time></trkpt><trkpt lat="42.906792" lon="0.153979"><ele>1943.44</ele><time>2011-09-15T11:38:17Z</time></trkpt><trkpt lat="42.906776" lon="0.153894"><ele>1942.48</ele><time>2011-09-15T11:38:18Z</time></trkpt><trkpt lat="42.906735" lon="0.153831"><ele>1941.52</ele><time>2011-09-15T11:38:19Z</time></trkpt><trkpt lat="42.906675" lon="0.153814"><ele>1941.04</ele><time>2011-09-15T11:38:20Z</time></trkpt><trkpt lat="42.906614" lon="0.153861"><ele>1940.56</ele><time>2011-09-15T11:38:21Z</time></trkpt><trkpt lat="42.906564" lon="0.153957"><ele>1939.60</ele><time>2011-09-15T11:38:22Z</time></trkpt><trkpt lat="42.906533" lon="0.154082"><ele>1939.12</ele><time>2011-09-15T11:38:23Z</time></trkpt><trkpt lat="42.906517" lon="0.154221"><ele>1938.16</ele><time>2011-09-15T11:38:24Z</time></trkpt><trkpt lat="42.906506" lon="0.154362"><ele>1937.67</ele><time>2011-09-15T11:38:25Z</time></trkpt><trkpt lat="42.906525" lon="0.155143"><ele>1932.87</ele><time>2011-09-15T11:38:30Z</time></trkpt><trkpt lat="42.906553" lon="0.155305"><ele>1931.91</ele><time>2011-09-15T11:38:31Z</time></trkpt><trkpt lat="42.906935" lon="0.156853"><ele>1920.85</ele><time>2011-09-15T11:38:40Z</time></trkpt><trkpt lat="42.907015" lon="0.157015"><ele>1919.89</ele><time>2011-09-15T11:38:41Z</time></trkpt><trkpt lat="42.907103" lon="0.157166"><ele>1918.45</ele><time>2011-09-15T11:38:42Z</time></trkpt><trkpt lat="42.907190" lon="0.157316"><ele>1917.49</ele><time>2011-09-15T11:38:43Z</time></trkpt><trkpt lat="42.907265" lon="0.157474"><ele>1916.04</ele><time>2011-09-15T11:38:44Z</time></trkpt><trkpt lat="42.907327" lon="0.157636"><ele>1915.08</ele><time>2011-09-15T11:38:45Z</time></trkpt><trkpt lat="42.907454" lon="0.157932"><ele>1912.68</ele><time>2011-09-15T11:38:47Z</time></trkpt><trkpt lat="42.907533" lon="0.158070"><ele>1911.24</ele><time>2011-09-15T11:38:48Z</time></trkpt><trkpt lat="42.908342" lon="0.159291"><ele>1899.22</ele><time>2011-09-15T11:38:57Z</time></trkpt><trkpt lat="42.908409" lon="0.159437"><ele>1898.26</ele><time>2011-09-15T11:38:58Z</time></trkpt><trkpt lat="42.908520" lon="0.159751"><ele>1895.38</ele><time>2011-09-15T11:39:00Z</time></trkpt><trkpt lat="42.908561" lon="0.159924"><ele>1893.93</ele><time>2011-09-15T11:39:01Z</time></trkpt><trkpt lat="42.909119" lon="0.162344"><ele>1876.63</ele><time>2011-09-15T11:39:14Z</time></trkpt><trkpt lat="42.909403" lon="0.163017"><ele>1870.86</ele><time>2011-09-15T11:39:18Z</time></trkpt><trkpt lat="42.909454" lon="0.163198"><ele>1869.42</ele><time>2011-09-15T11:39:19Z</time></trkpt><trkpt lat="42.909492" lon="0.163385"><ele>1867.98</ele><time>2011-09-15T11:39:20Z</time></trkpt><trkpt lat="42.909651" lon="0.164306"><ele>1860.77</ele><time>2011-09-15T11:39:25Z</time></trkpt><trkpt lat="42.909661" lon="0.164495"><ele>1859.33</ele><time>2011-09-15T11:39:26Z</time></trkpt><trkpt lat="42.909651" lon="0.164684"><ele>1857.89</ele><time>2011-09-15T11:39:27Z</time></trkpt><trkpt lat="42.909630" lon="0.164869"><ele>1856.92</ele><time>2011-09-15T11:39:28Z</time></trkpt><trkpt lat="42.909609" lon="0.165047"><ele>1855.48</ele><time>2011-09-15T11:39:29Z</time></trkpt><trkpt lat="42.909435" lon="0.166731"><ele>1844.43</ele><time>2011-09-15T11:39:39Z</time></trkpt><trkpt lat="42.909464" lon="0.167406"><ele>1839.62</ele><time>2011-09-15T11:39:43Z</time></trkpt><trkpt lat="42.909496" lon="0.167554"><ele>1838.18</ele><time>2011-09-15T11:39:44Z</time></trkpt><trkpt lat="42.909541" lon="0.167695"><ele>1837.22</ele><time>2011-09-15T11:39:45Z</time></trkpt><trkpt lat="42.909596" lon="0.167831"><ele>1835.77</ele><time>2011-09-15T11:39:46Z</time></trkpt><trkpt lat="42.909658" lon="0.167963"><ele>1834.81</ele><time>2011-09-15T11:39:47Z</time></trkpt><trkpt lat="42.909725" lon="0.168095"><ele>1833.85</ele><time>2011-09-15T11:39:48Z</time></trkpt><trkpt lat="42.909783" lon="0.168232"><ele>1832.89</ele><time>2011-09-15T11:39:49Z</time></trkpt><trkpt lat="42.909828" lon="0.168379"><ele>1831.45</ele><time>2011-09-15T11:39:50Z</time></trkpt><trkpt lat="42.910176" lon="0.169407"><ele>1823.28</ele><time>2011-09-15T11:39:57Z</time></trkpt><trkpt lat="42.910214" lon="0.169561"><ele>1822.32</ele><time>2011-09-15T11:39:58Z</time></trkpt><trkpt lat="42.910239" lon="0.169721"><ele>1821.35</ele><time>2011-09-15T11:39:59Z</time></trkpt><trkpt lat="42.910250" lon="0.169883"><ele>1819.91</ele><time>2011-09-15T11:40:00Z</time></trkpt><trkpt lat="42.910257" lon="0.170046"><ele>1818.95</ele><time>2011-09-15T11:40:01Z</time></trkpt><trkpt lat="42.910318" lon="0.172399"><ele>1803.09</ele><time>2011-09-15T11:40:15Z</time></trkpt><trkpt lat="42.910351" lon="0.173521"><ele>1795.88</ele><time>2011-09-15T11:40:22Z</time></trkpt><trkpt lat="42.910390" lon="0.173668"><ele>1794.44</ele><time>2011-09-15T11:40:23Z</time></trkpt><trkpt lat="42.910596" lon="0.174969"><ele>1785.31</ele><time>2011-09-15T11:40:31Z</time></trkpt><trkpt lat="42.910583" lon="0.175929"><ele>1778.58</ele><time>2011-09-15T11:40:37Z</time></trkpt><trkpt lat="42.910604" lon="0.176077"><ele>1777.13</ele><time>2011-09-15T11:40:38Z</time></trkpt><trkpt lat="42.910639" lon="0.176224"><ele>1776.17</ele><time>2011-09-15T11:40:39Z</time></trkpt><trkpt lat="42.911050" lon="0.178215"><ele>1762.23</ele><time>2011-09-15T11:40:52Z</time></trkpt><trkpt lat="42.911012" lon="0.178686"><ele>1758.87</ele><time>2011-09-15T11:40:55Z</time></trkpt><trkpt lat="42.910968" lon="0.178810"><ele>1757.91</ele><time>2011-09-15T11:40:56Z</time></trkpt><trkpt lat="42.910908" lon="0.178913"><ele>1756.95</ele><time>2011-09-15T11:40:57Z</time></trkpt><trkpt lat="42.910805" lon="0.178968"><ele>1756.47</ele><time>2011-09-15T11:40:58Z</time></trkpt><trkpt lat="42.910717" lon="0.179006"><ele>1755.99</ele><time>2011-09-15T11:40:59Z</time></trkpt><trkpt lat="42.910624" lon="0.179049"><ele>1755.50</ele><time>2011-09-15T11:41:00Z</time></trkpt><trkpt lat="42.910529" lon="0.179087"><ele>1755.02</ele><time>2011-09-15T11:41:01Z</time></trkpt><trkpt lat="42.910196" lon="0.179247"><ele>1753.58</ele><time>2011-09-15T11:41:05Z</time></trkpt><trkpt lat="42.910123" lon="0.179296"><ele>1754.54</ele><time>2011-09-15T11:41:06Z</time></trkpt><trkpt lat="42.910065" lon="0.179370"><ele>1754.06</ele><time>2011-09-15T11:41:07Z</time></trkpt><trkpt lat="42.910024" lon="0.179470"><ele>1754.06</ele><time>2011-09-15T11:41:08Z</time></trkpt><trkpt lat="42.909999" lon="0.179583"><ele>1753.10</ele><time>2011-09-15T11:41:09Z</time></trkpt><trkpt lat="42.909986" lon="0.179704"><ele>1752.14</ele><time>2011-09-15T11:41:10Z</time></trkpt><trkpt lat="42.909994" lon="0.179836"><ele>1751.18</ele><time>2011-09-15T11:41:11Z</time></trkpt><trkpt lat="42.910021" lon="0.179968"><ele>1750.22</ele><time>2011-09-15T11:41:12Z</time></trkpt><trkpt lat="42.910053" lon="0.180101"><ele>1748.78</ele><time>2011-09-15T11:41:13Z</time></trkpt><trkpt lat="42.910086" lon="0.180239"><ele>1747.81</ele><time>2011-09-15T11:41:14Z</time></trkpt><trkpt lat="42.910471" lon="0.181718"><ele>1732.91</ele><time>2011-09-15T11:41:25Z</time></trkpt><trkpt lat="42.910949" lon="0.182538"><ele>1723.78</ele><time>2011-09-15T11:41:32Z</time></trkpt><trkpt lat="42.911001" lon="0.182676"><ele>1722.34</ele><time>2011-09-15T11:41:33Z</time></trkpt><trkpt lat="42.911350" lon="0.183651"><ele>1712.73</ele><time>2011-09-15T11:41:40Z</time></trkpt><trkpt lat="42.911432" lon="0.183770"><ele>1711.28</ele><time>2011-09-15T11:41:41Z</time></trkpt><trkpt lat="42.911522" lon="0.183884"><ele>1710.32</ele><time>2011-09-15T11:41:42Z</time></trkpt><trkpt lat="42.911725" lon="0.184099"><ele>1707.44</ele><time>2011-09-15T11:41:44Z</time></trkpt><trkpt lat="42.911838" lon="0.184189"><ele>1706.48</ele><time>2011-09-15T11:41:45Z</time></trkpt><trkpt lat="42.911961" lon="0.184254"><ele>1705.52</ele><time>2011-09-15T11:41:46Z</time></trkpt><trkpt lat="42.912090" lon="0.184292"><ele>1705.04</ele><time>2011-09-15T11:41:47Z</time></trkpt><trkpt lat="42.912222" lon="0.184313"><ele>1703.59</ele><time>2011-09-15T11:41:48Z</time></trkpt><trkpt lat="42.912348" lon="0.184350"><ele>1701.67</ele><time>2011-09-15T11:41:49Z</time></trkpt><trkpt lat="42.912470" lon="0.184406"><ele>1699.75</ele><time>2011-09-15T11:41:50Z</time></trkpt><trkpt lat="42.912587" lon="0.184486"><ele>1698.31</ele><time>2011-09-15T11:41:51Z</time></trkpt><trkpt lat="42.912698" lon="0.184585"><ele>1696.86</ele><time>2011-09-15T11:41:52Z</time></trkpt><trkpt lat="42.912799" lon="0.184700"><ele>1694.94</ele><time>2011-09-15T11:41:53Z</time></trkpt><trkpt lat="42.912885" lon="0.184828"><ele>1693.02</ele><time>2011-09-15T11:41:54Z</time></trkpt><trkpt lat="42.912960" lon="0.184971"><ele>1691.58</ele><time>2011-09-15T11:41:55Z</time></trkpt><trkpt lat="42.913025" lon="0.185126"><ele>1690.14</ele><time>2011-09-15T11:41:56Z</time></trkpt><trkpt lat="42.913085" lon="0.185289"><ele>1688.69</ele><time>2011-09-15T11:41:57Z</time></trkpt><trkpt lat="42.913805" lon="0.187579"><ele>1671.87</ele><time>2011-09-15T11:42:13Z</time></trkpt><trkpt lat="42.914624" lon="0.188380"><ele>1665.62</ele><time>2011-09-15T11:42:23Z</time></trkpt><trkpt lat="42.914808" lon="0.188293"><ele>1661.30</ele><time>2011-09-15T11:42:24Z</time></trkpt><trkpt lat="42.914987" lon="0.188220"><ele>1659.37</ele><time>2011-09-15T11:42:25Z</time></trkpt><trkpt lat="42.915204" lon="0.188116"><ele>1657.45</ele><time>2011-09-15T11:42:26Z</time></trkpt><trkpt lat="42.915373" lon="0.188097"><ele>1655.53</ele><time>2011-09-15T11:42:27Z</time></trkpt><trkpt lat="42.915510" lon="0.188126"><ele>1653.12</ele><time>2011-09-15T11:42:28Z</time></trkpt><trkpt lat="42.915619" lon="0.188191"><ele>1651.20</ele><time>2011-09-15T11:42:29Z</time></trkpt><trkpt lat="42.915691" lon="0.188315"><ele>1649.76</ele><time>2011-09-15T11:42:30Z</time></trkpt><trkpt lat="42.915760" lon="0.188448"><ele>1648.32</ele><time>2011-09-15T11:42:31Z</time></trkpt><trkpt lat="42.916027" lon="0.188763"><ele>1645.43</ele><time>2011-09-15T11:42:34Z</time></trkpt><trkpt lat="42.917189" lon="0.189239"><ele>1629.09</ele><time>2011-09-15T11:42:42Z</time></trkpt><trkpt lat="42.918222" lon="0.190282"><ele>1613.71</ele><time>2011-09-15T11:42:51Z</time></trkpt><trkpt lat="42.919159" lon="0.191077"><ele>1601.21</ele><time>2011-09-15T11:42:59Z</time></trkpt><trkpt lat="42.919258" lon="0.191200"><ele>1599.77</ele><time>2011-09-15T11:43:00Z</time></trkpt><trkpt lat="42.919344" lon="0.191335"><ele>1598.33</ele><time>2011-09-15T11:43:01Z</time></trkpt><trkpt lat="42.919421" lon="0.191474"><ele>1596.89</ele><time>2011-09-15T11:43:02Z</time></trkpt><trkpt lat="42.919484" lon="0.191616"><ele>1595.45</ele><time>2011-09-15T11:43:03Z</time></trkpt><trkpt lat="42.919536" lon="0.191752"><ele>1594.48</ele><time>2011-09-15T11:43:04Z</time></trkpt><trkpt lat="42.919577" lon="0.191880"><ele>1593.04</ele><time>2011-09-15T11:43:05Z</time></trkpt><trkpt lat="42.919607" lon="0.192012"><ele>1592.08</ele><time>2011-09-15T11:43:06Z</time></trkpt><trkpt lat="42.919714" lon="0.193512"><ele>1580.06</ele><time>2011-09-15T11:43:15Z</time></trkpt><trkpt lat="42.919901" lon="0.194443"><ele>1573.82</ele><time>2011-09-15T11:43:20Z</time></trkpt><trkpt lat="42.920511" lon="0.195980"><ele>1569.49</ele><time>2011-09-15T11:43:28Z</time></trkpt><trkpt lat="42.921404" lon="0.197866"><ele>1560.36</ele><time>2011-09-15T11:43:38Z</time></trkpt><trkpt lat="42.922488" lon="0.200354"><ele>1539.69</ele><time>2011-09-15T11:43:51Z</time></trkpt><trkpt lat="42.922580" lon="0.200932"><ele>1529.11</ele><time>2011-09-15T11:43:54Z</time></trkpt><trkpt lat="42.922592" lon="0.201109"><ele>1526.71</ele><time>2011-09-15T11:43:55Z</time></trkpt><trkpt lat="42.922584" lon="0.201280"><ele>1524.31</ele><time>2011-09-15T11:43:56Z</time></trkpt><trkpt lat="42.922518" lon="0.201441"><ele>1523.83</ele><time>2011-09-15T11:43:57Z</time></trkpt><trkpt lat="42.922464" lon="0.201601"><ele>1522.39</ele><time>2011-09-15T11:43:58Z</time></trkpt><trkpt lat="42.922399" lon="0.201765"><ele>1520.46</ele><time>2011-09-15T11:43:59Z</time></trkpt><trkpt lat="42.921728" lon="0.203673"><ele>1501.24</ele><time>2011-09-15T11:44:10Z</time></trkpt><trkpt lat="42.921642" lon="0.203850"><ele>1499.31</ele><time>2011-09-15T11:44:11Z</time></trkpt><trkpt lat="42.921543" lon="0.204029"><ele>1496.91</ele><time>2011-09-15T11:44:12Z</time></trkpt><trkpt lat="42.921421" lon="0.204210"><ele>1495.47</ele><time>2011-09-15T11:44:13Z</time></trkpt><trkpt lat="42.921298" lon="0.204393"><ele>1494.03</ele><time>2011-09-15T11:44:14Z</time></trkpt><trkpt lat="42.920247" lon="0.205589"><ele>1478.65</ele><time>2011-09-15T11:44:22Z</time></trkpt><trkpt lat="42.919635" lon="0.206205"><ele>1472.40</ele><time>2011-09-15T11:44:27Z</time></trkpt><trkpt lat="42.919531" lon="0.206368"><ele>1469.99</ele><time>2011-09-15T11:44:28Z</time></trkpt><trkpt lat="42.918573" lon="0.207589"><ele>1452.21</ele><time>2011-09-15T11:44:36Z</time></trkpt><trkpt lat="42.917079" lon="0.209107"><ele>1432.98</ele><time>2011-09-15T11:44:48Z</time></trkpt><trkpt lat="42.916890" lon="0.209384"><ele>1430.58</ele><time>2011-09-15T11:44:51Z</time></trkpt><trkpt lat="42.917110" lon="0.209640"><ele>1425.77</ele><time>2011-09-15T11:44:55Z</time></trkpt><trkpt lat="42.917228" lon="0.209570"><ele>1424.33</ele><time>2011-09-15T11:44:56Z</time></trkpt><trkpt lat="42.917328" lon="0.209483"><ele>1423.37</ele><time>2011-09-15T11:44:57Z</time></trkpt><trkpt lat="42.917426" lon="0.209386"><ele>1422.41</ele><time>2011-09-15T11:44:58Z</time></trkpt><trkpt lat="42.918098" lon="0.208642"><ele>1415.68</ele><time>2011-09-15T11:45:05Z</time></trkpt><trkpt lat="42.918202" lon="0.208554"><ele>1414.72</ele><time>2011-09-15T11:45:06Z</time></trkpt><trkpt lat="42.918317" lon="0.208496"><ele>1413.28</ele><time>2011-09-15T11:45:07Z</time></trkpt><trkpt lat="42.918448" lon="0.208468"><ele>1412.31</ele><time>2011-09-15T11:45:08Z</time></trkpt><trkpt lat="42.918576" lon="0.208480"><ele>1411.83</ele><time>2011-09-15T11:45:09Z</time></trkpt><trkpt lat="42.918701" lon="0.208494"><ele>1409.91</ele><time>2011-09-15T11:45:10Z</time></trkpt><trkpt lat="42.918822" lon="0.208504"><ele>1408.47</ele><time>2011-09-15T11:45:11Z</time></trkpt><trkpt lat="42.918947" lon="0.208463"><ele>1406.07</ele><time>2011-09-15T11:45:12Z</time></trkpt><trkpt lat="42.919077" lon="0.208380"><ele>1404.14</ele><time>2011-09-15T11:45:13Z</time></trkpt><trkpt lat="42.919198" lon="0.208283"><ele>1402.22</ele><time>2011-09-15T11:45:14Z</time></trkpt><trkpt lat="42.920491" lon="0.207242"><ele>1389.24</ele><time>2011-09-15T11:45:24Z</time></trkpt><trkpt lat="42.921717" lon="0.206521"><ele>1376.75</ele><time>2011-09-15T11:45:33Z</time></trkpt><trkpt lat="42.921854" lon="0.206412"><ele>1375.30</ele><time>2011-09-15T11:45:34Z</time></trkpt><trkpt lat="42.922324" lon="0.205969"><ele>1371.46</ele><time>2011-09-15T11:45:38Z</time></trkpt><trkpt lat="42.922457" lon="0.205904"><ele>1370.02</ele><time>2011-09-15T11:45:39Z</time></trkpt><trkpt lat="42.922866" lon="0.205692"><ele>1366.65</ele><time>2011-09-15T11:45:42Z</time></trkpt><trkpt lat="42.922978" lon="0.205576"><ele>1365.21</ele><time>2011-09-15T11:45:43Z</time></trkpt><trkpt lat="42.923077" lon="0.205424"><ele>1363.29</ele><time>2011-09-15T11:45:44Z</time></trkpt><trkpt lat="42.923820" lon="0.204016"><ele>1354.63</ele><time>2011-09-15T11:45:53Z</time></trkpt><trkpt lat="42.924361" lon="0.202566"><ele>1340.22</ele><time>2011-09-15T11:46:02Z</time></trkpt><trkpt lat="42.924530" lon="0.201773"><ele>1333.97</ele><time>2011-09-15T11:46:06Z</time></trkpt><trkpt lat="42.924832" lon="0.199834"><ele>1317.62</ele><time>2011-09-15T11:46:16Z</time></trkpt><trkpt lat="42.924807" lon="0.198158"><ele>1305.61</ele><time>2011-09-15T11:46:25Z</time></trkpt><trkpt lat="42.924788" lon="0.198008"><ele>1304.17</ele><time>2011-09-15T11:46:26Z</time></trkpt><trkpt lat="42.924757" lon="0.197646"><ele>1299.84</ele><time>2011-09-15T11:46:29Z</time></trkpt><trkpt lat="42.924795" lon="0.197638"><ele>1299.36</ele><time>2011-09-15T11:46:30Z</time></trkpt><trkpt lat="42.924885" lon="0.197598"><ele>1299.36</ele><time>2011-09-15T11:46:31Z</time></trkpt><trkpt lat="42.925003" lon="0.197566"><ele>1299.84</ele><time>2011-09-15T11:46:32Z</time></trkpt><trkpt lat="42.925127" lon="0.197543"><ele>1299.36</ele><time>2011-09-15T11:46:33Z</time></trkpt><trkpt lat="42.925280" lon="0.197509"><ele>1298.88</ele><time>2011-09-15T11:46:34Z</time></trkpt><trkpt lat="42.925419" lon="0.197453"><ele>1296.48</ele><time>2011-09-15T11:46:35Z</time></trkpt><trkpt lat="42.925949" lon="0.197104"><ele>1292.15</ele><time>2011-09-15T11:46:40Z</time></trkpt><trkpt lat="42.926013" lon="0.197156"><ele>1289.75</ele><time>2011-09-15T11:46:41Z</time></trkpt><trkpt lat="42.926081" lon="0.197243"><ele>1288.30</ele><time>2011-09-15T11:46:42Z</time></trkpt><trkpt lat="42.926148" lon="0.197357"><ele>1287.34</ele><time>2011-09-15T11:46:43Z</time></trkpt><trkpt lat="42.926206" lon="0.197491"><ele>1285.90</ele><time>2011-09-15T11:46:44Z</time></trkpt><trkpt lat="42.926255" lon="0.197621"><ele>1285.42</ele><time>2011-09-15T11:46:45Z</time></trkpt><trkpt lat="42.926417" lon="0.197930"><ele>1282.54</ele><time>2011-09-15T11:46:50Z</time></trkpt><trkpt lat="42.926822" lon="0.198345"><ele>1278.21</ele><time>2011-09-15T11:46:56Z</time></trkpt><trkpt lat="42.926890" lon="0.198391"><ele>1277.25</ele><time>2011-09-15T11:46:57Z</time></trkpt><trkpt lat="42.926999" lon="0.198462"><ele>1276.77</ele><time>2011-09-15T11:46:59Z</time></trkpt><trkpt lat="42.927038" lon="0.198512"><ele>1276.29</ele><time>2011-09-15T11:47:00Z</time></trkpt><trkpt lat="42.927066" lon="0.198572"><ele>1275.33</ele><time>2011-09-15T11:47:01Z</time></trkpt><trkpt lat="42.927074" lon="0.198639"><ele>1274.85</ele><time>2011-09-15T11:47:02Z</time></trkpt><trkpt lat="42.927081" lon="0.198721"><ele>1274.36</ele><time>2011-09-15T11:47:03Z</time></trkpt><trkpt lat="42.927093" lon="0.198817"><ele>1273.88</ele><time>2011-09-15T11:47:04Z</time></trkpt><trkpt lat="42.927117" lon="0.198926"><ele>1272.92</ele><time>2011-09-15T11:47:05Z</time></trkpt><trkpt lat="42.927152" lon="0.199037"><ele>1272.44</ele><time>2011-09-15T11:47:06Z</time></trkpt><trkpt lat="42.927202" lon="0.199145"><ele>1271.48</ele><time>2011-09-15T11:47:07Z</time></trkpt><trkpt lat="42.927267" lon="0.199244"><ele>1270.52</ele><time>2011-09-15T11:47:08Z</time></trkpt><trkpt lat="42.927340" lon="0.199337"><ele>1269.56</ele><time>2011-09-15T11:47:09Z</time></trkpt><trkpt lat="42.927420" lon="0.199435"><ele>1268.60</ele><time>2011-09-15T11:47:10Z</time></trkpt><trkpt lat="42.928213" lon="0.200447"><ele>1258.50</ele><time>2011-09-15T11:47:18Z</time></trkpt><trkpt lat="42.928880" lon="0.201383"><ele>1249.85</ele><time>2011-09-15T11:47:25Z</time></trkpt><trkpt lat="42.928994" lon="0.201486"><ele>1248.89</ele><time>2011-09-15T11:47:26Z</time></trkpt><trkpt lat="42.930252" lon="0.202466"><ele>1235.43</ele><time>2011-09-15T11:47:37Z</time></trkpt><trkpt lat="42.930338" lon="0.202581"><ele>1234.47</ele><time>2011-09-15T11:47:38Z</time></trkpt><trkpt lat="42.931169" lon="0.203855"><ele>1223.42</ele><time>2011-09-15T11:47:48Z</time></trkpt><trkpt lat="42.932459" lon="0.204733"><ele>1209.96</ele><time>2011-09-15T11:47:59Z</time></trkpt><trkpt lat="42.933656" lon="0.205912"><ele>1196.50</ele><time>2011-09-15T11:48:10Z</time></trkpt><trkpt lat="42.933763" lon="0.206030"><ele>1195.06</ele><time>2011-09-15T11:48:11Z</time></trkpt><trkpt lat="42.933863" lon="0.206164"><ele>1193.61</ele><time>2011-09-15T11:48:12Z</time></trkpt><trkpt lat="42.933954" lon="0.206311"><ele>1192.65</ele><time>2011-09-15T11:48:13Z</time></trkpt><trkpt lat="42.934031" lon="0.206471"><ele>1191.21</ele><time>2011-09-15T11:48:14Z</time></trkpt><trkpt lat="42.934101" lon="0.206634"><ele>1190.25</ele><time>2011-09-15T11:48:15Z</time></trkpt><trkpt lat="42.934180" lon="0.206790"><ele>1188.81</ele><time>2011-09-15T11:48:16Z</time></trkpt><trkpt lat="42.934274" lon="0.206932"><ele>1187.37</ele><time>2011-09-15T11:48:17Z</time></trkpt><trkpt lat="42.934379" lon="0.207058"><ele>1185.92</ele><time>2011-09-15T11:48:18Z</time></trkpt><trkpt lat="42.934805" lon="0.207536"><ele>1181.12</ele><time>2011-09-15T11:48:22Z</time></trkpt><trkpt lat="42.934886" lon="0.207683"><ele>1179.67</ele><time>2011-09-15T11:48:23Z</time></trkpt><trkpt lat="42.934951" lon="0.207842"><ele>1178.23</ele><time>2011-09-15T11:48:24Z</time></trkpt><trkpt lat="42.935014" lon="0.208003"><ele>1177.27</ele><time>2011-09-15T11:48:25Z</time></trkpt><trkpt lat="42.935090" lon="0.208148"><ele>1175.83</ele><time>2011-09-15T11:48:26Z</time></trkpt><trkpt lat="42.935185" lon="0.208264"><ele>1174.39</ele><time>2011-09-15T11:48:27Z</time></trkpt><trkpt lat="42.935300" lon="0.208349"><ele>1173.43</ele><time>2011-09-15T11:48:28Z</time></trkpt><trkpt lat="42.935429" lon="0.208411"><ele>1171.98</ele><time>2011-09-15T11:48:29Z</time></trkpt><trkpt lat="42.935558" lon="0.208461"><ele>1171.02</ele><time>2011-09-15T11:48:30Z</time></trkpt><trkpt lat="42.935676" lon="0.208526"><ele>1169.58</ele><time>2011-09-15T11:48:31Z</time></trkpt><trkpt lat="42.935777" lon="0.208623"><ele>1168.62</ele><time>2011-09-15T11:48:32Z</time></trkpt><trkpt lat="42.935957" lon="0.208829"><ele>1166.22</ele><time>2011-09-15T11:48:34Z</time></trkpt><trkpt lat="42.936046" lon="0.208891"><ele>1165.26</ele><time>2011-09-15T11:48:35Z</time></trkpt><trkpt lat="42.936141" lon="0.208858"><ele>1164.77</ele><time>2011-09-15T11:48:36Z</time></trkpt><trkpt lat="42.936222" lon="0.208795"><ele>1163.81</ele><time>2011-09-15T11:48:37Z</time></trkpt><trkpt lat="42.936300" lon="0.208721"><ele>1162.85</ele><time>2011-09-15T11:48:38Z</time></trkpt><trkpt lat="42.936380" lon="0.208667"><ele>1162.37</ele><time>2011-09-15T11:48:39Z</time></trkpt><trkpt lat="42.936459" lon="0.208654"><ele>1161.41</ele><time>2011-09-15T11:48:40Z</time></trkpt><trkpt lat="42.936521" lon="0.208707"><ele>1160.93</ele><time>2011-09-15T11:48:41Z</time></trkpt><trkpt lat="42.936563" lon="0.208792"><ele>1159.97</ele><time>2011-09-15T11:48:42Z</time></trkpt><trkpt lat="42.936583" lon="0.208898"><ele>1159.49</ele><time>2011-09-15T11:48:43Z</time></trkpt><trkpt lat="42.936596" lon="0.209007"><ele>1159.01</ele><time>2011-09-15T11:48:44Z</time></trkpt><trkpt lat="42.936594" lon="0.209095"><ele>1158.53</ele><time>2011-09-15T11:48:45Z</time></trkpt><trkpt lat="42.936583" lon="0.209161"><ele>1158.53</ele><time>2011-09-15T11:48:46Z</time></trkpt><trkpt lat="42.936579" lon="0.209213"><ele>1158.53</ele><time>2011-09-15T11:48:47Z</time></trkpt><trkpt lat="42.936586" lon="0.209254"><ele>1158.53</ele><time>2011-09-15T11:48:48Z</time></trkpt><trkpt lat="42.936602" lon="0.209285"><ele>1158.53</ele><time>2011-09-15T11:48:49Z</time></trkpt><trkpt lat="42.936630" lon="0.209316"><ele>1158.53</ele><time>2011-09-15T11:48:50Z</time></trkpt><trkpt lat="42.936671" lon="0.209349"><ele>1158.05</ele><time>2011-09-15T11:48:51Z</time></trkpt><trkpt lat="42.937219" lon="0.209724"><ele>1152.76</ele><time>2011-09-15T11:48:58Z</time></trkpt><trkpt lat="42.937302" lon="0.209825"><ele>1151.80</ele><time>2011-09-15T11:48:59Z</time></trkpt><trkpt lat="42.937378" lon="0.209951"><ele>1151.32</ele><time>2011-09-15T11:49:00Z</time></trkpt><trkpt lat="42.938270" lon="0.211112"><ele>1140.74</ele><time>2011-09-15T11:49:10Z</time></trkpt><trkpt lat="42.938980" lon="0.212239"><ele>1131.61</ele><time>2011-09-15T11:49:19Z</time></trkpt><trkpt lat="42.939809" lon="0.213253"><ele>1121.03</ele><time>2011-09-15T11:49:29Z</time></trkpt><trkpt lat="42.940219" lon="0.213521"><ele>1117.19</ele><time>2011-09-15T11:49:33Z</time></trkpt><trkpt lat="42.940321" lon="0.213617"><ele>1116.23</ele><time>2011-09-15T11:49:34Z</time></trkpt><trkpt lat="42.940423" lon="0.213729"><ele>1114.79</ele><time>2011-09-15T11:49:35Z</time></trkpt><trkpt lat="42.941335" lon="0.214901"><ele>1105.65</ele><time>2011-09-15T11:49:45Z</time></trkpt><trkpt lat="42.941491" lon="0.215151"><ele>1103.25</ele><time>2011-09-15T11:49:47Z</time></trkpt><trkpt lat="42.941553" lon="0.215295"><ele>1102.29</ele><time>2011-09-15T11:49:48Z</time></trkpt><trkpt lat="42.941918" lon="0.216310"><ele>1094.12</ele><time>2011-09-15T11:49:55Z</time></trkpt><trkpt lat="42.941996" lon="0.216410"><ele>1093.16</ele><time>2011-09-15T11:49:56Z</time></trkpt><trkpt lat="42.942086" lon="0.216485"><ele>1091.71</ele><time>2011-09-15T11:49:57Z</time></trkpt><trkpt lat="42.942176" lon="0.216559"><ele>1090.75</ele><time>2011-09-15T11:49:58Z</time></trkpt><trkpt lat="42.942257" lon="0.216650"><ele>1089.79</ele><time>2011-09-15T11:49:59Z</time></trkpt><trkpt lat="42.942328" lon="0.216761"><ele>1088.35</ele><time>2011-09-15T11:50:00Z</time></trkpt><trkpt lat="42.942398" lon="0.216887"><ele>1087.39</ele><time>2011-09-15T11:50:01Z</time></trkpt><trkpt lat="42.943130" lon="0.217900"><ele>1077.78</ele><time>2011-09-15T11:50:08Z</time></trkpt><trkpt lat="42.944236" lon="0.219379"><ele>1064.32</ele><time>2011-09-15T11:50:17Z</time></trkpt><trkpt lat="42.945165" lon="0.220224"><ele>1054.70</ele><time>2011-09-15T11:50:24Z</time></trkpt><trkpt lat="42.945393" lon="0.220514"><ele>1051.82</ele><time>2011-09-15T11:50:26Z</time></trkpt><trkpt lat="42.945490" lon="0.220678"><ele>1049.90</ele><time>2011-09-15T11:50:27Z</time></trkpt><trkpt lat="42.945757" lon="0.221150"><ele>1046.05</ele><time>2011-09-15T11:50:30Z</time></trkpt><trkpt lat="42.945861" lon="0.221265"><ele>1044.61</ele><time>2011-09-15T11:50:31Z</time></trkpt><trkpt lat="42.945976" lon="0.221354"><ele>1043.17</ele><time>2011-09-15T11:50:32Z</time></trkpt><trkpt lat="42.946100" lon="0.221405"><ele>1042.21</ele><time>2011-09-15T11:50:33Z</time></trkpt><trkpt lat="42.946218" lon="0.221431"><ele>1040.76</ele><time>2011-09-15T11:50:34Z</time></trkpt><trkpt lat="42.946324" lon="0.221467"><ele>1039.32</ele><time>2011-09-15T11:50:35Z</time></trkpt><trkpt lat="42.946416" lon="0.221528"><ele>1038.36</ele><time>2011-09-15T11:50:36Z</time></trkpt><trkpt lat="42.946495" lon="0.221615"><ele>1037.40</ele><time>2011-09-15T11:50:37Z</time></trkpt><trkpt lat="42.946562" lon="0.221726"><ele>1035.96</ele><time>2011-09-15T11:50:38Z</time></trkpt><trkpt lat="42.946619" lon="0.221855"><ele>1035.00</ele><time>2011-09-15T11:50:39Z</time></trkpt><trkpt lat="42.946664" lon="0.221998"><ele>1034.04</ele><time>2011-09-15T11:50:40Z</time></trkpt><trkpt lat="42.946699" lon="0.222149"><ele>1033.07</ele><time>2011-09-15T11:50:41Z</time></trkpt><trkpt lat="42.946729" lon="0.222304"><ele>1032.11</ele><time>2011-09-15T11:50:42Z</time></trkpt><trkpt lat="42.947125" lon="0.223431"><ele>1026.34</ele><time>2011-09-15T11:50:50Z</time></trkpt><trkpt lat="42.947205" lon="0.223547"><ele>1025.86</ele><time>2011-09-15T11:50:51Z</time></trkpt><trkpt lat="42.948061" lon="0.224293"><ele>1020.58</ele><time>2011-09-15T11:50:58Z</time></trkpt><trkpt lat="42.948433" lon="0.224489"><ele>1019.13</ele><time>2011-09-15T11:51:01Z</time></trkpt><trkpt lat="42.948780" lon="0.224599"><ele>1016.25</ele><time>2011-09-15T11:51:04Z</time></trkpt><trkpt lat="42.948881" lon="0.224663"><ele>1015.77</ele><time>2011-09-15T11:51:05Z</time></trkpt><trkpt lat="42.948967" lon="0.224754"><ele>1014.81</ele><time>2011-09-15T11:51:06Z</time></trkpt><trkpt lat="42.949033" lon="0.224867"><ele>1013.85</ele><time>2011-09-15T11:51:07Z</time></trkpt><trkpt lat="42.949087" lon="0.224990"><ele>1013.37</ele><time>2011-09-15T11:51:08Z</time></trkpt><trkpt lat="42.949141" lon="0.225107"><ele>1012.89</ele><time>2011-09-15T11:51:09Z</time></trkpt><trkpt lat="42.949205" lon="0.225213"><ele>1012.41</ele><time>2011-09-15T11:51:10Z</time></trkpt><trkpt lat="42.949278" lon="0.225310"><ele>1011.44</ele><time>2011-09-15T11:51:11Z</time></trkpt><trkpt lat="42.949358" lon="0.225399"><ele>1010.96</ele><time>2011-09-15T11:51:12Z</time></trkpt><trkpt lat="42.949444" lon="0.225480"><ele>1010.48</ele><time>2011-09-15T11:51:13Z</time></trkpt><trkpt lat="42.949536" lon="0.225547"><ele>1009.52</ele><time>2011-09-15T11:51:14Z</time></trkpt><trkpt lat="42.949635" lon="0.225594"><ele>1008.08</ele><time>2011-09-15T11:51:15Z</time></trkpt><trkpt lat="42.949737" lon="0.225622"><ele>1007.60</ele><time>2011-09-15T11:51:16Z</time></trkpt><trkpt lat="42.949843" lon="0.225643"><ele>1006.16</ele><time>2011-09-15T11:51:17Z</time></trkpt><trkpt lat="42.949957" lon="0.225673"><ele>1005.20</ele><time>2011-09-15T11:51:18Z</time></trkpt><trkpt lat="42.950074" lon="0.225719"><ele>1004.23</ele><time>2011-09-15T11:51:19Z</time></trkpt><trkpt lat="42.951430" lon="0.226476"><ele>996.54</ele><time>2011-09-15T11:51:31Z</time></trkpt><trkpt lat="42.952639" lon="0.227386"><ele>993.18</ele><time>2011-09-15T11:51:43Z</time></trkpt><trkpt lat="42.954222" lon="0.227995"><ele>984.53</ele><time>2011-09-15T11:51:56Z</time></trkpt><trkpt lat="42.955743" lon="0.227951"><ele>979.24</ele><time>2011-09-15T11:52:09Z</time></trkpt><trkpt lat="42.956703" lon="0.228174"><ele>973.47</ele><time>2011-09-15T11:52:17Z</time></trkpt><trkpt lat="42.957792" lon="0.228666"><ele>967.22</ele><time>2011-09-15T11:52:26Z</time></trkpt><trkpt lat="42.957922" lon="0.228704"><ele>966.74</ele><time>2011-09-15T11:52:27Z</time></trkpt><trkpt lat="42.958055" lon="0.228723"><ele>966.74</ele><time>2011-09-15T11:52:28Z</time></trkpt><trkpt lat="42.958553" lon="0.228798"><ele>965.30</ele><time>2011-09-15T11:52:32Z</time></trkpt><trkpt lat="42.958674" lon="0.228853"><ele>965.30</ele><time>2011-09-15T11:52:33Z</time></trkpt><trkpt lat="42.958792" lon="0.228920"><ele>964.82</ele><time>2011-09-15T11:52:34Z</time></trkpt><trkpt lat="42.959859" lon="0.229807"><ele>961.46</ele><time>2011-09-15T11:52:44Z</time></trkpt><trkpt lat="42.960251" lon="0.230101"><ele>960.01</ele><time>2011-09-15T11:52:48Z</time></trkpt><trkpt lat="42.960360" lon="0.230147"><ele>959.53</ele><time>2011-09-15T11:52:49Z</time></trkpt><trkpt lat="42.960480" lon="0.230178"><ele>959.05</ele><time>2011-09-15T11:52:50Z</time></trkpt><trkpt lat="42.962132" lon="0.230368"><ele>948.00</ele><time>2011-09-15T11:53:03Z</time></trkpt><trkpt lat="42.963297" lon="0.230367"><ele>942.23</ele><time>2011-09-15T11:53:10Z</time></trkpt><trkpt lat="42.965016" lon="0.230365"><ele>941.27</ele><time>2011-09-15T11:53:20Z</time></trkpt><trkpt lat="42.967004" lon="0.230348"><ele>942.71</ele><time>2011-09-15T11:53:32Z</time></trkpt><trkpt lat="42.967622" lon="0.230233"><ele>943.67</ele><time>2011-09-15T11:53:36Z</time></trkpt><trkpt lat="42.967773" lon="0.230246"><ele>944.15</ele><time>2011-09-15T11:53:37Z</time></trkpt><trkpt lat="42.968799" lon="0.230487"><ele>941.27</ele><time>2011-09-15T11:53:44Z</time></trkpt><trkpt lat="42.968930" lon="0.230563"><ele>940.79</ele><time>2011-09-15T11:53:45Z</time></trkpt><trkpt lat="42.969607" lon="0.230970"><ele>936.46</ele><time>2011-09-15T11:53:50Z</time></trkpt><trkpt lat="42.970771" lon="0.231196"><ele>930.21</ele><time>2011-09-15T11:53:59Z</time></trkpt><trkpt lat="42.970878" lon="0.231168"><ele>929.25</ele><time>2011-09-15T11:54:00Z</time></trkpt><trkpt lat="42.971086" lon="0.231070"><ele>927.81</ele><time>2011-09-15T11:54:02Z</time></trkpt><trkpt lat="42.971197" lon="0.230989"><ele>927.33</ele><time>2011-09-15T11:54:03Z</time></trkpt><trkpt lat="42.972354" lon="0.230200"><ele>921.08</ele><time>2011-09-15T11:54:12Z</time></trkpt><trkpt lat="42.972643" lon="0.230133"><ele>919.64</ele><time>2011-09-15T11:54:14Z</time></trkpt><trkpt lat="42.973191" lon="0.230077"><ele>917.24</ele><time>2011-09-15T11:54:18Z</time></trkpt><trkpt lat="42.973323" lon="0.230032"><ele>916.75</ele><time>2011-09-15T11:54:19Z</time></trkpt><trkpt lat="42.973453" lon="0.229965"><ele>915.79</ele><time>2011-09-15T11:54:20Z</time></trkpt><trkpt lat="42.973582" lon="0.229880"><ele>915.31</ele><time>2011-09-15T11:54:21Z</time></trkpt><trkpt lat="42.973711" lon="0.229784"><ele>914.35</ele><time>2011-09-15T11:54:22Z</time></trkpt><trkpt lat="42.975475" lon="0.228418"><ele>903.30</ele><time>2011-09-15T11:54:35Z</time></trkpt><trkpt lat="42.975628" lon="0.228347"><ele>902.82</ele><time>2011-09-15T11:54:36Z</time></trkpt><trkpt lat="42.975782" lon="0.228292"><ele>902.33</ele><time>2011-09-15T11:54:37Z</time></trkpt><trkpt lat="42.975933" lon="0.228254"><ele>902.33</ele><time>2011-09-15T11:54:38Z</time></trkpt><trkpt lat="42.976075" lon="0.228230"><ele>902.33</ele><time>2011-09-15T11:54:39Z</time></trkpt><trkpt lat="42.976211" lon="0.228222"><ele>902.33</ele><time>2011-09-15T11:54:40Z</time></trkpt><trkpt lat="42.976340" lon="0.228232"><ele>902.33</ele><time>2011-09-15T11:54:41Z</time></trkpt><trkpt lat="42.976461" lon="0.228256"><ele>901.85</ele><time>2011-09-15T11:54:42Z</time></trkpt><trkpt lat="42.976577" lon="0.228290"><ele>901.37</ele><time>2011-09-15T11:54:43Z</time></trkpt><trkpt lat="42.976689" lon="0.228327"><ele>900.41</ele><time>2011-09-15T11:54:44Z</time></trkpt><trkpt lat="42.977665" lon="0.228367"><ele>896.57</ele><time>2011-09-15T11:54:52Z</time></trkpt><trkpt lat="42.977798" lon="0.228320"><ele>896.09</ele><time>2011-09-15T11:54:53Z</time></trkpt><trkpt lat="42.978347" lon="0.228156"><ele>892.72</ele><time>2011-09-15T11:54:57Z</time></trkpt><trkpt lat="42.978776" lon="0.228072"><ele>889.84</ele><time>2011-09-15T11:55:00Z</time></trkpt><trkpt lat="42.979723" lon="0.227701"><ele>883.59</ele><time>2011-09-15T11:55:07Z</time></trkpt><trkpt lat="42.980890" lon="0.227202"><ele>879.26</ele><time>2011-09-15T11:55:16Z</time></trkpt><trkpt lat="42.982158" lon="0.227014"><ele>874.46</ele><time>2011-09-15T11:55:26Z</time></trkpt><trkpt lat="42.983330" lon="0.226835"><ele>870.61</ele><time>2011-09-15T11:55:36Z</time></trkpt><trkpt lat="42.983427" lon="0.226843"><ele>870.61</ele><time>2011-09-15T11:55:37Z</time></trkpt><trkpt lat="42.983522" lon="0.226863"><ele>870.61</ele><time>2011-09-15T11:55:38Z</time></trkpt><trkpt lat="42.984443" lon="0.227124"><ele>878.78</ele><time>2011-09-15T11:55:50Z</time></trkpt><trkpt lat="42.984508" lon="0.227178"><ele>879.26</ele><time>2011-09-15T11:55:51Z</time></trkpt><trkpt lat="42.984560" lon="0.227248"><ele>877.82</ele><time>2011-09-15T11:55:52Z</time></trkpt><trkpt lat="42.984555" lon="0.227317"><ele>877.34</ele><time>2011-09-15T11:55:53Z</time></trkpt><trkpt lat="42.984542" lon="0.227385"><ele>877.34</ele><time>2011-09-15T11:55:54Z</time></trkpt><trkpt lat="42.984532" lon="0.227449"><ele>877.34</ele><time>2011-09-15T11:55:55Z</time></trkpt><trkpt lat="42.984520" lon="0.227505"><ele>876.38</ele><time>2011-09-15T11:55:56Z</time></trkpt><trkpt lat="42.984497" lon="0.227557"><ele>875.42</ele><time>2011-09-15T11:55:57Z</time></trkpt><trkpt lat="42.984452" lon="0.227613"><ele>876.38</ele><time>2011-09-15T11:55:58Z</time></trkpt><trkpt lat="42.984402" lon="0.227654"><ele>877.82</ele><time>2011-09-15T11:55:59Z</time></trkpt><trkpt lat="42.984355" lon="0.227682"><ele>878.78</ele><time>2011-09-15T11:56:00Z</time></trkpt><trkpt lat="42.984303" lon="0.227713"><ele>879.74</ele><time>2011-09-15T11:56:01Z</time></trkpt><trkpt lat="42.983683" lon="0.227892"><ele>877.34</ele><time>2011-09-15T11:56:10Z</time></trkpt><trkpt lat="42.983104" lon="0.228093"><ele>867.73</ele><time>2011-09-15T11:56:17Z</time></trkpt><trkpt lat="42.983020" lon="0.228103"><ele>865.80</ele><time>2011-09-15T11:56:18Z</time></trkpt><trkpt lat="42.982811" lon="0.228100"><ele>861.00</ele><time>2011-09-15T11:56:21Z</time></trkpt><trkpt lat="42.982776" lon="0.228108"><ele>860.04</ele><time>2011-09-15T11:56:22Z</time></trkpt><trkpt lat="42.982759" lon="0.228135"><ele>859.08</ele><time>2011-09-15T11:56:23Z</time></trkpt><trkpt lat="42.982853" lon="0.228259"><ele>858.59</ele><time>2011-09-15T11:56:28Z</time></trkpt><trkpt lat="42.982901" lon="0.228244"><ele>858.11</ele><time>2011-09-15T11:56:29Z</time></trkpt><trkpt lat="42.982947" lon="0.228218"><ele>857.63</ele><time>2011-09-15T11:56:30Z</time></trkpt><trkpt lat="42.982997" lon="0.228188"><ele>857.63</ele><time>2011-09-15T11:56:31Z</time></trkpt><trkpt lat="42.983057" lon="0.228160"><ele>857.63</ele><time>2011-09-15T11:56:32Z</time></trkpt><trkpt lat="42.983129" lon="0.228138"><ele>857.63</ele><time>2011-09-15T11:56:33Z</time></trkpt><trkpt lat="42.983970" lon="0.227822"><ele>864.84</ele><time>2011-09-15T11:56:43Z</time></trkpt><trkpt lat="42.984554" lon="0.227568"><ele>876.38</ele><time>2011-09-15T11:56:53Z</time></trkpt><trkpt lat="42.984606" lon="0.227328"><ele>871.57</ele><time>2011-09-15T11:57:01Z</time></trkpt><trkpt lat="42.984525" lon="0.227112"><ele>865.32</ele><time>2011-09-15T11:57:08Z</time></trkpt><trkpt lat="42.984504" lon="0.227108"><ele>863.88</ele><time>2011-09-15T11:57:09Z</time></trkpt><trkpt lat="42.984489" lon="0.227119"><ele>862.92</ele><time>2011-09-15T11:57:10Z</time></trkpt><trkpt lat="42.984488" lon="0.227141"><ele>861.96</ele><time>2011-09-15T11:57:11Z</time></trkpt><trkpt lat="42.984495" lon="0.227164"><ele>861.48</ele><time>2011-09-15T11:57:12Z</time></trkpt><trkpt lat="42.984502" lon="0.227190"><ele>861.00</ele><time>2011-09-15T11:57:13Z</time></trkpt><trkpt lat="42.984537" lon="0.227214"><ele>860.04</ele><time>2011-09-15T11:57:14Z</time></trkpt><trkpt lat="42.984575" lon="0.227241"><ele>858.59</ele><time>2011-09-15T11:57:15Z</time></trkpt><trkpt lat="42.984570" lon="0.227369"><ele>858.59</ele><time>2011-09-15T11:57:24Z</time></trkpt><trkpt lat="42.984523" lon="0.227387"><ele>861.00</ele><time>2011-09-15T11:57:28Z</time></trkpt><trkpt lat="42.984502" lon="0.227394"><ele>861.48</ele><time>2011-09-15T11:57:29Z</time></trkpt><trkpt lat="42.984477" lon="0.227401"><ele>861.00</ele><time>2011-09-15T11:57:44Z</time></trkpt><trkpt lat="42.984521" lon="0.227413"><ele>857.63</ele><time>2011-09-15T11:58:07Z</time></trkpt><trkpt lat="42.984524" lon="0.227450"><ele>858.59</ele><time>2011-09-15T11:58:14Z</time></trkpt><trkpt lat="42.984520" lon="0.227466"><ele>859.08</ele><time>2011-09-15T11:58:15Z</time></trkpt><trkpt lat="42.984516" lon="0.227482"><ele>858.59</ele><time>2011-09-15T11:58:16Z</time></trkpt><trkpt lat="42.984495" lon="0.227501"><ele>859.56</ele><time>2011-09-15T11:58:29Z</time></trkpt><trkpt lat="42.984546" lon="0.227473"><ele>853.31</ele><time>2011-09-15T11:58:46Z</time></trkpt><trkpt lat="42.984542" lon="0.227450"><ele>853.79</ele><time>2011-09-15T11:58:48Z</time></trkpt><trkpt lat="42.984542" lon="0.227424"><ele>854.27</ele><time>2011-09-15T11:58:49Z</time></trkpt><trkpt lat="42.984531" lon="0.227457"><ele>853.31</ele><time>2011-09-15T11:58:59Z</time></trkpt><trkpt lat="42.984527" lon="0.227468"><ele>858.59</ele><time>2011-09-15T12:00:06Z</time></trkpt></trkseg><trkseg><trkpt lat="42.984214" lon="0.227629"><ele>813.89</ele><time>2011-09-15T12:25:18Z</time></trkpt><trkpt lat="42.983129" lon="0.228077"><ele>850.90</ele><time>2011-09-15T12:25:30Z</time></trkpt><trkpt lat="42.983016" lon="0.228083"><ele>850.90</ele><time>2011-09-15T12:25:31Z</time></trkpt><trkpt lat="42.982448" lon="0.228093"><ele>849.94</ele><time>2011-09-15T12:25:36Z</time></trkpt><trkpt lat="42.982356" lon="0.228125"><ele>849.94</ele><time>2011-09-15T12:25:37Z</time></trkpt><trkpt lat="42.982276" lon="0.228189"><ele>849.94</ele><time>2011-09-15T12:25:38Z</time></trkpt><trkpt lat="42.982212" lon="0.228282"><ele>849.46</ele><time>2011-09-15T12:25:39Z</time></trkpt><trkpt lat="42.982166" lon="0.228404"><ele>849.46</ele><time>2011-09-15T12:25:40Z</time></trkpt><trkpt lat="42.982163" lon="0.228543"><ele>848.98</ele><time>2011-09-15T12:25:41Z</time></trkpt><trkpt lat="42.982181" lon="0.228679"><ele>848.98</ele><time>2011-09-15T12:25:42Z</time></trkpt><trkpt lat="42.982227" lon="0.228801"><ele>848.98</ele><time>2011-09-15T12:25:43Z</time></trkpt><trkpt lat="42.982284" lon="0.228911"><ele>849.46</ele><time>2011-09-15T12:25:44Z</time></trkpt><trkpt lat="42.982360" lon="0.229006"><ele>849.94</ele><time>2011-09-15T12:25:45Z</time></trkpt><trkpt lat="42.982475" lon="0.229073"><ele>850.90</ele><time>2011-09-15T12:25:46Z</time></trkpt><trkpt lat="42.982723" lon="0.229241"><ele>854.27</ele><time>2011-09-15T12:25:48Z</time></trkpt><trkpt lat="42.982829" lon="0.229348"><ele>855.71</ele><time>2011-09-15T12:25:49Z</time></trkpt><trkpt lat="42.983128" lon="0.229715"><ele>859.08</ele><time>2011-09-15T12:25:52Z</time></trkpt><trkpt lat="42.983196" lon="0.229856"><ele>861.00</ele><time>2011-09-15T12:25:53Z</time></trkpt><trkpt lat="42.983244" lon="0.230008"><ele>861.96</ele><time>2011-09-15T12:25:54Z</time></trkpt><trkpt lat="42.983282" lon="0.230172"><ele>862.44</ele><time>2011-09-15T12:25:55Z</time></trkpt><trkpt lat="42.983314" lon="0.230355"><ele>863.40</ele><time>2011-09-15T12:25:56Z</time></trkpt><trkpt lat="42.983791" lon="0.232092"><ele>871.09</ele><time>2011-09-15T12:26:06Z</time></trkpt><trkpt lat="42.983818" lon="0.232268"><ele>871.57</ele><time>2011-09-15T12:26:07Z</time></trkpt><trkpt lat="42.983820" lon="0.232444"><ele>872.05</ele><time>2011-09-15T12:26:08Z</time></trkpt><trkpt lat="42.983794" lon="0.232613"><ele>873.01</ele><time>2011-09-15T12:26:09Z</time></trkpt><trkpt lat="42.983738" lon="0.232772"><ele>873.98</ele><time>2011-09-15T12:26:10Z</time></trkpt><trkpt lat="42.983659" lon="0.232929"><ele>874.94</ele><time>2011-09-15T12:26:11Z</time></trkpt><trkpt lat="42.983582" lon="0.233083"><ele>875.90</ele><time>2011-09-15T12:26:12Z</time></trkpt><trkpt lat="42.983421" lon="0.233368"><ele>877.82</ele><time>2011-09-15T12:26:14Z</time></trkpt><trkpt lat="42.983318" lon="0.233493"><ele>878.30</ele><time>2011-09-15T12:26:15Z</time></trkpt><trkpt lat="42.983201" lon="0.233599"><ele>879.26</ele><time>2011-09-15T12:26:16Z</time></trkpt><trkpt lat="42.983080" lon="0.233687"><ele>879.74</ele><time>2011-09-15T12:26:17Z</time></trkpt><trkpt lat="42.982963" lon="0.233773"><ele>880.22</ele><time>2011-09-15T12:26:18Z</time></trkpt><trkpt lat="42.982856" lon="0.233873"><ele>880.22</ele><time>2011-09-15T12:26:19Z</time></trkpt><trkpt lat="42.982758" lon="0.233998"><ele>880.71</ele><time>2011-09-15T12:26:20Z</time></trkpt><trkpt lat="42.982670" lon="0.234144"><ele>880.71</ele><time>2011-09-15T12:26:21Z</time></trkpt><trkpt lat="42.982594" lon="0.234312"><ele>880.71</ele><time>2011-09-15T12:26:22Z</time></trkpt><trkpt lat="42.982528" lon="0.234493"><ele>880.71</ele><time>2011-09-15T12:26:23Z</time></trkpt><trkpt lat="42.982472" lon="0.234685"><ele>881.19</ele><time>2011-09-15T12:26:24Z</time></trkpt><trkpt lat="42.982423" lon="0.234884"><ele>881.19</ele><time>2011-09-15T12:26:25Z</time></trkpt><trkpt lat="42.982383" lon="0.235088"><ele>881.67</ele><time>2011-09-15T12:26:26Z</time></trkpt><trkpt lat="42.982257" lon="0.235661"><ele>884.07</ele><time>2011-09-15T12:26:29Z</time></trkpt><trkpt lat="42.982189" lon="0.235839"><ele>885.03</ele><time>2011-09-15T12:26:30Z</time></trkpt><trkpt lat="42.982109" lon="0.236008"><ele>885.99</ele><time>2011-09-15T12:26:31Z</time></trkpt><trkpt lat="42.982021" lon="0.236168"><ele>886.95</ele><time>2011-09-15T12:26:32Z</time></trkpt><trkpt lat="42.981926" lon="0.236320"><ele>888.40</ele><time>2011-09-15T12:26:33Z</time></trkpt><trkpt lat="42.981823" lon="0.236464"><ele>888.88</ele><time>2011-09-15T12:26:34Z</time></trkpt><trkpt lat="42.981713" lon="0.236602"><ele>889.84</ele><time>2011-09-15T12:26:35Z</time></trkpt><trkpt lat="42.981597" lon="0.236738"><ele>890.80</ele><time>2011-09-15T12:26:36Z</time></trkpt><trkpt lat="42.980215" lon="0.238323"><ele>900.41</ele><time>2011-09-15T12:26:47Z</time></trkpt><trkpt lat="42.979369" lon="0.239505"><ele>903.78</ele><time>2011-09-15T12:26:55Z</time></trkpt><trkpt lat="42.979252" lon="0.239614"><ele>903.78</ele><time>2011-09-15T12:26:56Z</time></trkpt><trkpt lat="42.979117" lon="0.239707"><ele>904.26</ele><time>2011-09-15T12:26:57Z</time></trkpt><trkpt lat="42.978970" lon="0.239789"><ele>903.30</ele><time>2011-09-15T12:26:58Z</time></trkpt><trkpt lat="42.978823" lon="0.239870"><ele>902.82</ele><time>2011-09-15T12:26:59Z</time></trkpt><trkpt lat="42.978431" lon="0.240214"><ele>902.33</ele><time>2011-09-15T12:27:02Z</time></trkpt><trkpt lat="42.978326" lon="0.240384"><ele>903.30</ele><time>2011-09-15T12:27:03Z</time></trkpt><trkpt lat="42.978237" lon="0.240563"><ele>903.30</ele><time>2011-09-15T12:27:04Z</time></trkpt><trkpt lat="42.978165" lon="0.240765"><ele>903.30</ele><time>2011-09-15T12:27:05Z</time></trkpt><trkpt lat="42.978112" lon="0.240965"><ele>902.33</ele><time>2011-09-15T12:27:06Z</time></trkpt><trkpt lat="42.977506" lon="0.242415"><ele>899.93</ele><time>2011-09-15T12:27:14Z</time></trkpt><trkpt lat="42.977359" lon="0.242504"><ele>898.97</ele><time>2011-09-15T12:27:15Z</time></trkpt><trkpt lat="42.977214" lon="0.242591"><ele>898.97</ele><time>2011-09-15T12:27:16Z</time></trkpt><trkpt lat="42.977063" lon="0.242649"><ele>898.49</ele><time>2011-09-15T12:27:17Z</time></trkpt><trkpt lat="42.976907" lon="0.242697"><ele>898.49</ele><time>2011-09-15T12:27:18Z</time></trkpt><trkpt lat="42.976748" lon="0.242739"><ele>898.97</ele><time>2011-09-15T12:27:19Z</time></trkpt><trkpt lat="42.975684" lon="0.242920"><ele>902.33</ele><time>2011-09-15T12:27:26Z</time></trkpt><trkpt lat="42.975535" lon="0.242983"><ele>902.33</ele><time>2011-09-15T12:27:27Z</time></trkpt><trkpt lat="42.975078" lon="0.243166"><ele>903.30</ele><time>2011-09-15T12:27:30Z</time></trkpt><trkpt lat="42.974921" lon="0.243185"><ele>903.78</ele><time>2011-09-15T12:27:31Z</time></trkpt><trkpt lat="42.974758" lon="0.243187"><ele>904.26</ele><time>2011-09-15T12:27:32Z</time></trkpt><trkpt lat="42.973282" lon="0.243392"><ele>907.14</ele><time>2011-09-15T12:27:41Z</time></trkpt><trkpt lat="42.971624" lon="0.244011"><ele>914.83</ele><time>2011-09-15T12:27:52Z</time></trkpt><trkpt lat="42.971449" lon="0.244039"><ele>915.79</ele><time>2011-09-15T12:27:53Z</time></trkpt><trkpt lat="42.970012" lon="0.244171"><ele>924.45</ele><time>2011-09-15T12:28:00Z</time></trkpt><trkpt lat="42.969078" lon="0.244206"><ele>932.14</ele><time>2011-09-15T12:28:05Z</time></trkpt><trkpt lat="42.968907" lon="0.244254"><ele>933.10</ele><time>2011-09-15T12:28:06Z</time></trkpt><trkpt lat="42.968733" lon="0.244328"><ele>933.58</ele><time>2011-09-15T12:28:07Z</time></trkpt><trkpt lat="42.967248" lon="0.244951"><ele>941.27</ele><time>2011-09-15T12:28:16Z</time></trkpt><trkpt lat="42.966220" lon="0.245066"><ele>946.07</ele><time>2011-09-15T12:28:22Z</time></trkpt><trkpt lat="42.966060" lon="0.245128"><ele>947.52</ele><time>2011-09-15T12:28:23Z</time></trkpt><trkpt lat="42.965911" lon="0.245210"><ele>948.48</ele><time>2011-09-15T12:28:24Z</time></trkpt><trkpt lat="42.965773" lon="0.245310"><ele>949.92</ele><time>2011-09-15T12:28:25Z</time></trkpt><trkpt lat="42.965641" lon="0.245414"><ele>950.88</ele><time>2011-09-15T12:28:26Z</time></trkpt><trkpt lat="42.964646" lon="0.246358"><ele>953.77</ele><time>2011-09-15T12:28:33Z</time></trkpt><trkpt lat="42.964056" lon="0.247059"><ele>954.73</ele><time>2011-09-15T12:28:38Z</time></trkpt><trkpt lat="42.963976" lon="0.247218"><ele>954.25</ele><time>2011-09-15T12:28:39Z</time></trkpt><trkpt lat="42.963413" lon="0.248433"><ele>955.69</ele><time>2011-09-15T12:28:47Z</time></trkpt><trkpt lat="42.963263" lon="0.248733"><ele>956.65</ele><time>2011-09-15T12:28:49Z</time></trkpt><trkpt lat="42.962501" lon="0.250298"><ele>961.46</ele><time>2011-09-15T12:28:59Z</time></trkpt><trkpt lat="42.961285" lon="0.252149"><ele>965.30</ele><time>2011-09-15T12:29:12Z</time></trkpt><trkpt lat="42.960221" lon="0.253568"><ele>972.03</ele><time>2011-09-15T12:29:20Z</time></trkpt><trkpt lat="42.959391" lon="0.254588"><ele>978.28</ele><time>2011-09-15T12:29:27Z</time></trkpt><trkpt lat="42.958297" lon="0.255619"><ele>983.09</ele><time>2011-09-15T12:29:34Z</time></trkpt><trkpt lat="42.956905" lon="0.257218"><ele>989.81</ele><time>2011-09-15T12:29:43Z</time></trkpt><trkpt lat="42.955983" lon="0.258230"><ele>994.62</ele><time>2011-09-15T12:29:50Z</time></trkpt><trkpt lat="42.955901" lon="0.258387"><ele>994.62</ele><time>2011-09-15T12:29:51Z</time></trkpt><trkpt lat="42.955833" lon="0.258547"><ele>995.10</ele><time>2011-09-15T12:29:52Z</time></trkpt><trkpt lat="42.955778" lon="0.258704"><ele>995.10</ele><time>2011-09-15T12:29:53Z</time></trkpt><trkpt lat="42.955730" lon="0.258855"><ele>995.10</ele><time>2011-09-15T12:29:54Z</time></trkpt><trkpt lat="42.955581" lon="0.259276"><ele>996.54</ele><time>2011-09-15T12:29:57Z</time></trkpt><trkpt lat="42.955515" lon="0.259399"><ele>997.02</ele><time>2011-09-15T12:29:58Z</time></trkpt><trkpt lat="42.955434" lon="0.259510"><ele>997.51</ele><time>2011-09-15T12:29:59Z</time></trkpt><trkpt lat="42.955337" lon="0.259604"><ele>997.99</ele><time>2011-09-15T12:30:00Z</time></trkpt><trkpt lat="42.955231" lon="0.259679"><ele>997.99</ele><time>2011-09-15T12:30:01Z</time></trkpt><trkpt lat="42.955118" lon="0.259743"><ele>998.47</ele><time>2011-09-15T12:30:02Z</time></trkpt><trkpt lat="42.953850" lon="0.260323"><ele>1002.79</ele><time>2011-09-15T12:30:12Z</time></trkpt><trkpt lat="42.953707" lon="0.260452"><ele>1003.27</ele><time>2011-09-15T12:30:13Z</time></trkpt><trkpt lat="42.953574" lon="0.260618"><ele>1003.75</ele><time>2011-09-15T12:30:14Z</time></trkpt><trkpt lat="42.953453" lon="0.260820"><ele>1004.23</ele><time>2011-09-15T12:30:15Z</time></trkpt><trkpt lat="42.952405" lon="0.263000"><ele>1015.77</ele><time>2011-09-15T12:30:25Z</time></trkpt><trkpt lat="42.952094" lon="0.264069"><ele>1023.46</ele><time>2011-09-15T12:30:30Z</time></trkpt><trkpt lat="42.952023" lon="0.264232"><ele>1024.42</ele><time>2011-09-15T12:30:31Z</time></trkpt><trkpt lat="42.951931" lon="0.264379"><ele>1025.38</ele><time>2011-09-15T12:30:32Z</time></trkpt><trkpt lat="42.951813" lon="0.264517"><ele>1026.34</ele><time>2011-09-15T12:30:33Z</time></trkpt><trkpt lat="42.951693" lon="0.264664"><ele>1027.31</ele><time>2011-09-15T12:30:34Z</time></trkpt><trkpt lat="42.951578" lon="0.264826"><ele>1028.75</ele><time>2011-09-15T12:30:35Z</time></trkpt><trkpt lat="42.951485" lon="0.265001"><ele>1030.19</ele><time>2011-09-15T12:30:36Z</time></trkpt><trkpt lat="42.951423" lon="0.265182"><ele>1030.67</ele><time>2011-09-15T12:30:37Z</time></trkpt><trkpt lat="42.951382" lon="0.265373"><ele>1031.63</ele><time>2011-09-15T12:30:38Z</time></trkpt><trkpt lat="42.951367" lon="0.265598"><ele>1033.07</ele><time>2011-09-15T12:30:39Z</time></trkpt><trkpt lat="42.951359" lon="0.265843"><ele>1034.52</ele><time>2011-09-15T12:30:40Z</time></trkpt><trkpt lat="42.951315" lon="0.266295"><ele>1036.92</ele><time>2011-09-15T12:30:42Z</time></trkpt><trkpt lat="42.951276" lon="0.266490"><ele>1037.40</ele><time>2011-09-15T12:30:43Z</time></trkpt><trkpt lat="42.951211" lon="0.266664"><ele>1037.88</ele><time>2011-09-15T12:30:44Z</time></trkpt><trkpt lat="42.951115" lon="0.266808"><ele>1038.36</ele><time>2011-09-15T12:30:45Z</time></trkpt><trkpt lat="42.950992" lon="0.266930"><ele>1038.84</ele><time>2011-09-15T12:30:46Z</time></trkpt><trkpt lat="42.950840" lon="0.267030"><ele>1039.80</ele><time>2011-09-15T12:30:47Z</time></trkpt><trkpt lat="42.950695" lon="0.267141"><ele>1040.76</ele><time>2011-09-15T12:30:48Z</time></trkpt><trkpt lat="42.950555" lon="0.267278"><ele>1042.21</ele><time>2011-09-15T12:30:49Z</time></trkpt><trkpt lat="42.950419" lon="0.267415"><ele>1043.65</ele><time>2011-09-15T12:30:50Z</time></trkpt><trkpt lat="42.950141" lon="0.267653"><ele>1045.09</ele><time>2011-09-15T12:30:52Z</time></trkpt><trkpt lat="42.949889" lon="0.267846"><ele>1047.97</ele><time>2011-09-15T12:30:54Z</time></trkpt><trkpt lat="42.949794" lon="0.267956"><ele>1048.45</ele><time>2011-09-15T12:30:55Z</time></trkpt><trkpt lat="42.949769" lon="0.268104"><ele>1048.45</ele><time>2011-09-15T12:30:56Z</time></trkpt><trkpt lat="42.949765" lon="0.268273"><ele>1048.94</ele><time>2011-09-15T12:30:57Z</time></trkpt><trkpt lat="42.949781" lon="0.268456"><ele>1050.86</ele><time>2011-09-15T12:30:58Z</time></trkpt><trkpt lat="42.949801" lon="0.268636"><ele>1052.78</ele><time>2011-09-15T12:30:59Z</time></trkpt><trkpt lat="42.949811" lon="0.268807"><ele>1053.26</ele><time>2011-09-15T12:31:00Z</time></trkpt><trkpt lat="42.949783" lon="0.268976"><ele>1054.70</ele><time>2011-09-15T12:31:01Z</time></trkpt><trkpt lat="42.949730" lon="0.269147"><ele>1055.67</ele><time>2011-09-15T12:31:02Z</time></trkpt><trkpt lat="42.949657" lon="0.269321"><ele>1057.11</ele><time>2011-09-15T12:31:03Z</time></trkpt><trkpt lat="42.949573" lon="0.269499"><ele>1058.55</ele><time>2011-09-15T12:31:04Z</time></trkpt><trkpt lat="42.949069" lon="0.270348"><ele>1064.32</ele><time>2011-09-15T12:31:09Z</time></trkpt><trkpt lat="42.948939" lon="0.270472"><ele>1064.80</ele><time>2011-09-15T12:31:10Z</time></trkpt><trkpt lat="42.948793" lon="0.270526"><ele>1065.76</ele><time>2011-09-15T12:31:11Z</time></trkpt><trkpt lat="42.948632" lon="0.270551"><ele>1066.24</ele><time>2011-09-15T12:31:12Z</time></trkpt><trkpt lat="42.948457" lon="0.270558"><ele>1066.72</ele><time>2011-09-15T12:31:13Z</time></trkpt><trkpt lat="42.947241" lon="0.270947"><ele>1070.08</ele><time>2011-09-15T12:31:20Z</time></trkpt><trkpt lat="42.946135" lon="0.271889"><ele>1070.57</ele><time>2011-09-15T12:31:27Z</time></trkpt><trkpt lat="42.945840" lon="0.272111"><ele>1071.53</ele><time>2011-09-15T12:31:29Z</time></trkpt><trkpt lat="42.945705" lon="0.272248"><ele>1072.01</ele><time>2011-09-15T12:31:30Z</time></trkpt><trkpt lat="42.945586" lon="0.272406"><ele>1071.53</ele><time>2011-09-15T12:31:31Z</time></trkpt><trkpt lat="42.945494" lon="0.272593"><ele>1072.01</ele><time>2011-09-15T12:31:32Z</time></trkpt><trkpt lat="42.945433" lon="0.272794"><ele>1072.49</ele><time>2011-09-15T12:31:33Z</time></trkpt><trkpt lat="42.945384" lon="0.272987"><ele>1072.49</ele><time>2011-09-15T12:31:34Z</time></trkpt><trkpt lat="42.945334" lon="0.273178"><ele>1072.49</ele><time>2011-09-15T12:31:35Z</time></trkpt><trkpt lat="42.944751" lon="0.274984"><ele>1073.93</ele><time>2011-09-15T12:31:45Z</time></trkpt><trkpt lat="42.944700" lon="0.275187"><ele>1074.89</ele><time>2011-09-15T12:31:46Z</time></trkpt><trkpt lat="42.944661" lon="0.275403"><ele>1074.89</ele><time>2011-09-15T12:31:47Z</time></trkpt><trkpt lat="42.944568" lon="0.275847"><ele>1076.33</ele><time>2011-09-15T12:31:49Z</time></trkpt><trkpt lat="42.944497" lon="0.276048"><ele>1076.81</ele><time>2011-09-15T12:31:50Z</time></trkpt><trkpt lat="42.944404" lon="0.276234"><ele>1078.26</ele><time>2011-09-15T12:31:51Z</time></trkpt><trkpt lat="42.944298" lon="0.276400"><ele>1079.70</ele><time>2011-09-15T12:31:52Z</time></trkpt><trkpt lat="42.944186" lon="0.276549"><ele>1080.18</ele><time>2011-09-15T12:31:53Z</time></trkpt><trkpt lat="42.944080" lon="0.276691"><ele>1080.66</ele><time>2011-09-15T12:31:54Z</time></trkpt><trkpt lat="42.943985" lon="0.276839"><ele>1081.14</ele><time>2011-09-15T12:31:55Z</time></trkpt><trkpt lat="42.943906" lon="0.277000"><ele>1082.10</ele><time>2011-09-15T12:31:56Z</time></trkpt><trkpt lat="42.943840" lon="0.277168"><ele>1082.10</ele><time>2011-09-15T12:31:57Z</time></trkpt><trkpt lat="42.943610" lon="0.277853"><ele>1084.99</ele><time>2011-09-15T12:32:01Z</time></trkpt><trkpt lat="42.943573" lon="0.278038"><ele>1085.47</ele><time>2011-09-15T12:32:02Z</time></trkpt><trkpt lat="42.943551" lon="0.278230"><ele>1085.95</ele><time>2011-09-15T12:32:03Z</time></trkpt><trkpt lat="42.943547" lon="0.278429"><ele>1086.43</ele><time>2011-09-15T12:32:04Z</time></trkpt><trkpt lat="42.943558" lon="0.278630"><ele>1086.43</ele><time>2011-09-15T12:32:05Z</time></trkpt><trkpt lat="42.943576" lon="0.278841"><ele>1086.91</ele><time>2011-09-15T12:32:06Z</time></trkpt><trkpt lat="42.943608" lon="0.279702"><ele>1087.39</ele><time>2011-09-15T12:32:10Z</time></trkpt><trkpt lat="42.943579" lon="0.279925"><ele>1087.39</ele><time>2011-09-15T12:32:11Z</time></trkpt><trkpt lat="42.943527" lon="0.280141"><ele>1087.87</ele><time>2011-09-15T12:32:12Z</time></trkpt><trkpt lat="42.943418" lon="0.280586"><ele>1088.35</ele><time>2011-09-15T12:32:14Z</time></trkpt><trkpt lat="42.943277" lon="0.281271"><ele>1089.31</ele><time>2011-09-15T12:32:17Z</time></trkpt><trkpt lat="42.943198" lon="0.281478"><ele>1090.27</ele><time>2011-09-15T12:32:18Z</time></trkpt><trkpt lat="42.943104" lon="0.281673"><ele>1090.75</ele><time>2011-09-15T12:32:19Z</time></trkpt><trkpt lat="42.942845" lon="0.282238"><ele>1091.71</ele><time>2011-09-15T12:32:22Z</time></trkpt><trkpt lat="42.942794" lon="0.282439"><ele>1092.20</ele><time>2011-09-15T12:32:23Z</time></trkpt><trkpt lat="42.942765" lon="0.282650"><ele>1092.20</ele><time>2011-09-15T12:32:24Z</time></trkpt><trkpt lat="42.942753" lon="0.282866"><ele>1092.68</ele><time>2011-09-15T12:32:25Z</time></trkpt><trkpt lat="42.942754" lon="0.283082"><ele>1093.16</ele><time>2011-09-15T12:32:26Z</time></trkpt><trkpt lat="42.942761" lon="0.283288"><ele>1093.64</ele><time>2011-09-15T12:32:27Z</time></trkpt><trkpt lat="42.942810" lon="0.284801"><ele>1097.48</ele><time>2011-09-15T12:32:36Z</time></trkpt><trkpt lat="42.942899" lon="0.285440"><ele>1098.92</ele><time>2011-09-15T12:32:40Z</time></trkpt><trkpt lat="42.942943" lon="0.285572"><ele>1099.40</ele><time>2011-09-15T12:32:41Z</time></trkpt><trkpt lat="42.942993" lon="0.285689"><ele>1099.89</ele><time>2011-09-15T12:32:42Z</time></trkpt><trkpt lat="42.943597" lon="0.286781"><ele>1102.77</ele><time>2011-09-15T12:32:51Z</time></trkpt><trkpt lat="42.944176" lon="0.287808"><ele>1105.65</ele><time>2011-09-15T12:32:58Z</time></trkpt><trkpt lat="42.944233" lon="0.287967"><ele>1106.61</ele><time>2011-09-15T12:32:59Z</time></trkpt><trkpt lat="42.944270" lon="0.288140"><ele>1107.10</ele><time>2011-09-15T12:33:00Z</time></trkpt><trkpt lat="42.944290" lon="0.288326"><ele>1108.54</ele><time>2011-09-15T12:33:01Z</time></trkpt><trkpt lat="42.944295" lon="0.288514"><ele>1109.02</ele><time>2011-09-15T12:33:02Z</time></trkpt><trkpt lat="42.944278" lon="0.288698"><ele>1110.46</ele><time>2011-09-15T12:33:03Z</time></trkpt><trkpt lat="42.944239" lon="0.288864"><ele>1111.42</ele><time>2011-09-15T12:33:04Z</time></trkpt><trkpt lat="42.944176" lon="0.288997"><ele>1111.90</ele><time>2011-09-15T12:33:05Z</time></trkpt><trkpt lat="42.944078" lon="0.289077"><ele>1112.86</ele><time>2011-09-15T12:33:06Z</time></trkpt><trkpt lat="42.943965" lon="0.289091"><ele>1112.86</ele><time>2011-09-15T12:33:07Z</time></trkpt><trkpt lat="42.943871" lon="0.289032"><ele>1113.34</ele><time>2011-09-15T12:33:08Z</time></trkpt><trkpt lat="42.943774" lon="0.288954"><ele>1114.31</ele><time>2011-09-15T12:33:09Z</time></trkpt><trkpt lat="42.943679" lon="0.288850"><ele>1115.27</ele><time>2011-09-15T12:33:10Z</time></trkpt><trkpt lat="42.943578" lon="0.288739"><ele>1116.23</ele><time>2011-09-15T12:33:11Z</time></trkpt><trkpt lat="42.943476" lon="0.288638"><ele>1116.71</ele><time>2011-09-15T12:33:12Z</time></trkpt><trkpt lat="42.943355" lon="0.288554"><ele>1117.67</ele><time>2011-09-15T12:33:13Z</time></trkpt><trkpt lat="42.943214" lon="0.288491"><ele>1118.63</ele><time>2011-09-15T12:33:14Z</time></trkpt><trkpt lat="42.943059" lon="0.288447"><ele>1119.59</ele><time>2011-09-15T12:33:15Z</time></trkpt><trkpt lat="42.942911" lon="0.288415"><ele>1121.03</ele><time>2011-09-15T12:33:16Z</time></trkpt><trkpt lat="42.942478" lon="0.288392"><ele>1132.09</ele><time>2011-09-15T12:33:19Z</time></trkpt><trkpt lat="42.942333" lon="0.288405"><ele>1133.53</ele><time>2011-09-15T12:33:20Z</time></trkpt><trkpt lat="42.942183" lon="0.288441"><ele>1134.01</ele><time>2011-09-15T12:33:21Z</time></trkpt><trkpt lat="42.942028" lon="0.288499"><ele>1135.45</ele><time>2011-09-15T12:33:22Z</time></trkpt><trkpt lat="42.941870" lon="0.288566"><ele>1136.90</ele><time>2011-09-15T12:33:23Z</time></trkpt><trkpt lat="42.941242" lon="0.288957"><ele>1143.63</ele><time>2011-09-15T12:33:27Z</time></trkpt><trkpt lat="42.941105" lon="0.289098"><ele>1145.55</ele><time>2011-09-15T12:33:28Z</time></trkpt><trkpt lat="42.940986" lon="0.289253"><ele>1146.99</ele><time>2011-09-15T12:33:29Z</time></trkpt><trkpt lat="42.940885" lon="0.289428"><ele>1148.43</ele><time>2011-09-15T12:33:30Z</time></trkpt><trkpt lat="42.940805" lon="0.289614"><ele>1149.87</ele><time>2011-09-15T12:33:31Z</time></trkpt><trkpt lat="42.940741" lon="0.289793"><ele>1150.84</ele><time>2011-09-15T12:33:32Z</time></trkpt><trkpt lat="42.940684" lon="0.289958"><ele>1152.28</ele><time>2011-09-15T12:33:33Z</time></trkpt><trkpt lat="42.940593" lon="0.290238"><ele>1154.20</ele><time>2011-09-15T12:33:35Z</time></trkpt><trkpt lat="42.940576" lon="0.290357"><ele>1155.64</ele><time>2011-09-15T12:33:36Z</time></trkpt><trkpt lat="42.940607" lon="0.290454"><ele>1156.60</ele><time>2011-09-15T12:33:37Z</time></trkpt><trkpt lat="42.940669" lon="0.290522"><ele>1158.05</ele><time>2011-09-15T12:33:38Z</time></trkpt><trkpt lat="42.940743" lon="0.290477"><ele>1160.45</ele><time>2011-09-15T12:33:39Z</time></trkpt><trkpt lat="42.940801" lon="0.290425"><ele>1162.37</ele><time>2011-09-15T12:33:40Z</time></trkpt><trkpt lat="42.940901" lon="0.290326"><ele>1163.81</ele><time>2011-09-15T12:33:41Z</time></trkpt><trkpt lat="42.941003" lon="0.290238"><ele>1165.26</ele><time>2011-09-15T12:33:42Z</time></trkpt><trkpt lat="42.941102" lon="0.290156"><ele>1167.18</ele><time>2011-09-15T12:33:43Z</time></trkpt><trkpt lat="42.941217" lon="0.290123"><ele>1168.62</ele><time>2011-09-15T12:33:44Z</time></trkpt><trkpt lat="42.941345" lon="0.290085"><ele>1169.58</ele><time>2011-09-15T12:33:45Z</time></trkpt><trkpt lat="42.941465" lon="0.290078"><ele>1171.02</ele><time>2011-09-15T12:33:46Z</time></trkpt><trkpt lat="42.941592" lon="0.290086"><ele>1171.98</ele><time>2011-09-15T12:33:47Z</time></trkpt><trkpt lat="42.941730" lon="0.290107"><ele>1172.95</ele><time>2011-09-15T12:33:48Z</time></trkpt><trkpt lat="42.942760" lon="0.290219"><ele>1182.56</ele><time>2011-09-15T12:33:56Z</time></trkpt><trkpt lat="42.942802" lon="0.290325"><ele>1183.04</ele><time>2011-09-15T12:33:57Z</time></trkpt><trkpt lat="42.942768" lon="0.290391"><ele>1184.96</ele><time>2011-09-15T12:33:58Z</time></trkpt><trkpt lat="42.942713" lon="0.290451"><ele>1185.44</ele><time>2011-09-15T12:33:59Z</time></trkpt><trkpt lat="42.942640" lon="0.290472"><ele>1185.44</ele><time>2011-09-15T12:34:00Z</time></trkpt><trkpt lat="42.942550" lon="0.290492"><ele>1185.92</ele><time>2011-09-15T12:34:01Z</time></trkpt><trkpt lat="42.942430" lon="0.290486"><ele>1186.88</ele><time>2011-09-15T12:34:02Z</time></trkpt><trkpt lat="42.942295" lon="0.290529"><ele>1185.44</ele><time>2011-09-15T12:34:03Z</time></trkpt><trkpt lat="42.941953" lon="0.290679"><ele>1185.92</ele><time>2011-09-15T12:34:06Z</time></trkpt><trkpt lat="42.941840" lon="0.290796"><ele>1186.40</ele><time>2011-09-15T12:34:07Z</time></trkpt><trkpt lat="42.941733" lon="0.290939"><ele>1186.88</ele><time>2011-09-15T12:34:08Z</time></trkpt><trkpt lat="42.941620" lon="0.291086"><ele>1188.33</ele><time>2011-09-15T12:34:09Z</time></trkpt><trkpt lat="42.941520" lon="0.291239"><ele>1189.77</ele><time>2011-09-15T12:34:10Z</time></trkpt><trkpt lat="42.941428" lon="0.291392"><ele>1191.21</ele><time>2011-09-15T12:34:11Z</time></trkpt><trkpt lat="42.941335" lon="0.291557"><ele>1192.17</ele><time>2011-09-15T12:34:12Z</time></trkpt><trkpt lat="42.940665" lon="0.292745"><ele>1200.82</ele><time>2011-09-15T12:34:19Z</time></trkpt><trkpt lat="42.940570" lon="0.292866"><ele>1202.75</ele><time>2011-09-15T12:34:20Z</time></trkpt><trkpt lat="42.940478" lon="0.292966"><ele>1203.71</ele><time>2011-09-15T12:34:21Z</time></trkpt><trkpt lat="42.940339" lon="0.293151"><ele>1205.15</ele><time>2011-09-15T12:34:23Z</time></trkpt><trkpt lat="42.940350" lon="0.293243"><ele>1204.67</ele><time>2011-09-15T12:34:24Z</time></trkpt><trkpt lat="42.940369" lon="0.293316"><ele>1204.67</ele><time>2011-09-15T12:34:25Z</time></trkpt><trkpt lat="42.940570" lon="0.293241"><ele>1207.55</ele><time>2011-09-15T12:34:28Z</time></trkpt><trkpt lat="42.940677" lon="0.293194"><ele>1207.55</ele><time>2011-09-15T12:34:29Z</time></trkpt><trkpt lat="42.940792" lon="0.293119"><ele>1207.55</ele><time>2011-09-15T12:34:30Z</time></trkpt><trkpt lat="42.940916" lon="0.293031"><ele>1208.03</ele><time>2011-09-15T12:34:31Z</time></trkpt><trkpt lat="42.941914" lon="0.292537"><ele>1215.72</ele><time>2011-09-15T12:34:38Z</time></trkpt><trkpt lat="42.942341" lon="0.292415"><ele>1220.53</ele><time>2011-09-15T12:34:42Z</time></trkpt><trkpt lat="42.942422" lon="0.292425"><ele>1221.49</ele><time>2011-09-15T12:34:43Z</time></trkpt><trkpt lat="42.942471" lon="0.292500"><ele>1221.97</ele><time>2011-09-15T12:34:44Z</time></trkpt><trkpt lat="42.942493" lon="0.292605"><ele>1222.45</ele><time>2011-09-15T12:34:45Z</time></trkpt><trkpt lat="42.942485" lon="0.292714"><ele>1222.93</ele><time>2011-09-15T12:34:46Z</time></trkpt><trkpt lat="42.942440" lon="0.292822"><ele>1223.42</ele><time>2011-09-15T12:34:47Z</time></trkpt><trkpt lat="42.942361" lon="0.292914"><ele>1224.38</ele><time>2011-09-15T12:34:48Z</time></trkpt><trkpt lat="42.942264" lon="0.292985"><ele>1225.82</ele><time>2011-09-15T12:34:49Z</time></trkpt><trkpt lat="42.942167" lon="0.293037"><ele>1226.30</ele><time>2011-09-15T12:34:50Z</time></trkpt><trkpt lat="42.942074" lon="0.293086"><ele>1227.26</ele><time>2011-09-15T12:34:51Z</time></trkpt><trkpt lat="42.941978" lon="0.293149"><ele>1228.22</ele><time>2011-09-15T12:34:52Z</time></trkpt><trkpt lat="42.941882" lon="0.293237"><ele>1228.70</ele><time>2011-09-15T12:34:53Z</time></trkpt><trkpt lat="42.941788" lon="0.293341"><ele>1230.14</ele><time>2011-09-15T12:34:54Z</time></trkpt><trkpt lat="42.941071" lon="0.294383"><ele>1240.24</ele><time>2011-09-15T12:35:01Z</time></trkpt><trkpt lat="42.940991" lon="0.294576"><ele>1242.64</ele><time>2011-09-15T12:35:02Z</time></trkpt><trkpt lat="42.940422" lon="0.295996"><ele>1254.66</ele><time>2011-09-15T12:35:09Z</time></trkpt><trkpt lat="42.940375" lon="0.296188"><ele>1256.58</ele><time>2011-09-15T12:35:10Z</time></trkpt><trkpt lat="42.940289" lon="0.296539"><ele>1259.94</ele><time>2011-09-15T12:35:12Z</time></trkpt><trkpt lat="42.940216" lon="0.296643"><ele>1261.39</ele><time>2011-09-15T12:35:13Z</time></trkpt><trkpt lat="42.940116" lon="0.296720"><ele>1262.35</ele><time>2011-09-15T12:35:14Z</time></trkpt><trkpt lat="42.940003" lon="0.296780"><ele>1263.79</ele><time>2011-09-15T12:35:15Z</time></trkpt><trkpt lat="42.939875" lon="0.296809"><ele>1265.71</ele><time>2011-09-15T12:35:16Z</time></trkpt><trkpt lat="42.939760" lon="0.296857"><ele>1267.16</ele><time>2011-09-15T12:35:17Z</time></trkpt><trkpt lat="42.939653" lon="0.296954"><ele>1267.64</ele><time>2011-09-15T12:35:18Z</time></trkpt><trkpt lat="42.939560" lon="0.297055"><ele>1269.08</ele><time>2011-09-15T12:35:19Z</time></trkpt><trkpt lat="42.939476" lon="0.297199"><ele>1271.00</ele><time>2011-09-15T12:35:20Z</time></trkpt><trkpt lat="42.939398" lon="0.297400"><ele>1271.00</ele><time>2011-09-15T12:35:21Z</time></trkpt><trkpt lat="42.939320" lon="0.297598"><ele>1271.96</ele><time>2011-09-15T12:35:22Z</time></trkpt><trkpt lat="42.939247" lon="0.297798"><ele>1272.92</ele><time>2011-09-15T12:35:23Z</time></trkpt><trkpt lat="42.939178" lon="0.298003"><ele>1274.36</ele><time>2011-09-15T12:35:24Z</time></trkpt><trkpt lat="42.939067" lon="0.298431"><ele>1277.73</ele><time>2011-09-15T12:35:26Z</time></trkpt><trkpt lat="42.939042" lon="0.298637"><ele>1279.17</ele><time>2011-09-15T12:35:27Z</time></trkpt><trkpt lat="42.939040" lon="0.298820"><ele>1280.13</ele><time>2011-09-15T12:35:28Z</time></trkpt><trkpt lat="42.939074" lon="0.298964"><ele>1281.57</ele><time>2011-09-15T12:35:29Z</time></trkpt><trkpt lat="42.939128" lon="0.299076"><ele>1283.02</ele><time>2011-09-15T12:35:30Z</time></trkpt><trkpt lat="42.939208" lon="0.299166"><ele>1283.98</ele><time>2011-09-15T12:35:31Z</time></trkpt><trkpt lat="42.939300" lon="0.299267"><ele>1285.42</ele><time>2011-09-15T12:35:32Z</time></trkpt><trkpt lat="42.939389" lon="0.299392"><ele>1286.38</ele><time>2011-09-15T12:35:33Z</time></trkpt><trkpt lat="42.939460" lon="0.299535"><ele>1287.34</ele><time>2011-09-15T12:35:34Z</time></trkpt><trkpt lat="42.939507" lon="0.299693"><ele>1288.30</ele><time>2011-09-15T12:35:35Z</time></trkpt><trkpt lat="42.939523" lon="0.299862"><ele>1288.78</ele><time>2011-09-15T12:35:36Z</time></trkpt><trkpt lat="42.939532" lon="0.300028"><ele>1290.23</ele><time>2011-09-15T12:35:37Z</time></trkpt><trkpt lat="42.939556" lon="0.300178"><ele>1290.71</ele><time>2011-09-15T12:35:38Z</time></trkpt><trkpt lat="42.939596" lon="0.300285"><ele>1291.67</ele><time>2011-09-15T12:35:39Z</time></trkpt><trkpt lat="42.939653" lon="0.300344"><ele>1293.11</ele><time>2011-09-15T12:35:40Z</time></trkpt><trkpt lat="42.939733" lon="0.300393"><ele>1294.07</ele><time>2011-09-15T12:35:41Z</time></trkpt><trkpt lat="42.939827" lon="0.300433"><ele>1295.51</ele><time>2011-09-15T12:35:42Z</time></trkpt><trkpt lat="42.939956" lon="0.300490"><ele>1296.96</ele><time>2011-09-15T12:35:43Z</time></trkpt><trkpt lat="42.940036" lon="0.300608"><ele>1298.40</ele><time>2011-09-15T12:35:44Z</time></trkpt><trkpt lat="42.940122" lon="0.300755"><ele>1299.36</ele><time>2011-09-15T12:35:45Z</time></trkpt><trkpt lat="42.940460" lon="0.301473"><ele>1305.13</ele><time>2011-09-15T12:35:49Z</time></trkpt><trkpt lat="42.940595" lon="0.301801"><ele>1308.01</ele><time>2011-09-15T12:35:51Z</time></trkpt><trkpt lat="42.940678" lon="0.301946"><ele>1308.49</ele><time>2011-09-15T12:35:52Z</time></trkpt><trkpt lat="42.940765" lon="0.302075"><ele>1309.93</ele><time>2011-09-15T12:35:53Z</time></trkpt><trkpt lat="42.940869" lon="0.302178"><ele>1310.90</ele><time>2011-09-15T12:35:54Z</time></trkpt><trkpt lat="42.940992" lon="0.302239"><ele>1312.34</ele><time>2011-09-15T12:35:55Z</time></trkpt><trkpt lat="42.941115" lon="0.302298"><ele>1311.86</ele><time>2011-09-15T12:35:56Z</time></trkpt><trkpt lat="42.941221" lon="0.302380"><ele>1312.34</ele><time>2011-09-15T12:35:57Z</time></trkpt><trkpt lat="42.941314" lon="0.302471"><ele>1313.30</ele><time>2011-09-15T12:35:58Z</time></trkpt><trkpt lat="42.941400" lon="0.302587"><ele>1314.26</ele><time>2011-09-15T12:35:59Z</time></trkpt><trkpt lat="42.941477" lon="0.302727"><ele>1314.74</ele><time>2011-09-15T12:36:00Z</time></trkpt><trkpt lat="42.941533" lon="0.302889"><ele>1314.26</ele><time>2011-09-15T12:36:01Z</time></trkpt><trkpt lat="42.941574" lon="0.303068"><ele>1315.70</ele><time>2011-09-15T12:36:02Z</time></trkpt><trkpt lat="42.941631" lon="0.303251"><ele>1316.66</ele><time>2011-09-15T12:36:03Z</time></trkpt><trkpt lat="42.941698" lon="0.303427"><ele>1317.62</ele><time>2011-09-15T12:36:04Z</time></trkpt><trkpt lat="42.941779" lon="0.303585"><ele>1319.55</ele><time>2011-09-15T12:36:05Z</time></trkpt><trkpt lat="42.941852" lon="0.303739"><ele>1320.51</ele><time>2011-09-15T12:36:06Z</time></trkpt><trkpt lat="42.941913" lon="0.303905"><ele>1320.99</ele><time>2011-09-15T12:36:07Z</time></trkpt><trkpt lat="42.941974" lon="0.304082"><ele>1321.47</ele><time>2011-09-15T12:36:08Z</time></trkpt><trkpt lat="42.942338" lon="0.304944"><ele>1328.68</ele><time>2011-09-15T12:36:13Z</time></trkpt><trkpt lat="42.942369" lon="0.305117"><ele>1330.60</ele><time>2011-09-15T12:36:14Z</time></trkpt><trkpt lat="42.942552" lon="0.305488"><ele>1336.85</ele><time>2011-09-15T12:36:18Z</time></trkpt><trkpt lat="42.942633" lon="0.305514"><ele>1339.73</ele><time>2011-09-15T12:36:19Z</time></trkpt><trkpt lat="42.942860" lon="0.305741"><ele>1346.46</ele><time>2011-09-15T12:36:22Z</time></trkpt><trkpt lat="42.942886" lon="0.305860"><ele>1346.94</ele><time>2011-09-15T12:36:23Z</time></trkpt><trkpt lat="42.942904" lon="0.306001"><ele>1346.94</ele><time>2011-09-15T12:36:24Z</time></trkpt><trkpt lat="42.942891" lon="0.306147"><ele>1347.91</ele><time>2011-09-15T12:36:25Z</time></trkpt><trkpt lat="42.942866" lon="0.306299"><ele>1348.39</ele><time>2011-09-15T12:36:26Z</time></trkpt><trkpt lat="42.942855" lon="0.306461"><ele>1348.87</ele><time>2011-09-15T12:36:27Z</time></trkpt><trkpt lat="42.942859" lon="0.306608"><ele>1348.87</ele><time>2011-09-15T12:36:28Z</time></trkpt><trkpt lat="42.942878" lon="0.306744"><ele>1350.31</ele><time>2011-09-15T12:36:29Z</time></trkpt><trkpt lat="42.942916" lon="0.306864"><ele>1350.79</ele><time>2011-09-15T12:36:30Z</time></trkpt><trkpt lat="42.942978" lon="0.306954"><ele>1351.75</ele><time>2011-09-15T12:36:31Z</time></trkpt><trkpt lat="42.943039" lon="0.307005"><ele>1352.71</ele><time>2011-09-15T12:36:32Z</time></trkpt><trkpt lat="42.943086" lon="0.307084"><ele>1354.15</ele><time>2011-09-15T12:36:33Z</time></trkpt><trkpt lat="42.943112" lon="0.307189"><ele>1354.15</ele><time>2011-09-15T12:36:34Z</time></trkpt><trkpt lat="42.943115" lon="0.307311"><ele>1354.15</ele><time>2011-09-15T12:36:35Z</time></trkpt><trkpt lat="42.943084" lon="0.307445"><ele>1355.12</ele><time>2011-09-15T12:36:36Z</time></trkpt><trkpt lat="42.943025" lon="0.307596"><ele>1356.08</ele><time>2011-09-15T12:36:37Z</time></trkpt><trkpt lat="42.942950" lon="0.307741"><ele>1357.04</ele><time>2011-09-15T12:36:38Z</time></trkpt><trkpt lat="42.942887" lon="0.307887"><ele>1358.00</ele><time>2011-09-15T12:36:39Z</time></trkpt><trkpt lat="42.942722" lon="0.308417"><ele>1360.88</ele><time>2011-09-15T12:36:42Z</time></trkpt><trkpt lat="42.942498" lon="0.310080"><ele>1374.34</ele><time>2011-09-15T12:36:50Z</time></trkpt><trkpt lat="42.942435" lon="0.311243"><ele>1381.55</ele><time>2011-09-15T12:36:56Z</time></trkpt><trkpt lat="42.942462" lon="0.311369"><ele>1382.51</ele><time>2011-09-15T12:36:57Z</time></trkpt><trkpt lat="42.942528" lon="0.311446"><ele>1383.47</ele><time>2011-09-15T12:36:58Z</time></trkpt><trkpt lat="42.942592" lon="0.311480"><ele>1385.40</ele><time>2011-09-15T12:36:59Z</time></trkpt><trkpt lat="42.942676" lon="0.311497"><ele>1387.80</ele><time>2011-09-15T12:37:00Z</time></trkpt><trkpt lat="42.942776" lon="0.311570"><ele>1390.20</ele><time>2011-09-15T12:37:01Z</time></trkpt><trkpt lat="42.942892" lon="0.311652"><ele>1391.65</ele><time>2011-09-15T12:37:02Z</time></trkpt><trkpt lat="42.943459" lon="0.312341"><ele>1395.97</ele><time>2011-09-15T12:37:07Z</time></trkpt><trkpt lat="42.943572" lon="0.312475"><ele>1396.45</ele><time>2011-09-15T12:37:08Z</time></trkpt><trkpt lat="42.943703" lon="0.312595"><ele>1397.41</ele><time>2011-09-15T12:37:09Z</time></trkpt><trkpt lat="42.943840" lon="0.312720"><ele>1398.37</ele><time>2011-09-15T12:37:10Z</time></trkpt><trkpt lat="42.943970" lon="0.312871"><ele>1399.34</ele><time>2011-09-15T12:37:11Z</time></trkpt><trkpt lat="42.944086" lon="0.313049"><ele>1400.30</ele><time>2011-09-15T12:37:12Z</time></trkpt><trkpt lat="42.944191" lon="0.313246"><ele>1401.74</ele><time>2011-09-15T12:37:13Z</time></trkpt><trkpt lat="42.944292" lon="0.313457"><ele>1402.70</ele><time>2011-09-15T12:37:14Z</time></trkpt><trkpt lat="42.944970" lon="0.315110"><ele>1413.28</ele><time>2011-09-15T12:37:22Z</time></trkpt><trkpt lat="42.945083" lon="0.315287"><ele>1414.24</ele><time>2011-09-15T12:37:23Z</time></trkpt><trkpt lat="42.945669" lon="0.316095"><ele>1420.97</ele><time>2011-09-15T12:37:28Z</time></trkpt><trkpt lat="42.945807" lon="0.316227"><ele>1422.41</ele><time>2011-09-15T12:37:29Z</time></trkpt><trkpt lat="42.946194" lon="0.316560"><ele>1426.73</ele><time>2011-09-15T12:37:32Z</time></trkpt><trkpt lat="42.946294" lon="0.316688"><ele>1427.70</ele><time>2011-09-15T12:37:33Z</time></trkpt><trkpt lat="42.946384" lon="0.316820"><ele>1429.14</ele><time>2011-09-15T12:37:34Z</time></trkpt><trkpt lat="42.946463" lon="0.316954"><ele>1429.62</ele><time>2011-09-15T12:37:35Z</time></trkpt><trkpt lat="42.946523" lon="0.317088"><ele>1430.58</ele><time>2011-09-15T12:37:36Z</time></trkpt><trkpt lat="42.946553" lon="0.317219"><ele>1431.06</ele><time>2011-09-15T12:37:37Z</time></trkpt><trkpt lat="42.946514" lon="0.317332"><ele>1432.02</ele><time>2011-09-15T12:37:38Z</time></trkpt><trkpt lat="42.946427" lon="0.317383"><ele>1432.98</ele><time>2011-09-15T12:37:39Z</time></trkpt><trkpt lat="42.946326" lon="0.317459"><ele>1433.94</ele><time>2011-09-15T12:37:40Z</time></trkpt><trkpt lat="42.946211" lon="0.317555"><ele>1434.91</ele><time>2011-09-15T12:37:41Z</time></trkpt><trkpt lat="42.946110" lon="0.317677"><ele>1434.91</ele><time>2011-09-15T12:37:42Z</time></trkpt><trkpt lat="42.946021" lon="0.317828"><ele>1434.91</ele><time>2011-09-15T12:37:43Z</time></trkpt><trkpt lat="42.945938" lon="0.318012"><ele>1435.87</ele><time>2011-09-15T12:37:44Z</time></trkpt><trkpt lat="42.945867" lon="0.318199"><ele>1437.31</ele><time>2011-09-15T12:37:45Z</time></trkpt><trkpt lat="42.945808" lon="0.318380"><ele>1438.27</ele><time>2011-09-15T12:37:46Z</time></trkpt><trkpt lat="42.945133" lon="0.319937"><ele>1448.36</ele><time>2011-09-15T12:37:54Z</time></trkpt><trkpt lat="42.944279" lon="0.321862"><ele>1459.90</ele><time>2011-09-15T12:38:03Z</time></trkpt><trkpt lat="42.943719" lon="0.323070"><ele>1467.59</ele><time>2011-09-15T12:38:09Z</time></trkpt><trkpt lat="42.943646" lon="0.323268"><ele>1469.03</ele><time>2011-09-15T12:38:10Z</time></trkpt><trkpt lat="42.943600" lon="0.323478"><ele>1469.99</ele><time>2011-09-15T12:38:11Z</time></trkpt><trkpt lat="42.943575" lon="0.323703"><ele>1470.95</ele><time>2011-09-15T12:38:12Z</time></trkpt><trkpt lat="42.943558" lon="0.323939"><ele>1472.40</ele><time>2011-09-15T12:38:13Z</time></trkpt><trkpt lat="42.943274" lon="0.325727"><ele>1483.45</ele><time>2011-09-15T12:38:21Z</time></trkpt><trkpt lat="42.943181" lon="0.326132"><ele>1485.85</ele><time>2011-09-15T12:38:23Z</time></trkpt><trkpt lat="42.943113" lon="0.326323"><ele>1486.82</ele><time>2011-09-15T12:38:24Z</time></trkpt><trkpt lat="42.943028" lon="0.326496"><ele>1488.26</ele><time>2011-09-15T12:38:25Z</time></trkpt><trkpt lat="42.942933" lon="0.326648"><ele>1489.22</ele><time>2011-09-15T12:38:26Z</time></trkpt><trkpt lat="42.942834" lon="0.326779"><ele>1490.66</ele><time>2011-09-15T12:38:27Z</time></trkpt><trkpt lat="42.942741" lon="0.326892"><ele>1491.62</ele><time>2011-09-15T12:38:28Z</time></trkpt><trkpt lat="42.942402" lon="0.327333"><ele>1495.95</ele><time>2011-09-15T12:38:34Z</time></trkpt><trkpt lat="42.942307" lon="0.327526"><ele>1495.95</ele><time>2011-09-15T12:38:39Z</time></trkpt><trkpt lat="42.942308" lon="0.327550"><ele>1495.95</ele><time>2011-09-15T12:38:40Z</time></trkpt><trkpt lat="42.942303" lon="0.327540"><ele>1496.43</ele><time>2011-09-15T12:38:54Z</time></trkpt><trkpt lat="42.942297" lon="0.327549"><ele>1497.39</ele><time>2011-09-15T12:38:57Z</time></trkpt><trkpt lat="42.942290" lon="0.327579"><ele>1497.39</ele><time>2011-09-15T12:38:58Z</time></trkpt><trkpt lat="42.942267" lon="0.327701"><ele>1496.43</ele><time>2011-09-15T12:39:00Z</time></trkpt><trkpt lat="42.942259" lon="0.327791"><ele>1495.95</ele><time>2011-09-15T12:39:01Z</time></trkpt><trkpt lat="42.942262" lon="0.327895"><ele>1495.47</ele><time>2011-09-15T12:39:02Z</time></trkpt><trkpt lat="42.942277" lon="0.328006"><ele>1494.99</ele><time>2011-09-15T12:39:03Z</time></trkpt><trkpt lat="42.942302" lon="0.328117"><ele>1494.51</ele><time>2011-09-15T12:39:04Z</time></trkpt><trkpt lat="42.942336" lon="0.328227"><ele>1493.55</ele><time>2011-09-15T12:39:05Z</time></trkpt><trkpt lat="42.942375" lon="0.328339"><ele>1493.06</ele><time>2011-09-15T12:39:06Z</time></trkpt><trkpt lat="42.942550" lon="0.329001"><ele>1488.74</ele><time>2011-09-15T12:39:11Z</time></trkpt><trkpt lat="42.942602" lon="0.329131"><ele>1487.78</ele><time>2011-09-15T12:39:12Z</time></trkpt><trkpt lat="42.942666" lon="0.329257"><ele>1486.82</ele><time>2011-09-15T12:39:13Z</time></trkpt><trkpt lat="42.942728" lon="0.329390"><ele>1485.37</ele><time>2011-09-15T12:39:14Z</time></trkpt><trkpt lat="42.942774" lon="0.329535"><ele>1484.41</ele><time>2011-09-15T12:39:15Z</time></trkpt><trkpt lat="42.942803" lon="0.329688"><ele>1482.97</ele><time>2011-09-15T12:39:16Z</time></trkpt><trkpt lat="42.942822" lon="0.329844"><ele>1482.01</ele><time>2011-09-15T12:39:17Z</time></trkpt><trkpt lat="42.942890" lon="0.330905"><ele>1473.84</ele><time>2011-09-15T12:39:24Z</time></trkpt><trkpt lat="42.942925" lon="0.331004"><ele>1472.88</ele><time>2011-09-15T12:39:25Z</time></trkpt><trkpt lat="42.942987" lon="0.331078"><ele>1471.92</ele><time>2011-09-15T12:39:26Z</time></trkpt><trkpt lat="42.943147" lon="0.331229"><ele>1469.51</ele><time>2011-09-15T12:39:28Z</time></trkpt><trkpt lat="42.943213" lon="0.331345"><ele>1468.07</ele><time>2011-09-15T12:39:29Z</time></trkpt><trkpt lat="42.943259" lon="0.331478"><ele>1466.63</ele><time>2011-09-15T12:39:30Z</time></trkpt><trkpt lat="42.943350" lon="0.331735"><ele>1464.23</ele><time>2011-09-15T12:39:32Z</time></trkpt><trkpt lat="42.943418" lon="0.331826"><ele>1463.26</ele><time>2011-09-15T12:39:33Z</time></trkpt><trkpt lat="42.943500" lon="0.331901"><ele>1462.30</ele><time>2011-09-15T12:39:34Z</time></trkpt><trkpt lat="42.943590" lon="0.331956"><ele>1461.82</ele><time>2011-09-15T12:39:35Z</time></trkpt><trkpt lat="42.943675" lon="0.332026"><ele>1460.86</ele><time>2011-09-15T12:39:36Z</time></trkpt><trkpt lat="42.943756" lon="0.332110"><ele>1459.90</ele><time>2011-09-15T12:39:37Z</time></trkpt><trkpt lat="42.943821" lon="0.332216"><ele>1458.46</ele><time>2011-09-15T12:39:38Z</time></trkpt><trkpt lat="42.943831" lon="0.332397"><ele>1456.53</ele><time>2011-09-15T12:39:39Z</time></trkpt><trkpt lat="42.943844" lon="0.332584"><ele>1455.57</ele><time>2011-09-15T12:39:40Z</time></trkpt><trkpt lat="42.943855" lon="0.332769"><ele>1454.13</ele><time>2011-09-15T12:39:41Z</time></trkpt><trkpt lat="42.943759" lon="0.333971"><ele>1448.84</ele><time>2011-09-15T12:39:47Z</time></trkpt><trkpt lat="42.943701" lon="0.334156"><ele>1446.92</ele><time>2011-09-15T12:39:48Z</time></trkpt><trkpt lat="42.943296" lon="0.335641"><ele>1434.42</ele><time>2011-09-15T12:39:56Z</time></trkpt><trkpt lat="42.943291" lon="0.335825"><ele>1432.98</ele><time>2011-09-15T12:39:57Z</time></trkpt><trkpt lat="42.943270" lon="0.336781"><ele>1427.70</ele><time>2011-09-15T12:40:02Z</time></trkpt><trkpt lat="42.943211" lon="0.336942"><ele>1426.25</ele><time>2011-09-15T12:40:03Z</time></trkpt><trkpt lat="42.943126" lon="0.337083"><ele>1425.77</ele><time>2011-09-15T12:40:04Z</time></trkpt><trkpt lat="42.943020" lon="0.337213"><ele>1425.29</ele><time>2011-09-15T12:40:05Z</time></trkpt><trkpt lat="42.942906" lon="0.337340"><ele>1424.81</ele><time>2011-09-15T12:40:06Z</time></trkpt><trkpt lat="42.942551" lon="0.337635"><ele>1421.45</ele><time>2011-09-15T12:40:09Z</time></trkpt><trkpt lat="42.942426" lon="0.337674"><ele>1420.49</ele><time>2011-09-15T12:40:10Z</time></trkpt><trkpt lat="42.942317" lon="0.337723"><ele>1419.52</ele><time>2011-09-15T12:40:11Z</time></trkpt><trkpt lat="42.942241" lon="0.337797"><ele>1418.56</ele><time>2011-09-15T12:40:12Z</time></trkpt><trkpt lat="42.942170" lon="0.337908"><ele>1417.12</ele><time>2011-09-15T12:40:13Z</time></trkpt><trkpt lat="42.942103" lon="0.338056"><ele>1416.64</ele><time>2011-09-15T12:40:14Z</time></trkpt><trkpt lat="42.942042" lon="0.338223"><ele>1414.72</ele><time>2011-09-15T12:40:15Z</time></trkpt><trkpt lat="42.941976" lon="0.338405"><ele>1413.28</ele><time>2011-09-15T12:40:16Z</time></trkpt><trkpt lat="42.941365" lon="0.340634"><ele>1396.45</ele><time>2011-09-15T12:40:27Z</time></trkpt><trkpt lat="42.940928" lon="0.342851"><ele>1381.07</ele><time>2011-09-15T12:40:37Z</time></trkpt><trkpt lat="42.940720" lon="0.343687"><ele>1374.82</ele><time>2011-09-15T12:40:41Z</time></trkpt><trkpt lat="42.940698" lon="0.343883"><ele>1373.86</ele><time>2011-09-15T12:40:42Z</time></trkpt><trkpt lat="42.940691" lon="0.344058"><ele>1372.42</ele><time>2011-09-15T12:40:43Z</time></trkpt><trkpt lat="42.940707" lon="0.344206"><ele>1371.94</ele><time>2011-09-15T12:40:44Z</time></trkpt><trkpt lat="42.940761" lon="0.344328"><ele>1370.98</ele><time>2011-09-15T12:40:45Z</time></trkpt><trkpt lat="42.940826" lon="0.344430"><ele>1370.02</ele><time>2011-09-15T12:40:46Z</time></trkpt><trkpt lat="42.940875" lon="0.344532"><ele>1369.05</ele><time>2011-09-15T12:40:47Z</time></trkpt><trkpt lat="42.940904" lon="0.344641"><ele>1367.61</ele><time>2011-09-15T12:40:48Z</time></trkpt><trkpt lat="42.940906" lon="0.344717"><ele>1366.65</ele><time>2011-09-15T12:40:49Z</time></trkpt><trkpt lat="42.940837" lon="0.344729"><ele>1365.69</ele><time>2011-09-15T12:40:50Z</time></trkpt><trkpt lat="42.940763" lon="0.344693"><ele>1364.73</ele><time>2011-09-15T12:40:51Z</time></trkpt><trkpt lat="42.940656" lon="0.344602"><ele>1364.25</ele><time>2011-09-15T12:40:52Z</time></trkpt><trkpt lat="42.940584" lon="0.344456"><ele>1363.77</ele><time>2011-09-15T12:40:53Z</time></trkpt><trkpt lat="42.940532" lon="0.344302"><ele>1363.29</ele><time>2011-09-15T12:40:54Z</time></trkpt><trkpt lat="42.940485" lon="0.344151"><ele>1362.81</ele><time>2011-09-15T12:40:55Z</time></trkpt><trkpt lat="42.940404" lon="0.343847"><ele>1361.36</ele><time>2011-09-15T12:40:57Z</time></trkpt><trkpt lat="42.940381" lon="0.343679"><ele>1360.40</ele><time>2011-09-15T12:40:58Z</time></trkpt><trkpt lat="42.940374" lon="0.343500"><ele>1359.44</ele><time>2011-09-15T12:40:59Z</time></trkpt><trkpt lat="42.940380" lon="0.343313"><ele>1358.48</ele><time>2011-09-15T12:41:00Z</time></trkpt><trkpt lat="42.940396" lon="0.343119"><ele>1357.04</ele><time>2011-09-15T12:41:01Z</time></trkpt><trkpt lat="42.940598" lon="0.341417"><ele>1346.46</ele><time>2011-09-15T12:41:10Z</time></trkpt><trkpt lat="42.940584" lon="0.341270"><ele>1345.50</ele><time>2011-09-15T12:41:11Z</time></trkpt><trkpt lat="42.940539" lon="0.341145"><ele>1344.06</ele><time>2011-09-15T12:41:12Z</time></trkpt><trkpt lat="42.940465" lon="0.341050"><ele>1343.10</ele><time>2011-09-15T12:41:13Z</time></trkpt><trkpt lat="42.940377" lon="0.340974"><ele>1342.14</ele><time>2011-09-15T12:41:14Z</time></trkpt><trkpt lat="42.940294" lon="0.340887"><ele>1341.18</ele><time>2011-09-15T12:41:15Z</time></trkpt><trkpt lat="42.940226" lon="0.340770"><ele>1340.22</ele><time>2011-09-15T12:41:16Z</time></trkpt><trkpt lat="42.940177" lon="0.340626"><ele>1339.25</ele><time>2011-09-15T12:41:17Z</time></trkpt><trkpt lat="42.940143" lon="0.340459"><ele>1338.29</ele><time>2011-09-15T12:41:18Z</time></trkpt><trkpt lat="42.940119" lon="0.340275"><ele>1337.33</ele><time>2011-09-15T12:41:19Z</time></trkpt><trkpt lat="42.940102" lon="0.340079"><ele>1336.37</ele><time>2011-09-15T12:41:20Z</time></trkpt><trkpt lat="42.940213" lon="0.338098"><ele>1323.39</ele><time>2011-09-15T12:41:30Z</time></trkpt><trkpt lat="42.940299" lon="0.337575"><ele>1319.55</ele><time>2011-09-15T12:41:33Z</time></trkpt><trkpt lat="42.940348" lon="0.337420"><ele>1318.59</ele><time>2011-09-15T12:41:34Z</time></trkpt><trkpt lat="42.940416" lon="0.337277"><ele>1317.14</ele><time>2011-09-15T12:41:35Z</time></trkpt><trkpt lat="42.940502" lon="0.337139"><ele>1316.18</ele><time>2011-09-15T12:41:36Z</time></trkpt><trkpt lat="42.940600" lon="0.337000"><ele>1314.74</ele><time>2011-09-15T12:41:37Z</time></trkpt><trkpt lat="42.941091" lon="0.336117"><ele>1306.09</ele><time>2011-09-15T12:41:43Z</time></trkpt><trkpt lat="42.941173" lon="0.336031"><ele>1304.17</ele><time>2011-09-15T12:41:44Z</time></trkpt><trkpt lat="42.941268" lon="0.335962"><ele>1302.72</ele><time>2011-09-15T12:41:45Z</time></trkpt><trkpt lat="42.941355" lon="0.335876"><ele>1300.80</ele><time>2011-09-15T12:41:46Z</time></trkpt><trkpt lat="42.941427" lon="0.335770"><ele>1298.88</ele><time>2011-09-15T12:41:47Z</time></trkpt><trkpt lat="42.941478" lon="0.335646"><ele>1296.96</ele><time>2011-09-15T12:41:48Z</time></trkpt><trkpt lat="42.941502" lon="0.335517"><ele>1295.03</ele><time>2011-09-15T12:41:49Z</time></trkpt><trkpt lat="42.941491" lon="0.335401"><ele>1294.07</ele><time>2011-09-15T12:41:50Z</time></trkpt><trkpt lat="42.941388" lon="0.335337"><ele>1293.59</ele><time>2011-09-15T12:41:51Z</time></trkpt><trkpt lat="42.941285" lon="0.335319"><ele>1292.15</ele><time>2011-09-15T12:41:52Z</time></trkpt><trkpt lat="42.941168" lon="0.335387"><ele>1287.82</ele><time>2011-09-15T12:41:53Z</time></trkpt><trkpt lat="42.941100" lon="0.335484"><ele>1287.34</ele><time>2011-09-15T12:41:54Z</time></trkpt><trkpt lat="42.941048" lon="0.335625"><ele>1287.82</ele><time>2011-09-15T12:41:55Z</time></trkpt><trkpt lat="42.940991" lon="0.335784"><ele>1287.34</ele><time>2011-09-15T12:41:56Z</time></trkpt><trkpt lat="42.940919" lon="0.335946"><ele>1286.38</ele><time>2011-09-15T12:41:57Z</time></trkpt><trkpt lat="42.940835" lon="0.336108"><ele>1284.94</ele><time>2011-09-15T12:41:58Z</time></trkpt><trkpt lat="42.940741" lon="0.336258"><ele>1283.50</ele><time>2011-09-15T12:41:59Z</time></trkpt><trkpt lat="42.940637" lon="0.336393"><ele>1281.57</ele><time>2011-09-15T12:42:00Z</time></trkpt><trkpt lat="42.939684" lon="0.337201"><ele>1271.00</ele><time>2011-09-15T12:42:08Z</time></trkpt><trkpt lat="42.939588" lon="0.337304"><ele>1270.04</ele><time>2011-09-15T12:42:09Z</time></trkpt><trkpt lat="42.939506" lon="0.337452"><ele>1268.60</ele><time>2011-09-15T12:42:10Z</time></trkpt><trkpt lat="42.939437" lon="0.337629"><ele>1267.16</ele><time>2011-09-15T12:42:11Z</time></trkpt><trkpt lat="42.939368" lon="0.337824"><ele>1265.71</ele><time>2011-09-15T12:42:12Z</time></trkpt><trkpt lat="42.938512" lon="0.339389"><ele>1260.91</ele><time>2011-09-15T12:42:21Z</time></trkpt><trkpt lat="42.938022" lon="0.340144"><ele>1256.10</ele><time>2011-09-15T12:42:26Z</time></trkpt><trkpt lat="42.937959" lon="0.340319"><ele>1254.66</ele><time>2011-09-15T12:42:27Z</time></trkpt><trkpt lat="42.937917" lon="0.340501"><ele>1253.70</ele><time>2011-09-15T12:42:28Z</time></trkpt><trkpt lat="42.937900" lon="0.340677"><ele>1253.22</ele><time>2011-09-15T12:42:29Z</time></trkpt><trkpt lat="42.937915" lon="0.340836"><ele>1252.25</ele><time>2011-09-15T12:42:30Z</time></trkpt><trkpt lat="42.937962" lon="0.340967"><ele>1251.77</ele><time>2011-09-15T12:42:31Z</time></trkpt><trkpt lat="42.938052" lon="0.341052"><ele>1251.29</ele><time>2011-09-15T12:42:32Z</time></trkpt><trkpt lat="42.938158" lon="0.341118"><ele>1250.81</ele><time>2011-09-15T12:42:33Z</time></trkpt><trkpt lat="42.938267" lon="0.341179"><ele>1249.37</ele><time>2011-09-15T12:42:34Z</time></trkpt><trkpt lat="42.938354" lon="0.341271"><ele>1248.41</ele><time>2011-09-15T12:42:35Z</time></trkpt><trkpt lat="42.938415" lon="0.341398"><ele>1247.45</ele><time>2011-09-15T12:42:36Z</time></trkpt><trkpt lat="42.938466" lon="0.341537"><ele>1247.45</ele><time>2011-09-15T12:42:37Z</time></trkpt><trkpt lat="42.938526" lon="0.341669"><ele>1246.49</ele><time>2011-09-15T12:42:38Z</time></trkpt><trkpt lat="42.938571" lon="0.341806"><ele>1245.53</ele><time>2011-09-15T12:42:39Z</time></trkpt><trkpt lat="42.938582" lon="0.341950"><ele>1244.56</ele><time>2011-09-15T12:42:40Z</time></trkpt><trkpt lat="42.938545" lon="0.342103"><ele>1244.56</ele><time>2011-09-15T12:42:41Z</time></trkpt><trkpt lat="42.938476" lon="0.342257"><ele>1244.08</ele><time>2011-09-15T12:42:42Z</time></trkpt><trkpt lat="42.938387" lon="0.342408"><ele>1243.12</ele><time>2011-09-15T12:42:43Z</time></trkpt><trkpt lat="42.938284" lon="0.342553"><ele>1242.16</ele><time>2011-09-15T12:42:44Z</time></trkpt><trkpt lat="42.938171" lon="0.342690"><ele>1241.68</ele><time>2011-09-15T12:42:45Z</time></trkpt><trkpt lat="42.938050" lon="0.342821"><ele>1241.20</ele><time>2011-09-15T12:42:46Z</time></trkpt><trkpt lat="42.936697" lon="0.344184"><ele>1227.74</ele><time>2011-09-15T12:42:57Z</time></trkpt><trkpt lat="42.935436" lon="0.345454"><ele>1212.84</ele><time>2011-09-15T12:43:07Z</time></trkpt><trkpt lat="42.933850" lon="0.346466"><ele>1197.46</ele><time>2011-09-15T12:43:18Z</time></trkpt><trkpt lat="42.932177" lon="0.347288"><ele>1181.12</ele><time>2011-09-15T12:43:29Z</time></trkpt><trkpt lat="42.931123" lon="0.348258"><ele>1167.66</ele><time>2011-09-15T12:43:37Z</time></trkpt><trkpt lat="42.929051" lon="0.350375"><ele>1141.22</ele><time>2011-09-15T12:43:53Z</time></trkpt><trkpt lat="42.927745" lon="0.351250"><ele>1126.32</ele><time>2011-09-15T12:44:02Z</time></trkpt><trkpt lat="42.927015" lon="0.351335"><ele>1119.59</ele><time>2011-09-15T12:44:07Z</time></trkpt><trkpt lat="42.926902" lon="0.351365"><ele>1118.15</ele><time>2011-09-15T12:44:08Z</time></trkpt><trkpt lat="42.926803" lon="0.351448"><ele>1116.71</ele><time>2011-09-15T12:44:09Z</time></trkpt><trkpt lat="42.926707" lon="0.351569"><ele>1115.75</ele><time>2011-09-15T12:44:10Z</time></trkpt><trkpt lat="42.926611" lon="0.351715"><ele>1114.31</ele><time>2011-09-15T12:44:11Z</time></trkpt><trkpt lat="42.926512" lon="0.351875"><ele>1112.86</ele><time>2011-09-15T12:44:12Z</time></trkpt><trkpt lat="42.925336" lon="0.353557"><ele>1097.00</ele><time>2011-09-15T12:44:23Z</time></trkpt><trkpt lat="42.925268" lon="0.353704"><ele>1096.04</ele><time>2011-09-15T12:44:24Z</time></trkpt><trkpt lat="42.925226" lon="0.353857"><ele>1095.08</ele><time>2011-09-15T12:44:25Z</time></trkpt><trkpt lat="42.925202" lon="0.354005"><ele>1094.60</ele><time>2011-09-15T12:44:26Z</time></trkpt><trkpt lat="42.925176" lon="0.354131"><ele>1093.64</ele><time>2011-09-15T12:44:27Z</time></trkpt><trkpt lat="42.925131" lon="0.354201"><ele>1093.16</ele><time>2011-09-15T12:44:28Z</time></trkpt><trkpt lat="42.925066" lon="0.354208"><ele>1092.20</ele><time>2011-09-15T12:44:29Z</time></trkpt><trkpt lat="42.925002" lon="0.354156"><ele>1091.71</ele><time>2011-09-15T12:44:30Z</time></trkpt><trkpt lat="42.924967" lon="0.354058"><ele>1091.23</ele><time>2011-09-15T12:44:31Z</time></trkpt><trkpt lat="42.924958" lon="0.353956"><ele>1090.75</ele><time>2011-09-15T12:44:32Z</time></trkpt><trkpt lat="42.924981" lon="0.353845"><ele>1090.27</ele><time>2011-09-15T12:44:33Z</time></trkpt><trkpt lat="42.925019" lon="0.353718"><ele>1089.31</ele><time>2011-09-15T12:44:34Z</time></trkpt><trkpt lat="42.925067" lon="0.353573"><ele>1088.83</ele><time>2011-09-15T12:44:35Z</time></trkpt><trkpt lat="42.925460" lon="0.352024"><ele>1081.14</ele><time>2011-09-15T12:44:44Z</time></trkpt><trkpt lat="42.926027" lon="0.350554"><ele>1072.01</ele><time>2011-09-15T12:44:52Z</time></trkpt><trkpt lat="42.927071" lon="0.348769"><ele>1057.59</ele><time>2011-09-15T12:45:03Z</time></trkpt><trkpt lat="42.927937" lon="0.347569"><ele>1048.45</ele><time>2011-09-15T12:45:11Z</time></trkpt><trkpt lat="42.928006" lon="0.347401"><ele>1047.49</ele><time>2011-09-15T12:45:12Z</time></trkpt><trkpt lat="42.928053" lon="0.347220"><ele>1046.53</ele><time>2011-09-15T12:45:13Z</time></trkpt><trkpt lat="42.928067" lon="0.347031"><ele>1045.57</ele><time>2011-09-15T12:45:14Z</time></trkpt><trkpt lat="42.928049" lon="0.346841"><ele>1044.61</ele><time>2011-09-15T12:45:15Z</time></trkpt><trkpt lat="42.928037" lon="0.346648"><ele>1043.65</ele><time>2011-09-15T12:45:16Z</time></trkpt><trkpt lat="42.928054" lon="0.345907"><ele>1039.32</ele><time>2011-09-15T12:45:20Z</time></trkpt><trkpt lat="42.928095" lon="0.345741"><ele>1038.36</ele><time>2011-09-15T12:45:21Z</time></trkpt><trkpt lat="42.928215" lon="0.345344"><ele>1035.96</ele><time>2011-09-15T12:45:24Z</time></trkpt><trkpt lat="42.928224" lon="0.345234"><ele>1035.00</ele><time>2011-09-15T12:45:25Z</time></trkpt><trkpt lat="42.928205" lon="0.345127"><ele>1034.52</ele><time>2011-09-15T12:45:26Z</time></trkpt><trkpt lat="42.928141" lon="0.345024"><ele>1034.04</ele><time>2011-09-15T12:45:27Z</time></trkpt><trkpt lat="42.928014" lon="0.344921"><ele>1032.59</ele><time>2011-09-15T12:45:28Z</time></trkpt><trkpt lat="42.927895" lon="0.344812"><ele>1031.63</ele><time>2011-09-15T12:45:29Z</time></trkpt><trkpt lat="42.927778" lon="0.344705"><ele>1030.67</ele><time>2011-09-15T12:45:30Z</time></trkpt><trkpt lat="42.927414" lon="0.344383"><ele>1028.27</ele><time>2011-09-15T12:45:34Z</time></trkpt><trkpt lat="42.927320" lon="0.344348"><ele>1027.79</ele><time>2011-09-15T12:45:35Z</time></trkpt><trkpt lat="42.927215" lon="0.344335"><ele>1026.83</ele><time>2011-09-15T12:45:36Z</time></trkpt><trkpt lat="42.927106" lon="0.344344"><ele>1026.34</ele><time>2011-09-15T12:45:37Z</time></trkpt><trkpt lat="42.926998" lon="0.344383"><ele>1025.38</ele><time>2011-09-15T12:45:38Z</time></trkpt><trkpt lat="42.926891" lon="0.344450"><ele>1024.90</ele><time>2011-09-15T12:45:39Z</time></trkpt><trkpt lat="42.926784" lon="0.344536"><ele>1023.94</ele><time>2011-09-15T12:45:40Z</time></trkpt><trkpt lat="42.926681" lon="0.344636"><ele>1022.98</ele><time>2011-09-15T12:45:41Z</time></trkpt><trkpt lat="42.926585" lon="0.344746"><ele>1022.50</ele><time>2011-09-15T12:45:42Z</time></trkpt><trkpt lat="42.926500" lon="0.344867"><ele>1021.06</ele><time>2011-09-15T12:45:43Z</time></trkpt><trkpt lat="42.926430" lon="0.344998"><ele>1019.62</ele><time>2011-09-15T12:45:44Z</time></trkpt><trkpt lat="42.926374" lon="0.345138"><ele>1018.17</ele><time>2011-09-15T12:45:45Z</time></trkpt><trkpt lat="42.926332" lon="0.345284"><ele>1017.21</ele><time>2011-09-15T12:45:46Z</time></trkpt><trkpt lat="42.926303" lon="0.345434"><ele>1016.25</ele><time>2011-09-15T12:45:47Z</time></trkpt><trkpt lat="42.926295" lon="0.345583"><ele>1015.29</ele><time>2011-09-15T12:45:48Z</time></trkpt><trkpt lat="42.926318" lon="0.345728"><ele>1013.85</ele><time>2011-09-15T12:45:49Z</time></trkpt><trkpt lat="42.926359" lon="0.345871"><ele>1012.41</ele><time>2011-09-15T12:45:50Z</time></trkpt><trkpt lat="42.926419" lon="0.346001"><ele>1011.93</ele><time>2011-09-15T12:45:51Z</time></trkpt><trkpt lat="42.926496" lon="0.346110"><ele>1010.96</ele><time>2011-09-15T12:45:52Z</time></trkpt><trkpt lat="42.926583" lon="0.346195"><ele>1010.00</ele><time>2011-09-15T12:45:53Z</time></trkpt><trkpt lat="42.926677" lon="0.346266"><ele>1009.04</ele><time>2011-09-15T12:45:54Z</time></trkpt><trkpt lat="42.926771" lon="0.346336"><ele>1008.56</ele><time>2011-09-15T12:45:55Z</time></trkpt><trkpt lat="42.926860" lon="0.346415"><ele>1007.12</ele><time>2011-09-15T12:45:56Z</time></trkpt><trkpt lat="42.926942" lon="0.346509"><ele>1006.64</ele><time>2011-09-15T12:45:57Z</time></trkpt><trkpt lat="42.927000" lon="0.346634"><ele>1006.16</ele><time>2011-09-15T12:45:58Z</time></trkpt><trkpt lat="42.927042" lon="0.346762"><ele>1005.20</ele><time>2011-09-15T12:45:59Z</time></trkpt><trkpt lat="42.927058" lon="0.346895"><ele>1004.23</ele><time>2011-09-15T12:46:00Z</time></trkpt><trkpt lat="42.927039" lon="0.347020"><ele>1003.75</ele><time>2011-09-15T12:46:01Z</time></trkpt><trkpt lat="42.926967" lon="0.347109"><ele>1002.79</ele><time>2011-09-15T12:46:02Z</time></trkpt><trkpt lat="42.926874" lon="0.347166"><ele>1002.31</ele><time>2011-09-15T12:46:03Z</time></trkpt><trkpt lat="42.926777" lon="0.347195"><ele>1001.83</ele><time>2011-09-15T12:46:04Z</time></trkpt><trkpt lat="42.926692" lon="0.347230"><ele>1001.35</ele><time>2011-09-15T12:46:05Z</time></trkpt><trkpt lat="42.925814" lon="0.347716"><ele>997.51</ele><time>2011-09-15T12:46:15Z</time></trkpt><trkpt lat="42.924970" lon="0.348629"><ele>989.81</ele><time>2011-09-15T12:46:24Z</time></trkpt><trkpt lat="42.924169" lon="0.349689"><ele>983.09</ele><time>2011-09-15T12:46:34Z</time></trkpt><trkpt lat="42.923228" lon="0.350539"><ele>975.88</ele><time>2011-09-15T12:46:46Z</time></trkpt><trkpt lat="42.922657" lon="0.351335"><ele>970.11</ele><time>2011-09-15T12:46:54Z</time></trkpt><trkpt lat="42.922638" lon="0.351442"><ele>969.63</ele><time>2011-09-15T12:46:55Z</time></trkpt><trkpt lat="42.922642" lon="0.351550"><ele>969.63</ele><time>2011-09-15T12:46:56Z</time></trkpt><trkpt lat="42.922670" lon="0.351760"><ele>968.18</ele><time>2011-09-15T12:46:58Z</time></trkpt><trkpt lat="42.922643" lon="0.351863"><ele>967.70</ele><time>2011-09-15T12:46:59Z</time></trkpt><trkpt lat="42.922581" lon="0.351973"><ele>966.74</ele><time>2011-09-15T12:47:00Z</time></trkpt><trkpt lat="42.922496" lon="0.352092"><ele>965.78</ele><time>2011-09-15T12:47:01Z</time></trkpt><trkpt lat="42.922403" lon="0.352216"><ele>964.82</ele><time>2011-09-15T12:47:02Z</time></trkpt><trkpt lat="42.921330" lon="0.353323"><ele>955.69</ele><time>2011-09-15T12:47:12Z</time></trkpt><trkpt lat="42.920787" lon="0.353763"><ele>950.88</ele><time>2011-09-15T12:47:17Z</time></trkpt><trkpt lat="42.920695" lon="0.353875"><ele>949.92</ele><time>2011-09-15T12:47:18Z</time></trkpt><trkpt lat="42.920610" lon="0.353995"><ele>948.96</ele><time>2011-09-15T12:47:19Z</time></trkpt><trkpt lat="42.920537" lon="0.354122"><ele>948.00</ele><time>2011-09-15T12:47:20Z</time></trkpt><trkpt lat="42.920481" lon="0.354251"><ele>947.52</ele><time>2011-09-15T12:47:21Z</time></trkpt><trkpt lat="42.920445" lon="0.354381"><ele>946.56</ele><time>2011-09-15T12:47:22Z</time></trkpt><trkpt lat="42.920432" lon="0.354514"><ele>946.07</ele><time>2011-09-15T12:47:23Z</time></trkpt><trkpt lat="42.920447" lon="0.354645"><ele>945.59</ele><time>2011-09-15T12:47:24Z</time></trkpt><trkpt lat="42.920490" lon="0.354770"><ele>945.11</ele><time>2011-09-15T12:47:25Z</time></trkpt><trkpt lat="42.920551" lon="0.354886"><ele>944.63</ele><time>2011-09-15T12:47:26Z</time></trkpt><trkpt lat="42.920621" lon="0.354992"><ele>944.15</ele><time>2011-09-15T12:47:27Z</time></trkpt><trkpt lat="42.920692" lon="0.355091"><ele>943.67</ele><time>2011-09-15T12:47:28Z</time></trkpt><trkpt lat="42.920819" lon="0.355281"><ele>942.23</ele><time>2011-09-15T12:47:30Z</time></trkpt><trkpt lat="42.920855" lon="0.355384"><ele>941.75</ele><time>2011-09-15T12:47:31Z</time></trkpt><trkpt lat="42.920867" lon="0.355488"><ele>940.79</ele><time>2011-09-15T12:47:32Z</time></trkpt><trkpt lat="42.920856" lon="0.355577"><ele>940.31</ele><time>2011-09-15T12:47:33Z</time></trkpt><trkpt lat="42.920814" lon="0.355644"><ele>939.83</ele><time>2011-09-15T12:47:34Z</time></trkpt><trkpt lat="42.920744" lon="0.355688"><ele>939.83</ele><time>2011-09-15T12:47:35Z</time></trkpt><trkpt lat="42.920670" lon="0.355725"><ele>938.86</ele><time>2011-09-15T12:47:36Z</time></trkpt><trkpt lat="42.920596" lon="0.355764"><ele>938.86</ele><time>2011-09-15T12:47:37Z</time></trkpt><trkpt lat="42.919984" lon="0.356147"><ele>934.54</ele><time>2011-09-15T12:47:44Z</time></trkpt><trkpt lat="42.919907" lon="0.356222"><ele>933.58</ele><time>2011-09-15T12:47:45Z</time></trkpt><trkpt lat="42.919840" lon="0.356314"><ele>933.10</ele><time>2011-09-15T12:47:46Z</time></trkpt><trkpt lat="42.919788" lon="0.356422"><ele>932.14</ele><time>2011-09-15T12:47:47Z</time></trkpt><trkpt lat="42.919753" lon="0.356539"><ele>931.65</ele><time>2011-09-15T12:47:48Z</time></trkpt><trkpt lat="42.919736" lon="0.356659"><ele>931.17</ele><time>2011-09-15T12:47:49Z</time></trkpt><trkpt lat="42.919736" lon="0.356780"><ele>931.17</ele><time>2011-09-15T12:47:50Z</time></trkpt><trkpt lat="42.919753" lon="0.356903"><ele>930.69</ele><time>2011-09-15T12:47:51Z</time></trkpt><trkpt lat="42.919788" lon="0.357026"><ele>930.69</ele><time>2011-09-15T12:47:52Z</time></trkpt><trkpt lat="42.919838" lon="0.357151"><ele>930.21</ele><time>2011-09-15T12:47:53Z</time></trkpt><trkpt lat="42.919902" lon="0.357272"><ele>929.73</ele><time>2011-09-15T12:47:54Z</time></trkpt><trkpt lat="42.919974" lon="0.357387"><ele>929.25</ele><time>2011-09-15T12:47:55Z</time></trkpt><trkpt lat="42.920053" lon="0.357493"><ele>928.77</ele><time>2011-09-15T12:47:56Z</time></trkpt><trkpt lat="42.920134" lon="0.357591"><ele>928.29</ele><time>2011-09-15T12:47:57Z</time></trkpt><trkpt lat="42.921144" lon="0.358431"><ele>922.04</ele><time>2011-09-15T12:48:08Z</time></trkpt><trkpt lat="42.921362" lon="0.358556"><ele>921.08</ele><time>2011-09-15T12:48:10Z</time></trkpt><trkpt lat="42.921499" lon="0.358607"><ele>920.60</ele><time>2011-09-15T12:48:11Z</time></trkpt><trkpt lat="42.921654" lon="0.358647"><ele>920.12</ele><time>2011-09-15T12:48:12Z</time></trkpt><trkpt lat="42.923173" lon="0.359089"><ele>916.75</ele><time>2011-09-15T12:48:22Z</time></trkpt><trkpt lat="42.923968" lon="0.359273"><ele>911.95</ele><time>2011-09-15T12:48:28Z</time></trkpt><trkpt lat="42.924013" lon="0.359347"><ele>910.99</ele><time>2011-09-15T12:48:29Z</time></trkpt><trkpt lat="42.924032" lon="0.359447"><ele>908.58</ele><time>2011-09-15T12:48:30Z</time></trkpt><trkpt lat="42.924034" lon="0.359580"><ele>906.66</ele><time>2011-09-15T12:48:31Z</time></trkpt><trkpt lat="42.924025" lon="0.359731"><ele>905.70</ele><time>2011-09-15T12:48:32Z</time></trkpt><trkpt lat="42.924027" lon="0.359868"><ele>904.26</ele><time>2011-09-15T12:48:33Z</time></trkpt><trkpt lat="42.924047" lon="0.359996"><ele>904.74</ele><time>2011-09-15T12:48:34Z</time></trkpt><trkpt lat="42.924091" lon="0.360099"><ele>903.78</ele><time>2011-09-15T12:48:35Z</time></trkpt><trkpt lat="42.924128" lon="0.360196"><ele>902.82</ele><time>2011-09-15T12:48:36Z</time></trkpt><trkpt lat="42.924118" lon="0.360284"><ele>902.33</ele><time>2011-09-15T12:48:37Z</time></trkpt><trkpt lat="42.924069" lon="0.360324"><ele>901.85</ele><time>2011-09-15T12:48:38Z</time></trkpt><trkpt lat="42.923993" lon="0.360297"><ele>901.37</ele><time>2011-09-15T12:48:39Z</time></trkpt><trkpt lat="42.923932" lon="0.360227"><ele>900.41</ele><time>2011-09-15T12:48:40Z</time></trkpt><trkpt lat="42.923894" lon="0.360122"><ele>899.45</ele><time>2011-09-15T12:48:41Z</time></trkpt><trkpt lat="42.923883" lon="0.359979"><ele>898.49</ele><time>2011-09-15T12:48:42Z</time></trkpt><trkpt lat="42.923896" lon="0.359817"><ele>897.53</ele><time>2011-09-15T12:48:43Z</time></trkpt><trkpt lat="42.923899" lon="0.359667"><ele>896.57</ele><time>2011-09-15T12:48:44Z</time></trkpt><trkpt lat="42.923893" lon="0.359533"><ele>895.61</ele><time>2011-09-15T12:48:45Z</time></trkpt><trkpt lat="42.923871" lon="0.359421"><ele>894.16</ele><time>2011-09-15T12:48:46Z</time></trkpt><trkpt lat="42.923813" lon="0.359346"><ele>892.72</ele><time>2011-09-15T12:48:47Z</time></trkpt><trkpt lat="42.923719" lon="0.359316"><ele>891.28</ele><time>2011-09-15T12:48:48Z</time></trkpt><trkpt lat="42.923583" lon="0.359299"><ele>890.32</ele><time>2011-09-15T12:48:49Z</time></trkpt><trkpt lat="42.923424" lon="0.359322"><ele>888.88</ele><time>2011-09-15T12:48:50Z</time></trkpt><trkpt lat="42.923270" lon="0.359352"><ele>887.91</ele><time>2011-09-15T12:48:51Z</time></trkpt><trkpt lat="42.923130" lon="0.359371"><ele>886.95</ele><time>2011-09-15T12:48:52Z</time></trkpt><trkpt lat="42.922060" lon="0.359280"><ele>877.82</ele><time>2011-09-15T12:49:00Z</time></trkpt><trkpt lat="42.921941" lon="0.359297"><ele>876.38</ele><time>2011-09-15T12:49:01Z</time></trkpt><trkpt lat="42.921814" lon="0.359334"><ele>875.42</ele><time>2011-09-15T12:49:02Z</time></trkpt><trkpt lat="42.921295" lon="0.359475"><ele>870.61</ele><time>2011-09-15T12:49:06Z</time></trkpt><trkpt lat="42.921168" lon="0.359478"><ele>869.17</ele><time>2011-09-15T12:49:07Z</time></trkpt><trkpt lat="42.921042" lon="0.359460"><ele>867.73</ele><time>2011-09-15T12:49:08Z</time></trkpt><trkpt lat="42.920918" lon="0.359415"><ele>867.25</ele><time>2011-09-15T12:49:09Z</time></trkpt><trkpt lat="42.920807" lon="0.359336"><ele>866.77</ele><time>2011-09-15T12:49:10Z</time></trkpt><trkpt lat="42.920680" lon="0.359263"><ele>866.77</ele><time>2011-09-15T12:49:11Z</time></trkpt><trkpt lat="42.920542" lon="0.359205"><ele>866.77</ele><time>2011-09-15T12:49:12Z</time></trkpt><trkpt lat="42.920396" lon="0.359156"><ele>866.29</ele><time>2011-09-15T12:49:13Z</time></trkpt><trkpt lat="42.919155" lon="0.358568"><ele>859.56</ele><time>2011-09-15T12:49:22Z</time></trkpt><trkpt lat="42.918430" lon="0.357964"><ele>858.11</ele><time>2011-09-15T12:49:28Z</time></trkpt><trkpt lat="42.918336" lon="0.357834"><ele>857.63</ele><time>2011-09-15T12:49:29Z</time></trkpt><trkpt lat="42.918248" lon="0.357691"><ele>856.67</ele><time>2011-09-15T12:49:30Z</time></trkpt><trkpt lat="42.918168" lon="0.357538"><ele>855.71</ele><time>2011-09-15T12:49:31Z</time></trkpt><trkpt lat="42.918102" lon="0.357380"><ele>855.23</ele><time>2011-09-15T12:49:32Z</time></trkpt><trkpt lat="42.918055" lon="0.357220"><ele>854.27</ele><time>2011-09-15T12:49:33Z</time></trkpt><trkpt lat="42.918036" lon="0.357058"><ele>853.79</ele><time>2011-09-15T12:49:34Z</time></trkpt><trkpt lat="42.918048" lon="0.356896"><ele>853.31</ele><time>2011-09-15T12:49:35Z</time></trkpt><trkpt lat="42.918084" lon="0.356733"><ele>852.35</ele><time>2011-09-15T12:49:36Z</time></trkpt><trkpt lat="42.918127" lon="0.356560"><ele>851.87</ele><time>2011-09-15T12:49:37Z</time></trkpt><trkpt lat="42.918470" lon="0.355062"><ele>844.18</ele><time>2011-09-15T12:49:45Z</time></trkpt></trkseg></trk><trk><name>ACTIVE LOG: 15 SEP 2011 14:49</name><trkseg><trkpt lat="42.918510" lon="0.354905"><ele>843.21</ele><time>2011-09-15T12:49:46Z</time></trkpt><trkpt lat="42.918528" lon="0.354718"><ele>841.77</ele><time>2011-09-15T12:49:47Z</time></trkpt><trkpt lat="42.918528" lon="0.354517"><ele>841.29</ele><time>2011-09-15T12:49:48Z</time></trkpt><trkpt lat="42.918510" lon="0.354310"><ele>840.33</ele><time>2011-09-15T12:49:49Z</time></trkpt><trkpt lat="42.918486" lon="0.354104"><ele>839.37</ele><time>2011-09-15T12:49:50Z</time></trkpt><trkpt lat="42.918368" lon="0.352212"><ele>827.83</ele><time>2011-09-15T12:50:00Z</time></trkpt><trkpt lat="42.918400" lon="0.352040"><ele>826.39</ele><time>2011-09-15T12:50:01Z</time></trkpt><trkpt lat="42.918449" lon="0.351857"><ele>824.95</ele><time>2011-09-15T12:50:02Z</time></trkpt><trkpt lat="42.918881" lon="0.350211"><ele>813.41</ele><time>2011-09-15T12:50:10Z</time></trkpt><trkpt lat="42.918962" lon="0.349885"><ele>811.01</ele><time>2011-09-15T12:50:12Z</time></trkpt><trkpt lat="42.919027" lon="0.349746"><ele>810.05</ele><time>2011-09-15T12:50:13Z</time></trkpt><trkpt lat="42.919118" lon="0.349657"><ele>808.61</ele><time>2011-09-15T12:50:14Z</time></trkpt><trkpt lat="42.919221" lon="0.349613"><ele>807.16</ele><time>2011-09-15T12:50:15Z</time></trkpt><trkpt lat="42.919327" lon="0.349579"><ele>806.20</ele><time>2011-09-15T12:50:16Z</time></trkpt><trkpt lat="42.919420" lon="0.349560"><ele>804.76</ele><time>2011-09-15T12:50:17Z</time></trkpt><trkpt lat="42.919513" lon="0.349514"><ele>803.32</ele><time>2011-09-15T12:50:18Z</time></trkpt><trkpt lat="42.919557" lon="0.349393"><ele>801.88</ele><time>2011-09-15T12:50:19Z</time></trkpt><trkpt lat="42.919585" lon="0.349252"><ele>800.92</ele><time>2011-09-15T12:50:20Z</time></trkpt><trkpt lat="42.919586" lon="0.349098"><ele>799.95</ele><time>2011-09-15T12:50:21Z</time></trkpt><trkpt lat="42.919567" lon="0.348932"><ele>799.47</ele><time>2011-09-15T12:50:22Z</time></trkpt><trkpt lat="42.919524" lon="0.348764"><ele>798.03</ele><time>2011-09-15T12:50:23Z</time></trkpt><trkpt lat="42.919462" lon="0.348603"><ele>796.59</ele><time>2011-09-15T12:50:24Z</time></trkpt><trkpt lat="42.919398" lon="0.348454"><ele>795.63</ele><time>2011-09-15T12:50:25Z</time></trkpt><trkpt lat="42.919306" lon="0.348187"><ele>793.71</ele><time>2011-09-15T12:50:27Z</time></trkpt><trkpt lat="42.919291" lon="0.348058"><ele>792.74</ele><time>2011-09-15T12:50:28Z</time></trkpt><trkpt lat="42.919306" lon="0.347927"><ele>791.78</ele><time>2011-09-15T12:50:29Z</time></trkpt><trkpt lat="42.919343" lon="0.347797"><ele>790.82</ele><time>2011-09-15T12:50:30Z</time></trkpt><trkpt lat="42.919403" lon="0.347674"><ele>789.86</ele><time>2011-09-15T12:50:31Z</time></trkpt><trkpt lat="42.919486" lon="0.347558"><ele>788.90</ele><time>2011-09-15T12:50:32Z</time></trkpt><trkpt lat="42.919588" lon="0.347446"><ele>787.94</ele><time>2011-09-15T12:50:33Z</time></trkpt><trkpt lat="42.919694" lon="0.347339"><ele>786.98</ele><time>2011-09-15T12:50:34Z</time></trkpt><trkpt lat="42.920169" lon="0.346845"><ele>780.25</ele><time>2011-09-15T12:50:39Z</time></trkpt><trkpt lat="42.920221" lon="0.346731"><ele>778.81</ele><time>2011-09-15T12:50:40Z</time></trkpt><trkpt lat="42.920236" lon="0.346598"><ele>777.36</ele><time>2011-09-15T12:50:41Z</time></trkpt><trkpt lat="42.920253" lon="0.346448"><ele>775.92</ele><time>2011-09-15T12:50:42Z</time></trkpt><trkpt lat="42.920280" lon="0.346293"><ele>774.96</ele><time>2011-09-15T12:50:43Z</time></trkpt><trkpt lat="42.920301" lon="0.346147"><ele>772.56</ele><time>2011-09-15T12:50:44Z</time></trkpt><trkpt lat="42.920332" lon="0.345883"><ele>769.19</ele><time>2011-09-15T12:50:46Z</time></trkpt><trkpt lat="42.920239" lon="0.345781"><ele>769.19</ele><time>2011-09-15T12:50:47Z</time></trkpt><trkpt lat="42.920162" lon="0.345699"><ele>767.75</ele><time>2011-09-15T12:50:48Z</time></trkpt><trkpt lat="42.920071" lon="0.345658"><ele>766.31</ele><time>2011-09-15T12:50:49Z</time></trkpt><trkpt lat="42.919985" lon="0.345666"><ele>765.83</ele><time>2011-09-15T12:50:50Z</time></trkpt><trkpt lat="42.919907" lon="0.345709"><ele>765.35</ele><time>2011-09-15T12:50:51Z</time></trkpt><trkpt lat="42.919839" lon="0.345801"><ele>766.31</ele><time>2011-09-15T12:50:52Z</time></trkpt><trkpt lat="42.919775" lon="0.345923"><ele>766.31</ele><time>2011-09-15T12:50:53Z</time></trkpt><trkpt lat="42.919704" lon="0.346062"><ele>766.31</ele><time>2011-09-15T12:50:54Z</time></trkpt><trkpt lat="42.919384" lon="0.346636"><ele>766.31</ele><time>2011-09-15T12:50:58Z</time></trkpt><trkpt lat="42.919274" lon="0.346763"><ele>767.75</ele><time>2011-09-15T12:50:59Z</time></trkpt><trkpt lat="42.919137" lon="0.346856"><ele>766.79</ele><time>2011-09-15T12:51:00Z</time></trkpt><trkpt lat="42.918849" lon="0.347057"><ele>766.79</ele><time>2011-09-15T12:51:02Z</time></trkpt><trkpt lat="42.918719" lon="0.347181"><ele>767.27</ele><time>2011-09-15T12:51:03Z</time></trkpt><trkpt lat="42.918602" lon="0.347300"><ele>767.27</ele><time>2011-09-15T12:51:04Z</time></trkpt><trkpt lat="42.918495" lon="0.347436"><ele>768.23</ele><time>2011-09-15T12:51:05Z</time></trkpt><trkpt lat="42.918399" lon="0.347571"><ele>768.23</ele><time>2011-09-15T12:51:06Z</time></trkpt><trkpt lat="42.918317" lon="0.347718"><ele>767.75</ele><time>2011-09-15T12:51:07Z</time></trkpt><trkpt lat="42.918248" lon="0.347893"><ele>767.75</ele><time>2011-09-15T12:51:08Z</time></trkpt><trkpt lat="42.918189" lon="0.348073"><ele>767.27</ele><time>2011-09-15T12:51:09Z</time></trkpt><trkpt lat="42.917915" lon="0.348809"><ele>767.75</ele><time>2011-09-15T12:51:14Z</time></trkpt><trkpt lat="42.917828" lon="0.348902"><ele>767.27</ele><time>2011-09-15T12:51:15Z</time></trkpt><trkpt lat="42.917721" lon="0.348996"><ele>766.79</ele><time>2011-09-15T12:51:16Z</time></trkpt><trkpt lat="42.917515" lon="0.349195"><ele>765.83</ele><time>2011-09-15T12:51:18Z</time></trkpt><trkpt lat="42.917434" lon="0.349295"><ele>764.87</ele><time>2011-09-15T12:51:19Z</time></trkpt><trkpt lat="42.917368" lon="0.349414"><ele>763.90</ele><time>2011-09-15T12:51:20Z</time></trkpt><trkpt lat="42.917319" lon="0.349532"><ele>762.46</ele><time>2011-09-15T12:51:21Z</time></trkpt><trkpt lat="42.917282" lon="0.349654"><ele>761.98</ele><time>2011-09-15T12:51:22Z</time></trkpt><trkpt lat="42.917291" lon="0.349784"><ele>760.54</ele><time>2011-09-15T12:51:23Z</time></trkpt><trkpt lat="42.917313" lon="0.349923"><ele>760.54</ele><time>2011-09-15T12:51:24Z</time></trkpt><trkpt lat="42.917335" lon="0.350067"><ele>760.06</ele><time>2011-09-15T12:51:25Z</time></trkpt><trkpt lat="42.917341" lon="0.350212"><ele>759.10</ele><time>2011-09-15T12:51:26Z</time></trkpt><trkpt lat="42.917325" lon="0.350352"><ele>758.62</ele><time>2011-09-15T12:51:27Z</time></trkpt><trkpt lat="42.917298" lon="0.350488"><ele>758.14</ele><time>2011-09-15T12:51:28Z</time></trkpt><trkpt lat="42.917262" lon="0.350622"><ele>757.66</ele><time>2011-09-15T12:51:29Z</time></trkpt><trkpt lat="42.917214" lon="0.350752"><ele>757.18</ele><time>2011-09-15T12:51:30Z</time></trkpt><trkpt lat="42.917157" lon="0.350866"><ele>756.69</ele><time>2011-09-15T12:51:31Z</time></trkpt><trkpt lat="42.917088" lon="0.350979"><ele>756.69</ele><time>2011-09-15T12:51:32Z</time></trkpt><trkpt lat="42.917007" lon="0.351085"><ele>756.21</ele><time>2011-09-15T12:51:33Z</time></trkpt><trkpt lat="42.916919" lon="0.351187"><ele>755.73</ele><time>2011-09-15T12:51:34Z</time></trkpt><trkpt lat="42.916759" lon="0.351403"><ele>755.25</ele><time>2011-09-15T12:51:36Z</time></trkpt><trkpt lat="42.916701" lon="0.351531"><ele>754.77</ele><time>2011-09-15T12:51:37Z</time></trkpt><trkpt lat="42.916661" lon="0.351679"><ele>754.29</ele><time>2011-09-15T12:51:38Z</time></trkpt><trkpt lat="42.916493" lon="0.352451"><ele>754.29</ele><time>2011-09-15T12:51:43Z</time></trkpt><trkpt lat="42.916487" lon="0.352615"><ele>754.29</ele><time>2011-09-15T12:51:44Z</time></trkpt><trkpt lat="42.916494" lon="0.352785"><ele>754.77</ele><time>2011-09-15T12:51:45Z</time></trkpt><trkpt lat="42.916491" lon="0.352949"><ele>754.77</ele><time>2011-09-15T12:51:46Z</time></trkpt><trkpt lat="42.916482" lon="0.353110"><ele>754.29</ele><time>2011-09-15T12:51:47Z</time></trkpt><trkpt lat="42.916459" lon="0.353268"><ele>754.29</ele><time>2011-09-15T12:51:48Z</time></trkpt><trkpt lat="42.916429" lon="0.353425"><ele>753.33</ele><time>2011-09-15T12:51:49Z</time></trkpt><trkpt lat="42.916339" lon="0.353754"><ele>751.41</ele><time>2011-09-15T12:51:51Z</time></trkpt><trkpt lat="42.916215" lon="0.354253"><ele>750.93</ele><time>2011-09-15T12:51:54Z</time></trkpt><trkpt lat="42.916201" lon="0.354443"><ele>750.45</ele><time>2011-09-15T12:51:55Z</time></trkpt><trkpt lat="42.916194" lon="0.354632"><ele>749.97</ele><time>2011-09-15T12:51:56Z</time></trkpt><trkpt lat="42.916192" lon="0.354811"><ele>749.97</ele><time>2011-09-15T12:51:57Z</time></trkpt><trkpt lat="42.916200" lon="0.354979"><ele>749.97</ele><time>2011-09-15T12:51:58Z</time></trkpt><trkpt lat="42.916195" lon="0.355343"><ele>749.00</ele><time>2011-09-15T12:52:01Z</time></trkpt><trkpt lat="42.916160" lon="0.355403"><ele>748.52</ele><time>2011-09-15T12:52:02Z</time></trkpt><trkpt lat="42.916109" lon="0.355480"><ele>749.49</ele><time>2011-09-15T12:52:03Z</time></trkpt><trkpt lat="42.916028" lon="0.355542"><ele>748.04</ele><time>2011-09-15T12:52:04Z</time></trkpt><trkpt lat="42.915925" lon="0.355596"><ele>747.56</ele><time>2011-09-15T12:52:05Z</time></trkpt><trkpt lat="42.915827" lon="0.355668"><ele>746.12</ele><time>2011-09-15T12:52:06Z</time></trkpt><trkpt lat="42.915739" lon="0.355765"><ele>744.20</ele><time>2011-09-15T12:52:07Z</time></trkpt><trkpt lat="42.915657" lon="0.355896"><ele>743.24</ele><time>2011-09-15T12:52:08Z</time></trkpt><trkpt lat="42.915586" lon="0.356044"><ele>742.28</ele><time>2011-09-15T12:52:09Z</time></trkpt><trkpt lat="42.915514" lon="0.356202"><ele>741.79</ele><time>2011-09-15T12:52:10Z</time></trkpt><trkpt lat="42.914988" lon="0.357563"><ele>739.87</ele><time>2011-09-15T12:52:18Z</time></trkpt><trkpt lat="42.914964" lon="0.357745"><ele>738.91</ele><time>2011-09-15T12:52:19Z</time></trkpt><trkpt lat="42.914851" lon="0.358563"><ele>735.55</ele><time>2011-09-15T12:52:24Z</time></trkpt><trkpt lat="42.914805" lon="0.358684"><ele>734.58</ele><time>2011-09-15T12:52:25Z</time></trkpt><trkpt lat="42.914741" lon="0.358777"><ele>734.10</ele><time>2011-09-15T12:52:26Z</time></trkpt><trkpt lat="42.914612" lon="0.358778"><ele>733.62</ele><time>2011-09-15T12:52:27Z</time></trkpt><trkpt lat="42.914486" lon="0.358749"><ele>732.66</ele><time>2011-09-15T12:52:28Z</time></trkpt><trkpt lat="42.914357" lon="0.358696"><ele>731.70</ele><time>2011-09-15T12:52:29Z</time></trkpt><trkpt lat="42.914230" lon="0.358632"><ele>730.74</ele><time>2011-09-15T12:52:30Z</time></trkpt><trkpt lat="42.914110" lon="0.358555"><ele>729.78</ele><time>2011-09-15T12:52:31Z</time></trkpt><trkpt lat="42.913997" lon="0.358465"><ele>728.82</ele><time>2011-09-15T12:52:32Z</time></trkpt><trkpt lat="42.913884" lon="0.358369"><ele>727.86</ele><time>2011-09-15T12:52:33Z</time></trkpt><trkpt lat="42.913769" lon="0.358284"><ele>726.89</ele><time>2011-09-15T12:52:34Z</time></trkpt><trkpt lat="42.913653" lon="0.358215"><ele>725.93</ele><time>2011-09-15T12:52:35Z</time></trkpt><trkpt lat="42.913532" lon="0.358168"><ele>724.97</ele><time>2011-09-15T12:52:36Z</time></trkpt><trkpt lat="42.913405" lon="0.358145"><ele>724.01</ele><time>2011-09-15T12:52:37Z</time></trkpt><trkpt lat="42.913268" lon="0.358149"><ele>723.05</ele><time>2011-09-15T12:52:38Z</time></trkpt><trkpt lat="42.913124" lon="0.358170"><ele>722.09</ele><time>2011-09-15T12:52:39Z</time></trkpt><trkpt lat="42.912981" lon="0.358196"><ele>720.65</ele><time>2011-09-15T12:52:40Z</time></trkpt><trkpt lat="42.912838" lon="0.358226"><ele>719.20</ele><time>2011-09-15T12:52:41Z</time></trkpt><trkpt lat="42.912693" lon="0.358271"><ele>717.76</ele><time>2011-09-15T12:52:42Z</time></trkpt><trkpt lat="42.912549" lon="0.358326"><ele>716.32</ele><time>2011-09-15T12:52:43Z</time></trkpt><trkpt lat="42.912408" lon="0.358395"><ele>714.88</ele><time>2011-09-15T12:52:44Z</time></trkpt><trkpt lat="42.912270" lon="0.358473"><ele>713.92</ele><time>2011-09-15T12:52:45Z</time></trkpt><trkpt lat="42.910971" lon="0.359485"><ele>702.38</ele><time>2011-09-15T12:52:56Z</time></trkpt><trkpt lat="42.910754" lon="0.359658"><ele>700.94</ele><time>2011-09-15T12:52:58Z</time></trkpt><trkpt lat="42.910642" lon="0.359723"><ele>699.98</ele><time>2011-09-15T12:52:59Z</time></trkpt><trkpt lat="42.909870" lon="0.359964"><ele>694.21</ele><time>2011-09-15T12:53:06Z</time></trkpt><trkpt lat="42.909680" lon="0.359937"><ele>692.77</ele><time>2011-09-15T12:53:08Z</time></trkpt><trkpt lat="42.909602" lon="0.359904"><ele>692.29</ele><time>2011-09-15T12:53:09Z</time></trkpt><trkpt lat="42.909483" lon="0.359840"><ele>691.33</ele><time>2011-09-15T12:53:11Z</time></trkpt><trkpt lat="42.909435" lon="0.359829"><ele>691.33</ele><time>2011-09-15T12:53:12Z</time></trkpt><trkpt lat="42.909392" lon="0.359830"><ele>690.84</ele><time>2011-09-15T12:53:13Z</time></trkpt><trkpt lat="42.909357" lon="0.359837"><ele>690.84</ele><time>2011-09-15T12:53:14Z</time></trkpt><trkpt lat="42.909332" lon="0.359844"><ele>690.84</ele><time>2011-09-15T12:53:15Z</time></trkpt><trkpt lat="42.909317" lon="0.359849"><ele>690.36</ele><time>2011-09-15T12:53:16Z</time></trkpt><trkpt lat="42.909329" lon="0.359846"><ele>689.88</ele><time>2011-09-15T12:53:36Z</time></trkpt><trkpt lat="42.909260" lon="0.359832"><ele>686.52</ele><time>2011-09-15T12:53:49Z</time></trkpt><trkpt lat="42.909213" lon="0.359774"><ele>686.04</ele><time>2011-09-15T12:53:50Z</time></trkpt><trkpt lat="42.908674" lon="0.359119"><ele>688.44</ele><time>2011-09-15T12:53:58Z</time></trkpt><trkpt lat="42.907519" lon="0.357906"><ele>690.84</ele><time>2011-09-15T12:54:12Z</time></trkpt><trkpt lat="42.906898" lon="0.357388"><ele>693.73</ele><time>2011-09-15T12:54:19Z</time></trkpt><trkpt lat="42.906810" lon="0.357358"><ele>693.73</ele><time>2011-09-15T12:54:20Z</time></trkpt><trkpt lat="42.906724" lon="0.357349"><ele>693.73</ele><time>2011-09-15T12:54:21Z</time></trkpt><trkpt lat="42.906639" lon="0.357352"><ele>693.73</ele><time>2011-09-15T12:54:22Z</time></trkpt><trkpt lat="42.906551" lon="0.357364"><ele>694.21</ele><time>2011-09-15T12:54:23Z</time></trkpt><trkpt lat="42.906464" lon="0.357381"><ele>693.73</ele><time>2011-09-15T12:54:24Z</time></trkpt><trkpt lat="42.906008" lon="0.357423"><ele>695.17</ele><time>2011-09-15T12:54:32Z</time></trkpt><trkpt lat="42.905970" lon="0.357465"><ele>693.25</ele><time>2011-09-15T12:54:50Z</time></trkpt><trkpt lat="42.905817" lon="0.357806"><ele>696.61</ele><time>2011-09-15T12:54:58Z</time></trkpt><trkpt lat="42.905707" lon="0.357949"><ele>697.57</ele><time>2011-09-15T12:55:04Z</time></trkpt><trkpt lat="42.905661" lon="0.357969"><ele>697.57</ele><time>2011-09-15T12:55:05Z</time></trkpt><trkpt lat="42.905603" lon="0.357988"><ele>697.57</ele><time>2011-09-15T12:55:06Z</time></trkpt><trkpt lat="42.905037" lon="0.358126"><ele>707.19</ele><time>2011-09-15T12:55:15Z</time></trkpt><trkpt lat="42.904154" lon="0.358277"><ele>712.47</ele><time>2011-09-15T12:55:26Z</time></trkpt><trkpt lat="42.903036" lon="0.358214"><ele>718.24</ele><time>2011-09-15T12:55:39Z</time></trkpt><trkpt lat="42.902322" lon="0.358139"><ele>721.61</ele><time>2011-09-15T12:55:48Z</time></trkpt><trkpt lat="42.901042" lon="0.357721"><ele>721.61</ele><time>2011-09-15T12:56:00Z</time></trkpt><trkpt lat="42.899464" lon="0.357123"><ele>721.61</ele><time>2011-09-15T12:56:13Z</time></trkpt><trkpt lat="42.897906" lon="0.356550"><ele>724.01</ele><time>2011-09-15T12:56:23Z</time></trkpt><trkpt lat="42.896423" lon="0.355707"><ele>724.49</ele><time>2011-09-15T12:56:33Z</time></trkpt><trkpt lat="42.895603" lon="0.355195"><ele>725.93</ele><time>2011-09-15T12:56:40Z</time></trkpt><trkpt lat="42.895534" lon="0.355122"><ele>725.93</ele><time>2011-09-15T12:56:41Z</time></trkpt><trkpt lat="42.895484" lon="0.355038"><ele>726.41</ele><time>2011-09-15T12:56:42Z</time></trkpt><trkpt lat="42.895456" lon="0.354945"><ele>726.41</ele><time>2011-09-15T12:56:43Z</time></trkpt><trkpt lat="42.895436" lon="0.354853"><ele>726.41</ele><time>2011-09-15T12:56:44Z</time></trkpt><trkpt lat="42.895402" lon="0.354773"><ele>726.41</ele><time>2011-09-15T12:56:45Z</time></trkpt><trkpt lat="42.895350" lon="0.354716"><ele>726.41</ele><time>2011-09-15T12:56:46Z</time></trkpt><trkpt lat="42.895291" lon="0.354708"><ele>726.89</ele><time>2011-09-15T12:56:47Z</time></trkpt><trkpt lat="42.895234" lon="0.354730"><ele>726.89</ele><time>2011-09-15T12:56:48Z</time></trkpt><trkpt lat="42.895188" lon="0.354789"><ele>726.89</ele><time>2011-09-15T12:56:49Z</time></trkpt><trkpt lat="42.895164" lon="0.354871"><ele>726.89</ele><time>2011-09-15T12:56:50Z</time></trkpt><trkpt lat="42.895160" lon="0.354962"><ele>727.37</ele><time>2011-09-15T12:56:51Z</time></trkpt><trkpt lat="42.895171" lon="0.355045"><ele>727.37</ele><time>2011-09-15T12:56:52Z</time></trkpt><trkpt lat="42.895187" lon="0.355112"><ele>727.37</ele><time>2011-09-15T12:56:53Z</time></trkpt><trkpt lat="42.895197" lon="0.355170"><ele>727.37</ele><time>2011-09-15T12:56:54Z</time></trkpt><trkpt lat="42.895199" lon="0.355234"><ele>726.89</ele><time>2011-09-15T12:56:55Z</time></trkpt><trkpt lat="42.895193" lon="0.355315"><ele>726.89</ele><time>2011-09-15T12:56:56Z</time></trkpt><trkpt lat="42.895189" lon="0.355414"><ele>726.89</ele><time>2011-09-15T12:56:57Z</time></trkpt><trkpt lat="42.895201" lon="0.355537"><ele>726.89</ele><time>2011-09-15T12:56:58Z</time></trkpt><trkpt lat="42.895235" lon="0.355680"><ele>727.37</ele><time>2011-09-15T12:56:59Z</time></trkpt><trkpt lat="42.895290" lon="0.355825"><ele>727.86</ele><time>2011-09-15T12:57:00Z</time></trkpt><trkpt lat="42.895354" lon="0.355961"><ele>728.34</ele><time>2011-09-15T12:57:01Z</time></trkpt><trkpt lat="42.895960" lon="0.356944"><ele>733.14</ele><time>2011-09-15T12:57:08Z</time></trkpt><trkpt lat="42.896902" lon="0.357896"><ele>739.87</ele><time>2011-09-15T12:57:15Z</time></trkpt><trkpt lat="42.897286" lon="0.358433"><ele>743.24</ele><time>2011-09-15T12:57:18Z</time></trkpt><trkpt lat="42.897392" lon="0.358649"><ele>744.68</ele><time>2011-09-15T12:57:19Z</time></trkpt><trkpt lat="42.897486" lon="0.358884"><ele>746.12</ele><time>2011-09-15T12:57:20Z</time></trkpt><trkpt lat="42.898273" lon="0.360854"><ele>755.25</ele><time>2011-09-15T12:57:28Z</time></trkpt><trkpt lat="42.898515" lon="0.361530"><ele>756.69</ele><time>2011-09-15T12:57:31Z</time></trkpt><trkpt lat="42.898566" lon="0.361769"><ele>757.66</ele><time>2011-09-15T12:57:32Z</time></trkpt><trkpt lat="42.898877" lon="0.364203"><ele>746.12</ele><time>2011-09-15T12:57:41Z</time></trkpt><trkpt lat="42.898826" lon="0.364933"><ele>742.28</ele><time>2011-09-15T12:57:44Z</time></trkpt><trkpt lat="42.898718" lon="0.365128"><ele>740.83</ele><time>2011-09-15T12:57:45Z</time></trkpt><trkpt lat="42.898607" lon="0.365331"><ele>740.35</ele><time>2011-09-15T12:57:46Z</time></trkpt><trkpt lat="42.897975" lon="0.366607"><ele>743.24</ele><time>2011-09-15T12:57:52Z</time></trkpt><trkpt lat="42.897849" lon="0.366804"><ele>744.20</ele><time>2011-09-15T12:57:53Z</time></trkpt><trkpt lat="42.896921" lon="0.368575"><ele>751.89</ele><time>2011-09-15T12:58:02Z</time></trkpt><trkpt lat="42.896876" lon="0.368792"><ele>752.85</ele><time>2011-09-15T12:58:03Z</time></trkpt><trkpt lat="42.896855" lon="0.369017"><ele>753.81</ele><time>2011-09-15T12:58:04Z</time></trkpt><trkpt lat="42.896853" lon="0.369246"><ele>754.77</ele><time>2011-09-15T12:58:05Z</time></trkpt><trkpt lat="42.896827" lon="0.369667"><ele>755.73</ele><time>2011-09-15T12:58:07Z</time></trkpt><trkpt lat="42.896786" lon="0.369841"><ele>756.69</ele><time>2011-09-15T12:58:08Z</time></trkpt><trkpt lat="42.896723" lon="0.369991"><ele>757.66</ele><time>2011-09-15T12:58:09Z</time></trkpt><trkpt lat="42.896623" lon="0.370078"><ele>758.62</ele><time>2011-09-15T12:58:10Z</time></trkpt><trkpt lat="42.896492" lon="0.370130"><ele>758.62</ele><time>2011-09-15T12:58:11Z</time></trkpt><trkpt lat="42.896349" lon="0.370174"><ele>759.58</ele><time>2011-09-15T12:58:12Z</time></trkpt><trkpt lat="42.895235" lon="0.370715"><ele>761.50</ele><time>2011-09-15T12:58:19Z</time></trkpt><trkpt lat="42.894763" lon="0.371008"><ele>761.98</ele><time>2011-09-15T12:58:22Z</time></trkpt><trkpt lat="42.894600" lon="0.371074"><ele>761.98</ele><time>2011-09-15T12:58:23Z</time></trkpt><trkpt lat="42.893401" lon="0.371695"><ele>761.50</ele><time>2011-09-15T12:58:30Z</time></trkpt><trkpt lat="42.892339" lon="0.372573"><ele>760.54</ele><time>2011-09-15T12:58:37Z</time></trkpt><trkpt lat="42.891219" lon="0.373811"><ele>761.02</ele><time>2011-09-15T12:58:46Z</time></trkpt><trkpt lat="42.890586" lon="0.374976"><ele>762.46</ele><time>2011-09-15T12:58:52Z</time></trkpt><trkpt lat="42.889845" lon="0.376494"><ele>766.79</ele><time>2011-09-15T12:58:59Z</time></trkpt><trkpt lat="42.889387" lon="0.377202"><ele>769.19</ele><time>2011-09-15T12:59:04Z</time></trkpt><trkpt lat="42.889414" lon="0.377367"><ele>769.67</ele><time>2011-09-15T12:59:05Z</time></trkpt><trkpt lat="42.889469" lon="0.377526"><ele>770.15</ele><time>2011-09-15T12:59:06Z</time></trkpt><trkpt lat="42.889557" lon="0.377655"><ele>771.11</ele><time>2011-09-15T12:59:07Z</time></trkpt><trkpt lat="42.889684" lon="0.377784"><ele>772.56</ele><time>2011-09-15T12:59:08Z</time></trkpt><trkpt lat="42.889806" lon="0.377907"><ele>774.48</ele><time>2011-09-15T12:59:09Z</time></trkpt><trkpt lat="42.889921" lon="0.378038"><ele>775.92</ele><time>2011-09-15T12:59:10Z</time></trkpt><trkpt lat="42.890017" lon="0.378190"><ele>776.88</ele><time>2011-09-15T12:59:11Z</time></trkpt><trkpt lat="42.890091" lon="0.378356"><ele>777.84</ele><time>2011-09-15T12:59:12Z</time></trkpt><trkpt lat="42.890140" lon="0.378537"><ele>778.81</ele><time>2011-09-15T12:59:13Z</time></trkpt><trkpt lat="42.890157" lon="0.378736"><ele>779.77</ele><time>2011-09-15T12:59:14Z</time></trkpt><trkpt lat="42.890141" lon="0.378934"><ele>779.77</ele><time>2011-09-15T12:59:15Z</time></trkpt><trkpt lat="42.890065" lon="0.379114"><ele>779.77</ele><time>2011-09-15T12:59:16Z</time></trkpt><trkpt lat="42.889967" lon="0.379219"><ele>779.77</ele><time>2011-09-15T12:59:17Z</time></trkpt><trkpt lat="42.889840" lon="0.379298"><ele>778.81</ele><time>2011-09-15T12:59:18Z</time></trkpt><trkpt lat="42.889669" lon="0.379380"><ele>778.32</ele><time>2011-09-15T12:59:19Z</time></trkpt><trkpt lat="42.889519" lon="0.379466"><ele>777.84</ele><time>2011-09-15T12:59:20Z</time></trkpt><trkpt lat="42.888234" lon="0.380111"><ele>778.81</ele><time>2011-09-15T12:59:28Z</time></trkpt><trkpt lat="42.887970" lon="0.380228"><ele>779.29</ele><time>2011-09-15T12:59:30Z</time></trkpt><trkpt lat="42.887875" lon="0.380339"><ele>779.29</ele><time>2011-09-15T12:59:31Z</time></trkpt><trkpt lat="42.887797" lon="0.380463"><ele>778.81</ele><time>2011-09-15T12:59:32Z</time></trkpt><trkpt lat="42.887732" lon="0.380611"><ele>778.32</ele><time>2011-09-15T12:59:33Z</time></trkpt><trkpt lat="42.887688" lon="0.380790"><ele>777.84</ele><time>2011-09-15T12:59:34Z</time></trkpt><trkpt lat="42.887652" lon="0.381041"><ele>781.21</ele><time>2011-09-15T12:59:35Z</time></trkpt><trkpt lat="42.887628" lon="0.381256"><ele>782.65</ele><time>2011-09-15T12:59:36Z</time></trkpt><trkpt lat="42.887539" lon="0.381869"><ele>785.05</ele><time>2011-09-15T12:59:39Z</time></trkpt><trkpt lat="42.887479" lon="0.382058"><ele>786.02</ele><time>2011-09-15T12:59:40Z</time></trkpt><trkpt lat="42.887390" lon="0.382231"><ele>786.98</ele><time>2011-09-15T12:59:41Z</time></trkpt><trkpt lat="42.887277" lon="0.382383"><ele>787.46</ele><time>2011-09-15T12:59:42Z</time></trkpt><trkpt lat="42.887155" lon="0.382532"><ele>787.94</ele><time>2011-09-15T12:59:43Z</time></trkpt><trkpt lat="42.886410" lon="0.383970"><ele>794.19</ele><time>2011-09-15T12:59:51Z</time></trkpt><trkpt lat="42.886010" lon="0.384956"><ele>797.07</ele><time>2011-09-15T12:59:56Z</time></trkpt><trkpt lat="42.885884" lon="0.385123"><ele>797.55</ele><time>2011-09-15T12:59:57Z</time></trkpt><trkpt lat="42.885732" lon="0.385274"><ele>797.55</ele><time>2011-09-15T12:59:58Z</time></trkpt><trkpt lat="42.885561" lon="0.385408"><ele>798.03</ele><time>2011-09-15T12:59:59Z</time></trkpt><trkpt lat="42.885377" lon="0.385526"><ele>798.51</ele><time>2011-09-15T13:00:00Z</time></trkpt><trkpt lat="42.885189" lon="0.385635"><ele>799.47</ele><time>2011-09-15T13:00:01Z</time></trkpt><trkpt lat="42.884110" lon="0.386247"><ele>806.20</ele><time>2011-09-15T13:00:07Z</time></trkpt><trkpt lat="42.883957" lon="0.386401"><ele>807.16</ele><time>2011-09-15T13:00:08Z</time></trkpt><trkpt lat="42.883813" lon="0.386574"><ele>808.13</ele><time>2011-09-15T13:00:09Z</time></trkpt><trkpt lat="42.882726" lon="0.387890"><ele>815.34</ele><time>2011-09-15T13:00:17Z</time></trkpt><trkpt lat="42.882563" lon="0.387989"><ele>815.82</ele><time>2011-09-15T13:00:18Z</time></trkpt><trkpt lat="42.881112" lon="0.388794"><ele>821.58</ele><time>2011-09-15T13:00:26Z</time></trkpt><trkpt lat="42.879892" lon="0.389007"><ele>825.91</ele><time>2011-09-15T13:00:32Z</time></trkpt><trkpt lat="42.879699" lon="0.389078"><ele>826.87</ele><time>2011-09-15T13:00:33Z</time></trkpt><trkpt lat="42.879506" lon="0.389175"><ele>826.87</ele><time>2011-09-15T13:00:34Z</time></trkpt><trkpt lat="42.878432" lon="0.389697"><ele>830.24</ele><time>2011-09-15T13:00:40Z</time></trkpt><trkpt lat="42.878260" lon="0.389705"><ele>830.72</ele><time>2011-09-15T13:00:41Z</time></trkpt><trkpt lat="42.878104" lon="0.389661"><ele>831.20</ele><time>2011-09-15T13:00:42Z</time></trkpt><trkpt lat="42.877857" lon="0.389634"><ele>830.72</ele><time>2011-09-15T13:00:44Z</time></trkpt><trkpt lat="42.877791" lon="0.389729"><ele>831.20</ele><time>2011-09-15T13:00:45Z</time></trkpt><trkpt lat="42.877728" lon="0.389822"><ele>831.20</ele><time>2011-09-15T13:00:46Z</time></trkpt><trkpt lat="42.877671" lon="0.389939"><ele>831.20</ele><time>2011-09-15T13:00:47Z</time></trkpt><trkpt lat="42.877609" lon="0.390082"><ele>830.72</ele><time>2011-09-15T13:00:48Z</time></trkpt><trkpt lat="42.877285" lon="0.390734"><ele>830.24</ele><time>2011-09-15T13:00:52Z</time></trkpt><trkpt lat="42.877172" lon="0.390856"><ele>830.24</ele><time>2011-09-15T13:00:53Z</time></trkpt><trkpt lat="42.877036" lon="0.390924"><ele>830.72</ele><time>2011-09-15T13:00:54Z</time></trkpt><trkpt lat="42.876892" lon="0.390951"><ele>831.20</ele><time>2011-09-15T13:00:55Z</time></trkpt><trkpt lat="42.876745" lon="0.390967"><ele>832.16</ele><time>2011-09-15T13:00:56Z</time></trkpt><trkpt lat="42.876608" lon="0.390998"><ele>832.16</ele><time>2011-09-15T13:00:57Z</time></trkpt><trkpt lat="42.876481" lon="0.391077"><ele>832.64</ele><time>2011-09-15T13:00:58Z</time></trkpt><trkpt lat="42.876362" lon="0.391196"><ele>832.64</ele><time>2011-09-15T13:00:59Z</time></trkpt><trkpt lat="42.876248" lon="0.391339"><ele>833.60</ele><time>2011-09-15T13:01:00Z</time></trkpt><trkpt lat="42.876143" lon="0.391489"><ele>834.56</ele><time>2011-09-15T13:01:01Z</time></trkpt><trkpt lat="42.876038" lon="0.391630"><ele>835.04</ele><time>2011-09-15T13:01:02Z</time></trkpt><trkpt lat="42.875921" lon="0.391750"><ele>836.00</ele><time>2011-09-15T13:01:03Z</time></trkpt><trkpt lat="42.875033" lon="0.392500"><ele>841.29</ele><time>2011-09-15T13:01:10Z</time></trkpt><trkpt lat="42.874895" lon="0.392571"><ele>842.25</ele><time>2011-09-15T13:01:11Z</time></trkpt><trkpt lat="42.873796" lon="0.393103"><ele>846.58</ele><time>2011-09-15T13:01:20Z</time></trkpt><trkpt lat="42.872072" lon="0.393591"><ele>848.02</ele><time>2011-09-15T13:01:34Z</time></trkpt><trkpt lat="42.871688" lon="0.393741"><ele>848.02</ele><time>2011-09-15T13:01:38Z</time></trkpt><trkpt lat="42.871603" lon="0.393812"><ele>848.02</ele><time>2011-09-15T13:01:39Z</time></trkpt><trkpt lat="42.871527" lon="0.393908"><ele>848.02</ele><time>2011-09-15T13:01:40Z</time></trkpt><trkpt lat="42.871459" lon="0.394020"><ele>848.50</ele><time>2011-09-15T13:01:41Z</time></trkpt><trkpt lat="42.871400" lon="0.394144"><ele>848.98</ele><time>2011-09-15T13:01:42Z</time></trkpt><trkpt lat="42.871350" lon="0.394277"><ele>849.46</ele><time>2011-09-15T13:01:43Z</time></trkpt><trkpt lat="42.871308" lon="0.394416"><ele>849.94</ele><time>2011-09-15T13:01:44Z</time></trkpt><trkpt lat="42.871267" lon="0.394557"><ele>849.94</ele><time>2011-09-15T13:01:45Z</time></trkpt><trkpt lat="42.870683" lon="0.396049"><ele>851.87</ele><time>2011-09-15T13:01:56Z</time></trkpt><trkpt lat="42.870612" lon="0.396183"><ele>852.35</ele><time>2011-09-15T13:01:57Z</time></trkpt><trkpt lat="42.870529" lon="0.396304"><ele>852.35</ele><time>2011-09-15T13:01:58Z</time></trkpt><trkpt lat="42.870433" lon="0.396407"><ele>852.35</ele><time>2011-09-15T13:01:59Z</time></trkpt><trkpt lat="42.870326" lon="0.396488"><ele>852.35</ele><time>2011-09-15T13:02:00Z</time></trkpt><trkpt lat="42.870201" lon="0.396531"><ele>852.83</ele><time>2011-09-15T13:02:01Z</time></trkpt><trkpt lat="42.870073" lon="0.396545"><ele>852.35</ele><time>2011-09-15T13:02:02Z</time></trkpt><trkpt lat="42.869939" lon="0.396547"><ele>852.83</ele><time>2011-09-15T13:02:03Z</time></trkpt><trkpt lat="42.869797" lon="0.396546"><ele>852.35</ele><time>2011-09-15T13:02:04Z</time></trkpt><trkpt lat="42.868507" lon="0.396490"><ele>853.79</ele><time>2011-09-15T13:02:12Z</time></trkpt><trkpt lat="42.868332" lon="0.396536"><ele>854.27</ele><time>2011-09-15T13:02:13Z</time></trkpt><trkpt lat="42.868166" lon="0.396612"><ele>854.75</ele><time>2011-09-15T13:02:14Z</time></trkpt><trkpt lat="42.868010" lon="0.396716"><ele>855.23</ele><time>2011-09-15T13:02:15Z</time></trkpt><trkpt lat="42.867867" lon="0.396840"><ele>855.23</ele><time>2011-09-15T13:02:16Z</time></trkpt><trkpt lat="42.867738" lon="0.396989"><ele>855.23</ele><time>2011-09-15T13:02:17Z</time></trkpt><trkpt lat="42.867628" lon="0.397163"><ele>855.23</ele><time>2011-09-15T13:02:18Z</time></trkpt><trkpt lat="42.867547" lon="0.397369"><ele>855.71</ele><time>2011-09-15T13:02:19Z</time></trkpt><trkpt lat="42.867488" lon="0.397601"><ele>855.71</ele><time>2011-09-15T13:02:20Z</time></trkpt><trkpt lat="42.867448" lon="0.397849"><ele>855.71</ele><time>2011-09-15T13:02:21Z</time></trkpt><trkpt lat="42.867421" lon="0.398094"><ele>856.19</ele><time>2011-09-15T13:02:22Z</time></trkpt><trkpt lat="42.867403" lon="0.398330"><ele>856.19</ele><time>2011-09-15T13:02:23Z</time></trkpt><trkpt lat="42.867339" lon="0.398768"><ele>856.67</ele><time>2011-09-15T13:02:25Z</time></trkpt><trkpt lat="42.867268" lon="0.398965"><ele>856.67</ele><time>2011-09-15T13:02:26Z</time></trkpt><trkpt lat="42.867167" lon="0.399143"><ele>857.15</ele><time>2011-09-15T13:02:27Z</time></trkpt><trkpt lat="42.867039" lon="0.399298"><ele>857.15</ele><time>2011-09-15T13:02:28Z</time></trkpt><trkpt lat="42.866890" lon="0.399441"><ele>857.15</ele><time>2011-09-15T13:02:29Z</time></trkpt><trkpt lat="42.866733" lon="0.399580"><ele>857.63</ele><time>2011-09-15T13:02:30Z</time></trkpt><trkpt lat="42.865680" lon="0.400702"><ele>860.04</ele><time>2011-09-15T13:02:37Z</time></trkpt><trkpt lat="42.865310" lon="0.401155"><ele>860.52</ele><time>2011-09-15T13:02:40Z</time></trkpt><trkpt lat="42.865174" lon="0.401242"><ele>861.00</ele><time>2011-09-15T13:02:41Z</time></trkpt><trkpt lat="42.865026" lon="0.401293"><ele>861.00</ele><time>2011-09-15T13:02:42Z</time></trkpt><trkpt lat="42.864863" lon="0.401281"><ele>861.48</ele><time>2011-09-15T13:02:43Z</time></trkpt><trkpt lat="42.864694" lon="0.401260"><ele>861.96</ele><time>2011-09-15T13:02:44Z</time></trkpt><trkpt lat="42.864516" lon="0.401244"><ele>861.96</ele><time>2011-09-15T13:02:45Z</time></trkpt><trkpt lat="42.863589" lon="0.401312"><ele>862.44</ele><time>2011-09-15T13:02:50Z</time></trkpt><trkpt lat="42.863398" lon="0.401290"><ele>862.92</ele><time>2011-09-15T13:02:51Z</time></trkpt><trkpt lat="42.862230" lon="0.401177"><ele>863.88</ele><time>2011-09-15T13:02:57Z</time></trkpt><trkpt lat="42.862050" lon="0.401227"><ele>863.88</ele><time>2011-09-15T13:02:58Z</time></trkpt><trkpt lat="42.861881" lon="0.401311"><ele>863.88</ele><time>2011-09-15T13:02:59Z</time></trkpt><trkpt lat="42.861725" lon="0.401430"><ele>863.88</ele><time>2011-09-15T13:03:00Z</time></trkpt><trkpt lat="42.861584" lon="0.401583"><ele>863.88</ele><time>2011-09-15T13:03:01Z</time></trkpt><trkpt lat="42.861455" lon="0.401752"><ele>864.36</ele><time>2011-09-15T13:03:02Z</time></trkpt><trkpt lat="42.861332" lon="0.401935"><ele>865.80</ele><time>2011-09-15T13:03:03Z</time></trkpt><trkpt lat="42.861215" lon="0.402124"><ele>866.29</ele><time>2011-09-15T13:03:04Z</time></trkpt><trkpt lat="42.861107" lon="0.402311"><ele>866.77</ele><time>2011-09-15T13:03:05Z</time></trkpt><trkpt lat="42.860887" lon="0.402630"><ele>867.73</ele><time>2011-09-15T13:03:07Z</time></trkpt><trkpt lat="42.860743" lon="0.402734"><ele>868.21</ele><time>2011-09-15T13:03:08Z</time></trkpt><trkpt lat="42.860587" lon="0.402805"><ele>868.69</ele><time>2011-09-15T13:03:09Z</time></trkpt><trkpt lat="42.860417" lon="0.402848"><ele>869.17</ele><time>2011-09-15T13:03:10Z</time></trkpt><trkpt lat="42.860239" lon="0.402886"><ele>869.65</ele><time>2011-09-15T13:03:11Z</time></trkpt><trkpt lat="42.859894" lon="0.402995"><ele>870.13</ele><time>2011-09-15T13:03:13Z</time></trkpt><trkpt lat="42.859736" lon="0.403104"><ele>870.61</ele><time>2011-09-15T13:03:14Z</time></trkpt><trkpt lat="42.859589" lon="0.403249"><ele>871.09</ele><time>2011-09-15T13:03:15Z</time></trkpt><trkpt lat="42.859450" lon="0.403418"><ele>871.57</ele><time>2011-09-15T13:03:16Z</time></trkpt><trkpt lat="42.859310" lon="0.403583"><ele>872.05</ele><time>2011-09-15T13:03:17Z</time></trkpt><trkpt lat="42.859155" lon="0.403719"><ele>872.53</ele><time>2011-09-15T13:03:18Z</time></trkpt><trkpt lat="42.858984" lon="0.403823"><ele>873.01</ele><time>2011-09-15T13:03:19Z</time></trkpt><trkpt lat="42.858804" lon="0.403904"><ele>873.50</ele><time>2011-09-15T13:03:20Z</time></trkpt><trkpt lat="42.858617" lon="0.403974"><ele>873.50</ele><time>2011-09-15T13:03:21Z</time></trkpt><trkpt lat="42.857111" lon="0.404392"><ele>877.34</ele><time>2011-09-15T13:03:29Z</time></trkpt><trkpt lat="42.855587" lon="0.404672"><ele>880.22</ele><time>2011-09-15T13:03:37Z</time></trkpt><trkpt lat="42.854384" lon="0.405367"><ele>884.07</ele><time>2011-09-15T13:03:44Z</time></trkpt><trkpt lat="42.854251" lon="0.405506"><ele>885.03</ele><time>2011-09-15T13:03:45Z</time></trkpt><trkpt lat="42.854133" lon="0.405675"><ele>886.47</ele><time>2011-09-15T13:03:46Z</time></trkpt><trkpt lat="42.854025" lon="0.405866"><ele>887.43</ele><time>2011-09-15T13:03:47Z</time></trkpt><trkpt lat="42.853927" lon="0.406059"><ele>888.40</ele><time>2011-09-15T13:03:48Z</time></trkpt><trkpt lat="42.853625" lon="0.406624"><ele>891.28</ele><time>2011-09-15T13:03:51Z</time></trkpt><trkpt lat="42.853498" lon="0.406778"><ele>891.76</ele><time>2011-09-15T13:03:52Z</time></trkpt><trkpt lat="42.853346" lon="0.406909"><ele>892.24</ele><time>2011-09-15T13:03:53Z</time></trkpt><trkpt lat="42.853186" lon="0.407012"><ele>893.20</ele><time>2011-09-15T13:03:54Z</time></trkpt><trkpt lat="42.853021" lon="0.407088"><ele>893.20</ele><time>2011-09-15T13:03:55Z</time></trkpt><trkpt lat="42.852858" lon="0.407148"><ele>893.68</ele><time>2011-09-15T13:03:56Z</time></trkpt><trkpt lat="42.852698" lon="0.407188"><ele>894.16</ele><time>2011-09-15T13:03:57Z</time></trkpt><trkpt lat="42.852538" lon="0.407180"><ele>891.28</ele><time>2011-09-15T13:03:58Z</time></trkpt><trkpt lat="42.852373" lon="0.407162"><ele>890.32</ele><time>2011-09-15T13:03:59Z</time></trkpt><trkpt lat="42.852200" lon="0.407142"><ele>890.32</ele><time>2011-09-15T13:04:00Z</time></trkpt><trkpt lat="42.851114" lon="0.407352"><ele>888.40</ele><time>2011-09-15T13:04:06Z</time></trkpt><trkpt lat="42.850956" lon="0.407448"><ele>888.88</ele><time>2011-09-15T13:04:07Z</time></trkpt><trkpt lat="42.850641" lon="0.407632"><ele>886.95</ele><time>2011-09-15T13:04:09Z</time></trkpt><trkpt lat="42.850472" lon="0.407700"><ele>886.47</ele><time>2011-09-15T13:04:10Z</time></trkpt><trkpt lat="42.849966" lon="0.407891"><ele>885.51</ele><time>2011-09-15T13:04:13Z</time></trkpt><trkpt lat="42.849820" lon="0.408003"><ele>885.51</ele><time>2011-09-15T13:04:14Z</time></trkpt><trkpt lat="42.849687" lon="0.408131"><ele>885.51</ele><time>2011-09-15T13:04:15Z</time></trkpt><trkpt lat="42.849551" lon="0.408257"><ele>885.03</ele><time>2011-09-15T13:04:16Z</time></trkpt><trkpt lat="42.849407" lon="0.408363"><ele>884.55</ele><time>2011-09-15T13:04:17Z</time></trkpt><trkpt lat="42.849263" lon="0.408398"><ele>884.07</ele><time>2011-09-15T13:04:18Z</time></trkpt><trkpt lat="42.849103" lon="0.408423"><ele>884.07</ele><time>2011-09-15T13:04:19Z</time></trkpt><trkpt lat="42.848934" lon="0.408443"><ele>884.07</ele><time>2011-09-15T13:04:20Z</time></trkpt><trkpt lat="42.847748" lon="0.408985"><ele>886.95</ele><time>2011-09-15T13:04:27Z</time></trkpt><trkpt lat="42.847009" lon="0.409412"><ele>890.32</ele><time>2011-09-15T13:04:32Z</time></trkpt><trkpt lat="42.846864" lon="0.409442"><ele>891.76</ele><time>2011-09-15T13:04:33Z</time></trkpt><trkpt lat="42.846720" lon="0.409444"><ele>892.72</ele><time>2011-09-15T13:04:34Z</time></trkpt><trkpt lat="42.846194" lon="0.409444"><ele>897.05</ele><time>2011-09-15T13:04:38Z</time></trkpt><trkpt lat="42.846091" lon="0.409472"><ele>898.49</ele><time>2011-09-15T13:04:39Z</time></trkpt><trkpt lat="42.845986" lon="0.409545"><ele>901.37</ele><time>2011-09-15T13:04:40Z</time></trkpt><trkpt lat="42.845701" lon="0.409665"><ele>902.33</ele><time>2011-09-15T13:04:43Z</time></trkpt><trkpt lat="42.845592" lon="0.409673"><ele>902.82</ele><time>2011-09-15T13:04:44Z</time></trkpt><trkpt lat="42.845474" lon="0.409632"><ele>902.82</ele><time>2011-09-15T13:04:45Z</time></trkpt><trkpt lat="42.845357" lon="0.409565"><ele>902.82</ele><time>2011-09-15T13:04:46Z</time></trkpt><trkpt lat="42.845249" lon="0.409464"><ele>902.82</ele><time>2011-09-15T13:04:47Z</time></trkpt><trkpt lat="42.845152" lon="0.409335"><ele>902.82</ele><time>2011-09-15T13:04:48Z</time></trkpt><trkpt lat="42.845060" lon="0.409200"><ele>901.85</ele><time>2011-09-15T13:04:49Z</time></trkpt><trkpt lat="42.844962" lon="0.409082"><ele>900.89</ele><time>2011-09-15T13:04:50Z</time></trkpt><trkpt lat="42.844862" lon="0.409001"><ele>899.93</ele><time>2011-09-15T13:04:51Z</time></trkpt><trkpt lat="42.844759" lon="0.408955"><ele>899.45</ele><time>2011-09-15T13:04:52Z</time></trkpt><trkpt lat="42.844665" lon="0.408978"><ele>898.49</ele><time>2011-09-15T13:04:53Z</time></trkpt><trkpt lat="42.844576" lon="0.409035"><ele>898.01</ele><time>2011-09-15T13:04:54Z</time></trkpt><trkpt lat="42.844494" lon="0.409139"><ele>897.53</ele><time>2011-09-15T13:04:55Z</time></trkpt><trkpt lat="42.844413" lon="0.409281"><ele>897.05</ele><time>2011-09-15T13:04:56Z</time></trkpt><trkpt lat="42.844334" lon="0.409412"><ele>895.61</ele><time>2011-09-15T13:04:57Z</time></trkpt><trkpt lat="42.844253" lon="0.409566"><ele>895.12</ele><time>2011-09-15T13:04:58Z</time></trkpt><trkpt lat="42.843360" lon="0.410772"><ele>901.37</ele><time>2011-09-15T13:05:06Z</time></trkpt><trkpt lat="42.842959" lon="0.411182"><ele>904.26</ele><time>2011-09-15T13:05:09Z</time></trkpt><trkpt lat="42.842795" lon="0.411265"><ele>903.78</ele><time>2011-09-15T13:05:10Z</time></trkpt><trkpt lat="42.842611" lon="0.411332"><ele>904.26</ele><time>2011-09-15T13:05:11Z</time></trkpt><trkpt lat="42.841108" lon="0.411580"><ele>910.51</ele><time>2011-09-15T13:05:19Z</time></trkpt><trkpt lat="42.840916" lon="0.411549"><ele>912.43</ele><time>2011-09-15T13:05:20Z</time></trkpt><trkpt lat="42.840725" lon="0.411486"><ele>913.87</ele><time>2011-09-15T13:05:21Z</time></trkpt><trkpt lat="42.839716" lon="0.411267"><ele>925.89</ele><time>2011-09-15T13:05:27Z</time></trkpt><trkpt lat="42.839577" lon="0.411325"><ele>926.85</ele><time>2011-09-15T13:05:28Z</time></trkpt><trkpt lat="42.839442" lon="0.411419"><ele>928.29</ele><time>2011-09-15T13:05:29Z</time></trkpt><trkpt lat="42.838817" lon="0.411767"><ele>933.58</ele><time>2011-09-15T13:05:33Z</time></trkpt><trkpt lat="42.838640" lon="0.411806"><ele>935.02</ele><time>2011-09-15T13:05:34Z</time></trkpt><trkpt lat="42.838140" lon="0.411838"><ele>938.38</ele><time>2011-09-15T13:05:37Z</time></trkpt><trkpt lat="42.837985" lon="0.411794"><ele>938.86</ele><time>2011-09-15T13:05:38Z</time></trkpt><trkpt lat="42.837833" lon="0.411727"><ele>939.83</ele><time>2011-09-15T13:05:39Z</time></trkpt><trkpt lat="42.837681" lon="0.411669"><ele>940.31</ele><time>2011-09-15T13:05:40Z</time></trkpt><trkpt lat="42.837527" lon="0.411656"><ele>940.79</ele><time>2011-09-15T13:05:41Z</time></trkpt><trkpt lat="42.837379" lon="0.411704"><ele>941.27</ele><time>2011-09-15T13:05:42Z</time></trkpt><trkpt lat="42.837217" lon="0.411787"><ele>941.75</ele><time>2011-09-15T13:05:43Z</time></trkpt><trkpt lat="42.837043" lon="0.411887"><ele>942.23</ele><time>2011-09-15T13:05:44Z</time></trkpt><trkpt lat="42.836854" lon="0.411977"><ele>941.75</ele><time>2011-09-15T13:05:45Z</time></trkpt><trkpt lat="42.835158" lon="0.412849"><ele>948.00</ele><time>2011-09-15T13:05:54Z</time></trkpt><trkpt lat="42.833935" lon="0.413411"><ele>957.13</ele><time>2011-09-15T13:06:02Z</time></trkpt><trkpt lat="42.832966" lon="0.413749"><ele>962.90</ele><time>2011-09-15T13:06:09Z</time></trkpt><trkpt lat="42.832837" lon="0.413732"><ele>963.38</ele><time>2011-09-15T13:06:10Z</time></trkpt><trkpt lat="42.831593" lon="0.413450"><ele>963.86</ele><time>2011-09-15T13:06:18Z</time></trkpt><trkpt lat="42.829740" lon="0.413091"><ele>956.65</ele><time>2011-09-15T13:06:29Z</time></trkpt><trkpt lat="42.828553" lon="0.413320"><ele>953.77</ele><time>2011-09-15T13:06:35Z</time></trkpt><trkpt lat="42.826838" lon="0.413949"><ele>962.90</ele><time>2011-09-15T13:06:44Z</time></trkpt><trkpt lat="42.826332" lon="0.414063"><ele>967.22</ele><time>2011-09-15T13:06:47Z</time></trkpt><trkpt lat="42.826180" lon="0.414060"><ele>968.67</ele><time>2011-09-15T13:06:48Z</time></trkpt><trkpt lat="42.825907" lon="0.414033"><ele>972.03</ele><time>2011-09-15T13:06:50Z</time></trkpt><trkpt lat="42.825807" lon="0.414065"><ele>973.95</ele><time>2011-09-15T13:06:51Z</time></trkpt><trkpt lat="42.825749" lon="0.414138"><ele>974.91</ele><time>2011-09-15T13:06:52Z</time></trkpt><trkpt lat="42.825728" lon="0.414264"><ele>976.84</ele><time>2011-09-15T13:06:53Z</time></trkpt><trkpt lat="42.825716" lon="0.414395"><ele>978.76</ele><time>2011-09-15T13:06:54Z</time></trkpt><trkpt lat="42.825694" lon="0.414547"><ele>978.76</ele><time>2011-09-15T13:06:55Z</time></trkpt><trkpt lat="42.825647" lon="0.414690"><ele>981.16</ele><time>2011-09-15T13:06:56Z</time></trkpt><trkpt lat="42.825560" lon="0.414801"><ele>982.60</ele><time>2011-09-15T13:06:57Z</time></trkpt><trkpt lat="42.825454" lon="0.414899"><ele>983.57</ele><time>2011-09-15T13:06:58Z</time></trkpt><trkpt lat="42.825347" lon="0.414992"><ele>984.53</ele><time>2011-09-15T13:06:59Z</time></trkpt><trkpt lat="42.825239" lon="0.415064"><ele>985.49</ele><time>2011-09-15T13:07:00Z</time></trkpt><trkpt lat="42.825121" lon="0.415081"><ele>986.93</ele><time>2011-09-15T13:07:01Z</time></trkpt><trkpt lat="42.825010" lon="0.415015"><ele>988.37</ele><time>2011-09-15T13:07:02Z</time></trkpt><trkpt lat="42.824922" lon="0.414921"><ele>989.33</ele><time>2011-09-15T13:07:03Z</time></trkpt><trkpt lat="42.824855" lon="0.414806"><ele>990.78</ele><time>2011-09-15T13:07:04Z</time></trkpt><trkpt lat="42.824770" lon="0.414721"><ele>992.22</ele><time>2011-09-15T13:07:05Z</time></trkpt><trkpt lat="42.824654" lon="0.414682"><ele>993.18</ele><time>2011-09-15T13:07:06Z</time></trkpt><trkpt lat="42.824522" lon="0.414700"><ele>994.62</ele><time>2011-09-15T13:07:07Z</time></trkpt><trkpt lat="42.824374" lon="0.414724"><ele>995.58</ele><time>2011-09-15T13:07:08Z</time></trkpt><trkpt lat="42.823932" lon="0.414834"><ele>999.91</ele><time>2011-09-15T13:07:11Z</time></trkpt><trkpt lat="42.823806" lon="0.414900"><ele>1001.35</ele><time>2011-09-15T13:07:12Z</time></trkpt><trkpt lat="42.823701" lon="0.415021"><ele>1002.79</ele><time>2011-09-15T13:07:13Z</time></trkpt><trkpt lat="42.823599" lon="0.415161"><ele>1004.23</ele><time>2011-09-15T13:07:14Z</time></trkpt><trkpt lat="42.823500" lon="0.415320"><ele>1005.68</ele><time>2011-09-15T13:07:15Z</time></trkpt><trkpt lat="42.823402" lon="0.415480"><ele>1007.12</ele><time>2011-09-15T13:07:16Z</time></trkpt><trkpt lat="42.823197" lon="0.415766"><ele>1009.52</ele><time>2011-09-15T13:07:18Z</time></trkpt><trkpt lat="42.823074" lon="0.415881"><ele>1010.96</ele><time>2011-09-15T13:07:19Z</time></trkpt><trkpt lat="42.821881" lon="0.416708"><ele>1023.46</ele><time>2011-09-15T13:07:28Z</time></trkpt><trkpt lat="42.820276" lon="0.417717"><ele>1042.21</ele><time>2011-09-15T13:07:39Z</time></trkpt><trkpt lat="42.819369" lon="0.418390"><ele>1048.45</ele><time>2011-09-15T13:07:45Z</time></trkpt><trkpt lat="42.819248" lon="0.418509"><ele>1049.42</ele><time>2011-09-15T13:07:46Z</time></trkpt><trkpt lat="42.819018" lon="0.418768"><ele>1052.30</ele><time>2011-09-15T13:07:48Z</time></trkpt><trkpt lat="42.818887" lon="0.418881"><ele>1053.74</ele><time>2011-09-15T13:07:49Z</time></trkpt><trkpt lat="42.818741" lon="0.418984"><ele>1055.18</ele><time>2011-09-15T13:07:50Z</time></trkpt><trkpt lat="42.818579" lon="0.419080"><ele>1056.63</ele><time>2011-09-15T13:07:51Z</time></trkpt><trkpt lat="42.818401" lon="0.419162"><ele>1058.07</ele><time>2011-09-15T13:07:52Z</time></trkpt><trkpt lat="42.818211" lon="0.419236"><ele>1059.51</ele><time>2011-09-15T13:07:53Z</time></trkpt><trkpt lat="42.816767" lon="0.419918"><ele>1072.49</ele><time>2011-09-15T13:08:01Z</time></trkpt><trkpt lat="42.816599" lon="0.420057"><ele>1073.45</ele><time>2011-09-15T13:08:02Z</time></trkpt><trkpt lat="42.816444" lon="0.420213"><ele>1075.85</ele><time>2011-09-15T13:08:03Z</time></trkpt><trkpt lat="42.815898" lon="0.420807"><ele>1083.54</ele><time>2011-09-15T13:08:07Z</time></trkpt><trkpt lat="42.815755" lon="0.420916"><ele>1085.47</ele><time>2011-09-15T13:08:08Z</time></trkpt><trkpt lat="42.815586" lon="0.420986"><ele>1087.39</ele><time>2011-09-15T13:08:09Z</time></trkpt><trkpt lat="42.814431" lon="0.421584"><ele>1099.89</ele><time>2011-09-15T13:08:16Z</time></trkpt><trkpt lat="42.814299" lon="0.421722"><ele>1101.33</ele><time>2011-09-15T13:08:17Z</time></trkpt><trkpt lat="42.814178" lon="0.421882"><ele>1103.25</ele><time>2011-09-15T13:08:18Z</time></trkpt><trkpt lat="42.814063" lon="0.422063"><ele>1104.21</ele><time>2011-09-15T13:08:19Z</time></trkpt><trkpt lat="42.813971" lon="0.422259"><ele>1105.65</ele><time>2011-09-15T13:08:20Z</time></trkpt><trkpt lat="42.813885" lon="0.422459"><ele>1107.58</ele><time>2011-09-15T13:08:21Z</time></trkpt><trkpt lat="42.813377" lon="0.423493"><ele>1117.19</ele><time>2011-09-15T13:08:27Z</time></trkpt><trkpt lat="42.813273" lon="0.423552"><ele>1119.11</ele><time>2011-09-15T13:08:28Z</time></trkpt><trkpt lat="42.813162" lon="0.423584"><ele>1120.55</ele><time>2011-09-15T13:08:29Z</time></trkpt><trkpt lat="42.813034" lon="0.423561"><ele>1122.00</ele><time>2011-09-15T13:08:30Z</time></trkpt><trkpt lat="42.812903" lon="0.423489"><ele>1123.92</ele><time>2011-09-15T13:08:31Z</time></trkpt><trkpt lat="42.812770" lon="0.423418"><ele>1125.36</ele><time>2011-09-15T13:08:32Z</time></trkpt><trkpt lat="42.812628" lon="0.423335"><ele>1127.28</ele><time>2011-09-15T13:08:33Z</time></trkpt><trkpt lat="42.811153" lon="0.422604"><ele>1142.66</ele><time>2011-09-15T13:08:42Z</time></trkpt><trkpt lat="42.809936" lon="0.421747"><ele>1158.05</ele><time>2011-09-15T13:08:50Z</time></trkpt><trkpt lat="42.809776" lon="0.421704"><ele>1159.97</ele><time>2011-09-15T13:08:51Z</time></trkpt><trkpt lat="42.809622" lon="0.421692"><ele>1161.41</ele><time>2011-09-15T13:08:52Z</time></trkpt><trkpt lat="42.809339" lon="0.421691"><ele>1163.81</ele><time>2011-09-15T13:08:54Z</time></trkpt><trkpt lat="42.809216" lon="0.421653"><ele>1165.26</ele><time>2011-09-15T13:08:55Z</time></trkpt><trkpt lat="42.809110" lon="0.421567"><ele>1166.70</ele><time>2011-09-15T13:08:56Z</time></trkpt><trkpt lat="42.809028" lon="0.421455"><ele>1167.66</ele><time>2011-09-15T13:08:57Z</time></trkpt><trkpt lat="42.808970" lon="0.421341"><ele>1168.62</ele><time>2011-09-15T13:08:58Z</time></trkpt><trkpt lat="42.808929" lon="0.421268"><ele>1170.06</ele><time>2011-09-15T13:08:59Z</time></trkpt><trkpt lat="42.808878" lon="0.421250"><ele>1171.02</ele><time>2011-09-15T13:09:00Z</time></trkpt><trkpt lat="42.808833" lon="0.421283"><ele>1172.47</ele><time>2011-09-15T13:09:01Z</time></trkpt><trkpt lat="42.808803" lon="0.421369"><ele>1173.43</ele><time>2011-09-15T13:09:02Z</time></trkpt><trkpt lat="42.808790" lon="0.421466"><ele>1174.87</ele><time>2011-09-15T13:09:03Z</time></trkpt><trkpt lat="42.808814" lon="0.421590"><ele>1175.35</ele><time>2011-09-15T13:09:04Z</time></trkpt><trkpt lat="42.808874" lon="0.421686"><ele>1176.31</ele><time>2011-09-15T13:09:05Z</time></trkpt><trkpt lat="42.808961" lon="0.421785"><ele>1175.83</ele><time>2011-09-15T13:09:06Z</time></trkpt><trkpt lat="42.809054" lon="0.421890"><ele>1174.87</ele><time>2011-09-15T13:09:07Z</time></trkpt><trkpt lat="42.809153" lon="0.421976"><ele>1175.83</ele><time>2011-09-15T13:09:08Z</time></trkpt><trkpt lat="42.809764" lon="0.422515"><ele>1182.08</ele><time>2011-09-15T13:09:14Z</time></trkpt><trkpt lat="42.809858" lon="0.422642"><ele>1183.52</ele><time>2011-09-15T13:09:15Z</time></trkpt><trkpt lat="42.809939" lon="0.422799"><ele>1184.48</ele><time>2011-09-15T13:09:16Z</time></trkpt><trkpt lat="42.810659" lon="0.424363"><ele>1194.09</ele><time>2011-09-15T13:09:25Z</time></trkpt><trkpt lat="42.810700" lon="0.424542"><ele>1195.06</ele><time>2011-09-15T13:09:26Z</time></trkpt><trkpt lat="42.810706" lon="0.424722"><ele>1195.54</ele><time>2011-09-15T13:09:27Z</time></trkpt><trkpt lat="42.810730" lon="0.424993"><ele>1196.02</ele><time>2011-09-15T13:09:29Z</time></trkpt><trkpt lat="42.810770" lon="0.425082"><ele>1196.50</ele><time>2011-09-15T13:09:30Z</time></trkpt><trkpt lat="42.810865" lon="0.425156"><ele>1198.90</ele><time>2011-09-15T13:09:31Z</time></trkpt><trkpt lat="42.810979" lon="0.425202"><ele>1200.34</ele><time>2011-09-15T13:09:32Z</time></trkpt><trkpt lat="42.811127" lon="0.425239"><ele>1201.30</ele><time>2011-09-15T13:09:33Z</time></trkpt><trkpt lat="42.811289" lon="0.425280"><ele>1204.19</ele><time>2011-09-15T13:09:34Z</time></trkpt><trkpt lat="42.811409" lon="0.425380"><ele>1205.15</ele><time>2011-09-15T13:09:35Z</time></trkpt><trkpt lat="42.811516" lon="0.425519"><ele>1206.11</ele><time>2011-09-15T13:09:36Z</time></trkpt><trkpt lat="42.811603" lon="0.425687"><ele>1207.55</ele><time>2011-09-15T13:09:37Z</time></trkpt><trkpt lat="42.811676" lon="0.425878"><ele>1209.00</ele><time>2011-09-15T13:09:38Z</time></trkpt><trkpt lat="42.811737" lon="0.426077"><ele>1210.92</ele><time>2011-09-15T13:09:39Z</time></trkpt><trkpt lat="42.811782" lon="0.426272"><ele>1212.84</ele><time>2011-09-15T13:09:40Z</time></trkpt><trkpt lat="42.811813" lon="0.426467"><ele>1214.76</ele><time>2011-09-15T13:09:41Z</time></trkpt><trkpt lat="42.811846" lon="0.426669"><ele>1216.69</ele><time>2011-09-15T13:09:42Z</time></trkpt><trkpt lat="42.811894" lon="0.426866"><ele>1218.13</ele><time>2011-09-15T13:09:43Z</time></trkpt><trkpt lat="42.811960" lon="0.427046"><ele>1219.57</ele><time>2011-09-15T13:09:44Z</time></trkpt><trkpt lat="42.812043" lon="0.427215"><ele>1220.53</ele><time>2011-09-15T13:09:45Z</time></trkpt><trkpt lat="42.812143" lon="0.427375"><ele>1221.97</ele><time>2011-09-15T13:09:46Z</time></trkpt><trkpt lat="42.812253" lon="0.427535"><ele>1223.42</ele><time>2011-09-15T13:09:47Z</time></trkpt><trkpt lat="42.812490" lon="0.427835"><ele>1224.38</ele><time>2011-09-15T13:09:49Z</time></trkpt><trkpt lat="42.812636" lon="0.427895"><ele>1226.78</ele><time>2011-09-15T13:09:50Z</time></trkpt><trkpt lat="42.812784" lon="0.427918"><ele>1228.70</ele><time>2011-09-15T13:09:51Z</time></trkpt><trkpt lat="42.812910" lon="0.427957"><ele>1230.14</ele><time>2011-09-15T13:09:52Z</time></trkpt><trkpt lat="42.813026" lon="0.427982"><ele>1232.07</ele><time>2011-09-15T13:09:53Z</time></trkpt><trkpt lat="42.813101" lon="0.428071"><ele>1233.99</ele><time>2011-09-15T13:09:54Z</time></trkpt><trkpt lat="42.813143" lon="0.428184"><ele>1235.43</ele><time>2011-09-15T13:09:55Z</time></trkpt><trkpt lat="42.813127" lon="0.428297"><ele>1236.39</ele><time>2011-09-15T13:09:56Z</time></trkpt><trkpt lat="42.813073" lon="0.428384"><ele>1237.83</ele><time>2011-09-15T13:09:57Z</time></trkpt><trkpt lat="42.812967" lon="0.428403"><ele>1238.80</ele><time>2011-09-15T13:09:58Z</time></trkpt><trkpt lat="42.812863" lon="0.428416"><ele>1240.24</ele><time>2011-09-15T13:09:59Z</time></trkpt><trkpt lat="42.812739" lon="0.428401"><ele>1240.72</ele><time>2011-09-15T13:10:00Z</time></trkpt><trkpt lat="42.812602" lon="0.428373"><ele>1241.20</ele><time>2011-09-15T13:10:01Z</time></trkpt><trkpt lat="42.812455" lon="0.428325"><ele>1242.16</ele><time>2011-09-15T13:10:02Z</time></trkpt><trkpt lat="42.812145" lon="0.428197"><ele>1245.53</ele><time>2011-09-15T13:10:04Z</time></trkpt><trkpt lat="42.811072" lon="0.427461"><ele>1256.10</ele><time>2011-09-15T13:10:11Z</time></trkpt><trkpt lat="42.810232" lon="0.427037"><ele>1264.75</ele><time>2011-09-15T13:10:16Z</time></trkpt><trkpt lat="42.810072" lon="0.426922"><ele>1266.19</ele><time>2011-09-15T13:10:17Z</time></trkpt><trkpt lat="42.809323" lon="0.426369"><ele>1275.33</ele><time>2011-09-15T13:10:22Z</time></trkpt><trkpt lat="42.809190" lon="0.426219"><ele>1277.25</ele><time>2011-09-15T13:10:23Z</time></trkpt><trkpt lat="42.809069" lon="0.426054"><ele>1279.17</ele><time>2011-09-15T13:10:24Z</time></trkpt><trkpt lat="42.808729" lon="0.425583"><ele>1283.02</ele><time>2011-09-15T13:10:27Z</time></trkpt><trkpt lat="42.808593" lon="0.425464"><ele>1284.46</ele><time>2011-09-15T13:10:28Z</time></trkpt><trkpt lat="42.808444" lon="0.425367"><ele>1285.90</ele><time>2011-09-15T13:10:29Z</time></trkpt><trkpt lat="42.808279" lon="0.425288"><ele>1287.34</ele><time>2011-09-15T13:10:30Z</time></trkpt><trkpt lat="42.808106" lon="0.425218"><ele>1288.78</ele><time>2011-09-15T13:10:31Z</time></trkpt><trkpt lat="42.806305" lon="0.424727"><ele>1302.72</ele><time>2011-09-15T13:10:41Z</time></trkpt><trkpt lat="42.804566" lon="0.424562"><ele>1315.22</ele><time>2011-09-15T13:10:52Z</time></trkpt><trkpt lat="42.803960" lon="0.424565"><ele>1321.95</ele><time>2011-09-15T13:10:56Z</time></trkpt><trkpt lat="42.803820" lon="0.424610"><ele>1323.39</ele><time>2011-09-15T13:10:57Z</time></trkpt><trkpt lat="42.803680" lon="0.424674"><ele>1324.83</ele><time>2011-09-15T13:10:58Z</time></trkpt><trkpt lat="42.802598" lon="0.425473"><ele>1333.01</ele><time>2011-09-15T13:11:06Z</time></trkpt><trkpt lat="42.802511" lon="0.425598"><ele>1333.97</ele><time>2011-09-15T13:11:07Z</time></trkpt><trkpt lat="42.802462" lon="0.425767"><ele>1335.89</ele><time>2011-09-15T13:11:08Z</time></trkpt><trkpt lat="42.802111" lon="0.427037"><ele>1345.50</ele><time>2011-09-15T13:11:15Z</time></trkpt><trkpt lat="42.802083" lon="0.427231"><ele>1346.94</ele><time>2011-09-15T13:11:16Z</time></trkpt><trkpt lat="42.801820" lon="0.428677"><ele>1356.56</ele><time>2011-09-15T13:11:24Z</time></trkpt><trkpt lat="42.801725" lon="0.429579"><ele>1360.88</ele><time>2011-09-15T13:11:29Z</time></trkpt><trkpt lat="42.801733" lon="0.429753"><ele>1361.84</ele><time>2011-09-15T13:11:30Z</time></trkpt><trkpt lat="42.801745" lon="0.430282"><ele>1363.77</ele><time>2011-09-15T13:11:33Z</time></trkpt><trkpt lat="42.801723" lon="0.430459"><ele>1364.25</ele><time>2011-09-15T13:11:34Z</time></trkpt><trkpt lat="42.801685" lon="0.430639"><ele>1364.73</ele><time>2011-09-15T13:11:35Z</time></trkpt><trkpt lat="42.801633" lon="0.430818"><ele>1365.69</ele><time>2011-09-15T13:11:36Z</time></trkpt><trkpt lat="42.801571" lon="0.430992"><ele>1366.65</ele><time>2011-09-15T13:11:37Z</time></trkpt><trkpt lat="42.801455" lon="0.431354"><ele>1368.57</ele><time>2011-09-15T13:11:39Z</time></trkpt><trkpt lat="42.801412" lon="0.431560"><ele>1369.54</ele><time>2011-09-15T13:11:40Z</time></trkpt><trkpt lat="42.801385" lon="0.431791"><ele>1370.50</ele><time>2011-09-15T13:11:41Z</time></trkpt><trkpt lat="42.801374" lon="0.432043"><ele>1371.94</ele><time>2011-09-15T13:11:42Z</time></trkpt><trkpt lat="42.801374" lon="0.432313"><ele>1373.38</ele><time>2011-09-15T13:11:43Z</time></trkpt><trkpt lat="42.801201" lon="0.434226"><ele>1384.44</ele><time>2011-09-15T13:11:50Z</time></trkpt><trkpt lat="42.800849" lon="0.436439"><ele>1396.93</ele><time>2011-09-15T13:11:58Z</time></trkpt><trkpt lat="42.800828" lon="0.436726"><ele>1398.37</ele><time>2011-09-15T13:11:59Z</time></trkpt><trkpt lat="42.800832" lon="0.437026"><ele>1399.82</ele><time>2011-09-15T13:12:00Z</time></trkpt><trkpt lat="42.800902" lon="0.439049"><ele>1410.87</ele><time>2011-09-15T13:12:07Z</time></trkpt><trkpt lat="42.801065" lon="0.440953"><ele>1421.45</ele><time>2011-09-15T13:12:15Z</time></trkpt><trkpt lat="42.801081" lon="0.441160"><ele>1422.41</ele><time>2011-09-15T13:12:16Z</time></trkpt><trkpt lat="42.801119" lon="0.441358"><ele>1423.85</ele><time>2011-09-15T13:12:17Z</time></trkpt><trkpt lat="42.801206" lon="0.441510"><ele>1424.81</ele><time>2011-09-15T13:12:18Z</time></trkpt><trkpt lat="42.801306" lon="0.441661"><ele>1425.77</ele><time>2011-09-15T13:12:19Z</time></trkpt><trkpt lat="42.801387" lon="0.441822"><ele>1426.73</ele><time>2011-09-15T13:12:20Z</time></trkpt><trkpt lat="42.801444" lon="0.442000"><ele>1427.70</ele><time>2011-09-15T13:12:21Z</time></trkpt><trkpt lat="42.801483" lon="0.442193"><ele>1429.14</ele><time>2011-09-15T13:12:22Z</time></trkpt><trkpt lat="42.801515" lon="0.442394"><ele>1430.58</ele><time>2011-09-15T13:12:23Z</time></trkpt><trkpt lat="42.801666" lon="0.443187"><ele>1435.87</ele><time>2011-09-15T13:12:27Z</time></trkpt><trkpt lat="42.801737" lon="0.443356"><ele>1437.31</ele><time>2011-09-15T13:12:28Z</time></trkpt><trkpt lat="42.801821" lon="0.443516"><ele>1438.75</ele><time>2011-09-15T13:12:29Z</time></trkpt><trkpt lat="42.802054" lon="0.443947"><ele>1442.60</ele><time>2011-09-15T13:12:32Z</time></trkpt><trkpt lat="42.802105" lon="0.444093"><ele>1444.04</ele><time>2011-09-15T13:12:33Z</time></trkpt><trkpt lat="42.802116" lon="0.444255"><ele>1445.00</ele><time>2011-09-15T13:12:34Z</time></trkpt><trkpt lat="42.802083" lon="0.444428"><ele>1446.44</ele><time>2011-09-15T13:12:35Z</time></trkpt><trkpt lat="42.802049" lon="0.444611"><ele>1448.36</ele><time>2011-09-15T13:12:36Z</time></trkpt><trkpt lat="42.802026" lon="0.444807"><ele>1449.81</ele><time>2011-09-15T13:12:37Z</time></trkpt><trkpt lat="42.802018" lon="0.445008"><ele>1451.25</ele><time>2011-09-15T13:12:38Z</time></trkpt><trkpt lat="42.801965" lon="0.446709"><ele>1462.78</ele><time>2011-09-15T13:12:45Z</time></trkpt><trkpt lat="42.801804" lon="0.448981"><ele>1478.16</ele><time>2011-09-15T13:12:53Z</time></trkpt><trkpt lat="42.801825" lon="0.449463"><ele>1482.01</ele><time>2011-09-15T13:12:55Z</time></trkpt><trkpt lat="42.801874" lon="0.449700"><ele>1483.93</ele><time>2011-09-15T13:12:56Z</time></trkpt><trkpt lat="42.801944" lon="0.449937"><ele>1485.37</ele><time>2011-09-15T13:12:57Z</time></trkpt><trkpt lat="42.802317" lon="0.451958"><ele>1499.79</ele><time>2011-09-15T13:13:05Z</time></trkpt><trkpt lat="42.802323" lon="0.452667"><ele>1504.60</ele><time>2011-09-15T13:13:08Z</time></trkpt><trkpt lat="42.802283" lon="0.452875"><ele>1506.04</ele><time>2011-09-15T13:13:09Z</time></trkpt><trkpt lat="42.802210" lon="0.453068"><ele>1507.97</ele><time>2011-09-15T13:13:10Z</time></trkpt><trkpt lat="42.802062" lon="0.453468"><ele>1510.85</ele><time>2011-09-15T13:13:12Z</time></trkpt><trkpt lat="42.802021" lon="0.453693"><ele>1512.77</ele><time>2011-09-15T13:13:13Z</time></trkpt><trkpt lat="42.802008" lon="0.453935"><ele>1514.21</ele><time>2011-09-15T13:13:14Z</time></trkpt><trkpt lat="42.801974" lon="0.454714"><ele>1519.98</ele><time>2011-09-15T13:13:17Z</time></trkpt><trkpt lat="42.801935" lon="0.454976"><ele>1521.90</ele><time>2011-09-15T13:13:18Z</time></trkpt><trkpt lat="42.801715" lon="0.456867"><ele>1534.88</ele><time>2011-09-15T13:13:25Z</time></trkpt><trkpt lat="42.801684" lon="0.457353"><ele>1538.25</ele><time>2011-09-15T13:13:27Z</time></trkpt><trkpt lat="42.801704" lon="0.457596"><ele>1540.17</ele><time>2011-09-15T13:13:28Z</time></trkpt><trkpt lat="42.801742" lon="0.457848"><ele>1542.09</ele><time>2011-09-15T13:13:29Z</time></trkpt><trkpt lat="42.801773" lon="0.458107"><ele>1544.01</ele><time>2011-09-15T13:13:30Z</time></trkpt><trkpt lat="42.801793" lon="0.458362"><ele>1545.46</ele><time>2011-09-15T13:13:31Z</time></trkpt><trkpt lat="42.801865" lon="0.459483"><ele>1553.63</ele><time>2011-09-15T13:13:37Z</time></trkpt><trkpt lat="42.802071" lon="0.461145"><ele>1560.84</ele><time>2011-09-15T13:13:47Z</time></trkpt><trkpt lat="42.802221" lon="0.462543"><ele>1564.20</ele><time>2011-09-15T13:13:57Z</time></trkpt><trkpt lat="42.802249" lon="0.462917"><ele>1564.68</ele><time>2011-09-15T13:14:02Z</time></trkpt><trkpt lat="42.802266" lon="0.462972"><ele>1564.68</ele><time>2011-09-15T13:14:03Z</time></trkpt><trkpt lat="42.802284" lon="0.463014"><ele>1564.68</ele><time>2011-09-15T13:14:04Z</time></trkpt><trkpt lat="42.802294" lon="0.463053"><ele>1564.20</ele><time>2011-09-15T13:14:05Z</time></trkpt><trkpt lat="42.802298" lon="0.463093"><ele>1564.20</ele><time>2011-09-15T13:14:06Z</time></trkpt><trkpt lat="42.802297" lon="0.463140"><ele>1564.20</ele><time>2011-09-15T13:14:07Z</time></trkpt><trkpt lat="42.802291" lon="0.463204"><ele>1563.72</ele><time>2011-09-15T13:14:08Z</time></trkpt><trkpt lat="42.802280" lon="0.463288"><ele>1563.24</ele><time>2011-09-15T13:14:09Z</time></trkpt><trkpt lat="42.802269" lon="0.464032"><ele>1558.92</ele><time>2011-09-15T13:14:17Z</time></trkpt><trkpt lat="42.802286" lon="0.464086"><ele>1557.95</ele><time>2011-09-15T13:14:18Z</time></trkpt><trkpt lat="42.802308" lon="0.464129"><ele>1557.47</ele><time>2011-09-15T13:14:19Z</time></trkpt><trkpt lat="42.802414" lon="0.464316"><ele>1556.03</ele><time>2011-09-15T13:14:30Z</time></trkpt><trkpt lat="42.802456" lon="0.464290"><ele>1557.47</ele><time>2011-09-15T13:17:11Z</time></trkpt><trkpt lat="42.802482" lon="0.464178"><ele>1559.88</ele><time>2011-09-15T13:17:20Z</time></trkpt><trkpt lat="42.802362" lon="0.463821"><ele>1561.80</ele><time>2011-09-15T13:17:35Z</time></trkpt><trkpt lat="42.802332" lon="0.463608"><ele>1563.24</ele><time>2011-09-15T13:17:37Z</time></trkpt><trkpt lat="42.802256" lon="0.462230"><ele>1565.64</ele><time>2011-09-15T13:17:49Z</time></trkpt><trkpt lat="42.802026" lon="0.460134"><ele>1558.43</ele><time>2011-09-15T13:18:05Z</time></trkpt><trkpt lat="42.801943" lon="0.459452"><ele>1555.07</ele><time>2011-09-15T13:18:13Z</time></trkpt><trkpt lat="42.801927" lon="0.459409"><ele>1555.07</ele><time>2011-09-15T13:18:14Z</time></trkpt><trkpt lat="42.801901" lon="0.459384"><ele>1554.59</ele><time>2011-09-15T13:18:15Z</time></trkpt><trkpt lat="42.801822" lon="0.459318"><ele>1555.55</ele><time>2011-09-15T13:18:25Z</time></trkpt><trkpt lat="42.801813" lon="0.459234"><ele>1553.63</ele><time>2011-09-15T13:20:31Z</time></trkpt><trkpt lat="42.801824" lon="0.459210"><ele>1553.63</ele><time>2011-09-15T13:20:32Z</time></trkpt><trkpt lat="42.801847" lon="0.459200"><ele>1553.63</ele><time>2011-09-15T13:20:33Z</time></trkpt><trkpt lat="42.801872" lon="0.459212"><ele>1553.63</ele><time>2011-09-15T13:20:34Z</time></trkpt><trkpt lat="42.801891" lon="0.459245"><ele>1553.63</ele><time>2011-09-15T13:20:35Z</time></trkpt><trkpt lat="42.801905" lon="0.459295"><ele>1554.59</ele><time>2011-09-15T13:20:36Z</time></trkpt><trkpt lat="42.801915" lon="0.459361"><ele>1555.07</ele><time>2011-09-15T13:20:37Z</time></trkpt><trkpt lat="42.801996" lon="0.460115"><ele>1557.47</ele><time>2011-09-15T13:20:44Z</time></trkpt><trkpt lat="42.802160" lon="0.461408"><ele>1562.28</ele><time>2011-09-15T13:20:53Z</time></trkpt><trkpt lat="42.802306" lon="0.463391"><ele>1563.72</ele><time>2011-09-15T13:21:05Z</time></trkpt><trkpt lat="42.802320" lon="0.463719"><ele>1562.28</ele><time>2011-09-15T13:21:07Z</time></trkpt><trkpt lat="42.802346" lon="0.463887"><ele>1561.32</ele><time>2011-09-15T13:21:08Z</time></trkpt><trkpt lat="42.802389" lon="0.464054"><ele>1560.36</ele><time>2011-09-15T13:21:09Z</time></trkpt><trkpt lat="42.802878" lon="0.465909"><ele>1547.38</ele><time>2011-09-15T13:21:19Z</time></trkpt><trkpt lat="42.803062" lon="0.466466"><ele>1543.53</ele><time>2011-09-15T13:21:22Z</time></trkpt><trkpt lat="42.803146" lon="0.466632"><ele>1542.09</ele><time>2011-09-15T13:21:23Z</time></trkpt><trkpt lat="42.803238" lon="0.466788"><ele>1540.65</ele><time>2011-09-15T13:21:24Z</time></trkpt><trkpt lat="42.804606" lon="0.468576"><ele>1521.90</ele><time>2011-09-15T13:21:38Z</time></trkpt><trkpt lat="42.804721" lon="0.468696"><ele>1519.98</ele><time>2011-09-15T13:21:40Z</time></trkpt><trkpt lat="42.804747" lon="0.468763"><ele>1519.98</ele><time>2011-09-15T13:21:41Z</time></trkpt><trkpt lat="42.804747" lon="0.468819"><ele>1519.98</ele><time>2011-09-15T13:21:42Z</time></trkpt><trkpt lat="42.804698" lon="0.468836"><ele>1519.98</ele><time>2011-09-15T13:21:43Z</time></trkpt><trkpt lat="42.804650" lon="0.468833"><ele>1519.98</ele><time>2011-09-15T13:21:44Z</time></trkpt><trkpt lat="42.804604" lon="0.468821"><ele>1519.50</ele><time>2011-09-15T13:21:45Z</time></trkpt><trkpt lat="42.804509" lon="0.468752"><ele>1518.54</ele><time>2011-09-15T13:21:53Z</time></trkpt><trkpt lat="42.804348" lon="0.468537"><ele>1516.62</ele><time>2011-09-15T13:22:01Z</time></trkpt><trkpt lat="42.804266" lon="0.468458"><ele>1515.66</ele><time>2011-09-15T13:22:02Z</time></trkpt><trkpt lat="42.803334" lon="0.467775"><ele>1505.56</ele><time>2011-09-15T13:22:10Z</time></trkpt><trkpt lat="42.801786" lon="0.466931"><ele>1491.62</ele><time>2011-09-15T13:22:22Z</time></trkpt><trkpt lat="42.801690" lon="0.466937"><ele>1491.14</ele><time>2011-09-15T13:22:23Z</time></trkpt><trkpt lat="42.801623" lon="0.466997"><ele>1491.14</ele><time>2011-09-15T13:22:24Z</time></trkpt><trkpt lat="42.801581" lon="0.467100"><ele>1490.66</ele><time>2011-09-15T13:22:25Z</time></trkpt><trkpt lat="42.801589" lon="0.467213"><ele>1490.18</ele><time>2011-09-15T13:22:26Z</time></trkpt><trkpt lat="42.801628" lon="0.467301"><ele>1489.70</ele><time>2011-09-15T13:22:27Z</time></trkpt><trkpt lat="42.801689" lon="0.467349"><ele>1489.22</ele><time>2011-09-15T13:22:28Z</time></trkpt><trkpt lat="42.801771" lon="0.467371"><ele>1488.74</ele><time>2011-09-15T13:22:29Z</time></trkpt><trkpt lat="42.801846" lon="0.467373"><ele>1488.26</ele><time>2011-09-15T13:22:30Z</time></trkpt><trkpt lat="42.801946" lon="0.467363"><ele>1487.30</ele><time>2011-09-15T13:22:31Z</time></trkpt><trkpt lat="42.802059" lon="0.467374"><ele>1486.34</ele><time>2011-09-15T13:22:32Z</time></trkpt><trkpt lat="42.802177" lon="0.467414"><ele>1485.37</ele><time>2011-09-15T13:22:33Z</time></trkpt><trkpt lat="42.802294" lon="0.467482"><ele>1483.93</ele><time>2011-09-15T13:22:34Z</time></trkpt><trkpt lat="42.802406" lon="0.467568"><ele>1482.97</ele><time>2011-09-15T13:22:35Z</time></trkpt><trkpt lat="42.802514" lon="0.467668"><ele>1482.01</ele><time>2011-09-15T13:22:36Z</time></trkpt><trkpt lat="42.802619" lon="0.467784"><ele>1481.05</ele><time>2011-09-15T13:22:37Z</time></trkpt><trkpt lat="42.802721" lon="0.467913"><ele>1479.61</ele><time>2011-09-15T13:22:38Z</time></trkpt><trkpt lat="42.802821" lon="0.468050"><ele>1478.16</ele><time>2011-09-15T13:22:39Z</time></trkpt><trkpt lat="42.803856" lon="0.469307"><ele>1466.63</ele><time>2011-09-15T13:22:50Z</time></trkpt><trkpt lat="42.803897" lon="0.469388"><ele>1466.15</ele><time>2011-09-15T13:22:51Z</time></trkpt><trkpt lat="42.803918" lon="0.469467"><ele>1465.19</ele><time>2011-09-15T13:22:52Z</time></trkpt><trkpt lat="42.803888" lon="0.469511"><ele>1464.71</ele><time>2011-09-15T13:22:53Z</time></trkpt><trkpt lat="42.803812" lon="0.469511"><ele>1463.74</ele><time>2011-09-15T13:22:54Z</time></trkpt><trkpt lat="42.803743" lon="0.469462"><ele>1463.26</ele><time>2011-09-15T13:22:55Z</time></trkpt><trkpt lat="42.803684" lon="0.469386"><ele>1462.78</ele><time>2011-09-15T13:22:56Z</time></trkpt><trkpt lat="42.803619" lon="0.469293"><ele>1462.30</ele><time>2011-09-15T13:22:57Z</time></trkpt><trkpt lat="42.803538" lon="0.469198"><ele>1461.82</ele><time>2011-09-15T13:22:58Z</time></trkpt><trkpt lat="42.803439" lon="0.469110"><ele>1460.86</ele><time>2011-09-15T13:22:59Z</time></trkpt><trkpt lat="42.803328" lon="0.469034"><ele>1459.90</ele><time>2011-09-15T13:23:00Z</time></trkpt><trkpt lat="42.803210" lon="0.468972"><ele>1458.94</ele><time>2011-09-15T13:23:01Z</time></trkpt><trkpt lat="42.803081" lon="0.468920"><ele>1457.98</ele><time>2011-09-15T13:23:02Z</time></trkpt><trkpt lat="42.802938" lon="0.468879"><ele>1457.02</ele><time>2011-09-15T13:23:03Z</time></trkpt><trkpt lat="42.802783" lon="0.468853"><ele>1455.57</ele><time>2011-09-15T13:23:04Z</time></trkpt><trkpt lat="42.802624" lon="0.468843"><ele>1453.65</ele><time>2011-09-15T13:23:05Z</time></trkpt><trkpt lat="42.802465" lon="0.468851"><ele>1452.21</ele><time>2011-09-15T13:23:06Z</time></trkpt><trkpt lat="42.802312" lon="0.468880"><ele>1450.77</ele><time>2011-09-15T13:23:07Z</time></trkpt><trkpt lat="42.802168" lon="0.468925"><ele>1449.81</ele><time>2011-09-15T13:23:08Z</time></trkpt><trkpt lat="42.802036" lon="0.468976"><ele>1448.36</ele><time>2011-09-15T13:23:09Z</time></trkpt><trkpt lat="42.801921" lon="0.469030"><ele>1447.40</ele><time>2011-09-15T13:23:10Z</time></trkpt><trkpt lat="42.801837" lon="0.469128"><ele>1446.44</ele><time>2011-09-15T13:23:11Z</time></trkpt><trkpt lat="42.801785" lon="0.469253"><ele>1445.00</ele><time>2011-09-15T13:23:12Z</time></trkpt><trkpt lat="42.801741" lon="0.469393"><ele>1444.04</ele><time>2011-09-15T13:23:13Z</time></trkpt><trkpt lat="42.801714" lon="0.469554"><ele>1443.08</ele><time>2011-09-15T13:23:14Z</time></trkpt><trkpt lat="42.801696" lon="0.469732"><ele>1442.11</ele><time>2011-09-15T13:23:15Z</time></trkpt><trkpt lat="42.801681" lon="0.469918"><ele>1440.67</ele><time>2011-09-15T13:23:16Z</time></trkpt><trkpt lat="42.801410" lon="0.471358"><ele>1430.10</ele><time>2011-09-15T13:23:24Z</time></trkpt><trkpt lat="42.801399" lon="0.471527"><ele>1429.14</ele><time>2011-09-15T13:23:25Z</time></trkpt><trkpt lat="42.801411" lon="0.471697"><ele>1428.18</ele><time>2011-09-15T13:23:26Z</time></trkpt><trkpt lat="42.801497" lon="0.472185"><ele>1424.33</ele><time>2011-09-15T13:23:29Z</time></trkpt><trkpt lat="42.801542" lon="0.472326"><ele>1422.89</ele><time>2011-09-15T13:23:30Z</time></trkpt><trkpt lat="42.801598" lon="0.472461"><ele>1421.93</ele><time>2011-09-15T13:23:31Z</time></trkpt><trkpt lat="42.801665" lon="0.472588"><ele>1420.97</ele><time>2011-09-15T13:23:32Z</time></trkpt><trkpt lat="42.801742" lon="0.472705"><ele>1420.00</ele><time>2011-09-15T13:23:33Z</time></trkpt><trkpt lat="42.801826" lon="0.472813"><ele>1419.04</ele><time>2011-09-15T13:23:34Z</time></trkpt><trkpt lat="42.801913" lon="0.472919"><ele>1418.08</ele><time>2011-09-15T13:23:35Z</time></trkpt><trkpt lat="42.802157" lon="0.473290"><ele>1415.20</ele><time>2011-09-15T13:23:38Z</time></trkpt><trkpt lat="42.802221" lon="0.473447"><ele>1414.24</ele><time>2011-09-15T13:23:39Z</time></trkpt><trkpt lat="42.802442" lon="0.474021"><ele>1410.87</ele><time>2011-09-15T13:23:42Z</time></trkpt><trkpt lat="42.802874" lon="0.474747"><ele>1405.58</ele><time>2011-09-15T13:23:46Z</time></trkpt><trkpt lat="42.804035" lon="0.476321"><ele>1391.65</ele><time>2011-09-15T13:23:56Z</time></trkpt><trkpt lat="42.804586" lon="0.477755"><ele>1379.63</ele><time>2011-09-15T13:24:03Z</time></trkpt><trkpt lat="42.804643" lon="0.477988"><ele>1378.19</ele><time>2011-09-15T13:24:04Z</time></trkpt><trkpt lat="42.805184" lon="0.480071"><ele>1364.25</ele><time>2011-09-15T13:24:13Z</time></trkpt><trkpt lat="42.805265" lon="0.480268"><ele>1362.81</ele><time>2011-09-15T13:24:14Z</time></trkpt><trkpt lat="42.805367" lon="0.480442"><ele>1361.84</ele><time>2011-09-15T13:24:15Z</time></trkpt><trkpt lat="42.806568" lon="0.482131"><ele>1347.43</ele><time>2011-09-15T13:24:25Z</time></trkpt><trkpt lat="42.807432" lon="0.483586"><ele>1335.41</ele><time>2011-09-15T13:24:33Z</time></trkpt><trkpt lat="42.807501" lon="0.483809"><ele>1333.97</ele><time>2011-09-15T13:24:34Z</time></trkpt><trkpt lat="42.807555" lon="0.484041"><ele>1332.52</ele><time>2011-09-15T13:24:35Z</time></trkpt><trkpt lat="42.807595" lon="0.484278"><ele>1331.08</ele><time>2011-09-15T13:24:36Z</time></trkpt><trkpt lat="42.807621" lon="0.484514"><ele>1330.12</ele><time>2011-09-15T13:24:37Z</time></trkpt><trkpt lat="42.807635" lon="0.484750"><ele>1328.68</ele><time>2011-09-15T13:24:38Z</time></trkpt><trkpt lat="42.807640" lon="0.484985"><ele>1327.24</ele><time>2011-09-15T13:24:39Z</time></trkpt><trkpt lat="42.807606" lon="0.487692"><ele>1310.41</ele><time>2011-09-15T13:24:50Z</time></trkpt><trkpt lat="42.807370" lon="0.489632"><ele>1298.88</ele><time>2011-09-15T13:24:58Z</time></trkpt><trkpt lat="42.806944" lon="0.491818"><ele>1283.98</ele><time>2011-09-15T13:25:07Z</time></trkpt><trkpt lat="42.806348" lon="0.495471"><ele>1255.62</ele><time>2011-09-15T13:25:21Z</time></trkpt><trkpt lat="42.806254" lon="0.497066"><ele>1243.60</ele><time>2011-09-15T13:25:28Z</time></trkpt><trkpt lat="42.806293" lon="0.497223"><ele>1242.64</ele><time>2011-09-15T13:25:29Z</time></trkpt><trkpt lat="42.806352" lon="0.497373"><ele>1241.68</ele><time>2011-09-15T13:25:30Z</time></trkpt><trkpt lat="42.806541" lon="0.497858"><ele>1237.83</ele><time>2011-09-15T13:25:33Z</time></trkpt><trkpt lat="42.806579" lon="0.498047"><ele>1236.39</ele><time>2011-09-15T13:25:34Z</time></trkpt><trkpt lat="42.806596" lon="0.498248"><ele>1235.43</ele><time>2011-09-15T13:25:35Z</time></trkpt><trkpt lat="42.806597" lon="0.498454"><ele>1233.99</ele><time>2011-09-15T13:25:36Z</time></trkpt><trkpt lat="42.806593" lon="0.498661"><ele>1233.03</ele><time>2011-09-15T13:25:37Z</time></trkpt><trkpt lat="42.806555" lon="0.499239"><ele>1230.14</ele><time>2011-09-15T13:25:40Z</time></trkpt><trkpt lat="42.806507" lon="0.499407"><ele>1229.18</ele><time>2011-09-15T13:25:41Z</time></trkpt><trkpt lat="42.806442" lon="0.499563"><ele>1227.74</ele><time>2011-09-15T13:25:42Z</time></trkpt><trkpt lat="42.805859" lon="0.500847"><ele>1217.65</ele><time>2011-09-15T13:25:52Z</time></trkpt><trkpt lat="42.805781" lon="0.501051"><ele>1215.72</ele><time>2011-09-15T13:25:55Z</time></trkpt><trkpt lat="42.805755" lon="0.501097"><ele>1215.24</ele><time>2011-09-15T13:25:56Z</time></trkpt><trkpt lat="42.805734" lon="0.501129"><ele>1214.76</ele><time>2011-09-15T13:25:57Z</time></trkpt><trkpt lat="42.805723" lon="0.501127"><ele>1214.28</ele><time>2011-09-15T13:26:07Z</time></trkpt><trkpt lat="42.805590" lon="0.501426"><ele>1212.36</ele><time>2011-09-15T13:26:18Z</time></trkpt><trkpt lat="42.805477" lon="0.501791"><ele>1210.92</ele><time>2011-09-15T13:26:21Z</time></trkpt><trkpt lat="42.805455" lon="0.501932"><ele>1210.44</ele><time>2011-09-15T13:26:22Z</time></trkpt><trkpt lat="42.805442" lon="0.502072"><ele>1209.48</ele><time>2011-09-15T13:26:23Z</time></trkpt><trkpt lat="42.805444" lon="0.502213"><ele>1208.51</ele><time>2011-09-15T13:26:24Z</time></trkpt><trkpt lat="42.805465" lon="0.502348"><ele>1208.03</ele><time>2011-09-15T13:26:25Z</time></trkpt><trkpt lat="42.805504" lon="0.502468"><ele>1207.07</ele><time>2011-09-15T13:26:26Z</time></trkpt><trkpt lat="42.805560" lon="0.502571"><ele>1206.11</ele><time>2011-09-15T13:26:27Z</time></trkpt><trkpt lat="42.805629" lon="0.502660"><ele>1205.15</ele><time>2011-09-15T13:26:28Z</time></trkpt><trkpt lat="42.805704" lon="0.502739"><ele>1204.19</ele><time>2011-09-15T13:26:29Z</time></trkpt><trkpt lat="42.805780" lon="0.502815"><ele>1203.23</ele><time>2011-09-15T13:26:30Z</time></trkpt><trkpt lat="42.806548" lon="0.503604"><ele>1196.02</ele><time>2011-09-15T13:26:39Z</time></trkpt><trkpt lat="42.806618" lon="0.503742"><ele>1194.58</ele><time>2011-09-15T13:26:40Z</time></trkpt><trkpt lat="42.806674" lon="0.503888"><ele>1193.61</ele><time>2011-09-15T13:26:41Z</time></trkpt><trkpt lat="42.806716" lon="0.504042"><ele>1192.17</ele><time>2011-09-15T13:26:42Z</time></trkpt><trkpt lat="42.806744" lon="0.504205"><ele>1190.73</ele><time>2011-09-15T13:26:43Z</time></trkpt><trkpt lat="42.806765" lon="0.504371"><ele>1189.29</ele><time>2011-09-15T13:26:44Z</time></trkpt><trkpt lat="42.806942" lon="0.505978"><ele>1178.71</ele><time>2011-09-15T13:26:53Z</time></trkpt><trkpt lat="42.807306" lon="0.508225"><ele>1163.81</ele><time>2011-09-15T13:27:03Z</time></trkpt><trkpt lat="42.807816" lon="0.510112"><ele>1153.24</ele><time>2011-09-15T13:27:12Z</time></trkpt><trkpt lat="42.808156" lon="0.511942"><ele>1141.70</ele><time>2011-09-15T13:27:20Z</time></trkpt><trkpt lat="42.808190" lon="0.512173"><ele>1140.26</ele><time>2011-09-15T13:27:21Z</time></trkpt><trkpt lat="42.808204" lon="0.512404"><ele>1139.30</ele><time>2011-09-15T13:27:22Z</time></trkpt><trkpt lat="42.808190" lon="0.512633"><ele>1137.86</ele><time>2011-09-15T13:27:23Z</time></trkpt><trkpt lat="42.808164" lon="0.512871"><ele>1136.90</ele><time>2011-09-15T13:27:24Z</time></trkpt><trkpt lat="42.808133" lon="0.513109"><ele>1135.45</ele><time>2011-09-15T13:27:25Z</time></trkpt><trkpt lat="42.808023" lon="0.514223"><ele>1128.24</ele><time>2011-09-15T13:27:30Z</time></trkpt><trkpt lat="42.808028" lon="0.514405"><ele>1126.80</ele><time>2011-09-15T13:27:31Z</time></trkpt><trkpt lat="42.808048" lon="0.514578"><ele>1124.88</ele><time>2011-09-15T13:27:32Z</time></trkpt><trkpt lat="42.808088" lon="0.514737"><ele>1123.92</ele><time>2011-09-15T13:27:33Z</time></trkpt><trkpt lat="42.808151" lon="0.514876"><ele>1122.96</ele><time>2011-09-15T13:27:34Z</time></trkpt><trkpt lat="42.808234" lon="0.514992"><ele>1121.52</ele><time>2011-09-15T13:27:35Z</time></trkpt><trkpt lat="42.808337" lon="0.515050"><ele>1120.07</ele><time>2011-09-15T13:27:36Z</time></trkpt><trkpt lat="42.808441" lon="0.515105"><ele>1119.11</ele><time>2011-09-15T13:27:37Z</time></trkpt><trkpt lat="42.808538" lon="0.515161"><ele>1118.15</ele><time>2011-09-15T13:27:38Z</time></trkpt><trkpt lat="42.808609" lon="0.515243"><ele>1117.67</ele><time>2011-09-15T13:27:39Z</time></trkpt><trkpt lat="42.808645" lon="0.515360"><ele>1117.67</ele><time>2011-09-15T13:27:40Z</time></trkpt><trkpt lat="42.808668" lon="0.515496"><ele>1118.15</ele><time>2011-09-15T13:27:41Z</time></trkpt><trkpt lat="42.808680" lon="0.515642"><ele>1118.63</ele><time>2011-09-15T13:27:42Z</time></trkpt><trkpt lat="42.808697" lon="0.515795"><ele>1118.15</ele><time>2011-09-15T13:27:43Z</time></trkpt><trkpt lat="42.808830" lon="0.517760"><ele>1112.86</ele><time>2011-09-15T13:27:57Z</time></trkpt><trkpt lat="42.808818" lon="0.517902"><ele>1112.86</ele><time>2011-09-15T13:27:58Z</time></trkpt><trkpt lat="42.808683" lon="0.518811"><ele>1109.98</ele><time>2011-09-15T13:28:05Z</time></trkpt><trkpt lat="42.808633" lon="0.518933"><ele>1109.50</ele><time>2011-09-15T13:28:06Z</time></trkpt><trkpt lat="42.808575" lon="0.519048"><ele>1108.54</ele><time>2011-09-15T13:28:07Z</time></trkpt><trkpt lat="42.808511" lon="0.519157"><ele>1107.58</ele><time>2011-09-15T13:28:08Z</time></trkpt><trkpt lat="42.808444" lon="0.519261"><ele>1106.61</ele><time>2011-09-15T13:28:09Z</time></trkpt><trkpt lat="42.808292" lon="0.519439"><ele>1104.69</ele><time>2011-09-15T13:28:11Z</time></trkpt><trkpt lat="42.808204" lon="0.519496"><ele>1103.73</ele><time>2011-09-15T13:28:12Z</time></trkpt><trkpt lat="42.808109" lon="0.519531"><ele>1102.77</ele><time>2011-09-15T13:28:13Z</time></trkpt><trkpt lat="42.808011" lon="0.519547"><ele>1101.81</ele><time>2011-09-15T13:28:14Z</time></trkpt><trkpt lat="42.807913" lon="0.519553"><ele>1100.85</ele><time>2011-09-15T13:28:15Z</time></trkpt><trkpt lat="42.807038" lon="0.519604"><ele>1091.23</ele><time>2011-09-15T13:28:25Z</time></trkpt><trkpt lat="42.806964" lon="0.519632"><ele>1090.27</ele><time>2011-09-15T13:28:33Z</time></trkpt><trkpt lat="42.806905" lon="0.519671"><ele>1088.83</ele><time>2011-09-15T13:28:59Z</time></trkpt><trkpt lat="42.806866" lon="0.519716"><ele>1088.83</ele><time>2011-09-15T13:29:00Z</time></trkpt><trkpt lat="42.806650" lon="0.519985"><ele>1085.47</ele><time>2011-09-15T13:29:04Z</time></trkpt><trkpt lat="42.806603" lon="0.520063"><ele>1084.50</ele><time>2011-09-15T13:29:05Z</time></trkpt><trkpt lat="42.806561" lon="0.520151"><ele>1084.02</ele><time>2011-09-15T13:29:06Z</time></trkpt><trkpt lat="42.806523" lon="0.520249"><ele>1083.06</ele><time>2011-09-15T13:29:07Z</time></trkpt><trkpt lat="42.806488" lon="0.520354"><ele>1082.10</ele><time>2011-09-15T13:29:08Z</time></trkpt><trkpt lat="42.805995" lon="0.521703"><ele>1070.08</ele><time>2011-09-15T13:29:18Z</time></trkpt><trkpt lat="42.805951" lon="0.521866"><ele>1068.64</ele><time>2011-09-15T13:29:19Z</time></trkpt><trkpt lat="42.805927" lon="0.522040"><ele>1067.20</ele><time>2011-09-15T13:29:20Z</time></trkpt><trkpt lat="42.805922" lon="0.522226"><ele>1065.76</ele><time>2011-09-15T13:29:21Z</time></trkpt><trkpt lat="42.805932" lon="0.522422"><ele>1064.32</ele><time>2011-09-15T13:29:22Z</time></trkpt><trkpt lat="42.805949" lon="0.522625"><ele>1062.87</ele><time>2011-09-15T13:29:23Z</time></trkpt><trkpt lat="42.806014" lon="0.525062"><ele>1044.13</ele><time>2011-09-15T13:29:35Z</time></trkpt><trkpt lat="42.806404" lon="0.526873"><ele>1029.71</ele><time>2011-09-15T13:29:44Z</time></trkpt><trkpt lat="42.807003" lon="0.528692"><ele>1014.33</ele><time>2011-09-15T13:29:53Z</time></trkpt><trkpt lat="42.807316" lon="0.529875"><ele>1003.27</ele><time>2011-09-15T13:30:00Z</time></trkpt><trkpt lat="42.807352" lon="0.530499"><ele>998.47</ele><time>2011-09-15T13:30:04Z</time></trkpt><trkpt lat="42.807341" lon="0.530648"><ele>997.51</ele><time>2011-09-15T13:30:05Z</time></trkpt><trkpt lat="42.807318" lon="0.530798"><ele>996.54</ele><time>2011-09-15T13:30:06Z</time></trkpt><trkpt lat="42.806831" lon="0.533024"><ele>982.12</ele><time>2011-09-15T13:30:20Z</time></trkpt><trkpt lat="42.806802" lon="0.533191"><ele>981.16</ele><time>2011-09-15T13:30:21Z</time></trkpt><trkpt lat="42.806787" lon="0.533370"><ele>980.68</ele><time>2011-09-15T13:30:22Z</time></trkpt><trkpt lat="42.806785" lon="0.533558"><ele>979.72</ele><time>2011-09-15T13:30:23Z</time></trkpt><trkpt lat="42.806794" lon="0.533753"><ele>979.24</ele><time>2011-09-15T13:30:24Z</time></trkpt><trkpt lat="42.806811" lon="0.533950"><ele>978.76</ele><time>2011-09-15T13:30:25Z</time></trkpt><trkpt lat="42.806836" lon="0.534497"><ele>976.36</ele><time>2011-09-15T13:30:28Z</time></trkpt><trkpt lat="42.806822" lon="0.534662"><ele>975.88</ele><time>2011-09-15T13:30:29Z</time></trkpt><trkpt lat="42.806799" lon="0.534827"><ele>974.91</ele><time>2011-09-15T13:30:30Z</time></trkpt><trkpt lat="42.806572" lon="0.536648"><ele>970.59</ele><time>2011-09-15T13:30:41Z</time></trkpt><trkpt lat="42.806503" lon="0.538434"><ele>966.74</ele><time>2011-09-15T13:30:52Z</time></trkpt><trkpt lat="42.806163" lon="0.541154"><ele>953.28</ele><time>2011-09-15T13:31:06Z</time></trkpt><trkpt lat="42.806211" lon="0.543418"><ele>943.19</ele><time>2011-09-15T13:31:18Z</time></trkpt><trkpt lat="42.806423" lon="0.545280"><ele>933.58</ele><time>2011-09-15T13:31:29Z</time></trkpt><trkpt lat="42.806537" lon="0.546511"><ele>930.21</ele><time>2011-09-15T13:31:38Z</time></trkpt><trkpt lat="42.806475" lon="0.547954"><ele>923.00</ele><time>2011-09-15T13:31:50Z</time></trkpt><trkpt lat="42.806441" lon="0.548073"><ele>922.04</ele><time>2011-09-15T13:31:51Z</time></trkpt><trkpt lat="42.806399" lon="0.548186"><ele>921.08</ele><time>2011-09-15T13:31:52Z</time></trkpt><trkpt lat="42.806285" lon="0.548512"><ele>918.20</ele><time>2011-09-15T13:31:55Z</time></trkpt><trkpt lat="42.806268" lon="0.548628"><ele>917.24</ele><time>2011-09-15T13:31:56Z</time></trkpt><trkpt lat="42.806266" lon="0.548758"><ele>916.27</ele><time>2011-09-15T13:31:57Z</time></trkpt><trkpt lat="42.806274" lon="0.550151"><ele>910.03</ele><time>2011-09-15T13:32:09Z</time></trkpt><trkpt lat="42.806079" lon="0.551406"><ele>901.85</ele><time>2011-09-15T13:32:17Z</time></trkpt><trkpt lat="42.805933" lon="0.553453"><ele>885.99</ele><time>2011-09-15T13:32:28Z</time></trkpt><trkpt lat="42.806069" lon="0.555641"><ele>871.57</ele><time>2011-09-15T13:32:38Z</time></trkpt><trkpt lat="42.805804" lon="0.557236"><ele>860.04</ele><time>2011-09-15T13:32:45Z</time></trkpt><trkpt lat="42.805431" lon="0.558594"><ele>847.54</ele><time>2011-09-15T13:32:52Z</time></trkpt><trkpt lat="42.805436" lon="0.558752"><ele>846.10</ele><time>2011-09-15T13:32:53Z</time></trkpt><trkpt lat="42.805474" lon="0.558904"><ele>844.18</ele><time>2011-09-15T13:32:54Z</time></trkpt><trkpt lat="42.805542" lon="0.559043"><ele>842.73</ele><time>2011-09-15T13:32:55Z</time></trkpt><trkpt lat="42.805667" lon="0.559122"><ele>840.81</ele><time>2011-09-15T13:32:56Z</time></trkpt><trkpt lat="42.805773" lon="0.559223"><ele>839.37</ele><time>2011-09-15T13:32:57Z</time></trkpt><trkpt lat="42.805883" lon="0.559309"><ele>837.93</ele><time>2011-09-15T13:32:58Z</time></trkpt><trkpt lat="42.805994" lon="0.559386"><ele>836.48</ele><time>2011-09-15T13:32:59Z</time></trkpt><trkpt lat="42.806202" lon="0.559509"><ele>834.08</ele><time>2011-09-15T13:33:01Z</time></trkpt><trkpt lat="42.806298" lon="0.559533"><ele>833.12</ele><time>2011-09-15T13:33:02Z</time></trkpt><trkpt lat="42.806386" lon="0.559542"><ele>832.64</ele><time>2011-09-15T13:33:03Z</time></trkpt><trkpt lat="42.806462" lon="0.559559"><ele>831.68</ele><time>2011-09-15T13:33:04Z</time></trkpt><trkpt lat="42.806524" lon="0.559586"><ele>830.72</ele><time>2011-09-15T13:33:05Z</time></trkpt><trkpt lat="42.806566" lon="0.559616"><ele>829.76</ele><time>2011-09-15T13:33:06Z</time></trkpt><trkpt lat="42.806589" lon="0.559655"><ele>828.79</ele><time>2011-09-15T13:33:07Z</time></trkpt><trkpt lat="42.806598" lon="0.559710"><ele>827.35</ele><time>2011-09-15T13:33:08Z</time></trkpt><trkpt lat="42.806593" lon="0.559768"><ele>826.39</ele><time>2011-09-15T13:33:09Z</time></trkpt><trkpt lat="42.806573" lon="0.559820"><ele>825.43</ele><time>2011-09-15T13:33:10Z</time></trkpt><trkpt lat="42.806526" lon="0.559841"><ele>825.43</ele><time>2011-09-15T13:33:11Z</time></trkpt><trkpt lat="42.806459" lon="0.559831"><ele>824.95</ele><time>2011-09-15T13:33:12Z</time></trkpt><trkpt lat="42.806377" lon="0.559799"><ele>824.47</ele><time>2011-09-15T13:33:13Z</time></trkpt><trkpt lat="42.806288" lon="0.559752"><ele>823.99</ele><time>2011-09-15T13:33:14Z</time></trkpt><trkpt lat="42.805645" lon="0.559595"><ele>822.55</ele><time>2011-09-15T13:33:19Z</time></trkpt><trkpt lat="42.805466" lon="0.559605"><ele>821.58</ele><time>2011-09-15T13:33:20Z</time></trkpt><trkpt lat="42.805319" lon="0.559619"><ele>820.62</ele><time>2011-09-15T13:33:21Z</time></trkpt><trkpt lat="42.805184" lon="0.559666"><ele>819.18</ele><time>2011-09-15T13:33:22Z</time></trkpt><trkpt lat="42.805065" lon="0.559737"><ele>818.22</ele><time>2011-09-15T13:33:23Z</time></trkpt><trkpt lat="42.804943" lon="0.559798"><ele>816.78</ele><time>2011-09-15T13:33:24Z</time></trkpt><trkpt lat="42.804824" lon="0.559837"><ele>815.34</ele><time>2011-09-15T13:33:25Z</time></trkpt><trkpt lat="42.804716" lon="0.559864"><ele>814.85</ele><time>2011-09-15T13:33:26Z</time></trkpt><trkpt lat="42.804638" lon="0.559924"><ele>813.89</ele><time>2011-09-15T13:33:27Z</time></trkpt><trkpt lat="42.804598" lon="0.560026"><ele>813.89</ele><time>2011-09-15T13:33:28Z</time></trkpt><trkpt lat="42.804588" lon="0.560132"><ele>812.93</ele><time>2011-09-15T13:33:29Z</time></trkpt><trkpt lat="42.804627" lon="0.560234"><ele>812.45</ele><time>2011-09-15T13:33:30Z</time></trkpt><trkpt lat="42.804701" lon="0.560293"><ele>811.97</ele><time>2011-09-15T13:33:31Z</time></trkpt><trkpt lat="42.804795" lon="0.560300"><ele>811.01</ele><time>2011-09-15T13:33:32Z</time></trkpt><trkpt lat="42.804896" lon="0.560246"><ele>810.53</ele><time>2011-09-15T13:33:33Z</time></trkpt><trkpt lat="42.804996" lon="0.560173"><ele>810.05</ele><time>2011-09-15T13:33:34Z</time></trkpt><trkpt lat="42.805115" lon="0.560109"><ele>809.57</ele><time>2011-09-15T13:33:35Z</time></trkpt><trkpt lat="42.805237" lon="0.560063"><ele>808.61</ele><time>2011-09-15T13:33:36Z</time></trkpt><trkpt lat="42.805368" lon="0.560046"><ele>808.61</ele><time>2011-09-15T13:33:37Z</time></trkpt><trkpt lat="42.805515" lon="0.560060"><ele>808.13</ele><time>2011-09-15T13:33:38Z</time></trkpt><trkpt lat="42.805669" lon="0.560085"><ele>807.64</ele><time>2011-09-15T13:33:39Z</time></trkpt><trkpt lat="42.805825" lon="0.560123"><ele>807.16</ele><time>2011-09-15T13:33:40Z</time></trkpt><trkpt lat="42.806326" lon="0.560354"><ele>805.72</ele><time>2011-09-15T13:33:44Z</time></trkpt><trkpt lat="42.806377" lon="0.560447"><ele>804.76</ele><time>2011-09-15T13:33:45Z</time></trkpt><trkpt lat="42.806412" lon="0.560523"><ele>804.28</ele><time>2011-09-15T13:33:46Z</time></trkpt><trkpt lat="42.806416" lon="0.560602"><ele>803.80</ele><time>2011-09-15T13:33:47Z</time></trkpt><trkpt lat="42.806393" lon="0.560660"><ele>803.32</ele><time>2011-09-15T13:33:48Z</time></trkpt><trkpt lat="42.806362" lon="0.560705"><ele>803.80</ele><time>2011-09-15T13:33:49Z</time></trkpt><trkpt lat="42.806284" lon="0.560716"><ele>804.28</ele><time>2011-09-15T13:34:00Z</time></trkpt><trkpt lat="42.806243" lon="0.560787"><ele>801.40</ele><time>2011-09-15T13:34:25Z</time></trkpt><trkpt lat="42.806223" lon="0.560856"><ele>800.92</ele><time>2011-09-15T13:34:26Z</time></trkpt><trkpt lat="42.806185" lon="0.560943"><ele>800.92</ele><time>2011-09-15T13:34:27Z</time></trkpt><trkpt lat="42.806126" lon="0.560998"><ele>800.92</ele><time>2011-09-15T13:34:28Z</time></trkpt><trkpt lat="42.806047" lon="0.561037"><ele>800.92</ele><time>2011-09-15T13:34:29Z</time></trkpt><trkpt lat="42.805947" lon="0.561058"><ele>800.92</ele><time>2011-09-15T13:34:30Z</time></trkpt><trkpt lat="42.805836" lon="0.561066"><ele>800.44</ele><time>2011-09-15T13:34:31Z</time></trkpt><trkpt lat="42.805728" lon="0.561069"><ele>800.44</ele><time>2011-09-15T13:34:32Z</time></trkpt><trkpt lat="42.805509" lon="0.561107"><ele>800.44</ele><time>2011-09-15T13:34:34Z</time></trkpt><trkpt lat="42.805398" lon="0.561156"><ele>799.95</ele><time>2011-09-15T13:34:35Z</time></trkpt><trkpt lat="42.805288" lon="0.561217"><ele>799.47</ele><time>2011-09-15T13:34:36Z</time></trkpt><trkpt lat="42.804344" lon="0.561814"><ele>791.30</ele><time>2011-09-15T13:34:43Z</time></trkpt><trkpt lat="42.803788" lon="0.561974"><ele>786.98</ele><time>2011-09-15T13:34:47Z</time></trkpt><trkpt lat="42.803678" lon="0.561974"><ele>785.05</ele><time>2011-09-15T13:34:48Z</time></trkpt><trkpt lat="42.803471" lon="0.561973"><ele>782.65</ele><time>2011-09-15T13:34:50Z</time></trkpt><trkpt lat="42.803374" lon="0.561996"><ele>781.69</ele><time>2011-09-15T13:34:51Z</time></trkpt><trkpt lat="42.803281" lon="0.562041"><ele>779.77</ele><time>2011-09-15T13:34:52Z</time></trkpt><trkpt lat="42.803194" lon="0.562114"><ele>778.81</ele><time>2011-09-15T13:34:53Z</time></trkpt><trkpt lat="42.803116" lon="0.562237"><ele>777.36</ele><time>2011-09-15T13:34:54Z</time></trkpt><trkpt lat="42.803049" lon="0.562383"><ele>776.40</ele><time>2011-09-15T13:34:55Z</time></trkpt><trkpt lat="42.802982" lon="0.562541"><ele>774.96</ele><time>2011-09-15T13:34:56Z</time></trkpt><trkpt lat="42.802123" lon="0.563743"><ele>767.27</ele><time>2011-09-15T13:35:04Z</time></trkpt><trkpt lat="42.800754" lon="0.565284"><ele>756.21</ele><time>2011-09-15T13:35:14Z</time></trkpt><trkpt lat="42.799527" lon="0.566103"><ele>754.77</ele><time>2011-09-15T13:35:21Z</time></trkpt><trkpt lat="42.798919" lon="0.566530"><ele>757.18</ele><time>2011-09-15T13:35:25Z</time></trkpt><trkpt lat="42.798764" lon="0.566588"><ele>757.18</ele><time>2011-09-15T13:35:26Z</time></trkpt><trkpt lat="42.798597" lon="0.566623"><ele>758.14</ele><time>2011-09-15T13:35:27Z</time></trkpt><trkpt lat="42.798425" lon="0.566648"><ele>758.62</ele><time>2011-09-15T13:35:28Z</time></trkpt><trkpt lat="42.798248" lon="0.566662"><ele>758.14</ele><time>2011-09-15T13:35:29Z</time></trkpt><trkpt lat="42.798073" lon="0.566654"><ele>758.14</ele><time>2011-09-15T13:35:30Z</time></trkpt><trkpt lat="42.797790" lon="0.566643"><ele>759.58</ele><time>2011-09-15T13:35:32Z</time></trkpt><trkpt lat="42.797672" lon="0.566670"><ele>758.62</ele><time>2011-09-15T13:35:33Z</time></trkpt><trkpt lat="42.797557" lon="0.566779"><ele>758.14</ele><time>2011-09-15T13:35:34Z</time></trkpt><trkpt lat="42.797477" lon="0.566951"><ele>756.69</ele><time>2011-09-15T13:35:35Z</time></trkpt><trkpt lat="42.797398" lon="0.567142"><ele>756.21</ele><time>2011-09-15T13:35:36Z</time></trkpt><trkpt lat="42.797325" lon="0.567352"><ele>755.73</ele><time>2011-09-15T13:35:37Z</time></trkpt><trkpt lat="42.797248" lon="0.567574"><ele>755.25</ele><time>2011-09-15T13:35:38Z</time></trkpt><trkpt lat="42.797154" lon="0.567790"><ele>754.77</ele><time>2011-09-15T13:35:39Z</time></trkpt><trkpt lat="42.797045" lon="0.568001"><ele>754.29</ele><time>2011-09-15T13:35:40Z</time></trkpt><trkpt lat="42.796927" lon="0.568215"><ele>753.33</ele><time>2011-09-15T13:35:41Z</time></trkpt><trkpt lat="42.796320" lon="0.569806"><ele>749.97</ele><time>2011-09-15T13:35:48Z</time></trkpt><trkpt lat="42.796175" lon="0.570366"><ele>748.52</ele><time>2011-09-15T13:35:51Z</time></trkpt><trkpt lat="42.796172" lon="0.570536"><ele>748.04</ele><time>2011-09-15T13:35:52Z</time></trkpt><trkpt lat="42.796203" lon="0.570715"><ele>747.56</ele><time>2011-09-15T13:35:53Z</time></trkpt><trkpt lat="42.796256" lon="0.570905"><ele>747.08</ele><time>2011-09-15T13:35:54Z</time></trkpt><trkpt lat="42.796318" lon="0.571109"><ele>746.60</ele><time>2011-09-15T13:35:55Z</time></trkpt><trkpt lat="42.796487" lon="0.571782"><ele>743.72</ele><time>2011-09-15T13:35:58Z</time></trkpt><trkpt lat="42.796513" lon="0.572021"><ele>742.28</ele><time>2011-09-15T13:35:59Z</time></trkpt><trkpt lat="42.796515" lon="0.572259"><ele>740.83</ele><time>2011-09-15T13:36:00Z</time></trkpt><trkpt lat="42.796499" lon="0.572494"><ele>739.39</ele><time>2011-09-15T13:36:01Z</time></trkpt><trkpt lat="42.796469" lon="0.572726"><ele>738.43</ele><time>2011-09-15T13:36:02Z</time></trkpt><trkpt lat="42.796434" lon="0.572954"><ele>736.99</ele><time>2011-09-15T13:36:03Z</time></trkpt><trkpt lat="42.795952" lon="0.575055"><ele>721.61</ele><time>2011-09-15T13:36:12Z</time></trkpt><trkpt lat="42.795803" lon="0.575707"><ele>717.28</ele><time>2011-09-15T13:36:15Z</time></trkpt><trkpt lat="42.795796" lon="0.575914"><ele>715.84</ele><time>2011-09-15T13:36:16Z</time></trkpt><trkpt lat="42.795810" lon="0.576351"><ele>712.95</ele><time>2011-09-15T13:36:18Z</time></trkpt><trkpt lat="42.795711" lon="0.577295"><ele>705.75</ele><time>2011-09-15T13:36:22Z</time></trkpt><trkpt lat="42.795646" lon="0.577511"><ele>704.30</ele><time>2011-09-15T13:36:23Z</time></trkpt><trkpt lat="42.795558" lon="0.577714"><ele>702.38</ele><time>2011-09-15T13:36:24Z</time></trkpt><trkpt lat="42.795456" lon="0.577911"><ele>700.94</ele><time>2011-09-15T13:36:25Z</time></trkpt><trkpt lat="42.795350" lon="0.578106"><ele>699.02</ele><time>2011-09-15T13:36:26Z</time></trkpt><trkpt lat="42.794579" lon="0.579315"><ele>687.48</ele><time>2011-09-15T13:36:33Z</time></trkpt><trkpt lat="42.794503" lon="0.579480"><ele>686.04</ele><time>2011-09-15T13:36:34Z</time></trkpt><trkpt lat="42.794451" lon="0.579661"><ele>684.60</ele><time>2011-09-15T13:36:35Z</time></trkpt><trkpt lat="42.794193" lon="0.581399"><ele>673.54</ele><time>2011-09-15T13:36:43Z</time></trkpt><trkpt lat="42.794155" lon="0.583131"><ele>662.01</ele><time>2011-09-15T13:36:50Z</time></trkpt><trkpt lat="42.794107" lon="0.583360"><ele>660.56</ele><time>2011-09-15T13:36:51Z</time></trkpt><trkpt lat="42.794019" lon="0.583808"><ele>657.68</ele><time>2011-09-15T13:36:53Z</time></trkpt><trkpt lat="42.793647" lon="0.585555"><ele>645.66</ele><time>2011-09-15T13:37:01Z</time></trkpt><trkpt lat="42.793364" lon="0.586465"><ele>640.86</ele><time>2011-09-15T13:37:06Z</time></trkpt><trkpt lat="42.793349" lon="0.586634"><ele>639.89</ele><time>2011-09-15T13:37:07Z</time></trkpt><trkpt lat="42.793350" lon="0.586803"><ele>639.41</ele><time>2011-09-15T13:37:08Z</time></trkpt><trkpt lat="42.793409" lon="0.587779"><ele>636.53</ele><time>2011-09-15T13:37:15Z</time></trkpt><trkpt lat="42.793390" lon="0.587839"><ele>636.53</ele><time>2011-09-15T13:37:16Z</time></trkpt><trkpt lat="42.793347" lon="0.587867"><ele>636.53</ele><time>2011-09-15T13:37:17Z</time></trkpt><trkpt lat="42.793295" lon="0.587870"><ele>637.01</ele><time>2011-09-15T13:37:18Z</time></trkpt><trkpt lat="42.793234" lon="0.587851"><ele>637.01</ele><time>2011-09-15T13:37:19Z</time></trkpt><trkpt lat="42.793164" lon="0.587823"><ele>637.01</ele><time>2011-09-15T13:37:20Z</time></trkpt><trkpt lat="42.792226" lon="0.587417"><ele>638.93</ele><time>2011-09-15T13:37:32Z</time></trkpt><trkpt lat="42.791894" lon="0.587377"><ele>639.41</ele><time>2011-09-15T13:37:41Z</time></trkpt><trkpt lat="42.791876" lon="0.587460"><ele>639.89</ele><time>2011-09-15T13:37:42Z</time></trkpt><trkpt lat="42.791862" lon="0.587574"><ele>639.89</ele><time>2011-09-15T13:37:43Z</time></trkpt><trkpt lat="42.791665" lon="0.588744"><ele>638.93</ele><time>2011-09-15T13:37:55Z</time></trkpt><trkpt lat="42.791539" lon="0.589515"><ele>637.01</ele><time>2011-09-15T13:38:05Z</time></trkpt><trkpt lat="42.791556" lon="0.589591"><ele>638.45</ele><time>2011-09-15T13:38:07Z</time></trkpt><trkpt lat="42.791585" lon="0.589633"><ele>638.45</ele><time>2011-09-15T13:38:08Z</time></trkpt><trkpt lat="42.791670" lon="0.589591"><ele>639.41</ele><time>2011-09-15T13:38:09Z</time></trkpt><trkpt lat="42.791739" lon="0.589582"><ele>640.38</ele><time>2011-09-15T13:38:10Z</time></trkpt><trkpt lat="42.791786" lon="0.589636"><ele>641.34</ele><time>2011-09-15T13:38:11Z</time></trkpt><trkpt lat="42.791851" lon="0.589730"><ele>640.86</ele><time>2011-09-15T13:38:12Z</time></trkpt><trkpt lat="42.791952" lon="0.589873"><ele>640.86</ele><time>2011-09-15T13:38:14Z</time></trkpt><trkpt lat="42.791972" lon="0.589955"><ele>641.34</ele><time>2011-09-15T13:38:15Z</time></trkpt><trkpt lat="42.791977" lon="0.590034"><ele>641.82</ele><time>2011-09-15T13:38:16Z</time></trkpt><trkpt lat="42.791972" lon="0.590117"><ele>641.34</ele><time>2011-09-15T13:38:17Z</time></trkpt><trkpt lat="42.791956" lon="0.590212"><ele>640.86</ele><time>2011-09-15T13:38:18Z</time></trkpt><trkpt lat="42.791941" lon="0.590307"><ele>639.89</ele><time>2011-09-15T13:38:19Z</time></trkpt><trkpt lat="42.791854" lon="0.590917"><ele>636.53</ele><time>2011-09-15T13:38:28Z</time></trkpt><trkpt lat="42.791874" lon="0.590973"><ele>636.53</ele><time>2011-09-15T13:38:29Z</time></trkpt><trkpt lat="42.791898" lon="0.591022"><ele>636.05</ele><time>2011-09-15T13:38:30Z</time></trkpt><trkpt lat="42.791903" lon="0.591069"><ele>635.57</ele><time>2011-09-15T13:38:31Z</time></trkpt><trkpt lat="42.791907" lon="0.591116"><ele>636.53</ele><time>2011-09-15T13:38:32Z</time></trkpt><trkpt lat="42.791906" lon="0.591149"><ele>637.01</ele><time>2011-09-15T13:38:33Z</time></trkpt><trkpt lat="42.791891" lon="0.591173"><ele>636.53</ele><time>2011-09-15T13:38:34Z</time></trkpt><trkpt lat="42.791879" lon="0.591187"><ele>636.05</ele><time>2011-09-15T13:38:35Z</time></trkpt><trkpt lat="42.791860" lon="0.591193"><ele>636.05</ele><time>2011-09-15T13:38:36Z</time></trkpt><trkpt lat="42.791827" lon="0.591185"><ele>636.05</ele><time>2011-09-15T13:38:37Z</time></trkpt><trkpt lat="42.791777" lon="0.591170"><ele>636.53</ele><time>2011-09-15T13:38:38Z</time></trkpt><trkpt lat="42.791714" lon="0.591155"><ele>637.01</ele><time>2011-09-15T13:38:39Z</time></trkpt><trkpt lat="42.791642" lon="0.591159"><ele>636.53</ele><time>2011-09-15T13:38:40Z</time></trkpt><trkpt lat="42.791217" lon="0.591114"><ele>640.38</ele><time>2011-09-15T13:38:49Z</time></trkpt><trkpt lat="42.790894" lon="0.591167"><ele>639.41</ele><time>2011-09-15T13:38:57Z</time></trkpt><trkpt lat="42.790851" lon="0.591194"><ele>639.41</ele><time>2011-09-15T13:38:58Z</time></trkpt><trkpt lat="42.790618" lon="0.591333"><ele>639.41</ele><time>2011-09-15T13:39:05Z</time></trkpt><trkpt lat="42.790604" lon="0.591300"><ele>639.41</ele><time>2011-09-15T13:39:06Z</time></trkpt><trkpt lat="42.790601" lon="0.591272"><ele>638.93</ele><time>2011-09-15T13:39:07Z</time></trkpt><trkpt lat="42.790601" lon="0.591232"><ele>639.41</ele><time>2011-09-15T13:39:08Z</time></trkpt><trkpt lat="42.790610" lon="0.591202"><ele>637.97</ele><time>2011-09-15T13:39:09Z</time></trkpt><trkpt lat="42.790617" lon="0.591174"><ele>636.53</ele><time>2011-09-15T13:39:10Z</time></trkpt><trkpt lat="42.790629" lon="0.591166"><ele>632.20</ele><time>2011-09-15T13:39:21Z</time></trkpt><trkpt lat="42.790614" lon="0.591161"><ele>632.68</ele><time>2011-09-15T13:39:32Z</time></trkpt><trkpt lat="42.790642" lon="0.591194"><ele>639.89</ele><time>2011-09-15T13:39:43Z</time></trkpt><trkpt lat="42.790640" lon="0.591209"><ele>639.89</ele><time>2011-09-15T13:39:44Z</time></trkpt><trkpt lat="42.790633" lon="0.591227"><ele>639.41</ele><time>2011-09-15T13:39:45Z</time></trkpt><trkpt lat="42.790632" lon="0.591240"><ele>640.86</ele><time>2011-09-15T13:39:46Z</time></trkpt><trkpt lat="42.790770" lon="0.591188"><ele>650.47</ele><time>2011-09-15T13:40:06Z</time></trkpt><trkpt lat="42.790721" lon="0.591148"><ele>654.80</ele><time>2011-09-15T13:40:22Z</time></trkpt><trkpt lat="42.790713" lon="0.591169"><ele>654.80</ele><time>2011-09-15T13:40:23Z</time></trkpt><trkpt lat="42.790710" lon="0.591198"><ele>655.28</ele><time>2011-09-15T13:40:24Z</time></trkpt><trkpt lat="42.790695" lon="0.591228"><ele>653.83</ele><time>2011-09-15T13:40:25Z</time></trkpt><trkpt lat="42.790695" lon="0.591255"><ele>652.87</ele><time>2011-09-15T13:40:26Z</time></trkpt><trkpt lat="42.790691" lon="0.591316"><ele>648.07</ele><time>2011-09-15T13:40:30Z</time></trkpt><trkpt lat="42.790671" lon="0.591358"><ele>646.62</ele><time>2011-09-15T13:40:31Z</time></trkpt><trkpt lat="42.790639" lon="0.591402"><ele>646.14</ele><time>2011-09-15T13:40:32Z</time></trkpt><trkpt lat="42.790554" lon="0.591494"><ele>644.22</ele><time>2011-09-15T13:40:34Z</time></trkpt><trkpt lat="42.790502" lon="0.591545"><ele>643.26</ele><time>2011-09-15T13:40:35Z</time></trkpt><trkpt lat="42.790426" lon="0.591572"><ele>643.74</ele><time>2011-09-15T13:40:36Z</time></trkpt><trkpt lat="42.790217" lon="0.591633"><ele>644.70</ele><time>2011-09-15T13:40:39Z</time></trkpt><trkpt lat="42.790162" lon="0.591671"><ele>643.74</ele><time>2011-09-15T13:40:40Z</time></trkpt><trkpt lat="42.790104" lon="0.591710"><ele>643.26</ele><time>2011-09-15T13:40:41Z</time></trkpt><trkpt lat="42.789554" lon="0.591955"><ele>643.26</ele><time>2011-09-15T13:40:51Z</time></trkpt><trkpt lat="42.789224" lon="0.592028"><ele>640.86</ele><time>2011-09-15T13:41:00Z</time></trkpt><trkpt lat="42.789212" lon="0.592035"><ele>640.86</ele><time>2011-09-15T13:41:01Z</time></trkpt><trkpt lat="42.789201" lon="0.592077"><ele>637.01</ele><time>2011-09-15T13:41:19Z</time></trkpt><trkpt lat="42.789272" lon="0.591979"><ele>636.05</ele><time>2011-09-15T13:52:47Z</time></trkpt><trkpt lat="42.789309" lon="0.591998"><ele>634.61</ele><time>2011-09-15T13:52:55Z</time></trkpt><trkpt lat="42.789326" lon="0.591997"><ele>634.61</ele><time>2011-09-15T13:52:56Z</time></trkpt><trkpt lat="42.789346" lon="0.591984"><ele>634.61</ele><time>2011-09-15T13:52:57Z</time></trkpt><trkpt lat="42.789374" lon="0.591965"><ele>634.61</ele><time>2011-09-15T13:52:58Z</time></trkpt><trkpt lat="42.789404" lon="0.591944"><ele>634.61</ele><time>2011-09-15T13:52:59Z</time></trkpt><trkpt lat="42.789431" lon="0.591922"><ele>634.61</ele><time>2011-09-15T13:53:00Z</time></trkpt><trkpt lat="42.789629" lon="0.591866"><ele>633.17</ele><time>2011-09-15T13:53:09Z</time></trkpt><trkpt lat="42.789702" lon="0.591909"><ele>639.41</ele><time>2011-09-15T13:53:57Z</time></trkpt><trkpt lat="42.789775" lon="0.591924"><ele>635.57</ele><time>2011-09-15T13:55:23Z</time></trkpt><trkpt lat="42.789697" lon="0.591913"><ele>625.96</ele><time>2011-09-15T13:55:56Z</time></trkpt></trkseg></trk><trk><name>ACTIVE LOG: 16 SEP 2011 08:56</name><trkseg><trkpt lat="42.789682" lon="0.592175"><ele>726.89</ele><time>2011-09-16T06:56:37Z</time></trkpt><trkpt lat="42.789659" lon="0.592193"><ele>733.62</ele><time>2011-09-16T06:57:07Z</time></trkpt><trkpt lat="42.789707" lon="0.592182"><ele>736.99</ele><time>2011-09-16T06:57:32Z</time></trkpt><trkpt lat="42.789640" lon="0.592155"><ele>722.09</ele><time>2011-09-16T06:57:58Z</time></trkpt><trkpt lat="42.789599" lon="0.592073"><ele>705.26</ele><time>2011-09-16T06:59:01Z</time></trkpt><trkpt lat="42.789614" lon="0.592118"><ele>718.72</ele><time>2011-09-16T06:59:47Z</time></trkpt><trkpt lat="42.789560" lon="0.592076"><ele>697.09</ele><time>2011-09-16T07:00:58Z</time></trkpt><trkpt lat="42.789454" lon="0.592054"><ele>673.06</ele><time>2011-09-16T07:01:18Z</time></trkpt><trkpt lat="42.789375" lon="0.592096"><ele>655.76</ele><time>2011-09-16T07:01:25Z</time></trkpt><trkpt lat="42.789376" lon="0.592093"><ele>647.59</ele><time>2011-09-16T07:01:39Z</time></trkpt><trkpt lat="42.789503" lon="0.592044"><ele>670.18</ele><time>2011-09-16T07:01:55Z</time></trkpt><trkpt lat="42.789563" lon="0.592040"><ele>689.88</ele><time>2011-09-16T07:02:14Z</time></trkpt><trkpt lat="42.789479" lon="0.592166"><ele>694.21</ele><time>2011-09-16T07:02:46Z</time></trkpt><trkpt lat="42.789381" lon="0.592142"><ele>679.79</ele><time>2011-09-16T07:02:51Z</time></trkpt><trkpt lat="42.789209" lon="0.592160"><ele>659.60</ele><time>2011-09-16T07:02:56Z</time></trkpt><trkpt lat="42.789127" lon="0.592193"><ele>654.80</ele><time>2011-09-16T07:02:57Z</time></trkpt><trkpt lat="42.789046" lon="0.592223"><ele>652.39</ele><time>2011-09-16T07:02:58Z</time></trkpt><trkpt lat="42.788985" lon="0.592268"><ele>650.95</ele><time>2011-09-16T07:02:59Z</time></trkpt><trkpt lat="42.788913" lon="0.592314"><ele>648.07</ele><time>2011-09-16T07:03:00Z</time></trkpt><trkpt lat="42.788855" lon="0.592352"><ele>646.14</ele><time>2011-09-16T07:03:01Z</time></trkpt><trkpt lat="42.788768" lon="0.592386"><ele>645.66</ele><time>2011-09-16T07:03:03Z</time></trkpt><trkpt lat="42.788755" lon="0.592386"><ele>646.62</ele><time>2011-09-16T07:03:04Z</time></trkpt><trkpt lat="42.788729" lon="0.592391"><ele>646.62</ele><time>2011-09-16T07:03:05Z</time></trkpt><trkpt lat="42.788711" lon="0.592375"><ele>646.14</ele><time>2011-09-16T07:03:06Z</time></trkpt><trkpt lat="42.788685" lon="0.592367"><ele>644.22</ele><time>2011-09-16T07:03:08Z</time></trkpt><trkpt lat="42.788424" lon="0.592472"><ele>638.45</ele><time>2011-09-16T07:03:14Z</time></trkpt><trkpt lat="42.788134" lon="0.592673"><ele>636.53</ele><time>2011-09-16T07:03:22Z</time></trkpt><trkpt lat="42.787974" lon="0.592774"><ele>635.57</ele><time>2011-09-16T07:03:25Z</time></trkpt><trkpt lat="42.787680" lon="0.592915"><ele>637.01</ele><time>2011-09-16T07:03:30Z</time></trkpt><trkpt lat="42.787629" lon="0.592933"><ele>637.49</ele><time>2011-09-16T07:03:31Z</time></trkpt><trkpt lat="42.787527" lon="0.592995"><ele>638.45</ele><time>2011-09-16T07:03:33Z</time></trkpt><trkpt lat="42.787471" lon="0.593028"><ele>638.93</ele><time>2011-09-16T07:03:34Z</time></trkpt><trkpt lat="42.787414" lon="0.593050"><ele>639.41</ele><time>2011-09-16T07:03:35Z</time></trkpt><trkpt lat="42.786821" lon="0.593294"><ele>639.89</ele><time>2011-09-16T07:03:44Z</time></trkpt><trkpt lat="42.785987" lon="0.593770"><ele>640.86</ele><time>2011-09-16T07:03:55Z</time></trkpt><trkpt lat="42.785544" lon="0.594069"><ele>641.34</ele><time>2011-09-16T07:04:02Z</time></trkpt><trkpt lat="42.785518" lon="0.594125"><ele>641.34</ele><time>2011-09-16T07:04:03Z</time></trkpt><trkpt lat="42.785516" lon="0.594186"><ele>640.86</ele><time>2011-09-16T07:04:04Z</time></trkpt><trkpt lat="42.785532" lon="0.594256"><ele>640.38</ele><time>2011-09-16T07:04:05Z</time></trkpt><trkpt lat="42.785552" lon="0.594336"><ele>639.41</ele><time>2011-09-16T07:04:06Z</time></trkpt><trkpt lat="42.785695" lon="0.594902"><ele>637.01</ele><time>2011-09-16T07:04:12Z</time></trkpt><trkpt lat="42.785705" lon="0.594993"><ele>636.53</ele><time>2011-09-16T07:04:13Z</time></trkpt><trkpt lat="42.785698" lon="0.595074"><ele>636.05</ele><time>2011-09-16T07:04:14Z</time></trkpt><trkpt lat="42.785637" lon="0.595216"><ele>635.09</ele><time>2011-09-16T07:04:16Z</time></trkpt><trkpt lat="42.785580" lon="0.595260"><ele>634.13</ele><time>2011-09-16T07:04:17Z</time></trkpt><trkpt lat="42.785514" lon="0.595280"><ele>635.09</ele><time>2011-09-16T07:04:18Z</time></trkpt><trkpt lat="42.785131" lon="0.595472"><ele>634.61</ele><time>2011-09-16T07:04:26Z</time></trkpt><trkpt lat="42.785074" lon="0.595510"><ele>634.61</ele><time>2011-09-16T07:04:27Z</time></trkpt><trkpt lat="42.784388" lon="0.595860"><ele>630.28</ele><time>2011-09-16T07:04:36Z</time></trkpt><trkpt lat="42.783633" lon="0.596438"><ele>630.28</ele><time>2011-09-16T07:04:46Z</time></trkpt><trkpt lat="42.782807" lon="0.597006"><ele>634.13</ele><time>2011-09-16T07:04:57Z</time></trkpt><trkpt lat="42.782741" lon="0.597036"><ele>634.61</ele><time>2011-09-16T07:04:58Z</time></trkpt><trkpt lat="42.782606" lon="0.597124"><ele>636.05</ele><time>2011-09-16T07:05:02Z</time></trkpt><trkpt lat="42.782593" lon="0.597194"><ele>636.05</ele><time>2011-09-16T07:05:03Z</time></trkpt><trkpt lat="42.782597" lon="0.597291"><ele>636.05</ele><time>2011-09-16T07:05:04Z</time></trkpt><trkpt lat="42.782604" lon="0.597401"><ele>636.05</ele><time>2011-09-16T07:05:05Z</time></trkpt><trkpt lat="42.782607" lon="0.597506"><ele>636.05</ele><time>2011-09-16T07:05:06Z</time></trkpt><trkpt lat="42.782629" lon="0.598797"><ele>636.05</ele><time>2011-09-16T07:05:17Z</time></trkpt><trkpt lat="42.782605" lon="0.601006"><ele>637.01</ele><time>2011-09-16T07:05:36Z</time></trkpt><trkpt lat="42.782568" lon="0.601663"><ele>636.53</ele><time>2011-09-16T07:05:42Z</time></trkpt><trkpt lat="42.782545" lon="0.601732"><ele>637.01</ele><time>2011-09-16T07:05:43Z</time></trkpt><trkpt lat="42.782499" lon="0.601752"><ele>637.49</ele><time>2011-09-16T07:05:44Z</time></trkpt><trkpt lat="42.782425" lon="0.601761"><ele>637.97</ele><time>2011-09-16T07:05:45Z</time></trkpt><trkpt lat="42.782341" lon="0.601765"><ele>637.97</ele><time>2011-09-16T07:05:46Z</time></trkpt><trkpt lat="42.781436" lon="0.601954"><ele>637.49</ele><time>2011-09-16T07:05:56Z</time></trkpt><trkpt lat="42.779921" lon="0.602608"><ele>643.74</ele><time>2011-09-16T07:06:13Z</time></trkpt><trkpt lat="42.778197" lon="0.603422"><ele>649.99</ele><time>2011-09-16T07:06:32Z</time></trkpt><trkpt lat="42.776802" lon="0.604080"><ele>656.24</ele><time>2011-09-16T07:06:47Z</time></trkpt><trkpt lat="42.775396" lon="0.604634"><ele>656.72</ele><time>2011-09-16T07:06:59Z</time></trkpt><trkpt lat="42.773979" lon="0.605466"><ele>664.41</ele><time>2011-09-16T07:07:11Z</time></trkpt><trkpt lat="42.773022" lon="0.606351"><ele>674.50</ele><time>2011-09-16T07:07:20Z</time></trkpt><trkpt lat="42.772937" lon="0.606353"><ele>675.94</ele><time>2011-09-16T07:07:21Z</time></trkpt><trkpt lat="42.772776" lon="0.606150"><ele>680.27</ele><time>2011-09-16T07:07:24Z</time></trkpt><trkpt lat="42.772740" lon="0.606006"><ele>682.19</ele><time>2011-09-16T07:07:25Z</time></trkpt><trkpt lat="42.772688" lon="0.605875"><ele>683.63</ele><time>2011-09-16T07:07:26Z</time></trkpt><trkpt lat="42.772628" lon="0.605761"><ele>684.60</ele><time>2011-09-16T07:07:27Z</time></trkpt><trkpt lat="42.772553" lon="0.605664"><ele>686.04</ele><time>2011-09-16T07:07:28Z</time></trkpt><trkpt lat="42.772459" lon="0.605594"><ele>687.00</ele><time>2011-09-16T07:07:29Z</time></trkpt><trkpt lat="42.772358" lon="0.605553"><ele>687.96</ele><time>2011-09-16T07:07:30Z</time></trkpt><trkpt lat="42.772251" lon="0.605554"><ele>688.92</ele><time>2011-09-16T07:07:31Z</time></trkpt><trkpt lat="42.772141" lon="0.605602"><ele>689.88</ele><time>2011-09-16T07:07:32Z</time></trkpt><trkpt lat="42.772028" lon="0.605658"><ele>691.33</ele><time>2011-09-16T07:07:33Z</time></trkpt><trkpt lat="42.771923" lon="0.605710"><ele>691.81</ele><time>2011-09-16T07:07:34Z</time></trkpt><trkpt lat="42.771826" lon="0.605770"><ele>691.81</ele><time>2011-09-16T07:07:35Z</time></trkpt><trkpt lat="42.771747" lon="0.605895"><ele>692.29</ele><time>2011-09-16T07:07:36Z</time></trkpt><trkpt lat="42.771679" lon="0.606052"><ele>692.77</ele><time>2011-09-16T07:07:37Z</time></trkpt><trkpt lat="42.771593" lon="0.606182"><ele>692.77</ele><time>2011-09-16T07:07:38Z</time></trkpt><trkpt lat="42.770680" lon="0.607155"><ele>695.65</ele><time>2011-09-16T07:07:47Z</time></trkpt><trkpt lat="42.769601" lon="0.608036"><ele>696.61</ele><time>2011-09-16T07:07:56Z</time></trkpt><trkpt lat="42.769089" lon="0.608455"><ele>697.57</ele><time>2011-09-16T07:08:00Z</time></trkpt><trkpt lat="42.768993" lon="0.608586"><ele>698.53</ele><time>2011-09-16T07:08:01Z</time></trkpt><trkpt lat="42.768918" lon="0.608710"><ele>699.50</ele><time>2011-09-16T07:08:02Z</time></trkpt><trkpt lat="42.768866" lon="0.608839"><ele>700.46</ele><time>2011-09-16T07:08:03Z</time></trkpt><trkpt lat="42.768845" lon="0.608988"><ele>701.42</ele><time>2011-09-16T07:08:04Z</time></trkpt><trkpt lat="42.768849" lon="0.609155"><ele>703.34</ele><time>2011-09-16T07:08:05Z</time></trkpt><trkpt lat="42.768850" lon="0.609332"><ele>704.78</ele><time>2011-09-16T07:08:06Z</time></trkpt><trkpt lat="42.768834" lon="0.609502"><ele>706.71</ele><time>2011-09-16T07:08:07Z</time></trkpt><trkpt lat="42.768795" lon="0.609668"><ele>708.63</ele><time>2011-09-16T07:08:08Z</time></trkpt><trkpt lat="42.768750" lon="0.609842"><ele>709.11</ele><time>2011-09-16T07:08:09Z</time></trkpt><trkpt lat="42.768699" lon="0.610001"><ele>711.51</ele><time>2011-09-16T07:08:10Z</time></trkpt><trkpt lat="42.768621" lon="0.610330"><ele>715.36</ele><time>2011-09-16T07:08:12Z</time></trkpt><trkpt lat="42.768600" lon="0.610503"><ele>716.80</ele><time>2011-09-16T07:08:13Z</time></trkpt><trkpt lat="42.768218" lon="0.612307"><ele>732.18</ele><time>2011-09-16T07:08:24Z</time></trkpt><trkpt lat="42.768113" lon="0.613902"><ele>747.08</ele><time>2011-09-16T07:08:33Z</time></trkpt><trkpt lat="42.768273" lon="0.615960"><ele>757.18</ele><time>2011-09-16T07:08:43Z</time></trkpt><trkpt lat="42.768569" lon="0.617424"><ele>765.35</ele><time>2011-09-16T07:08:50Z</time></trkpt><trkpt lat="42.768583" lon="0.617640"><ele>766.79</ele><time>2011-09-16T07:08:51Z</time></trkpt><trkpt lat="42.768582" lon="0.617858"><ele>768.23</ele><time>2011-09-16T07:08:52Z</time></trkpt><trkpt lat="42.768570" lon="0.618078"><ele>769.67</ele><time>2011-09-16T07:08:53Z</time></trkpt><trkpt lat="42.768558" lon="0.618296"><ele>771.60</ele><time>2011-09-16T07:08:54Z</time></trkpt><trkpt lat="42.768562" lon="0.618699"><ele>774.96</ele><time>2011-09-16T07:08:56Z</time></trkpt><trkpt lat="42.768595" lon="0.619047"><ele>778.32</ele><time>2011-09-16T07:08:58Z</time></trkpt><trkpt lat="42.768598" lon="0.619203"><ele>779.77</ele><time>2011-09-16T07:08:59Z</time></trkpt><trkpt lat="42.768587" lon="0.619336"><ele>781.21</ele><time>2011-09-16T07:09:00Z</time></trkpt><trkpt lat="42.768576" lon="0.619621"><ele>785.53</ele><time>2011-09-16T07:09:03Z</time></trkpt><trkpt lat="42.768662" lon="0.619651"><ele>787.94</ele><time>2011-09-16T07:09:05Z</time></trkpt><trkpt lat="42.768719" lon="0.619499"><ele>789.86</ele><time>2011-09-16T07:09:06Z</time></trkpt><trkpt lat="42.768753" lon="0.619384"><ele>791.30</ele><time>2011-09-16T07:09:07Z</time></trkpt><trkpt lat="42.768749" lon="0.619234"><ele>794.19</ele><time>2011-09-16T07:09:08Z</time></trkpt><trkpt lat="42.768747" lon="0.619106"><ele>794.19</ele><time>2011-09-16T07:09:09Z</time></trkpt><trkpt lat="42.768746" lon="0.618573"><ele>796.59</ele><time>2011-09-16T07:09:13Z</time></trkpt><trkpt lat="42.768794" lon="0.618518"><ele>797.07</ele><time>2011-09-16T07:09:14Z</time></trkpt><trkpt lat="42.768914" lon="0.618532"><ele>797.07</ele><time>2011-09-16T07:09:16Z</time></trkpt><trkpt lat="42.768944" lon="0.618587"><ele>797.55</ele><time>2011-09-16T07:09:17Z</time></trkpt><trkpt lat="42.768955" lon="0.618666"><ele>798.51</ele><time>2011-09-16T07:09:18Z</time></trkpt><trkpt lat="42.768950" lon="0.618766"><ele>799.47</ele><time>2011-09-16T07:09:19Z</time></trkpt><trkpt lat="42.768935" lon="0.618884"><ele>800.92</ele><time>2011-09-16T07:09:20Z</time></trkpt><trkpt lat="42.768920" lon="0.619019"><ele>802.84</ele><time>2011-09-16T07:09:21Z</time></trkpt><trkpt lat="42.768910" lon="0.619298"><ele>803.80</ele><time>2011-09-16T07:09:23Z</time></trkpt><trkpt lat="42.768925" lon="0.619434"><ele>804.28</ele><time>2011-09-16T07:09:24Z</time></trkpt><trkpt lat="42.768961" lon="0.619570"><ele>804.76</ele><time>2011-09-16T07:09:25Z</time></trkpt><trkpt lat="42.769013" lon="0.619701"><ele>805.24</ele><time>2011-09-16T07:09:26Z</time></trkpt><trkpt lat="42.769068" lon="0.619832"><ele>805.72</ele><time>2011-09-16T07:09:27Z</time></trkpt><trkpt lat="42.769242" lon="0.620261"><ele>808.61</ele><time>2011-09-16T07:09:30Z</time></trkpt><trkpt lat="42.769375" lon="0.620525"><ele>811.01</ele><time>2011-09-16T07:09:32Z</time></trkpt><trkpt lat="42.769425" lon="0.620660"><ele>811.49</ele><time>2011-09-16T07:09:33Z</time></trkpt><trkpt lat="42.769455" lon="0.620788"><ele>812.93</ele><time>2011-09-16T07:09:34Z</time></trkpt><trkpt lat="42.769456" lon="0.620910"><ele>813.41</ele><time>2011-09-16T07:09:35Z</time></trkpt><trkpt lat="42.769421" lon="0.620969"><ele>813.89</ele><time>2011-09-16T07:09:36Z</time></trkpt><trkpt lat="42.769361" lon="0.620986"><ele>814.37</ele><time>2011-09-16T07:09:37Z</time></trkpt><trkpt lat="42.769294" lon="0.620958"><ele>814.85</ele><time>2011-09-16T07:09:38Z</time></trkpt><trkpt lat="42.769190" lon="0.620916"><ele>814.85</ele><time>2011-09-16T07:09:39Z</time></trkpt><trkpt lat="42.768675" lon="0.620701"><ele>817.26</ele><time>2011-09-16T07:09:44Z</time></trkpt><trkpt lat="42.768585" lon="0.620633"><ele>818.22</ele><time>2011-09-16T07:09:45Z</time></trkpt><trkpt lat="42.768520" lon="0.620543"><ele>818.22</ele><time>2011-09-16T07:09:46Z</time></trkpt><trkpt lat="42.768482" lon="0.620439"><ele>818.70</ele><time>2011-09-16T07:09:47Z</time></trkpt><trkpt lat="42.768456" lon="0.620341"><ele>818.70</ele><time>2011-09-16T07:09:48Z</time></trkpt><trkpt lat="42.768428" lon="0.620264"><ele>819.18</ele><time>2011-09-16T07:09:49Z</time></trkpt><trkpt lat="42.768391" lon="0.620211"><ele>819.66</ele><time>2011-09-16T07:09:50Z</time></trkpt><trkpt lat="42.768341" lon="0.620186"><ele>819.66</ele><time>2011-09-16T07:09:51Z</time></trkpt><trkpt lat="42.768304" lon="0.620214"><ele>819.66</ele><time>2011-09-16T07:09:52Z</time></trkpt><trkpt lat="42.768261" lon="0.620262"><ele>820.14</ele><time>2011-09-16T07:09:53Z</time></trkpt><trkpt lat="42.768258" lon="0.620317"><ele>819.66</ele><time>2011-09-16T07:09:54Z</time></trkpt><trkpt lat="42.768284" lon="0.620459"><ele>821.58</ele><time>2011-09-16T07:09:55Z</time></trkpt><trkpt lat="42.768343" lon="0.620557"><ele>821.58</ele><time>2011-09-16T07:09:56Z</time></trkpt><trkpt lat="42.768415" lon="0.620649"><ele>822.55</ele><time>2011-09-16T07:09:57Z</time></trkpt><trkpt lat="42.768476" lon="0.620741"><ele>823.51</ele><time>2011-09-16T07:09:58Z</time></trkpt><trkpt lat="42.768532" lon="0.620844"><ele>823.99</ele><time>2011-09-16T07:09:59Z</time></trkpt><trkpt lat="42.768588" lon="0.620966"><ele>824.95</ele><time>2011-09-16T07:10:00Z</time></trkpt><trkpt lat="42.768646" lon="0.621107"><ele>825.91</ele><time>2011-09-16T07:10:01Z</time></trkpt><trkpt lat="42.768888" lon="0.621636"><ele>830.72</ele><time>2011-09-16T07:10:05Z</time></trkpt><trkpt lat="42.768977" lon="0.621764"><ele>832.16</ele><time>2011-09-16T07:10:06Z</time></trkpt><trkpt lat="42.769075" lon="0.621887"><ele>833.12</ele><time>2011-09-16T07:10:07Z</time></trkpt><trkpt lat="42.769423" lon="0.622272"><ele>837.45</ele><time>2011-09-16T07:10:11Z</time></trkpt><trkpt lat="42.769503" lon="0.622321"><ele>838.41</ele><time>2011-09-16T07:10:12Z</time></trkpt><trkpt lat="42.769588" lon="0.622321"><ele>838.89</ele><time>2011-09-16T07:10:13Z</time></trkpt><trkpt lat="42.769650" lon="0.622228"><ele>839.85</ele><time>2011-09-16T07:10:14Z</time></trkpt><trkpt lat="42.769698" lon="0.622072"><ele>841.77</ele><time>2011-09-16T07:10:15Z</time></trkpt><trkpt lat="42.769739" lon="0.621964"><ele>843.21</ele><time>2011-09-16T07:10:16Z</time></trkpt><trkpt lat="42.769790" lon="0.621868"><ele>844.18</ele><time>2011-09-16T07:10:17Z</time></trkpt><trkpt lat="42.769853" lon="0.621746"><ele>844.18</ele><time>2011-09-16T07:10:18Z</time></trkpt><trkpt lat="42.769910" lon="0.621547"><ele>845.62</ele><time>2011-09-16T07:10:19Z</time></trkpt><trkpt lat="42.769963" lon="0.621360"><ele>846.58</ele><time>2011-09-16T07:10:20Z</time></trkpt><trkpt lat="42.770003" lon="0.621180"><ele>848.02</ele><time>2011-09-16T07:10:21Z</time></trkpt><trkpt lat="42.770029" lon="0.621018"><ele>850.42</ele><time>2011-09-16T07:10:22Z</time></trkpt><trkpt lat="42.770048" lon="0.620886"><ele>851.38</ele><time>2011-09-16T07:10:23Z</time></trkpt><trkpt lat="42.770062" lon="0.620770"><ele>852.35</ele><time>2011-09-16T07:10:24Z</time></trkpt><trkpt lat="42.770078" lon="0.620675"><ele>853.31</ele><time>2011-09-16T07:10:25Z</time></trkpt><trkpt lat="42.770095" lon="0.620590"><ele>855.71</ele><time>2011-09-16T07:10:26Z</time></trkpt><trkpt lat="42.770124" lon="0.620542"><ele>858.59</ele><time>2011-09-16T07:10:27Z</time></trkpt><trkpt lat="42.770170" lon="0.620554"><ele>860.52</ele><time>2011-09-16T07:10:28Z</time></trkpt><trkpt lat="42.770195" lon="0.620583"><ele>863.40</ele><time>2011-09-16T07:10:29Z</time></trkpt><trkpt lat="42.770211" lon="0.620626"><ele>866.77</ele><time>2011-09-16T07:10:30Z</time></trkpt><trkpt lat="42.770206" lon="0.620685"><ele>869.65</ele><time>2011-09-16T07:10:31Z</time></trkpt><trkpt lat="42.770160" lon="0.620778"><ele>873.50</ele><time>2011-09-16T07:10:32Z</time></trkpt><trkpt lat="42.770126" lon="0.620889"><ele>876.38</ele><time>2011-09-16T07:10:33Z</time></trkpt><trkpt lat="42.770095" lon="0.621000"><ele>880.71</ele><time>2011-09-16T07:10:34Z</time></trkpt><trkpt lat="42.770075" lon="0.621115"><ele>883.11</ele><time>2011-09-16T07:10:35Z</time></trkpt><trkpt lat="42.770039" lon="0.622142"><ele>889.36</ele><time>2011-09-16T07:10:42Z</time></trkpt><trkpt lat="42.769950" lon="0.623170"><ele>904.26</ele><time>2011-09-16T07:10:49Z</time></trkpt><trkpt lat="42.769732" lon="0.623910"><ele>910.03</ele><time>2011-09-16T07:10:54Z</time></trkpt><trkpt lat="42.769704" lon="0.624048"><ele>910.99</ele><time>2011-09-16T07:10:55Z</time></trkpt><trkpt lat="42.769688" lon="0.624203"><ele>910.03</ele><time>2011-09-16T07:10:56Z</time></trkpt><trkpt lat="42.769688" lon="0.624385"><ele>907.14</ele><time>2011-09-16T07:10:57Z</time></trkpt><trkpt lat="42.769698" lon="0.624554"><ele>905.22</ele><time>2011-09-16T07:10:58Z</time></trkpt><trkpt lat="42.769719" lon="0.624705"><ele>903.78</ele><time>2011-09-16T07:10:59Z</time></trkpt><trkpt lat="42.769754" lon="0.624838"><ele>903.30</ele><time>2011-09-16T07:11:00Z</time></trkpt><trkpt lat="42.769805" lon="0.624963"><ele>903.30</ele><time>2011-09-16T07:11:01Z</time></trkpt><trkpt lat="42.769871" lon="0.625080"><ele>903.30</ele><time>2011-09-16T07:11:02Z</time></trkpt><trkpt lat="42.769943" lon="0.625191"><ele>903.30</ele><time>2011-09-16T07:11:03Z</time></trkpt><trkpt lat="42.770067" lon="0.625423"><ele>903.30</ele><time>2011-09-16T07:11:05Z</time></trkpt><trkpt lat="42.770110" lon="0.625561"><ele>903.30</ele><time>2011-09-16T07:11:06Z</time></trkpt><trkpt lat="42.770145" lon="0.625720"><ele>903.78</ele><time>2011-09-16T07:11:07Z</time></trkpt><trkpt lat="42.770174" lon="0.625894"><ele>903.30</ele><time>2011-09-16T07:11:08Z</time></trkpt><trkpt lat="42.770193" lon="0.626078"><ele>903.30</ele><time>2011-09-16T07:11:09Z</time></trkpt><trkpt lat="42.770199" lon="0.626275"><ele>903.30</ele><time>2011-09-16T07:11:10Z</time></trkpt><trkpt lat="42.770193" lon="0.626474"><ele>902.82</ele><time>2011-09-16T07:11:11Z</time></trkpt><trkpt lat="42.770182" lon="0.626668"><ele>902.82</ele><time>2011-09-16T07:11:12Z</time></trkpt><trkpt lat="42.769949" lon="0.628252"><ele>902.33</ele><time>2011-09-16T07:11:19Z</time></trkpt><trkpt lat="42.769568" lon="0.630742"><ele>902.82</ele><time>2011-09-16T07:11:29Z</time></trkpt><trkpt lat="42.769241" lon="0.633001"><ele>909.06</ele><time>2011-09-16T07:11:38Z</time></trkpt><trkpt lat="42.769013" lon="0.634867"><ele>918.68</ele><time>2011-09-16T07:11:46Z</time></trkpt><trkpt lat="42.769023" lon="0.635084"><ele>919.64</ele><time>2011-09-16T07:11:47Z</time></trkpt><trkpt lat="42.769054" lon="0.635298"><ele>920.60</ele><time>2011-09-16T07:11:48Z</time></trkpt><trkpt lat="42.769104" lon="0.635492"><ele>921.56</ele><time>2011-09-16T07:11:49Z</time></trkpt><trkpt lat="42.769169" lon="0.635660"><ele>923.00</ele><time>2011-09-16T07:11:50Z</time></trkpt><trkpt lat="42.769254" lon="0.635798"><ele>923.96</ele><time>2011-09-16T07:11:51Z</time></trkpt><trkpt lat="42.769355" lon="0.635907"><ele>925.41</ele><time>2011-09-16T07:11:52Z</time></trkpt><trkpt lat="42.769462" lon="0.636005"><ele>925.89</ele><time>2011-09-16T07:11:53Z</time></trkpt><trkpt lat="42.769555" lon="0.636109"><ele>927.33</ele><time>2011-09-16T07:11:54Z</time></trkpt><trkpt lat="42.769627" lon="0.636219"><ele>928.77</ele><time>2011-09-16T07:11:55Z</time></trkpt><trkpt lat="42.769674" lon="0.636340"><ele>930.21</ele><time>2011-09-16T07:11:56Z</time></trkpt><trkpt lat="42.769684" lon="0.636474"><ele>931.17</ele><time>2011-09-16T07:11:57Z</time></trkpt><trkpt lat="42.769616" lon="0.636653"><ele>932.62</ele><time>2011-09-16T07:11:58Z</time></trkpt><trkpt lat="42.769561" lon="0.636825"><ele>933.58</ele><time>2011-09-16T07:11:59Z</time></trkpt><trkpt lat="42.769275" lon="0.638216"><ele>946.56</ele><time>2011-09-16T07:12:06Z</time></trkpt><trkpt lat="42.769188" lon="0.638371"><ele>948.48</ele><time>2011-09-16T07:12:07Z</time></trkpt><trkpt lat="42.769066" lon="0.638671"><ele>952.32</ele><time>2011-09-16T07:12:09Z</time></trkpt><trkpt lat="42.769050" lon="0.638852"><ele>954.25</ele><time>2011-09-16T07:12:10Z</time></trkpt><trkpt lat="42.769017" lon="0.639695"><ele>959.05</ele><time>2011-09-16T07:12:14Z</time></trkpt><trkpt lat="42.768976" lon="0.639913"><ele>959.53</ele><time>2011-09-16T07:12:15Z</time></trkpt><trkpt lat="42.768921" lon="0.640123"><ele>960.01</ele><time>2011-09-16T07:12:16Z</time></trkpt><trkpt lat="42.768846" lon="0.640326"><ele>960.98</ele><time>2011-09-16T07:12:17Z</time></trkpt><trkpt lat="42.768752" lon="0.640505"><ele>961.94</ele><time>2011-09-16T07:12:18Z</time></trkpt><trkpt lat="42.768661" lon="0.640687"><ele>963.86</ele><time>2011-09-16T07:12:19Z</time></trkpt><trkpt lat="42.768107" lon="0.642026"><ele>971.55</ele><time>2011-09-16T07:12:27Z</time></trkpt><trkpt lat="42.768082" lon="0.642127"><ele>972.51</ele><time>2011-09-16T07:12:28Z</time></trkpt><trkpt lat="42.768070" lon="0.642221"><ele>973.47</ele><time>2011-09-16T07:12:29Z</time></trkpt><trkpt lat="42.768092" lon="0.642280"><ele>974.43</ele><time>2011-09-16T07:12:30Z</time></trkpt><trkpt lat="42.768192" lon="0.642273"><ele>974.43</ele><time>2011-09-16T07:12:31Z</time></trkpt><trkpt lat="42.768299" lon="0.642219"><ele>975.39</ele><time>2011-09-16T07:12:32Z</time></trkpt><trkpt lat="42.768378" lon="0.642153"><ele>976.36</ele><time>2011-09-16T07:12:33Z</time></trkpt><trkpt lat="42.768483" lon="0.642068"><ele>977.32</ele><time>2011-09-16T07:12:34Z</time></trkpt><trkpt lat="42.768597" lon="0.642000"><ele>978.28</ele><time>2011-09-16T07:12:35Z</time></trkpt><trkpt lat="42.768711" lon="0.641943"><ele>979.24</ele><time>2011-09-16T07:12:36Z</time></trkpt><trkpt lat="42.769156" lon="0.641832"><ele>986.93</ele><time>2011-09-16T07:12:41Z</time></trkpt><trkpt lat="42.769192" lon="0.641862"><ele>988.85</ele><time>2011-09-16T07:12:42Z</time></trkpt><trkpt lat="42.769175" lon="0.641949"><ele>992.22</ele><time>2011-09-16T07:12:43Z</time></trkpt><trkpt lat="42.769150" lon="0.642030"><ele>993.66</ele><time>2011-09-16T07:12:44Z</time></trkpt><trkpt lat="42.769096" lon="0.642129"><ele>994.62</ele><time>2011-09-16T07:12:45Z</time></trkpt><trkpt lat="42.769019" lon="0.642233"><ele>995.58</ele><time>2011-09-16T07:12:46Z</time></trkpt><trkpt lat="42.768936" lon="0.642369"><ele>995.10</ele><time>2011-09-16T07:12:47Z</time></trkpt><trkpt lat="42.768609" lon="0.643239"><ele>999.43</ele><time>2011-09-16T07:12:53Z</time></trkpt><trkpt lat="42.768585" lon="0.643446"><ele>999.91</ele><time>2011-09-16T07:12:54Z</time></trkpt><trkpt lat="42.768521" lon="0.644884"><ele>1006.16</ele><time>2011-09-16T07:13:01Z</time></trkpt><trkpt lat="42.768529" lon="0.646006"><ele>1013.85</ele><time>2011-09-16T07:13:07Z</time></trkpt><trkpt lat="42.768556" lon="0.646136"><ele>1014.81</ele><time>2011-09-16T07:13:08Z</time></trkpt><trkpt lat="42.768610" lon="0.646264"><ele>1016.73</ele><time>2011-09-16T07:13:09Z</time></trkpt><trkpt lat="42.768687" lon="0.646403"><ele>1018.17</ele><time>2011-09-16T07:13:10Z</time></trkpt><trkpt lat="42.768772" lon="0.646555"><ele>1020.10</ele><time>2011-09-16T07:13:11Z</time></trkpt><trkpt lat="42.769464" lon="0.647881"><ele>1032.11</ele><time>2011-09-16T07:13:19Z</time></trkpt><trkpt lat="42.769601" lon="0.648104"><ele>1035.48</ele><time>2011-09-16T07:13:21Z</time></trkpt><trkpt lat="42.769705" lon="0.648161"><ele>1037.40</ele><time>2011-09-16T07:13:22Z</time></trkpt><trkpt lat="42.769826" lon="0.648186"><ele>1038.84</ele><time>2011-09-16T07:13:23Z</time></trkpt><trkpt lat="42.770318" lon="0.648440"><ele>1042.69</ele><time>2011-09-16T07:13:27Z</time></trkpt><trkpt lat="42.770400" lon="0.648561"><ele>1044.61</ele><time>2011-09-16T07:13:28Z</time></trkpt><trkpt lat="42.770454" lon="0.648711"><ele>1046.53</ele><time>2011-09-16T07:13:29Z</time></trkpt><trkpt lat="42.770482" lon="0.648886"><ele>1048.45</ele><time>2011-09-16T07:13:30Z</time></trkpt><trkpt lat="42.770503" lon="0.649076"><ele>1050.86</ele><time>2011-09-16T07:13:31Z</time></trkpt><trkpt lat="42.770528" lon="0.649289"><ele>1052.78</ele><time>2011-09-16T07:13:32Z</time></trkpt><trkpt lat="42.770555" lon="0.649873"><ele>1059.99</ele><time>2011-09-16T07:13:35Z</time></trkpt><trkpt lat="42.770556" lon="0.650062"><ele>1062.39</ele><time>2011-09-16T07:13:36Z</time></trkpt><trkpt lat="42.770525" lon="0.650619"><ele>1071.53</ele><time>2011-09-16T07:13:39Z</time></trkpt><trkpt lat="42.770263" lon="0.652072"><ele>1089.79</ele><time>2011-09-16T07:13:48Z</time></trkpt><trkpt lat="42.770236" lon="0.652229"><ele>1089.79</ele><time>2011-09-16T07:13:50Z</time></trkpt><trkpt lat="42.770260" lon="0.652242"><ele>1090.27</ele><time>2011-09-16T07:13:51Z</time></trkpt><trkpt lat="42.770311" lon="0.652242"><ele>1090.75</ele><time>2011-09-16T07:13:52Z</time></trkpt><trkpt lat="42.770370" lon="0.652180"><ele>1092.20</ele><time>2011-09-16T07:13:53Z</time></trkpt><trkpt lat="42.770411" lon="0.652098"><ele>1093.16</ele><time>2011-09-16T07:13:54Z</time></trkpt><trkpt lat="42.770450" lon="0.651970"><ele>1093.64</ele><time>2011-09-16T07:13:55Z</time></trkpt><trkpt lat="42.770490" lon="0.651798"><ele>1094.60</ele><time>2011-09-16T07:13:56Z</time></trkpt><trkpt lat="42.770523" lon="0.651608"><ele>1095.08</ele><time>2011-09-16T07:13:57Z</time></trkpt><trkpt lat="42.770557" lon="0.651444"><ele>1094.60</ele><time>2011-09-16T07:13:58Z</time></trkpt><trkpt lat="42.770706" lon="0.650925"><ele>1099.40</ele><time>2011-09-16T07:14:01Z</time></trkpt><trkpt lat="42.770852" lon="0.650533"><ele>1101.81</ele><time>2011-09-16T07:14:03Z</time></trkpt><trkpt lat="42.770908" lon="0.650338"><ele>1102.77</ele><time>2011-09-16T07:14:04Z</time></trkpt><trkpt lat="42.771404" lon="0.648400"><ele>1116.23</ele><time>2011-09-16T07:14:13Z</time></trkpt><trkpt lat="42.771497" lon="0.647984"><ele>1119.59</ele><time>2011-09-16T07:14:15Z</time></trkpt><trkpt lat="42.771493" lon="0.647701"><ele>1134.01</ele><time>2011-09-16T07:14:16Z</time></trkpt><trkpt lat="42.771577" lon="0.646637"><ele>1129.21</ele><time>2011-09-16T07:14:23Z</time></trkpt><trkpt lat="42.771601" lon="0.646572"><ele>1129.69</ele><time>2011-09-16T07:14:24Z</time></trkpt><trkpt lat="42.771641" lon="0.646592"><ele>1130.65</ele><time>2011-09-16T07:14:25Z</time></trkpt><trkpt lat="42.771698" lon="0.646648"><ele>1131.13</ele><time>2011-09-16T07:14:26Z</time></trkpt><trkpt lat="42.771730" lon="0.646713"><ele>1132.09</ele><time>2011-09-16T07:14:27Z</time></trkpt><trkpt lat="42.771736" lon="0.646792"><ele>1133.53</ele><time>2011-09-16T07:14:28Z</time></trkpt><trkpt lat="42.771721" lon="0.646909"><ele>1134.49</ele><time>2011-09-16T07:14:29Z</time></trkpt><trkpt lat="42.771697" lon="0.647060"><ele>1134.97</ele><time>2011-09-16T07:14:30Z</time></trkpt><trkpt lat="42.771669" lon="0.647228"><ele>1134.97</ele><time>2011-09-16T07:14:31Z</time></trkpt><trkpt lat="42.771641" lon="0.647546"><ele>1135.94</ele><time>2011-09-16T07:14:33Z</time></trkpt><trkpt lat="42.771666" lon="0.647702"><ele>1134.97</ele><time>2011-09-16T07:14:34Z</time></trkpt><trkpt lat="42.771707" lon="0.647842"><ele>1134.97</ele><time>2011-09-16T07:14:35Z</time></trkpt><trkpt lat="42.771771" lon="0.648146"><ele>1135.94</ele><time>2011-09-16T07:14:37Z</time></trkpt><trkpt lat="42.771778" lon="0.648326"><ele>1137.86</ele><time>2011-09-16T07:14:38Z</time></trkpt><trkpt lat="42.771775" lon="0.648520"><ele>1139.78</ele><time>2011-09-16T07:14:39Z</time></trkpt><trkpt lat="42.771672" lon="0.650306"><ele>1152.76</ele><time>2011-09-16T07:14:48Z</time></trkpt><trkpt lat="42.771625" lon="0.650877"><ele>1156.12</ele><time>2011-09-16T07:14:51Z</time></trkpt><trkpt lat="42.771584" lon="0.651061"><ele>1157.08</ele><time>2011-09-16T07:14:52Z</time></trkpt><trkpt lat="42.771527" lon="0.651236"><ele>1158.05</ele><time>2011-09-16T07:14:53Z</time></trkpt><trkpt lat="42.771480" lon="0.651412"><ele>1159.49</ele><time>2011-09-16T07:14:54Z</time></trkpt><trkpt lat="42.771444" lon="0.651589"><ele>1161.41</ele><time>2011-09-16T07:14:55Z</time></trkpt><trkpt lat="42.771417" lon="0.651770"><ele>1162.85</ele><time>2011-09-16T07:14:56Z</time></trkpt><trkpt lat="42.771368" lon="0.652309"><ele>1167.66</ele><time>2011-09-16T07:14:59Z</time></trkpt><trkpt lat="42.771363" lon="0.652485"><ele>1172.47</ele><time>2011-09-16T07:15:00Z</time></trkpt><trkpt lat="42.771462" lon="0.654505"><ele>1188.33</ele><time>2011-09-16T07:15:09Z</time></trkpt><trkpt lat="42.771487" lon="0.656233"><ele>1196.98</ele><time>2011-09-16T07:15:17Z</time></trkpt><trkpt lat="42.771519" lon="0.656379"><ele>1198.42</ele><time>2011-09-16T07:15:18Z</time></trkpt><trkpt lat="42.771596" lon="0.656489"><ele>1199.38</ele><time>2011-09-16T07:15:19Z</time></trkpt><trkpt lat="42.771693" lon="0.656554"><ele>1200.82</ele><time>2011-09-16T07:15:20Z</time></trkpt><trkpt lat="42.771806" lon="0.656613"><ele>1201.79</ele><time>2011-09-16T07:15:21Z</time></trkpt><trkpt lat="42.771904" lon="0.656702"><ele>1203.23</ele><time>2011-09-16T07:15:22Z</time></trkpt><trkpt lat="42.771988" lon="0.656819"><ele>1204.67</ele><time>2011-09-16T07:15:23Z</time></trkpt><trkpt lat="42.772055" lon="0.656961"><ele>1206.11</ele><time>2011-09-16T07:15:24Z</time></trkpt><trkpt lat="42.772127" lon="0.657111"><ele>1208.03</ele><time>2011-09-16T07:15:25Z</time></trkpt><trkpt lat="42.772256" lon="0.657455"><ele>1210.92</ele><time>2011-09-16T07:15:27Z</time></trkpt><trkpt lat="42.772357" lon="0.658049"><ele>1215.72</ele><time>2011-09-16T07:15:30Z</time></trkpt><trkpt lat="42.772475" lon="0.659815"><ele>1230.14</ele><time>2011-09-16T07:15:38Z</time></trkpt><trkpt lat="42.772491" lon="0.661148"><ele>1243.60</ele><time>2011-09-16T07:15:46Z</time></trkpt><trkpt lat="42.772471" lon="0.661244"><ele>1245.04</ele><time>2011-09-16T07:15:47Z</time></trkpt><trkpt lat="42.772432" lon="0.661316"><ele>1246.49</ele><time>2011-09-16T07:15:48Z</time></trkpt><trkpt lat="42.772354" lon="0.661300"><ele>1247.45</ele><time>2011-09-16T07:15:49Z</time></trkpt><trkpt lat="42.772261" lon="0.661281"><ele>1248.41</ele><time>2011-09-16T07:15:50Z</time></trkpt><trkpt lat="42.772166" lon="0.661252"><ele>1249.37</ele><time>2011-09-16T07:15:51Z</time></trkpt><trkpt lat="42.772077" lon="0.661226"><ele>1250.33</ele><time>2011-09-16T07:15:52Z</time></trkpt><trkpt lat="42.772018" lon="0.661187"><ele>1253.22</ele><time>2011-09-16T07:15:53Z</time></trkpt><trkpt lat="42.771933" lon="0.661223"><ele>1255.14</ele><time>2011-09-16T07:15:54Z</time></trkpt><trkpt lat="42.771821" lon="0.661318"><ele>1256.10</ele><time>2011-09-16T07:15:55Z</time></trkpt><trkpt lat="42.771683" lon="0.661353"><ele>1259.46</ele><time>2011-09-16T07:15:56Z</time></trkpt><trkpt lat="42.771566" lon="0.661449"><ele>1260.43</ele><time>2011-09-16T07:15:57Z</time></trkpt><trkpt lat="42.771461" lon="0.661512"><ele>1261.39</ele><time>2011-09-16T07:15:58Z</time></trkpt><trkpt lat="42.771343" lon="0.661532"><ele>1263.31</ele><time>2011-09-16T07:15:59Z</time></trkpt><trkpt lat="42.771226" lon="0.661542"><ele>1264.75</ele><time>2011-09-16T07:16:00Z</time></trkpt><trkpt lat="42.771110" lon="0.661529"><ele>1265.71</ele><time>2011-09-16T07:16:01Z</time></trkpt><trkpt lat="42.770996" lon="0.661473"><ele>1265.71</ele><time>2011-09-16T07:16:02Z</time></trkpt><trkpt lat="42.770885" lon="0.661385"><ele>1266.19</ele><time>2011-09-16T07:16:03Z</time></trkpt><trkpt lat="42.770783" lon="0.661286"><ele>1266.19</ele><time>2011-09-16T07:16:04Z</time></trkpt><trkpt lat="42.770705" lon="0.661135"><ele>1265.23</ele><time>2011-09-16T07:16:05Z</time></trkpt><trkpt lat="42.770668" lon="0.660960"><ele>1266.67</ele><time>2011-09-16T07:16:06Z</time></trkpt><trkpt lat="42.770651" lon="0.660794"><ele>1269.08</ele><time>2011-09-16T07:16:07Z</time></trkpt><trkpt lat="42.770612" lon="0.660432"><ele>1271.96</ele><time>2011-09-16T07:16:10Z</time></trkpt><trkpt lat="42.770581" lon="0.660356"><ele>1272.92</ele><time>2011-09-16T07:16:11Z</time></trkpt><trkpt lat="42.770530" lon="0.660299"><ele>1273.40</ele><time>2011-09-16T07:16:12Z</time></trkpt><trkpt lat="42.770459" lon="0.660257"><ele>1274.36</ele><time>2011-09-16T07:16:13Z</time></trkpt><trkpt lat="42.770388" lon="0.660258"><ele>1275.81</ele><time>2011-09-16T07:16:14Z</time></trkpt><trkpt lat="42.770302" lon="0.660299"><ele>1276.77</ele><time>2011-09-16T07:16:15Z</time></trkpt><trkpt lat="42.770220" lon="0.660373"><ele>1278.21</ele><time>2011-09-16T07:16:16Z</time></trkpt><trkpt lat="42.770153" lon="0.660478"><ele>1278.69</ele><time>2011-09-16T07:16:17Z</time></trkpt><trkpt lat="42.770110" lon="0.660609"><ele>1279.65</ele><time>2011-09-16T07:16:18Z</time></trkpt><trkpt lat="42.770091" lon="0.660747"><ele>1280.61</ele><time>2011-09-16T07:16:19Z</time></trkpt><trkpt lat="42.770103" lon="0.660874"><ele>1281.09</ele><time>2011-09-16T07:16:20Z</time></trkpt><trkpt lat="42.770140" lon="0.660986"><ele>1282.06</ele><time>2011-09-16T07:16:21Z</time></trkpt><trkpt lat="42.770191" lon="0.661080"><ele>1282.54</ele><time>2011-09-16T07:16:22Z</time></trkpt><trkpt lat="42.770239" lon="0.661159"><ele>1283.02</ele><time>2011-09-16T07:16:23Z</time></trkpt><trkpt lat="42.770265" lon="0.661234"><ele>1283.98</ele><time>2011-09-16T07:16:24Z</time></trkpt><trkpt lat="42.770243" lon="0.661260"><ele>1285.42</ele><time>2011-09-16T07:16:25Z</time></trkpt><trkpt lat="42.770218" lon="0.661318"><ele>1286.38</ele><time>2011-09-16T07:16:26Z</time></trkpt><trkpt lat="42.770149" lon="0.661272"><ele>1288.30</ele><time>2011-09-16T07:16:27Z</time></trkpt><trkpt lat="42.770104" lon="0.661231"><ele>1288.78</ele><time>2011-09-16T07:16:28Z</time></trkpt><trkpt lat="42.770062" lon="0.661146"><ele>1289.27</ele><time>2011-09-16T07:16:29Z</time></trkpt><trkpt lat="42.770020" lon="0.661043"><ele>1290.23</ele><time>2011-09-16T07:16:30Z</time></trkpt><trkpt lat="42.769699" lon="0.660229"><ele>1296.48</ele><time>2011-09-16T07:16:37Z</time></trkpt><trkpt lat="42.769631" lon="0.660164"><ele>1297.92</ele><time>2011-09-16T07:16:38Z</time></trkpt><trkpt lat="42.769541" lon="0.660131"><ele>1297.92</ele><time>2011-09-16T07:16:39Z</time></trkpt><trkpt lat="42.769454" lon="0.660122"><ele>1298.40</ele><time>2011-09-16T07:16:40Z</time></trkpt><trkpt lat="42.769354" lon="0.660129"><ele>1297.44</ele><time>2011-09-16T07:16:41Z</time></trkpt><trkpt lat="42.769270" lon="0.660128"><ele>1296.96</ele><time>2011-09-16T07:16:42Z</time></trkpt><trkpt lat="42.769201" lon="0.660108"><ele>1297.44</ele><time>2011-09-16T07:16:43Z</time></trkpt><trkpt lat="42.769143" lon="0.660070"><ele>1297.92</ele><time>2011-09-16T07:16:44Z</time></trkpt><trkpt lat="42.769102" lon="0.660033"><ele>1297.92</ele><time>2011-09-16T07:16:45Z</time></trkpt><trkpt lat="42.768882" lon="0.659994"><ele>1296.48</ele><time>2011-09-16T07:16:54Z</time></trkpt><trkpt lat="42.768772" lon="0.660002"><ele>1293.11</ele><time>2011-09-16T07:17:07Z</time></trkpt><trkpt lat="42.768723" lon="0.659990"><ele>1293.11</ele><time>2011-09-16T07:17:08Z</time></trkpt><trkpt lat="42.768668" lon="0.659965"><ele>1293.11</ele><time>2011-09-16T07:17:09Z</time></trkpt><trkpt lat="42.768593" lon="0.659923"><ele>1292.15</ele><time>2011-09-16T07:17:10Z</time></trkpt><trkpt lat="42.768516" lon="0.659866"><ele>1291.67</ele><time>2011-09-16T07:17:11Z</time></trkpt><trkpt lat="42.768446" lon="0.659791"><ele>1290.71</ele><time>2011-09-16T07:17:12Z</time></trkpt><trkpt lat="42.768382" lon="0.659675"><ele>1290.23</ele><time>2011-09-16T07:17:13Z</time></trkpt><trkpt lat="42.768347" lon="0.659551"><ele>1289.27</ele><time>2011-09-16T07:17:14Z</time></trkpt><trkpt lat="42.768312" lon="0.659430"><ele>1288.30</ele><time>2011-09-16T07:17:15Z</time></trkpt><trkpt lat="42.768266" lon="0.659320"><ele>1287.82</ele><time>2011-09-16T07:17:16Z</time></trkpt><trkpt lat="42.768198" lon="0.659228"><ele>1287.34</ele><time>2011-09-16T07:17:17Z</time></trkpt><trkpt lat="42.768102" lon="0.659174"><ele>1286.86</ele><time>2011-09-16T07:17:18Z</time></trkpt><trkpt lat="42.767981" lon="0.659158"><ele>1286.38</ele><time>2011-09-16T07:17:19Z</time></trkpt><trkpt lat="42.767855" lon="0.659154"><ele>1285.90</ele><time>2011-09-16T07:17:20Z</time></trkpt><trkpt lat="42.767730" lon="0.659150"><ele>1285.90</ele><time>2011-09-16T07:17:21Z</time></trkpt><trkpt lat="42.767475" lon="0.659177"><ele>1285.42</ele><time>2011-09-16T07:17:23Z</time></trkpt><trkpt lat="42.767354" lon="0.659223"><ele>1284.46</ele><time>2011-09-16T07:17:24Z</time></trkpt><trkpt lat="42.767228" lon="0.659330"><ele>1283.02</ele><time>2011-09-16T07:17:25Z</time></trkpt><trkpt lat="42.767116" lon="0.659430"><ele>1281.57</ele><time>2011-09-16T07:17:26Z</time></trkpt><trkpt lat="42.767017" lon="0.659542"><ele>1281.09</ele><time>2011-09-16T07:17:27Z</time></trkpt><trkpt lat="42.766651" lon="0.659995"><ele>1277.25</ele><time>2011-09-16T07:17:31Z</time></trkpt><trkpt lat="42.766605" lon="0.660107"><ele>1276.29</ele><time>2011-09-16T07:17:32Z</time></trkpt><trkpt lat="42.766594" lon="0.660225"><ele>1274.85</ele><time>2011-09-16T07:17:33Z</time></trkpt><trkpt lat="42.766615" lon="0.660356"><ele>1274.36</ele><time>2011-09-16T07:17:34Z</time></trkpt><trkpt lat="42.766701" lon="0.660474"><ele>1272.44</ele><time>2011-09-16T07:17:35Z</time></trkpt><trkpt lat="42.766812" lon="0.660565"><ele>1271.48</ele><time>2011-09-16T07:17:36Z</time></trkpt><trkpt lat="42.766940" lon="0.660643"><ele>1270.04</ele><time>2011-09-16T07:17:37Z</time></trkpt><trkpt lat="42.767059" lon="0.660718"><ele>1269.08</ele><time>2011-09-16T07:17:38Z</time></trkpt><trkpt lat="42.767182" lon="0.660771"><ele>1268.12</ele><time>2011-09-16T07:17:39Z</time></trkpt><trkpt lat="42.767311" lon="0.660789"><ele>1267.16</ele><time>2011-09-16T07:17:40Z</time></trkpt><trkpt lat="42.767441" lon="0.660792"><ele>1266.67</ele><time>2011-09-16T07:17:41Z</time></trkpt><trkpt lat="42.767568" lon="0.660801"><ele>1266.19</ele><time>2011-09-16T07:17:42Z</time></trkpt><trkpt lat="42.767680" lon="0.660831"><ele>1265.23</ele><time>2011-09-16T07:17:43Z</time></trkpt><trkpt lat="42.767777" lon="0.660889"><ele>1264.75</ele><time>2011-09-16T07:17:44Z</time></trkpt><trkpt lat="42.767854" lon="0.660970"><ele>1263.79</ele><time>2011-09-16T07:17:45Z</time></trkpt><trkpt lat="42.767868" lon="0.661089"><ele>1262.83</ele><time>2011-09-16T07:17:46Z</time></trkpt><trkpt lat="42.767829" lon="0.661222"><ele>1261.87</ele><time>2011-09-16T07:17:47Z</time></trkpt><trkpt lat="42.767759" lon="0.661319"><ele>1261.39</ele><time>2011-09-16T07:17:48Z</time></trkpt><trkpt lat="42.767660" lon="0.661372"><ele>1260.43</ele><time>2011-09-16T07:17:49Z</time></trkpt><trkpt lat="42.767572" lon="0.661424"><ele>1259.94</ele><time>2011-09-16T07:17:50Z</time></trkpt><trkpt lat="42.767469" lon="0.661440"><ele>1259.46</ele><time>2011-09-16T07:17:51Z</time></trkpt><trkpt lat="42.767363" lon="0.661443"><ele>1258.50</ele><time>2011-09-16T07:17:52Z</time></trkpt><trkpt lat="42.767260" lon="0.661467"><ele>1258.02</ele><time>2011-09-16T07:17:53Z</time></trkpt><trkpt lat="42.767159" lon="0.661523"><ele>1257.06</ele><time>2011-09-16T07:17:54Z</time></trkpt><trkpt lat="42.767079" lon="0.661648"><ele>1256.58</ele><time>2011-09-16T07:17:55Z</time></trkpt><trkpt lat="42.767015" lon="0.661770"><ele>1255.14</ele><time>2011-09-16T07:17:56Z</time></trkpt><trkpt lat="42.766990" lon="0.661936"><ele>1253.70</ele><time>2011-09-16T07:17:57Z</time></trkpt><trkpt lat="42.766959" lon="0.662088"><ele>1252.74</ele><time>2011-09-16T07:17:58Z</time></trkpt><trkpt lat="42.766910" lon="0.662228"><ele>1250.81</ele><time>2011-09-16T07:17:59Z</time></trkpt><trkpt lat="42.766836" lon="0.662376"><ele>1249.85</ele><time>2011-09-16T07:18:00Z</time></trkpt><trkpt lat="42.766747" lon="0.662503"><ele>1248.89</ele><time>2011-09-16T07:18:01Z</time></trkpt><trkpt lat="42.766657" lon="0.662620"><ele>1247.45</ele><time>2011-09-16T07:18:02Z</time></trkpt><trkpt lat="42.766493" lon="0.662752"><ele>1245.53</ele><time>2011-09-16T07:18:04Z</time></trkpt><trkpt lat="42.766416" lon="0.662736"><ele>1244.56</ele><time>2011-09-16T07:18:05Z</time></trkpt><trkpt lat="42.766346" lon="0.662650"><ele>1243.12</ele><time>2011-09-16T07:18:06Z</time></trkpt><trkpt lat="42.766285" lon="0.662538"><ele>1242.16</ele><time>2011-09-16T07:18:07Z</time></trkpt><trkpt lat="42.766215" lon="0.662418"><ele>1241.20</ele><time>2011-09-16T07:18:08Z</time></trkpt><trkpt lat="42.766132" lon="0.662299"><ele>1240.24</ele><time>2011-09-16T07:18:09Z</time></trkpt><trkpt lat="42.766034" lon="0.662193"><ele>1238.80</ele><time>2011-09-16T07:18:10Z</time></trkpt><trkpt lat="42.765836" lon="0.661981"><ele>1236.39</ele><time>2011-09-16T07:18:12Z</time></trkpt><trkpt lat="42.765749" lon="0.661859"><ele>1235.43</ele><time>2011-09-16T07:18:13Z</time></trkpt><trkpt lat="42.765583" lon="0.661638"><ele>1233.03</ele><time>2011-09-16T07:18:15Z</time></trkpt><trkpt lat="42.765479" lon="0.661592"><ele>1232.07</ele><time>2011-09-16T07:18:16Z</time></trkpt><trkpt lat="42.765369" lon="0.661602"><ele>1231.11</ele><time>2011-09-16T07:18:17Z</time></trkpt><trkpt lat="42.765266" lon="0.661641"><ele>1229.66</ele><time>2011-09-16T07:18:18Z</time></trkpt><trkpt lat="42.765159" lon="0.661731"><ele>1228.22</ele><time>2011-09-16T07:18:19Z</time></trkpt><trkpt lat="42.765070" lon="0.661841"><ele>1227.74</ele><time>2011-09-16T07:18:20Z</time></trkpt><trkpt lat="42.764982" lon="0.661961"><ele>1227.26</ele><time>2011-09-16T07:18:21Z</time></trkpt><trkpt lat="42.764895" lon="0.662105"><ele>1227.26</ele><time>2011-09-16T07:18:22Z</time></trkpt><trkpt lat="42.764812" lon="0.662250"><ele>1225.82</ele><time>2011-09-16T07:18:23Z</time></trkpt><trkpt lat="42.764735" lon="0.662398"><ele>1224.86</ele><time>2011-09-16T07:18:24Z</time></trkpt><trkpt lat="42.764659" lon="0.662558"><ele>1222.93</ele><time>2011-09-16T07:18:25Z</time></trkpt><trkpt lat="42.764593" lon="0.662729"><ele>1221.97</ele><time>2011-09-16T07:18:26Z</time></trkpt><trkpt lat="42.764307" lon="0.663819"><ele>1210.92</ele><time>2011-09-16T07:18:33Z</time></trkpt><trkpt lat="42.764355" lon="0.663917"><ele>1211.40</ele><time>2011-09-16T07:18:34Z</time></trkpt><trkpt lat="42.764491" lon="0.663936"><ele>1211.40</ele><time>2011-09-16T07:18:35Z</time></trkpt><trkpt lat="42.764595" lon="0.663910"><ele>1210.92</ele><time>2011-09-16T07:18:36Z</time></trkpt><trkpt lat="42.764677" lon="0.663856"><ele>1210.92</ele><time>2011-09-16T07:18:37Z</time></trkpt><trkpt lat="42.764739" lon="0.663746"><ele>1210.44</ele><time>2011-09-16T07:18:38Z</time></trkpt><trkpt lat="42.764801" lon="0.663611"><ele>1209.48</ele><time>2011-09-16T07:18:39Z</time></trkpt><trkpt lat="42.764856" lon="0.663444"><ele>1208.51</ele><time>2011-09-16T07:18:40Z</time></trkpt><trkpt lat="42.764914" lon="0.663281"><ele>1207.07</ele><time>2011-09-16T07:18:41Z</time></trkpt><trkpt lat="42.764982" lon="0.663126"><ele>1206.11</ele><time>2011-09-16T07:18:42Z</time></trkpt><trkpt lat="42.765059" lon="0.662992"><ele>1205.15</ele><time>2011-09-16T07:18:43Z</time></trkpt><trkpt lat="42.765255" lon="0.662889"><ele>1203.71</ele><time>2011-09-16T07:18:45Z</time></trkpt><trkpt lat="42.765366" lon="0.662934"><ele>1202.27</ele><time>2011-09-16T07:18:46Z</time></trkpt><trkpt lat="42.765453" lon="0.663017"><ele>1201.79</ele><time>2011-09-16T07:18:47Z</time></trkpt><trkpt lat="42.765543" lon="0.663119"><ele>1201.30</ele><time>2011-09-16T07:18:48Z</time></trkpt><trkpt lat="42.765644" lon="0.663229"><ele>1200.34</ele><time>2011-09-16T07:18:49Z</time></trkpt><trkpt lat="42.765748" lon="0.663350"><ele>1199.86</ele><time>2011-09-16T07:18:50Z</time></trkpt><trkpt lat="42.765858" lon="0.663480"><ele>1199.38</ele><time>2011-09-16T07:18:51Z</time></trkpt><trkpt lat="42.765940" lon="0.663629"><ele>1198.42</ele><time>2011-09-16T07:18:52Z</time></trkpt><trkpt lat="42.766001" lon="0.663800"><ele>1196.98</ele><time>2011-09-16T07:18:53Z</time></trkpt><trkpt lat="42.766042" lon="0.663989"><ele>1195.54</ele><time>2011-09-16T07:18:54Z</time></trkpt><trkpt lat="42.766066" lon="0.664184"><ele>1194.09</ele><time>2011-09-16T07:18:55Z</time></trkpt><trkpt lat="42.766067" lon="0.664385"><ele>1193.61</ele><time>2011-09-16T07:18:56Z</time></trkpt><trkpt lat="42.766063" lon="0.664580"><ele>1193.13</ele><time>2011-09-16T07:18:57Z</time></trkpt><trkpt lat="42.766092" lon="0.664960"><ele>1190.73</ele><time>2011-09-16T07:18:59Z</time></trkpt><trkpt lat="42.766138" lon="0.665160"><ele>1189.77</ele><time>2011-09-16T07:19:00Z</time></trkpt><trkpt lat="42.766198" lon="0.665362"><ele>1188.81</ele><time>2011-09-16T07:19:01Z</time></trkpt><trkpt lat="42.766611" lon="0.666795"><ele>1179.19</ele><time>2011-09-16T07:19:09Z</time></trkpt><trkpt lat="42.766689" lon="0.666870"><ele>1177.75</ele><time>2011-09-16T07:19:10Z</time></trkpt><trkpt lat="42.766788" lon="0.666885"><ele>1176.79</ele><time>2011-09-16T07:19:11Z</time></trkpt><trkpt lat="42.766886" lon="0.666932"><ele>1176.31</ele><time>2011-09-16T07:19:12Z</time></trkpt><trkpt lat="42.767002" lon="0.666873"><ele>1175.35</ele><time>2011-09-16T07:19:13Z</time></trkpt><trkpt lat="42.767104" lon="0.666871"><ele>1175.35</ele><time>2011-09-16T07:19:14Z</time></trkpt><trkpt lat="42.767199" lon="0.666817"><ele>1175.35</ele><time>2011-09-16T07:19:15Z</time></trkpt><trkpt lat="42.767291" lon="0.666717"><ele>1173.91</ele><time>2011-09-16T07:19:16Z</time></trkpt><trkpt lat="42.767385" lon="0.666654"><ele>1172.95</ele><time>2011-09-16T07:19:17Z</time></trkpt><trkpt lat="42.767478" lon="0.666659"><ele>1171.98</ele><time>2011-09-16T07:19:18Z</time></trkpt><trkpt lat="42.767550" lon="0.666713"><ele>1171.50</ele><time>2011-09-16T07:19:19Z</time></trkpt><trkpt lat="42.767645" lon="0.666789"><ele>1170.06</ele><time>2011-09-16T07:19:20Z</time></trkpt><trkpt lat="42.767733" lon="0.666894"><ele>1169.10</ele><time>2011-09-16T07:19:21Z</time></trkpt><trkpt lat="42.767834" lon="0.667002"><ele>1168.14</ele><time>2011-09-16T07:19:22Z</time></trkpt><trkpt lat="42.768050" lon="0.667237"><ele>1166.70</ele><time>2011-09-16T07:19:24Z</time></trkpt><trkpt lat="42.768159" lon="0.667369"><ele>1164.77</ele><time>2011-09-16T07:19:25Z</time></trkpt><trkpt lat="42.768255" lon="0.667517"><ele>1163.33</ele><time>2011-09-16T07:19:26Z</time></trkpt><trkpt lat="42.768342" lon="0.667672"><ele>1161.41</ele><time>2011-09-16T07:19:27Z</time></trkpt><trkpt lat="42.768408" lon="0.667845"><ele>1159.97</ele><time>2011-09-16T07:19:28Z</time></trkpt><trkpt lat="42.768436" lon="0.668049"><ele>1159.97</ele><time>2011-09-16T07:19:29Z</time></trkpt><trkpt lat="42.768460" lon="0.668243"><ele>1157.56</ele><time>2011-09-16T07:19:30Z</time></trkpt><trkpt lat="42.768481" lon="0.668432"><ele>1155.16</ele><time>2011-09-16T07:19:31Z</time></trkpt><trkpt lat="42.768484" lon="0.668622"><ele>1154.20</ele><time>2011-09-16T07:19:32Z</time></trkpt><trkpt lat="42.768472" lon="0.668793"><ele>1152.76</ele><time>2011-09-16T07:19:33Z</time></trkpt><trkpt lat="42.768432" lon="0.668949"><ele>1150.84</ele><time>2011-09-16T07:19:34Z</time></trkpt><trkpt lat="42.768364" lon="0.669089"><ele>1148.91</ele><time>2011-09-16T07:19:35Z</time></trkpt><trkpt lat="42.768282" lon="0.669221"><ele>1147.47</ele><time>2011-09-16T07:19:36Z</time></trkpt><trkpt lat="42.768190" lon="0.669350"><ele>1145.55</ele><time>2011-09-16T07:19:37Z</time></trkpt><trkpt lat="42.768010" lon="0.669638"><ele>1142.66</ele><time>2011-09-16T07:19:39Z</time></trkpt><trkpt lat="42.767949" lon="0.669801"><ele>1141.22</ele><time>2011-09-16T07:19:40Z</time></trkpt><trkpt lat="42.767916" lon="0.669972"><ele>1139.78</ele><time>2011-09-16T07:19:41Z</time></trkpt><trkpt lat="42.767937" lon="0.670160"><ele>1138.82</ele><time>2011-09-16T07:19:42Z</time></trkpt><trkpt lat="42.767958" lon="0.670334"><ele>1137.86</ele><time>2011-09-16T07:19:43Z</time></trkpt><trkpt lat="42.767990" lon="0.670506"><ele>1136.90</ele><time>2011-09-16T07:19:44Z</time></trkpt><trkpt lat="42.768029" lon="0.670678"><ele>1136.42</ele><time>2011-09-16T07:19:45Z</time></trkpt><trkpt lat="42.768201" lon="0.671201"><ele>1134.01</ele><time>2011-09-16T07:19:48Z</time></trkpt><trkpt lat="42.768282" lon="0.671363"><ele>1133.53</ele><time>2011-09-16T07:19:49Z</time></trkpt><trkpt lat="42.768380" lon="0.671502"><ele>1132.57</ele><time>2011-09-16T07:19:50Z</time></trkpt><trkpt lat="42.768492" lon="0.671620"><ele>1132.09</ele><time>2011-09-16T07:19:51Z</time></trkpt><trkpt lat="42.768610" lon="0.671727"><ele>1131.13</ele><time>2011-09-16T07:19:52Z</time></trkpt><trkpt lat="42.769095" lon="0.672140"><ele>1128.24</ele><time>2011-09-16T07:19:56Z</time></trkpt><trkpt lat="42.769199" lon="0.672265"><ele>1127.28</ele><time>2011-09-16T07:19:57Z</time></trkpt><trkpt lat="42.769290" lon="0.672407"><ele>1126.32</ele><time>2011-09-16T07:19:58Z</time></trkpt><trkpt lat="42.769373" lon="0.672564"><ele>1125.84</ele><time>2011-09-16T07:19:59Z</time></trkpt><trkpt lat="42.769452" lon="0.672734"><ele>1124.88</ele><time>2011-09-16T07:20:00Z</time></trkpt><trkpt lat="42.769882" lon="0.674219"><ele>1121.03</ele><time>2011-09-16T07:20:08Z</time></trkpt><trkpt lat="42.769957" lon="0.674373"><ele>1120.55</ele><time>2011-09-16T07:20:09Z</time></trkpt><trkpt lat="42.770109" lon="0.674672"><ele>1119.59</ele><time>2011-09-16T07:20:11Z</time></trkpt><trkpt lat="42.770166" lon="0.674830"><ele>1119.11</ele><time>2011-09-16T07:20:12Z</time></trkpt><trkpt lat="42.770633" lon="0.676337"><ele>1108.06</ele><time>2011-09-16T07:20:21Z</time></trkpt><trkpt lat="42.770719" lon="0.676471"><ele>1106.61</ele><time>2011-09-16T07:20:22Z</time></trkpt><trkpt lat="42.770818" lon="0.676597"><ele>1105.17</ele><time>2011-09-16T07:20:23Z</time></trkpt><trkpt lat="42.771136" lon="0.676956"><ele>1099.89</ele><time>2011-09-16T07:20:26Z</time></trkpt><trkpt lat="42.771255" lon="0.677053"><ele>1097.96</ele><time>2011-09-16T07:20:27Z</time></trkpt><trkpt lat="42.771383" lon="0.677129"><ele>1096.52</ele><time>2011-09-16T07:20:28Z</time></trkpt><trkpt lat="42.772428" lon="0.677715"><ele>1086.43</ele><time>2011-09-16T07:20:36Z</time></trkpt><trkpt lat="42.772556" lon="0.677747"><ele>1085.95</ele><time>2011-09-16T07:20:37Z</time></trkpt><trkpt lat="42.772687" lon="0.677752"><ele>1084.99</ele><time>2011-09-16T07:20:38Z</time></trkpt><trkpt lat="42.772818" lon="0.677739"><ele>1084.02</ele><time>2011-09-16T07:20:39Z</time></trkpt><trkpt lat="42.772949" lon="0.677724"><ele>1082.10</ele><time>2011-09-16T07:20:40Z</time></trkpt><trkpt lat="42.773081" lon="0.677726"><ele>1080.18</ele><time>2011-09-16T07:20:41Z</time></trkpt><trkpt lat="42.774424" lon="0.677778"><ele>1066.72</ele><time>2011-09-16T07:20:51Z</time></trkpt><trkpt lat="42.774791" lon="0.677730"><ele>1062.39</ele><time>2011-09-16T07:20:54Z</time></trkpt><trkpt lat="42.774901" lon="0.677743"><ele>1060.47</ele><time>2011-09-16T07:20:55Z</time></trkpt><trkpt lat="42.775007" lon="0.677788"><ele>1059.51</ele><time>2011-09-16T07:20:56Z</time></trkpt><trkpt lat="42.775955" lon="0.678022"><ele>1047.97</ele><time>2011-09-16T07:21:03Z</time></trkpt><trkpt lat="42.776955" lon="0.678627"><ele>1039.32</ele><time>2011-09-16T07:21:11Z</time></trkpt><trkpt lat="42.777886" lon="0.679512"><ele>1032.59</ele><time>2011-09-16T07:21:20Z</time></trkpt><trkpt lat="42.777953" lon="0.679628"><ele>1031.15</ele><time>2011-09-16T07:21:21Z</time></trkpt><trkpt lat="42.778005" lon="0.679744"><ele>1030.19</ele><time>2011-09-16T07:21:22Z</time></trkpt><trkpt lat="42.778033" lon="0.679865"><ele>1028.75</ele><time>2011-09-16T07:21:23Z</time></trkpt><trkpt lat="42.778034" lon="0.679988"><ele>1027.79</ele><time>2011-09-16T07:21:24Z</time></trkpt><trkpt lat="42.778021" lon="0.680107"><ele>1026.83</ele><time>2011-09-16T07:21:25Z</time></trkpt><trkpt lat="42.778013" lon="0.680220"><ele>1026.34</ele><time>2011-09-16T07:21:26Z</time></trkpt><trkpt lat="42.778023" lon="0.680331"><ele>1025.86</ele><time>2011-09-16T07:21:27Z</time></trkpt><trkpt lat="42.778064" lon="0.680405"><ele>1024.42</ele><time>2011-09-16T07:21:28Z</time></trkpt><trkpt lat="42.778147" lon="0.680428"><ele>1022.98</ele><time>2011-09-16T07:21:29Z</time></trkpt><trkpt lat="42.778229" lon="0.680424"><ele>1022.98</ele><time>2011-09-16T07:21:30Z</time></trkpt><trkpt lat="42.778325" lon="0.680358"><ele>1022.50</ele><time>2011-09-16T07:21:31Z</time></trkpt><trkpt lat="42.778431" lon="0.680278"><ele>1021.06</ele><time>2011-09-16T07:21:32Z</time></trkpt><trkpt lat="42.778538" lon="0.680190"><ele>1021.06</ele><time>2011-09-16T07:21:33Z</time></trkpt><trkpt lat="42.778650" lon="0.680107"><ele>1020.10</ele><time>2011-09-16T07:21:34Z</time></trkpt><trkpt lat="42.778787" lon="0.680069"><ele>1018.17</ele><time>2011-09-16T07:21:35Z</time></trkpt><trkpt lat="42.778900" lon="0.680014"><ele>1016.73</ele><time>2011-09-16T07:21:36Z</time></trkpt><trkpt lat="42.779018" lon="0.679981"><ele>1015.77</ele><time>2011-09-16T07:21:37Z</time></trkpt><trkpt lat="42.779136" lon="0.679941"><ele>1014.33</ele><time>2011-09-16T07:21:38Z</time></trkpt><trkpt lat="42.779259" lon="0.679878"><ele>1013.37</ele><time>2011-09-16T07:21:39Z</time></trkpt><trkpt lat="42.779379" lon="0.679805"><ele>1011.93</ele><time>2011-09-16T07:21:40Z</time></trkpt><trkpt lat="42.779497" lon="0.679731"><ele>1010.48</ele><time>2011-09-16T07:21:41Z</time></trkpt><trkpt lat="42.780791" lon="0.679010"><ele>999.43</ele><time>2011-09-16T07:21:53Z</time></trkpt><trkpt lat="42.780862" lon="0.678906"><ele>997.51</ele><time>2011-09-16T07:21:54Z</time></trkpt><trkpt lat="42.780909" lon="0.678763"><ele>996.54</ele><time>2011-09-16T07:21:55Z</time></trkpt><trkpt lat="42.780945" lon="0.678626"><ele>995.58</ele><time>2011-09-16T07:21:56Z</time></trkpt><trkpt lat="42.780969" lon="0.678505"><ele>994.14</ele><time>2011-09-16T07:21:57Z</time></trkpt><trkpt lat="42.780995" lon="0.678401"><ele>993.18</ele><time>2011-09-16T07:21:58Z</time></trkpt><trkpt lat="42.781032" lon="0.678311"><ele>991.74</ele><time>2011-09-16T07:21:59Z</time></trkpt><trkpt lat="42.781086" lon="0.678236"><ele>990.30</ele><time>2011-09-16T07:22:00Z</time></trkpt><trkpt lat="42.781160" lon="0.678223"><ele>988.85</ele><time>2011-09-16T07:22:01Z</time></trkpt><trkpt lat="42.781223" lon="0.678258"><ele>987.41</ele><time>2011-09-16T07:22:02Z</time></trkpt><trkpt lat="42.781269" lon="0.678352"><ele>985.97</ele><time>2011-09-16T07:22:03Z</time></trkpt><trkpt lat="42.781287" lon="0.678444"><ele>985.49</ele><time>2011-09-16T07:22:04Z</time></trkpt><trkpt lat="42.781281" lon="0.678556"><ele>983.57</ele><time>2011-09-16T07:22:05Z</time></trkpt><trkpt lat="42.781234" lon="0.678696"><ele>983.57</ele><time>2011-09-16T07:22:06Z</time></trkpt><trkpt lat="42.781154" lon="0.678837"><ele>984.05</ele><time>2011-09-16T07:22:07Z</time></trkpt><trkpt lat="42.781073" lon="0.678976"><ele>983.57</ele><time>2011-09-16T07:22:08Z</time></trkpt><trkpt lat="42.780989" lon="0.679118"><ele>983.57</ele><time>2011-09-16T07:22:09Z</time></trkpt><trkpt lat="42.780898" lon="0.679245"><ele>983.09</ele><time>2011-09-16T07:22:10Z</time></trkpt><trkpt lat="42.780678" lon="0.679486"><ele>983.57</ele><time>2011-09-16T07:22:12Z</time></trkpt><trkpt lat="42.780550" lon="0.679557"><ele>981.16</ele><time>2011-09-16T07:22:13Z</time></trkpt><trkpt lat="42.780428" lon="0.679643"><ele>979.24</ele><time>2011-09-16T07:22:14Z</time></trkpt><trkpt lat="42.780315" lon="0.679751"><ele>977.80</ele><time>2011-09-16T07:22:15Z</time></trkpt><trkpt lat="42.780213" lon="0.679870"><ele>976.84</ele><time>2011-09-16T07:22:16Z</time></trkpt><trkpt lat="42.780119" lon="0.679999"><ele>976.36</ele><time>2011-09-16T07:22:17Z</time></trkpt><trkpt lat="42.780026" lon="0.680128"><ele>974.43</ele><time>2011-09-16T07:22:18Z</time></trkpt><trkpt lat="42.779565" lon="0.680779"><ele>967.22</ele><time>2011-09-16T07:22:23Z</time></trkpt><trkpt lat="42.779444" lon="0.680898"><ele>966.26</ele><time>2011-09-16T07:22:24Z</time></trkpt><trkpt lat="42.779312" lon="0.680995"><ele>965.78</ele><time>2011-09-16T07:22:25Z</time></trkpt><trkpt lat="42.778096" lon="0.681610"><ele>955.21</ele><time>2011-09-16T07:22:34Z</time></trkpt><trkpt lat="42.777961" lon="0.681628"><ele>953.28</ele><time>2011-09-16T07:22:35Z</time></trkpt><trkpt lat="42.777530" lon="0.681708"><ele>948.00</ele><time>2011-09-16T07:22:39Z</time></trkpt><trkpt lat="42.777421" lon="0.681687"><ele>947.04</ele><time>2011-09-16T07:22:40Z</time></trkpt><trkpt lat="42.777316" lon="0.681631"><ele>946.56</ele><time>2011-09-16T07:22:41Z</time></trkpt><trkpt lat="42.777212" lon="0.681550"><ele>945.59</ele><time>2011-09-16T07:22:42Z</time></trkpt><trkpt lat="42.777111" lon="0.681447"><ele>944.63</ele><time>2011-09-16T07:22:43Z</time></trkpt><trkpt lat="42.777011" lon="0.681323"><ele>943.67</ele><time>2011-09-16T07:22:44Z</time></trkpt><trkpt lat="42.776916" lon="0.681185"><ele>942.23</ele><time>2011-09-16T07:22:45Z</time></trkpt><trkpt lat="42.776828" lon="0.681042"><ele>941.27</ele><time>2011-09-16T07:22:46Z</time></trkpt><trkpt lat="42.776572" lon="0.680657"><ele>938.38</ele><time>2011-09-16T07:22:49Z</time></trkpt><trkpt lat="42.776467" lon="0.680567"><ele>937.90</ele><time>2011-09-16T07:22:50Z</time></trkpt><trkpt lat="42.776351" lon="0.680494"><ele>937.42</ele><time>2011-09-16T07:22:51Z</time></trkpt><trkpt lat="42.776226" lon="0.680440"><ele>936.46</ele><time>2011-09-16T07:22:52Z</time></trkpt><trkpt lat="42.776093" lon="0.680408"><ele>935.02</ele><time>2011-09-16T07:22:53Z</time></trkpt><trkpt lat="42.775962" lon="0.680381"><ele>933.10</ele><time>2011-09-16T07:22:54Z</time></trkpt><trkpt lat="42.775592" lon="0.680372"><ele>928.77</ele><time>2011-09-16T07:22:57Z</time></trkpt><trkpt lat="42.775476" lon="0.680425"><ele>929.73</ele><time>2011-09-16T07:22:58Z</time></trkpt><trkpt lat="42.775359" lon="0.680477"><ele>929.25</ele><time>2011-09-16T07:22:59Z</time></trkpt><trkpt lat="42.774886" lon="0.680581"><ele>924.93</ele><time>2011-09-16T07:23:03Z</time></trkpt><trkpt lat="42.774762" lon="0.680601"><ele>923.48</ele><time>2011-09-16T07:23:04Z</time></trkpt><trkpt lat="42.774373" lon="0.680619"><ele>918.68</ele><time>2011-09-16T07:23:07Z</time></trkpt><trkpt lat="42.774235" lon="0.680620"><ele>916.27</ele><time>2011-09-16T07:23:08Z</time></trkpt><trkpt lat="42.773229" lon="0.680653"><ele>907.62</ele><time>2011-09-16T07:23:16Z</time></trkpt><trkpt lat="42.773149" lon="0.680673"><ele>907.62</ele><time>2011-09-16T07:23:17Z</time></trkpt><trkpt lat="42.773103" lon="0.680728"><ele>906.66</ele><time>2011-09-16T07:23:18Z</time></trkpt><trkpt lat="42.773086" lon="0.680795"><ele>905.22</ele><time>2011-09-16T07:23:19Z</time></trkpt><trkpt lat="42.773101" lon="0.680898"><ele>904.26</ele><time>2011-09-16T07:23:20Z</time></trkpt><trkpt lat="42.773133" lon="0.681010"><ele>903.78</ele><time>2011-09-16T07:23:21Z</time></trkpt><trkpt lat="42.773194" lon="0.681075"><ele>904.26</ele><time>2011-09-16T07:23:22Z</time></trkpt><trkpt lat="42.773266" lon="0.681108"><ele>904.26</ele><time>2011-09-16T07:23:23Z</time></trkpt><trkpt lat="42.773390" lon="0.681083"><ele>903.78</ele><time>2011-09-16T07:23:24Z</time></trkpt><trkpt lat="42.773519" lon="0.681054"><ele>902.33</ele><time>2011-09-16T07:23:25Z</time></trkpt><trkpt lat="42.773662" lon="0.681030"><ele>901.37</ele><time>2011-09-16T07:23:26Z</time></trkpt><trkpt lat="42.774965" lon="0.681223"><ele>895.12</ele><time>2011-09-16T07:23:35Z</time></trkpt><trkpt lat="42.775704" lon="0.681527"><ele>892.72</ele><time>2011-09-16T07:23:40Z</time></trkpt><trkpt lat="42.775841" lon="0.681600"><ele>891.76</ele><time>2011-09-16T07:23:41Z</time></trkpt><trkpt lat="42.775971" lon="0.681685"><ele>890.80</ele><time>2011-09-16T07:23:42Z</time></trkpt><trkpt lat="42.776439" lon="0.682100"><ele>885.99</ele><time>2011-09-16T07:23:46Z</time></trkpt><trkpt lat="42.776527" lon="0.682235"><ele>885.51</ele><time>2011-09-16T07:23:47Z</time></trkpt><trkpt lat="42.776684" lon="0.682458"><ele>883.11</ele><time>2011-09-16T07:23:49Z</time></trkpt><trkpt lat="42.776774" lon="0.682523"><ele>882.15</ele><time>2011-09-16T07:23:50Z</time></trkpt><trkpt lat="42.776881" lon="0.682553"><ele>881.67</ele><time>2011-09-16T07:23:51Z</time></trkpt><trkpt lat="42.776986" lon="0.682592"><ele>881.19</ele><time>2011-09-16T07:23:52Z</time></trkpt><trkpt lat="42.777090" lon="0.682646"><ele>880.22</ele><time>2011-09-16T07:23:53Z</time></trkpt><trkpt lat="42.777182" lon="0.682725"><ele>879.74</ele><time>2011-09-16T07:23:54Z</time></trkpt><trkpt lat="42.777269" lon="0.682808"><ele>879.74</ele><time>2011-09-16T07:23:55Z</time></trkpt><trkpt lat="42.777359" lon="0.682869"><ele>878.78</ele><time>2011-09-16T07:23:56Z</time></trkpt><trkpt lat="42.777459" lon="0.682900"><ele>877.82</ele><time>2011-09-16T07:23:57Z</time></trkpt><trkpt lat="42.777572" lon="0.682904"><ele>877.34</ele><time>2011-09-16T07:23:58Z</time></trkpt><trkpt lat="42.777692" lon="0.682911"><ele>876.38</ele><time>2011-09-16T07:23:59Z</time></trkpt><trkpt lat="42.777811" lon="0.682934"><ele>875.90</ele><time>2011-09-16T07:24:00Z</time></trkpt><trkpt lat="42.777930" lon="0.682977"><ele>874.94</ele><time>2011-09-16T07:24:01Z</time></trkpt><trkpt lat="42.778045" lon="0.683051"><ele>874.46</ele><time>2011-09-16T07:24:02Z</time></trkpt><trkpt lat="42.778144" lon="0.683141"><ele>873.98</ele><time>2011-09-16T07:24:03Z</time></trkpt><trkpt lat="42.778247" lon="0.683208"><ele>873.01</ele><time>2011-09-16T07:24:04Z</time></trkpt><trkpt lat="42.778347" lon="0.683247"><ele>872.53</ele><time>2011-09-16T07:24:05Z</time></trkpt><trkpt lat="42.778452" lon="0.683249"><ele>872.05</ele><time>2011-09-16T07:24:06Z</time></trkpt><trkpt lat="42.778563" lon="0.683238"><ele>871.09</ele><time>2011-09-16T07:24:07Z</time></trkpt><trkpt lat="42.779380" lon="0.683143"><ele>864.36</ele><time>2011-09-16T07:24:14Z</time></trkpt><trkpt lat="42.779464" lon="0.683065"><ele>863.40</ele><time>2011-09-16T07:24:15Z</time></trkpt><trkpt lat="42.779721" lon="0.682976"><ele>860.52</ele><time>2011-09-16T07:24:18Z</time></trkpt><trkpt lat="42.779798" lon="0.683024"><ele>859.08</ele><time>2011-09-16T07:24:19Z</time></trkpt><trkpt lat="42.779831" lon="0.683102"><ele>858.59</ele><time>2011-09-16T07:24:20Z</time></trkpt><trkpt lat="42.779804" lon="0.683210"><ele>857.15</ele><time>2011-09-16T07:24:21Z</time></trkpt><trkpt lat="42.779726" lon="0.683319"><ele>856.67</ele><time>2011-09-16T07:24:22Z</time></trkpt><trkpt lat="42.779639" lon="0.683385"><ele>855.71</ele><time>2011-09-16T07:24:23Z</time></trkpt><trkpt lat="42.779554" lon="0.683436"><ele>854.27</ele><time>2011-09-16T07:24:24Z</time></trkpt><trkpt lat="42.779462" lon="0.683468"><ele>853.31</ele><time>2011-09-16T07:24:25Z</time></trkpt><trkpt lat="42.779346" lon="0.683496"><ele>852.35</ele><time>2011-09-16T07:24:26Z</time></trkpt><trkpt lat="42.779203" lon="0.683499"><ele>850.90</ele><time>2011-09-16T07:24:27Z</time></trkpt><trkpt lat="42.779060" lon="0.683500"><ele>849.46</ele><time>2011-09-16T07:24:28Z</time></trkpt><trkpt lat="42.778928" lon="0.683494"><ele>847.06</ele><time>2011-09-16T07:24:29Z</time></trkpt><trkpt lat="42.778574" lon="0.683515"><ele>843.21</ele><time>2011-09-16T07:24:32Z</time></trkpt><trkpt lat="42.778467" lon="0.683557"><ele>843.21</ele><time>2011-09-16T07:24:33Z</time></trkpt><trkpt lat="42.778354" lon="0.683584"><ele>842.73</ele><time>2011-09-16T07:24:34Z</time></trkpt><trkpt lat="42.778240" lon="0.683597"><ele>842.25</ele><time>2011-09-16T07:24:35Z</time></trkpt><trkpt lat="42.778127" lon="0.683583"><ele>842.25</ele><time>2011-09-16T07:24:36Z</time></trkpt><trkpt lat="42.778019" lon="0.683533"><ele>841.77</ele><time>2011-09-16T07:24:37Z</time></trkpt><trkpt lat="42.777914" lon="0.683456"><ele>841.29</ele><time>2011-09-16T07:24:38Z</time></trkpt><trkpt lat="42.777810" lon="0.683381"><ele>840.81</ele><time>2011-09-16T07:24:39Z</time></trkpt><trkpt lat="42.777609" lon="0.683275"><ele>840.33</ele><time>2011-09-16T07:24:41Z</time></trkpt><trkpt lat="42.777498" lon="0.683251"><ele>840.81</ele><time>2011-09-16T07:24:42Z</time></trkpt><trkpt lat="42.777380" lon="0.683236"><ele>839.85</ele><time>2011-09-16T07:24:43Z</time></trkpt><trkpt lat="42.777252" lon="0.683207"><ele>839.37</ele><time>2011-09-16T07:24:44Z</time></trkpt><trkpt lat="42.777124" lon="0.683156"><ele>838.41</ele><time>2011-09-16T07:24:45Z</time></trkpt><trkpt lat="42.776997" lon="0.683099"><ele>837.45</ele><time>2011-09-16T07:24:46Z</time></trkpt><trkpt lat="42.776376" lon="0.682869"><ele>833.12</ele><time>2011-09-16T07:24:51Z</time></trkpt><trkpt lat="42.776265" lon="0.682796"><ele>832.16</ele><time>2011-09-16T07:24:52Z</time></trkpt><trkpt lat="42.775952" lon="0.682629"><ele>827.83</ele><time>2011-09-16T07:24:55Z</time></trkpt><trkpt lat="42.775837" lon="0.682626"><ele>825.43</ele><time>2011-09-16T07:24:56Z</time></trkpt><trkpt lat="42.775583" lon="0.682656"><ele>823.51</ele><time>2011-09-16T07:24:58Z</time></trkpt><trkpt lat="42.775453" lon="0.682686"><ele>821.58</ele><time>2011-09-16T07:24:59Z</time></trkpt><trkpt lat="42.775329" lon="0.682725"><ele>819.66</ele><time>2011-09-16T07:25:00Z</time></trkpt><trkpt lat="42.774961" lon="0.682872"><ele>819.18</ele><time>2011-09-16T07:25:03Z</time></trkpt><trkpt lat="42.774165" lon="0.682943"><ele>814.37</ele><time>2011-09-16T07:25:09Z</time></trkpt><trkpt lat="42.774059" lon="0.683008"><ele>814.37</ele><time>2011-09-16T07:25:10Z</time></trkpt><trkpt lat="42.773957" lon="0.683099"><ele>815.82</ele><time>2011-09-16T07:25:11Z</time></trkpt><trkpt lat="42.773872" lon="0.683235"><ele>818.22</ele><time>2011-09-16T07:25:12Z</time></trkpt><trkpt lat="42.773775" lon="0.683348"><ele>819.66</ele><time>2011-09-16T07:25:13Z</time></trkpt><trkpt lat="42.773664" lon="0.683437"><ele>820.14</ele><time>2011-09-16T07:25:14Z</time></trkpt><trkpt lat="42.773542" lon="0.683485"><ele>819.66</ele><time>2011-09-16T07:25:15Z</time></trkpt><trkpt lat="42.773422" lon="0.683517"><ele>819.18</ele><time>2011-09-16T07:25:16Z</time></trkpt><trkpt lat="42.773306" lon="0.683533"><ele>818.22</ele><time>2011-09-16T07:25:17Z</time></trkpt><trkpt lat="42.773192" lon="0.683527"><ele>817.26</ele><time>2011-09-16T07:25:18Z</time></trkpt><trkpt lat="42.773078" lon="0.683499"><ele>816.78</ele><time>2011-09-16T07:25:19Z</time></trkpt><trkpt lat="42.772961" lon="0.683448"><ele>815.82</ele><time>2011-09-16T07:25:20Z</time></trkpt><trkpt lat="42.772840" lon="0.683388"><ele>814.85</ele><time>2011-09-16T07:25:21Z</time></trkpt><trkpt lat="42.772212" lon="0.683109"><ele>810.05</ele><time>2011-09-16T07:25:26Z</time></trkpt><trkpt lat="42.772086" lon="0.683092"><ele>808.61</ele><time>2011-09-16T07:25:27Z</time></trkpt><trkpt lat="42.771961" lon="0.683102"><ele>807.64</ele><time>2011-09-16T07:25:28Z</time></trkpt><trkpt lat="42.771843" lon="0.683132"><ele>805.72</ele><time>2011-09-16T07:25:29Z</time></trkpt><trkpt lat="42.771732" lon="0.683183"><ele>804.76</ele><time>2011-09-16T07:25:30Z</time></trkpt><trkpt lat="42.771636" lon="0.683260"><ele>804.28</ele><time>2011-09-16T07:25:31Z</time></trkpt><trkpt lat="42.771562" lon="0.683374"><ele>803.80</ele><time>2011-09-16T07:25:32Z</time></trkpt><trkpt lat="42.771519" lon="0.683463"><ele>802.84</ele><time>2011-09-16T07:25:33Z</time></trkpt><trkpt lat="42.771552" lon="0.683575"><ele>801.40</ele><time>2011-09-16T07:25:34Z</time></trkpt><trkpt lat="42.771613" lon="0.683653"><ele>799.95</ele><time>2011-09-16T07:25:35Z</time></trkpt><trkpt lat="42.771674" lon="0.683704"><ele>798.99</ele><time>2011-09-16T07:25:36Z</time></trkpt><trkpt lat="42.771926" lon="0.683665"><ele>797.07</ele><time>2011-09-16T07:25:39Z</time></trkpt><trkpt lat="42.772051" lon="0.683607"><ele>795.63</ele><time>2011-09-16T07:25:40Z</time></trkpt><trkpt lat="42.772178" lon="0.683587"><ele>795.15</ele><time>2011-09-16T07:25:41Z</time></trkpt><trkpt lat="42.772305" lon="0.683602"><ele>794.67</ele><time>2011-09-16T07:25:42Z</time></trkpt><trkpt lat="42.773487" lon="0.683949"><ele>786.98</ele><time>2011-09-16T07:25:51Z</time></trkpt><trkpt lat="42.773633" lon="0.683973"><ele>786.98</ele><time>2011-09-16T07:25:52Z</time></trkpt><trkpt lat="42.773780" lon="0.683964"><ele>786.50</ele><time>2011-09-16T07:25:53Z</time></trkpt><trkpt lat="42.775036" lon="0.683972"><ele>777.84</ele><time>2011-09-16T07:26:02Z</time></trkpt><trkpt lat="42.775176" lon="0.683975"><ele>776.88</ele><time>2011-09-16T07:26:03Z</time></trkpt><trkpt lat="42.775312" lon="0.684001"><ele>775.92</ele><time>2011-09-16T07:26:04Z</time></trkpt><trkpt lat="42.776103" lon="0.684193"><ele>770.15</ele><time>2011-09-16T07:26:10Z</time></trkpt><trkpt lat="42.776237" lon="0.684258"><ele>769.19</ele><time>2011-09-16T07:26:11Z</time></trkpt><trkpt lat="42.776370" lon="0.684340"><ele>768.23</ele><time>2011-09-16T07:26:12Z</time></trkpt><trkpt lat="42.777282" lon="0.684922"><ele>761.50</ele><time>2011-09-16T07:26:19Z</time></trkpt><trkpt lat="42.777423" lon="0.684959"><ele>760.54</ele><time>2011-09-16T07:26:20Z</time></trkpt><trkpt lat="42.777563" lon="0.684977"><ele>759.58</ele><time>2011-09-16T07:26:21Z</time></trkpt><trkpt lat="42.777700" lon="0.684997"><ele>759.10</ele><time>2011-09-16T07:26:22Z</time></trkpt><trkpt lat="42.777832" lon="0.685031"><ele>758.14</ele><time>2011-09-16T07:26:23Z</time></trkpt><trkpt lat="42.777956" lon="0.685085"><ele>757.66</ele><time>2011-09-16T07:26:24Z</time></trkpt><trkpt lat="42.778074" lon="0.685160"><ele>757.18</ele><time>2011-09-16T07:26:25Z</time></trkpt><trkpt lat="42.778185" lon="0.685251"><ele>756.21</ele><time>2011-09-16T07:26:26Z</time></trkpt><trkpt lat="42.778293" lon="0.685350"><ele>755.73</ele><time>2011-09-16T07:26:27Z</time></trkpt><trkpt lat="42.778710" lon="0.685747"><ele>752.37</ele><time>2011-09-16T07:26:31Z</time></trkpt><trkpt lat="42.778797" lon="0.685865"><ele>751.89</ele><time>2011-09-16T07:26:32Z</time></trkpt><trkpt lat="42.778862" lon="0.686002"><ele>751.41</ele><time>2011-09-16T07:26:33Z</time></trkpt><trkpt lat="42.778891" lon="0.686163"><ele>751.41</ele><time>2011-09-16T07:26:34Z</time></trkpt><trkpt lat="42.778891" lon="0.686346"><ele>751.41</ele><time>2011-09-16T07:26:35Z</time></trkpt><trkpt lat="42.778895" lon="0.686532"><ele>750.93</ele><time>2011-09-16T07:26:36Z</time></trkpt><trkpt lat="42.778923" lon="0.687657"><ele>747.56</ele><time>2011-09-16T07:26:42Z</time></trkpt><trkpt lat="42.778950" lon="0.687825"><ele>746.60</ele><time>2011-09-16T07:26:43Z</time></trkpt><trkpt lat="42.778988" lon="0.687987"><ele>745.64</ele><time>2011-09-16T07:26:44Z</time></trkpt><trkpt lat="42.779201" lon="0.688558"><ele>740.35</ele><time>2011-09-16T07:26:48Z</time></trkpt><trkpt lat="42.779286" lon="0.688676"><ele>738.91</ele><time>2011-09-16T07:26:49Z</time></trkpt><trkpt lat="42.779383" lon="0.688781"><ele>737.95</ele><time>2011-09-16T07:26:50Z</time></trkpt><trkpt lat="42.779892" lon="0.689176"><ele>733.14</ele><time>2011-09-16T07:26:55Z</time></trkpt><trkpt lat="42.779998" lon="0.689215"><ele>732.66</ele><time>2011-09-16T07:26:56Z</time></trkpt><trkpt lat="42.780105" lon="0.689243"><ele>731.22</ele><time>2011-09-16T07:26:57Z</time></trkpt><trkpt lat="42.780522" lon="0.689343"><ele>728.34</ele><time>2011-09-16T07:27:01Z</time></trkpt><trkpt lat="42.780613" lon="0.689398"><ele>727.37</ele><time>2011-09-16T07:27:02Z</time></trkpt><trkpt lat="42.780691" lon="0.689472"><ele>726.41</ele><time>2011-09-16T07:27:03Z</time></trkpt><trkpt lat="42.780752" lon="0.689555"><ele>725.93</ele><time>2011-09-16T07:27:04Z</time></trkpt><trkpt lat="42.780789" lon="0.689644"><ele>724.97</ele><time>2011-09-16T07:27:05Z</time></trkpt><trkpt lat="42.780802" lon="0.689739"><ele>724.49</ele><time>2011-09-16T07:27:06Z</time></trkpt><trkpt lat="42.780802" lon="0.689832"><ele>723.53</ele><time>2011-09-16T07:27:07Z</time></trkpt><trkpt lat="42.780793" lon="0.689918"><ele>723.05</ele><time>2011-09-16T07:27:08Z</time></trkpt><trkpt lat="42.780770" lon="0.689996"><ele>722.09</ele><time>2011-09-16T07:27:09Z</time></trkpt><trkpt lat="42.780714" lon="0.690041"><ele>721.61</ele><time>2011-09-16T07:27:10Z</time></trkpt><trkpt lat="42.780634" lon="0.690048"><ele>721.61</ele><time>2011-09-16T07:27:11Z</time></trkpt><trkpt lat="42.780550" lon="0.690045"><ele>721.13</ele><time>2011-09-16T07:27:12Z</time></trkpt><trkpt lat="42.780461" lon="0.690038"><ele>721.13</ele><time>2011-09-16T07:27:13Z</time></trkpt><trkpt lat="42.780359" lon="0.690036"><ele>722.09</ele><time>2011-09-16T07:27:14Z</time></trkpt><trkpt lat="42.779220" lon="0.689742"><ele>724.49</ele><time>2011-09-16T07:27:24Z</time></trkpt><trkpt lat="42.779096" lon="0.689678"><ele>724.97</ele><time>2011-09-16T07:27:25Z</time></trkpt><trkpt lat="42.778971" lon="0.689594"><ele>724.97</ele><time>2011-09-16T07:27:26Z</time></trkpt><trkpt lat="42.778843" lon="0.689485"><ele>724.97</ele><time>2011-09-16T07:27:27Z</time></trkpt><trkpt lat="42.778701" lon="0.689324"><ele>724.97</ele><time>2011-09-16T07:27:28Z</time></trkpt><trkpt lat="42.778576" lon="0.689152"><ele>724.97</ele><time>2011-09-16T07:27:29Z</time></trkpt><trkpt lat="42.778467" lon="0.688968"><ele>724.97</ele><time>2011-09-16T07:27:30Z</time></trkpt><trkpt lat="42.778377" lon="0.688771"><ele>724.97</ele><time>2011-09-16T07:27:31Z</time></trkpt><trkpt lat="42.778297" lon="0.688557"><ele>724.97</ele><time>2011-09-16T07:27:32Z</time></trkpt><trkpt lat="42.778222" lon="0.688321"><ele>724.97</ele><time>2011-09-16T07:27:33Z</time></trkpt><trkpt lat="42.777508" lon="0.686223"><ele>726.41</ele><time>2011-09-16T07:27:42Z</time></trkpt><trkpt lat="42.776659" lon="0.685240"><ele>728.34</ele><time>2011-09-16T07:27:48Z</time></trkpt><trkpt lat="42.775487" lon="0.684799"><ele>729.78</ele><time>2011-09-16T07:27:54Z</time></trkpt><trkpt lat="42.773784" lon="0.684785"><ele>737.95</ele><time>2011-09-16T07:28:02Z</time></trkpt><trkpt lat="42.770771" lon="0.685494"><ele>745.64</ele><time>2011-09-16T07:28:16Z</time></trkpt><trkpt lat="42.766730" lon="0.686445"><ele>749.00</ele><time>2011-09-16T07:28:34Z</time></trkpt><trkpt lat="42.765238" lon="0.687188"><ele>747.56</ele><time>2011-09-16T07:28:41Z</time></trkpt><trkpt lat="42.765054" lon="0.687380"><ele>747.08</ele><time>2011-09-16T07:28:42Z</time></trkpt><trkpt lat="42.764879" lon="0.687585"><ele>747.08</ele><time>2011-09-16T07:28:43Z</time></trkpt><trkpt lat="42.763655" lon="0.689211"><ele>751.41</ele><time>2011-09-16T07:28:51Z</time></trkpt><trkpt lat="42.761374" lon="0.691509"><ele>760.06</ele><time>2011-09-16T07:29:05Z</time></trkpt><trkpt lat="42.761194" lon="0.691617"><ele>760.06</ele><time>2011-09-16T07:29:06Z</time></trkpt><trkpt lat="42.761006" lon="0.691699"><ele>760.06</ele><time>2011-09-16T07:29:07Z</time></trkpt><trkpt lat="42.760814" lon="0.691764"><ele>760.54</ele><time>2011-09-16T07:29:08Z</time></trkpt><trkpt lat="42.759192" lon="0.692504"><ele>761.50</ele><time>2011-09-16T07:29:17Z</time></trkpt><trkpt lat="42.758410" lon="0.693575"><ele>762.94</ele><time>2011-09-16T07:29:23Z</time></trkpt><trkpt lat="42.757371" lon="0.694969"><ele>771.11</ele><time>2011-09-16T07:29:31Z</time></trkpt><trkpt lat="42.754829" lon="0.697235"><ele>779.77</ele><time>2011-09-16T07:29:47Z</time></trkpt><trkpt lat="42.753572" lon="0.697706"><ele>784.09</ele><time>2011-09-16T07:29:54Z</time></trkpt><trkpt lat="42.752214" lon="0.698315"><ele>783.61</ele><time>2011-09-16T07:30:02Z</time></trkpt><trkpt lat="42.751101" lon="0.699177"><ele>781.21</ele><time>2011-09-16T07:30:10Z</time></trkpt><trkpt lat="42.750975" lon="0.699322"><ele>780.73</ele><time>2011-09-16T07:30:11Z</time></trkpt><trkpt lat="42.750024" lon="0.700376"><ele>780.73</ele><time>2011-09-16T07:30:19Z</time></trkpt><trkpt lat="42.749895" lon="0.700447"><ele>781.21</ele><time>2011-09-16T07:30:20Z</time></trkpt><trkpt lat="42.749764" lon="0.700505"><ele>781.21</ele><time>2011-09-16T07:30:21Z</time></trkpt><trkpt lat="42.748542" lon="0.701090"><ele>784.09</ele><time>2011-09-16T07:30:30Z</time></trkpt><trkpt lat="42.748405" lon="0.701233"><ele>784.57</ele><time>2011-09-16T07:30:31Z</time></trkpt><trkpt lat="42.748275" lon="0.701399"><ele>785.05</ele><time>2011-09-16T07:30:32Z</time></trkpt><trkpt lat="42.748150" lon="0.701578"><ele>786.02</ele><time>2011-09-16T07:30:33Z</time></trkpt><trkpt lat="42.748025" lon="0.701763"><ele>787.46</ele><time>2011-09-16T07:30:34Z</time></trkpt><trkpt lat="42.746738" lon="0.703342"><ele>795.63</ele><time>2011-09-16T07:30:43Z</time></trkpt><trkpt lat="42.745850" lon="0.704853"><ele>794.67</ele><time>2011-09-16T07:30:50Z</time></trkpt><trkpt lat="42.744303" lon="0.706697"><ele>794.67</ele><time>2011-09-16T07:30:59Z</time></trkpt><trkpt lat="42.742246" lon="0.709145"><ele>799.95</ele><time>2011-09-16T07:31:12Z</time></trkpt><trkpt lat="42.741469" lon="0.710757"><ele>800.92</ele><time>2011-09-16T07:31:19Z</time></trkpt><trkpt lat="42.741206" lon="0.712517"><ele>801.88</ele><time>2011-09-16T07:31:25Z</time></trkpt><trkpt lat="42.741237" lon="0.714951"><ele>802.36</ele><time>2011-09-16T07:31:33Z</time></trkpt><trkpt lat="42.740759" lon="0.716808"><ele>805.72</ele><time>2011-09-16T07:31:40Z</time></trkpt><trkpt lat="42.739810" lon="0.718414"><ele>809.57</ele><time>2011-09-16T07:31:48Z</time></trkpt><trkpt lat="42.739491" lon="0.718987"><ele>810.05</ele><time>2011-09-16T07:31:51Z</time></trkpt><trkpt lat="42.739406" lon="0.719213"><ele>809.57</ele><time>2011-09-16T07:31:52Z</time></trkpt><trkpt lat="42.739336" lon="0.719461"><ele>809.57</ele><time>2011-09-16T07:31:53Z</time></trkpt><trkpt lat="42.739284" lon="0.719739"><ele>809.57</ele><time>2011-09-16T07:31:54Z</time></trkpt><trkpt lat="42.739246" lon="0.720050"><ele>810.05</ele><time>2011-09-16T07:31:55Z</time></trkpt><trkpt lat="42.739218" lon="0.720395"><ele>810.53</ele><time>2011-09-16T07:31:56Z</time></trkpt><trkpt lat="42.739170" lon="0.720716"><ele>811.01</ele><time>2011-09-16T07:31:57Z</time></trkpt><trkpt lat="42.738687" lon="0.723489"><ele>811.49</ele><time>2011-09-16T07:32:06Z</time></trkpt><trkpt lat="42.738664" lon="0.723769"><ele>811.97</ele><time>2011-09-16T07:32:07Z</time></trkpt><trkpt lat="42.738666" lon="0.724059"><ele>812.45</ele><time>2011-09-16T07:32:08Z</time></trkpt><trkpt lat="42.738688" lon="0.724356"><ele>812.93</ele><time>2011-09-16T07:32:09Z</time></trkpt><trkpt lat="42.738742" lon="0.725561"><ele>815.82</ele><time>2011-09-16T07:32:13Z</time></trkpt><trkpt lat="42.738709" lon="0.725869"><ele>816.30</ele><time>2011-09-16T07:32:14Z</time></trkpt><trkpt lat="42.738654" lon="0.726174"><ele>817.26</ele><time>2011-09-16T07:32:15Z</time></trkpt><trkpt lat="42.738579" lon="0.726465"><ele>818.70</ele><time>2011-09-16T07:32:16Z</time></trkpt><trkpt lat="42.738497" lon="0.726748"><ele>819.18</ele><time>2011-09-16T07:32:17Z</time></trkpt><trkpt lat="42.738143" lon="0.728056"><ele>826.39</ele><time>2011-09-16T07:32:22Z</time></trkpt><trkpt lat="42.738120" lon="0.728323"><ele>827.35</ele><time>2011-09-16T07:32:23Z</time></trkpt><trkpt lat="42.738115" lon="0.728598"><ele>827.83</ele><time>2011-09-16T07:32:24Z</time></trkpt><trkpt lat="42.738219" lon="0.730255"><ele>830.72</ele><time>2011-09-16T07:32:30Z</time></trkpt><trkpt lat="42.738284" lon="0.730529"><ele>830.72</ele><time>2011-09-16T07:32:31Z</time></trkpt><trkpt lat="42.738588" lon="0.731603"><ele>831.68</ele><time>2011-09-16T07:32:35Z</time></trkpt><trkpt lat="42.738627" lon="0.731882"><ele>832.16</ele><time>2011-09-16T07:32:36Z</time></trkpt><trkpt lat="42.738635" lon="0.732160"><ele>832.16</ele><time>2011-09-16T07:32:37Z</time></trkpt><trkpt lat="42.738608" lon="0.732428"><ele>832.16</ele><time>2011-09-16T07:32:38Z</time></trkpt><trkpt lat="42.738557" lon="0.732691"><ele>832.16</ele><time>2011-09-16T07:32:39Z</time></trkpt><trkpt lat="42.738479" lon="0.732942"><ele>832.16</ele><time>2011-09-16T07:32:40Z</time></trkpt><trkpt lat="42.738371" lon="0.733172"><ele>832.16</ele><time>2011-09-16T07:32:41Z</time></trkpt><trkpt lat="42.738254" lon="0.733387"><ele>832.16</ele><time>2011-09-16T07:32:42Z</time></trkpt><trkpt lat="42.738138" lon="0.733590"><ele>833.12</ele><time>2011-09-16T07:32:43Z</time></trkpt><trkpt lat="42.737805" lon="0.734424"><ele>833.12</ele><time>2011-09-16T07:32:47Z</time></trkpt><trkpt lat="42.737760" lon="0.734664"><ele>833.60</ele><time>2011-09-16T07:32:48Z</time></trkpt><trkpt lat="42.737441" lon="0.737277"><ele>834.08</ele><time>2011-09-16T07:32:58Z</time></trkpt><trkpt lat="42.737294" lon="0.740316"><ele>834.56</ele><time>2011-09-16T07:33:08Z</time></trkpt><trkpt lat="42.736895" lon="0.743287"><ele>838.89</ele><time>2011-09-16T07:33:18Z</time></trkpt><trkpt lat="42.736722" lon="0.744387"><ele>844.18</ele><time>2011-09-16T07:33:22Z</time></trkpt><trkpt lat="42.736709" lon="0.744683"><ele>845.14</ele><time>2011-09-16T07:33:23Z</time></trkpt><trkpt lat="42.736875" lon="0.746893"><ele>848.02</ele><time>2011-09-16T07:33:31Z</time></trkpt><trkpt lat="42.737585" lon="0.748668"><ele>848.98</ele><time>2011-09-16T07:33:38Z</time></trkpt><trkpt lat="42.737947" lon="0.750340"><ele>850.90</ele><time>2011-09-16T07:33:44Z</time></trkpt><trkpt lat="42.738022" lon="0.751458"><ele>853.31</ele><time>2011-09-16T07:33:48Z</time></trkpt><trkpt lat="42.737992" lon="0.751732"><ele>854.27</ele><time>2011-09-16T07:33:49Z</time></trkpt><trkpt lat="42.737939" lon="0.751997"><ele>854.75</ele><time>2011-09-16T07:33:50Z</time></trkpt><trkpt lat="42.737869" lon="0.752252"><ele>855.71</ele><time>2011-09-16T07:33:51Z</time></trkpt><trkpt lat="42.737795" lon="0.752493"><ele>856.67</ele><time>2011-09-16T07:33:52Z</time></trkpt><trkpt lat="42.737567" lon="0.753342"><ele>860.04</ele><time>2011-09-16T07:33:56Z</time></trkpt><trkpt lat="42.737553" lon="0.753555"><ele>861.00</ele><time>2011-09-16T07:33:57Z</time></trkpt><trkpt lat="42.737557" lon="0.753768"><ele>861.48</ele><time>2011-09-16T07:33:58Z</time></trkpt><trkpt lat="42.737572" lon="0.753980"><ele>862.44</ele><time>2011-09-16T07:33:59Z</time></trkpt><trkpt lat="42.737591" lon="0.754193"><ele>862.92</ele><time>2011-09-16T07:34:00Z</time></trkpt><trkpt lat="42.737769" lon="0.756076"><ele>867.25</ele><time>2011-09-16T07:34:10Z</time></trkpt><trkpt lat="42.737757" lon="0.756211"><ele>867.25</ele><time>2011-09-16T07:34:11Z</time></trkpt><trkpt lat="42.737729" lon="0.756334"><ele>867.73</ele><time>2011-09-16T07:34:12Z</time></trkpt><trkpt lat="42.737700" lon="0.756454"><ele>867.73</ele><time>2011-09-16T07:34:13Z</time></trkpt><trkpt lat="42.737685" lon="0.756576"><ele>867.73</ele><time>2011-09-16T07:34:14Z</time></trkpt><trkpt lat="42.737685" lon="0.756707"><ele>867.73</ele><time>2011-09-16T07:34:15Z</time></trkpt><trkpt lat="42.737693" lon="0.756843"><ele>867.73</ele><time>2011-09-16T07:34:16Z</time></trkpt><trkpt lat="42.737698" lon="0.757103"><ele>868.21</ele><time>2011-09-16T07:34:18Z</time></trkpt><trkpt lat="42.737690" lon="0.757196"><ele>867.73</ele><time>2011-09-16T07:34:19Z</time></trkpt><trkpt lat="42.737675" lon="0.757259"><ele>867.25</ele><time>2011-09-16T07:34:20Z</time></trkpt><trkpt lat="42.737634" lon="0.757349"><ele>869.17</ele><time>2011-09-16T07:34:28Z</time></trkpt><trkpt lat="42.737591" lon="0.757255"><ele>875.42</ele><time>2011-09-16T07:37:00Z</time></trkpt><trkpt lat="42.737606" lon="0.757337"><ele>876.86</ele><time>2011-09-16T07:37:02Z</time></trkpt><trkpt lat="42.737603" lon="0.757415"><ele>876.86</ele><time>2011-09-16T07:37:03Z</time></trkpt><trkpt lat="42.737491" lon="0.758389"><ele>873.98</ele><time>2011-09-16T07:37:10Z</time></trkpt><trkpt lat="42.737440" lon="0.758547"><ele>873.50</ele><time>2011-09-16T07:37:11Z</time></trkpt><trkpt lat="42.737373" lon="0.758690"><ele>872.53</ele><time>2011-09-16T07:37:12Z</time></trkpt><trkpt lat="42.737285" lon="0.758828"><ele>872.05</ele><time>2011-09-16T07:37:13Z</time></trkpt><trkpt lat="42.737180" lon="0.758968"><ele>872.05</ele><time>2011-09-16T07:37:14Z</time></trkpt><trkpt lat="42.737066" lon="0.759108"><ele>872.05</ele><time>2011-09-16T07:37:15Z</time></trkpt><trkpt lat="42.736631" lon="0.759738"><ele>871.57</ele><time>2011-09-16T07:37:19Z</time></trkpt><trkpt lat="42.736455" lon="0.760168"><ele>871.09</ele><time>2011-09-16T07:37:21Z</time></trkpt><trkpt lat="42.736398" lon="0.760399"><ele>870.61</ele><time>2011-09-16T07:37:22Z</time></trkpt><trkpt lat="42.736029" lon="0.762453"><ele>871.09</ele><time>2011-09-16T07:37:30Z</time></trkpt><trkpt lat="42.736031" lon="0.762749"><ele>871.57</ele><time>2011-09-16T07:37:31Z</time></trkpt><trkpt lat="42.735875" lon="0.765092"><ele>875.42</ele><time>2011-09-16T07:37:39Z</time></trkpt><trkpt lat="42.735782" lon="0.765343"><ele>875.42</ele><time>2011-09-16T07:37:40Z</time></trkpt><trkpt lat="42.735671" lon="0.765581"><ele>875.42</ele><time>2011-09-16T07:37:41Z</time></trkpt><trkpt lat="42.735544" lon="0.765805"><ele>875.42</ele><time>2011-09-16T07:37:42Z</time></trkpt><trkpt lat="42.735404" lon="0.766014"><ele>874.94</ele><time>2011-09-16T07:37:43Z</time></trkpt><trkpt lat="42.735257" lon="0.766219"><ele>874.94</ele><time>2011-09-16T07:37:44Z</time></trkpt><trkpt lat="42.735106" lon="0.766423"><ele>874.94</ele><time>2011-09-16T07:37:45Z</time></trkpt><trkpt lat="42.734023" lon="0.767642"><ele>878.30</ele><time>2011-09-16T07:37:52Z</time></trkpt><trkpt lat="42.733622" lon="0.768523"><ele>880.71</ele><time>2011-09-16T07:37:56Z</time></trkpt><trkpt lat="42.733596" lon="0.768836"><ele>880.22</ele><time>2011-09-16T07:37:57Z</time></trkpt><trkpt lat="42.733582" lon="0.769130"><ele>880.22</ele><time>2011-09-16T07:37:58Z</time></trkpt><trkpt lat="42.733354" lon="0.772142"><ele>890.32</ele><time>2011-09-16T07:38:08Z</time></trkpt><trkpt lat="42.732898" lon="0.774685"><ele>899.45</ele><time>2011-09-16T07:38:17Z</time></trkpt><trkpt lat="42.732765" lon="0.774890"><ele>900.89</ele><time>2011-09-16T07:38:18Z</time></trkpt><trkpt lat="42.732634" lon="0.775112"><ele>901.37</ele><time>2011-09-16T07:38:19Z</time></trkpt><trkpt lat="42.732485" lon="0.775319"><ele>902.33</ele><time>2011-09-16T07:38:20Z</time></trkpt><trkpt lat="42.732323" lon="0.775514"><ele>902.82</ele><time>2011-09-16T07:38:21Z</time></trkpt><trkpt lat="42.732155" lon="0.775691"><ele>903.30</ele><time>2011-09-16T07:38:22Z</time></trkpt><trkpt lat="42.731990" lon="0.775850"><ele>903.78</ele><time>2011-09-16T07:38:23Z</time></trkpt><trkpt lat="42.731238" lon="0.776566"><ele>904.74</ele><time>2011-09-16T07:38:29Z</time></trkpt><trkpt lat="42.730161" lon="0.777926"><ele>907.62</ele><time>2011-09-16T07:38:41Z</time></trkpt><trkpt lat="42.730091" lon="0.778062"><ele>908.10</ele><time>2011-09-16T07:38:42Z</time></trkpt><trkpt lat="42.730032" lon="0.778236"><ele>908.58</ele><time>2011-09-16T07:38:43Z</time></trkpt><trkpt lat="42.729976" lon="0.778429"><ele>909.54</ele><time>2011-09-16T07:38:44Z</time></trkpt><trkpt lat="42.729925" lon="0.778640"><ele>910.51</ele><time>2011-09-16T07:38:45Z</time></trkpt><trkpt lat="42.729871" lon="0.778867"><ele>911.47</ele><time>2011-09-16T07:38:46Z</time></trkpt><trkpt lat="42.729201" lon="0.780632"><ele>912.91</ele><time>2011-09-16T07:38:54Z</time></trkpt><trkpt lat="42.727720" lon="0.782709"><ele>914.83</ele><time>2011-09-16T07:39:04Z</time></trkpt><trkpt lat="42.726955" lon="0.783637"><ele>919.64</ele><time>2011-09-16T07:39:09Z</time></trkpt><trkpt lat="42.726790" lon="0.783756"><ele>920.60</ele><time>2011-09-16T07:39:10Z</time></trkpt><trkpt lat="42.726621" lon="0.783855"><ele>921.56</ele><time>2011-09-16T07:39:11Z</time></trkpt><trkpt lat="42.726165" lon="0.784137"><ele>923.48</ele><time>2011-09-16T07:39:14Z</time></trkpt><trkpt lat="42.726035" lon="0.784272"><ele>923.48</ele><time>2011-09-16T07:39:15Z</time></trkpt><trkpt lat="42.725913" lon="0.784436"><ele>924.45</ele><time>2011-09-16T07:39:16Z</time></trkpt><trkpt lat="42.725795" lon="0.784624"><ele>924.93</ele><time>2011-09-16T07:39:17Z</time></trkpt><trkpt lat="42.725676" lon="0.784819"><ele>925.89</ele><time>2011-09-16T07:39:18Z</time></trkpt><trkpt lat="42.724485" lon="0.786489"><ele>929.25</ele><time>2011-09-16T07:39:27Z</time></trkpt><trkpt lat="42.724131" lon="0.786997"><ele>930.21</ele><time>2011-09-16T07:39:30Z</time></trkpt><trkpt lat="42.724053" lon="0.787200"><ele>930.69</ele><time>2011-09-16T07:39:31Z</time></trkpt><trkpt lat="42.723997" lon="0.787418"><ele>930.69</ele><time>2011-09-16T07:39:32Z</time></trkpt><trkpt lat="42.723961" lon="0.787643"><ele>931.65</ele><time>2011-09-16T07:39:33Z</time></trkpt><trkpt lat="42.723940" lon="0.787872"><ele>932.14</ele><time>2011-09-16T07:39:34Z</time></trkpt><trkpt lat="42.723811" lon="0.789112"><ele>931.17</ele><time>2011-09-16T07:39:40Z</time></trkpt><trkpt lat="42.723750" lon="0.789277"><ele>930.69</ele><time>2011-09-16T07:39:41Z</time></trkpt><trkpt lat="42.723681" lon="0.789427"><ele>931.17</ele><time>2011-09-16T07:39:42Z</time></trkpt><trkpt lat="42.723351" lon="0.789956"><ele>932.14</ele><time>2011-09-16T07:39:46Z</time></trkpt><trkpt lat="42.723242" lon="0.790070"><ele>932.62</ele><time>2011-09-16T07:39:47Z</time></trkpt><trkpt lat="42.723121" lon="0.790168"><ele>932.62</ele><time>2011-09-16T07:39:48Z</time></trkpt><trkpt lat="42.722990" lon="0.790245"><ele>933.10</ele><time>2011-09-16T07:39:49Z</time></trkpt><trkpt lat="42.722851" lon="0.790289"><ele>933.58</ele><time>2011-09-16T07:39:50Z</time></trkpt><trkpt lat="42.722703" lon="0.790296"><ele>935.02</ele><time>2011-09-16T07:39:51Z</time></trkpt><trkpt lat="42.722556" lon="0.790305"><ele>935.98</ele><time>2011-09-16T07:39:52Z</time></trkpt><trkpt lat="42.721423" lon="0.790541"><ele>929.25</ele><time>2011-09-16T07:40:00Z</time></trkpt><trkpt lat="42.721296" lon="0.790642"><ele>929.25</ele><time>2011-09-16T07:40:01Z</time></trkpt><trkpt lat="42.721179" lon="0.790760"><ele>929.25</ele><time>2011-09-16T07:40:02Z</time></trkpt><trkpt lat="42.721077" lon="0.790903"><ele>929.25</ele><time>2011-09-16T07:40:03Z</time></trkpt><trkpt lat="42.720992" lon="0.791069"><ele>929.73</ele><time>2011-09-16T07:40:04Z</time></trkpt><trkpt lat="42.720925" lon="0.791260"><ele>930.21</ele><time>2011-09-16T07:40:05Z</time></trkpt><trkpt lat="42.720870" lon="0.791466"><ele>930.69</ele><time>2011-09-16T07:40:06Z</time></trkpt><trkpt lat="42.720826" lon="0.791688"><ele>930.69</ele><time>2011-09-16T07:40:07Z</time></trkpt><trkpt lat="42.720783" lon="0.791906"><ele>930.69</ele><time>2011-09-16T07:40:08Z</time></trkpt><trkpt lat="42.720380" lon="0.793753"><ele>925.41</ele><time>2011-09-16T07:40:17Z</time></trkpt><trkpt lat="42.720289" lon="0.793916"><ele>925.89</ele><time>2011-09-16T07:40:18Z</time></trkpt><trkpt lat="42.720185" lon="0.794064"><ele>926.37</ele><time>2011-09-16T07:40:19Z</time></trkpt><trkpt lat="42.720070" lon="0.794194"><ele>927.33</ele><time>2011-09-16T07:40:20Z</time></trkpt><trkpt lat="42.719948" lon="0.794307"><ele>927.81</ele><time>2011-09-16T07:40:21Z</time></trkpt><trkpt lat="42.719823" lon="0.794401"><ele>928.77</ele><time>2011-09-16T07:40:22Z</time></trkpt><trkpt lat="42.719694" lon="0.794477"><ele>929.73</ele><time>2011-09-16T07:40:23Z</time></trkpt><trkpt lat="42.719565" lon="0.794537"><ele>930.69</ele><time>2011-09-16T07:40:24Z</time></trkpt><trkpt lat="42.719437" lon="0.794588"><ele>931.65</ele><time>2011-09-16T07:40:25Z</time></trkpt><trkpt lat="42.718679" lon="0.794964"><ele>936.94</ele><time>2011-09-16T07:40:32Z</time></trkpt><trkpt lat="42.718592" lon="0.795056"><ele>937.42</ele><time>2011-09-16T07:40:33Z</time></trkpt><trkpt lat="42.718514" lon="0.795155"><ele>937.90</ele><time>2011-09-16T07:40:34Z</time></trkpt><trkpt lat="42.717661" lon="0.796152"><ele>939.83</ele><time>2011-09-16T07:40:44Z</time></trkpt><trkpt lat="42.717075" lon="0.796408"><ele>940.79</ele><time>2011-09-16T07:40:51Z</time></trkpt><trkpt lat="42.716983" lon="0.796411"><ele>940.79</ele><time>2011-09-16T07:40:52Z</time></trkpt><trkpt lat="42.716886" lon="0.796416"><ele>940.79</ele><time>2011-09-16T07:40:53Z</time></trkpt><trkpt lat="42.716787" lon="0.796440"><ele>940.79</ele><time>2011-09-16T07:40:54Z</time></trkpt><trkpt lat="42.716687" lon="0.796481"><ele>940.79</ele><time>2011-09-16T07:40:55Z</time></trkpt><trkpt lat="42.716585" lon="0.796526"><ele>940.79</ele><time>2011-09-16T07:40:56Z</time></trkpt><trkpt lat="42.715650" lon="0.796724"><ele>941.27</ele><time>2011-09-16T07:41:04Z</time></trkpt><trkpt lat="42.714410" lon="0.797096"><ele>945.59</ele><time>2011-09-16T07:41:16Z</time></trkpt><trkpt lat="42.713229" lon="0.797222"><ele>948.96</ele><time>2011-09-16T07:41:28Z</time></trkpt><trkpt lat="42.711771" lon="0.796992"><ele>952.32</ele><time>2011-09-16T07:41:42Z</time></trkpt><trkpt lat="42.710142" lon="0.796731"><ele>955.21</ele><time>2011-09-16T07:41:57Z</time></trkpt><trkpt lat="42.708595" lon="0.796427"><ele>958.09</ele><time>2011-09-16T07:42:11Z</time></trkpt><trkpt lat="42.706806" lon="0.795992"><ele>963.86</ele><time>2011-09-16T07:42:29Z</time></trkpt><trkpt lat="42.706442" lon="0.795836"><ele>964.82</ele><time>2011-09-16T07:42:37Z</time></trkpt><trkpt lat="42.706386" lon="0.795817"><ele>964.82</ele><time>2011-09-16T07:42:38Z</time></trkpt><trkpt lat="42.706335" lon="0.795816"><ele>964.82</ele><time>2011-09-16T07:42:39Z</time></trkpt><trkpt lat="42.706291" lon="0.795824"><ele>965.30</ele><time>2011-09-16T07:42:40Z</time></trkpt><trkpt lat="42.706246" lon="0.795833"><ele>965.30</ele><time>2011-09-16T07:42:41Z</time></trkpt><trkpt lat="42.706192" lon="0.795838"><ele>965.30</ele><time>2011-09-16T07:42:42Z</time></trkpt><trkpt lat="42.706128" lon="0.795833"><ele>964.82</ele><time>2011-09-16T07:42:43Z</time></trkpt><trkpt lat="42.705284" lon="0.795589"><ele>966.26</ele><time>2011-09-16T07:42:53Z</time></trkpt><trkpt lat="42.705203" lon="0.795540"><ele>966.26</ele><time>2011-09-16T07:42:54Z</time></trkpt><trkpt lat="42.705121" lon="0.795480"><ele>966.74</ele><time>2011-09-16T07:42:55Z</time></trkpt><trkpt lat="42.705041" lon="0.795409"><ele>967.22</ele><time>2011-09-16T07:42:56Z</time></trkpt><trkpt lat="42.704961" lon="0.795329"><ele>967.70</ele><time>2011-09-16T07:42:57Z</time></trkpt><trkpt lat="42.703681" lon="0.793957"><ele>976.84</ele><time>2011-09-16T07:43:14Z</time></trkpt><trkpt lat="42.703263" lon="0.793523"><ele>985.49</ele><time>2011-09-16T07:43:23Z</time></trkpt><trkpt lat="42.703200" lon="0.793460"><ele>986.93</ele><time>2011-09-16T07:43:26Z</time></trkpt><trkpt lat="42.703158" lon="0.793413"><ele>987.41</ele><time>2011-09-16T07:43:27Z</time></trkpt><trkpt lat="42.703071" lon="0.793329"><ele>990.78</ele><time>2011-09-16T07:43:29Z</time></trkpt><trkpt lat="42.703022" lon="0.793256"><ele>989.33</ele><time>2011-09-16T07:43:30Z</time></trkpt><trkpt lat="42.702965" lon="0.793220"><ele>987.89</ele><time>2011-09-16T07:43:31Z</time></trkpt><trkpt lat="42.702917" lon="0.793226"><ele>987.89</ele><time>2011-09-16T07:43:32Z</time></trkpt><trkpt lat="42.702881" lon="0.793256"><ele>986.93</ele><time>2011-09-16T07:43:33Z</time></trkpt><trkpt lat="42.702898" lon="0.793262"><ele>986.93</ele><time>2011-09-16T07:43:34Z</time></trkpt><trkpt lat="42.702884" lon="0.793312"><ele>987.41</ele><time>2011-09-16T07:43:35Z</time></trkpt><trkpt lat="42.702899" lon="0.793339"><ele>988.37</ele><time>2011-09-16T07:43:36Z</time></trkpt><trkpt lat="42.702940" lon="0.793354"><ele>988.85</ele><time>2011-09-16T07:43:37Z</time></trkpt><trkpt lat="42.702946" lon="0.793426"><ele>988.37</ele><time>2011-09-16T07:43:38Z</time></trkpt><trkpt lat="42.702920" lon="0.793538"><ele>987.89</ele><time>2011-09-16T07:43:39Z</time></trkpt><trkpt lat="42.702880" lon="0.793661"><ele>986.93</ele><time>2011-09-16T07:43:40Z</time></trkpt><trkpt lat="42.702829" lon="0.793786"><ele>988.37</ele><time>2011-09-16T07:43:41Z</time></trkpt><trkpt lat="42.702787" lon="0.793886"><ele>988.85</ele><time>2011-09-16T07:43:42Z</time></trkpt><trkpt lat="42.702756" lon="0.793956"><ele>989.33</ele><time>2011-09-16T07:43:43Z</time></trkpt><trkpt lat="42.702569" lon="0.794452"><ele>989.81</ele><time>2011-09-16T07:43:48Z</time></trkpt><trkpt lat="42.702538" lon="0.794555"><ele>991.26</ele><time>2011-09-16T07:43:49Z</time></trkpt><trkpt lat="42.702508" lon="0.794640"><ele>993.66</ele><time>2011-09-16T07:43:50Z</time></trkpt><trkpt lat="42.702466" lon="0.794725"><ele>995.58</ele><time>2011-09-16T07:43:51Z</time></trkpt><trkpt lat="42.702427" lon="0.794791"><ele>997.99</ele><time>2011-09-16T07:43:52Z</time></trkpt><trkpt lat="42.702359" lon="0.794932"><ele>1000.87</ele><time>2011-09-16T07:43:54Z</time></trkpt><trkpt lat="42.702322" lon="0.795017"><ele>1001.35</ele><time>2011-09-16T07:43:55Z</time></trkpt><trkpt lat="42.701817" lon="0.795793"><ele>1001.83</ele><time>2011-09-16T07:44:06Z</time></trkpt><trkpt lat="42.701706" lon="0.795947"><ele>1000.39</ele><time>2011-09-16T07:44:09Z</time></trkpt><trkpt lat="42.701680" lon="0.796001"><ele>999.43</ele><time>2011-09-16T07:44:10Z</time></trkpt><trkpt lat="42.701657" lon="0.796033"><ele>998.47</ele><time>2011-09-16T07:44:11Z</time></trkpt><trkpt lat="42.701630" lon="0.796084"><ele>997.99</ele><time>2011-09-16T07:44:12Z</time></trkpt><trkpt lat="42.701605" lon="0.796137"><ele>997.99</ele><time>2011-09-16T07:44:13Z</time></trkpt><trkpt lat="42.701572" lon="0.796198"><ele>998.95</ele><time>2011-09-16T07:44:14Z</time></trkpt><trkpt lat="42.701521" lon="0.796274"><ele>998.47</ele><time>2011-09-16T07:44:15Z</time></trkpt><trkpt lat="42.701007" lon="0.796969"><ele>993.66</ele><time>2011-09-16T07:44:24Z</time></trkpt><trkpt lat="42.700463" lon="0.798229"><ele>984.53</ele><time>2011-09-16T07:44:37Z</time></trkpt><trkpt lat="42.700237" lon="0.798759"><ele>983.09</ele><time>2011-09-16T07:44:44Z</time></trkpt><trkpt lat="42.700195" lon="0.798855"><ele>982.60</ele><time>2011-09-16T07:44:45Z</time></trkpt><trkpt lat="42.699615" lon="0.800159"><ele>982.60</ele><time>2011-09-16T07:44:57Z</time></trkpt><trkpt lat="42.699132" lon="0.801457"><ele>980.68</ele><time>2011-09-16T07:45:08Z</time></trkpt><trkpt lat="42.698827" lon="0.802984"><ele>985.01</ele><time>2011-09-16T07:45:19Z</time></trkpt><trkpt lat="42.698394" lon="0.804521"><ele>993.66</ele><time>2011-09-16T07:45:30Z</time></trkpt><trkpt lat="42.697565" lon="0.805633"><ele>1007.12</ele><time>2011-09-16T07:45:42Z</time></trkpt><trkpt lat="42.697507" lon="0.805700"><ele>1008.08</ele><time>2011-09-16T07:45:43Z</time></trkpt><trkpt lat="42.697448" lon="0.805746"><ele>1008.56</ele><time>2011-09-16T07:45:44Z</time></trkpt><trkpt lat="42.697342" lon="0.805817"><ele>1009.04</ele><time>2011-09-16T07:45:46Z</time></trkpt><trkpt lat="42.697305" lon="0.805872"><ele>1009.04</ele><time>2011-09-16T07:45:47Z</time></trkpt><trkpt lat="42.697288" lon="0.805944"><ele>1009.52</ele><time>2011-09-16T07:45:48Z</time></trkpt><trkpt lat="42.697297" lon="0.806026"><ele>1009.52</ele><time>2011-09-16T07:45:49Z</time></trkpt><trkpt lat="42.697322" lon="0.806121"><ele>1010.00</ele><time>2011-09-16T07:45:50Z</time></trkpt><trkpt lat="42.697343" lon="0.806232"><ele>1010.00</ele><time>2011-09-16T07:45:51Z</time></trkpt><trkpt lat="42.697353" lon="0.806353"><ele>1010.00</ele><time>2011-09-16T07:45:52Z</time></trkpt><trkpt lat="42.697353" lon="0.806480"><ele>1010.00</ele><time>2011-09-16T07:45:53Z</time></trkpt><trkpt lat="42.697346" lon="0.806608"><ele>1010.48</ele><time>2011-09-16T07:45:54Z</time></trkpt><trkpt lat="42.697333" lon="0.806739"><ele>1010.48</ele><time>2011-09-16T07:45:55Z</time></trkpt><trkpt lat="42.697133" lon="0.808306"><ele>1009.04</ele><time>2011-09-16T07:46:06Z</time></trkpt><trkpt lat="42.697093" lon="0.809541"><ele>1009.52</ele><time>2011-09-16T07:46:15Z</time></trkpt><trkpt lat="42.697061" lon="0.809637"><ele>1009.52</ele><time>2011-09-16T07:46:16Z</time></trkpt><trkpt lat="42.697035" lon="0.809727"><ele>1009.52</ele><time>2011-09-16T07:46:17Z</time></trkpt><trkpt lat="42.697031" lon="0.809817"><ele>1010.00</ele><time>2011-09-16T07:46:18Z</time></trkpt><trkpt lat="42.697049" lon="0.809909"><ele>1010.00</ele><time>2011-09-16T07:46:19Z</time></trkpt><trkpt lat="42.697077" lon="0.810009"><ele>1010.00</ele><time>2011-09-16T07:46:20Z</time></trkpt><trkpt lat="42.697101" lon="0.810121"><ele>1010.00</ele><time>2011-09-16T07:46:21Z</time></trkpt><trkpt lat="42.697113" lon="0.810250"><ele>1010.00</ele><time>2011-09-16T07:46:22Z</time></trkpt><trkpt lat="42.697113" lon="0.810392"><ele>1009.52</ele><time>2011-09-16T07:46:23Z</time></trkpt><trkpt lat="42.697105" lon="0.810546"><ele>1010.00</ele><time>2011-09-16T07:46:24Z</time></trkpt><trkpt lat="42.697091" lon="0.810705"><ele>1010.00</ele><time>2011-09-16T07:46:25Z</time></trkpt><trkpt lat="42.696852" lon="0.812482"><ele>1013.85</ele><time>2011-09-16T07:46:35Z</time></trkpt><trkpt lat="42.696685" lon="0.814311"><ele>1020.10</ele><time>2011-09-16T07:46:43Z</time></trkpt><trkpt lat="42.696684" lon="0.814564"><ele>1021.06</ele><time>2011-09-16T07:46:44Z</time></trkpt><trkpt lat="42.696706" lon="0.814825"><ele>1022.02</ele><time>2011-09-16T07:46:45Z</time></trkpt><trkpt lat="42.696757" lon="0.815088"><ele>1023.46</ele><time>2011-09-16T07:46:46Z</time></trkpt><trkpt lat="42.696831" lon="0.815351"><ele>1025.38</ele><time>2011-09-16T07:46:47Z</time></trkpt><trkpt lat="42.696916" lon="0.815609"><ele>1026.83</ele><time>2011-09-16T07:46:48Z</time></trkpt><trkpt lat="42.697003" lon="0.815852"><ele>1027.79</ele><time>2011-09-16T07:46:49Z</time></trkpt><trkpt lat="42.698066" lon="0.818861"><ele>1032.11</ele><time>2011-09-16T07:47:02Z</time></trkpt><trkpt lat="42.698099" lon="0.819120"><ele>1031.63</ele><time>2011-09-16T07:47:03Z</time></trkpt><trkpt lat="42.698107" lon="0.819383"><ele>1031.15</ele><time>2011-09-16T07:47:04Z</time></trkpt><trkpt lat="42.698092" lon="0.819647"><ele>1031.15</ele><time>2011-09-16T07:47:05Z</time></trkpt><trkpt lat="42.698064" lon="0.819908"><ele>1030.67</ele><time>2011-09-16T07:47:06Z</time></trkpt><trkpt lat="42.698032" lon="0.820161"><ele>1030.19</ele><time>2011-09-16T07:47:07Z</time></trkpt><trkpt lat="42.697943" lon="0.821381"><ele>1028.75</ele><time>2011-09-16T07:47:13Z</time></trkpt><trkpt lat="42.697922" lon="0.821511"><ele>1028.27</ele><time>2011-09-16T07:47:14Z</time></trkpt><trkpt lat="42.697887" lon="0.821621"><ele>1028.27</ele><time>2011-09-16T07:47:15Z</time></trkpt><trkpt lat="42.697817" lon="0.821817"><ele>1028.75</ele><time>2011-09-16T07:47:17Z</time></trkpt><trkpt lat="42.697816" lon="0.821921"><ele>1029.23</ele><time>2011-09-16T07:47:18Z</time></trkpt><trkpt lat="42.697839" lon="0.822033"><ele>1029.23</ele><time>2011-09-16T07:47:19Z</time></trkpt><trkpt lat="42.698000" lon="0.823027"><ele>1029.23</ele><time>2011-09-16T07:47:25Z</time></trkpt><trkpt lat="42.698231" lon="0.825401"><ele>1034.52</ele><time>2011-09-16T07:47:37Z</time></trkpt><trkpt lat="42.698457" lon="0.827752"><ele>1040.76</ele><time>2011-09-16T07:47:48Z</time></trkpt><trkpt lat="42.698811" lon="0.829354"><ele>1046.05</ele><time>2011-09-16T07:47:57Z</time></trkpt><trkpt lat="42.699133" lon="0.831297"><ele>1054.22</ele><time>2011-09-16T07:48:09Z</time></trkpt><trkpt lat="42.699263" lon="0.833133"><ele>1061.43</ele><time>2011-09-16T07:48:20Z</time></trkpt><trkpt lat="42.699093" lon="0.834218"><ele>1064.32</ele><time>2011-09-16T07:48:28Z</time></trkpt><trkpt lat="42.699095" lon="0.834341"><ele>1064.32</ele><time>2011-09-16T07:48:29Z</time></trkpt><trkpt lat="42.699115" lon="0.834468"><ele>1064.80</ele><time>2011-09-16T07:48:30Z</time></trkpt><trkpt lat="42.699133" lon="0.834608"><ele>1064.80</ele><time>2011-09-16T07:48:31Z</time></trkpt><trkpt lat="42.699135" lon="0.834762"><ele>1064.80</ele><time>2011-09-16T07:48:32Z</time></trkpt><trkpt lat="42.699115" lon="0.834926"><ele>1065.28</ele><time>2011-09-16T07:48:33Z</time></trkpt><trkpt lat="42.699085" lon="0.835097"><ele>1065.28</ele><time>2011-09-16T07:48:34Z</time></trkpt><trkpt lat="42.698608" lon="0.836773"><ele>1070.57</ele><time>2011-09-16T07:48:44Z</time></trkpt><trkpt lat="42.698318" lon="0.838340"><ele>1075.85</ele><time>2011-09-16T07:48:50Z</time></trkpt><trkpt lat="42.698308" lon="0.839163"><ele>1079.70</ele><time>2011-09-16T07:48:53Z</time></trkpt><trkpt lat="42.698343" lon="0.839438"><ele>1081.14</ele><time>2011-09-16T07:48:54Z</time></trkpt><trkpt lat="42.698397" lon="0.839715"><ele>1082.10</ele><time>2011-09-16T07:48:55Z</time></trkpt><trkpt lat="42.698474" lon="0.839982"><ele>1083.06</ele><time>2011-09-16T07:48:56Z</time></trkpt><trkpt lat="42.698604" lon="0.840206"><ele>1084.99</ele><time>2011-09-16T07:48:57Z</time></trkpt><trkpt lat="42.698723" lon="0.840438"><ele>1086.43</ele><time>2011-09-16T07:48:58Z</time></trkpt><trkpt lat="42.698828" lon="0.840679"><ele>1087.87</ele><time>2011-09-16T07:48:59Z</time></trkpt><trkpt lat="42.699051" lon="0.841442"><ele>1092.20</ele><time>2011-09-16T07:49:02Z</time></trkpt><trkpt lat="42.699082" lon="0.841706"><ele>1093.64</ele><time>2011-09-16T07:49:03Z</time></trkpt><trkpt lat="42.699093" lon="0.844570"><ele>1102.29</ele><time>2011-09-16T07:49:14Z</time></trkpt><trkpt lat="42.698965" lon="0.846185"><ele>1104.69</ele><time>2011-09-16T07:49:20Z</time></trkpt><trkpt lat="42.698981" lon="0.846458"><ele>1105.17</ele><time>2011-09-16T07:49:21Z</time></trkpt><trkpt lat="42.699025" lon="0.846726"><ele>1105.65</ele><time>2011-09-16T07:49:22Z</time></trkpt><trkpt lat="42.699621" lon="0.848512"><ele>1106.61</ele><time>2011-09-16T07:49:29Z</time></trkpt><trkpt lat="42.700073" lon="0.850311"><ele>1108.06</ele><time>2011-09-16T07:49:36Z</time></trkpt><trkpt lat="42.700100" lon="0.850863"><ele>1108.54</ele><time>2011-09-16T07:49:38Z</time></trkpt><trkpt lat="42.700081" lon="0.851144"><ele>1109.02</ele><time>2011-09-16T07:49:39Z</time></trkpt><trkpt lat="42.700046" lon="0.851424"><ele>1109.98</ele><time>2011-09-16T07:49:40Z</time></trkpt><trkpt lat="42.699960" lon="0.852541"><ele>1113.82</ele><time>2011-09-16T07:49:44Z</time></trkpt><trkpt lat="42.699981" lon="0.852825"><ele>1114.31</ele><time>2011-09-16T07:49:45Z</time></trkpt><trkpt lat="42.700021" lon="0.853107"><ele>1114.79</ele><time>2011-09-16T07:49:46Z</time></trkpt><trkpt lat="42.700073" lon="0.853385"><ele>1115.27</ele><time>2011-09-16T07:49:47Z</time></trkpt><trkpt lat="42.700133" lon="0.853659"><ele>1115.75</ele><time>2011-09-16T07:49:48Z</time></trkpt><trkpt lat="42.700299" lon="0.854701"><ele>1117.19</ele><time>2011-09-16T07:49:52Z</time></trkpt><trkpt lat="42.700282" lon="0.854977"><ele>1117.67</ele><time>2011-09-16T07:49:53Z</time></trkpt><trkpt lat="42.700241" lon="0.855252"><ele>1117.67</ele><time>2011-09-16T07:49:54Z</time></trkpt><trkpt lat="42.700173" lon="0.855535"><ele>1117.67</ele><time>2011-09-16T07:49:55Z</time></trkpt><trkpt lat="42.700093" lon="0.855824"><ele>1117.67</ele><time>2011-09-16T07:49:56Z</time></trkpt><trkpt lat="42.699690" lon="0.858234"><ele>1119.11</ele><time>2011-09-16T07:50:04Z</time></trkpt><trkpt lat="42.699513" lon="0.859965"><ele>1123.44</ele><time>2011-09-16T07:50:10Z</time></trkpt><trkpt lat="42.699537" lon="0.860249"><ele>1124.40</ele><time>2011-09-16T07:50:11Z</time></trkpt><trkpt lat="42.699586" lon="0.860526"><ele>1124.88</ele><time>2011-09-16T07:50:12Z</time></trkpt><trkpt lat="42.699660" lon="0.860789"><ele>1125.36</ele><time>2011-09-16T07:50:13Z</time></trkpt><trkpt lat="42.699751" lon="0.861044"><ele>1126.32</ele><time>2011-09-16T07:50:14Z</time></trkpt><trkpt lat="42.699850" lon="0.861298"><ele>1126.80</ele><time>2011-09-16T07:50:15Z</time></trkpt><trkpt lat="42.701268" lon="0.865282"><ele>1134.01</ele><time>2011-09-16T07:50:30Z</time></trkpt><trkpt lat="42.701296" lon="0.865586"><ele>1134.01</ele><time>2011-09-16T07:50:31Z</time></trkpt><trkpt lat="42.701304" lon="0.865892"><ele>1134.49</ele><time>2011-09-16T07:50:32Z</time></trkpt><trkpt lat="42.701292" lon="0.866200"><ele>1134.97</ele><time>2011-09-16T07:50:33Z</time></trkpt><trkpt lat="42.701257" lon="0.866504"><ele>1135.45</ele><time>2011-09-16T07:50:34Z</time></trkpt><trkpt lat="42.701201" lon="0.866806"><ele>1135.45</ele><time>2011-09-16T07:50:35Z</time></trkpt><trkpt lat="42.701125" lon="0.867103"><ele>1135.94</ele><time>2011-09-16T07:50:36Z</time></trkpt><trkpt lat="42.701040" lon="0.867394"><ele>1136.42</ele><time>2011-09-16T07:50:37Z</time></trkpt><trkpt lat="42.700539" lon="0.869085"><ele>1140.26</ele><time>2011-09-16T07:50:44Z</time></trkpt><trkpt lat="42.700380" lon="0.869752"><ele>1142.66</ele><time>2011-09-16T07:50:49Z</time></trkpt><trkpt lat="42.700345" lon="0.869843"><ele>1142.66</ele><time>2011-09-16T07:50:50Z</time></trkpt><trkpt lat="42.700314" lon="0.869932"><ele>1142.66</ele><time>2011-09-16T07:50:51Z</time></trkpt><trkpt lat="42.700298" lon="0.870024"><ele>1143.14</ele><time>2011-09-16T07:50:52Z</time></trkpt><trkpt lat="42.700304" lon="0.870117"><ele>1143.14</ele><time>2011-09-16T07:50:53Z</time></trkpt><trkpt lat="42.700331" lon="0.870207"><ele>1143.63</ele><time>2011-09-16T07:50:54Z</time></trkpt><trkpt lat="42.700376" lon="0.870301"><ele>1144.11</ele><time>2011-09-16T07:50:55Z</time></trkpt><trkpt lat="42.700429" lon="0.870409"><ele>1144.11</ele><time>2011-09-16T07:50:56Z</time></trkpt><trkpt lat="42.701023" lon="0.871750"><ele>1149.87</ele><time>2011-09-16T07:51:08Z</time></trkpt><trkpt lat="42.701067" lon="0.871868"><ele>1150.84</ele><time>2011-09-16T07:51:09Z</time></trkpt><trkpt lat="42.701101" lon="0.871992"><ele>1151.32</ele><time>2011-09-16T07:51:10Z</time></trkpt><trkpt lat="42.701206" lon="0.872346"><ele>1153.72</ele><time>2011-09-16T07:51:13Z</time></trkpt><trkpt lat="42.701227" lon="0.872474"><ele>1154.20</ele><time>2011-09-16T07:51:14Z</time></trkpt><trkpt lat="42.701461" lon="0.873993"><ele>1157.56</ele><time>2011-09-16T07:51:24Z</time></trkpt><trkpt lat="42.701797" lon="0.875619"><ele>1161.89</ele><time>2011-09-16T07:51:32Z</time></trkpt><trkpt lat="42.702517" lon="0.876983"><ele>1170.06</ele><time>2011-09-16T07:51:39Z</time></trkpt><trkpt lat="42.702759" lon="0.877665"><ele>1174.39</ele><time>2011-09-16T07:51:42Z</time></trkpt><trkpt lat="42.702798" lon="0.877925"><ele>1175.35</ele><time>2011-09-16T07:51:43Z</time></trkpt><trkpt lat="42.702828" lon="0.878196"><ele>1176.79</ele><time>2011-09-16T07:51:44Z</time></trkpt><trkpt lat="42.703310" lon="0.881193"><ele>1190.25</ele><time>2011-09-16T07:51:55Z</time></trkpt><trkpt lat="42.703712" lon="0.883955"><ele>1198.42</ele><time>2011-09-16T07:52:05Z</time></trkpt><trkpt lat="42.703846" lon="0.887766"><ele>1211.88</ele><time>2011-09-16T07:52:18Z</time></trkpt><trkpt lat="42.703915" lon="0.888021"><ele>1213.32</ele><time>2011-09-16T07:52:19Z</time></trkpt><trkpt lat="42.704006" lon="0.888256"><ele>1214.76</ele><time>2011-09-16T07:52:20Z</time></trkpt><trkpt lat="42.704122" lon="0.888464"><ele>1215.72</ele><time>2011-09-16T07:52:21Z</time></trkpt><trkpt lat="42.704225" lon="0.888676"><ele>1216.69</ele><time>2011-09-16T07:52:22Z</time></trkpt><trkpt lat="42.705001" lon="0.890551"><ele>1218.13</ele><time>2011-09-16T07:52:30Z</time></trkpt><trkpt lat="42.706199" lon="0.892756"><ele>1222.93</ele><time>2011-09-16T07:52:40Z</time></trkpt><trkpt lat="42.706651" lon="0.893724"><ele>1226.30</ele><time>2011-09-16T07:52:46Z</time></trkpt><trkpt lat="42.706669" lon="0.893853"><ele>1226.78</ele><time>2011-09-16T07:52:47Z</time></trkpt><trkpt lat="42.706663" lon="0.893969"><ele>1227.26</ele><time>2011-09-16T07:52:48Z</time></trkpt><trkpt lat="42.706647" lon="0.894183"><ele>1227.26</ele><time>2011-09-16T07:52:50Z</time></trkpt><trkpt lat="42.706670" lon="0.894295"><ele>1227.74</ele><time>2011-09-16T07:52:51Z</time></trkpt><trkpt lat="42.706733" lon="0.894552"><ele>1228.22</ele><time>2011-09-16T07:52:53Z</time></trkpt><trkpt lat="42.706746" lon="0.894708"><ele>1228.22</ele><time>2011-09-16T07:52:54Z</time></trkpt><trkpt lat="42.706741" lon="0.894878"><ele>1228.22</ele><time>2011-09-16T07:52:55Z</time></trkpt><trkpt lat="42.706677" lon="0.896891"><ele>1232.07</ele><time>2011-09-16T07:53:07Z</time></trkpt><trkpt lat="42.706714" lon="0.898225"><ele>1235.43</ele><time>2011-09-16T07:53:16Z</time></trkpt><trkpt lat="42.706691" lon="0.898377"><ele>1235.91</ele><time>2011-09-16T07:53:17Z</time></trkpt><trkpt lat="42.706652" lon="0.898533"><ele>1236.39</ele><time>2011-09-16T07:53:18Z</time></trkpt><trkpt lat="42.706600" lon="0.898692"><ele>1236.87</ele><time>2011-09-16T07:53:19Z</time></trkpt><trkpt lat="42.706543" lon="0.898855"><ele>1237.35</ele><time>2011-09-16T07:53:20Z</time></trkpt><trkpt lat="42.706333" lon="0.899506"><ele>1240.24</ele><time>2011-09-16T07:53:24Z</time></trkpt><trkpt lat="42.706304" lon="0.899676"><ele>1240.72</ele><time>2011-09-16T07:53:25Z</time></trkpt><trkpt lat="42.706289" lon="0.899854"><ele>1241.68</ele><time>2011-09-16T07:53:26Z</time></trkpt><trkpt lat="42.706285" lon="0.900040"><ele>1242.64</ele><time>2011-09-16T07:53:27Z</time></trkpt><trkpt lat="42.706288" lon="0.900230"><ele>1244.08</ele><time>2011-09-16T07:53:28Z</time></trkpt><trkpt lat="42.706298" lon="0.900417"><ele>1245.04</ele><time>2011-09-16T07:53:29Z</time></trkpt><trkpt lat="42.706530" lon="0.902167"><ele>1255.14</ele><time>2011-09-16T07:53:40Z</time></trkpt><trkpt lat="42.706586" lon="0.902433"><ele>1256.58</ele><time>2011-09-16T07:53:42Z</time></trkpt><trkpt lat="42.706661" lon="0.902630"><ele>1257.06</ele><time>2011-09-16T07:53:44Z</time></trkpt><trkpt lat="42.706711" lon="0.902679"><ele>1257.54</ele><time>2011-09-16T07:53:45Z</time></trkpt><trkpt lat="42.706755" lon="0.902724"><ele>1258.02</ele><time>2011-09-16T07:53:46Z</time></trkpt><trkpt lat="42.706951" lon="0.903035"><ele>1258.98</ele><time>2011-09-16T07:53:51Z</time></trkpt><trkpt lat="42.706995" lon="0.903126"><ele>1259.46</ele><time>2011-09-16T07:53:52Z</time></trkpt><trkpt lat="42.707034" lon="0.903242"><ele>1259.94</ele><time>2011-09-16T07:53:53Z</time></trkpt><trkpt lat="42.707293" lon="0.904501"><ele>1266.19</ele><time>2011-09-16T07:54:02Z</time></trkpt><trkpt lat="42.707287" lon="0.904666"><ele>1267.16</ele><time>2011-09-16T07:54:03Z</time></trkpt><trkpt lat="42.707227" lon="0.904815"><ele>1268.12</ele><time>2011-09-16T07:54:04Z</time></trkpt><trkpt lat="42.707148" lon="0.904945"><ele>1268.60</ele><time>2011-09-16T07:54:05Z</time></trkpt><trkpt lat="42.707052" lon="0.905068"><ele>1269.56</ele><time>2011-09-16T07:54:06Z</time></trkpt><trkpt lat="42.706938" lon="0.905165"><ele>1271.00</ele><time>2011-09-16T07:54:07Z</time></trkpt><trkpt lat="42.706808" lon="0.905236"><ele>1272.44</ele><time>2011-09-16T07:54:08Z</time></trkpt><trkpt lat="42.706673" lon="0.905306"><ele>1273.88</ele><time>2011-09-16T07:54:09Z</time></trkpt><trkpt lat="42.706426" lon="0.905461"><ele>1275.81</ele><time>2011-09-16T07:54:11Z</time></trkpt><trkpt lat="42.706326" lon="0.905554"><ele>1276.77</ele><time>2011-09-16T07:54:12Z</time></trkpt><trkpt lat="42.706238" lon="0.905662"><ele>1278.21</ele><time>2011-09-16T07:54:13Z</time></trkpt><trkpt lat="42.706158" lon="0.905789"><ele>1279.17</ele><time>2011-09-16T07:54:14Z</time></trkpt><trkpt lat="42.706089" lon="0.905940"><ele>1280.61</ele><time>2011-09-16T07:54:15Z</time></trkpt><trkpt lat="42.706032" lon="0.906106"><ele>1281.57</ele><time>2011-09-16T07:54:16Z</time></trkpt><trkpt lat="42.705980" lon="0.906281"><ele>1282.54</ele><time>2011-09-16T07:54:17Z</time></trkpt><trkpt lat="42.705597" lon="0.908351"><ele>1294.55</ele><time>2011-09-16T07:54:27Z</time></trkpt><trkpt lat="42.705259" lon="0.910386"><ele>1303.69</ele><time>2011-09-16T07:54:35Z</time></trkpt><trkpt lat="42.704875" lon="0.912986"><ele>1317.14</ele><time>2011-09-16T07:54:45Z</time></trkpt><trkpt lat="42.704181" lon="0.914503"><ele>1327.72</ele><time>2011-09-16T07:54:52Z</time></trkpt><trkpt lat="42.703463" lon="0.915509"><ele>1333.97</ele><time>2011-09-16T07:54:59Z</time></trkpt><trkpt lat="42.703248" lon="0.915792"><ele>1335.89</ele><time>2011-09-16T07:55:02Z</time></trkpt><trkpt lat="42.703219" lon="0.915896"><ele>1336.37</ele><time>2011-09-16T07:55:03Z</time></trkpt><trkpt lat="42.703242" lon="0.915989"><ele>1337.33</ele><time>2011-09-16T07:55:04Z</time></trkpt><trkpt lat="42.703274" lon="0.916091"><ele>1336.85</ele><time>2011-09-16T07:55:05Z</time></trkpt><trkpt lat="42.703359" lon="0.916128"><ele>1337.33</ele><time>2011-09-16T07:55:06Z</time></trkpt><trkpt lat="42.703448" lon="0.916134"><ele>1336.85</ele><time>2011-09-16T07:55:07Z</time></trkpt><trkpt lat="42.703545" lon="0.916091"><ele>1337.33</ele><time>2011-09-16T07:55:08Z</time></trkpt><trkpt lat="42.703636" lon="0.916012"><ele>1338.29</ele><time>2011-09-16T07:55:09Z</time></trkpt><trkpt lat="42.703728" lon="0.915906"><ele>1339.73</ele><time>2011-09-16T07:55:10Z</time></trkpt><trkpt lat="42.703826" lon="0.915793"><ele>1340.70</ele><time>2011-09-16T07:55:11Z</time></trkpt><trkpt lat="42.704742" lon="0.914815"><ele>1347.91</ele><time>2011-09-16T07:55:19Z</time></trkpt><trkpt lat="42.705508" lon="0.913581"><ele>1355.12</ele><time>2011-09-16T07:55:26Z</time></trkpt><trkpt lat="42.705844" lon="0.912042"><ele>1362.81</ele><time>2011-09-16T07:55:33Z</time></trkpt><trkpt lat="42.705935" lon="0.911651"><ele>1364.73</ele><time>2011-09-16T07:55:35Z</time></trkpt><trkpt lat="42.706002" lon="0.911467"><ele>1365.21</ele><time>2011-09-16T07:55:36Z</time></trkpt><trkpt lat="42.706085" lon="0.911287"><ele>1366.65</ele><time>2011-09-16T07:55:37Z</time></trkpt><trkpt lat="42.706180" lon="0.911115"><ele>1367.13</ele><time>2011-09-16T07:55:38Z</time></trkpt><trkpt lat="42.706277" lon="0.910950"><ele>1368.09</ele><time>2011-09-16T07:55:39Z</time></trkpt><trkpt lat="42.706939" lon="0.909939"><ele>1374.34</ele><time>2011-09-16T07:55:47Z</time></trkpt><trkpt lat="42.707011" lon="0.909891"><ele>1374.82</ele><time>2011-09-16T07:55:48Z</time></trkpt><trkpt lat="42.707080" lon="0.909923"><ele>1375.78</ele><time>2011-09-16T07:55:49Z</time></trkpt><trkpt lat="42.707139" lon="0.910017"><ele>1377.23</ele><time>2011-09-16T07:55:50Z</time></trkpt><trkpt lat="42.707162" lon="0.910122"><ele>1378.19</ele><time>2011-09-16T07:55:51Z</time></trkpt><trkpt lat="42.707125" lon="0.910244"><ele>1378.67</ele><time>2011-09-16T07:55:52Z</time></trkpt><trkpt lat="42.707067" lon="0.910332"><ele>1379.63</ele><time>2011-09-16T07:55:53Z</time></trkpt><trkpt lat="42.706985" lon="0.910408"><ele>1380.11</ele><time>2011-09-16T07:55:54Z</time></trkpt><trkpt lat="42.706889" lon="0.910488"><ele>1381.07</ele><time>2011-09-16T07:55:55Z</time></trkpt><trkpt lat="42.706795" lon="0.910580"><ele>1381.55</ele><time>2011-09-16T07:55:56Z</time></trkpt><trkpt lat="42.706712" lon="0.910681"><ele>1382.51</ele><time>2011-09-16T07:55:57Z</time></trkpt><trkpt lat="42.706635" lon="0.910803"><ele>1383.47</ele><time>2011-09-16T07:55:58Z</time></trkpt><trkpt lat="42.706562" lon="0.910956"><ele>1383.96</ele><time>2011-09-16T07:55:59Z</time></trkpt><trkpt lat="42.706511" lon="0.911157"><ele>1385.40</ele><time>2011-09-16T07:56:00Z</time></trkpt><trkpt lat="42.706464" lon="0.911363"><ele>1386.36</ele><time>2011-09-16T07:56:01Z</time></trkpt><trkpt lat="42.706421" lon="0.911561"><ele>1387.32</ele><time>2011-09-16T07:56:02Z</time></trkpt><trkpt lat="42.706142" lon="0.913252"><ele>1395.97</ele><time>2011-09-16T07:56:09Z</time></trkpt><trkpt lat="42.705915" lon="0.915550"><ele>1406.55</ele><time>2011-09-16T07:56:17Z</time></trkpt><trkpt lat="42.705390" lon="0.917167"><ele>1415.20</ele><time>2011-09-16T07:56:24Z</time></trkpt><trkpt lat="42.705101" lon="0.917710"><ele>1418.56</ele><time>2011-09-16T07:56:28Z</time></trkpt><trkpt lat="42.705009" lon="0.917817"><ele>1419.52</ele><time>2011-09-16T07:56:29Z</time></trkpt><trkpt lat="42.704902" lon="0.917919"><ele>1420.00</ele><time>2011-09-16T07:56:30Z</time></trkpt><trkpt lat="42.704663" lon="0.918144"><ele>1421.45</ele><time>2011-09-16T07:56:32Z</time></trkpt><trkpt lat="42.704541" lon="0.918293"><ele>1422.41</ele><time>2011-09-16T07:56:33Z</time></trkpt><trkpt lat="42.704420" lon="0.918469"><ele>1422.89</ele><time>2011-09-16T07:56:34Z</time></trkpt><trkpt lat="42.704301" lon="0.918673"><ele>1424.33</ele><time>2011-09-16T07:56:35Z</time></trkpt><trkpt lat="42.704181" lon="0.918889"><ele>1424.81</ele><time>2011-09-16T07:56:36Z</time></trkpt><trkpt lat="42.703111" lon="0.921016"><ele>1436.83</ele><time>2011-09-16T07:56:46Z</time></trkpt><trkpt lat="42.702167" lon="0.923850"><ele>1447.40</ele><time>2011-09-16T07:56:59Z</time></trkpt><trkpt lat="42.701766" lon="0.925415"><ele>1452.21</ele><time>2011-09-16T07:57:08Z</time></trkpt><trkpt lat="42.701548" lon="0.926134"><ele>1456.05</ele><time>2011-09-16T07:57:15Z</time></trkpt><trkpt lat="42.700906" lon="0.927332"><ele>1464.71</ele><time>2011-09-16T07:57:24Z</time></trkpt><trkpt lat="42.700587" lon="0.928133"><ele>1468.07</ele><time>2011-09-16T07:57:31Z</time></trkpt><trkpt lat="42.700565" lon="0.928262"><ele>1468.07</ele><time>2011-09-16T07:57:32Z</time></trkpt><trkpt lat="42.700529" lon="0.928570"><ele>1469.03</ele><time>2011-09-16T07:57:34Z</time></trkpt><trkpt lat="42.700491" lon="0.928740"><ele>1469.51</ele><time>2011-09-16T07:57:35Z</time></trkpt><trkpt lat="42.700433" lon="0.928917"><ele>1470.47</ele><time>2011-09-16T07:57:36Z</time></trkpt><trkpt lat="42.700359" lon="0.929098"><ele>1471.92</ele><time>2011-09-16T07:57:37Z</time></trkpt><trkpt lat="42.700279" lon="0.929272"><ele>1472.88</ele><time>2011-09-16T07:57:38Z</time></trkpt><trkpt lat="42.699745" lon="0.930551"><ele>1482.01</ele><time>2011-09-16T07:57:46Z</time></trkpt><trkpt lat="42.699577" lon="0.932236"><ele>1492.10</ele><time>2011-09-16T07:57:55Z</time></trkpt><trkpt lat="42.699538" lon="0.933345"><ele>1496.43</ele><time>2011-09-16T07:58:02Z</time></trkpt><trkpt lat="42.699502" lon="0.933471"><ele>1496.91</ele><time>2011-09-16T07:58:03Z</time></trkpt><trkpt lat="42.699418" lon="0.933546"><ele>1498.35</ele><time>2011-09-16T07:58:04Z</time></trkpt><trkpt lat="42.699337" lon="0.933647"><ele>1498.83</ele><time>2011-09-16T07:58:05Z</time></trkpt><trkpt lat="42.699241" lon="0.933725"><ele>1499.31</ele><time>2011-09-16T07:58:06Z</time></trkpt><trkpt lat="42.699103" lon="0.933723"><ele>1501.72</ele><time>2011-09-16T07:58:07Z</time></trkpt><trkpt lat="42.699001" lon="0.933783"><ele>1502.68</ele><time>2011-09-16T07:58:08Z</time></trkpt><trkpt lat="42.698908" lon="0.933869"><ele>1503.64</ele><time>2011-09-16T07:58:09Z</time></trkpt><trkpt lat="42.698172" lon="0.934240"><ele>1507.97</ele><time>2011-09-16T07:58:16Z</time></trkpt><trkpt lat="42.698083" lon="0.934342"><ele>1508.45</ele><time>2011-09-16T07:58:17Z</time></trkpt><trkpt lat="42.697997" lon="0.934460"><ele>1508.93</ele><time>2011-09-16T07:58:18Z</time></trkpt><trkpt lat="42.697189" lon="0.935740"><ele>1516.62</ele><time>2011-09-16T07:58:28Z</time></trkpt><trkpt lat="42.697092" lon="0.935843"><ele>1517.10</ele><time>2011-09-16T07:58:29Z</time></trkpt><trkpt lat="42.696986" lon="0.935927"><ele>1518.06</ele><time>2011-09-16T07:58:30Z</time></trkpt><trkpt lat="42.696666" lon="0.936164"><ele>1520.46</ele><time>2011-09-16T07:58:33Z</time></trkpt><trkpt lat="42.696563" lon="0.936274"><ele>1521.90</ele><time>2011-09-16T07:58:34Z</time></trkpt><trkpt lat="42.696463" lon="0.936408"><ele>1522.39</ele><time>2011-09-16T07:58:35Z</time></trkpt><trkpt lat="42.695559" lon="0.937739"><ele>1532.96</ele><time>2011-09-16T07:58:44Z</time></trkpt><trkpt lat="42.694840" lon="0.938625"><ele>1540.65</ele><time>2011-09-16T07:58:50Z</time></trkpt><trkpt lat="42.694694" lon="0.938727"><ele>1542.09</ele><time>2011-09-16T07:58:51Z</time></trkpt><trkpt lat="42.694264" lon="0.939028"><ele>1545.94</ele><time>2011-09-16T07:58:54Z</time></trkpt><trkpt lat="42.694132" lon="0.939166"><ele>1546.90</ele><time>2011-09-16T07:58:55Z</time></trkpt><trkpt lat="42.694008" lon="0.939338"><ele>1548.34</ele><time>2011-09-16T07:58:56Z</time></trkpt><trkpt lat="42.693889" lon="0.939542"><ele>1550.26</ele><time>2011-09-16T07:58:57Z</time></trkpt><trkpt lat="42.693770" lon="0.939746"><ele>1551.71</ele><time>2011-09-16T07:58:58Z</time></trkpt><trkpt lat="42.693086" lon="0.941300"><ele>1562.76</ele><time>2011-09-16T07:59:05Z</time></trkpt><trkpt lat="42.692066" lon="0.943107"><ele>1576.22</ele><time>2011-09-16T07:59:13Z</time></trkpt><trkpt lat="42.690787" lon="0.944919"><ele>1591.12</ele><time>2011-09-16T07:59:22Z</time></trkpt><trkpt lat="42.689426" lon="0.945987"><ele>1604.10</ele><time>2011-09-16T07:59:30Z</time></trkpt><trkpt lat="42.688073" lon="0.947029"><ele>1616.59</ele><time>2011-09-16T07:59:38Z</time></trkpt><trkpt lat="42.686764" lon="0.948812"><ele>1625.25</ele><time>2011-09-16T07:59:47Z</time></trkpt><trkpt lat="42.684396" lon="0.952211"><ele>1648.80</ele><time>2011-09-16T08:00:02Z</time></trkpt><trkpt lat="42.682710" lon="0.954287"><ele>1667.06</ele><time>2011-09-16T08:00:12Z</time></trkpt><trkpt lat="42.680985" lon="0.955742"><ele>1680.52</ele><time>2011-09-16T08:00:21Z</time></trkpt><trkpt lat="42.679261" lon="0.957086"><ele>1693.98</ele><time>2011-09-16T08:00:30Z</time></trkpt><trkpt lat="42.677757" lon="0.958313"><ele>1705.52</ele><time>2011-09-16T08:00:38Z</time></trkpt><trkpt lat="42.677550" lon="0.958405"><ele>1706.96</ele><time>2011-09-16T08:00:39Z</time></trkpt><trkpt lat="42.677337" lon="0.958474"><ele>1708.88</ele><time>2011-09-16T08:00:40Z</time></trkpt><trkpt lat="42.675231" lon="0.959352"><ele>1724.74</ele><time>2011-09-16T08:00:50Z</time></trkpt><trkpt lat="42.673771" lon="0.960704"><ele>1738.20</ele><time>2011-09-16T08:00:58Z</time></trkpt><trkpt lat="42.671739" lon="0.963444"><ele>1760.79</ele><time>2011-09-16T08:01:11Z</time></trkpt><trkpt lat="42.670524" lon="0.964953"><ele>1774.25</ele><time>2011-09-16T08:01:19Z</time></trkpt><trkpt lat="42.669408" lon="0.966635"><ele>1787.23</ele><time>2011-09-16T08:01:28Z</time></trkpt><trkpt lat="42.668655" lon="0.968019"><ele>1797.32</ele><time>2011-09-16T08:01:35Z</time></trkpt><trkpt lat="42.668107" lon="0.968607"><ele>1803.57</ele><time>2011-09-16T08:01:40Z</time></trkpt><trkpt lat="42.668051" lon="0.968707"><ele>1804.53</ele><time>2011-09-16T08:01:41Z</time></trkpt><trkpt lat="42.668057" lon="0.968793"><ele>1805.49</ele><time>2011-09-16T08:01:42Z</time></trkpt><trkpt lat="42.668095" lon="0.968871"><ele>1805.97</ele><time>2011-09-16T08:01:43Z</time></trkpt><trkpt lat="42.668152" lon="0.968927"><ele>1806.45</ele><time>2011-09-16T08:01:44Z</time></trkpt><trkpt lat="42.668227" lon="0.968950"><ele>1806.94</ele><time>2011-09-16T08:01:45Z</time></trkpt><trkpt lat="42.668316" lon="0.968921"><ele>1806.94</ele><time>2011-09-16T08:01:46Z</time></trkpt><trkpt lat="42.668403" lon="0.968862"><ele>1807.42</ele><time>2011-09-16T08:01:47Z</time></trkpt><trkpt lat="42.668502" lon="0.968760"><ele>1807.90</ele><time>2011-09-16T08:01:48Z</time></trkpt><trkpt lat="42.668602" lon="0.968642"><ele>1808.38</ele><time>2011-09-16T08:01:49Z</time></trkpt><trkpt lat="42.669465" lon="0.967488"><ele>1816.07</ele><time>2011-09-16T08:01:58Z</time></trkpt><trkpt lat="42.669537" lon="0.967335"><ele>1817.03</ele><time>2011-09-16T08:01:59Z</time></trkpt><trkpt lat="42.669685" lon="0.967036"><ele>1818.95</ele><time>2011-09-16T08:02:01Z</time></trkpt><trkpt lat="42.669777" lon="0.966901"><ele>1819.91</ele><time>2011-09-16T08:02:02Z</time></trkpt><trkpt lat="42.669879" lon="0.966770"><ele>1821.35</ele><time>2011-09-16T08:02:03Z</time></trkpt><trkpt lat="42.670379" lon="0.966214"><ele>1826.64</ele><time>2011-09-16T08:02:08Z</time></trkpt><trkpt lat="42.670488" lon="0.966124"><ele>1827.60</ele><time>2011-09-16T08:02:09Z</time></trkpt><trkpt lat="42.671571" lon="0.965506"><ele>1837.22</ele><time>2011-09-16T08:02:17Z</time></trkpt><trkpt lat="42.672375" lon="0.964779"><ele>1844.91</ele><time>2011-09-16T08:02:24Z</time></trkpt><trkpt lat="42.672479" lon="0.964648"><ele>1845.39</ele><time>2011-09-16T08:02:25Z</time></trkpt><trkpt lat="42.673484" lon="0.963678"><ele>1848.75</ele><time>2011-09-16T08:02:34Z</time></trkpt><trkpt lat="42.673973" lon="0.963279"><ele>1848.75</ele><time>2011-09-16T08:02:39Z</time></trkpt><trkpt lat="42.674031" lon="0.963182"><ele>1848.75</ele><time>2011-09-16T08:02:40Z</time></trkpt><trkpt lat="42.674069" lon="0.963079"><ele>1849.23</ele><time>2011-09-16T08:02:41Z</time></trkpt><trkpt lat="42.674092" lon="0.962978"><ele>1850.19</ele><time>2011-09-16T08:02:42Z</time></trkpt><trkpt lat="42.674119" lon="0.962890"><ele>1850.68</ele><time>2011-09-16T08:02:43Z</time></trkpt><trkpt lat="42.674209" lon="0.962834"><ele>1852.12</ele><time>2011-09-16T08:02:45Z</time></trkpt><trkpt lat="42.674241" lon="0.962904"><ele>1853.08</ele><time>2011-09-16T08:02:46Z</time></trkpt><trkpt lat="42.674249" lon="0.963003"><ele>1853.56</ele><time>2011-09-16T08:02:47Z</time></trkpt><trkpt lat="42.674209" lon="0.963124"><ele>1855.00</ele><time>2011-09-16T08:02:48Z</time></trkpt><trkpt lat="42.674158" lon="0.963250"><ele>1855.48</ele><time>2011-09-16T08:02:49Z</time></trkpt><trkpt lat="42.674083" lon="0.963383"><ele>1855.00</ele><time>2011-09-16T08:02:50Z</time></trkpt><trkpt lat="42.673987" lon="0.963505"><ele>1855.48</ele><time>2011-09-16T08:02:51Z</time></trkpt><trkpt lat="42.673886" lon="0.963607"><ele>1855.96</ele><time>2011-09-16T08:02:52Z</time></trkpt><trkpt lat="42.673777" lon="0.963700"><ele>1856.44</ele><time>2011-09-16T08:02:53Z</time></trkpt><trkpt lat="42.673661" lon="0.963799"><ele>1856.92</ele><time>2011-09-16T08:02:54Z</time></trkpt><trkpt lat="42.672980" lon="0.964593"><ele>1862.21</ele><time>2011-09-16T08:03:00Z</time></trkpt><trkpt lat="42.672727" lon="0.964925"><ele>1864.61</ele><time>2011-09-16T08:03:03Z</time></trkpt><trkpt lat="42.672442" lon="0.965393"><ele>1867.98</ele><time>2011-09-16T08:03:07Z</time></trkpt><trkpt lat="42.672383" lon="0.965528"><ele>1868.46</ele><time>2011-09-16T08:03:08Z</time></trkpt><trkpt lat="42.672334" lon="0.965683"><ele>1869.42</ele><time>2011-09-16T08:03:09Z</time></trkpt><trkpt lat="42.672296" lon="0.965860"><ele>1870.38</ele><time>2011-09-16T08:03:10Z</time></trkpt><trkpt lat="42.672247" lon="0.966042"><ele>1870.38</ele><time>2011-09-16T08:03:11Z</time></trkpt><trkpt lat="42.672174" lon="0.966210"><ele>1871.34</ele><time>2011-09-16T08:03:12Z</time></trkpt><trkpt lat="42.672077" lon="0.966363"><ele>1872.30</ele><time>2011-09-16T08:03:13Z</time></trkpt><trkpt lat="42.671973" lon="0.966501"><ele>1873.27</ele><time>2011-09-16T08:03:14Z</time></trkpt><trkpt lat="42.671865" lon="0.966620"><ele>1874.71</ele><time>2011-09-16T08:03:15Z</time></trkpt><trkpt lat="42.671748" lon="0.966732"><ele>1876.15</ele><time>2011-09-16T08:03:16Z</time></trkpt><trkpt lat="42.671620" lon="0.966840"><ele>1877.59</ele><time>2011-09-16T08:03:17Z</time></trkpt><trkpt lat="42.671483" lon="0.966941"><ele>1879.03</ele><time>2011-09-16T08:03:18Z</time></trkpt><trkpt lat="42.671339" lon="0.967034"><ele>1880.00</ele><time>2011-09-16T08:03:19Z</time></trkpt><trkpt lat="42.671189" lon="0.967105"><ele>1880.96</ele><time>2011-09-16T08:03:20Z</time></trkpt><trkpt lat="42.671040" lon="0.967159"><ele>1881.92</ele><time>2011-09-16T08:03:21Z</time></trkpt><trkpt lat="42.670659" lon="0.967308"><ele>1885.28</ele><time>2011-09-16T08:03:24Z</time></trkpt><trkpt lat="42.670559" lon="0.967393"><ele>1886.24</ele><time>2011-09-16T08:03:25Z</time></trkpt><trkpt lat="42.670470" lon="0.967508"><ele>1887.69</ele><time>2011-09-16T08:03:26Z</time></trkpt><trkpt lat="42.670402" lon="0.967667"><ele>1888.65</ele><time>2011-09-16T08:03:27Z</time></trkpt><trkpt lat="42.670352" lon="0.967845"><ele>1889.61</ele><time>2011-09-16T08:03:28Z</time></trkpt><trkpt lat="42.670303" lon="0.968016"><ele>1890.09</ele><time>2011-09-16T08:03:29Z</time></trkpt><trkpt lat="42.670006" lon="0.968819"><ele>1893.93</ele><time>2011-09-16T08:03:35Z</time></trkpt><trkpt lat="42.669987" lon="0.968905"><ele>1894.42</ele><time>2011-09-16T08:03:36Z</time></trkpt><trkpt lat="42.670018" lon="0.968960"><ele>1894.90</ele><time>2011-09-16T08:03:37Z</time></trkpt><trkpt lat="42.670084" lon="0.968971"><ele>1895.38</ele><time>2011-09-16T08:03:38Z</time></trkpt><trkpt lat="42.670145" lon="0.968918"><ele>1895.86</ele><time>2011-09-16T08:03:39Z</time></trkpt><trkpt lat="42.670208" lon="0.968845"><ele>1895.86</ele><time>2011-09-16T08:03:40Z</time></trkpt><trkpt lat="42.670254" lon="0.968740"><ele>1896.34</ele><time>2011-09-16T08:03:41Z</time></trkpt><trkpt lat="42.670289" lon="0.968621"><ele>1896.34</ele><time>2011-09-16T08:03:42Z</time></trkpt><trkpt lat="42.670321" lon="0.968506"><ele>1896.82</ele><time>2011-09-16T08:03:43Z</time></trkpt><trkpt lat="42.670562" lon="0.967860"><ele>1897.78</ele><time>2011-09-16T08:03:48Z</time></trkpt><trkpt lat="42.670637" lon="0.967741"><ele>1898.26</ele><time>2011-09-16T08:03:49Z</time></trkpt><trkpt lat="42.670729" lon="0.967650"><ele>1898.74</ele><time>2011-09-16T08:03:50Z</time></trkpt><trkpt lat="42.670840" lon="0.967584"><ele>1899.22</ele><time>2011-09-16T08:03:51Z</time></trkpt><trkpt lat="42.670954" lon="0.967534"><ele>1900.18</ele><time>2011-09-16T08:03:52Z</time></trkpt><trkpt lat="42.671066" lon="0.967491"><ele>1900.66</ele><time>2011-09-16T08:03:53Z</time></trkpt><trkpt lat="42.671975" lon="0.967297"><ele>1906.43</ele><time>2011-09-16T08:04:00Z</time></trkpt><trkpt lat="42.672245" lon="0.967163"><ele>1908.83</ele><time>2011-09-16T08:04:02Z</time></trkpt><trkpt lat="42.672376" lon="0.967065"><ele>1909.80</ele><time>2011-09-16T08:04:03Z</time></trkpt><trkpt lat="42.672496" lon="0.966952"><ele>1911.24</ele><time>2011-09-16T08:04:04Z</time></trkpt><trkpt lat="42.672607" lon="0.966823"><ele>1912.68</ele><time>2011-09-16T08:04:05Z</time></trkpt><trkpt lat="42.672708" lon="0.966679"><ele>1913.64</ele><time>2011-09-16T08:04:06Z</time></trkpt><trkpt lat="42.672801" lon="0.966528"><ele>1915.08</ele><time>2011-09-16T08:04:07Z</time></trkpt><trkpt lat="42.672899" lon="0.966386"><ele>1916.04</ele><time>2011-09-16T08:04:08Z</time></trkpt><trkpt lat="42.673014" lon="0.966260"><ele>1917.49</ele><time>2011-09-16T08:04:09Z</time></trkpt><trkpt lat="42.673269" lon="0.966002"><ele>1919.89</ele><time>2011-09-16T08:04:11Z</time></trkpt><trkpt lat="42.673390" lon="0.965842"><ele>1921.33</ele><time>2011-09-16T08:04:12Z</time></trkpt><trkpt lat="42.674683" lon="0.964331"><ele>1934.79</ele><time>2011-09-16T08:04:22Z</time></trkpt><trkpt lat="42.675042" lon="0.964016"><ele>1938.16</ele><time>2011-09-16T08:04:25Z</time></trkpt><trkpt lat="42.675126" lon="0.963903"><ele>1939.12</ele><time>2011-09-16T08:04:26Z</time></trkpt><trkpt lat="42.675192" lon="0.963785"><ele>1939.60</ele><time>2011-09-16T08:04:27Z</time></trkpt><trkpt lat="42.675344" lon="0.963480"><ele>1941.52</ele><time>2011-09-16T08:04:30Z</time></trkpt><trkpt lat="42.675394" lon="0.963426"><ele>1942.00</ele><time>2011-09-16T08:04:31Z</time></trkpt><trkpt lat="42.675433" lon="0.963443"><ele>1942.96</ele><time>2011-09-16T08:04:32Z</time></trkpt><trkpt lat="42.675422" lon="0.963644"><ele>1944.40</ele><time>2011-09-16T08:04:35Z</time></trkpt><trkpt lat="42.675374" lon="0.963727"><ele>1944.88</ele><time>2011-09-16T08:04:36Z</time></trkpt><trkpt lat="42.675316" lon="0.963827"><ele>1945.36</ele><time>2011-09-16T08:04:37Z</time></trkpt><trkpt lat="42.674814" lon="0.964521"><ele>1949.21</ele><time>2011-09-16T08:04:43Z</time></trkpt><trkpt lat="42.674259" lon="0.965464"><ele>1954.98</ele><time>2011-09-16T08:04:49Z</time></trkpt><trkpt lat="42.673655" lon="0.966663"><ele>1963.15</ele><time>2011-09-16T08:04:56Z</time></trkpt><trkpt lat="42.673552" lon="0.966799"><ele>1964.59</ele><time>2011-09-16T08:04:57Z</time></trkpt><trkpt lat="42.672979" lon="0.967508"><ele>1970.84</ele><time>2011-09-16T08:05:02Z</time></trkpt><trkpt lat="42.672777" lon="0.967845"><ele>1972.76</ele><time>2011-09-16T08:05:04Z</time></trkpt><trkpt lat="42.672658" lon="0.967999"><ele>1973.72</ele><time>2011-09-16T08:05:05Z</time></trkpt><trkpt lat="42.672526" lon="0.968132"><ele>1975.17</ele><time>2011-09-16T08:05:06Z</time></trkpt><trkpt lat="42.671456" lon="0.969431"><ele>1986.22</ele><time>2011-09-16T08:05:15Z</time></trkpt><trkpt lat="42.671354" lon="0.969608"><ele>1987.18</ele><time>2011-09-16T08:05:16Z</time></trkpt><trkpt lat="42.671259" lon="0.969804"><ele>1988.62</ele><time>2011-09-16T08:05:17Z</time></trkpt><trkpt lat="42.670534" lon="0.971579"><ele>1999.68</ele><time>2011-09-16T08:05:25Z</time></trkpt><trkpt lat="42.670076" lon="0.973672"><ele>2010.73</ele><time>2011-09-16T08:05:33Z</time></trkpt><trkpt lat="42.669180" lon="0.976376"><ele>2027.56</ele><time>2011-09-16T08:05:44Z</time></trkpt><trkpt lat="42.668624" lon="0.977535"><ele>2035.25</ele><time>2011-09-16T08:05:50Z</time></trkpt><trkpt lat="42.668508" lon="0.977697"><ele>2036.21</ele><time>2011-09-16T08:05:51Z</time></trkpt><trkpt lat="42.668389" lon="0.977839"><ele>2037.65</ele><time>2011-09-16T08:05:52Z</time></trkpt><trkpt lat="42.668272" lon="0.977959"><ele>2038.61</ele><time>2011-09-16T08:05:53Z</time></trkpt><trkpt lat="42.668155" lon="0.978050"><ele>2039.57</ele><time>2011-09-16T08:05:54Z</time></trkpt><trkpt lat="42.668035" lon="0.978103"><ele>2040.54</ele><time>2011-09-16T08:05:55Z</time></trkpt><trkpt lat="42.667909" lon="0.978119"><ele>2041.98</ele><time>2011-09-16T08:05:56Z</time></trkpt><trkpt lat="42.667766" lon="0.978087"><ele>2042.94</ele><time>2011-09-16T08:05:57Z</time></trkpt><trkpt lat="42.667624" lon="0.978050"><ele>2044.38</ele><time>2011-09-16T08:05:58Z</time></trkpt><trkpt lat="42.666979" lon="0.977879"><ele>2049.67</ele><time>2011-09-16T08:06:03Z</time></trkpt><trkpt lat="42.666866" lon="0.977893"><ele>2050.63</ele><time>2011-09-16T08:06:04Z</time></trkpt><trkpt lat="42.666753" lon="0.977935"><ele>2051.59</ele><time>2011-09-16T08:06:05Z</time></trkpt><trkpt lat="42.666396" lon="0.978065"><ele>2054.47</ele><time>2011-09-16T08:06:08Z</time></trkpt><trkpt lat="42.666271" lon="0.978080"><ele>2055.44</ele><time>2011-09-16T08:06:09Z</time></trkpt><trkpt lat="42.666144" lon="0.978077"><ele>2056.88</ele><time>2011-09-16T08:06:10Z</time></trkpt><trkpt lat="42.666016" lon="0.978059"><ele>2057.84</ele><time>2011-09-16T08:06:11Z</time></trkpt><trkpt lat="42.665889" lon="0.978035"><ele>2058.80</ele><time>2011-09-16T08:06:12Z</time></trkpt><trkpt lat="42.665765" lon="0.978020"><ele>2060.24</ele><time>2011-09-16T08:06:13Z</time></trkpt><trkpt lat="42.665642" lon="0.978036"><ele>2061.20</ele><time>2011-09-16T08:06:14Z</time></trkpt><trkpt lat="42.665518" lon="0.978085"><ele>2062.17</ele><time>2011-09-16T08:06:15Z</time></trkpt><trkpt lat="42.665398" lon="0.978152"><ele>2063.13</ele><time>2011-09-16T08:06:16Z</time></trkpt><trkpt lat="42.665285" lon="0.978221"><ele>2064.09</ele><time>2011-09-16T08:06:17Z</time></trkpt><trkpt lat="42.664967" lon="0.978376"><ele>2066.49</ele><time>2011-09-16T08:06:20Z</time></trkpt><trkpt lat="42.664865" lon="0.978394"><ele>2067.45</ele><time>2011-09-16T08:06:21Z</time></trkpt><trkpt lat="42.664762" lon="0.978373"><ele>2068.41</ele><time>2011-09-16T08:06:22Z</time></trkpt><trkpt lat="42.664576" lon="0.978325"><ele>2069.86</ele><time>2011-09-16T08:06:24Z</time></trkpt><trkpt lat="42.664488" lon="0.978331"><ele>2070.82</ele><time>2011-09-16T08:06:25Z</time></trkpt><trkpt lat="42.664404" lon="0.978368"><ele>2071.30</ele><time>2011-09-16T08:06:26Z</time></trkpt><trkpt lat="42.664331" lon="0.978426"><ele>2071.78</ele><time>2011-09-16T08:06:27Z</time></trkpt><trkpt lat="42.664271" lon="0.978493"><ele>2072.26</ele><time>2011-09-16T08:06:28Z</time></trkpt><trkpt lat="42.664222" lon="0.978565"><ele>2072.26</ele><time>2011-09-16T08:06:29Z</time></trkpt><trkpt lat="42.664180" lon="0.978646"><ele>2072.74</ele><time>2011-09-16T08:06:30Z</time></trkpt><trkpt lat="42.664142" lon="0.978739"><ele>2073.22</ele><time>2011-09-16T08:06:31Z</time></trkpt><trkpt lat="42.664106" lon="0.978837"><ele>2073.22</ele><time>2011-09-16T08:06:32Z</time></trkpt><trkpt lat="42.663707" lon="0.980181"><ele>2076.10</ele><time>2011-09-16T08:06:45Z</time></trkpt><trkpt lat="42.663688" lon="0.980307"><ele>2076.10</ele><time>2011-09-16T08:06:46Z</time></trkpt><trkpt lat="42.663643" lon="0.981181"><ele>2079.95</ele><time>2011-09-16T08:06:53Z</time></trkpt><trkpt lat="42.663613" lon="0.981299"><ele>2080.43</ele><time>2011-09-16T08:06:54Z</time></trkpt><trkpt lat="42.663573" lon="0.981412"><ele>2080.91</ele><time>2011-09-16T08:06:55Z</time></trkpt><trkpt lat="42.663376" lon="0.982026"><ele>2083.79</ele><time>2011-09-16T08:07:01Z</time></trkpt><trkpt lat="42.663374" lon="0.982109"><ele>2083.79</ele><time>2011-09-16T08:07:02Z</time></trkpt><trkpt lat="42.663384" lon="0.982190"><ele>2084.28</ele><time>2011-09-16T08:07:03Z</time></trkpt><trkpt lat="42.663401" lon="0.982279"><ele>2084.28</ele><time>2011-09-16T08:07:04Z</time></trkpt><trkpt lat="42.663423" lon="0.982379"><ele>2084.28</ele><time>2011-09-16T08:07:05Z</time></trkpt><trkpt lat="42.663488" lon="0.982712"><ele>2084.76</ele><time>2011-09-16T08:07:08Z</time></trkpt><trkpt lat="42.663497" lon="0.982821"><ele>2085.24</ele><time>2011-09-16T08:07:09Z</time></trkpt><trkpt lat="42.663500" lon="0.982920"><ele>2086.68</ele><time>2011-09-16T08:07:10Z</time></trkpt><trkpt lat="42.663493" lon="0.983009"><ele>2087.16</ele><time>2011-09-16T08:07:11Z</time></trkpt><trkpt lat="42.663482" lon="0.983078"><ele>2087.16</ele><time>2011-09-16T08:07:12Z</time></trkpt><trkpt lat="42.663471" lon="0.983129"><ele>2087.64</ele><time>2011-09-16T08:07:13Z</time></trkpt><trkpt lat="42.663453" lon="0.983229"><ele>2086.68</ele><time>2011-09-16T08:07:22Z</time></trkpt><trkpt lat="42.663396" lon="0.983524"><ele>2078.99</ele><time>2011-09-16T08:07:42Z</time></trkpt><trkpt lat="42.663320" lon="0.983742"><ele>2078.03</ele><time>2011-09-16T08:07:44Z</time></trkpt><trkpt lat="42.663266" lon="0.983858"><ele>2077.55</ele><time>2011-09-16T08:07:45Z</time></trkpt><trkpt lat="42.662760" lon="0.985065"><ele>2074.66</ele><time>2011-09-16T08:07:53Z</time></trkpt><trkpt lat="42.662212" lon="0.987019"><ele>2069.86</ele><time>2011-09-16T08:08:03Z</time></trkpt><trkpt lat="42.661781" lon="0.988722"><ele>2065.53</ele><time>2011-09-16T08:08:11Z</time></trkpt><trkpt lat="42.661329" lon="0.991228"><ele>2057.36</ele><time>2011-09-16T08:08:22Z</time></trkpt><trkpt lat="42.661237" lon="0.991417"><ele>2056.88</ele><time>2011-09-16T08:08:23Z</time></trkpt><trkpt lat="42.661124" lon="0.991591"><ele>2055.92</ele><time>2011-09-16T08:08:24Z</time></trkpt><trkpt lat="42.660994" lon="0.991747"><ele>2055.44</ele><time>2011-09-16T08:08:25Z</time></trkpt><trkpt lat="42.660853" lon="0.991880"><ele>2054.47</ele><time>2011-09-16T08:08:26Z</time></trkpt><trkpt lat="42.660710" lon="0.992000"><ele>2053.99</ele><time>2011-09-16T08:08:27Z</time></trkpt><trkpt lat="42.660451" lon="0.992250"><ele>2053.03</ele><time>2011-09-16T08:08:29Z</time></trkpt><trkpt lat="42.660347" lon="0.992397"><ele>2052.55</ele><time>2011-09-16T08:08:30Z</time></trkpt><trkpt lat="42.660259" lon="0.992561"><ele>2052.07</ele><time>2011-09-16T08:08:31Z</time></trkpt><trkpt lat="42.660185" lon="0.992736"><ele>2052.07</ele><time>2011-09-16T08:08:32Z</time></trkpt><trkpt lat="42.660123" lon="0.992925"><ele>2051.59</ele><time>2011-09-16T08:08:33Z</time></trkpt><trkpt lat="42.660071" lon="0.993127"><ele>2050.63</ele><time>2011-09-16T08:08:34Z</time></trkpt><trkpt lat="42.660027" lon="0.993333"><ele>2050.15</ele><time>2011-09-16T08:08:35Z</time></trkpt><trkpt lat="42.659982" lon="0.993738"><ele>2049.19</ele><time>2011-09-16T08:08:37Z</time></trkpt><trkpt lat="42.659994" lon="0.993925"><ele>2048.71</ele><time>2011-09-16T08:08:38Z</time></trkpt><trkpt lat="42.660052" lon="0.994087"><ele>2047.26</ele><time>2011-09-16T08:08:39Z</time></trkpt><trkpt lat="42.660133" lon="0.994228"><ele>2046.78</ele><time>2011-09-16T08:08:40Z</time></trkpt><trkpt lat="42.660227" lon="0.994359"><ele>2045.34</ele><time>2011-09-16T08:08:41Z</time></trkpt><trkpt lat="42.660401" lon="0.994650"><ele>2042.94</ele><time>2011-09-16T08:08:43Z</time></trkpt><trkpt lat="42.660467" lon="0.994819"><ele>2041.50</ele><time>2011-09-16T08:08:44Z</time></trkpt><trkpt lat="42.660507" lon="0.995011"><ele>2040.05</ele><time>2011-09-16T08:08:45Z</time></trkpt><trkpt lat="42.660511" lon="0.995229"><ele>2039.09</ele><time>2011-09-16T08:08:46Z</time></trkpt><trkpt lat="42.660492" lon="0.995472"><ele>2037.65</ele><time>2011-09-16T08:08:47Z</time></trkpt><trkpt lat="42.660472" lon="0.995729"><ele>2036.21</ele><time>2011-09-16T08:08:48Z</time></trkpt><trkpt lat="42.660092" lon="0.997679"><ele>2025.15</ele><time>2011-09-16T08:08:56Z</time></trkpt><trkpt lat="42.659877" lon="0.998697"><ele>2018.43</ele><time>2011-09-16T08:09:01Z</time></trkpt><trkpt lat="42.659807" lon="0.998837"><ele>2016.98</ele><time>2011-09-16T08:09:02Z</time></trkpt><trkpt lat="42.659716" lon="0.998946"><ele>2016.02</ele><time>2011-09-16T08:09:03Z</time></trkpt><trkpt lat="42.659612" lon="0.999024"><ele>2014.58</ele><time>2011-09-16T08:09:04Z</time></trkpt><trkpt lat="42.659478" lon="0.999010"><ele>2012.66</ele><time>2011-09-16T08:09:05Z</time></trkpt><trkpt lat="42.659337" lon="0.998938"><ele>2010.73</ele><time>2011-09-16T08:09:06Z</time></trkpt><trkpt lat="42.659206" lon="0.998853"><ele>2010.25</ele><time>2011-09-16T08:09:07Z</time></trkpt><trkpt lat="42.659076" lon="0.998762"><ele>2008.81</ele><time>2011-09-16T08:09:08Z</time></trkpt><trkpt lat="42.658812" lon="0.998594"><ele>2006.89</ele><time>2011-09-16T08:09:10Z</time></trkpt><trkpt lat="42.658692" lon="0.998556"><ele>2005.45</ele><time>2011-09-16T08:09:11Z</time></trkpt><trkpt lat="42.658570" lon="0.998577"><ele>2004.01</ele><time>2011-09-16T08:09:12Z</time></trkpt><trkpt lat="42.658450" lon="0.998628"><ele>2002.56</ele><time>2011-09-16T08:09:13Z</time></trkpt><trkpt lat="42.658339" lon="0.998716"><ele>2001.12</ele><time>2011-09-16T08:09:14Z</time></trkpt><trkpt lat="42.658242" lon="0.998848"><ele>2000.16</ele><time>2011-09-16T08:09:15Z</time></trkpt><trkpt lat="42.658148" lon="0.998994"><ele>1998.72</ele><time>2011-09-16T08:09:16Z</time></trkpt><trkpt lat="42.658053" lon="0.999140"><ele>1997.28</ele><time>2011-09-16T08:09:17Z</time></trkpt><trkpt lat="42.657712" lon="0.999630"><ele>1991.99</ele><time>2011-09-16T08:09:21Z</time></trkpt><trkpt lat="42.657642" lon="0.999700"><ele>1991.03</ele><time>2011-09-16T08:09:22Z</time></trkpt><trkpt lat="42.657575" lon="0.999694"><ele>1989.59</ele><time>2011-09-16T08:09:23Z</time></trkpt><trkpt lat="42.657520" lon="0.999612"><ele>1988.62</ele><time>2011-09-16T08:09:24Z</time></trkpt><trkpt lat="42.657497" lon="0.999497"><ele>1987.66</ele><time>2011-09-16T08:09:25Z</time></trkpt><trkpt lat="42.657503" lon="0.999350"><ele>1986.22</ele><time>2011-09-16T08:09:26Z</time></trkpt><trkpt lat="42.657540" lon="0.999244"><ele>1984.78</ele><time>2011-09-16T08:09:27Z</time></trkpt><trkpt lat="42.657604" lon="0.999090"><ele>1984.78</ele><time>2011-09-16T08:09:28Z</time></trkpt><trkpt lat="42.657655" lon="0.998934"><ele>1984.30</ele><time>2011-09-16T08:09:29Z</time></trkpt><trkpt lat="42.657698" lon="0.998773"><ele>1983.82</ele><time>2011-09-16T08:09:30Z</time></trkpt><trkpt lat="42.657733" lon="0.998611"><ele>1982.86</ele><time>2011-09-16T08:09:31Z</time></trkpt><trkpt lat="42.657759" lon="0.998451"><ele>1981.90</ele><time>2011-09-16T08:09:32Z</time></trkpt><trkpt lat="42.657780" lon="0.998149"><ele>1980.45</ele><time>2011-09-16T08:09:34Z</time></trkpt><trkpt lat="42.657755" lon="0.998016"><ele>1979.97</ele><time>2011-09-16T08:09:35Z</time></trkpt><trkpt lat="42.657689" lon="0.997919"><ele>1979.01</ele><time>2011-09-16T08:09:36Z</time></trkpt><trkpt lat="42.657607" lon="0.997860"><ele>1978.53</ele><time>2011-09-16T08:09:37Z</time></trkpt><trkpt lat="42.657499" lon="0.997848"><ele>1977.57</ele><time>2011-09-16T08:09:38Z</time></trkpt><trkpt lat="42.657398" lon="0.997871"><ele>1977.09</ele><time>2011-09-16T08:09:39Z</time></trkpt><trkpt lat="42.657305" lon="0.997931"><ele>1976.13</ele><time>2011-09-16T08:09:40Z</time></trkpt><trkpt lat="42.657235" lon="0.998024"><ele>1975.65</ele><time>2011-09-16T08:09:41Z</time></trkpt><trkpt lat="42.657201" lon="0.998147"><ele>1975.17</ele><time>2011-09-16T08:09:42Z</time></trkpt><trkpt lat="42.657207" lon="0.998297"><ele>1974.69</ele><time>2011-09-16T08:09:43Z</time></trkpt><trkpt lat="42.657242" lon="0.998460"><ele>1974.20</ele><time>2011-09-16T08:09:44Z</time></trkpt><trkpt lat="42.657272" lon="0.998617"><ele>1973.72</ele><time>2011-09-16T08:09:45Z</time></trkpt><trkpt lat="42.657287" lon="0.998776"><ele>1973.24</ele><time>2011-09-16T08:09:46Z</time></trkpt><trkpt lat="42.657267" lon="0.998936"><ele>1972.28</ele><time>2011-09-16T08:09:47Z</time></trkpt><trkpt lat="42.657215" lon="0.999086"><ele>1971.80</ele><time>2011-09-16T08:09:48Z</time></trkpt><trkpt lat="42.657131" lon="0.999216"><ele>1970.84</ele><time>2011-09-16T08:09:49Z</time></trkpt><trkpt lat="42.657023" lon="0.999314"><ele>1969.88</ele><time>2011-09-16T08:09:50Z</time></trkpt><trkpt lat="42.656895" lon="0.999375"><ele>1968.92</ele><time>2011-09-16T08:09:51Z</time></trkpt><trkpt lat="42.656766" lon="0.999454"><ele>1967.96</ele><time>2011-09-16T08:09:52Z</time></trkpt><trkpt lat="42.656628" lon="0.999542"><ele>1966.99</ele><time>2011-09-16T08:09:53Z</time></trkpt><trkpt lat="42.656496" lon="0.999664"><ele>1965.55</ele><time>2011-09-16T08:09:54Z</time></trkpt><trkpt lat="42.656369" lon="0.999809"><ele>1964.59</ele><time>2011-09-16T08:09:55Z</time></trkpt><trkpt lat="42.654847" lon="1.001307"><ele>1948.73</ele><time>2011-09-16T08:10:07Z</time></trkpt><trkpt lat="42.654550" lon="1.001633"><ele>1945.85</ele><time>2011-09-16T08:10:10Z</time></trkpt><trkpt lat="42.654485" lon="1.001750"><ele>1945.36</ele><time>2011-09-16T08:10:11Z</time></trkpt><trkpt lat="42.654439" lon="1.001864"><ele>1944.40</ele><time>2011-09-16T08:10:12Z</time></trkpt><trkpt lat="42.654409" lon="1.001969"><ele>1943.92</ele><time>2011-09-16T08:10:13Z</time></trkpt><trkpt lat="42.654388" lon="1.002065"><ele>1943.44</ele><time>2011-09-16T08:10:14Z</time></trkpt><trkpt lat="42.654343" lon="1.002224"><ele>1942.48</ele><time>2011-09-16T08:10:16Z</time></trkpt><trkpt lat="42.654312" lon="1.002270"><ele>1942.00</ele><time>2011-09-16T08:10:17Z</time></trkpt><trkpt lat="42.654275" lon="1.002283"><ele>1941.52</ele><time>2011-09-16T08:10:18Z</time></trkpt><trkpt lat="42.654244" lon="1.002270"><ele>1941.52</ele><time>2011-09-16T08:10:19Z</time></trkpt><trkpt lat="42.654223" lon="1.002245"><ele>1941.52</ele><time>2011-09-16T08:10:20Z</time></trkpt><trkpt lat="42.654213" lon="1.002220"><ele>1942.00</ele><time>2011-09-16T08:10:21Z</time></trkpt><trkpt lat="42.654216" lon="1.002132"><ele>1942.96</ele><time>2011-09-16T08:10:31Z</time></trkpt><trkpt lat="42.654227" lon="1.002075"><ele>1942.96</ele><time>2011-09-16T08:10:32Z</time></trkpt><trkpt lat="42.654247" lon="1.002009"><ele>1942.96</ele><time>2011-09-16T08:10:33Z</time></trkpt><trkpt lat="42.654389" lon="1.001554"><ele>1941.52</ele><time>2011-09-16T08:10:40Z</time></trkpt><trkpt lat="42.654390" lon="1.001474"><ele>1941.04</ele><time>2011-09-16T08:10:41Z</time></trkpt><trkpt lat="42.654381" lon="1.001388"><ele>1940.56</ele><time>2011-09-16T08:10:42Z</time></trkpt><trkpt lat="42.654358" lon="1.001302"><ele>1940.56</ele><time>2011-09-16T08:10:43Z</time></trkpt><trkpt lat="42.654319" lon="1.001231"><ele>1940.08</ele><time>2011-09-16T08:10:44Z</time></trkpt><trkpt lat="42.654265" lon="1.001181"><ele>1940.08</ele><time>2011-09-16T08:10:45Z</time></trkpt><trkpt lat="42.654194" lon="1.001159"><ele>1939.60</ele><time>2011-09-16T08:10:46Z</time></trkpt><trkpt lat="42.654113" lon="1.001150"><ele>1938.64</ele><time>2011-09-16T08:10:47Z</time></trkpt><trkpt lat="42.654028" lon="1.001151"><ele>1938.16</ele><time>2011-09-16T08:10:48Z</time></trkpt><trkpt lat="42.653852" lon="1.001136"><ele>1937.19</ele><time>2011-09-16T08:10:50Z</time></trkpt><trkpt lat="42.653766" lon="1.001068"><ele>1936.23</ele><time>2011-09-16T08:10:51Z</time></trkpt><trkpt lat="42.653715" lon="1.000959"><ele>1935.75</ele><time>2011-09-16T08:10:52Z</time></trkpt><trkpt lat="42.653718" lon="1.000857"><ele>1935.27</ele><time>2011-09-16T08:10:53Z</time></trkpt><trkpt lat="42.653761" lon="1.000783"><ele>1934.79</ele><time>2011-09-16T08:10:54Z</time></trkpt><trkpt lat="42.653834" lon="1.000732"><ele>1934.31</ele><time>2011-09-16T08:10:55Z</time></trkpt><trkpt lat="42.653922" lon="1.000693"><ele>1933.83</ele><time>2011-09-16T08:10:56Z</time></trkpt><trkpt lat="42.654009" lon="1.000651"><ele>1932.87</ele><time>2011-09-16T08:10:57Z</time></trkpt><trkpt lat="42.654084" lon="1.000587"><ele>1932.39</ele><time>2011-09-16T08:10:58Z</time></trkpt><trkpt lat="42.654131" lon="1.000500"><ele>1931.91</ele><time>2011-09-16T08:10:59Z</time></trkpt><trkpt lat="42.654144" lon="1.000399"><ele>1931.43</ele><time>2011-09-16T08:11:00Z</time></trkpt><trkpt lat="42.654123" lon="1.000301"><ele>1930.95</ele><time>2011-09-16T08:11:01Z</time></trkpt><trkpt lat="42.654075" lon="1.000214"><ele>1930.46</ele><time>2011-09-16T08:11:02Z</time></trkpt><trkpt lat="42.654006" lon="1.000138"><ele>1929.50</ele><time>2011-09-16T08:11:03Z</time></trkpt><trkpt lat="42.653922" lon="1.000080"><ele>1928.54</ele><time>2011-09-16T08:11:04Z</time></trkpt><trkpt lat="42.653840" lon="1.000023"><ele>1927.10</ele><time>2011-09-16T08:11:05Z</time></trkpt><trkpt lat="42.653358" lon="0.999685"><ele>1925.18</ele><time>2011-09-16T08:11:10Z</time></trkpt><trkpt lat="42.653250" lon="0.999649"><ele>1924.22</ele><time>2011-09-16T08:11:11Z</time></trkpt><trkpt lat="42.653137" lon="0.999636"><ele>1923.25</ele><time>2011-09-16T08:11:12Z</time></trkpt><trkpt lat="42.653023" lon="0.999656"><ele>1922.29</ele><time>2011-09-16T08:11:13Z</time></trkpt><trkpt lat="42.652908" lon="0.999704"><ele>1920.85</ele><time>2011-09-16T08:11:14Z</time></trkpt><trkpt lat="42.652791" lon="0.999777"><ele>1919.89</ele><time>2011-09-16T08:11:15Z</time></trkpt><trkpt lat="42.652670" lon="0.999867"><ele>1918.93</ele><time>2011-09-16T08:11:16Z</time></trkpt><trkpt lat="42.652207" lon="1.000286"><ele>1913.16</ele><time>2011-09-16T08:11:20Z</time></trkpt><trkpt lat="42.652111" lon="1.000405"><ele>1912.20</ele><time>2011-09-16T08:11:21Z</time></trkpt><trkpt lat="42.652043" lon="1.000552"><ele>1910.76</ele><time>2011-09-16T08:11:22Z</time></trkpt><trkpt lat="42.652003" lon="1.000720"><ele>1909.80</ele><time>2011-09-16T08:11:23Z</time></trkpt><trkpt lat="42.651977" lon="1.000881"><ele>1908.83</ele><time>2011-09-16T08:11:24Z</time></trkpt><trkpt lat="42.651949" lon="1.001028"><ele>1907.87</ele><time>2011-09-16T08:11:25Z</time></trkpt><trkpt lat="42.651910" lon="1.001155"><ele>1906.43</ele><time>2011-09-16T08:11:26Z</time></trkpt><trkpt lat="42.651856" lon="1.001218"><ele>1905.47</ele><time>2011-09-16T08:11:27Z</time></trkpt><trkpt lat="42.651780" lon="1.001158"><ele>1904.99</ele><time>2011-09-16T08:11:28Z</time></trkpt><trkpt lat="42.651731" lon="1.001079"><ele>1904.03</ele><time>2011-09-16T08:11:29Z</time></trkpt><trkpt lat="42.651711" lon="1.000971"><ele>1903.07</ele><time>2011-09-16T08:11:30Z</time></trkpt><trkpt lat="42.651705" lon="1.000867"><ele>1902.59</ele><time>2011-09-16T08:11:31Z</time></trkpt><trkpt lat="42.651729" lon="1.000710"><ele>1902.59</ele><time>2011-09-16T08:11:32Z</time></trkpt><trkpt lat="42.651754" lon="1.000559"><ele>1902.11</ele><time>2011-09-16T08:11:33Z</time></trkpt><trkpt lat="42.651790" lon="1.000410"><ele>1901.14</ele><time>2011-09-16T08:11:34Z</time></trkpt><trkpt lat="42.651826" lon="1.000250"><ele>1900.18</ele><time>2011-09-16T08:11:35Z</time></trkpt><trkpt lat="42.651868" lon="1.000117"><ele>1899.70</ele><time>2011-09-16T08:11:36Z</time></trkpt><trkpt lat="42.651893" lon="0.999996"><ele>1899.22</ele><time>2011-09-16T08:11:37Z</time></trkpt><trkpt lat="42.651882" lon="0.999885"><ele>1898.74</ele><time>2011-09-16T08:11:38Z</time></trkpt><trkpt lat="42.651829" lon="0.999789"><ele>1898.26</ele><time>2011-09-16T08:11:39Z</time></trkpt><trkpt lat="42.651755" lon="0.999744"><ele>1897.78</ele><time>2011-09-16T08:11:40Z</time></trkpt><trkpt lat="42.651684" lon="0.999779"><ele>1897.30</ele><time>2011-09-16T08:11:41Z</time></trkpt><trkpt lat="42.651610" lon="0.999855"><ele>1896.82</ele><time>2011-09-16T08:11:42Z</time></trkpt><trkpt lat="42.651535" lon="0.999964"><ele>1896.34</ele><time>2011-09-16T08:11:43Z</time></trkpt><trkpt lat="42.651454" lon="1.000105"><ele>1895.86</ele><time>2011-09-16T08:11:44Z</time></trkpt><trkpt lat="42.651376" lon="1.000263"><ele>1894.90</ele><time>2011-09-16T08:11:45Z</time></trkpt><trkpt lat="42.651308" lon="1.000428"><ele>1893.93</ele><time>2011-09-16T08:11:46Z</time></trkpt><trkpt lat="42.651246" lon="1.000604"><ele>1892.49</ele><time>2011-09-16T08:11:47Z</time></trkpt><trkpt lat="42.651183" lon="1.000790"><ele>1891.53</ele><time>2011-09-16T08:11:48Z</time></trkpt><trkpt lat="42.650847" lon="1.001857"><ele>1885.76</ele><time>2011-09-16T08:11:54Z</time></trkpt><trkpt lat="42.650868" lon="1.001990"><ele>1885.28</ele><time>2011-09-16T08:11:55Z</time></trkpt><trkpt lat="42.651015" lon="1.002231"><ele>1882.88</ele><time>2011-09-16T08:11:57Z</time></trkpt><trkpt lat="42.651121" lon="1.002268"><ele>1881.44</ele><time>2011-09-16T08:11:58Z</time></trkpt><trkpt lat="42.651259" lon="1.002282"><ele>1880.48</ele><time>2011-09-16T08:11:59Z</time></trkpt><trkpt lat="42.651375" lon="1.002236"><ele>1879.03</ele><time>2011-09-16T08:12:00Z</time></trkpt><trkpt lat="42.651511" lon="1.002171"><ele>1878.07</ele><time>2011-09-16T08:12:01Z</time></trkpt><trkpt lat="42.651644" lon="1.002109"><ele>1878.07</ele><time>2011-09-16T08:12:02Z</time></trkpt><trkpt lat="42.652338" lon="1.001841"><ele>1875.19</ele><time>2011-09-16T08:12:08Z</time></trkpt><trkpt lat="42.652444" lon="1.002063"><ele>1873.27</ele><time>2011-09-16T08:12:12Z</time></trkpt><trkpt lat="42.652397" lon="1.002112"><ele>1872.30</ele><time>2011-09-16T08:12:13Z</time></trkpt><trkpt lat="42.652329" lon="1.002138"><ele>1871.82</ele><time>2011-09-16T08:12:14Z</time></trkpt><trkpt lat="42.652236" lon="1.002122"><ele>1870.86</ele><time>2011-09-16T08:12:15Z</time></trkpt><trkpt lat="42.652130" lon="1.002121"><ele>1869.90</ele><time>2011-09-16T08:12:16Z</time></trkpt><trkpt lat="42.652012" lon="1.002140"><ele>1868.94</ele><time>2011-09-16T08:12:17Z</time></trkpt><trkpt lat="42.651885" lon="1.002183"><ele>1867.98</ele><time>2011-09-16T08:12:18Z</time></trkpt><trkpt lat="42.651758" lon="1.002238"><ele>1867.50</ele><time>2011-09-16T08:12:19Z</time></trkpt><trkpt lat="42.650605" lon="1.003060"><ele>1859.81</ele><time>2011-09-16T08:12:28Z</time></trkpt><trkpt lat="42.650085" lon="1.003461"><ele>1853.56</ele><time>2011-09-16T08:12:33Z</time></trkpt><trkpt lat="42.649967" lon="1.003398"><ele>1854.04</ele><time>2011-09-16T08:12:34Z</time></trkpt><trkpt lat="42.649937" lon="1.003149"><ele>1851.64</ele><time>2011-09-16T08:12:36Z</time></trkpt><trkpt lat="42.649963" lon="1.003027"><ele>1851.16</ele><time>2011-09-16T08:12:37Z</time></trkpt><trkpt lat="42.650005" lon="1.002877"><ele>1850.68</ele><time>2011-09-16T08:12:38Z</time></trkpt><trkpt lat="42.650054" lon="1.002719"><ele>1851.16</ele><time>2011-09-16T08:12:39Z</time></trkpt><trkpt lat="42.650153" lon="1.002252"><ele>1850.68</ele><time>2011-09-16T08:12:42Z</time></trkpt><trkpt lat="42.650140" lon="1.002119"><ele>1850.19</ele><time>2011-09-16T08:12:43Z</time></trkpt><trkpt lat="42.650094" lon="1.002000"><ele>1850.19</ele><time>2011-09-16T08:12:44Z</time></trkpt><trkpt lat="42.649970" lon="1.001886"><ele>1850.19</ele><time>2011-09-16T08:12:45Z</time></trkpt><trkpt lat="42.649860" lon="1.001779"><ele>1850.19</ele><time>2011-09-16T08:12:46Z</time></trkpt><trkpt lat="42.649746" lon="1.001677"><ele>1849.71</ele><time>2011-09-16T08:12:47Z</time></trkpt><trkpt lat="42.649626" lon="1.001578"><ele>1848.75</ele><time>2011-09-16T08:12:48Z</time></trkpt><trkpt lat="42.649150" lon="1.001219"><ele>1847.79</ele><time>2011-09-16T08:12:52Z</time></trkpt><trkpt lat="42.649033" lon="1.001194"><ele>1846.83</ele><time>2011-09-16T08:12:53Z</time></trkpt><trkpt lat="42.648922" lon="1.001214"><ele>1846.35</ele><time>2011-09-16T08:12:54Z</time></trkpt><trkpt lat="42.648817" lon="1.001269"><ele>1845.87</ele><time>2011-09-16T08:12:55Z</time></trkpt><trkpt lat="42.648715" lon="1.001362"><ele>1845.87</ele><time>2011-09-16T08:12:56Z</time></trkpt><trkpt lat="42.648623" lon="1.001509"><ele>1845.87</ele><time>2011-09-16T08:12:57Z</time></trkpt><trkpt lat="42.648536" lon="1.001689"><ele>1844.91</ele><time>2011-09-16T08:12:58Z</time></trkpt><trkpt lat="42.648437" lon="1.001858"><ele>1843.95</ele><time>2011-09-16T08:12:59Z</time></trkpt><trkpt lat="42.648331" lon="1.002019"><ele>1842.50</ele><time>2011-09-16T08:13:00Z</time></trkpt><trkpt lat="42.647894" lon="1.002697"><ele>1837.70</ele><time>2011-09-16T08:13:05Z</time></trkpt><trkpt lat="42.647890" lon="1.002828"><ele>1836.74</ele><time>2011-09-16T08:13:06Z</time></trkpt><trkpt lat="42.647923" lon="1.002954"><ele>1835.77</ele><time>2011-09-16T08:13:07Z</time></trkpt><trkpt lat="42.647970" lon="1.003068"><ele>1834.81</ele><time>2011-09-16T08:13:08Z</time></trkpt><trkpt lat="42.648063" lon="1.003160"><ele>1832.89</ele><time>2011-09-16T08:13:09Z</time></trkpt><trkpt lat="42.648168" lon="1.003225"><ele>1831.93</ele><time>2011-09-16T08:13:10Z</time></trkpt><trkpt lat="42.648311" lon="1.003231"><ele>1830.97</ele><time>2011-09-16T08:13:11Z</time></trkpt><trkpt lat="42.648436" lon="1.003246"><ele>1829.53</ele><time>2011-09-16T08:13:12Z</time></trkpt><trkpt lat="42.648545" lon="1.003282"><ele>1828.08</ele><time>2011-09-16T08:13:13Z</time></trkpt><trkpt lat="42.648625" lon="1.003353"><ele>1827.12</ele><time>2011-09-16T08:13:14Z</time></trkpt><trkpt lat="42.648659" lon="1.003454"><ele>1826.16</ele><time>2011-09-16T08:13:15Z</time></trkpt><trkpt lat="42.648651" lon="1.003566"><ele>1825.20</ele><time>2011-09-16T08:13:16Z</time></trkpt><trkpt lat="42.648626" lon="1.003665"><ele>1824.72</ele><time>2011-09-16T08:13:17Z</time></trkpt><trkpt lat="42.648559" lon="1.003746"><ele>1824.24</ele><time>2011-09-16T08:13:18Z</time></trkpt><trkpt lat="42.648475" lon="1.003795"><ele>1823.28</ele><time>2011-09-16T08:13:19Z</time></trkpt><trkpt lat="42.648362" lon="1.003728"><ele>1822.32</ele><time>2011-09-16T08:13:20Z</time></trkpt><trkpt lat="42.648282" lon="1.003649"><ele>1821.35</ele><time>2011-09-16T08:13:21Z</time></trkpt><trkpt lat="42.648211" lon="1.003573"><ele>1821.35</ele><time>2011-09-16T08:13:22Z</time></trkpt><trkpt lat="42.648139" lon="1.003511"><ele>1820.87</ele><time>2011-09-16T08:13:23Z</time></trkpt><trkpt lat="42.648059" lon="1.003478"><ele>1819.91</ele><time>2011-09-16T08:13:24Z</time></trkpt><trkpt lat="42.647984" lon="1.003492"><ele>1819.43</ele><time>2011-09-16T08:13:25Z</time></trkpt><trkpt lat="42.647922" lon="1.003654"><ele>1817.99</ele><time>2011-09-16T08:13:27Z</time></trkpt><trkpt lat="42.647964" lon="1.003776"><ele>1817.51</ele><time>2011-09-16T08:13:28Z</time></trkpt><trkpt lat="42.648025" lon="1.003895"><ele>1817.03</ele><time>2011-09-16T08:13:29Z</time></trkpt><trkpt lat="42.648115" lon="1.004021"><ele>1816.07</ele><time>2011-09-16T08:13:30Z</time></trkpt><trkpt lat="42.648218" lon="1.004134"><ele>1815.59</ele><time>2011-09-16T08:13:31Z</time></trkpt><trkpt lat="42.648336" lon="1.004229"><ele>1814.63</ele><time>2011-09-16T08:13:32Z</time></trkpt><trkpt lat="42.648456" lon="1.004288"><ele>1813.66</ele><time>2011-09-16T08:13:33Z</time></trkpt><trkpt lat="42.648564" lon="1.004344"><ele>1813.18</ele><time>2011-09-16T08:13:34Z</time></trkpt><trkpt lat="42.648654" lon="1.004421"><ele>1811.74</ele><time>2011-09-16T08:13:35Z</time></trkpt><trkpt lat="42.648705" lon="1.004526"><ele>1811.26</ele><time>2011-09-16T08:13:36Z</time></trkpt><trkpt lat="42.648716" lon="1.004647"><ele>1810.30</ele><time>2011-09-16T08:13:37Z</time></trkpt><trkpt lat="42.648713" lon="1.004762"><ele>1809.82</ele><time>2011-09-16T08:13:38Z</time></trkpt><trkpt lat="42.648640" lon="1.004879"><ele>1808.86</ele><time>2011-09-16T08:13:39Z</time></trkpt><trkpt lat="42.648567" lon="1.004968"><ele>1808.38</ele><time>2011-09-16T08:13:40Z</time></trkpt><trkpt lat="42.648491" lon="1.005040"><ele>1807.90</ele><time>2011-09-16T08:13:41Z</time></trkpt><trkpt lat="42.648372" lon="1.004971"><ele>1806.94</ele><time>2011-09-16T08:13:42Z</time></trkpt><trkpt lat="42.648279" lon="1.004896"><ele>1805.97</ele><time>2011-09-16T08:13:43Z</time></trkpt><trkpt lat="42.648191" lon="1.004790"><ele>1805.01</ele><time>2011-09-16T08:13:44Z</time></trkpt><trkpt lat="42.648099" lon="1.004686"><ele>1804.53</ele><time>2011-09-16T08:13:45Z</time></trkpt><trkpt lat="42.648000" lon="1.004592"><ele>1803.57</ele><time>2011-09-16T08:13:46Z</time></trkpt><trkpt lat="42.647891" lon="1.004540"><ele>1803.09</ele><time>2011-09-16T08:13:47Z</time></trkpt><trkpt lat="42.647797" lon="1.004554"><ele>1802.13</ele><time>2011-09-16T08:13:48Z</time></trkpt><trkpt lat="42.647720" lon="1.004608"><ele>1801.65</ele><time>2011-09-16T08:13:49Z</time></trkpt><trkpt lat="42.647666" lon="1.004694"><ele>1800.21</ele><time>2011-09-16T08:13:50Z</time></trkpt><trkpt lat="42.647670" lon="1.004847"><ele>1799.73</ele><time>2011-09-16T08:13:51Z</time></trkpt><trkpt lat="42.647718" lon="1.005021"><ele>1798.76</ele><time>2011-09-16T08:13:52Z</time></trkpt><trkpt lat="42.647779" lon="1.005187"><ele>1798.28</ele><time>2011-09-16T08:13:53Z</time></trkpt><trkpt lat="42.647856" lon="1.005365"><ele>1797.32</ele><time>2011-09-16T08:13:54Z</time></trkpt><trkpt lat="42.647934" lon="1.005531"><ele>1795.88</ele><time>2011-09-16T08:13:55Z</time></trkpt><trkpt lat="42.648244" lon="1.006092"><ele>1791.07</ele><time>2011-09-16T08:13:59Z</time></trkpt><trkpt lat="42.648343" lon="1.006178"><ele>1790.59</ele><time>2011-09-16T08:14:00Z</time></trkpt><trkpt lat="42.648454" lon="1.006227"><ele>1789.63</ele><time>2011-09-16T08:14:01Z</time></trkpt><trkpt lat="42.648668" lon="1.006306"><ele>1788.19</ele><time>2011-09-16T08:14:03Z</time></trkpt><trkpt lat="42.648760" lon="1.006387"><ele>1787.23</ele><time>2011-09-16T08:14:04Z</time></trkpt><trkpt lat="42.648828" lon="1.006510"><ele>1785.79</ele><time>2011-09-16T08:14:05Z</time></trkpt><trkpt lat="42.648866" lon="1.006655"><ele>1785.31</ele><time>2011-09-16T08:14:06Z</time></trkpt><trkpt lat="42.648886" lon="1.006806"><ele>1784.34</ele><time>2011-09-16T08:14:07Z</time></trkpt><trkpt lat="42.648879" lon="1.006962"><ele>1783.86</ele><time>2011-09-16T08:14:08Z</time></trkpt><trkpt lat="42.648840" lon="1.007115"><ele>1783.38</ele><time>2011-09-16T08:14:09Z</time></trkpt><trkpt lat="42.648790" lon="1.007256"><ele>1782.42</ele><time>2011-09-16T08:14:10Z</time></trkpt><trkpt lat="42.648733" lon="1.007391"><ele>1780.98</ele><time>2011-09-16T08:14:11Z</time></trkpt><trkpt lat="42.648670" lon="1.007518"><ele>1780.02</ele><time>2011-09-16T08:14:12Z</time></trkpt><trkpt lat="42.648606" lon="1.007634"><ele>1779.06</ele><time>2011-09-16T08:14:13Z</time></trkpt><trkpt lat="42.648545" lon="1.007728"><ele>1778.10</ele><time>2011-09-16T08:14:14Z</time></trkpt><trkpt lat="42.648483" lon="1.007792"><ele>1777.13</ele><time>2011-09-16T08:14:15Z</time></trkpt><trkpt lat="42.648419" lon="1.007818"><ele>1776.17</ele><time>2011-09-16T08:14:16Z</time></trkpt><trkpt lat="42.648340" lon="1.007758"><ele>1775.69</ele><time>2011-09-16T08:14:17Z</time></trkpt><trkpt lat="42.648271" lon="1.007689"><ele>1775.69</ele><time>2011-09-16T08:14:18Z</time></trkpt><trkpt lat="42.648209" lon="1.007606"><ele>1775.21</ele><time>2011-09-16T08:14:19Z</time></trkpt><trkpt lat="42.648133" lon="1.007511"><ele>1774.73</ele><time>2011-09-16T08:14:20Z</time></trkpt><trkpt lat="42.647385" lon="1.006808"><ele>1769.44</ele><time>2011-09-16T08:14:27Z</time></trkpt><trkpt lat="42.647160" lon="1.006597"><ele>1768.96</ele><time>2011-09-16T08:14:29Z</time></trkpt><trkpt lat="42.647048" lon="1.006517"><ele>1768.00</ele><time>2011-09-16T08:14:30Z</time></trkpt><trkpt lat="42.646931" lon="1.006464"><ele>1767.04</ele><time>2011-09-16T08:14:31Z</time></trkpt><trkpt lat="42.646696" lon="1.006376"><ele>1765.12</ele><time>2011-09-16T08:14:33Z</time></trkpt><trkpt lat="42.646594" lon="1.006313"><ele>1764.16</ele><time>2011-09-16T08:14:34Z</time></trkpt><trkpt lat="42.646501" lon="1.006266"><ele>1763.20</ele><time>2011-09-16T08:14:35Z</time></trkpt><trkpt lat="42.646416" lon="1.006256"><ele>1761.75</ele><time>2011-09-16T08:14:36Z</time></trkpt><trkpt lat="42.646341" lon="1.006278"><ele>1761.27</ele><time>2011-09-16T08:14:37Z</time></trkpt><trkpt lat="42.646290" lon="1.006337"><ele>1760.31</ele><time>2011-09-16T08:14:38Z</time></trkpt><trkpt lat="42.646295" lon="1.006461"><ele>1759.35</ele><time>2011-09-16T08:14:39Z</time></trkpt><trkpt lat="42.646343" lon="1.006585"><ele>1758.87</ele><time>2011-09-16T08:14:40Z</time></trkpt><trkpt lat="42.646420" lon="1.006708"><ele>1757.43</ele><time>2011-09-16T08:14:41Z</time></trkpt><trkpt lat="42.646527" lon="1.006757"><ele>1756.95</ele><time>2011-09-16T08:14:42Z</time></trkpt><trkpt lat="42.646629" lon="1.006791"><ele>1755.99</ele><time>2011-09-16T08:14:43Z</time></trkpt><trkpt lat="42.646751" lon="1.006835"><ele>1754.54</ele><time>2011-09-16T08:14:44Z</time></trkpt><trkpt lat="42.646865" lon="1.006920"><ele>1753.58</ele><time>2011-09-16T08:14:45Z</time></trkpt><trkpt lat="42.646970" lon="1.007040"><ele>1752.62</ele><time>2011-09-16T08:14:46Z</time></trkpt><trkpt lat="42.647060" lon="1.007180"><ele>1751.66</ele><time>2011-09-16T08:14:47Z</time></trkpt><trkpt lat="42.647133" lon="1.007329"><ele>1751.18</ele><time>2011-09-16T08:14:48Z</time></trkpt><trkpt lat="42.647203" lon="1.007476"><ele>1749.74</ele><time>2011-09-16T08:14:49Z</time></trkpt><trkpt lat="42.647555" lon="1.008130"><ele>1744.45</ele><time>2011-09-16T08:14:54Z</time></trkpt><trkpt lat="42.647597" lon="1.008267"><ele>1743.49</ele><time>2011-09-16T08:14:55Z</time></trkpt><trkpt lat="42.647613" lon="1.008409"><ele>1743.01</ele><time>2011-09-16T08:14:56Z</time></trkpt><trkpt lat="42.647596" lon="1.008558"><ele>1742.05</ele><time>2011-09-16T08:14:57Z</time></trkpt><trkpt lat="42.647571" lon="1.008707"><ele>1741.57</ele><time>2011-09-16T08:14:58Z</time></trkpt><trkpt lat="42.647542" lon="1.008857"><ele>1740.60</ele><time>2011-09-16T08:14:59Z</time></trkpt><trkpt lat="42.647506" lon="1.009004"><ele>1740.12</ele><time>2011-09-16T08:15:00Z</time></trkpt><trkpt lat="42.647466" lon="1.009144"><ele>1739.64</ele><time>2011-09-16T08:15:01Z</time></trkpt><trkpt lat="42.647424" lon="1.009279"><ele>1738.68</ele><time>2011-09-16T08:15:02Z</time></trkpt><trkpt lat="42.647311" lon="1.009666"><ele>1737.24</ele><time>2011-09-16T08:15:05Z</time></trkpt><trkpt lat="42.647292" lon="1.009792"><ele>1736.28</ele><time>2011-09-16T08:15:06Z</time></trkpt><trkpt lat="42.647268" lon="1.010021"><ele>1735.32</ele><time>2011-09-16T08:15:08Z</time></trkpt><trkpt lat="42.647241" lon="1.010118"><ele>1735.32</ele><time>2011-09-16T08:15:09Z</time></trkpt><trkpt lat="42.647195" lon="1.010192"><ele>1734.84</ele><time>2011-09-16T08:15:10Z</time></trkpt><trkpt lat="42.647141" lon="1.010227"><ele>1734.84</ele><time>2011-09-16T08:15:11Z</time></trkpt><trkpt lat="42.647081" lon="1.010149"><ele>1734.36</ele><time>2011-09-16T08:15:12Z</time></trkpt><trkpt lat="42.647042" lon="1.010017"><ele>1734.36</ele><time>2011-09-16T08:15:13Z</time></trkpt><trkpt lat="42.647050" lon="1.009901"><ele>1733.88</ele><time>2011-09-16T08:15:14Z</time></trkpt><trkpt lat="42.647065" lon="1.009779"><ele>1733.88</ele><time>2011-09-16T08:15:15Z</time></trkpt><trkpt lat="42.647098" lon="1.009639"><ele>1733.39</ele><time>2011-09-16T08:15:16Z</time></trkpt><trkpt lat="42.647131" lon="1.009496"><ele>1732.91</ele><time>2011-09-16T08:15:17Z</time></trkpt><trkpt lat="42.647193" lon="1.008846"><ele>1731.47</ele><time>2011-09-16T08:15:21Z</time></trkpt><trkpt lat="42.647171" lon="1.008668"><ele>1730.51</ele><time>2011-09-16T08:15:22Z</time></trkpt><trkpt lat="42.647136" lon="1.008506"><ele>1730.51</ele><time>2011-09-16T08:15:23Z</time></trkpt><trkpt lat="42.647089" lon="1.008354"><ele>1730.51</ele><time>2011-09-16T08:15:24Z</time></trkpt><trkpt lat="42.647040" lon="1.008237"><ele>1730.51</ele><time>2011-09-16T08:15:25Z</time></trkpt><trkpt lat="42.646945" lon="1.008160"><ele>1730.99</ele><time>2011-09-16T08:15:26Z</time></trkpt><trkpt lat="42.646861" lon="1.008064"><ele>1730.51</ele><time>2011-09-16T08:15:27Z</time></trkpt><trkpt lat="42.646785" lon="1.007950"><ele>1730.51</ele><time>2011-09-16T08:15:28Z</time></trkpt><trkpt lat="42.646514" lon="1.007499"><ele>1729.07</ele><time>2011-09-16T08:15:32Z</time></trkpt><trkpt lat="42.646440" lon="1.007439"><ele>1728.59</ele><time>2011-09-16T08:15:33Z</time></trkpt><trkpt lat="42.646312" lon="1.007446"><ele>1728.59</ele><time>2011-09-16T08:15:34Z</time></trkpt><trkpt lat="42.646149" lon="1.007480"><ele>1727.15</ele><time>2011-09-16T08:15:35Z</time></trkpt><trkpt lat="42.646024" lon="1.007470"><ele>1727.15</ele><time>2011-09-16T08:15:36Z</time></trkpt><trkpt lat="42.645916" lon="1.007425"><ele>1728.59</ele><time>2011-09-16T08:15:37Z</time></trkpt><trkpt lat="42.645805" lon="1.007366"><ele>1729.07</ele><time>2011-09-16T08:15:38Z</time></trkpt><trkpt lat="42.645696" lon="1.007288"><ele>1730.51</ele><time>2011-09-16T08:15:39Z</time></trkpt><trkpt lat="42.645584" lon="1.007219"><ele>1730.51</ele><time>2011-09-16T08:15:40Z</time></trkpt><trkpt lat="42.645487" lon="1.007155"><ele>1730.99</ele><time>2011-09-16T08:15:41Z</time></trkpt><trkpt lat="42.645398" lon="1.007121"><ele>1730.51</ele><time>2011-09-16T08:15:42Z</time></trkpt><trkpt lat="42.645315" lon="1.007123"><ele>1730.51</ele><time>2011-09-16T08:15:43Z</time></trkpt><trkpt lat="42.645211" lon="1.007414"><ele>1725.70</ele><time>2011-09-16T08:15:46Z</time></trkpt><trkpt lat="42.645260" lon="1.007546"><ele>1724.26</ele><time>2011-09-16T08:15:47Z</time></trkpt><trkpt lat="42.645343" lon="1.007667"><ele>1723.78</ele><time>2011-09-16T08:15:48Z</time></trkpt><trkpt lat="42.645470" lon="1.007776"><ele>1723.78</ele><time>2011-09-16T08:15:49Z</time></trkpt><trkpt lat="42.645623" lon="1.007857"><ele>1722.82</ele><time>2011-09-16T08:15:50Z</time></trkpt><trkpt lat="42.645787" lon="1.007921"><ele>1721.86</ele><time>2011-09-16T08:15:51Z</time></trkpt><trkpt lat="42.645939" lon="1.007978"><ele>1719.94</ele><time>2011-09-16T08:15:52Z</time></trkpt><trkpt lat="42.646078" lon="1.008030"><ele>1718.49</ele><time>2011-09-16T08:15:53Z</time></trkpt><trkpt lat="42.646301" lon="1.008129"><ele>1715.61</ele><time>2011-09-16T08:15:55Z</time></trkpt><trkpt lat="42.646380" lon="1.008198"><ele>1714.17</ele><time>2011-09-16T08:15:56Z</time></trkpt><trkpt lat="42.646428" lon="1.008284"><ele>1712.73</ele><time>2011-09-16T08:15:57Z</time></trkpt><trkpt lat="42.646434" lon="1.008377"><ele>1712.25</ele><time>2011-09-16T08:15:58Z</time></trkpt><trkpt lat="42.646396" lon="1.008466"><ele>1711.28</ele><time>2011-09-16T08:15:59Z</time></trkpt><trkpt lat="42.646328" lon="1.008525"><ele>1710.32</ele><time>2011-09-16T08:16:00Z</time></trkpt><trkpt lat="42.646219" lon="1.008528"><ele>1708.40</ele><time>2011-09-16T08:16:01Z</time></trkpt><trkpt lat="42.646076" lon="1.008470"><ele>1706.48</ele><time>2011-09-16T08:16:02Z</time></trkpt><trkpt lat="42.645937" lon="1.008386"><ele>1705.04</ele><time>2011-09-16T08:16:03Z</time></trkpt><trkpt lat="42.645812" lon="1.008303"><ele>1704.55</ele><time>2011-09-16T08:16:04Z</time></trkpt><trkpt lat="42.645494" lon="1.008109"><ele>1702.63</ele><time>2011-09-16T08:16:07Z</time></trkpt><trkpt lat="42.645397" lon="1.008095"><ele>1701.67</ele><time>2011-09-16T08:16:08Z</time></trkpt><trkpt lat="42.645302" lon="1.008104"><ele>1700.71</ele><time>2011-09-16T08:16:09Z</time></trkpt><trkpt lat="42.645218" lon="1.008185"><ele>1699.27</ele><time>2011-09-16T08:16:10Z</time></trkpt><trkpt lat="42.645166" lon="1.008276"><ele>1698.31</ele><time>2011-09-16T08:16:11Z</time></trkpt><trkpt lat="42.645155" lon="1.008380"><ele>1697.34</ele><time>2011-09-16T08:16:12Z</time></trkpt><trkpt lat="42.645271" lon="1.008573"><ele>1695.90</ele><time>2011-09-16T08:16:14Z</time></trkpt><trkpt lat="42.645410" lon="1.008616"><ele>1695.90</ele><time>2011-09-16T08:16:15Z</time></trkpt><trkpt lat="42.645577" lon="1.008649"><ele>1695.42</ele><time>2011-09-16T08:16:16Z</time></trkpt><trkpt lat="42.645719" lon="1.008708"><ele>1694.46</ele><time>2011-09-16T08:16:17Z</time></trkpt><trkpt lat="42.645853" lon="1.008787"><ele>1694.46</ele><time>2011-09-16T08:16:18Z</time></trkpt><trkpt lat="42.645976" lon="1.008899"><ele>1693.50</ele><time>2011-09-16T08:16:19Z</time></trkpt><trkpt lat="42.646087" lon="1.009041"><ele>1692.06</ele><time>2011-09-16T08:16:20Z</time></trkpt><trkpt lat="42.646179" lon="1.009214"><ele>1690.14</ele><time>2011-09-16T08:16:21Z</time></trkpt><trkpt lat="42.646249" lon="1.009400"><ele>1688.69</ele><time>2011-09-16T08:16:22Z</time></trkpt><trkpt lat="42.646290" lon="1.009595"><ele>1687.25</ele><time>2011-09-16T08:16:23Z</time></trkpt><trkpt lat="42.646301" lon="1.009797"><ele>1686.29</ele><time>2011-09-16T08:16:24Z</time></trkpt><trkpt lat="42.646287" lon="1.010023"><ele>1681.00</ele><time>2011-09-16T08:16:25Z</time></trkpt><trkpt lat="42.646248" lon="1.010258"><ele>1678.12</ele><time>2011-09-16T08:16:26Z</time></trkpt><trkpt lat="42.646216" lon="1.010510"><ele>1673.79</ele><time>2011-09-16T08:16:27Z</time></trkpt><trkpt lat="42.645834" lon="1.012568"><ele>1642.07</ele><time>2011-09-16T08:16:34Z</time></trkpt><trkpt lat="42.644926" lon="1.015351"><ele>1633.42</ele><time>2011-09-16T08:16:44Z</time></trkpt><trkpt lat="42.644707" lon="1.016156"><ele>1628.61</ele><time>2011-09-16T08:16:47Z</time></trkpt><trkpt lat="42.644660" lon="1.016433"><ele>1626.69</ele><time>2011-09-16T08:16:48Z</time></trkpt><trkpt lat="42.644215" lon="1.018702"><ele>1601.21</ele><time>2011-09-16T08:16:56Z</time></trkpt><trkpt lat="42.643379" lon="1.021593"><ele>1602.17</ele><time>2011-09-16T08:17:07Z</time></trkpt><trkpt lat="42.643254" lon="1.022028"><ele>1602.66</ele><time>2011-09-16T08:17:09Z</time></trkpt><trkpt lat="42.643225" lon="1.022271"><ele>1603.14</ele><time>2011-09-16T08:17:10Z</time></trkpt><trkpt lat="42.643211" lon="1.022529"><ele>1603.14</ele><time>2011-09-16T08:17:11Z</time></trkpt><trkpt lat="42.642898" lon="1.024391"><ele>1598.33</ele><time>2011-09-16T08:17:18Z</time></trkpt><trkpt lat="42.642475" lon="1.026464"><ele>1589.20</ele><time>2011-09-16T08:17:26Z</time></trkpt><trkpt lat="42.641969" lon="1.028450"><ele>1578.62</ele><time>2011-09-16T08:17:34Z</time></trkpt><trkpt lat="42.640886" lon="1.030844"><ele>1557.47</ele><time>2011-09-16T08:17:43Z</time></trkpt><trkpt lat="42.639881" lon="1.033503"><ele>1535.84</ele><time>2011-09-16T08:17:53Z</time></trkpt><trkpt lat="42.639862" lon="1.033792"><ele>1533.92</ele><time>2011-09-16T08:17:54Z</time></trkpt><trkpt lat="42.639864" lon="1.034081"><ele>1531.52</ele><time>2011-09-16T08:17:55Z</time></trkpt><trkpt lat="42.639882" lon="1.034370"><ele>1529.11</ele><time>2011-09-16T08:17:56Z</time></trkpt><trkpt lat="42.639912" lon="1.034659"><ele>1526.71</ele><time>2011-09-16T08:17:57Z</time></trkpt><trkpt lat="42.640244" lon="1.037885"><ele>1507.48</ele><time>2011-09-16T08:18:09Z</time></trkpt><trkpt lat="42.640158" lon="1.038643"><ele>1505.08</ele><time>2011-09-16T08:18:12Z</time></trkpt><trkpt lat="42.639699" lon="1.040422"><ele>1500.76</ele><time>2011-09-16T08:18:18Z</time></trkpt><trkpt lat="42.639095" lon="1.042394"><ele>1494.51</ele><time>2011-09-16T08:18:25Z</time></trkpt><trkpt lat="42.638975" lon="1.042616"><ele>1493.55</ele><time>2011-09-16T08:18:26Z</time></trkpt><trkpt lat="42.638642" lon="1.043268"><ele>1490.18</ele><time>2011-09-16T08:18:29Z</time></trkpt><trkpt lat="42.638576" lon="1.043507"><ele>1489.22</ele><time>2011-09-16T08:18:30Z</time></trkpt><trkpt lat="42.638541" lon="1.043760"><ele>1487.78</ele><time>2011-09-16T08:18:31Z</time></trkpt><trkpt lat="42.638536" lon="1.044022"><ele>1486.82</ele><time>2011-09-16T08:18:32Z</time></trkpt><trkpt lat="42.638535" lon="1.044294"><ele>1485.85</ele><time>2011-09-16T08:18:33Z</time></trkpt><trkpt lat="42.638446" lon="1.045151"><ele>1482.01</ele><time>2011-09-16T08:18:36Z</time></trkpt><trkpt lat="42.638381" lon="1.045435"><ele>1480.09</ele><time>2011-09-16T08:18:37Z</time></trkpt><trkpt lat="42.638273" lon="1.046001"><ele>1476.24</ele><time>2011-09-16T08:18:39Z</time></trkpt><trkpt lat="42.638257" lon="1.046288"><ele>1474.32</ele><time>2011-09-16T08:18:40Z</time></trkpt><trkpt lat="42.638258" lon="1.046573"><ele>1472.40</ele><time>2011-09-16T08:18:41Z</time></trkpt><trkpt lat="42.638247" lon="1.047143"><ele>1467.59</ele><time>2011-09-16T08:18:43Z</time></trkpt><trkpt lat="42.638214" lon="1.047417"><ele>1465.67</ele><time>2011-09-16T08:18:44Z</time></trkpt><trkpt lat="42.638168" lon="1.047676"><ele>1464.23</ele><time>2011-09-16T08:18:45Z</time></trkpt><trkpt lat="42.638079" lon="1.048344"><ele>1459.90</ele><time>2011-09-16T08:18:48Z</time></trkpt><trkpt lat="42.638091" lon="1.048552"><ele>1458.46</ele><time>2011-09-16T08:18:49Z</time></trkpt><trkpt lat="42.638125" lon="1.048760"><ele>1457.50</ele><time>2011-09-16T08:18:50Z</time></trkpt><trkpt lat="42.638183" lon="1.048968"><ele>1455.57</ele><time>2011-09-16T08:18:51Z</time></trkpt><trkpt lat="42.638266" lon="1.049174"><ele>1454.61</ele><time>2011-09-16T08:18:52Z</time></trkpt><trkpt lat="42.638368" lon="1.049378"><ele>1453.17</ele><time>2011-09-16T08:18:53Z</time></trkpt><trkpt lat="42.638488" lon="1.049575"><ele>1451.73</ele><time>2011-09-16T08:18:54Z</time></trkpt><trkpt lat="42.638608" lon="1.049774"><ele>1449.81</ele><time>2011-09-16T08:18:55Z</time></trkpt><trkpt lat="42.639484" lon="1.051713"><ele>1441.15</ele><time>2011-09-16T08:19:04Z</time></trkpt><trkpt lat="42.639605" lon="1.051909"><ele>1441.15</ele><time>2011-09-16T08:19:05Z</time></trkpt><trkpt lat="42.639758" lon="1.052091"><ele>1441.15</ele><time>2011-09-16T08:19:06Z</time></trkpt><trkpt lat="42.639922" lon="1.052272"><ele>1440.67</ele><time>2011-09-16T08:19:07Z</time></trkpt><trkpt lat="42.640347" lon="1.052910"><ele>1438.75</ele><time>2011-09-16T08:19:10Z</time></trkpt><trkpt lat="42.640452" lon="1.053156"><ele>1438.27</ele><time>2011-09-16T08:19:11Z</time></trkpt><trkpt lat="42.640545" lon="1.053407"><ele>1437.79</ele><time>2011-09-16T08:19:12Z</time></trkpt><trkpt lat="42.641523" lon="1.055254"><ele>1430.58</ele><time>2011-09-16T08:19:20Z</time></trkpt><trkpt lat="42.642255" lon="1.057287"><ele>1422.89</ele><time>2011-09-16T08:19:27Z</time></trkpt><trkpt lat="42.643408" lon="1.060446"><ele>1408.47</ele><time>2011-09-16T08:19:38Z</time></trkpt><trkpt lat="42.643806" lon="1.063033"><ele>1388.76</ele><time>2011-09-16T08:19:46Z</time></trkpt><trkpt lat="42.643720" lon="1.065566"><ele>1380.11</ele><time>2011-09-16T08:19:54Z</time></trkpt><trkpt lat="42.643575" lon="1.068161"><ele>1369.54</ele><time>2011-09-16T08:20:03Z</time></trkpt><trkpt lat="42.643492" lon="1.068625"><ele>1367.13</ele><time>2011-09-16T08:20:05Z</time></trkpt><trkpt lat="42.643422" lon="1.068833"><ele>1365.69</ele><time>2011-09-16T08:20:06Z</time></trkpt><trkpt lat="42.643334" lon="1.069021"><ele>1365.21</ele><time>2011-09-16T08:20:07Z</time></trkpt><trkpt lat="42.643233" lon="1.069192"><ele>1364.25</ele><time>2011-09-16T08:20:08Z</time></trkpt><trkpt lat="42.643119" lon="1.069349"><ele>1363.29</ele><time>2011-09-16T08:20:09Z</time></trkpt><trkpt lat="42.642986" lon="1.069494"><ele>1362.81</ele><time>2011-09-16T08:20:10Z</time></trkpt><trkpt lat="42.642850" lon="1.069630"><ele>1362.33</ele><time>2011-09-16T08:20:11Z</time></trkpt><trkpt lat="42.642082" lon="1.070542"><ele>1358.00</ele><time>2011-09-16T08:20:18Z</time></trkpt><trkpt lat="42.642039" lon="1.070698"><ele>1357.52</ele><time>2011-09-16T08:20:19Z</time></trkpt><trkpt lat="42.642027" lon="1.070861"><ele>1356.56</ele><time>2011-09-16T08:20:20Z</time></trkpt><trkpt lat="42.642024" lon="1.071036"><ele>1355.12</ele><time>2011-09-16T08:20:21Z</time></trkpt><trkpt lat="42.642026" lon="1.071213"><ele>1353.67</ele><time>2011-09-16T08:20:22Z</time></trkpt><trkpt lat="42.642037" lon="1.071384"><ele>1352.23</ele><time>2011-09-16T08:20:23Z</time></trkpt><trkpt lat="42.642063" lon="1.071541"><ele>1350.79</ele><time>2011-09-16T08:20:24Z</time></trkpt><trkpt lat="42.642112" lon="1.071685"><ele>1349.83</ele><time>2011-09-16T08:20:25Z</time></trkpt><trkpt lat="42.642182" lon="1.071822"><ele>1349.35</ele><time>2011-09-16T08:20:26Z</time></trkpt><trkpt lat="42.642271" lon="1.071959"><ele>1348.39</ele><time>2011-09-16T08:20:27Z</time></trkpt><trkpt lat="42.642355" lon="1.072114"><ele>1347.43</ele><time>2011-09-16T08:20:28Z</time></trkpt><trkpt lat="42.642427" lon="1.072291"><ele>1346.46</ele><time>2011-09-16T08:20:29Z</time></trkpt><trkpt lat="42.642494" lon="1.072483"><ele>1345.02</ele><time>2011-09-16T08:20:30Z</time></trkpt><trkpt lat="42.642560" lon="1.072681"><ele>1345.02</ele><time>2011-09-16T08:20:31Z</time></trkpt><trkpt lat="42.642953" lon="1.074235"><ele>1336.85</ele><time>2011-09-16T08:20:39Z</time></trkpt><trkpt lat="42.643115" lon="1.075084"><ele>1337.33</ele><time>2011-09-16T08:20:44Z</time></trkpt><trkpt lat="42.643099" lon="1.075248"><ele>1336.85</ele><time>2011-09-16T08:20:45Z</time></trkpt><trkpt lat="42.643066" lon="1.075405"><ele>1336.37</ele><time>2011-09-16T08:20:46Z</time></trkpt><trkpt lat="42.643040" lon="1.075716"><ele>1334.93</ele><time>2011-09-16T08:20:48Z</time></trkpt><trkpt lat="42.643055" lon="1.075884"><ele>1334.45</ele><time>2011-09-16T08:20:49Z</time></trkpt><trkpt lat="42.643081" lon="1.076059"><ele>1333.49</ele><time>2011-09-16T08:20:50Z</time></trkpt><trkpt lat="42.643165" lon="1.076733"><ele>1333.97</ele><time>2011-09-16T08:20:54Z</time></trkpt><trkpt lat="42.643441" lon="1.077532"><ele>1333.01</ele><time>2011-09-16T08:20:59Z</time></trkpt><trkpt lat="42.643525" lon="1.077646"><ele>1332.52</ele><time>2011-09-16T08:21:00Z</time></trkpt><trkpt lat="42.643609" lon="1.077737"><ele>1333.97</ele><time>2011-09-16T08:21:01Z</time></trkpt><trkpt lat="42.643696" lon="1.077839"><ele>1332.52</ele><time>2011-09-16T08:21:02Z</time></trkpt><trkpt lat="42.643773" lon="1.077965"><ele>1331.08</ele><time>2011-09-16T08:21:03Z</time></trkpt><trkpt lat="42.643840" lon="1.078116"><ele>1329.64</ele><time>2011-09-16T08:21:04Z</time></trkpt><trkpt lat="42.643905" lon="1.078276"><ele>1328.68</ele><time>2011-09-16T08:21:05Z</time></trkpt><trkpt lat="42.643988" lon="1.078432"><ele>1327.72</ele><time>2011-09-16T08:21:06Z</time></trkpt><trkpt lat="42.644061" lon="1.078598"><ele>1326.28</ele><time>2011-09-16T08:21:07Z</time></trkpt><trkpt lat="42.644164" lon="1.078755"><ele>1324.35</ele><time>2011-09-16T08:21:08Z</time></trkpt><trkpt lat="42.644279" lon="1.078904"><ele>1322.43</ele><time>2011-09-16T08:21:09Z</time></trkpt><trkpt lat="42.644403" lon="1.079042"><ele>1320.99</ele><time>2011-09-16T08:21:10Z</time></trkpt><trkpt lat="42.645290" lon="1.080229"><ele>1309.93</ele><time>2011-09-16T08:21:19Z</time></trkpt><trkpt lat="42.645792" lon="1.081274"><ele>1303.20</ele><time>2011-09-16T08:21:27Z</time></trkpt><trkpt lat="42.645879" lon="1.081373"><ele>1302.72</ele><time>2011-09-16T08:21:28Z</time></trkpt><trkpt lat="42.645977" lon="1.081449"><ele>1301.76</ele><time>2011-09-16T08:21:29Z</time></trkpt><trkpt lat="42.646084" lon="1.081500"><ele>1300.32</ele><time>2011-09-16T08:21:30Z</time></trkpt><trkpt lat="42.646196" lon="1.081533"><ele>1298.40</ele><time>2011-09-16T08:21:31Z</time></trkpt><trkpt lat="42.646304" lon="1.081560"><ele>1297.44</ele><time>2011-09-16T08:21:32Z</time></trkpt><trkpt lat="42.646523" lon="1.081627"><ele>1295.03</ele><time>2011-09-16T08:21:34Z</time></trkpt><trkpt lat="42.646626" lon="1.081688"><ele>1293.59</ele><time>2011-09-16T08:21:35Z</time></trkpt><trkpt lat="42.646715" lon="1.081773"><ele>1292.63</ele><time>2011-09-16T08:21:36Z</time></trkpt><trkpt lat="42.646786" lon="1.081878"><ele>1291.19</ele><time>2011-09-16T08:21:37Z</time></trkpt><trkpt lat="42.646831" lon="1.082005"><ele>1290.23</ele><time>2011-09-16T08:21:38Z</time></trkpt><trkpt lat="42.646847" lon="1.082144"><ele>1288.78</ele><time>2011-09-16T08:21:39Z</time></trkpt><trkpt lat="42.646838" lon="1.082288"><ele>1287.82</ele><time>2011-09-16T08:21:40Z</time></trkpt><trkpt lat="42.646804" lon="1.082432"><ele>1286.86</ele><time>2011-09-16T08:21:41Z</time></trkpt><trkpt lat="42.646744" lon="1.082567"><ele>1285.42</ele><time>2011-09-16T08:21:42Z</time></trkpt><trkpt lat="42.646632" lon="1.082669"><ele>1283.98</ele><time>2011-09-16T08:21:43Z</time></trkpt><trkpt lat="42.646519" lon="1.082735"><ele>1282.54</ele><time>2011-09-16T08:21:44Z</time></trkpt><trkpt lat="42.646398" lon="1.082759"><ele>1281.57</ele><time>2011-09-16T08:21:45Z</time></trkpt><trkpt lat="42.646281" lon="1.082738"><ele>1280.61</ele><time>2011-09-16T08:21:46Z</time></trkpt><trkpt lat="42.646168" lon="1.082679"><ele>1279.17</ele><time>2011-09-16T08:21:47Z</time></trkpt><trkpt lat="42.646065" lon="1.082580"><ele>1278.69</ele><time>2011-09-16T08:21:48Z</time></trkpt><trkpt lat="42.645964" lon="1.082455"><ele>1278.21</ele><time>2011-09-16T08:21:49Z</time></trkpt><trkpt lat="42.645856" lon="1.082307"><ele>1277.25</ele><time>2011-09-16T08:21:50Z</time></trkpt><trkpt lat="42.645096" lon="1.081128"><ele>1271.96</ele><time>2011-09-16T08:21:56Z</time></trkpt><trkpt lat="42.644717" lon="1.080615"><ele>1269.56</ele><time>2011-09-16T08:21:59Z</time></trkpt><trkpt lat="42.644572" lon="1.080487"><ele>1268.60</ele><time>2011-09-16T08:22:00Z</time></trkpt><trkpt lat="42.644415" lon="1.080391"><ele>1268.12</ele><time>2011-09-16T08:22:01Z</time></trkpt><trkpt lat="42.644248" lon="1.080327"><ele>1266.67</ele><time>2011-09-16T08:22:02Z</time></trkpt><trkpt lat="42.644073" lon="1.080290"><ele>1265.71</ele><time>2011-09-16T08:22:03Z</time></trkpt><trkpt lat="42.643898" lon="1.080294"><ele>1264.75</ele><time>2011-09-16T08:22:04Z</time></trkpt><trkpt lat="42.643728" lon="1.080334"><ele>1263.79</ele><time>2011-09-16T08:22:05Z</time></trkpt><trkpt lat="42.643565" lon="1.080424"><ele>1262.83</ele><time>2011-09-16T08:22:06Z</time></trkpt><trkpt lat="42.643411" lon="1.080538"><ele>1262.35</ele><time>2011-09-16T08:22:07Z</time></trkpt><trkpt lat="42.643269" lon="1.080680"><ele>1261.39</ele><time>2011-09-16T08:22:08Z</time></trkpt><trkpt lat="42.643160" lon="1.080881"><ele>1260.43</ele><time>2011-09-16T08:22:09Z</time></trkpt><trkpt lat="42.643046" lon="1.081104"><ele>1259.94</ele><time>2011-09-16T08:22:10Z</time></trkpt><trkpt lat="42.642952" lon="1.081345"><ele>1258.98</ele><time>2011-09-16T08:22:11Z</time></trkpt><trkpt lat="42.642887" lon="1.081612"><ele>1258.02</ele><time>2011-09-16T08:22:12Z</time></trkpt><trkpt lat="42.642843" lon="1.081879"><ele>1257.06</ele><time>2011-09-16T08:22:13Z</time></trkpt><trkpt lat="42.642816" lon="1.082153"><ele>1256.10</ele><time>2011-09-16T08:22:14Z</time></trkpt><trkpt lat="42.642793" lon="1.082424"><ele>1254.66</ele><time>2011-09-16T08:22:15Z</time></trkpt><trkpt lat="42.642461" lon="1.084582"><ele>1245.53</ele><time>2011-09-16T08:22:22Z</time></trkpt><trkpt lat="42.641686" lon="1.088889"><ele>1227.74</ele><time>2011-09-16T08:22:35Z</time></trkpt><trkpt lat="42.641077" lon="1.091441"><ele>1217.17</ele><time>2011-09-16T08:22:44Z</time></trkpt><trkpt lat="42.640954" lon="1.091662"><ele>1216.21</ele><time>2011-09-16T08:22:45Z</time></trkpt><trkpt lat="42.640811" lon="1.091879"><ele>1214.76</ele><time>2011-09-16T08:22:46Z</time></trkpt><trkpt lat="42.640646" lon="1.092086"><ele>1213.32</ele><time>2011-09-16T08:22:47Z</time></trkpt><trkpt lat="42.639273" lon="1.094140"><ele>1201.79</ele><time>2011-09-16T08:22:56Z</time></trkpt><trkpt lat="42.638539" lon="1.096466"><ele>1184.96</ele><time>2011-09-16T08:23:04Z</time></trkpt><trkpt lat="42.636840" lon="1.102415"><ele>1147.95</ele><time>2011-09-16T08:23:25Z</time></trkpt><trkpt lat="42.635892" lon="1.103839"><ele>1134.49</ele><time>2011-09-16T08:23:31Z</time></trkpt><trkpt lat="42.634564" lon="1.105003"><ele>1118.63</ele><time>2011-09-16T08:23:38Z</time></trkpt><trkpt lat="42.633414" lon="1.106784"><ele>1100.37</ele><time>2011-09-16T08:23:46Z</time></trkpt><trkpt lat="42.631852" lon="1.108963"><ele>1080.66</ele><time>2011-09-16T08:23:56Z</time></trkpt><trkpt lat="42.630359" lon="1.110090"><ele>1067.20</ele><time>2011-09-16T08:24:03Z</time></trkpt><trkpt lat="42.627531" lon="1.111408"><ele>1043.65</ele><time>2011-09-16T08:24:16Z</time></trkpt><trkpt lat="42.625455" lon="1.112739"><ele>1022.02</ele><time>2011-09-16T08:24:26Z</time></trkpt><trkpt lat="42.623845" lon="1.114647"><ele>1001.35</ele><time>2011-09-16T08:24:35Z</time></trkpt><trkpt lat="42.621783" lon="1.116248"><ele>982.12</ele><time>2011-09-16T08:24:45Z</time></trkpt><trkpt lat="42.619361" lon="1.117642"><ele>975.88</ele><time>2011-09-16T08:24:56Z</time></trkpt><trkpt lat="42.617213" lon="1.118088"><ele>974.43</ele><time>2011-09-16T08:25:05Z</time></trkpt><trkpt lat="42.615637" lon="1.119042"><ele>972.51</ele><time>2011-09-16T08:25:12Z</time></trkpt><trkpt lat="42.611354" lon="1.122404"><ele>967.70</ele><time>2011-09-16T08:25:32Z</time></trkpt><trkpt lat="42.608303" lon="1.124887"><ele>950.40</ele><time>2011-09-16T08:25:47Z</time></trkpt><trkpt lat="42.606527" lon="1.127145"><ele>944.15</ele><time>2011-09-16T08:25:57Z</time></trkpt><trkpt lat="42.605228" lon="1.128612"><ele>942.71</ele><time>2011-09-16T08:26:04Z</time></trkpt><trkpt lat="42.604796" lon="1.128836"><ele>942.23</ele><time>2011-09-16T08:26:06Z</time></trkpt><trkpt lat="42.604574" lon="1.128898"><ele>942.23</ele><time>2011-09-16T08:26:07Z</time></trkpt><trkpt lat="42.604353" lon="1.128939"><ele>942.23</ele><time>2011-09-16T08:26:08Z</time></trkpt><trkpt lat="42.603941" lon="1.129028"><ele>942.23</ele><time>2011-09-16T08:26:10Z</time></trkpt><trkpt lat="42.603424" lon="1.129321"><ele>942.71</ele><time>2011-09-16T08:26:13Z</time></trkpt><trkpt lat="42.603271" lon="1.129486"><ele>942.71</ele><time>2011-09-16T08:26:14Z</time></trkpt><trkpt lat="42.603121" lon="1.129664"><ele>942.71</ele><time>2011-09-16T08:26:15Z</time></trkpt><trkpt lat="42.602649" lon="1.130086"><ele>942.71</ele><time>2011-09-16T08:26:18Z</time></trkpt><trkpt lat="42.602483" lon="1.130168"><ele>942.71</ele><time>2011-09-16T08:26:19Z</time></trkpt><trkpt lat="42.602311" lon="1.130220"><ele>942.23</ele><time>2011-09-16T08:26:20Z</time></trkpt><trkpt lat="42.602114" lon="1.130186"><ele>942.23</ele><time>2011-09-16T08:26:21Z</time></trkpt><trkpt lat="42.601921" lon="1.130141"><ele>942.23</ele><time>2011-09-16T08:26:22Z</time></trkpt><trkpt lat="42.601729" lon="1.130074"><ele>942.71</ele><time>2011-09-16T08:26:23Z</time></trkpt><trkpt lat="42.601536" lon="1.130002"><ele>942.23</ele><time>2011-09-16T08:26:24Z</time></trkpt><trkpt lat="42.600925" lon="1.129908"><ele>941.75</ele><time>2011-09-16T08:26:27Z</time></trkpt><trkpt lat="42.600720" lon="1.129956"><ele>941.75</ele><time>2011-09-16T08:26:28Z</time></trkpt><trkpt lat="42.600525" lon="1.130057"><ele>941.75</ele><time>2011-09-16T08:26:29Z</time></trkpt><trkpt lat="42.600336" lon="1.130173"><ele>941.75</ele><time>2011-09-16T08:26:30Z</time></trkpt><trkpt lat="42.600152" lon="1.130300"><ele>941.75</ele><time>2011-09-16T08:26:31Z</time></trkpt><trkpt lat="42.599589" lon="1.130612"><ele>941.75</ele><time>2011-09-16T08:26:34Z</time></trkpt><trkpt lat="42.599393" lon="1.130657"><ele>941.75</ele><time>2011-09-16T08:26:35Z</time></trkpt><trkpt lat="42.599198" lon="1.130659"><ele>941.75</ele><time>2011-09-16T08:26:36Z</time></trkpt><trkpt lat="42.599005" lon="1.130614"><ele>941.75</ele><time>2011-09-16T08:26:37Z</time></trkpt><trkpt lat="42.598814" lon="1.130546"><ele>941.75</ele><time>2011-09-16T08:26:38Z</time></trkpt><trkpt lat="42.598627" lon="1.130469"><ele>941.75</ele><time>2011-09-16T08:26:39Z</time></trkpt><trkpt lat="42.598257" lon="1.130353"><ele>941.75</ele><time>2011-09-16T08:26:41Z</time></trkpt><trkpt lat="42.598072" lon="1.130337"><ele>941.75</ele><time>2011-09-16T08:26:42Z</time></trkpt><trkpt lat="42.597886" lon="1.130358"><ele>941.75</ele><time>2011-09-16T08:26:43Z</time></trkpt><trkpt lat="42.597699" lon="1.130408"><ele>941.27</ele><time>2011-09-16T08:26:44Z</time></trkpt><trkpt lat="42.597511" lon="1.130478"><ele>941.27</ele><time>2011-09-16T08:26:45Z</time></trkpt><trkpt lat="42.595687" lon="1.131241"><ele>942.71</ele><time>2011-09-16T08:26:56Z</time></trkpt><trkpt lat="42.594487" lon="1.131720"><ele>946.07</ele><time>2011-09-16T08:27:07Z</time></trkpt><trkpt lat="42.592800" lon="1.132130"><ele>943.19</ele><time>2011-09-16T08:27:22Z</time></trkpt><trkpt lat="42.590750" lon="1.132570"><ele>941.75</ele><time>2011-09-16T08:27:38Z</time></trkpt><trkpt lat="42.588984" lon="1.132974"><ele>946.07</ele><time>2011-09-16T08:27:48Z</time></trkpt><trkpt lat="42.587078" lon="1.133506"><ele>947.04</ele><time>2011-09-16T08:27:58Z</time></trkpt><trkpt lat="42.585612" lon="1.133516"><ele>945.11</ele><time>2011-09-16T08:28:05Z</time></trkpt><trkpt lat="42.585416" lon="1.133449"><ele>944.63</ele><time>2011-09-16T08:28:06Z</time></trkpt><trkpt lat="42.584838" lon="1.133267"><ele>943.19</ele><time>2011-09-16T08:28:09Z</time></trkpt><trkpt lat="42.584644" lon="1.133256"><ele>942.71</ele><time>2011-09-16T08:28:10Z</time></trkpt><trkpt lat="42.584454" lon="1.133283"><ele>942.71</ele><time>2011-09-16T08:28:11Z</time></trkpt><trkpt lat="42.584273" lon="1.133351"><ele>941.75</ele><time>2011-09-16T08:28:12Z</time></trkpt><trkpt lat="42.584107" lon="1.133466"><ele>941.27</ele><time>2011-09-16T08:28:13Z</time></trkpt><trkpt lat="42.583949" lon="1.133608"><ele>940.79</ele><time>2011-09-16T08:28:14Z</time></trkpt><trkpt lat="42.583804" lon="1.133778"><ele>940.31</ele><time>2011-09-16T08:28:15Z</time></trkpt><trkpt lat="42.583691" lon="1.133995"><ele>939.83</ele><time>2011-09-16T08:28:16Z</time></trkpt><trkpt lat="42.583572" lon="1.134208"><ele>939.35</ele><time>2011-09-16T08:28:17Z</time></trkpt><trkpt lat="42.582900" lon="1.135199"><ele>940.31</ele><time>2011-09-16T08:28:22Z</time></trkpt><trkpt lat="42.582707" lon="1.135325"><ele>940.31</ele><time>2011-09-16T08:28:23Z</time></trkpt><trkpt lat="42.582467" lon="1.135425"><ele>941.27</ele><time>2011-09-16T08:28:24Z</time></trkpt><trkpt lat="42.582228" lon="1.135530"><ele>943.19</ele><time>2011-09-16T08:28:25Z</time></trkpt><trkpt lat="42.582005" lon="1.135566"><ele>944.63</ele><time>2011-09-16T08:28:26Z</time></trkpt><trkpt lat="42.581803" lon="1.135655"><ele>945.11</ele><time>2011-09-16T08:28:27Z</time></trkpt><trkpt lat="42.580560" lon="1.136668"><ele>944.63</ele><time>2011-09-16T08:28:34Z</time></trkpt><trkpt lat="42.580102" lon="1.137121"><ele>944.15</ele><time>2011-09-16T08:28:37Z</time></trkpt><trkpt lat="42.579921" lon="1.137231"><ele>944.15</ele><time>2011-09-16T08:28:38Z</time></trkpt><trkpt lat="42.579734" lon="1.137325"><ele>943.19</ele><time>2011-09-16T08:28:39Z</time></trkpt><trkpt lat="42.579539" lon="1.137398"><ele>942.71</ele><time>2011-09-16T08:28:40Z</time></trkpt><trkpt lat="42.579348" lon="1.137488"><ele>941.27</ele><time>2011-09-16T08:28:41Z</time></trkpt><trkpt lat="42.578245" lon="1.138340"><ele>939.83</ele><time>2011-09-16T08:28:47Z</time></trkpt><trkpt lat="42.577550" lon="1.139180"><ele>941.75</ele><time>2011-09-16T08:28:52Z</time></trkpt><trkpt lat="42.577468" lon="1.139377"><ele>942.71</ele><time>2011-09-16T08:28:53Z</time></trkpt><trkpt lat="42.577406" lon="1.139578"><ele>942.71</ele><time>2011-09-16T08:28:54Z</time></trkpt><trkpt lat="42.577085" lon="1.140555"><ele>942.23</ele><time>2011-09-16T08:28:59Z</time></trkpt><trkpt lat="42.576990" lon="1.140720"><ele>941.75</ele><time>2011-09-16T08:29:00Z</time></trkpt><trkpt lat="42.576883" lon="1.140873"><ele>941.27</ele><time>2011-09-16T08:29:01Z</time></trkpt><trkpt lat="42.576767" lon="1.141016"><ele>940.79</ele><time>2011-09-16T08:29:02Z</time></trkpt><trkpt lat="42.576645" lon="1.141148"><ele>939.83</ele><time>2011-09-16T08:29:03Z</time></trkpt><trkpt lat="42.576254" lon="1.141485"><ele>937.42</ele><time>2011-09-16T08:29:06Z</time></trkpt><trkpt lat="42.576114" lon="1.141557"><ele>936.94</ele><time>2011-09-16T08:29:07Z</time></trkpt><trkpt lat="42.575968" lon="1.141601"><ele>935.98</ele><time>2011-09-16T08:29:08Z</time></trkpt><trkpt lat="42.575814" lon="1.141622"><ele>935.50</ele><time>2011-09-16T08:29:09Z</time></trkpt><trkpt lat="42.575659" lon="1.141636"><ele>934.54</ele><time>2011-09-16T08:29:10Z</time></trkpt><trkpt lat="42.575352" lon="1.141698"><ele>933.10</ele><time>2011-09-16T08:29:12Z</time></trkpt><trkpt lat="42.575209" lon="1.141774"><ele>932.62</ele><time>2011-09-16T08:29:13Z</time></trkpt><trkpt lat="42.575076" lon="1.141883"><ele>931.65</ele><time>2011-09-16T08:29:14Z</time></trkpt><trkpt lat="42.574955" lon="1.142011"><ele>931.17</ele><time>2011-09-16T08:29:15Z</time></trkpt><trkpt lat="42.574839" lon="1.142143"><ele>930.69</ele><time>2011-09-16T08:29:16Z</time></trkpt><trkpt lat="42.574720" lon="1.142260"><ele>930.21</ele><time>2011-09-16T08:29:17Z</time></trkpt><trkpt lat="42.574587" lon="1.142353"><ele>929.73</ele><time>2011-09-16T08:29:18Z</time></trkpt><trkpt lat="42.574440" lon="1.142420"><ele>929.25</ele><time>2011-09-16T08:29:19Z</time></trkpt><trkpt lat="42.574280" lon="1.142457"><ele>928.29</ele><time>2011-09-16T08:29:20Z</time></trkpt><trkpt lat="42.574109" lon="1.142451"><ele>927.81</ele><time>2011-09-16T08:29:21Z</time></trkpt><trkpt lat="42.573929" lon="1.142406"><ele>927.33</ele><time>2011-09-16T08:29:22Z</time></trkpt><trkpt lat="42.573743" lon="1.142336"><ele>926.37</ele><time>2011-09-16T08:29:23Z</time></trkpt><trkpt lat="42.573550" lon="1.142254"><ele>925.89</ele><time>2011-09-16T08:29:24Z</time></trkpt><trkpt lat="42.571795" lon="1.141684"><ele>923.00</ele><time>2011-09-16T08:29:32Z</time></trkpt><trkpt lat="42.570323" lon="1.141359"><ele>922.52</ele><time>2011-09-16T08:29:39Z</time></trkpt><trkpt lat="42.569957" lon="1.141258"><ele>922.52</ele><time>2011-09-16T08:29:41Z</time></trkpt><trkpt lat="42.569776" lon="1.141266"><ele>922.52</ele><time>2011-09-16T08:29:42Z</time></trkpt><trkpt lat="42.569601" lon="1.141309"><ele>921.56</ele><time>2011-09-16T08:29:43Z</time></trkpt><trkpt lat="42.569428" lon="1.141387"><ele>921.56</ele><time>2011-09-16T08:29:44Z</time></trkpt><trkpt lat="42.569270" lon="1.141511"><ele>921.08</ele><time>2011-09-16T08:29:45Z</time></trkpt><trkpt lat="42.569136" lon="1.141714"><ele>920.12</ele><time>2011-09-16T08:29:46Z</time></trkpt><trkpt lat="42.568988" lon="1.141903"><ele>920.12</ele><time>2011-09-16T08:29:47Z</time></trkpt><trkpt lat="42.568477" lon="1.142388"><ele>919.64</ele><time>2011-09-16T08:29:50Z</time></trkpt><trkpt lat="42.568272" lon="1.142498"><ele>919.64</ele><time>2011-09-16T08:29:51Z</time></trkpt><trkpt lat="42.567301" lon="1.143138"><ele>919.64</ele><time>2011-09-16T08:29:56Z</time></trkpt><trkpt lat="42.567138" lon="1.143317"><ele>919.16</ele><time>2011-09-16T08:29:57Z</time></trkpt><trkpt lat="42.566997" lon="1.143517"><ele>919.16</ele><time>2011-09-16T08:29:58Z</time></trkpt><trkpt lat="42.566885" lon="1.143746"><ele>919.16</ele><time>2011-09-16T08:29:59Z</time></trkpt><trkpt lat="42.566798" lon="1.143993"><ele>918.68</ele><time>2011-09-16T08:30:00Z</time></trkpt><trkpt lat="42.566713" lon="1.144239"><ele>918.68</ele><time>2011-09-16T08:30:01Z</time></trkpt><trkpt lat="42.566621" lon="1.144465"><ele>918.68</ele><time>2011-09-16T08:30:02Z</time></trkpt><trkpt lat="42.566514" lon="1.144670"><ele>918.68</ele><time>2011-09-16T08:30:03Z</time></trkpt><trkpt lat="42.566382" lon="1.144839"><ele>918.20</ele><time>2011-09-16T08:30:04Z</time></trkpt><trkpt lat="42.566222" lon="1.144985"><ele>916.27</ele><time>2011-09-16T08:30:05Z</time></trkpt><trkpt lat="42.566057" lon="1.145117"><ele>915.79</ele><time>2011-09-16T08:30:06Z</time></trkpt><trkpt lat="42.565895" lon="1.145260"><ele>915.31</ele><time>2011-09-16T08:30:07Z</time></trkpt><trkpt lat="42.565208" lon="1.145818"><ele>913.39</ele><time>2011-09-16T08:30:11Z</time></trkpt><trkpt lat="42.565017" lon="1.145907"><ele>912.43</ele><time>2011-09-16T08:30:12Z</time></trkpt><trkpt lat="42.564821" lon="1.145965"><ele>911.95</ele><time>2011-09-16T08:30:13Z</time></trkpt><trkpt lat="42.564614" lon="1.145986"><ele>911.95</ele><time>2011-09-16T08:30:14Z</time></trkpt><trkpt lat="42.564396" lon="1.145967"><ele>911.95</ele><time>2011-09-16T08:30:15Z</time></trkpt><trkpt lat="42.564181" lon="1.145952"><ele>911.47</ele><time>2011-09-16T08:30:16Z</time></trkpt><trkpt lat="42.562164" lon="1.146151"><ele>901.37</ele><time>2011-09-16T08:30:25Z</time></trkpt><trkpt lat="42.559885" lon="1.146684"><ele>887.43</ele><time>2011-09-16T08:30:35Z</time></trkpt><trkpt lat="42.558232" lon="1.147658"><ele>883.11</ele><time>2011-09-16T08:30:43Z</time></trkpt><trkpt lat="42.556030" lon="1.148803"><ele>876.86</ele><time>2011-09-16T08:30:54Z</time></trkpt><trkpt lat="42.555563" lon="1.149275"><ele>875.90</ele><time>2011-09-16T08:30:57Z</time></trkpt><trkpt lat="42.555443" lon="1.149519"><ele>875.42</ele><time>2011-09-16T08:30:58Z</time></trkpt><trkpt lat="42.555325" lon="1.149766"><ele>874.94</ele><time>2011-09-16T08:30:59Z</time></trkpt><trkpt lat="42.554384" lon="1.151637"><ele>872.05</ele><time>2011-09-16T08:31:07Z</time></trkpt><trkpt lat="42.554218" lon="1.151812"><ele>872.05</ele><time>2011-09-16T08:31:08Z</time></trkpt><trkpt lat="42.553127" lon="1.153203"><ele>874.46</ele><time>2011-09-16T08:31:15Z</time></trkpt><trkpt lat="42.552684" lon="1.154032"><ele>875.42</ele><time>2011-09-16T08:31:19Z</time></trkpt><trkpt lat="42.552545" lon="1.154192"><ele>874.94</ele><time>2011-09-16T08:31:20Z</time></trkpt><trkpt lat="42.552387" lon="1.154324"><ele>873.98</ele><time>2011-09-16T08:31:21Z</time></trkpt><trkpt lat="42.552218" lon="1.154434"><ele>873.50</ele><time>2011-09-16T08:31:22Z</time></trkpt><trkpt lat="42.552047" lon="1.154527"><ele>873.01</ele><time>2011-09-16T08:31:23Z</time></trkpt><trkpt lat="42.550947" lon="1.155138"><ele>871.57</ele><time>2011-09-16T08:31:31Z</time></trkpt><trkpt lat="42.549683" lon="1.156268"><ele>871.57</ele><time>2011-09-16T08:31:42Z</time></trkpt><trkpt lat="42.548149" lon="1.158355"><ele>871.57</ele><time>2011-09-16T08:31:57Z</time></trkpt><trkpt lat="42.546998" lon="1.159927"><ele>870.61</ele><time>2011-09-16T08:32:05Z</time></trkpt><trkpt lat="42.544307" lon="1.163566"><ele>862.92</ele><time>2011-09-16T08:32:22Z</time></trkpt><trkpt lat="42.542675" lon="1.166172"><ele>865.32</ele><time>2011-09-16T08:32:33Z</time></trkpt><trkpt lat="42.540883" lon="1.169206"><ele>861.48</ele><time>2011-09-16T08:32:46Z</time></trkpt><trkpt lat="42.539421" lon="1.170536"><ele>859.56</ele><time>2011-09-16T08:32:54Z</time></trkpt><trkpt lat="42.539115" lon="1.170916"><ele>859.56</ele><time>2011-09-16T08:32:56Z</time></trkpt><trkpt lat="42.538999" lon="1.171152"><ele>860.52</ele><time>2011-09-16T08:32:57Z</time></trkpt><trkpt lat="42.538508" lon="1.172126"><ele>863.40</ele><time>2011-09-16T08:33:01Z</time></trkpt><trkpt lat="42.538343" lon="1.172337"><ele>863.88</ele><time>2011-09-16T08:33:02Z</time></trkpt><trkpt lat="42.538166" lon="1.172531"><ele>864.36</ele><time>2011-09-16T08:33:03Z</time></trkpt><trkpt lat="42.536747" lon="1.173801"><ele>865.80</ele><time>2011-09-16T08:33:11Z</time></trkpt><trkpt lat="42.536184" lon="1.174514"><ele>865.32</ele><time>2011-09-16T08:33:15Z</time></trkpt><trkpt lat="42.536029" lon="1.174657"><ele>865.32</ele><time>2011-09-16T08:33:16Z</time></trkpt><trkpt lat="42.535864" lon="1.174781"><ele>864.36</ele><time>2011-09-16T08:33:17Z</time></trkpt><trkpt lat="42.534444" lon="1.175383"><ele>862.44</ele><time>2011-09-16T08:33:24Z</time></trkpt><trkpt lat="42.532910" lon="1.176069"><ele>861.48</ele><time>2011-09-16T08:33:32Z</time></trkpt><trkpt lat="42.532758" lon="1.176249"><ele>861.00</ele><time>2011-09-16T08:33:33Z</time></trkpt><trkpt lat="42.532625" lon="1.176459"><ele>860.52</ele><time>2011-09-16T08:33:34Z</time></trkpt><trkpt lat="42.532515" lon="1.176692"><ele>860.04</ele><time>2011-09-16T08:33:35Z</time></trkpt><trkpt lat="42.532425" lon="1.176945"><ele>859.56</ele><time>2011-09-16T08:33:36Z</time></trkpt><trkpt lat="42.532348" lon="1.177210"><ele>858.59</ele><time>2011-09-16T08:33:37Z</time></trkpt><trkpt lat="42.532274" lon="1.177472"><ele>858.11</ele><time>2011-09-16T08:33:38Z</time></trkpt><trkpt lat="42.532196" lon="1.177729"><ele>856.19</ele><time>2011-09-16T08:33:39Z</time></trkpt><trkpt lat="42.531812" lon="1.178640"><ele>852.35</ele><time>2011-09-16T08:33:43Z</time></trkpt><trkpt lat="42.531647" lon="1.178803"><ele>850.90</ele><time>2011-09-16T08:33:44Z</time></trkpt><trkpt lat="42.531484" lon="1.178944"><ele>851.38</ele><time>2011-09-16T08:33:45Z</time></trkpt><trkpt lat="42.531302" lon="1.179051"><ele>851.38</ele><time>2011-09-16T08:33:46Z</time></trkpt><trkpt lat="42.531118" lon="1.179122"><ele>851.87</ele><time>2011-09-16T08:33:47Z</time></trkpt><trkpt lat="42.530919" lon="1.179165"><ele>851.38</ele><time>2011-09-16T08:33:48Z</time></trkpt><trkpt lat="42.530726" lon="1.179199"><ele>850.42</ele><time>2011-09-16T08:33:49Z</time></trkpt><trkpt lat="42.530209" lon="1.179408"><ele>848.98</ele><time>2011-09-16T08:33:52Z</time></trkpt><trkpt lat="42.530026" lon="1.179539"><ele>848.98</ele><time>2011-09-16T08:33:53Z</time></trkpt><trkpt lat="42.529867" lon="1.179710"><ele>848.50</ele><time>2011-09-16T08:33:54Z</time></trkpt><trkpt lat="42.529717" lon="1.179898"><ele>848.50</ele><time>2011-09-16T08:33:55Z</time></trkpt><trkpt lat="42.529555" lon="1.180086"><ele>848.02</ele><time>2011-09-16T08:33:56Z</time></trkpt><trkpt lat="42.528771" lon="1.180983"><ele>848.50</ele><time>2011-09-16T08:34:01Z</time></trkpt><trkpt lat="42.528655" lon="1.181217"><ele>848.98</ele><time>2011-09-16T08:34:02Z</time></trkpt><trkpt lat="42.528556" lon="1.181477"><ele>848.50</ele><time>2011-09-16T08:34:03Z</time></trkpt><trkpt lat="42.528473" lon="1.181756"><ele>848.02</ele><time>2011-09-16T08:34:04Z</time></trkpt><trkpt lat="42.528407" lon="1.182045"><ele>847.06</ele><time>2011-09-16T08:34:05Z</time></trkpt><trkpt lat="42.528348" lon="1.182332"><ele>844.66</ele><time>2011-09-16T08:34:06Z</time></trkpt><trkpt lat="42.527822" lon="1.184144"><ele>840.81</ele><time>2011-09-16T08:34:13Z</time></trkpt><trkpt lat="42.527707" lon="1.184343"><ele>841.29</ele><time>2011-09-16T08:34:14Z</time></trkpt><trkpt lat="42.527538" lon="1.184493"><ele>841.77</ele><time>2011-09-16T08:34:15Z</time></trkpt><trkpt lat="42.527338" lon="1.184593"><ele>842.73</ele><time>2011-09-16T08:34:16Z</time></trkpt><trkpt lat="42.527126" lon="1.184685"><ele>843.69</ele><time>2011-09-16T08:34:17Z</time></trkpt><trkpt lat="42.526912" lon="1.184782"><ele>844.66</ele><time>2011-09-16T08:34:18Z</time></trkpt><trkpt lat="42.525541" lon="1.185811"><ele>847.06</ele><time>2011-09-16T08:34:26Z</time></trkpt><trkpt lat="42.525449" lon="1.185986"><ele>847.54</ele><time>2011-09-16T08:34:27Z</time></trkpt><trkpt lat="42.525422" lon="1.186206"><ele>847.54</ele><time>2011-09-16T08:34:28Z</time></trkpt><trkpt lat="42.525398" lon="1.186418"><ele>848.50</ele><time>2011-09-16T08:34:29Z</time></trkpt><trkpt lat="42.525399" lon="1.186632"><ele>848.50</ele><time>2011-09-16T08:34:30Z</time></trkpt><trkpt lat="42.525426" lon="1.186853"><ele>848.50</ele><time>2011-09-16T08:34:31Z</time></trkpt><trkpt lat="42.525476" lon="1.187083"><ele>848.02</ele><time>2011-09-16T08:34:32Z</time></trkpt><trkpt lat="42.525527" lon="1.187323"><ele>848.50</ele><time>2011-09-16T08:34:33Z</time></trkpt><trkpt lat="42.525051" lon="1.189835"><ele>849.46</ele><time>2011-09-16T08:34:44Z</time></trkpt><trkpt lat="42.524878" lon="1.189994"><ele>848.98</ele><time>2011-09-16T08:34:45Z</time></trkpt><trkpt lat="42.524713" lon="1.190159"><ele>848.02</ele><time>2011-09-16T08:34:46Z</time></trkpt><trkpt lat="42.524561" lon="1.190336"><ele>848.98</ele><time>2011-09-16T08:34:47Z</time></trkpt><trkpt lat="42.524149" lon="1.190912"><ele>848.02</ele><time>2011-09-16T08:34:50Z</time></trkpt><trkpt lat="42.524046" lon="1.191136"><ele>848.50</ele><time>2011-09-16T08:34:51Z</time></trkpt><trkpt lat="42.523960" lon="1.191373"><ele>848.50</ele><time>2011-09-16T08:34:52Z</time></trkpt><trkpt lat="42.523607" lon="1.192527"><ele>843.69</ele><time>2011-09-16T08:34:57Z</time></trkpt><trkpt lat="42.523479" lon="1.192721"><ele>842.25</ele><time>2011-09-16T08:34:58Z</time></trkpt><trkpt lat="42.523289" lon="1.192864"><ele>840.81</ele><time>2011-09-16T08:34:59Z</time></trkpt><trkpt lat="42.523104" lon="1.192991"><ele>840.81</ele><time>2011-09-16T08:35:00Z</time></trkpt><trkpt lat="42.522905" lon="1.193090"><ele>841.29</ele><time>2011-09-16T08:35:01Z</time></trkpt><trkpt lat="42.522704" lon="1.193185"><ele>842.25</ele><time>2011-09-16T08:35:02Z</time></trkpt><trkpt lat="42.521739" lon="1.193638"><ele>841.77</ele><time>2011-09-16T08:35:07Z</time></trkpt><trkpt lat="42.521517" lon="1.193614"><ele>843.69</ele><time>2011-09-16T08:35:08Z</time></trkpt><trkpt lat="42.521303" lon="1.193525"><ele>844.18</ele><time>2011-09-16T08:35:09Z</time></trkpt><trkpt lat="42.521099" lon="1.193385"><ele>843.69</ele><time>2011-09-16T08:35:10Z</time></trkpt><trkpt lat="42.520892" lon="1.193223"><ele>844.18</ele><time>2011-09-16T08:35:11Z</time></trkpt><trkpt lat="42.520688" lon="1.193075"><ele>846.10</ele><time>2011-09-16T08:35:12Z</time></trkpt><trkpt lat="42.519541" lon="1.192524"><ele>848.50</ele><time>2011-09-16T08:35:18Z</time></trkpt><trkpt lat="42.519329" lon="1.192589"><ele>848.98</ele><time>2011-09-16T08:35:19Z</time></trkpt><trkpt lat="42.519120" lon="1.192684"><ele>848.50</ele><time>2011-09-16T08:35:20Z</time></trkpt><trkpt lat="42.518926" lon="1.192810"><ele>847.54</ele><time>2011-09-16T08:35:21Z</time></trkpt><trkpt lat="42.518740" lon="1.192951"><ele>845.62</ele><time>2011-09-16T08:35:22Z</time></trkpt><trkpt lat="42.518558" lon="1.193094"><ele>843.21</ele><time>2011-09-16T08:35:23Z</time></trkpt><trkpt lat="42.517374" lon="1.194131"><ele>840.33</ele><time>2011-09-16T08:35:30Z</time></trkpt><trkpt lat="42.516026" lon="1.194991"><ele>837.93</ele><time>2011-09-16T08:35:37Z</time></trkpt><trkpt lat="42.515387" lon="1.195112"><ele>838.89</ele><time>2011-09-16T08:35:40Z</time></trkpt><trkpt lat="42.515180" lon="1.195059"><ele>838.41</ele><time>2011-09-16T08:35:41Z</time></trkpt><trkpt lat="42.514971" lon="1.194959"><ele>839.37</ele><time>2011-09-16T08:35:42Z</time></trkpt><trkpt lat="42.514767" lon="1.194830"><ele>840.33</ele><time>2011-09-16T08:35:43Z</time></trkpt><trkpt lat="42.514574" lon="1.194710"><ele>841.29</ele><time>2011-09-16T08:35:44Z</time></trkpt><trkpt lat="42.514384" lon="1.194612"><ele>842.73</ele><time>2011-09-16T08:35:45Z</time></trkpt><trkpt lat="42.514194" lon="1.194541"><ele>843.21</ele><time>2011-09-16T08:35:46Z</time></trkpt><trkpt lat="42.513794" lon="1.194472"><ele>843.69</ele><time>2011-09-16T08:35:48Z</time></trkpt><trkpt lat="42.512974" lon="1.194523"><ele>843.21</ele><time>2011-09-16T08:35:52Z</time></trkpt><trkpt lat="42.512784" lon="1.194596"><ele>843.69</ele><time>2011-09-16T08:35:53Z</time></trkpt><trkpt lat="42.512591" lon="1.194705"><ele>843.69</ele><time>2011-09-16T08:35:54Z</time></trkpt><trkpt lat="42.512399" lon="1.194846"><ele>844.18</ele><time>2011-09-16T08:35:55Z</time></trkpt><trkpt lat="42.512212" lon="1.195014"><ele>843.69</ele><time>2011-09-16T08:35:56Z</time></trkpt><trkpt lat="42.512030" lon="1.195204"><ele>844.18</ele><time>2011-09-16T08:35:57Z</time></trkpt><trkpt lat="42.511857" lon="1.195414"><ele>844.18</ele><time>2011-09-16T08:35:58Z</time></trkpt><trkpt lat="42.511690" lon="1.195637"><ele>843.69</ele><time>2011-09-16T08:35:59Z</time></trkpt><trkpt lat="42.510909" lon="1.197218"><ele>842.73</ele><time>2011-09-16T08:36:05Z</time></trkpt><trkpt lat="42.509831" lon="1.200149"><ele>831.68</ele><time>2011-09-16T08:36:16Z</time></trkpt><trkpt lat="42.509569" lon="1.200597"><ele>828.79</ele><time>2011-09-16T08:36:18Z</time></trkpt><trkpt lat="42.509402" lon="1.200788"><ele>827.83</ele><time>2011-09-16T08:36:19Z</time></trkpt><trkpt lat="42.509193" lon="1.200935"><ele>827.35</ele><time>2011-09-16T08:36:20Z</time></trkpt><trkpt lat="42.508971" lon="1.201066"><ele>827.83</ele><time>2011-09-16T08:36:21Z</time></trkpt><trkpt lat="42.508759" lon="1.201201"><ele>827.83</ele><time>2011-09-16T08:36:22Z</time></trkpt><trkpt lat="42.507872" lon="1.201989"><ele>830.24</ele><time>2011-09-16T08:36:27Z</time></trkpt><trkpt lat="42.507439" lon="1.202581"><ele>831.68</ele><time>2011-09-16T08:36:30Z</time></trkpt><trkpt lat="42.507265" lon="1.202733"><ele>831.68</ele><time>2011-09-16T08:36:31Z</time></trkpt><trkpt lat="42.507073" lon="1.202860"><ele>831.68</ele><time>2011-09-16T08:36:32Z</time></trkpt><trkpt lat="42.506865" lon="1.202955"><ele>831.68</ele><time>2011-09-16T08:36:33Z</time></trkpt><trkpt lat="42.506643" lon="1.203005"><ele>830.72</ele><time>2011-09-16T08:36:34Z</time></trkpt><trkpt lat="42.506411" lon="1.203019"><ele>829.76</ele><time>2011-09-16T08:36:35Z</time></trkpt><trkpt lat="42.506175" lon="1.203015"><ele>829.27</ele><time>2011-09-16T08:36:36Z</time></trkpt><trkpt lat="42.505939" lon="1.202992"><ele>829.27</ele><time>2011-09-16T08:36:37Z</time></trkpt><trkpt lat="42.505706" lon="1.202950"><ele>829.27</ele><time>2011-09-16T08:36:38Z</time></trkpt><trkpt lat="42.505475" lon="1.202882"><ele>828.79</ele><time>2011-09-16T08:36:39Z</time></trkpt><trkpt lat="42.505252" lon="1.202805"><ele>828.79</ele><time>2011-09-16T08:36:40Z</time></trkpt><trkpt lat="42.503758" lon="1.202706"><ele>828.79</ele><time>2011-09-16T08:36:47Z</time></trkpt><trkpt lat="42.503570" lon="1.202897"><ele>830.72</ele><time>2011-09-16T08:36:48Z</time></trkpt><trkpt lat="42.502160" lon="1.203424"><ele>833.60</ele><time>2011-09-16T08:36:55Z</time></trkpt><trkpt lat="42.500962" lon="1.203671"><ele>834.08</ele><time>2011-09-16T08:37:01Z</time></trkpt><trkpt lat="42.500782" lon="1.203796"><ele>834.08</ele><time>2011-09-16T08:37:02Z</time></trkpt><trkpt lat="42.500628" lon="1.203987"><ele>834.08</ele><time>2011-09-16T08:37:03Z</time></trkpt><trkpt lat="42.500495" lon="1.204200"><ele>834.08</ele><time>2011-09-16T08:37:04Z</time></trkpt><trkpt lat="42.500377" lon="1.204431"><ele>834.08</ele><time>2011-09-16T08:37:05Z</time></trkpt><trkpt lat="42.500284" lon="1.204679"><ele>834.08</ele><time>2011-09-16T08:37:06Z</time></trkpt><trkpt lat="42.500212" lon="1.204941"><ele>833.60</ele><time>2011-09-16T08:37:07Z</time></trkpt></trkseg></trk><trk><name>ACTIVE LOG: 16 SEP 2011 10:37</name><trkseg><trkpt lat="42.500174" lon="1.205211"><ele>833.60</ele><time>2011-09-16T08:37:08Z</time></trkpt><trkpt lat="42.500158" lon="1.205485"><ele>832.64</ele><time>2011-09-16T08:37:09Z</time></trkpt><trkpt lat="42.500180" lon="1.205757"><ele>832.16</ele><time>2011-09-16T08:37:10Z</time></trkpt><trkpt lat="42.500244" lon="1.206026"><ele>831.20</ele><time>2011-09-16T08:37:11Z</time></trkpt><trkpt lat="42.500280" lon="1.206302"><ele>829.27</ele><time>2011-09-16T08:37:12Z</time></trkpt><trkpt lat="42.500295" lon="1.206582"><ele>827.83</ele><time>2011-09-16T08:37:13Z</time></trkpt><trkpt lat="42.500282" lon="1.206862"><ele>826.87</ele><time>2011-09-16T08:37:14Z</time></trkpt><trkpt lat="42.500239" lon="1.207132"><ele>825.43</ele><time>2011-09-16T08:37:15Z</time></trkpt><trkpt lat="42.500167" lon="1.207391"><ele>823.99</ele><time>2011-09-16T08:37:16Z</time></trkpt><trkpt lat="42.500068" lon="1.207637"><ele>822.06</ele><time>2011-09-16T08:37:17Z</time></trkpt><trkpt lat="42.499957" lon="1.207865"><ele>821.10</ele><time>2011-09-16T08:37:18Z</time></trkpt><trkpt lat="42.499839" lon="1.208072"><ele>819.66</ele><time>2011-09-16T08:37:19Z</time></trkpt><trkpt lat="42.499721" lon="1.208255"><ele>818.70</ele><time>2011-09-16T08:37:20Z</time></trkpt><trkpt lat="42.499365" lon="1.208673"><ele>816.30</ele><time>2011-09-16T08:37:23Z</time></trkpt><trkpt lat="42.499238" lon="1.208770"><ele>814.85</ele><time>2011-09-16T08:37:24Z</time></trkpt><trkpt lat="42.499109" lon="1.208840"><ele>813.89</ele><time>2011-09-16T08:37:25Z</time></trkpt><trkpt lat="42.498981" lon="1.208895"><ele>812.45</ele><time>2011-09-16T08:37:26Z</time></trkpt><trkpt lat="42.498844" lon="1.208931"><ele>812.93</ele><time>2011-09-16T08:37:27Z</time></trkpt><trkpt lat="42.497512" lon="1.209101"><ele>814.37</ele><time>2011-09-16T08:37:37Z</time></trkpt><trkpt lat="42.497398" lon="1.209139"><ele>814.37</ele><time>2011-09-16T08:37:38Z</time></trkpt><trkpt lat="42.496696" lon="1.209718"><ele>811.49</ele><time>2011-09-16T08:37:46Z</time></trkpt><trkpt lat="42.496148" lon="1.210929"><ele>807.64</ele><time>2011-09-16T08:37:56Z</time></trkpt><trkpt lat="42.495847" lon="1.211674"><ele>804.28</ele><time>2011-09-16T08:38:02Z</time></trkpt><trkpt lat="42.495679" lon="1.212100"><ele>802.36</ele><time>2011-09-16T08:38:06Z</time></trkpt><trkpt lat="42.495612" lon="1.212192"><ele>799.47</ele><time>2011-09-16T08:38:07Z</time></trkpt><trkpt lat="42.495523" lon="1.212200"><ele>800.44</ele><time>2011-09-16T08:38:08Z</time></trkpt><trkpt lat="42.495435" lon="1.212079"><ele>802.84</ele><time>2011-09-16T08:38:09Z</time></trkpt><trkpt lat="42.495344" lon="1.211994"><ele>805.24</ele><time>2011-09-16T08:38:10Z</time></trkpt><trkpt lat="42.495278" lon="1.211894"><ele>805.24</ele><time>2011-09-16T08:38:11Z</time></trkpt><trkpt lat="42.495186" lon="1.211842"><ele>805.72</ele><time>2011-09-16T08:38:12Z</time></trkpt><trkpt lat="42.495084" lon="1.211803"><ele>805.72</ele><time>2011-09-16T08:38:13Z</time></trkpt><trkpt lat="42.494987" lon="1.211769"><ele>806.20</ele><time>2011-09-16T08:38:14Z</time></trkpt><trkpt lat="42.494167" lon="1.211457"><ele>811.01</ele><time>2011-09-16T08:38:22Z</time></trkpt><trkpt lat="42.494053" lon="1.211449"><ele>811.01</ele><time>2011-09-16T08:38:23Z</time></trkpt><trkpt lat="42.493937" lon="1.211473"><ele>810.53</ele><time>2011-09-16T08:38:24Z</time></trkpt><trkpt lat="42.493821" lon="1.211530"><ele>810.53</ele><time>2011-09-16T08:38:25Z</time></trkpt><trkpt lat="42.493698" lon="1.211606"><ele>811.01</ele><time>2011-09-16T08:38:26Z</time></trkpt><trkpt lat="42.493591" lon="1.211716"><ele>811.01</ele><time>2011-09-16T08:38:27Z</time></trkpt><trkpt lat="42.493492" lon="1.211843"><ele>811.49</ele><time>2011-09-16T08:38:28Z</time></trkpt><trkpt lat="42.493396" lon="1.211976"><ele>811.97</ele><time>2011-09-16T08:38:29Z</time></trkpt><trkpt lat="42.493099" lon="1.212305"><ele>813.89</ele><time>2011-09-16T08:38:32Z</time></trkpt><trkpt lat="42.492989" lon="1.212367"><ele>814.37</ele><time>2011-09-16T08:38:33Z</time></trkpt><trkpt lat="42.492880" lon="1.212402"><ele>814.85</ele><time>2011-09-16T08:38:34Z</time></trkpt><trkpt lat="42.492763" lon="1.212402"><ele>815.34</ele><time>2011-09-16T08:38:35Z</time></trkpt><trkpt lat="42.492661" lon="1.212398"><ele>815.34</ele><time>2011-09-16T08:38:36Z</time></trkpt><trkpt lat="42.491468" lon="1.211623"><ele>819.66</ele><time>2011-09-16T08:38:44Z</time></trkpt><trkpt lat="42.491410" lon="1.211431"><ele>820.62</ele><time>2011-09-16T08:38:45Z</time></trkpt><trkpt lat="42.491014" lon="1.210829"><ele>821.58</ele><time>2011-09-16T08:38:49Z</time></trkpt><trkpt lat="42.490904" lon="1.210733"><ele>822.06</ele><time>2011-09-16T08:38:50Z</time></trkpt><trkpt lat="42.490781" lon="1.210655"><ele>823.03</ele><time>2011-09-16T08:38:51Z</time></trkpt><trkpt lat="42.490647" lon="1.210629"><ele>823.03</ele><time>2011-09-16T08:38:52Z</time></trkpt><trkpt lat="42.490508" lon="1.210598"><ele>825.91</ele><time>2011-09-16T08:38:53Z</time></trkpt><trkpt lat="42.490337" lon="1.210580"><ele>827.35</ele><time>2011-09-16T08:38:54Z</time></trkpt><trkpt lat="42.490139" lon="1.210581"><ele>825.91</ele><time>2011-09-16T08:38:55Z</time></trkpt><trkpt lat="42.488615" lon="1.210813"><ele>810.05</ele><time>2011-09-16T08:39:04Z</time></trkpt><trkpt lat="42.488479" lon="1.210916"><ele>808.61</ele><time>2011-09-16T08:39:05Z</time></trkpt><trkpt lat="42.488352" lon="1.211052"><ele>806.68</ele><time>2011-09-16T08:39:06Z</time></trkpt><trkpt lat="42.488246" lon="1.211219"><ele>805.72</ele><time>2011-09-16T08:39:07Z</time></trkpt><trkpt lat="42.488138" lon="1.211388"><ele>804.76</ele><time>2011-09-16T08:39:08Z</time></trkpt><trkpt lat="42.488040" lon="1.211565"><ele>803.80</ele><time>2011-09-16T08:39:09Z</time></trkpt><trkpt lat="42.487948" lon="1.211747"><ele>802.84</ele><time>2011-09-16T08:39:10Z</time></trkpt><trkpt lat="42.487522" lon="1.212354"><ele>801.40</ele><time>2011-09-16T08:39:14Z</time></trkpt><trkpt lat="42.487381" lon="1.212442"><ele>800.44</ele><time>2011-09-16T08:39:15Z</time></trkpt><trkpt lat="42.487223" lon="1.212493"><ele>799.95</ele><time>2011-09-16T08:39:16Z</time></trkpt><trkpt lat="42.487058" lon="1.212510"><ele>798.99</ele><time>2011-09-16T08:39:17Z</time></trkpt><trkpt lat="42.486885" lon="1.212492"><ele>798.51</ele><time>2011-09-16T08:39:18Z</time></trkpt><trkpt lat="42.486708" lon="1.212437"><ele>797.55</ele><time>2011-09-16T08:39:19Z</time></trkpt><trkpt lat="42.486543" lon="1.212359"><ele>797.07</ele><time>2011-09-16T08:39:20Z</time></trkpt><trkpt lat="42.486380" lon="1.212261"><ele>797.07</ele><time>2011-09-16T08:39:21Z</time></trkpt><trkpt lat="42.486069" lon="1.212022"><ele>796.11</ele><time>2011-09-16T08:39:23Z</time></trkpt><trkpt lat="42.485925" lon="1.211864"><ele>796.11</ele><time>2011-09-16T08:39:24Z</time></trkpt><trkpt lat="42.485784" lon="1.211674"><ele>797.07</ele><time>2011-09-16T08:39:25Z</time></trkpt><trkpt lat="42.484728" lon="1.210198"><ele>801.88</ele><time>2011-09-16T08:39:32Z</time></trkpt><trkpt lat="42.484030" lon="1.209228"><ele>805.72</ele><time>2011-09-16T08:39:37Z</time></trkpt><trkpt lat="42.483919" lon="1.208996"><ele>806.20</ele><time>2011-09-16T08:39:38Z</time></trkpt><trkpt lat="42.483825" lon="1.208749"><ele>806.68</ele><time>2011-09-16T08:39:39Z</time></trkpt><trkpt lat="42.483207" lon="1.207386"><ele>811.97</ele><time>2011-09-16T08:39:45Z</time></trkpt><trkpt lat="42.483044" lon="1.207234"><ele>812.93</ele><time>2011-09-16T08:39:46Z</time></trkpt><trkpt lat="42.482835" lon="1.207139"><ele>814.37</ele><time>2011-09-16T08:39:47Z</time></trkpt><trkpt lat="42.482620" lon="1.207076"><ele>814.37</ele><time>2011-09-16T08:39:48Z</time></trkpt><trkpt lat="42.482399" lon="1.207037"><ele>813.89</ele><time>2011-09-16T08:39:49Z</time></trkpt><trkpt lat="42.482188" lon="1.206993"><ele>813.41</ele><time>2011-09-16T08:39:50Z</time></trkpt><trkpt lat="42.480580" lon="1.206283"><ele>810.53</ele><time>2011-09-16T08:39:58Z</time></trkpt><trkpt lat="42.479501" lon="1.205429"><ele>805.72</ele><time>2011-09-16T08:40:05Z</time></trkpt><trkpt lat="42.479382" lon="1.205260"><ele>805.24</ele><time>2011-09-16T08:40:06Z</time></trkpt><trkpt lat="42.479276" lon="1.205067"><ele>804.76</ele><time>2011-09-16T08:40:07Z</time></trkpt><trkpt lat="42.479191" lon="1.204854"><ele>803.80</ele><time>2011-09-16T08:40:08Z</time></trkpt><trkpt lat="42.479106" lon="1.204633"><ele>802.36</ele><time>2011-09-16T08:40:09Z</time></trkpt><trkpt lat="42.478348" lon="1.203190"><ele>800.44</ele><time>2011-09-16T08:40:16Z</time></trkpt><trkpt lat="42.478186" lon="1.203117"><ele>799.95</ele><time>2011-09-16T08:40:17Z</time></trkpt><trkpt lat="42.477999" lon="1.203096"><ele>800.44</ele><time>2011-09-16T08:40:18Z</time></trkpt><trkpt lat="42.477753" lon="1.203122"><ele>800.44</ele><time>2011-09-16T08:40:19Z</time></trkpt><trkpt lat="42.477531" lon="1.203152"><ele>800.92</ele><time>2011-09-16T08:40:20Z</time></trkpt><trkpt lat="42.477323" lon="1.203218"><ele>801.40</ele><time>2011-09-16T08:40:21Z</time></trkpt><trkpt lat="42.477116" lon="1.203277"><ele>802.36</ele><time>2011-09-16T08:40:22Z</time></trkpt><trkpt lat="42.476912" lon="1.203305"><ele>802.84</ele><time>2011-09-16T08:40:23Z</time></trkpt><trkpt lat="42.476717" lon="1.203302"><ele>803.32</ele><time>2011-09-16T08:40:24Z</time></trkpt><trkpt lat="42.476525" lon="1.203257"><ele>803.80</ele><time>2011-09-16T08:40:25Z</time></trkpt><trkpt lat="42.476342" lon="1.203186"><ele>804.28</ele><time>2011-09-16T08:40:26Z</time></trkpt><trkpt lat="42.476161" lon="1.203104"><ele>804.76</ele><time>2011-09-16T08:40:27Z</time></trkpt><trkpt lat="42.474113" lon="1.202000"><ele>798.51</ele><time>2011-09-16T08:40:38Z</time></trkpt><trkpt lat="42.472845" lon="1.201772"><ele>794.19</ele><time>2011-09-16T08:40:44Z</time></trkpt><trkpt lat="42.472631" lon="1.201821"><ele>792.26</ele><time>2011-09-16T08:40:45Z</time></trkpt><trkpt lat="42.472429" lon="1.201901"><ele>791.78</ele><time>2011-09-16T08:40:46Z</time></trkpt><trkpt lat="42.472209" lon="1.202030"><ele>789.86</ele><time>2011-09-16T08:40:47Z</time></trkpt><trkpt lat="42.472009" lon="1.202159"><ele>788.90</ele><time>2011-09-16T08:40:48Z</time></trkpt><trkpt lat="42.471195" lon="1.202541"><ele>786.02</ele><time>2011-09-16T08:40:52Z</time></trkpt><trkpt lat="42.470987" lon="1.202583"><ele>785.53</ele><time>2011-09-16T08:40:53Z</time></trkpt><trkpt lat="42.470372" lon="1.202569"><ele>784.09</ele><time>2011-09-16T08:40:56Z</time></trkpt><trkpt lat="42.470169" lon="1.202513"><ele>783.61</ele><time>2011-09-16T08:40:57Z</time></trkpt><trkpt lat="42.469968" lon="1.202433"><ele>783.13</ele><time>2011-09-16T08:40:58Z</time></trkpt><trkpt lat="42.469769" lon="1.202331"><ele>782.65</ele><time>2011-09-16T08:40:59Z</time></trkpt><trkpt lat="42.469573" lon="1.202213"><ele>782.17</ele><time>2011-09-16T08:41:00Z</time></trkpt><trkpt lat="42.469377" lon="1.202082"><ele>782.17</ele><time>2011-09-16T08:41:01Z</time></trkpt><trkpt lat="42.467464" lon="1.200733"><ele>788.90</ele><time>2011-09-16T08:41:11Z</time></trkpt><trkpt lat="42.466704" lon="1.199817"><ele>792.26</ele><time>2011-09-16T08:41:17Z</time></trkpt><trkpt lat="42.466640" lon="1.199644"><ele>791.30</ele><time>2011-09-16T08:41:18Z</time></trkpt><trkpt lat="42.466594" lon="1.199456"><ele>790.82</ele><time>2011-09-16T08:41:19Z</time></trkpt><trkpt lat="42.466571" lon="1.199255"><ele>790.34</ele><time>2011-09-16T08:41:20Z</time></trkpt><trkpt lat="42.466568" lon="1.199047"><ele>790.34</ele><time>2011-09-16T08:41:21Z</time></trkpt><trkpt lat="42.466586" lon="1.198832"><ele>789.86</ele><time>2011-09-16T08:41:22Z</time></trkpt><trkpt lat="42.466625" lon="1.198607"><ele>789.86</ele><time>2011-09-16T08:41:23Z</time></trkpt><trkpt lat="42.466676" lon="1.198370"><ele>789.86</ele><time>2011-09-16T08:41:24Z</time></trkpt><trkpt lat="42.466758" lon="1.196753"><ele>786.50</ele><time>2011-09-16T08:41:30Z</time></trkpt><trkpt lat="42.466774" lon="1.196192"><ele>786.50</ele><time>2011-09-16T08:41:32Z</time></trkpt><trkpt lat="42.466808" lon="1.195907"><ele>786.50</ele><time>2011-09-16T08:41:33Z</time></trkpt><trkpt lat="42.467076" lon="1.193919"><ele>786.98</ele><time>2011-09-16T08:41:40Z</time></trkpt><trkpt lat="42.467253" lon="1.192136"><ele>788.42</ele><time>2011-09-16T08:41:47Z</time></trkpt><trkpt lat="42.467199" lon="1.191898"><ele>787.94</ele><time>2011-09-16T08:41:48Z</time></trkpt><trkpt lat="42.467112" lon="1.191665"><ele>787.94</ele><time>2011-09-16T08:41:49Z</time></trkpt><trkpt lat="42.466988" lon="1.191445"><ele>787.94</ele><time>2011-09-16T08:41:50Z</time></trkpt><trkpt lat="42.466844" lon="1.191221"><ele>787.94</ele><time>2011-09-16T08:41:51Z</time></trkpt><trkpt lat="42.466729" lon="1.190971"><ele>787.94</ele><time>2011-09-16T08:41:52Z</time></trkpt><trkpt lat="42.466632" lon="1.190700"><ele>787.94</ele><time>2011-09-16T08:41:53Z</time></trkpt><trkpt lat="42.466555" lon="1.190417"><ele>787.94</ele><time>2011-09-16T08:41:54Z</time></trkpt><trkpt lat="42.466478" lon="1.190130"><ele>787.94</ele><time>2011-09-16T08:41:55Z</time></trkpt><trkpt lat="42.465879" lon="1.188029"><ele>789.38</ele><time>2011-09-16T08:42:03Z</time></trkpt><trkpt lat="42.465855" lon="1.187755"><ele>789.38</ele><time>2011-09-16T08:42:04Z</time></trkpt><trkpt lat="42.465992" lon="1.185853"><ele>792.26</ele><time>2011-09-16T08:42:11Z</time></trkpt><trkpt lat="42.466120" lon="1.183749"><ele>791.78</ele><time>2011-09-16T08:42:19Z</time></trkpt><trkpt lat="42.465751" lon="1.182201"><ele>788.90</ele><time>2011-09-16T08:42:25Z</time></trkpt><trkpt lat="42.465608" lon="1.181977"><ele>787.94</ele><time>2011-09-16T08:42:26Z</time></trkpt><trkpt lat="42.465449" lon="1.181761"><ele>786.98</ele><time>2011-09-16T08:42:27Z</time></trkpt><trkpt lat="42.464958" lon="1.181163"><ele>785.05</ele><time>2011-09-16T08:42:30Z</time></trkpt><trkpt lat="42.463745" lon="1.179544"><ele>775.92</ele><time>2011-09-16T08:42:38Z</time></trkpt><trkpt lat="42.462651" lon="1.177495"><ele>773.04</ele><time>2011-09-16T08:42:47Z</time></trkpt><trkpt lat="42.462582" lon="1.177251"><ele>773.04</ele><time>2011-09-16T08:42:48Z</time></trkpt><trkpt lat="42.462045" lon="1.175468"><ele>772.08</ele><time>2011-09-16T08:42:55Z</time></trkpt><trkpt lat="42.460938" lon="1.173373"><ele>769.67</ele><time>2011-09-16T08:43:04Z</time></trkpt><trkpt lat="42.460523" lon="1.172368"><ele>768.71</ele><time>2011-09-16T08:43:08Z</time></trkpt><trkpt lat="42.459851" lon="1.170661"><ele>768.23</ele><time>2011-09-16T08:43:15Z</time></trkpt><trkpt lat="42.459695" lon="1.170459"><ele>768.23</ele><time>2011-09-16T08:43:16Z</time></trkpt><trkpt lat="42.458348" lon="1.169093"><ele>773.04</ele><time>2011-09-16T08:43:24Z</time></trkpt><trkpt lat="42.457225" lon="1.168117"><ele>775.92</ele><time>2011-09-16T08:43:31Z</time></trkpt><trkpt lat="42.456370" lon="1.167236"><ele>769.67</ele><time>2011-09-16T08:43:37Z</time></trkpt><trkpt lat="42.456257" lon="1.167022"><ele>768.23</ele><time>2011-09-16T08:43:38Z</time></trkpt><trkpt lat="42.456153" lon="1.166787"><ele>766.79</ele><time>2011-09-16T08:43:39Z</time></trkpt><trkpt lat="42.456056" lon="1.166536"><ele>765.83</ele><time>2011-09-16T08:43:40Z</time></trkpt><trkpt lat="42.455968" lon="1.166270"><ele>764.39</ele><time>2011-09-16T08:43:41Z</time></trkpt><trkpt lat="42.455892" lon="1.165989"><ele>763.42</ele><time>2011-09-16T08:43:42Z</time></trkpt><trkpt lat="42.455828" lon="1.165698"><ele>762.46</ele><time>2011-09-16T08:43:43Z</time></trkpt><trkpt lat="42.455778" lon="1.165401"><ele>761.50</ele><time>2011-09-16T08:43:44Z</time></trkpt><trkpt lat="42.455739" lon="1.165103"><ele>760.54</ele><time>2011-09-16T08:43:45Z</time></trkpt><trkpt lat="42.455551" lon="1.162504"><ele>757.18</ele><time>2011-09-16T08:43:54Z</time></trkpt><trkpt lat="42.455354" lon="1.161732"><ele>755.73</ele><time>2011-09-16T08:43:57Z</time></trkpt><trkpt lat="42.455247" lon="1.161503"><ele>755.25</ele><time>2011-09-16T08:43:58Z</time></trkpt><trkpt lat="42.454582" lon="1.159479"><ele>755.73</ele><time>2011-09-16T08:44:06Z</time></trkpt><trkpt lat="42.454342" lon="1.158982"><ele>756.21</ele><time>2011-09-16T08:44:08Z</time></trkpt><trkpt lat="42.454178" lon="1.158756"><ele>756.69</ele><time>2011-09-16T08:44:09Z</time></trkpt><trkpt lat="42.454011" lon="1.158538"><ele>757.18</ele><time>2011-09-16T08:44:10Z</time></trkpt><trkpt lat="42.453825" lon="1.158335"><ele>757.18</ele><time>2011-09-16T08:44:11Z</time></trkpt><trkpt lat="42.453643" lon="1.158138"><ele>757.18</ele><time>2011-09-16T08:44:12Z</time></trkpt><trkpt lat="42.452254" lon="1.156337"><ele>758.62</ele><time>2011-09-16T08:44:21Z</time></trkpt><trkpt lat="42.452064" lon="1.155900"><ele>758.14</ele><time>2011-09-16T08:44:23Z</time></trkpt><trkpt lat="42.451999" lon="1.155662"><ele>757.66</ele><time>2011-09-16T08:44:24Z</time></trkpt><trkpt lat="42.451955" lon="1.155413"><ele>757.18</ele><time>2011-09-16T08:44:25Z</time></trkpt><trkpt lat="42.451931" lon="1.155155"><ele>757.18</ele><time>2011-09-16T08:44:26Z</time></trkpt><trkpt lat="42.451917" lon="1.154893"><ele>756.69</ele><time>2011-09-16T08:44:27Z</time></trkpt><trkpt lat="42.451768" lon="1.153211"><ele>752.37</ele><time>2011-09-16T08:44:34Z</time></trkpt><trkpt lat="42.451687" lon="1.152995"><ele>751.89</ele><time>2011-09-16T08:44:35Z</time></trkpt><trkpt lat="42.451577" lon="1.152792"><ele>751.41</ele><time>2011-09-16T08:44:36Z</time></trkpt><trkpt lat="42.451439" lon="1.152610"><ele>751.89</ele><time>2011-09-16T08:44:37Z</time></trkpt><trkpt lat="42.451292" lon="1.152454"><ele>751.89</ele><time>2011-09-16T08:44:38Z</time></trkpt><trkpt lat="42.451128" lon="1.152330"><ele>752.37</ele><time>2011-09-16T08:44:39Z</time></trkpt><trkpt lat="42.450978" lon="1.152209"><ele>751.89</ele><time>2011-09-16T08:44:40Z</time></trkpt><trkpt lat="42.450728" lon="1.151941"><ele>750.93</ele><time>2011-09-16T08:44:42Z</time></trkpt><trkpt lat="42.450633" lon="1.151778"><ele>750.45</ele><time>2011-09-16T08:44:43Z</time></trkpt><trkpt lat="42.450581" lon="1.151596"><ele>749.49</ele><time>2011-09-16T08:44:44Z</time></trkpt><trkpt lat="42.450551" lon="1.151396"><ele>749.00</ele><time>2011-09-16T08:44:45Z</time></trkpt><trkpt lat="42.450544" lon="1.151185"><ele>748.52</ele><time>2011-09-16T08:44:46Z</time></trkpt><trkpt lat="42.450551" lon="1.150966"><ele>748.52</ele><time>2011-09-16T08:44:47Z</time></trkpt><trkpt lat="42.450544" lon="1.150514"><ele>747.56</ele><time>2011-09-16T08:44:49Z</time></trkpt><trkpt lat="42.450504" lon="1.150293"><ele>746.60</ele><time>2011-09-16T08:44:50Z</time></trkpt><trkpt lat="42.450430" lon="1.150083"><ele>745.64</ele><time>2011-09-16T08:44:51Z</time></trkpt><trkpt lat="42.450337" lon="1.149882"><ele>744.68</ele><time>2011-09-16T08:44:52Z</time></trkpt><trkpt lat="42.450233" lon="1.149689"><ele>743.72</ele><time>2011-09-16T08:44:53Z</time></trkpt><trkpt lat="42.449941" lon="1.149117"><ele>741.31</ele><time>2011-09-16T08:44:56Z</time></trkpt><trkpt lat="42.449880" lon="1.148911"><ele>740.83</ele><time>2011-09-16T08:44:57Z</time></trkpt><trkpt lat="42.449845" lon="1.148694"><ele>740.35</ele><time>2011-09-16T08:44:58Z</time></trkpt><trkpt lat="42.449836" lon="1.148460"><ele>739.87</ele><time>2011-09-16T08:44:59Z</time></trkpt><trkpt lat="42.449834" lon="1.148213"><ele>739.87</ele><time>2011-09-16T08:45:00Z</time></trkpt><trkpt lat="42.449803" lon="1.145709"><ele>737.47</ele><time>2011-09-16T08:45:10Z</time></trkpt><trkpt lat="42.449773" lon="1.145471"><ele>737.47</ele><time>2011-09-16T08:45:11Z</time></trkpt><trkpt lat="42.449725" lon="1.145235"><ele>736.99</ele><time>2011-09-16T08:45:12Z</time></trkpt><trkpt lat="42.449652" lon="1.145006"><ele>736.99</ele><time>2011-09-16T08:45:13Z</time></trkpt><trkpt lat="42.449561" lon="1.144784"><ele>736.99</ele><time>2011-09-16T08:45:14Z</time></trkpt><trkpt lat="42.449448" lon="1.144589"><ele>736.51</ele><time>2011-09-16T08:45:15Z</time></trkpt><trkpt lat="42.449312" lon="1.144407"><ele>735.55</ele><time>2011-09-16T08:45:16Z</time></trkpt><trkpt lat="42.449164" lon="1.144228"><ele>735.55</ele><time>2011-09-16T08:45:17Z</time></trkpt><trkpt lat="42.449009" lon="1.144053"><ele>736.51</ele><time>2011-09-16T08:45:18Z</time></trkpt><trkpt lat="42.448107" lon="1.142940"><ele>741.79</ele><time>2011-09-16T08:45:24Z</time></trkpt><trkpt lat="42.448010" lon="1.142710"><ele>742.28</ele><time>2011-09-16T08:45:25Z</time></trkpt><trkpt lat="42.447932" lon="1.142464"><ele>742.76</ele><time>2011-09-16T08:45:26Z</time></trkpt><trkpt lat="42.447869" lon="1.142204"><ele>743.24</ele><time>2011-09-16T08:45:27Z</time></trkpt><trkpt lat="42.447822" lon="1.141934"><ele>743.24</ele><time>2011-09-16T08:45:28Z</time></trkpt><trkpt lat="42.447787" lon="1.141662"><ele>743.24</ele><time>2011-09-16T08:45:29Z</time></trkpt><trkpt lat="42.447767" lon="1.141391"><ele>743.72</ele><time>2011-09-16T08:45:30Z</time></trkpt><trkpt lat="42.447762" lon="1.141123"><ele>743.72</ele><time>2011-09-16T08:45:31Z</time></trkpt><trkpt lat="42.447770" lon="1.140860"><ele>743.72</ele><time>2011-09-16T08:45:32Z</time></trkpt><trkpt lat="42.447786" lon="1.140601"><ele>743.72</ele><time>2011-09-16T08:45:33Z</time></trkpt><trkpt lat="42.447777" lon="1.137752"><ele>737.95</ele><time>2011-09-16T08:45:44Z</time></trkpt><trkpt lat="42.447280" lon="1.136205"><ele>731.70</ele><time>2011-09-16T08:45:51Z</time></trkpt><trkpt lat="42.447045" lon="1.135881"><ele>729.78</ele><time>2011-09-16T08:45:53Z</time></trkpt><trkpt lat="42.446924" lon="1.135757"><ele>729.30</ele><time>2011-09-16T08:45:54Z</time></trkpt><trkpt lat="42.446803" lon="1.135656"><ele>728.34</ele><time>2011-09-16T08:45:55Z</time></trkpt><trkpt lat="42.446682" lon="1.135576"><ele>727.37</ele><time>2011-09-16T08:45:56Z</time></trkpt><trkpt lat="42.446561" lon="1.135513"><ele>726.89</ele><time>2011-09-16T08:45:57Z</time></trkpt><trkpt lat="42.446438" lon="1.135461"><ele>726.41</ele><time>2011-09-16T08:45:58Z</time></trkpt><trkpt lat="42.446313" lon="1.135422"><ele>725.45</ele><time>2011-09-16T08:45:59Z</time></trkpt><trkpt lat="42.446188" lon="1.135392"><ele>724.49</ele><time>2011-09-16T08:46:00Z</time></trkpt><trkpt lat="42.446063" lon="1.135378"><ele>724.01</ele><time>2011-09-16T08:46:01Z</time></trkpt><trkpt lat="42.445939" lon="1.135377"><ele>723.53</ele><time>2011-09-16T08:46:02Z</time></trkpt><trkpt lat="42.445818" lon="1.135382"><ele>723.05</ele><time>2011-09-16T08:46:03Z</time></trkpt><trkpt lat="42.444842" lon="1.135511"><ele>726.41</ele><time>2011-09-16T08:46:12Z</time></trkpt><trkpt lat="42.443765" lon="1.135446"><ele>733.62</ele><time>2011-09-16T08:46:23Z</time></trkpt><trkpt lat="42.443677" lon="1.135381"><ele>734.58</ele><time>2011-09-16T08:46:24Z</time></trkpt><trkpt lat="42.442750" lon="1.134710"><ele>736.99</ele><time>2011-09-16T08:46:35Z</time></trkpt><trkpt lat="42.441598" lon="1.133864"><ele>730.74</ele><time>2011-09-16T08:46:47Z</time></trkpt><trkpt lat="42.439660" lon="1.132574"><ele>720.16</ele><time>2011-09-16T08:47:02Z</time></trkpt><trkpt lat="42.438023" lon="1.131457"><ele>716.80</ele><time>2011-09-16T08:47:13Z</time></trkpt><trkpt lat="42.436523" lon="1.130572"><ele>714.88</ele><time>2011-09-16T08:47:22Z</time></trkpt><trkpt lat="42.436315" lon="1.130541"><ele>714.88</ele><time>2011-09-16T08:47:23Z</time></trkpt><trkpt lat="42.436098" lon="1.130533"><ele>715.36</ele><time>2011-09-16T08:47:24Z</time></trkpt><trkpt lat="42.435876" lon="1.130551"><ele>715.84</ele><time>2011-09-16T08:47:25Z</time></trkpt><trkpt lat="42.435648" lon="1.130599"><ele>716.32</ele><time>2011-09-16T08:47:26Z</time></trkpt><trkpt lat="42.435416" lon="1.130681"><ele>717.28</ele><time>2011-09-16T08:47:27Z</time></trkpt><trkpt lat="42.435182" lon="1.130790"><ele>718.72</ele><time>2011-09-16T08:47:28Z</time></trkpt><trkpt lat="42.434958" lon="1.130922"><ele>719.68</ele><time>2011-09-16T08:47:29Z</time></trkpt><trkpt lat="42.433762" lon="1.131745"><ele>724.49</ele><time>2011-09-16T08:47:35Z</time></trkpt><trkpt lat="42.433605" lon="1.131938"><ele>724.97</ele><time>2011-09-16T08:47:36Z</time></trkpt><trkpt lat="42.433464" lon="1.132155"><ele>725.45</ele><time>2011-09-16T08:47:37Z</time></trkpt><trkpt lat="42.433039" lon="1.132729"><ele>726.89</ele><time>2011-09-16T08:47:40Z</time></trkpt><trkpt lat="42.432871" lon="1.132880"><ele>727.37</ele><time>2011-09-16T08:47:41Z</time></trkpt><trkpt lat="42.432690" lon="1.133003"><ele>727.37</ele><time>2011-09-16T08:47:42Z</time></trkpt><trkpt lat="42.432498" lon="1.133093"><ele>727.37</ele><time>2011-09-16T08:47:43Z</time></trkpt><trkpt lat="42.432286" lon="1.133126"><ele>727.37</ele><time>2011-09-16T08:47:44Z</time></trkpt><trkpt lat="42.432064" lon="1.133112"><ele>726.89</ele><time>2011-09-16T08:47:45Z</time></trkpt><trkpt lat="42.431837" lon="1.133045"><ele>726.41</ele><time>2011-09-16T08:47:46Z</time></trkpt><trkpt lat="42.431609" lon="1.132965"><ele>724.97</ele><time>2011-09-16T08:47:47Z</time></trkpt><trkpt lat="42.430291" lon="1.132572"><ele>720.16</ele><time>2011-09-16T08:47:53Z</time></trkpt><trkpt lat="42.430096" lon="1.132474"><ele>719.20</ele><time>2011-09-16T08:47:54Z</time></trkpt><trkpt lat="42.429908" lon="1.132340"><ele>718.24</ele><time>2011-09-16T08:47:55Z</time></trkpt><trkpt lat="42.429728" lon="1.132170"><ele>717.28</ele><time>2011-09-16T08:47:56Z</time></trkpt><trkpt lat="42.429553" lon="1.131971"><ele>716.32</ele><time>2011-09-16T08:47:57Z</time></trkpt><trkpt lat="42.429384" lon="1.131759"><ele>715.84</ele><time>2011-09-16T08:47:58Z</time></trkpt><trkpt lat="42.428869" lon="1.131157"><ele>713.92</ele><time>2011-09-16T08:48:01Z</time></trkpt><trkpt lat="42.428681" lon="1.131001"><ele>712.95</ele><time>2011-09-16T08:48:02Z</time></trkpt><trkpt lat="42.428486" lon="1.130881"><ele>712.47</ele><time>2011-09-16T08:48:03Z</time></trkpt><trkpt lat="42.428286" lon="1.130801"><ele>711.51</ele><time>2011-09-16T08:48:04Z</time></trkpt><trkpt lat="42.428081" lon="1.130763"><ele>711.03</ele><time>2011-09-16T08:48:05Z</time></trkpt><trkpt lat="42.427876" lon="1.130767"><ele>710.55</ele><time>2011-09-16T08:48:06Z</time></trkpt><trkpt lat="42.427674" lon="1.130808"><ele>710.07</ele><time>2011-09-16T08:48:07Z</time></trkpt><trkpt lat="42.427476" lon="1.130879"><ele>710.55</ele><time>2011-09-16T08:48:08Z</time></trkpt><trkpt lat="42.427286" lon="1.130975"><ele>711.03</ele><time>2011-09-16T08:48:09Z</time></trkpt><trkpt lat="42.427099" lon="1.131093"><ele>711.03</ele><time>2011-09-16T08:48:10Z</time></trkpt><trkpt lat="42.426917" lon="1.131233"><ele>711.51</ele><time>2011-09-16T08:48:11Z</time></trkpt><trkpt lat="42.425862" lon="1.132145"><ele>710.55</ele><time>2011-09-16T08:48:17Z</time></trkpt><trkpt lat="42.425662" lon="1.132229"><ele>710.55</ele><time>2011-09-16T08:48:18Z</time></trkpt><trkpt lat="42.425448" lon="1.132253"><ele>710.07</ele><time>2011-09-16T08:48:19Z</time></trkpt><trkpt lat="42.425221" lon="1.132248"><ele>710.55</ele><time>2011-09-16T08:48:20Z</time></trkpt><trkpt lat="42.424989" lon="1.132189"><ele>710.55</ele><time>2011-09-16T08:48:21Z</time></trkpt><trkpt lat="42.424762" lon="1.132142"><ele>710.07</ele><time>2011-09-16T08:48:22Z</time></trkpt><trkpt lat="42.423869" lon="1.132267"><ele>710.07</ele><time>2011-09-16T08:48:26Z</time></trkpt><trkpt lat="42.423664" lon="1.132399"><ele>708.63</ele><time>2011-09-16T08:48:27Z</time></trkpt><trkpt lat="42.423457" lon="1.132536"><ele>709.11</ele><time>2011-09-16T08:48:28Z</time></trkpt><trkpt lat="42.421139" lon="1.133598"><ele>704.78</ele><time>2011-09-16T08:48:39Z</time></trkpt><trkpt lat="42.420041" lon="1.133462"><ele>706.71</ele><time>2011-09-16T08:48:44Z</time></trkpt><trkpt lat="42.419836" lon="1.133370"><ele>707.19</ele><time>2011-09-16T08:48:45Z</time></trkpt><trkpt lat="42.418450" lon="1.132588"><ele>707.67</ele><time>2011-09-16T08:48:52Z</time></trkpt><trkpt lat="42.418272" lon="1.132542"><ele>706.71</ele><time>2011-09-16T08:48:53Z</time></trkpt><trkpt lat="42.418106" lon="1.132521"><ele>705.75</ele><time>2011-09-16T08:48:54Z</time></trkpt><trkpt lat="42.417722" lon="1.132482"><ele>705.26</ele><time>2011-09-16T08:48:57Z</time></trkpt><trkpt lat="42.417628" lon="1.132451"><ele>704.78</ele><time>2011-09-16T08:48:58Z</time></trkpt><trkpt lat="42.417543" lon="1.132402"><ele>705.26</ele><time>2011-09-16T08:48:59Z</time></trkpt><trkpt lat="42.417476" lon="1.132339"><ele>706.23</ele><time>2011-09-16T08:49:00Z</time></trkpt><trkpt lat="42.417418" lon="1.132273"><ele>706.71</ele><time>2011-09-16T08:49:01Z</time></trkpt><trkpt lat="42.417357" lon="1.132220"><ele>707.19</ele><time>2011-09-16T08:49:02Z</time></trkpt><trkpt lat="42.417290" lon="1.132196"><ele>706.71</ele><time>2011-09-16T08:49:03Z</time></trkpt><trkpt lat="42.417211" lon="1.132201"><ele>706.23</ele><time>2011-09-16T08:49:04Z</time></trkpt><trkpt lat="42.416301" lon="1.132159"><ele>703.34</ele><time>2011-09-16T08:49:13Z</time></trkpt><trkpt lat="42.415036" lon="1.132312"><ele>697.57</ele><time>2011-09-16T08:49:24Z</time></trkpt><trkpt lat="42.413950" lon="1.132656"><ele>689.88</ele><time>2011-09-16T08:49:34Z</time></trkpt><trkpt lat="42.413030" lon="1.132371"><ele>690.84</ele><time>2011-09-16T08:49:43Z</time></trkpt><trkpt lat="42.412129" lon="1.131939"><ele>697.57</ele><time>2011-09-16T08:49:53Z</time></trkpt><trkpt lat="42.411878" lon="1.131666"><ele>696.61</ele><time>2011-09-16T08:49:57Z</time></trkpt><trkpt lat="42.411815" lon="1.131583"><ele>698.53</ele><time>2011-09-16T08:49:58Z</time></trkpt><trkpt lat="42.411269" lon="1.130497"><ele>710.07</ele><time>2011-09-16T08:50:10Z</time></trkpt><trkpt lat="42.410474" lon="1.129171"><ele>712.47</ele><time>2011-09-16T08:50:24Z</time></trkpt><trkpt lat="42.409778" lon="1.128063"><ele>724.49</ele><time>2011-09-16T08:50:36Z</time></trkpt><trkpt lat="42.409361" lon="1.127350"><ele>714.40</ele><time>2011-09-16T08:50:42Z</time></trkpt><trkpt lat="42.409267" lon="1.127249"><ele>713.44</ele><time>2011-09-16T08:50:43Z</time></trkpt><trkpt lat="42.409181" lon="1.127169"><ele>711.51</ele><time>2011-09-16T08:50:44Z</time></trkpt><trkpt lat="42.409081" lon="1.127117"><ele>709.59</ele><time>2011-09-16T08:50:45Z</time></trkpt><trkpt lat="42.408972" lon="1.127082"><ele>708.63</ele><time>2011-09-16T08:50:46Z</time></trkpt><trkpt lat="42.408856" lon="1.127062"><ele>707.67</ele><time>2011-09-16T08:50:47Z</time></trkpt><trkpt lat="42.408730" lon="1.127061"><ele>706.71</ele><time>2011-09-16T08:50:48Z</time></trkpt><trkpt lat="42.408611" lon="1.127098"><ele>704.78</ele><time>2011-09-16T08:50:49Z</time></trkpt><trkpt lat="42.408496" lon="1.127177"><ele>704.30</ele><time>2011-09-16T08:50:50Z</time></trkpt><trkpt lat="42.408388" lon="1.127293"><ele>702.38</ele><time>2011-09-16T08:50:51Z</time></trkpt><trkpt lat="42.408272" lon="1.127404"><ele>700.94</ele><time>2011-09-16T08:50:52Z</time></trkpt><trkpt lat="42.408156" lon="1.127521"><ele>699.98</ele><time>2011-09-16T08:50:53Z</time></trkpt><trkpt lat="42.407574" lon="1.128084"><ele>698.05</ele><time>2011-09-16T08:50:58Z</time></trkpt><trkpt lat="42.407440" lon="1.128155"><ele>699.02</ele><time>2011-09-16T08:50:59Z</time></trkpt><trkpt lat="42.407304" lon="1.128204"><ele>699.02</ele><time>2011-09-16T08:51:00Z</time></trkpt><trkpt lat="42.406066" lon="1.128569"><ele>698.53</ele><time>2011-09-16T08:51:10Z</time></trkpt><trkpt lat="42.405782" lon="1.128656"><ele>698.53</ele><time>2011-09-16T08:51:14Z</time></trkpt><trkpt lat="42.405743" lon="1.128661"><ele>698.05</ele><time>2011-09-16T08:51:15Z</time></trkpt><trkpt lat="42.405708" lon="1.128675"><ele>698.05</ele><time>2011-09-16T08:51:16Z</time></trkpt><trkpt lat="42.405679" lon="1.128700"><ele>698.05</ele><time>2011-09-16T08:51:17Z</time></trkpt><trkpt lat="42.405651" lon="1.128722"><ele>698.05</ele><time>2011-09-16T08:51:18Z</time></trkpt><trkpt lat="42.405625" lon="1.128741"><ele>698.05</ele><time>2011-09-16T08:51:19Z</time></trkpt><trkpt lat="42.405613" lon="1.128806"><ele>698.05</ele><time>2011-09-16T08:51:29Z</time></trkpt><trkpt lat="42.405580" lon="1.128727"><ele>697.09</ele><time>2011-09-16T08:54:05Z</time></trkpt></trkseg></trk><trk><name>ACTIVE LOG: 16 SEP 2011 10:54</name><trkseg><trkpt lat="42.405656" lon="1.128798"><ele>690.36</ele><time>2011-09-16T08:54:39Z</time></trkpt><trkpt lat="42.405661" lon="1.128822"><ele>690.84</ele><time>2011-09-16T08:56:05Z</time></trkpt><trkpt lat="42.405617" lon="1.128817"><ele>682.19</ele><time>2011-09-16T08:57:04Z</time></trkpt><trkpt lat="42.405588" lon="1.128840"><ele>682.19</ele><time>2011-09-16T08:57:05Z</time></trkpt><trkpt lat="42.405542" lon="1.128874"><ele>681.71</ele><time>2011-09-16T08:57:06Z</time></trkpt><trkpt lat="42.405474" lon="1.128915"><ele>681.71</ele><time>2011-09-16T08:57:07Z</time></trkpt><trkpt lat="42.405397" lon="1.128957"><ele>682.67</ele><time>2011-09-16T08:57:08Z</time></trkpt><trkpt lat="42.405317" lon="1.129000"><ele>684.12</ele><time>2011-09-16T08:57:09Z</time></trkpt><trkpt lat="42.404456" lon="1.129415"><ele>686.52</ele><time>2011-09-16T08:57:16Z</time></trkpt><trkpt lat="42.402861" lon="1.130474"><ele>696.13</ele><time>2011-09-16T08:57:26Z</time></trkpt><trkpt lat="42.401585" lon="1.130957"><ele>699.02</ele><time>2011-09-16T08:57:33Z</time></trkpt><trkpt lat="42.401195" lon="1.130962"><ele>698.53</ele><time>2011-09-16T08:57:35Z</time></trkpt><trkpt lat="42.401009" lon="1.130911"><ele>699.50</ele><time>2011-09-16T08:57:36Z</time></trkpt><trkpt lat="42.400829" lon="1.130823"><ele>700.46</ele><time>2011-09-16T08:57:37Z</time></trkpt><trkpt lat="42.400660" lon="1.130706"><ele>700.94</ele><time>2011-09-16T08:57:38Z</time></trkpt><trkpt lat="42.400503" lon="1.130562"><ele>700.94</ele><time>2011-09-16T08:57:39Z</time></trkpt><trkpt lat="42.400354" lon="1.130395"><ele>700.94</ele><time>2011-09-16T08:57:40Z</time></trkpt><trkpt lat="42.400219" lon="1.130210"><ele>701.42</ele><time>2011-09-16T08:57:41Z</time></trkpt><trkpt lat="42.400096" lon="1.130010"><ele>701.42</ele><time>2011-09-16T08:57:42Z</time></trkpt><trkpt lat="42.399980" lon="1.129797"><ele>701.42</ele><time>2011-09-16T08:57:43Z</time></trkpt><trkpt lat="42.399870" lon="1.129573"><ele>700.94</ele><time>2011-09-16T08:57:44Z</time></trkpt><trkpt lat="42.398982" lon="1.128023"><ele>701.42</ele><time>2011-09-16T08:57:51Z</time></trkpt><trkpt lat="42.398275" lon="1.127376"><ele>699.02</ele><time>2011-09-16T08:57:55Z</time></trkpt><trkpt lat="42.398067" lon="1.127254"><ele>698.53</ele><time>2011-09-16T08:57:56Z</time></trkpt><trkpt lat="42.395332" lon="1.126000"><ele>694.21</ele><time>2011-09-16T08:58:08Z</time></trkpt><trkpt lat="42.394045" lon="1.125516"><ele>690.84</ele><time>2011-09-16T08:58:14Z</time></trkpt><trkpt lat="42.393811" lon="1.125509"><ele>690.36</ele><time>2011-09-16T08:58:15Z</time></trkpt><trkpt lat="42.393576" lon="1.125531"><ele>689.88</ele><time>2011-09-16T08:58:16Z</time></trkpt><trkpt lat="42.392483" lon="1.125647"><ele>686.52</ele><time>2011-09-16T08:58:21Z</time></trkpt><trkpt lat="42.392273" lon="1.125605"><ele>686.04</ele><time>2011-09-16T08:58:22Z</time></trkpt><trkpt lat="42.392068" lon="1.125531"><ele>685.56</ele><time>2011-09-16T08:58:23Z</time></trkpt><trkpt lat="42.391868" lon="1.125421"><ele>684.60</ele><time>2011-09-16T08:58:24Z</time></trkpt><trkpt lat="42.391676" lon="1.125277"><ele>684.12</ele><time>2011-09-16T08:58:25Z</time></trkpt><trkpt lat="42.391494" lon="1.125099"><ele>683.15</ele><time>2011-09-16T08:58:26Z</time></trkpt><trkpt lat="42.391320" lon="1.124894"><ele>682.19</ele><time>2011-09-16T08:58:27Z</time></trkpt><trkpt lat="42.391150" lon="1.124666"><ele>681.23</ele><time>2011-09-16T08:58:28Z</time></trkpt><trkpt lat="42.390984" lon="1.124430"><ele>680.27</ele><time>2011-09-16T08:58:29Z</time></trkpt><trkpt lat="42.389738" lon="1.123057"><ele>677.39</ele><time>2011-09-16T08:58:36Z</time></trkpt><trkpt lat="42.388604" lon="1.122186"><ele>674.02</ele><time>2011-09-16T08:58:42Z</time></trkpt><trkpt lat="42.388456" lon="1.121980"><ele>673.54</ele><time>2011-09-16T08:58:43Z</time></trkpt><trkpt lat="42.388324" lon="1.121752"><ele>673.06</ele><time>2011-09-16T08:58:44Z</time></trkpt><trkpt lat="42.388210" lon="1.121502"><ele>672.58</ele><time>2011-09-16T08:58:45Z</time></trkpt><trkpt lat="42.388115" lon="1.121233"><ele>672.58</ele><time>2011-09-16T08:58:46Z</time></trkpt><trkpt lat="42.388041" lon="1.120951"><ele>672.10</ele><time>2011-09-16T08:58:47Z</time></trkpt><trkpt lat="42.387986" lon="1.120659"><ele>672.10</ele><time>2011-09-16T08:58:48Z</time></trkpt><trkpt lat="42.387945" lon="1.120365"><ele>671.62</ele><time>2011-09-16T08:58:49Z</time></trkpt><trkpt lat="42.387429" lon="1.118404"><ele>670.66</ele><time>2011-09-16T08:58:56Z</time></trkpt><trkpt lat="42.386932" lon="1.117461"><ele>670.66</ele><time>2011-09-16T08:59:00Z</time></trkpt><trkpt lat="42.386780" lon="1.117276"><ele>670.66</ele><time>2011-09-16T08:59:01Z</time></trkpt><trkpt lat="42.386620" lon="1.117118"><ele>670.66</ele><time>2011-09-16T08:59:02Z</time></trkpt><trkpt lat="42.386455" lon="1.116986"><ele>670.66</ele><time>2011-09-16T08:59:03Z</time></trkpt><trkpt lat="42.386291" lon="1.116873"><ele>670.66</ele><time>2011-09-16T08:59:04Z</time></trkpt><trkpt lat="42.386130" lon="1.116783"><ele>671.14</ele><time>2011-09-16T08:59:05Z</time></trkpt><trkpt lat="42.385972" lon="1.116716"><ele>671.14</ele><time>2011-09-16T08:59:06Z</time></trkpt><trkpt lat="42.385816" lon="1.116670"><ele>671.62</ele><time>2011-09-16T08:59:07Z</time></trkpt><trkpt lat="42.385665" lon="1.116637"><ele>672.10</ele><time>2011-09-16T08:59:08Z</time></trkpt><trkpt lat="42.384084" lon="1.116338"><ele>680.27</ele><time>2011-09-16T08:59:19Z</time></trkpt><trkpt lat="42.383302" lon="1.115736"><ele>681.23</ele><time>2011-09-16T08:59:26Z</time></trkpt><trkpt lat="42.383095" lon="1.115545"><ele>680.75</ele><time>2011-09-16T08:59:29Z</time></trkpt><trkpt lat="42.383061" lon="1.115544"><ele>680.75</ele><time>2011-09-16T08:59:30Z</time></trkpt><trkpt lat="42.383041" lon="1.115726"><ele>681.23</ele><time>2011-09-16T08:59:34Z</time></trkpt><trkpt lat="42.383066" lon="1.115784"><ele>681.23</ele><time>2011-09-16T08:59:35Z</time></trkpt><trkpt lat="42.383099" lon="1.115846"><ele>681.23</ele><time>2011-09-16T08:59:36Z</time></trkpt><trkpt lat="42.383138" lon="1.115910"><ele>681.23</ele><time>2011-09-16T08:59:37Z</time></trkpt><trkpt lat="42.383188" lon="1.115962"><ele>681.71</ele><time>2011-09-16T08:59:38Z</time></trkpt><trkpt lat="42.383247" lon="1.115993"><ele>681.71</ele><time>2011-09-16T08:59:39Z</time></trkpt><trkpt lat="42.383306" lon="1.116000"><ele>682.19</ele><time>2011-09-16T08:59:40Z</time></trkpt><trkpt lat="42.383361" lon="1.115999"><ele>682.19</ele><time>2011-09-16T08:59:41Z</time></trkpt><trkpt lat="42.383410" lon="1.116009"><ele>682.19</ele><time>2011-09-16T08:59:42Z</time></trkpt><trkpt lat="42.383454" lon="1.116031"><ele>682.19</ele><time>2011-09-16T08:59:43Z</time></trkpt><trkpt lat="42.383493" lon="1.116061"><ele>682.19</ele><time>2011-09-16T08:59:44Z</time></trkpt><trkpt lat="42.384018" lon="1.116406"><ele>682.19</ele><time>2011-09-16T08:59:51Z</time></trkpt><trkpt lat="42.384884" lon="1.116676"><ele>680.27</ele><time>2011-09-16T08:59:57Z</time></trkpt><trkpt lat="42.386237" lon="1.116982"><ele>675.94</ele><time>2011-09-16T09:00:04Z</time></trkpt><trkpt lat="42.386435" lon="1.117093"><ele>675.46</ele><time>2011-09-16T09:00:05Z</time></trkpt><trkpt lat="42.386621" lon="1.117227"><ele>674.98</ele><time>2011-09-16T09:00:06Z</time></trkpt><trkpt lat="42.386793" lon="1.117385"><ele>674.50</ele><time>2011-09-16T09:00:07Z</time></trkpt><trkpt lat="42.386954" lon="1.117567"><ele>674.50</ele><time>2011-09-16T09:00:08Z</time></trkpt><trkpt lat="42.387104" lon="1.117774"><ele>674.02</ele><time>2011-09-16T09:00:09Z</time></trkpt><trkpt lat="42.387241" lon="1.118002"><ele>674.02</ele><time>2011-09-16T09:00:10Z</time></trkpt><trkpt lat="42.387363" lon="1.118246"><ele>674.02</ele><time>2011-09-16T09:00:11Z</time></trkpt><trkpt lat="42.387472" lon="1.118499"><ele>674.02</ele><time>2011-09-16T09:00:12Z</time></trkpt><trkpt lat="42.387571" lon="1.118752"><ele>674.02</ele><time>2011-09-16T09:00:13Z</time></trkpt><trkpt lat="42.388048" lon="1.120674"><ele>675.46</ele><time>2011-09-16T09:00:20Z</time></trkpt><trkpt lat="42.388228" lon="1.121508"><ele>675.94</ele><time>2011-09-16T09:00:23Z</time></trkpt><trkpt lat="42.388326" lon="1.121765"><ele>676.42</ele><time>2011-09-16T09:00:24Z</time></trkpt><trkpt lat="42.388444" lon="1.122006"><ele>676.42</ele><time>2011-09-16T09:00:25Z</time></trkpt><trkpt lat="42.388579" lon="1.122225"><ele>676.91</ele><time>2011-09-16T09:00:26Z</time></trkpt><trkpt lat="42.388731" lon="1.122421"><ele>677.39</ele><time>2011-09-16T09:00:27Z</time></trkpt><trkpt lat="42.388900" lon="1.122594"><ele>677.39</ele><time>2011-09-16T09:00:28Z</time></trkpt><trkpt lat="42.389084" lon="1.122745"><ele>677.87</ele><time>2011-09-16T09:00:29Z</time></trkpt><trkpt lat="42.389277" lon="1.122883"><ele>678.35</ele><time>2011-09-16T09:00:30Z</time></trkpt><trkpt lat="42.390716" lon="1.124093"><ele>681.71</ele><time>2011-09-16T09:00:38Z</time></trkpt><trkpt lat="42.391765" lon="1.125454"><ele>686.04</ele><time>2011-09-16T09:00:45Z</time></trkpt><trkpt lat="42.391944" lon="1.125594"><ele>686.04</ele><time>2011-09-16T09:00:46Z</time></trkpt><trkpt lat="42.392134" lon="1.125707"><ele>687.00</ele><time>2011-09-16T09:00:47Z</time></trkpt><trkpt lat="42.392336" lon="1.125789"><ele>687.48</ele><time>2011-09-16T09:00:48Z</time></trkpt><trkpt lat="42.392542" lon="1.125843"><ele>687.96</ele><time>2011-09-16T09:00:49Z</time></trkpt><trkpt lat="42.392750" lon="1.125867"><ele>688.44</ele><time>2011-09-16T09:00:50Z</time></trkpt><trkpt lat="42.392957" lon="1.125858"><ele>688.92</ele><time>2011-09-16T09:00:51Z</time></trkpt><trkpt lat="42.393163" lon="1.125825"><ele>689.40</ele><time>2011-09-16T09:00:52Z</time></trkpt><trkpt lat="42.393370" lon="1.125784"><ele>689.88</ele><time>2011-09-16T09:00:53Z</time></trkpt><trkpt lat="42.394208" lon="1.125708"><ele>691.81</ele><time>2011-09-16T09:00:57Z</time></trkpt><trkpt lat="42.394419" lon="1.125742"><ele>692.77</ele><time>2011-09-16T09:00:58Z</time></trkpt><trkpt lat="42.394629" lon="1.125800"><ele>692.77</ele><time>2011-09-16T09:00:59Z</time></trkpt><trkpt lat="42.396822" lon="1.126766"><ele>696.61</ele><time>2011-09-16T09:01:10Z</time></trkpt><trkpt lat="42.398972" lon="1.128030"><ele>699.98</ele><time>2011-09-16T09:01:21Z</time></trkpt><trkpt lat="42.399867" lon="1.129455"><ele>702.86</ele><time>2011-09-16T09:01:28Z</time></trkpt><trkpt lat="42.400555" lon="1.130623"><ele>704.30</ele><time>2011-09-16T09:01:34Z</time></trkpt><trkpt lat="42.400706" lon="1.130773"><ele>704.30</ele><time>2011-09-16T09:01:35Z</time></trkpt><trkpt lat="42.400872" lon="1.130899"><ele>704.30</ele><time>2011-09-16T09:01:36Z</time></trkpt><trkpt lat="42.401050" lon="1.131000"><ele>704.78</ele><time>2011-09-16T09:01:37Z</time></trkpt><trkpt lat="42.401234" lon="1.131070"><ele>704.30</ele><time>2011-09-16T09:01:38Z</time></trkpt><trkpt lat="42.401431" lon="1.131043"><ele>704.30</ele><time>2011-09-16T09:01:39Z</time></trkpt><trkpt lat="42.401625" lon="1.131029"><ele>704.30</ele><time>2011-09-16T09:01:40Z</time></trkpt><trkpt lat="42.401828" lon="1.131001"><ele>702.86</ele><time>2011-09-16T09:01:41Z</time></trkpt><trkpt lat="42.402031" lon="1.130958"><ele>702.86</ele><time>2011-09-16T09:01:42Z</time></trkpt><trkpt lat="42.403435" lon="1.130220"><ele>702.86</ele><time>2011-09-16T09:01:49Z</time></trkpt><trkpt lat="42.405365" lon="1.129008"><ele>700.94</ele><time>2011-09-16T09:01:59Z</time></trkpt><trkpt lat="42.406841" lon="1.128404"><ele>701.42</ele><time>2011-09-16T09:02:08Z</time></trkpt><trkpt lat="42.407589" lon="1.128199"><ele>700.94</ele><time>2011-09-16T09:02:13Z</time></trkpt><trkpt lat="42.407729" lon="1.128125"><ele>700.46</ele><time>2011-09-16T09:02:14Z</time></trkpt><trkpt lat="42.407860" lon="1.128027"><ele>700.46</ele><time>2011-09-16T09:02:15Z</time></trkpt><trkpt lat="42.407983" lon="1.127910"><ele>699.98</ele><time>2011-09-16T09:02:16Z</time></trkpt><trkpt lat="42.408104" lon="1.127784"><ele>699.50</ele><time>2011-09-16T09:02:17Z</time></trkpt><trkpt lat="42.408725" lon="1.127251"><ele>697.57</ele><time>2011-09-16T09:02:22Z</time></trkpt><trkpt lat="42.408851" lon="1.127192"><ele>696.61</ele><time>2011-09-16T09:02:23Z</time></trkpt><trkpt lat="42.408979" lon="1.127167"><ele>696.13</ele><time>2011-09-16T09:02:24Z</time></trkpt><trkpt lat="42.409109" lon="1.127176"><ele>695.17</ele><time>2011-09-16T09:02:25Z</time></trkpt><trkpt lat="42.409237" lon="1.127216"><ele>695.65</ele><time>2011-09-16T09:02:26Z</time></trkpt><trkpt lat="42.409361" lon="1.127285"><ele>695.65</ele><time>2011-09-16T09:02:27Z</time></trkpt><trkpt lat="42.409469" lon="1.127419"><ele>694.69</ele><time>2011-09-16T09:02:28Z</time></trkpt><trkpt lat="42.409573" lon="1.127550"><ele>694.69</ele><time>2011-09-16T09:02:29Z</time></trkpt><trkpt lat="42.409667" lon="1.127682"><ele>694.69</ele><time>2011-09-16T09:02:30Z</time></trkpt><trkpt lat="42.409750" lon="1.127816"><ele>694.69</ele><time>2011-09-16T09:02:31Z</time></trkpt><trkpt lat="42.409825" lon="1.127948"><ele>694.21</ele><time>2011-09-16T09:02:32Z</time></trkpt><trkpt lat="42.410232" lon="1.128703"><ele>693.25</ele><time>2011-09-16T09:02:40Z</time></trkpt><trkpt lat="42.410242" lon="1.128764"><ele>693.25</ele><time>2011-09-16T09:02:41Z</time></trkpt><trkpt lat="42.410236" lon="1.128794"><ele>694.21</ele><time>2011-09-16T09:02:42Z</time></trkpt><trkpt lat="42.410209" lon="1.128828"><ele>695.65</ele><time>2011-09-16T09:02:43Z</time></trkpt><trkpt lat="42.410161" lon="1.128874"><ele>696.61</ele><time>2011-09-16T09:02:44Z</time></trkpt><trkpt lat="42.410138" lon="1.128938"><ele>696.61</ele><time>2011-09-16T09:02:45Z</time></trkpt><trkpt lat="42.409685" lon="1.129497"><ele>701.90</ele><time>2011-09-16T09:02:52Z</time></trkpt><trkpt lat="42.409669" lon="1.129616"><ele>702.86</ele><time>2011-09-16T09:02:53Z</time></trkpt><trkpt lat="42.409644" lon="1.129700"><ele>702.86</ele><time>2011-09-16T09:02:54Z</time></trkpt><trkpt lat="42.409611" lon="1.129765"><ele>702.38</ele><time>2011-09-16T09:02:55Z</time></trkpt><trkpt lat="42.409579" lon="1.129803"><ele>702.38</ele><time>2011-09-16T09:02:56Z</time></trkpt><trkpt lat="42.409389" lon="1.130367"><ele>701.90</ele><time>2011-09-16T09:03:05Z</time></trkpt><trkpt lat="42.409117" lon="1.131412"><ele>706.23</ele><time>2011-09-16T09:03:14Z</time></trkpt><trkpt lat="42.408787" lon="1.132592"><ele>711.51</ele><time>2011-09-16T09:03:24Z</time></trkpt><trkpt lat="42.408730" lon="1.132696"><ele>711.99</ele><time>2011-09-16T09:03:25Z</time></trkpt><trkpt lat="42.408666" lon="1.132800"><ele>711.51</ele><time>2011-09-16T09:03:26Z</time></trkpt><trkpt lat="42.408586" lon="1.132894"><ele>712.47</ele><time>2011-09-16T09:03:27Z</time></trkpt><trkpt lat="42.408503" lon="1.132987"><ele>713.44</ele><time>2011-09-16T09:03:28Z</time></trkpt><trkpt lat="42.407619" lon="1.133862"><ele>717.76</ele><time>2011-09-16T09:03:37Z</time></trkpt><trkpt lat="42.406762" lon="1.135180"><ele>723.53</ele><time>2011-09-16T09:03:46Z</time></trkpt><trkpt lat="42.406329" lon="1.135679"><ele>727.86</ele><time>2011-09-16T09:03:50Z</time></trkpt><trkpt lat="42.406215" lon="1.135770"><ele>728.34</ele><time>2011-09-16T09:03:51Z</time></trkpt><trkpt lat="42.406105" lon="1.135844"><ele>729.30</ele><time>2011-09-16T09:03:52Z</time></trkpt><trkpt lat="42.405340" lon="1.136137"><ele>736.99</ele><time>2011-09-16T09:03:59Z</time></trkpt><trkpt lat="42.404658" lon="1.136457"><ele>744.20</ele><time>2011-09-16T09:04:04Z</time></trkpt><trkpt lat="42.404527" lon="1.136569"><ele>745.16</ele><time>2011-09-16T09:04:05Z</time></trkpt><trkpt lat="42.404402" lon="1.136700"><ele>746.60</ele><time>2011-09-16T09:04:06Z</time></trkpt><trkpt lat="42.404286" lon="1.136842"><ele>747.56</ele><time>2011-09-16T09:04:07Z</time></trkpt><trkpt lat="42.404175" lon="1.136987"><ele>749.00</ele><time>2011-09-16T09:04:08Z</time></trkpt><trkpt lat="42.403551" lon="1.137781"><ele>754.29</ele><time>2011-09-16T09:04:14Z</time></trkpt><trkpt lat="42.403431" lon="1.137881"><ele>755.25</ele><time>2011-09-16T09:04:15Z</time></trkpt><trkpt lat="42.403304" lon="1.137969"><ele>756.21</ele><time>2011-09-16T09:04:16Z</time></trkpt><trkpt lat="42.403169" lon="1.138043"><ele>756.69</ele><time>2011-09-16T09:04:17Z</time></trkpt><trkpt lat="42.403024" lon="1.138106"><ele>757.66</ele><time>2011-09-16T09:04:18Z</time></trkpt><trkpt lat="42.402872" lon="1.138163"><ele>758.14</ele><time>2011-09-16T09:04:19Z</time></trkpt><trkpt lat="42.400754" lon="1.139029"><ele>774.00</ele><time>2011-09-16T09:04:32Z</time></trkpt><trkpt lat="42.400446" lon="1.139073"><ele>775.92</ele><time>2011-09-16T09:04:34Z</time></trkpt><trkpt lat="42.400288" lon="1.139062"><ele>777.36</ele><time>2011-09-16T09:04:35Z</time></trkpt><trkpt lat="42.400128" lon="1.139029"><ele>778.32</ele><time>2011-09-16T09:04:36Z</time></trkpt><trkpt lat="42.399967" lon="1.138976"><ele>779.29</ele><time>2011-09-16T09:04:37Z</time></trkpt><trkpt lat="42.399811" lon="1.138903"><ele>780.73</ele><time>2011-09-16T09:04:38Z</time></trkpt><trkpt lat="42.399660" lon="1.138815"><ele>781.69</ele><time>2011-09-16T09:04:39Z</time></trkpt><trkpt lat="42.399513" lon="1.138719"><ele>782.65</ele><time>2011-09-16T09:04:40Z</time></trkpt><trkpt lat="42.397965" lon="1.138087"><ele>795.15</ele><time>2011-09-16T09:04:50Z</time></trkpt><trkpt lat="42.396819" lon="1.138267"><ele>807.16</ele><time>2011-09-16T09:04:57Z</time></trkpt><trkpt lat="42.396666" lon="1.138255"><ele>808.13</ele><time>2011-09-16T09:04:58Z</time></trkpt><trkpt lat="42.396516" lon="1.138218"><ele>809.57</ele><time>2011-09-16T09:04:59Z</time></trkpt><trkpt lat="42.396242" lon="1.138157"><ele>811.49</ele><time>2011-09-16T09:05:01Z</time></trkpt><trkpt lat="42.396122" lon="1.138175"><ele>813.41</ele><time>2011-09-16T09:05:02Z</time></trkpt><trkpt lat="42.396019" lon="1.138232"><ele>815.34</ele><time>2011-09-16T09:05:03Z</time></trkpt><trkpt lat="42.395938" lon="1.138327"><ele>816.78</ele><time>2011-09-16T09:05:04Z</time></trkpt><trkpt lat="42.395877" lon="1.138450"><ele>818.22</ele><time>2011-09-16T09:05:05Z</time></trkpt><trkpt lat="42.395846" lon="1.138595"><ele>819.66</ele><time>2011-09-16T09:05:06Z</time></trkpt><trkpt lat="42.395847" lon="1.138743"><ele>820.62</ele><time>2011-09-16T09:05:07Z</time></trkpt><trkpt lat="42.395878" lon="1.138881"><ele>821.58</ele><time>2011-09-16T09:05:08Z</time></trkpt><trkpt lat="42.395932" lon="1.139007"><ele>822.55</ele><time>2011-09-16T09:05:09Z</time></trkpt><trkpt lat="42.396039" lon="1.139105"><ele>823.51</ele><time>2011-09-16T09:05:10Z</time></trkpt><trkpt lat="42.396182" lon="1.139138"><ele>824.95</ele><time>2011-09-16T09:05:11Z</time></trkpt><trkpt lat="42.396327" lon="1.139168"><ele>825.91</ele><time>2011-09-16T09:05:12Z</time></trkpt><trkpt lat="42.396500" lon="1.139162"><ele>826.87</ele><time>2011-09-16T09:05:13Z</time></trkpt><trkpt lat="42.396657" lon="1.139152"><ele>827.83</ele><time>2011-09-16T09:05:14Z</time></trkpt><trkpt lat="42.396966" lon="1.139159"><ele>829.76</ele><time>2011-09-16T09:05:16Z</time></trkpt><trkpt lat="42.397128" lon="1.139195"><ele>830.72</ele><time>2011-09-16T09:05:17Z</time></trkpt><trkpt lat="42.397296" lon="1.139255"><ele>831.68</ele><time>2011-09-16T09:05:18Z</time></trkpt><trkpt lat="42.397465" lon="1.139345"><ele>832.64</ele><time>2011-09-16T09:05:19Z</time></trkpt><trkpt lat="42.397628" lon="1.139465"><ele>833.60</ele><time>2011-09-16T09:05:20Z</time></trkpt><trkpt lat="42.397779" lon="1.139612"><ele>835.04</ele><time>2011-09-16T09:05:21Z</time></trkpt><trkpt lat="42.397923" lon="1.139782"><ele>836.96</ele><time>2011-09-16T09:05:22Z</time></trkpt><trkpt lat="42.398058" lon="1.139956"><ele>838.41</ele><time>2011-09-16T09:05:23Z</time></trkpt><trkpt lat="42.398451" lon="1.140425"><ele>842.25</ele><time>2011-09-16T09:05:26Z</time></trkpt><trkpt lat="42.398603" lon="1.140545"><ele>843.21</ele><time>2011-09-16T09:05:27Z</time></trkpt><trkpt lat="42.398763" lon="1.140643"><ele>844.66</ele><time>2011-09-16T09:05:28Z</time></trkpt><trkpt lat="42.398930" lon="1.140725"><ele>845.62</ele><time>2011-09-16T09:05:29Z</time></trkpt><trkpt lat="42.399101" lon="1.140799"><ele>847.06</ele><time>2011-09-16T09:05:30Z</time></trkpt><trkpt lat="42.399620" lon="1.140973"><ele>850.42</ele><time>2011-09-16T09:05:33Z</time></trkpt><trkpt lat="42.399801" lon="1.140994"><ele>851.87</ele><time>2011-09-16T09:05:34Z</time></trkpt><trkpt lat="42.400332" lon="1.141057"><ele>855.23</ele><time>2011-09-16T09:05:37Z</time></trkpt><trkpt lat="42.400499" lon="1.141140"><ele>856.67</ele><time>2011-09-16T09:05:38Z</time></trkpt><trkpt lat="42.400962" lon="1.141398"><ele>860.04</ele><time>2011-09-16T09:05:41Z</time></trkpt><trkpt lat="42.401122" lon="1.141369"><ele>861.48</ele><time>2011-09-16T09:05:42Z</time></trkpt><trkpt lat="42.401279" lon="1.141329"><ele>862.92</ele><time>2011-09-16T09:05:43Z</time></trkpt><trkpt lat="42.401436" lon="1.141265"><ele>864.36</ele><time>2011-09-16T09:05:44Z</time></trkpt><trkpt lat="42.401582" lon="1.141196"><ele>865.32</ele><time>2011-09-16T09:05:45Z</time></trkpt><trkpt lat="42.401840" lon="1.141104"><ele>868.21</ele><time>2011-09-16T09:05:47Z</time></trkpt><trkpt lat="42.401960" lon="1.141107"><ele>869.17</ele><time>2011-09-16T09:05:48Z</time></trkpt><trkpt lat="42.402061" lon="1.141189"><ele>870.13</ele><time>2011-09-16T09:05:49Z</time></trkpt><trkpt lat="42.402144" lon="1.141298"><ele>871.09</ele><time>2011-09-16T09:05:50Z</time></trkpt><trkpt lat="42.402189" lon="1.141435"><ele>872.53</ele><time>2011-09-16T09:05:51Z</time></trkpt><trkpt lat="42.402210" lon="1.141593"><ele>873.50</ele><time>2011-09-16T09:05:52Z</time></trkpt><trkpt lat="42.402187" lon="1.141751"><ele>874.46</ele><time>2011-09-16T09:05:53Z</time></trkpt><trkpt lat="42.402138" lon="1.141901"><ele>875.42</ele><time>2011-09-16T09:05:54Z</time></trkpt><trkpt lat="42.402037" lon="1.142015"><ele>876.38</ele><time>2011-09-16T09:05:55Z</time></trkpt><trkpt lat="42.401912" lon="1.142086"><ele>877.34</ele><time>2011-09-16T09:05:56Z</time></trkpt><trkpt lat="42.401778" lon="1.142126"><ele>877.82</ele><time>2011-09-16T09:05:57Z</time></trkpt><trkpt lat="42.401632" lon="1.142135"><ele>878.78</ele><time>2011-09-16T09:05:58Z</time></trkpt><trkpt lat="42.401476" lon="1.142116"><ele>879.26</ele><time>2011-09-16T09:05:59Z</time></trkpt><trkpt lat="42.401318" lon="1.142094"><ele>880.71</ele><time>2011-09-16T09:06:00Z</time></trkpt><trkpt lat="42.401157" lon="1.142076"><ele>881.67</ele><time>2011-09-16T09:06:01Z</time></trkpt><trkpt lat="42.399994" lon="1.141977"><ele>887.43</ele><time>2011-09-16T09:06:08Z</time></trkpt><trkpt lat="42.399817" lon="1.142019"><ele>888.88</ele><time>2011-09-16T09:06:09Z</time></trkpt><trkpt lat="42.399638" lon="1.142095"><ele>890.32</ele><time>2011-09-16T09:06:10Z</time></trkpt><trkpt lat="42.399468" lon="1.142199"><ele>891.28</ele><time>2011-09-16T09:06:11Z</time></trkpt><trkpt lat="42.399310" lon="1.142325"><ele>893.20</ele><time>2011-09-16T09:06:12Z</time></trkpt><trkpt lat="42.399153" lon="1.142461"><ele>894.64</ele><time>2011-09-16T09:06:13Z</time></trkpt><trkpt lat="42.398489" lon="1.142978"><ele>901.37</ele><time>2011-09-16T09:06:17Z</time></trkpt><trkpt lat="42.398311" lon="1.143053"><ele>903.30</ele><time>2011-09-16T09:06:18Z</time></trkpt><trkpt lat="42.398127" lon="1.143095"><ele>904.74</ele><time>2011-09-16T09:06:19Z</time></trkpt><trkpt lat="42.397942" lon="1.143105"><ele>906.18</ele><time>2011-09-16T09:06:20Z</time></trkpt><trkpt lat="42.397768" lon="1.143101"><ele>908.58</ele><time>2011-09-16T09:06:21Z</time></trkpt><trkpt lat="42.397607" lon="1.143089"><ele>910.03</ele><time>2011-09-16T09:06:22Z</time></trkpt><trkpt lat="42.396941" lon="1.143032"><ele>914.35</ele><time>2011-09-16T09:06:28Z</time></trkpt><trkpt lat="42.396009" lon="1.142984"><ele>918.68</ele><time>2011-09-16T09:06:36Z</time></trkpt><trkpt lat="42.395251" lon="1.142882"><ele>924.93</ele><time>2011-09-16T09:06:41Z</time></trkpt><trkpt lat="42.395093" lon="1.142811"><ele>925.41</ele><time>2011-09-16T09:06:42Z</time></trkpt><trkpt lat="42.394941" lon="1.142711"><ele>925.89</ele><time>2011-09-16T09:06:43Z</time></trkpt><trkpt lat="42.394806" lon="1.142570"><ele>928.29</ele><time>2011-09-16T09:06:44Z</time></trkpt><trkpt lat="42.394686" lon="1.142408"><ele>929.25</ele><time>2011-09-16T09:06:45Z</time></trkpt><trkpt lat="42.394578" lon="1.142222"><ele>930.69</ele><time>2011-09-16T09:06:46Z</time></trkpt><trkpt lat="42.394476" lon="1.142015"><ele>931.65</ele><time>2011-09-16T09:06:47Z</time></trkpt><trkpt lat="42.394379" lon="1.141795"><ele>933.10</ele><time>2011-09-16T09:06:48Z</time></trkpt><trkpt lat="42.393883" lon="1.140781"><ele>939.35</ele><time>2011-09-16T09:06:53Z</time></trkpt><trkpt lat="42.393744" lon="1.140619"><ele>940.31</ele><time>2011-09-16T09:06:54Z</time></trkpt><trkpt lat="42.393593" lon="1.140485"><ele>942.23</ele><time>2011-09-16T09:06:55Z</time></trkpt><trkpt lat="42.393432" lon="1.140374"><ele>943.67</ele><time>2011-09-16T09:06:56Z</time></trkpt><trkpt lat="42.393257" lon="1.140292"><ele>946.07</ele><time>2011-09-16T09:06:57Z</time></trkpt><trkpt lat="42.393086" lon="1.140252"><ele>948.00</ele><time>2011-09-16T09:06:58Z</time></trkpt><trkpt lat="42.392908" lon="1.140255"><ele>949.92</ele><time>2011-09-16T09:06:59Z</time></trkpt><trkpt lat="42.392731" lon="1.140301"><ele>952.32</ele><time>2011-09-16T09:07:00Z</time></trkpt><trkpt lat="42.392558" lon="1.140381"><ele>954.25</ele><time>2011-09-16T09:07:01Z</time></trkpt><trkpt lat="42.392395" lon="1.140503"><ele>956.17</ele><time>2011-09-16T09:07:02Z</time></trkpt><trkpt lat="42.392236" lon="1.140643"><ele>958.09</ele><time>2011-09-16T09:07:03Z</time></trkpt><trkpt lat="42.392083" lon="1.140843"><ele>960.01</ele><time>2011-09-16T09:07:04Z</time></trkpt><trkpt lat="42.391946" lon="1.141050"><ele>962.42</ele><time>2011-09-16T09:07:05Z</time></trkpt><trkpt lat="42.391825" lon="1.141271"><ele>964.82</ele><time>2011-09-16T09:07:06Z</time></trkpt><trkpt lat="42.391714" lon="1.141511"><ele>965.78</ele><time>2011-09-16T09:07:07Z</time></trkpt><trkpt lat="42.390768" lon="1.143746"><ele>979.72</ele><time>2011-09-16T09:07:16Z</time></trkpt><trkpt lat="42.389374" lon="1.147680"><ele>1005.20</ele><time>2011-09-16T09:07:31Z</time></trkpt><trkpt lat="42.389041" lon="1.150207"><ele>1023.94</ele><time>2011-09-16T09:07:40Z</time></trkpt><trkpt lat="42.389061" lon="1.150475"><ele>1025.86</ele><time>2011-09-16T09:07:41Z</time></trkpt><trkpt lat="42.389108" lon="1.150740"><ele>1027.79</ele><time>2011-09-16T09:07:42Z</time></trkpt><trkpt lat="42.389177" lon="1.150999"><ele>1030.19</ele><time>2011-09-16T09:07:43Z</time></trkpt><trkpt lat="42.389269" lon="1.151247"><ele>1031.63</ele><time>2011-09-16T09:07:44Z</time></trkpt><trkpt lat="42.389371" lon="1.151479"><ele>1033.07</ele><time>2011-09-16T09:07:45Z</time></trkpt><trkpt lat="42.389467" lon="1.151696"><ele>1034.04</ele><time>2011-09-16T09:07:46Z</time></trkpt><trkpt lat="42.389543" lon="1.151911"><ele>1035.00</ele><time>2011-09-16T09:07:47Z</time></trkpt><trkpt lat="42.389589" lon="1.152132"><ele>1036.44</ele><time>2011-09-16T09:07:48Z</time></trkpt><trkpt lat="42.389601" lon="1.152357"><ele>1037.88</ele><time>2011-09-16T09:07:49Z</time></trkpt><trkpt lat="42.389589" lon="1.152586"><ele>1039.32</ele><time>2011-09-16T09:07:50Z</time></trkpt><trkpt lat="42.389561" lon="1.152818"><ele>1040.76</ele><time>2011-09-16T09:07:51Z</time></trkpt><trkpt lat="42.389519" lon="1.153041"><ele>1042.69</ele><time>2011-09-16T09:07:52Z</time></trkpt><trkpt lat="42.389461" lon="1.153244"><ele>1043.65</ele><time>2011-09-16T09:07:53Z</time></trkpt><trkpt lat="42.389375" lon="1.153405"><ele>1045.57</ele><time>2011-09-16T09:07:54Z</time></trkpt><trkpt lat="42.389275" lon="1.153536"><ele>1046.53</ele><time>2011-09-16T09:07:55Z</time></trkpt><trkpt lat="42.389192" lon="1.153663"><ele>1047.97</ele><time>2011-09-16T09:07:56Z</time></trkpt><trkpt lat="42.389130" lon="1.153794"><ele>1049.90</ele><time>2011-09-16T09:07:57Z</time></trkpt><trkpt lat="42.389104" lon="1.153935"><ele>1050.86</ele><time>2011-09-16T09:07:58Z</time></trkpt><trkpt lat="42.389133" lon="1.154041"><ele>1051.82</ele><time>2011-09-16T09:07:59Z</time></trkpt><trkpt lat="42.389204" lon="1.154110"><ele>1052.78</ele><time>2011-09-16T09:08:00Z</time></trkpt><trkpt lat="42.389300" lon="1.154136"><ele>1053.26</ele><time>2011-09-16T09:08:01Z</time></trkpt><trkpt lat="42.389431" lon="1.154110"><ele>1052.78</ele><time>2011-09-16T09:08:02Z</time></trkpt><trkpt lat="42.389526" lon="1.154035"><ele>1052.78</ele><time>2011-09-16T09:08:03Z</time></trkpt><trkpt lat="42.389593" lon="1.153942"><ele>1053.26</ele><time>2011-09-16T09:08:04Z</time></trkpt><trkpt lat="42.389643" lon="1.153803"><ele>1053.74</ele><time>2011-09-16T09:08:05Z</time></trkpt><trkpt lat="42.389689" lon="1.153613"><ele>1054.70</ele><time>2011-09-16T09:08:06Z</time></trkpt><trkpt lat="42.389742" lon="1.153392"><ele>1055.67</ele><time>2011-09-16T09:08:07Z</time></trkpt><trkpt lat="42.389807" lon="1.153175"><ele>1056.15</ele><time>2011-09-16T09:08:08Z</time></trkpt><trkpt lat="42.390114" lon="1.152163"><ele>1060.47</ele><time>2011-09-16T09:08:13Z</time></trkpt><trkpt lat="42.390127" lon="1.151937"><ele>1060.95</ele><time>2011-09-16T09:08:14Z</time></trkpt><trkpt lat="42.390103" lon="1.151699"><ele>1062.39</ele><time>2011-09-16T09:08:15Z</time></trkpt><trkpt lat="42.390059" lon="1.151456"><ele>1063.36</ele><time>2011-09-16T09:08:16Z</time></trkpt><trkpt lat="42.390009" lon="1.151217"><ele>1064.80</ele><time>2011-09-16T09:08:17Z</time></trkpt><trkpt lat="42.389883" lon="1.150556"><ele>1068.16</ele><time>2011-09-16T09:08:20Z</time></trkpt><trkpt lat="42.389873" lon="1.150335"><ele>1069.12</ele><time>2011-09-16T09:08:21Z</time></trkpt><trkpt lat="42.389890" lon="1.150110"><ele>1070.57</ele><time>2011-09-16T09:08:22Z</time></trkpt><trkpt lat="42.389937" lon="1.149895"><ele>1071.53</ele><time>2011-09-16T09:08:23Z</time></trkpt><trkpt lat="42.390012" lon="1.149692"><ele>1072.49</ele><time>2011-09-16T09:08:24Z</time></trkpt><trkpt lat="42.390112" lon="1.149500"><ele>1073.45</ele><time>2011-09-16T09:08:25Z</time></trkpt><trkpt lat="42.390236" lon="1.149320"><ele>1074.89</ele><time>2011-09-16T09:08:26Z</time></trkpt><trkpt lat="42.390381" lon="1.149146"><ele>1076.33</ele><time>2011-09-16T09:08:27Z</time></trkpt><trkpt lat="42.390530" lon="1.148979"><ele>1077.78</ele><time>2011-09-16T09:08:28Z</time></trkpt><trkpt lat="42.391550" lon="1.147682"><ele>1087.87</ele><time>2011-09-16T09:08:35Z</time></trkpt><trkpt lat="42.392506" lon="1.146127"><ele>1097.48</ele><time>2011-09-16T09:08:43Z</time></trkpt><trkpt lat="42.392623" lon="1.146040"><ele>1098.92</ele><time>2011-09-16T09:08:44Z</time></trkpt><trkpt lat="42.392750" lon="1.145993"><ele>1099.89</ele><time>2011-09-16T09:08:45Z</time></trkpt><trkpt lat="42.392890" lon="1.145974"><ele>1101.81</ele><time>2011-09-16T09:08:46Z</time></trkpt><trkpt lat="42.393028" lon="1.146015"><ele>1103.25</ele><time>2011-09-16T09:08:47Z</time></trkpt><trkpt lat="42.393154" lon="1.146121"><ele>1105.17</ele><time>2011-09-16T09:08:48Z</time></trkpt><trkpt lat="42.393261" lon="1.146267"><ele>1106.61</ele><time>2011-09-16T09:08:49Z</time></trkpt><trkpt lat="42.393325" lon="1.146450"><ele>1107.58</ele><time>2011-09-16T09:08:50Z</time></trkpt><trkpt lat="42.393391" lon="1.146653"><ele>1108.06</ele><time>2011-09-16T09:08:51Z</time></trkpt><trkpt lat="42.393452" lon="1.146860"><ele>1109.02</ele><time>2011-09-16T09:08:52Z</time></trkpt><trkpt lat="42.393876" lon="1.147742"><ele>1114.31</ele><time>2011-09-16T09:08:57Z</time></trkpt><trkpt lat="42.393983" lon="1.147865"><ele>1115.27</ele><time>2011-09-16T09:08:58Z</time></trkpt><trkpt lat="42.394110" lon="1.147899"><ele>1116.23</ele><time>2011-09-16T09:08:59Z</time></trkpt><trkpt lat="42.394240" lon="1.147929"><ele>1117.67</ele><time>2011-09-16T09:09:00Z</time></trkpt><trkpt lat="42.394393" lon="1.147917"><ele>1118.15</ele><time>2011-09-16T09:09:01Z</time></trkpt><trkpt lat="42.394528" lon="1.147891"><ele>1119.11</ele><time>2011-09-16T09:09:02Z</time></trkpt><trkpt lat="42.394653" lon="1.147863"><ele>1119.59</ele><time>2011-09-16T09:09:03Z</time></trkpt><trkpt lat="42.394767" lon="1.147852"><ele>1119.59</ele><time>2011-09-16T09:09:04Z</time></trkpt><trkpt lat="42.394869" lon="1.147863"><ele>1120.55</ele><time>2011-09-16T09:09:05Z</time></trkpt><trkpt lat="42.394946" lon="1.147931"><ele>1120.55</ele><time>2011-09-16T09:09:06Z</time></trkpt><trkpt lat="42.395001" lon="1.148025"><ele>1120.55</ele><time>2011-09-16T09:09:07Z</time></trkpt><trkpt lat="42.395028" lon="1.148142"><ele>1121.03</ele><time>2011-09-16T09:09:08Z</time></trkpt><trkpt lat="42.395019" lon="1.148266"><ele>1121.52</ele><time>2011-09-16T09:09:09Z</time></trkpt><trkpt lat="42.394979" lon="1.148384"><ele>1122.00</ele><time>2011-09-16T09:09:10Z</time></trkpt><trkpt lat="42.394916" lon="1.148475"><ele>1122.00</ele><time>2011-09-16T09:09:11Z</time></trkpt><trkpt lat="42.394805" lon="1.148490"><ele>1121.52</ele><time>2011-09-16T09:09:12Z</time></trkpt><trkpt lat="42.394677" lon="1.148484"><ele>1121.52</ele><time>2011-09-16T09:09:13Z</time></trkpt><trkpt lat="42.394534" lon="1.148447"><ele>1121.52</ele><time>2011-09-16T09:09:14Z</time></trkpt><trkpt lat="42.394385" lon="1.148393"><ele>1121.52</ele><time>2011-09-16T09:09:15Z</time></trkpt><trkpt lat="42.394235" lon="1.148330"><ele>1121.52</ele><time>2011-09-16T09:09:16Z</time></trkpt><trkpt lat="42.394099" lon="1.148265"><ele>1122.00</ele><time>2011-09-16T09:09:17Z</time></trkpt><trkpt lat="42.393968" lon="1.148178"><ele>1122.00</ele><time>2011-09-16T09:09:18Z</time></trkpt><trkpt lat="42.393840" lon="1.148055"><ele>1122.96</ele><time>2011-09-16T09:09:19Z</time></trkpt><trkpt lat="42.393724" lon="1.147906"><ele>1123.92</ele><time>2011-09-16T09:09:20Z</time></trkpt><trkpt lat="42.393616" lon="1.147747"><ele>1124.88</ele><time>2011-09-16T09:09:21Z</time></trkpt><trkpt lat="42.393506" lon="1.147600"><ele>1124.88</ele><time>2011-09-16T09:09:22Z</time></trkpt><trkpt lat="42.393384" lon="1.147481"><ele>1125.84</ele><time>2011-09-16T09:09:23Z</time></trkpt><trkpt lat="42.393255" lon="1.147404"><ele>1126.80</ele><time>2011-09-16T09:09:24Z</time></trkpt><trkpt lat="42.393118" lon="1.147389"><ele>1127.76</ele><time>2011-09-16T09:09:25Z</time></trkpt><trkpt lat="42.392969" lon="1.147409"><ele>1128.73</ele><time>2011-09-16T09:09:26Z</time></trkpt><trkpt lat="42.392835" lon="1.147480"><ele>1129.21</ele><time>2011-09-16T09:09:27Z</time></trkpt><trkpt lat="42.392723" lon="1.147614"><ele>1129.21</ele><time>2011-09-16T09:09:28Z</time></trkpt><trkpt lat="42.392623" lon="1.147789"><ele>1134.49</ele><time>2011-09-16T09:09:29Z</time></trkpt><trkpt lat="42.392559" lon="1.147993"><ele>1135.45</ele><time>2011-09-16T09:09:30Z</time></trkpt><trkpt lat="42.392502" lon="1.148209"><ele>1136.90</ele><time>2011-09-16T09:09:31Z</time></trkpt><trkpt lat="42.392443" lon="1.148435"><ele>1137.86</ele><time>2011-09-16T09:09:32Z</time></trkpt><trkpt lat="42.391891" lon="1.149982"><ele>1146.51</ele><time>2011-09-16T09:09:39Z</time></trkpt><trkpt lat="42.391712" lon="1.151212"><ele>1154.68</ele><time>2011-09-16T09:09:44Z</time></trkpt><trkpt lat="42.391721" lon="1.151489"><ele>1156.12</ele><time>2011-09-16T09:09:45Z</time></trkpt><trkpt lat="42.391867" lon="1.153613"><ele>1168.62</ele><time>2011-09-16T09:09:52Z</time></trkpt><trkpt lat="42.391784" lon="1.154237"><ele>1171.98</ele><time>2011-09-16T09:09:54Z</time></trkpt><trkpt lat="42.391217" lon="1.157356"><ele>1196.02</ele><time>2011-09-16T09:10:04Z</time></trkpt><trkpt lat="42.391082" lon="1.158930"><ele>1209.48</ele><time>2011-09-16T09:10:10Z</time></trkpt><trkpt lat="42.391024" lon="1.159141"><ele>1210.92</ele><time>2011-09-16T09:10:11Z</time></trkpt><trkpt lat="42.390768" lon="1.159868"><ele>1216.21</ele><time>2011-09-16T09:10:15Z</time></trkpt><trkpt lat="42.390661" lon="1.159934"><ele>1217.17</ele><time>2011-09-16T09:10:16Z</time></trkpt><trkpt lat="42.390533" lon="1.159989"><ele>1217.65</ele><time>2011-09-16T09:10:17Z</time></trkpt><trkpt lat="42.390383" lon="1.160014"><ele>1218.61</ele><time>2011-09-16T09:10:18Z</time></trkpt><trkpt lat="42.390213" lon="1.160031"><ele>1219.09</ele><time>2011-09-16T09:10:19Z</time></trkpt><trkpt lat="42.390031" lon="1.160060"><ele>1220.05</ele><time>2011-09-16T09:10:20Z</time></trkpt><trkpt lat="42.388648" lon="1.160327"><ele>1221.01</ele><time>2011-09-16T09:10:28Z</time></trkpt><trkpt lat="42.388176" lon="1.160404"><ele>1222.45</ele><time>2011-09-16T09:10:31Z</time></trkpt><trkpt lat="42.388006" lon="1.160392"><ele>1222.93</ele><time>2011-09-16T09:10:32Z</time></trkpt><trkpt lat="42.387826" lon="1.160360"><ele>1223.42</ele><time>2011-09-16T09:10:33Z</time></trkpt><trkpt lat="42.386913" lon="1.160129"><ele>1223.42</ele><time>2011-09-16T09:10:38Z</time></trkpt><trkpt lat="42.386751" lon="1.160017"><ele>1223.90</ele><time>2011-09-16T09:10:39Z</time></trkpt><trkpt lat="42.386589" lon="1.159875"><ele>1224.38</ele><time>2011-09-16T09:10:40Z</time></trkpt><trkpt lat="42.385336" lon="1.158486"><ele>1230.62</ele><time>2011-09-16T09:10:48Z</time></trkpt><trkpt lat="42.385225" lon="1.158272"><ele>1231.59</ele><time>2011-09-16T09:10:49Z</time></trkpt><trkpt lat="42.385127" lon="1.158052"><ele>1232.55</ele><time>2011-09-16T09:10:50Z</time></trkpt><trkpt lat="42.384698" lon="1.157035"><ele>1236.87</ele><time>2011-09-16T09:10:55Z</time></trkpt><trkpt lat="42.384599" lon="1.156878"><ele>1237.83</ele><time>2011-09-16T09:10:56Z</time></trkpt><trkpt lat="42.384483" lon="1.156749"><ele>1238.80</ele><time>2011-09-16T09:10:57Z</time></trkpt><trkpt lat="42.384338" lon="1.156681"><ele>1240.24</ele><time>2011-09-16T09:10:58Z</time></trkpt><trkpt lat="42.384175" lon="1.156642"><ele>1241.20</ele><time>2011-09-16T09:10:59Z</time></trkpt><trkpt lat="42.383996" lon="1.156664"><ele>1242.64</ele><time>2011-09-16T09:11:00Z</time></trkpt><trkpt lat="42.383831" lon="1.156700"><ele>1243.12</ele><time>2011-09-16T09:11:01Z</time></trkpt><trkpt lat="42.383687" lon="1.156798"><ele>1244.56</ele><time>2011-09-16T09:11:02Z</time></trkpt><trkpt lat="42.383556" lon="1.156938"><ele>1245.53</ele><time>2011-09-16T09:11:03Z</time></trkpt><trkpt lat="42.383436" lon="1.157112"><ele>1246.49</ele><time>2011-09-16T09:11:04Z</time></trkpt><trkpt lat="42.383325" lon="1.157305"><ele>1246.49</ele><time>2011-09-16T09:11:05Z</time></trkpt><trkpt lat="42.383211" lon="1.157489"><ele>1247.45</ele><time>2011-09-16T09:11:06Z</time></trkpt><trkpt lat="42.382476" lon="1.159244"><ele>1247.93</ele><time>2011-09-16T09:11:14Z</time></trkpt><trkpt lat="42.382171" lon="1.160940"><ele>1256.58</ele><time>2011-09-16T09:11:21Z</time></trkpt><trkpt lat="42.382095" lon="1.161367"><ele>1259.46</ele><time>2011-09-16T09:11:23Z</time></trkpt><trkpt lat="42.382039" lon="1.161549"><ele>1260.91</ele><time>2011-09-16T09:11:24Z</time></trkpt><trkpt lat="42.381961" lon="1.161708"><ele>1261.87</ele><time>2011-09-16T09:11:25Z</time></trkpt><trkpt lat="42.381863" lon="1.161838"><ele>1262.83</ele><time>2011-09-16T09:11:26Z</time></trkpt><trkpt lat="42.381742" lon="1.161929"><ele>1263.79</ele><time>2011-09-16T09:11:27Z</time></trkpt><trkpt lat="42.381604" lon="1.161984"><ele>1264.75</ele><time>2011-09-16T09:11:28Z</time></trkpt><trkpt lat="42.381454" lon="1.162008"><ele>1265.71</ele><time>2011-09-16T09:11:29Z</time></trkpt><trkpt lat="42.381303" lon="1.162005"><ele>1266.67</ele><time>2011-09-16T09:11:30Z</time></trkpt><trkpt lat="42.381148" lon="1.161994"><ele>1267.64</ele><time>2011-09-16T09:11:31Z</time></trkpt><trkpt lat="42.380832" lon="1.162012"><ele>1270.52</ele><time>2011-09-16T09:11:33Z</time></trkpt><trkpt lat="42.380678" lon="1.162057"><ele>1271.48</ele><time>2011-09-16T09:11:34Z</time></trkpt><trkpt lat="42.380531" lon="1.162129"><ele>1272.44</ele><time>2011-09-16T09:11:35Z</time></trkpt><trkpt lat="42.380392" lon="1.162223"><ele>1273.88</ele><time>2011-09-16T09:11:36Z</time></trkpt><trkpt lat="42.380262" lon="1.162337"><ele>1274.85</ele><time>2011-09-16T09:11:37Z</time></trkpt><trkpt lat="42.380140" lon="1.162470"><ele>1276.29</ele><time>2011-09-16T09:11:38Z</time></trkpt><trkpt lat="42.380028" lon="1.162621"><ele>1277.25</ele><time>2011-09-16T09:11:39Z</time></trkpt><trkpt lat="42.379927" lon="1.162789"><ele>1278.69</ele><time>2011-09-16T09:11:40Z</time></trkpt><trkpt lat="42.379836" lon="1.162968"><ele>1279.65</ele><time>2011-09-16T09:11:41Z</time></trkpt><trkpt lat="42.379756" lon="1.163159"><ele>1281.09</ele><time>2011-09-16T09:11:42Z</time></trkpt><trkpt lat="42.379687" lon="1.163359"><ele>1282.06</ele><time>2011-09-16T09:11:43Z</time></trkpt><trkpt lat="42.379630" lon="1.163571"><ele>1283.02</ele><time>2011-09-16T09:11:44Z</time></trkpt><trkpt lat="42.379579" lon="1.163794"><ele>1283.98</ele><time>2011-09-16T09:11:45Z</time></trkpt><trkpt lat="42.379437" lon="1.164236"><ele>1285.90</ele><time>2011-09-16T09:11:47Z</time></trkpt><trkpt lat="42.379332" lon="1.164435"><ele>1287.34</ele><time>2011-09-16T09:11:48Z</time></trkpt><trkpt lat="42.379202" lon="1.164616"><ele>1287.82</ele><time>2011-09-16T09:11:49Z</time></trkpt><trkpt lat="42.379049" lon="1.164781"><ele>1288.78</ele><time>2011-09-16T09:11:50Z</time></trkpt><trkpt lat="42.378887" lon="1.164938"><ele>1289.75</ele><time>2011-09-16T09:11:51Z</time></trkpt><trkpt lat="42.376553" lon="1.167105"><ele>1298.88</ele><time>2011-09-16T09:12:06Z</time></trkpt><trkpt lat="42.376434" lon="1.167264"><ele>1298.88</ele><time>2011-09-16T09:12:07Z</time></trkpt><trkpt lat="42.376328" lon="1.167447"><ele>1298.40</ele><time>2011-09-16T09:12:08Z</time></trkpt><trkpt lat="42.376236" lon="1.167654"><ele>1298.40</ele><time>2011-09-16T09:12:09Z</time></trkpt><trkpt lat="42.376163" lon="1.167878"><ele>1298.40</ele><time>2011-09-16T09:12:10Z</time></trkpt><trkpt lat="42.376113" lon="1.168113"><ele>1298.40</ele><time>2011-09-16T09:12:11Z</time></trkpt><trkpt lat="42.376084" lon="1.168357"><ele>1298.88</ele><time>2011-09-16T09:12:12Z</time></trkpt><trkpt lat="42.376075" lon="1.168613"><ele>1298.88</ele><time>2011-09-16T09:12:13Z</time></trkpt><trkpt lat="42.376079" lon="1.168879"><ele>1298.88</ele><time>2011-09-16T09:12:14Z</time></trkpt><trkpt lat="42.376093" lon="1.171866"><ele>1300.32</ele><time>2011-09-16T09:12:25Z</time></trkpt><trkpt lat="42.375532" lon="1.173477"><ele>1302.24</ele><time>2011-09-16T09:12:31Z</time></trkpt><trkpt lat="42.375131" lon="1.174538"><ele>1303.69</ele><time>2011-09-16T09:12:35Z</time></trkpt><trkpt lat="42.375082" lon="1.174829"><ele>1304.17</ele><time>2011-09-16T09:12:36Z</time></trkpt><trkpt lat="42.375050" lon="1.175128"><ele>1305.13</ele><time>2011-09-16T09:12:37Z</time></trkpt><trkpt lat="42.374839" lon="1.177155"><ele>1308.49</ele><time>2011-09-16T09:12:44Z</time></trkpt><trkpt lat="42.374756" lon="1.177429"><ele>1309.45</ele><time>2011-09-16T09:12:45Z</time></trkpt><trkpt lat="42.374149" lon="1.179317"><ele>1315.22</ele><time>2011-09-16T09:12:52Z</time></trkpt><trkpt lat="42.374114" lon="1.179600"><ele>1315.70</ele><time>2011-09-16T09:12:53Z</time></trkpt><trkpt lat="42.374096" lon="1.179884"><ele>1316.66</ele><time>2011-09-16T09:12:54Z</time></trkpt><trkpt lat="42.374097" lon="1.180163"><ele>1317.62</ele><time>2011-09-16T09:12:55Z</time></trkpt><trkpt lat="42.374117" lon="1.180437"><ele>1318.59</ele><time>2011-09-16T09:12:56Z</time></trkpt><trkpt lat="42.374157" lon="1.180707"><ele>1319.55</ele><time>2011-09-16T09:12:57Z</time></trkpt><trkpt lat="42.374218" lon="1.180978"><ele>1320.51</ele><time>2011-09-16T09:12:58Z</time></trkpt><trkpt lat="42.374286" lon="1.181244"><ele>1320.99</ele><time>2011-09-16T09:12:59Z</time></trkpt><trkpt lat="42.374539" lon="1.182226"><ele>1323.87</ele><time>2011-09-16T09:13:03Z</time></trkpt><trkpt lat="42.374561" lon="1.182460"><ele>1324.35</ele><time>2011-09-16T09:13:04Z</time></trkpt><trkpt lat="42.374555" lon="1.182698"><ele>1324.83</ele><time>2011-09-16T09:13:05Z</time></trkpt><trkpt lat="42.374518" lon="1.182931"><ele>1325.80</ele><time>2011-09-16T09:13:06Z</time></trkpt><trkpt lat="42.374452" lon="1.183155"><ele>1326.28</ele><time>2011-09-16T09:13:07Z</time></trkpt><trkpt lat="42.374361" lon="1.183365"><ele>1327.24</ele><time>2011-09-16T09:13:08Z</time></trkpt><trkpt lat="42.374244" lon="1.183560"><ele>1327.72</ele><time>2011-09-16T09:13:09Z</time></trkpt><trkpt lat="42.374115" lon="1.183753"><ele>1328.20</ele><time>2011-09-16T09:13:10Z</time></trkpt><trkpt lat="42.373486" lon="1.185082"><ele>1332.04</ele><time>2011-09-16T09:13:16Z</time></trkpt><trkpt lat="42.373435" lon="1.185326"><ele>1333.01</ele><time>2011-09-16T09:13:17Z</time></trkpt><trkpt lat="42.373399" lon="1.185575"><ele>1333.49</ele><time>2011-09-16T09:13:18Z</time></trkpt><trkpt lat="42.373329" lon="1.187994"><ele>1343.10</ele><time>2011-09-16T09:13:27Z</time></trkpt><trkpt lat="42.373368" lon="1.189239"><ele>1350.79</ele><time>2011-09-16T09:13:32Z</time></trkpt><trkpt lat="42.373421" lon="1.189423"><ele>1352.23</ele><time>2011-09-16T09:13:33Z</time></trkpt><trkpt lat="42.373518" lon="1.189582"><ele>1353.67</ele><time>2011-09-16T09:13:34Z</time></trkpt><trkpt lat="42.373653" lon="1.189696"><ele>1355.12</ele><time>2011-09-16T09:13:35Z</time></trkpt><trkpt lat="42.373802" lon="1.189795"><ele>1357.04</ele><time>2011-09-16T09:13:36Z</time></trkpt><trkpt lat="42.373959" lon="1.189869"><ele>1358.48</ele><time>2011-09-16T09:13:37Z</time></trkpt><trkpt lat="42.374124" lon="1.189936"><ele>1360.88</ele><time>2011-09-16T09:13:38Z</time></trkpt><trkpt lat="42.374283" lon="1.189979"><ele>1362.33</ele><time>2011-09-16T09:13:39Z</time></trkpt><trkpt lat="42.375055" lon="1.190313"><ele>1367.61</ele><time>2011-09-16T09:13:45Z</time></trkpt><trkpt lat="42.375169" lon="1.190395"><ele>1368.09</ele><time>2011-09-16T09:13:46Z</time></trkpt><trkpt lat="42.375273" lon="1.190496"><ele>1368.57</ele><time>2011-09-16T09:13:47Z</time></trkpt><trkpt lat="42.375367" lon="1.190614"><ele>1369.05</ele><time>2011-09-16T09:13:48Z</time></trkpt><trkpt lat="42.375449" lon="1.190747"><ele>1369.54</ele><time>2011-09-16T09:13:49Z</time></trkpt><trkpt lat="42.375521" lon="1.190888"><ele>1370.02</ele><time>2011-09-16T09:13:50Z</time></trkpt><trkpt lat="42.375585" lon="1.191034"><ele>1370.50</ele><time>2011-09-16T09:13:51Z</time></trkpt><trkpt lat="42.375640" lon="1.191184"><ele>1371.46</ele><time>2011-09-16T09:13:52Z</time></trkpt><trkpt lat="42.375873" lon="1.191912"><ele>1372.90</ele><time>2011-09-16T09:13:57Z</time></trkpt><trkpt lat="42.375896" lon="1.192068"><ele>1373.38</ele><time>2011-09-16T09:13:58Z</time></trkpt><trkpt lat="42.375904" lon="1.192232"><ele>1373.86</ele><time>2011-09-16T09:13:59Z</time></trkpt><trkpt lat="42.375894" lon="1.192397"><ele>1373.86</ele><time>2011-09-16T09:14:00Z</time></trkpt><trkpt lat="42.375857" lon="1.192552"><ele>1374.82</ele><time>2011-09-16T09:14:01Z</time></trkpt><trkpt lat="42.375798" lon="1.192692"><ele>1375.30</ele><time>2011-09-16T09:14:02Z</time></trkpt><trkpt lat="42.375717" lon="1.192812"><ele>1375.30</ele><time>2011-09-16T09:14:03Z</time></trkpt><trkpt lat="42.375620" lon="1.192912"><ele>1375.78</ele><time>2011-09-16T09:14:04Z</time></trkpt><trkpt lat="42.375518" lon="1.192995"><ele>1375.78</ele><time>2011-09-16T09:14:05Z</time></trkpt><trkpt lat="42.375407" lon="1.193060"><ele>1376.26</ele><time>2011-09-16T09:14:06Z</time></trkpt><trkpt lat="42.375288" lon="1.193104"><ele>1376.26</ele><time>2011-09-16T09:14:07Z</time></trkpt><trkpt lat="42.375164" lon="1.193119"><ele>1376.75</ele><time>2011-09-16T09:14:08Z</time></trkpt><trkpt lat="42.375040" lon="1.193104"><ele>1376.26</ele><time>2011-09-16T09:14:09Z</time></trkpt><trkpt lat="42.374896" lon="1.192999"><ele>1375.78</ele><time>2011-09-16T09:14:10Z</time></trkpt><trkpt lat="42.374746" lon="1.192891"><ele>1375.30</ele><time>2011-09-16T09:14:11Z</time></trkpt><trkpt lat="42.374591" lon="1.192744"><ele>1375.78</ele><time>2011-09-16T09:14:12Z</time></trkpt><trkpt lat="42.374437" lon="1.192575"><ele>1375.78</ele><time>2011-09-16T09:14:13Z</time></trkpt><trkpt lat="42.374285" lon="1.192397"><ele>1376.26</ele><time>2011-09-16T09:14:14Z</time></trkpt><trkpt lat="42.373407" lon="1.191562"><ele>1379.15</ele><time>2011-09-16T09:14:20Z</time></trkpt><trkpt lat="42.373249" lon="1.191535"><ele>1380.11</ele><time>2011-09-16T09:14:21Z</time></trkpt><trkpt lat="42.373092" lon="1.191553"><ele>1380.59</ele><time>2011-09-16T09:14:22Z</time></trkpt><trkpt lat="42.372953" lon="1.191648"><ele>1380.59</ele><time>2011-09-16T09:14:23Z</time></trkpt><trkpt lat="42.372823" lon="1.191773"><ele>1381.07</ele><time>2011-09-16T09:14:24Z</time></trkpt><trkpt lat="42.372698" lon="1.191920"><ele>1381.55</ele><time>2011-09-16T09:14:25Z</time></trkpt><trkpt lat="42.372577" lon="1.192093"><ele>1381.55</ele><time>2011-09-16T09:14:26Z</time></trkpt><trkpt lat="42.372452" lon="1.192268"><ele>1382.99</ele><time>2011-09-16T09:14:27Z</time></trkpt><trkpt lat="42.372117" lon="1.192837"><ele>1387.32</ele><time>2011-09-16T09:14:30Z</time></trkpt><trkpt lat="42.372036" lon="1.193060"><ele>1388.28</ele><time>2011-09-16T09:14:31Z</time></trkpt><trkpt lat="42.371979" lon="1.193306"><ele>1389.72</ele><time>2011-09-16T09:14:32Z</time></trkpt><trkpt lat="42.371936" lon="1.193559"><ele>1391.65</ele><time>2011-09-16T09:14:33Z</time></trkpt><trkpt lat="42.371890" lon="1.193814"><ele>1393.57</ele><time>2011-09-16T09:14:34Z</time></trkpt><trkpt lat="42.371673" lon="1.194569"><ele>1398.86</ele><time>2011-09-16T09:14:37Z</time></trkpt><trkpt lat="42.371568" lon="1.194806"><ele>1400.30</ele><time>2011-09-16T09:14:38Z</time></trkpt><trkpt lat="42.371453" lon="1.195029"><ele>1401.74</ele><time>2011-09-16T09:14:39Z</time></trkpt><trkpt lat="42.371138" lon="1.195705"><ele>1405.58</ele><time>2011-09-16T09:14:42Z</time></trkpt><trkpt lat="42.371068" lon="1.195958"><ele>1407.51</ele><time>2011-09-16T09:14:43Z</time></trkpt><trkpt lat="42.371023" lon="1.196230"><ele>1409.43</ele><time>2011-09-16T09:14:44Z</time></trkpt><trkpt lat="42.370730" lon="1.198413"><ele>1423.37</ele><time>2011-09-16T09:14:52Z</time></trkpt><trkpt lat="42.369970" lon="1.201279"><ele>1441.15</ele><time>2011-09-16T09:15:03Z</time></trkpt><trkpt lat="42.369877" lon="1.203734"><ele>1456.53</ele><time>2011-09-16T09:15:12Z</time></trkpt><trkpt lat="42.369839" lon="1.203995"><ele>1458.46</ele><time>2011-09-16T09:15:13Z</time></trkpt><trkpt lat="42.369784" lon="1.204247"><ele>1459.90</ele><time>2011-09-16T09:15:14Z</time></trkpt><trkpt lat="42.369717" lon="1.204488"><ele>1461.82</ele><time>2011-09-16T09:15:15Z</time></trkpt><trkpt lat="42.369483" lon="1.205342"><ele>1468.07</ele><time>2011-09-16T09:15:19Z</time></trkpt><trkpt lat="42.369458" lon="1.205564"><ele>1469.51</ele><time>2011-09-16T09:15:20Z</time></trkpt><trkpt lat="42.369450" lon="1.205787"><ele>1470.95</ele><time>2011-09-16T09:15:21Z</time></trkpt><trkpt lat="42.369474" lon="1.206015"><ele>1471.92</ele><time>2011-09-16T09:15:22Z</time></trkpt><trkpt lat="42.369519" lon="1.206240"><ele>1473.36</ele><time>2011-09-16T09:15:23Z</time></trkpt><trkpt lat="42.369589" lon="1.206460"><ele>1474.80</ele><time>2011-09-16T09:15:24Z</time></trkpt><trkpt lat="42.369682" lon="1.206670"><ele>1475.76</ele><time>2011-09-16T09:15:25Z</time></trkpt><trkpt lat="42.369793" lon="1.206865"><ele>1476.72</ele><time>2011-09-16T09:15:26Z</time></trkpt><trkpt lat="42.369920" lon="1.207048"><ele>1478.16</ele><time>2011-09-16T09:15:27Z</time></trkpt><trkpt lat="42.370055" lon="1.207226"><ele>1479.61</ele><time>2011-09-16T09:15:28Z</time></trkpt><trkpt lat="42.371289" lon="1.209080"><ele>1494.51</ele><time>2011-09-16T09:15:38Z</time></trkpt><trkpt lat="42.371440" lon="1.209503"><ele>1496.91</ele><time>2011-09-16T09:15:40Z</time></trkpt><trkpt lat="42.371487" lon="1.209720"><ele>1497.87</ele><time>2011-09-16T09:15:41Z</time></trkpt><trkpt lat="42.371507" lon="1.209941"><ele>1498.83</ele><time>2011-09-16T09:15:42Z</time></trkpt><trkpt lat="42.371498" lon="1.210165"><ele>1499.79</ele><time>2011-09-16T09:15:43Z</time></trkpt><trkpt lat="42.371463" lon="1.210386"><ele>1500.76</ele><time>2011-09-16T09:15:44Z</time></trkpt><trkpt lat="42.371400" lon="1.210599"><ele>1501.72</ele><time>2011-09-16T09:15:45Z</time></trkpt><trkpt lat="42.371335" lon="1.210814"><ele>1502.68</ele><time>2011-09-16T09:15:46Z</time></trkpt><trkpt lat="42.371171" lon="1.211436"><ele>1506.52</ele><time>2011-09-16T09:15:49Z</time></trkpt><trkpt lat="42.371161" lon="1.211628"><ele>1507.48</ele><time>2011-09-16T09:15:50Z</time></trkpt><trkpt lat="42.371184" lon="1.211809"><ele>1508.45</ele><time>2011-09-16T09:15:51Z</time></trkpt><trkpt lat="42.371261" lon="1.211950"><ele>1509.89</ele><time>2011-09-16T09:15:52Z</time></trkpt><trkpt lat="42.371359" lon="1.212047"><ele>1511.33</ele><time>2011-09-16T09:15:53Z</time></trkpt><trkpt lat="42.371462" lon="1.212133"><ele>1512.77</ele><time>2011-09-16T09:15:54Z</time></trkpt><trkpt lat="42.371580" lon="1.212180"><ele>1514.21</ele><time>2011-09-16T09:15:55Z</time></trkpt><trkpt lat="42.371714" lon="1.212151"><ele>1515.18</ele><time>2011-09-16T09:15:56Z</time></trkpt><trkpt lat="42.371839" lon="1.212104"><ele>1516.14</ele><time>2011-09-16T09:15:57Z</time></trkpt><trkpt lat="42.371967" lon="1.212019"><ele>1517.10</ele><time>2011-09-16T09:15:58Z</time></trkpt><trkpt lat="42.372070" lon="1.211897"><ele>1518.54</ele><time>2011-09-16T09:15:59Z</time></trkpt><trkpt lat="42.372155" lon="1.211749"><ele>1519.50</ele><time>2011-09-16T09:16:00Z</time></trkpt><trkpt lat="42.372218" lon="1.211566"><ele>1520.94</ele><time>2011-09-16T09:16:01Z</time></trkpt><trkpt lat="42.372258" lon="1.211357"><ele>1521.90</ele><time>2011-09-16T09:16:02Z</time></trkpt><trkpt lat="42.372293" lon="1.211139"><ele>1523.35</ele><time>2011-09-16T09:16:03Z</time></trkpt><trkpt lat="42.372760" lon="1.209592"><ele>1532.48</ele><time>2011-09-16T09:16:10Z</time></trkpt><trkpt lat="42.373050" lon="1.208773"><ele>1537.77</ele><time>2011-09-16T09:16:14Z</time></trkpt><trkpt lat="42.373083" lon="1.208575"><ele>1538.73</ele><time>2011-09-16T09:16:15Z</time></trkpt><trkpt lat="42.373078" lon="1.208376"><ele>1540.17</ele><time>2011-09-16T09:16:16Z</time></trkpt><trkpt lat="42.373036" lon="1.208178"><ele>1541.13</ele><time>2011-09-16T09:16:17Z</time></trkpt><trkpt lat="42.372960" lon="1.207989"><ele>1542.57</ele><time>2011-09-16T09:16:18Z</time></trkpt><trkpt lat="42.372850" lon="1.207803"><ele>1543.53</ele><time>2011-09-16T09:16:19Z</time></trkpt><trkpt lat="42.372722" lon="1.207616"><ele>1544.98</ele><time>2011-09-16T09:16:20Z</time></trkpt><trkpt lat="42.372083" lon="1.206564"><ele>1552.19</ele><time>2011-09-16T09:16:26Z</time></trkpt><trkpt lat="42.372036" lon="1.206375"><ele>1552.67</ele><time>2011-09-16T09:16:27Z</time></trkpt><trkpt lat="42.372017" lon="1.206165"><ele>1553.15</ele><time>2011-09-16T09:16:28Z</time></trkpt><trkpt lat="42.372021" lon="1.205936"><ele>1553.63</ele><time>2011-09-16T09:16:29Z</time></trkpt><trkpt lat="42.372038" lon="1.205690"><ele>1554.11</ele><time>2011-09-16T09:16:30Z</time></trkpt><trkpt lat="42.372150" lon="1.203613"><ele>1561.80</ele><time>2011-09-16T09:16:38Z</time></trkpt><trkpt lat="42.372190" lon="1.202771"><ele>1565.64</ele><time>2011-09-16T09:16:42Z</time></trkpt><trkpt lat="42.372237" lon="1.202614"><ele>1566.61</ele><time>2011-09-16T09:16:43Z</time></trkpt><trkpt lat="42.372306" lon="1.202481"><ele>1567.57</ele><time>2011-09-16T09:16:44Z</time></trkpt><trkpt lat="42.372392" lon="1.202374"><ele>1569.01</ele><time>2011-09-16T09:16:45Z</time></trkpt><trkpt lat="42.372506" lon="1.202329"><ele>1570.45</ele><time>2011-09-16T09:16:46Z</time></trkpt><trkpt lat="42.372642" lon="1.202310"><ele>1571.41</ele><time>2011-09-16T09:16:47Z</time></trkpt><trkpt lat="42.372779" lon="1.202330"><ele>1572.37</ele><time>2011-09-16T09:16:48Z</time></trkpt><trkpt lat="42.372906" lon="1.202408"><ele>1572.85</ele><time>2011-09-16T09:16:49Z</time></trkpt><trkpt lat="42.373019" lon="1.202517"><ele>1573.82</ele><time>2011-09-16T09:16:50Z</time></trkpt><trkpt lat="42.373117" lon="1.202661"><ele>1574.78</ele><time>2011-09-16T09:16:51Z</time></trkpt><trkpt lat="42.373162" lon="1.202840"><ele>1575.74</ele><time>2011-09-16T09:16:52Z</time></trkpt><trkpt lat="42.373177" lon="1.203040"><ele>1576.70</ele><time>2011-09-16T09:16:53Z</time></trkpt><trkpt lat="42.373164" lon="1.203244"><ele>1578.14</ele><time>2011-09-16T09:16:54Z</time></trkpt><trkpt lat="42.373121" lon="1.203451"><ele>1579.10</ele><time>2011-09-16T09:16:55Z</time></trkpt><trkpt lat="42.373059" lon="1.203662"><ele>1580.06</ele><time>2011-09-16T09:16:56Z</time></trkpt><trkpt lat="42.372997" lon="1.203876"><ele>1581.51</ele><time>2011-09-16T09:16:57Z</time></trkpt><trkpt lat="42.372948" lon="1.204099"><ele>1582.95</ele><time>2011-09-16T09:16:58Z</time></trkpt><trkpt lat="42.372925" lon="1.204336"><ele>1583.91</ele><time>2011-09-16T09:16:59Z</time></trkpt><trkpt lat="42.372927" lon="1.204579"><ele>1584.87</ele><time>2011-09-16T09:17:00Z</time></trkpt><trkpt lat="42.372943" lon="1.204820"><ele>1585.83</ele><time>2011-09-16T09:17:01Z</time></trkpt><trkpt lat="42.372964" lon="1.205053"><ele>1587.27</ele><time>2011-09-16T09:17:02Z</time></trkpt><trkpt lat="42.373049" lon="1.205657"><ele>1589.68</ele><time>2011-09-16T09:17:05Z</time></trkpt><trkpt lat="42.373113" lon="1.205821"><ele>1590.16</ele><time>2011-09-16T09:17:06Z</time></trkpt><trkpt lat="42.373205" lon="1.205964"><ele>1591.12</ele><time>2011-09-16T09:17:07Z</time></trkpt><trkpt lat="42.373338" lon="1.206050"><ele>1591.60</ele><time>2011-09-16T09:17:08Z</time></trkpt><trkpt lat="42.373492" lon="1.206104"><ele>1592.08</ele><time>2011-09-16T09:17:09Z</time></trkpt><trkpt lat="42.373651" lon="1.206132"><ele>1593.04</ele><time>2011-09-16T09:17:10Z</time></trkpt><trkpt lat="42.373819" lon="1.206126"><ele>1593.52</ele><time>2011-09-16T09:17:11Z</time></trkpt><trkpt lat="42.373987" lon="1.206110"><ele>1594.00</ele><time>2011-09-16T09:17:12Z</time></trkpt><trkpt lat="42.374700" lon="1.206122"><ele>1598.33</ele><time>2011-09-16T09:17:17Z</time></trkpt><trkpt lat="42.374807" lon="1.206166"><ele>1598.81</ele><time>2011-09-16T09:17:18Z</time></trkpt><trkpt lat="42.374900" lon="1.206224"><ele>1599.77</ele><time>2011-09-16T09:17:19Z</time></trkpt><trkpt lat="42.374984" lon="1.206296"><ele>1600.25</ele><time>2011-09-16T09:17:20Z</time></trkpt><trkpt lat="42.375062" lon="1.206387"><ele>1600.73</ele><time>2011-09-16T09:17:21Z</time></trkpt><trkpt lat="42.375128" lon="1.206506"><ele>1601.21</ele><time>2011-09-16T09:17:22Z</time></trkpt><trkpt lat="42.375158" lon="1.206686"><ele>1602.17</ele><time>2011-09-16T09:17:23Z</time></trkpt><trkpt lat="42.375168" lon="1.206865"><ele>1603.14</ele><time>2011-09-16T09:17:24Z</time></trkpt><trkpt lat="42.375168" lon="1.207057"><ele>1604.10</ele><time>2011-09-16T09:17:25Z</time></trkpt><trkpt lat="42.375159" lon="1.207261"><ele>1605.06</ele><time>2011-09-16T09:17:26Z</time></trkpt><trkpt lat="42.375047" lon="1.209034"><ele>1615.15</ele><time>2011-09-16T09:17:33Z</time></trkpt><trkpt lat="42.374773" lon="1.212404"><ele>1635.82</ele><time>2011-09-16T09:17:45Z</time></trkpt><trkpt lat="42.374697" lon="1.214536"><ele>1647.36</ele><time>2011-09-16T09:17:53Z</time></trkpt><trkpt lat="42.374648" lon="1.214742"><ele>1648.80</ele><time>2011-09-16T09:17:54Z</time></trkpt><trkpt lat="42.374583" lon="1.214932"><ele>1649.76</ele><time>2011-09-16T09:17:55Z</time></trkpt><trkpt lat="42.374401" lon="1.215456"><ele>1651.20</ele><time>2011-09-16T09:17:58Z</time></trkpt><trkpt lat="42.374380" lon="1.215639"><ele>1651.20</ele><time>2011-09-16T09:17:59Z</time></trkpt><trkpt lat="42.374385" lon="1.215821"><ele>1651.20</ele><time>2011-09-16T09:18:00Z</time></trkpt><trkpt lat="42.374429" lon="1.216002"><ele>1651.20</ele><time>2011-09-16T09:18:01Z</time></trkpt><trkpt lat="42.374524" lon="1.216187"><ele>1651.20</ele><time>2011-09-16T09:18:02Z</time></trkpt><trkpt lat="42.374635" lon="1.216371"><ele>1650.72</ele><time>2011-09-16T09:18:03Z</time></trkpt><trkpt lat="42.374749" lon="1.216559"><ele>1650.72</ele><time>2011-09-16T09:18:04Z</time></trkpt><trkpt lat="42.375240" lon="1.217447"><ele>1651.20</ele><time>2011-09-16T09:18:09Z</time></trkpt><trkpt lat="42.375296" lon="1.217634"><ele>1651.68</ele><time>2011-09-16T09:18:10Z</time></trkpt><trkpt lat="42.375318" lon="1.217835"><ele>1652.16</ele><time>2011-09-16T09:18:11Z</time></trkpt><trkpt lat="42.375311" lon="1.218044"><ele>1653.12</ele><time>2011-09-16T09:18:12Z</time></trkpt><trkpt lat="42.375293" lon="1.218261"><ele>1653.60</ele><time>2011-09-16T09:18:13Z</time></trkpt><trkpt lat="42.375183" lon="1.219639"><ele>1659.37</ele><time>2011-09-16T09:18:20Z</time></trkpt><trkpt lat="42.375198" lon="1.219813"><ele>1659.37</ele><time>2011-09-16T09:18:21Z</time></trkpt><trkpt lat="42.375223" lon="1.219992"><ele>1658.89</ele><time>2011-09-16T09:18:22Z</time></trkpt><trkpt lat="42.375323" lon="1.221814"><ele>1653.60</ele><time>2011-09-16T09:18:31Z</time></trkpt><trkpt lat="42.375338" lon="1.222199"><ele>1652.16</ele><time>2011-09-16T09:18:33Z</time></trkpt><trkpt lat="42.375379" lon="1.222369"><ele>1651.68</ele><time>2011-09-16T09:18:34Z</time></trkpt><trkpt lat="42.375449" lon="1.222525"><ele>1650.72</ele><time>2011-09-16T09:18:35Z</time></trkpt><trkpt lat="42.375548" lon="1.222675"><ele>1650.24</ele><time>2011-09-16T09:18:36Z</time></trkpt><trkpt lat="42.375659" lon="1.222821"><ele>1649.28</ele><time>2011-09-16T09:18:37Z</time></trkpt><trkpt lat="42.375772" lon="1.222961"><ele>1648.32</ele><time>2011-09-16T09:18:38Z</time></trkpt><trkpt lat="42.375886" lon="1.223085"><ele>1647.36</ele><time>2011-09-16T09:18:39Z</time></trkpt><trkpt lat="42.376015" lon="1.223166"><ele>1646.88</ele><time>2011-09-16T09:18:40Z</time></trkpt><trkpt lat="42.376452" lon="1.223112"><ele>1644.47</ele><time>2011-09-16T09:18:43Z</time></trkpt><trkpt lat="42.376590" lon="1.223078"><ele>1643.03</ele><time>2011-09-16T09:18:44Z</time></trkpt><trkpt lat="42.376957" lon="1.223079"><ele>1640.63</ele><time>2011-09-16T09:18:46Z</time></trkpt><trkpt lat="42.377118" lon="1.223143"><ele>1640.15</ele><time>2011-09-16T09:18:47Z</time></trkpt><trkpt lat="42.377265" lon="1.223244"><ele>1638.70</ele><time>2011-09-16T09:18:48Z</time></trkpt><trkpt lat="42.377663" lon="1.223569"><ele>1635.82</ele><time>2011-09-16T09:18:51Z</time></trkpt><trkpt lat="42.377748" lon="1.223708"><ele>1635.34</ele><time>2011-09-16T09:18:52Z</time></trkpt><trkpt lat="42.377807" lon="1.223873"><ele>1634.86</ele><time>2011-09-16T09:18:53Z</time></trkpt><trkpt lat="42.377846" lon="1.224051"><ele>1634.38</ele><time>2011-09-16T09:18:54Z</time></trkpt><trkpt lat="42.377845" lon="1.224234"><ele>1633.90</ele><time>2011-09-16T09:18:55Z</time></trkpt><trkpt lat="42.377808" lon="1.224413"><ele>1633.42</ele><time>2011-09-16T09:18:56Z</time></trkpt><trkpt lat="42.377740" lon="1.224575"><ele>1632.94</ele><time>2011-09-16T09:18:57Z</time></trkpt><trkpt lat="42.377613" lon="1.224699"><ele>1632.46</ele><time>2011-09-16T09:18:58Z</time></trkpt><trkpt lat="42.377478" lon="1.224798"><ele>1631.98</ele><time>2011-09-16T09:18:59Z</time></trkpt><trkpt lat="42.377327" lon="1.224868"><ele>1631.49</ele><time>2011-09-16T09:19:00Z</time></trkpt><trkpt lat="42.377170" lon="1.224899"><ele>1631.01</ele><time>2011-09-16T09:19:01Z</time></trkpt><trkpt lat="42.377013" lon="1.224894"><ele>1630.53</ele><time>2011-09-16T09:19:02Z</time></trkpt><trkpt lat="42.376858" lon="1.224895"><ele>1630.53</ele><time>2011-09-16T09:19:03Z</time></trkpt><trkpt lat="42.376365" lon="1.224999"><ele>1630.05</ele><time>2011-09-16T09:19:06Z</time></trkpt><trkpt lat="42.376191" lon="1.225089"><ele>1631.01</ele><time>2011-09-16T09:19:07Z</time></trkpt><trkpt lat="42.376023" lon="1.225193"><ele>1631.98</ele><time>2011-09-16T09:19:08Z</time></trkpt><trkpt lat="42.375867" lon="1.225308"><ele>1633.42</ele><time>2011-09-16T09:19:09Z</time></trkpt><trkpt lat="42.375721" lon="1.225443"><ele>1634.38</ele><time>2011-09-16T09:19:10Z</time></trkpt><trkpt lat="42.375579" lon="1.225604"><ele>1635.82</ele><time>2011-09-16T09:19:11Z</time></trkpt><trkpt lat="42.375442" lon="1.225785"><ele>1637.26</ele><time>2011-09-16T09:19:12Z</time></trkpt><trkpt lat="42.374513" lon="1.227071"><ele>1646.40</ele><time>2011-09-16T09:19:19Z</time></trkpt><trkpt lat="42.374400" lon="1.227290"><ele>1648.80</ele><time>2011-09-16T09:19:20Z</time></trkpt><trkpt lat="42.374301" lon="1.227530"><ele>1651.20</ele><time>2011-09-16T09:19:21Z</time></trkpt><trkpt lat="42.373533" lon="1.230202"><ele>1668.51</ele><time>2011-09-16T09:19:31Z</time></trkpt><trkpt lat="42.372819" lon="1.231938"><ele>1680.04</ele><time>2011-09-16T09:19:38Z</time></trkpt><trkpt lat="42.372127" lon="1.233130"><ele>1689.65</ele><time>2011-09-16T09:19:44Z</time></trkpt><trkpt lat="42.371998" lon="1.233261"><ele>1691.10</ele><time>2011-09-16T09:19:45Z</time></trkpt><trkpt lat="42.371852" lon="1.233364"><ele>1692.06</ele><time>2011-09-16T09:19:46Z</time></trkpt><trkpt lat="42.371689" lon="1.233440"><ele>1693.02</ele><time>2011-09-16T09:19:47Z</time></trkpt><trkpt lat="42.371512" lon="1.233505"><ele>1693.98</ele><time>2011-09-16T09:19:48Z</time></trkpt><trkpt lat="42.370812" lon="1.233828"><ele>1698.79</ele><time>2011-09-16T09:19:52Z</time></trkpt><trkpt lat="42.370669" lon="1.233961"><ele>1700.23</ele><time>2011-09-16T09:19:53Z</time></trkpt><trkpt lat="42.370563" lon="1.234135"><ele>1702.63</ele><time>2011-09-16T09:19:54Z</time></trkpt><trkpt lat="42.370472" lon="1.234335"><ele>1704.55</ele><time>2011-09-16T09:19:55Z</time></trkpt><trkpt lat="42.370393" lon="1.234553"><ele>1706.00</ele><time>2011-09-16T09:19:56Z</time></trkpt><trkpt lat="42.370325" lon="1.234776"><ele>1707.44</ele><time>2011-09-16T09:19:57Z</time></trkpt><trkpt lat="42.370118" lon="1.236213"><ele>1716.57</ele><time>2011-09-16T09:20:04Z</time></trkpt><trkpt lat="42.370083" lon="1.237004"><ele>1719.94</ele><time>2011-09-16T09:20:11Z</time></trkpt><trkpt lat="42.370076" lon="1.237069"><ele>1719.94</ele><time>2011-09-16T09:20:12Z</time></trkpt><trkpt lat="42.370074" lon="1.237132"><ele>1720.42</ele><time>2011-09-16T09:20:13Z</time></trkpt><trkpt lat="42.370075" lon="1.237194"><ele>1720.42</ele><time>2011-09-16T09:20:14Z</time></trkpt><trkpt lat="42.370200" lon="1.237791"><ele>1719.94</ele><time>2011-09-16T09:20:27Z</time></trkpt><trkpt lat="42.370290" lon="1.237873"><ele>1719.46</ele><time>2011-09-16T09:20:38Z</time></trkpt><trkpt lat="42.370329" lon="1.237893"><ele>1720.90</ele><time>2011-09-16T09:20:49Z</time></trkpt><trkpt lat="42.370333" lon="1.237878"><ele>1720.90</ele><time>2011-09-16T09:21:48Z</time></trkpt><trkpt lat="42.370356" lon="1.237903"><ele>1723.30</ele><time>2011-09-16T09:33:26Z</time></trkpt><trkpt lat="42.370390" lon="1.237933"><ele>1723.30</ele><time>2011-09-16T09:33:27Z</time></trkpt><trkpt lat="42.370427" lon="1.237991"><ele>1722.82</ele><time>2011-09-16T09:33:28Z</time></trkpt><trkpt lat="42.370464" lon="1.238075"><ele>1722.82</ele><time>2011-09-16T09:33:29Z</time></trkpt><trkpt lat="42.370852" lon="1.239085"><ele>1721.38</ele><time>2011-09-16T09:33:37Z</time></trkpt><trkpt lat="42.371130" lon="1.240529"><ele>1718.01</ele><time>2011-09-16T09:33:44Z</time></trkpt><trkpt lat="42.371556" lon="1.242009"><ele>1715.61</ele><time>2011-09-16T09:33:51Z</time></trkpt><trkpt lat="42.372271" lon="1.243428"><ele>1712.25</ele><time>2011-09-16T09:33:58Z</time></trkpt><trkpt lat="42.372331" lon="1.243672"><ele>1711.28</ele><time>2011-09-16T09:33:59Z</time></trkpt><trkpt lat="42.372366" lon="1.243922"><ele>1710.80</ele><time>2011-09-16T09:34:00Z</time></trkpt><trkpt lat="42.372375" lon="1.244175"><ele>1710.32</ele><time>2011-09-16T09:34:01Z</time></trkpt><trkpt lat="42.372361" lon="1.244427"><ele>1709.84</ele><time>2011-09-16T09:34:02Z</time></trkpt><trkpt lat="42.372324" lon="1.244673"><ele>1709.36</ele><time>2011-09-16T09:34:03Z</time></trkpt><trkpt lat="42.372266" lon="1.244915"><ele>1708.88</ele><time>2011-09-16T09:34:04Z</time></trkpt><trkpt lat="42.372189" lon="1.245158"><ele>1708.40</ele><time>2011-09-16T09:34:05Z</time></trkpt><trkpt lat="42.372100" lon="1.245409"><ele>1707.44</ele><time>2011-09-16T09:34:06Z</time></trkpt><trkpt lat="42.371032" lon="1.248126"><ele>1697.83</ele><time>2011-09-16T09:34:16Z</time></trkpt><trkpt lat="42.369834" lon="1.250040"><ele>1686.29</ele><time>2011-09-16T09:34:24Z</time></trkpt><trkpt lat="42.369225" lon="1.250864"><ele>1680.04</ele><time>2011-09-16T09:34:28Z</time></trkpt><trkpt lat="42.369105" lon="1.251090"><ele>1678.12</ele><time>2011-09-16T09:34:29Z</time></trkpt><trkpt lat="42.368997" lon="1.251330"><ele>1676.68</ele><time>2011-09-16T09:34:30Z</time></trkpt><trkpt lat="42.368900" lon="1.251581"><ele>1675.72</ele><time>2011-09-16T09:34:31Z</time></trkpt><trkpt lat="42.368814" lon="1.251848"><ele>1674.27</ele><time>2011-09-16T09:34:32Z</time></trkpt><trkpt lat="42.368745" lon="1.252131"><ele>1673.31</ele><time>2011-09-16T09:34:33Z</time></trkpt><trkpt lat="42.368695" lon="1.252426"><ele>1671.87</ele><time>2011-09-16T09:34:34Z</time></trkpt><trkpt lat="42.368654" lon="1.252727"><ele>1670.91</ele><time>2011-09-16T09:34:35Z</time></trkpt><trkpt lat="42.368375" lon="1.254401"><ele>1663.70</ele><time>2011-09-16T09:34:41Z</time></trkpt><trkpt lat="42.368282" lon="1.254636"><ele>1662.26</ele><time>2011-09-16T09:34:42Z</time></trkpt><trkpt lat="42.368165" lon="1.254851"><ele>1660.81</ele><time>2011-09-16T09:34:43Z</time></trkpt><trkpt lat="42.368023" lon="1.255047"><ele>1659.37</ele><time>2011-09-16T09:34:44Z</time></trkpt><trkpt lat="42.367863" lon="1.255230"><ele>1657.93</ele><time>2011-09-16T09:34:45Z</time></trkpt><trkpt lat="42.367689" lon="1.255407"><ele>1656.01</ele><time>2011-09-16T09:34:46Z</time></trkpt><trkpt lat="42.366703" lon="1.256502"><ele>1646.88</ele><time>2011-09-16T09:34:52Z</time></trkpt><trkpt lat="42.366582" lon="1.256718"><ele>1645.91</ele><time>2011-09-16T09:34:53Z</time></trkpt><trkpt lat="42.365614" lon="1.258645"><ele>1637.74</ele><time>2011-09-16T09:35:01Z</time></trkpt><trkpt lat="42.364825" lon="1.260695"><ele>1628.61</ele><time>2011-09-16T09:35:09Z</time></trkpt><trkpt lat="42.364778" lon="1.260966"><ele>1627.65</ele><time>2011-09-16T09:35:10Z</time></trkpt><trkpt lat="42.364747" lon="1.261245"><ele>1626.21</ele><time>2011-09-16T09:35:11Z</time></trkpt><trkpt lat="42.364665" lon="1.262616"><ele>1620.92</ele><time>2011-09-16T09:35:16Z</time></trkpt><trkpt lat="42.364617" lon="1.262860"><ele>1619.48</ele><time>2011-09-16T09:35:17Z</time></trkpt><trkpt lat="42.364546" lon="1.263090"><ele>1618.04</ele><time>2011-09-16T09:35:18Z</time></trkpt><trkpt lat="42.364447" lon="1.263300"><ele>1617.07</ele><time>2011-09-16T09:35:19Z</time></trkpt><trkpt lat="42.364323" lon="1.263493"><ele>1615.63</ele><time>2011-09-16T09:35:20Z</time></trkpt><trkpt lat="42.364179" lon="1.263673"><ele>1614.67</ele><time>2011-09-16T09:35:21Z</time></trkpt><trkpt lat="42.364019" lon="1.263846"><ele>1613.23</ele><time>2011-09-16T09:35:22Z</time></trkpt><trkpt lat="42.362143" lon="1.265819"><ele>1602.17</ele><time>2011-09-16T09:35:33Z</time></trkpt><trkpt lat="42.361999" lon="1.266029"><ele>1601.69</ele><time>2011-09-16T09:35:34Z</time></trkpt><trkpt lat="42.361861" lon="1.266264"><ele>1600.73</ele><time>2011-09-16T09:35:35Z</time></trkpt><trkpt lat="42.360267" lon="1.269298"><ele>1590.16</ele><time>2011-09-16T09:35:47Z</time></trkpt><trkpt lat="42.359157" lon="1.270925"><ele>1585.35</ele><time>2011-09-16T09:35:54Z</time></trkpt><trkpt lat="42.357700" lon="1.273397"><ele>1581.51</ele><time>2011-09-16T09:36:04Z</time></trkpt><trkpt lat="42.356423" lon="1.274648"><ele>1578.14</ele><time>2011-09-16T09:36:11Z</time></trkpt><trkpt lat="42.354926" lon="1.276592"><ele>1571.41</ele><time>2011-09-16T09:36:20Z</time></trkpt><trkpt lat="42.353770" lon="1.278402"><ele>1571.41</ele><time>2011-09-16T09:36:28Z</time></trkpt><trkpt lat="42.352462" lon="1.280989"><ele>1570.45</ele><time>2011-09-16T09:36:38Z</time></trkpt><trkpt lat="42.351185" lon="1.282803"><ele>1570.93</ele><time>2011-09-16T09:36:46Z</time></trkpt><trkpt lat="42.349140" lon="1.286213"><ele>1569.97</ele><time>2011-09-16T09:37:00Z</time></trkpt><trkpt lat="42.347456" lon="1.288589"><ele>1569.97</ele><time>2011-09-16T09:37:11Z</time></trkpt><trkpt lat="42.347307" lon="1.288736"><ele>1569.97</ele><time>2011-09-16T09:37:12Z</time></trkpt><trkpt lat="42.347143" lon="1.288854"><ele>1569.97</ele><time>2011-09-16T09:37:13Z</time></trkpt><trkpt lat="42.346968" lon="1.288940"><ele>1569.97</ele><time>2011-09-16T09:37:14Z</time></trkpt><trkpt lat="42.346781" lon="1.288968"><ele>1569.97</ele><time>2011-09-16T09:37:15Z</time></trkpt><trkpt lat="42.346591" lon="1.288970"><ele>1569.97</ele><time>2011-09-16T09:37:16Z</time></trkpt><trkpt lat="42.346399" lon="1.288958"><ele>1570.45</ele><time>2011-09-16T09:37:17Z</time></trkpt><trkpt lat="42.345645" lon="1.288975"><ele>1571.41</ele><time>2011-09-16T09:37:21Z</time></trkpt><trkpt lat="42.345463" lon="1.289043"><ele>1571.41</ele><time>2011-09-16T09:37:22Z</time></trkpt><trkpt lat="42.345285" lon="1.289146"><ele>1571.41</ele><time>2011-09-16T09:37:23Z</time></trkpt><trkpt lat="42.343805" lon="1.290333"><ele>1570.93</ele><time>2011-09-16T09:37:32Z</time></trkpt><trkpt lat="42.343170" lon="1.291603"><ele>1568.53</ele><time>2011-09-16T09:37:38Z</time></trkpt><trkpt lat="42.342135" lon="1.294666"><ele>1569.97</ele><time>2011-09-16T09:37:50Z</time></trkpt><trkpt lat="42.341305" lon="1.297156"><ele>1574.30</ele><time>2011-09-16T09:38:02Z</time></trkpt><trkpt lat="42.341221" lon="1.297649"><ele>1575.26</ele><time>2011-09-16T09:38:06Z</time></trkpt><trkpt lat="42.341223" lon="1.297726"><ele>1575.74</ele><time>2011-09-16T09:38:07Z</time></trkpt><trkpt lat="42.341228" lon="1.297794"><ele>1575.74</ele><time>2011-09-16T09:38:08Z</time></trkpt><trkpt lat="42.341334" lon="1.298323"><ele>1576.70</ele><time>2011-09-16T09:38:19Z</time></trkpt><trkpt lat="42.341354" lon="1.298335"><ele>1576.22</ele><time>2011-09-16T09:38:39Z</time></trkpt><trkpt lat="42.341405" lon="1.298512"><ele>1575.74</ele><time>2011-09-16T09:38:44Z</time></trkpt><trkpt lat="42.341433" lon="1.298568"><ele>1575.74</ele><time>2011-09-16T09:38:45Z</time></trkpt><trkpt lat="42.341474" lon="1.298621"><ele>1575.26</ele><time>2011-09-16T09:38:46Z</time></trkpt><trkpt lat="42.341523" lon="1.298670"><ele>1575.26</ele><time>2011-09-16T09:38:47Z</time></trkpt><trkpt lat="42.341581" lon="1.298714"><ele>1574.78</ele><time>2011-09-16T09:38:48Z</time></trkpt><trkpt lat="42.341643" lon="1.298749"><ele>1574.78</ele><time>2011-09-16T09:38:49Z</time></trkpt><trkpt lat="42.341706" lon="1.298771"><ele>1574.30</ele><time>2011-09-16T09:38:50Z</time></trkpt><trkpt lat="42.341768" lon="1.298776"><ele>1573.82</ele><time>2011-09-16T09:38:51Z</time></trkpt><trkpt lat="42.341828" lon="1.298767"><ele>1573.33</ele><time>2011-09-16T09:38:52Z</time></trkpt><trkpt lat="42.341885" lon="1.298746"><ele>1572.85</ele><time>2011-09-16T09:38:53Z</time></trkpt><trkpt lat="42.341942" lon="1.298719"><ele>1572.85</ele><time>2011-09-16T09:38:54Z</time></trkpt><trkpt lat="42.342047" lon="1.298663"><ele>1571.89</ele><time>2011-09-16T09:38:56Z</time></trkpt><trkpt lat="42.342093" lon="1.298626"><ele>1571.89</ele><time>2011-09-16T09:38:57Z</time></trkpt><trkpt lat="42.342393" lon="1.298362"><ele>1569.01</ele><time>2011-09-16T09:39:01Z</time></trkpt><trkpt lat="42.342488" lon="1.298252"><ele>1568.05</ele><time>2011-09-16T09:39:02Z</time></trkpt><trkpt lat="42.343242" lon="1.297474"><ele>1561.80</ele><time>2011-09-16T09:39:08Z</time></trkpt><trkpt lat="42.344957" lon="1.296354"><ele>1547.38</ele><time>2011-09-16T09:39:17Z</time></trkpt><trkpt lat="42.346723" lon="1.295312"><ele>1532.96</ele><time>2011-09-16T09:39:26Z</time></trkpt><trkpt lat="42.346930" lon="1.295231"><ele>1531.04</ele><time>2011-09-16T09:39:27Z</time></trkpt><trkpt lat="42.348695" lon="1.294360"><ele>1514.21</ele><time>2011-09-16T09:39:36Z</time></trkpt><trkpt lat="42.348864" lon="1.294296"><ele>1512.29</ele><time>2011-09-16T09:39:37Z</time></trkpt><trkpt lat="42.349046" lon="1.294287"><ele>1510.85</ele><time>2011-09-16T09:39:38Z</time></trkpt><trkpt lat="42.349227" lon="1.294307"><ele>1509.41</ele><time>2011-09-16T09:39:39Z</time></trkpt><trkpt lat="42.349790" lon="1.294365"><ele>1504.60</ele><time>2011-09-16T09:39:42Z</time></trkpt><trkpt lat="42.349981" lon="1.294312"><ele>1502.68</ele><time>2011-09-16T09:39:43Z</time></trkpt><trkpt lat="42.350168" lon="1.294228"><ele>1500.76</ele><time>2011-09-16T09:39:44Z</time></trkpt><trkpt lat="42.351963" lon="1.293673"><ele>1485.37</ele><time>2011-09-16T09:39:53Z</time></trkpt><trkpt lat="42.353899" lon="1.293544"><ele>1469.03</ele><time>2011-09-16T09:40:02Z</time></trkpt><trkpt lat="42.355307" lon="1.293893"><ele>1458.94</ele><time>2011-09-16T09:40:09Z</time></trkpt><trkpt lat="42.355652" lon="1.294055"><ele>1455.57</ele><time>2011-09-16T09:40:11Z</time></trkpt><trkpt lat="42.355825" lon="1.294100"><ele>1453.65</ele><time>2011-09-16T09:40:12Z</time></trkpt><trkpt lat="42.356007" lon="1.294091"><ele>1451.73</ele><time>2011-09-16T09:40:13Z</time></trkpt><trkpt lat="42.356198" lon="1.294064"><ele>1450.29</ele><time>2011-09-16T09:40:14Z</time></trkpt><trkpt lat="42.356395" lon="1.294028"><ele>1448.36</ele><time>2011-09-16T09:40:15Z</time></trkpt><trkpt lat="42.357948" lon="1.293512"><ele>1434.42</ele><time>2011-09-16T09:40:23Z</time></trkpt><trkpt lat="42.359035" lon="1.293156"><ele>1426.25</ele><time>2011-09-16T09:40:29Z</time></trkpt><trkpt lat="42.359205" lon="1.293144"><ele>1425.29</ele><time>2011-09-16T09:40:30Z</time></trkpt><trkpt lat="42.359367" lon="1.293203"><ele>1424.33</ele><time>2011-09-16T09:40:31Z</time></trkpt><trkpt lat="42.359546" lon="1.293266"><ele>1423.37</ele><time>2011-09-16T09:40:32Z</time></trkpt><trkpt lat="42.359728" lon="1.293334"><ele>1422.41</ele><time>2011-09-16T09:40:33Z</time></trkpt><trkpt lat="42.360257" lon="1.293438"><ele>1419.04</ele><time>2011-09-16T09:40:36Z</time></trkpt><trkpt lat="42.360419" lon="1.293402"><ele>1418.08</ele><time>2011-09-16T09:40:37Z</time></trkpt><trkpt lat="42.360564" lon="1.293348"><ele>1417.12</ele><time>2011-09-16T09:40:38Z</time></trkpt><trkpt lat="42.360689" lon="1.293285"><ele>1416.64</ele><time>2011-09-16T09:40:39Z</time></trkpt><trkpt lat="42.360798" lon="1.293236"><ele>1416.16</ele><time>2011-09-16T09:40:40Z</time></trkpt><trkpt lat="42.360891" lon="1.293232"><ele>1415.20</ele><time>2011-09-16T09:40:41Z</time></trkpt><trkpt lat="42.360961" lon="1.293300"><ele>1414.24</ele><time>2011-09-16T09:40:42Z</time></trkpt><trkpt lat="42.361001" lon="1.293413"><ele>1414.24</ele><time>2011-09-16T09:40:43Z</time></trkpt><trkpt lat="42.360986" lon="1.293533"><ele>1413.76</ele><time>2011-09-16T09:40:44Z</time></trkpt><trkpt lat="42.360917" lon="1.293632"><ele>1413.28</ele><time>2011-09-16T09:40:45Z</time></trkpt><trkpt lat="42.360815" lon="1.293701"><ele>1412.79</ele><time>2011-09-16T09:40:46Z</time></trkpt><trkpt lat="42.360694" lon="1.293751"><ele>1412.31</ele><time>2011-09-16T09:40:47Z</time></trkpt><trkpt lat="42.360552" lon="1.293786"><ele>1411.35</ele><time>2011-09-16T09:40:48Z</time></trkpt><trkpt lat="42.360393" lon="1.293798"><ele>1410.39</ele><time>2011-09-16T09:40:49Z</time></trkpt><trkpt lat="42.360227" lon="1.293801"><ele>1409.91</ele><time>2011-09-16T09:40:50Z</time></trkpt><trkpt lat="42.359897" lon="1.293836"><ele>1408.47</ele><time>2011-09-16T09:40:52Z</time></trkpt><trkpt lat="42.359723" lon="1.293897"><ele>1407.51</ele><time>2011-09-16T09:40:53Z</time></trkpt><trkpt lat="42.359554" lon="1.293986"><ele>1407.03</ele><time>2011-09-16T09:40:54Z</time></trkpt><trkpt lat="42.359393" lon="1.294086"><ele>1405.58</ele><time>2011-09-16T09:40:55Z</time></trkpt><trkpt lat="42.359238" lon="1.294194"><ele>1404.14</ele><time>2011-09-16T09:40:56Z</time></trkpt><trkpt lat="42.358936" lon="1.294375"><ele>1400.78</ele><time>2011-09-16T09:40:58Z</time></trkpt><trkpt lat="42.358782" lon="1.294433"><ele>1399.82</ele><time>2011-09-16T09:40:59Z</time></trkpt><trkpt lat="42.358627" lon="1.294460"><ele>1398.37</ele><time>2011-09-16T09:41:00Z</time></trkpt><trkpt lat="42.358483" lon="1.294467"><ele>1397.41</ele><time>2011-09-16T09:41:01Z</time></trkpt><trkpt lat="42.358356" lon="1.294479"><ele>1396.45</ele><time>2011-09-16T09:41:02Z</time></trkpt><trkpt lat="42.358259" lon="1.294510"><ele>1395.49</ele><time>2011-09-16T09:41:03Z</time></trkpt><trkpt lat="42.358205" lon="1.294601"><ele>1394.53</ele><time>2011-09-16T09:41:04Z</time></trkpt><trkpt lat="42.358216" lon="1.294729"><ele>1394.53</ele><time>2011-09-16T09:41:05Z</time></trkpt><trkpt lat="42.358247" lon="1.294858"><ele>1392.61</ele><time>2011-09-16T09:41:06Z</time></trkpt><trkpt lat="42.358324" lon="1.294947"><ele>1392.61</ele><time>2011-09-16T09:41:07Z</time></trkpt><trkpt lat="42.358416" lon="1.295000"><ele>1392.13</ele><time>2011-09-16T09:41:08Z</time></trkpt><trkpt lat="42.358541" lon="1.294999"><ele>1391.17</ele><time>2011-09-16T09:41:09Z</time></trkpt><trkpt lat="42.358674" lon="1.294991"><ele>1390.68</ele><time>2011-09-16T09:41:10Z</time></trkpt><trkpt lat="42.358832" lon="1.294982"><ele>1390.20</ele><time>2011-09-16T09:41:11Z</time></trkpt><trkpt lat="42.360065" lon="1.295149"><ele>1383.96</ele><time>2011-09-16T09:41:18Z</time></trkpt><trkpt lat="42.360252" lon="1.295101"><ele>1382.99</ele><time>2011-09-16T09:41:19Z</time></trkpt><trkpt lat="42.360430" lon="1.295031"><ele>1381.07</ele><time>2011-09-16T09:41:20Z</time></trkpt><trkpt lat="42.361850" lon="1.294168"><ele>1369.05</ele><time>2011-09-16T09:41:28Z</time></trkpt><trkpt lat="42.363118" lon="1.293128"><ele>1355.60</ele><time>2011-09-16T09:41:35Z</time></trkpt><trkpt lat="42.363269" lon="1.292954"><ele>1353.19</ele><time>2011-09-16T09:41:36Z</time></trkpt><trkpt lat="42.363407" lon="1.292763"><ele>1350.79</ele><time>2011-09-16T09:41:37Z</time></trkpt><trkpt lat="42.363529" lon="1.292566"><ele>1348.87</ele><time>2011-09-16T09:41:38Z</time></trkpt><trkpt lat="42.363632" lon="1.292361"><ele>1346.94</ele><time>2011-09-16T09:41:39Z</time></trkpt><trkpt lat="42.363709" lon="1.292146"><ele>1345.50</ele><time>2011-09-16T09:41:40Z</time></trkpt><trkpt lat="42.363767" lon="1.291929"><ele>1343.58</ele><time>2011-09-16T09:41:41Z</time></trkpt><trkpt lat="42.363826" lon="1.291726"><ele>1341.66</ele><time>2011-09-16T09:41:42Z</time></trkpt><trkpt lat="42.363899" lon="1.291540"><ele>1340.22</ele><time>2011-09-16T09:41:43Z</time></trkpt><trkpt lat="42.364006" lon="1.291392"><ele>1338.29</ele><time>2011-09-16T09:41:44Z</time></trkpt><trkpt lat="42.364136" lon="1.291282"><ele>1336.85</ele><time>2011-09-16T09:41:45Z</time></trkpt><trkpt lat="42.364292" lon="1.291203"><ele>1335.41</ele><time>2011-09-16T09:41:46Z</time></trkpt><trkpt lat="42.364460" lon="1.291171"><ele>1333.97</ele><time>2011-09-16T09:41:47Z</time></trkpt><trkpt lat="42.364636" lon="1.291129"><ele>1333.01</ele><time>2011-09-16T09:41:48Z</time></trkpt><trkpt lat="42.364809" lon="1.291069"><ele>1331.08</ele><time>2011-09-16T09:41:49Z</time></trkpt><trkpt lat="42.364977" lon="1.290965"><ele>1329.64</ele><time>2011-09-16T09:41:50Z</time></trkpt><trkpt lat="42.365131" lon="1.290827"><ele>1328.20</ele><time>2011-09-16T09:41:51Z</time></trkpt><trkpt lat="42.365274" lon="1.290667"><ele>1326.76</ele><time>2011-09-16T09:41:52Z</time></trkpt><trkpt lat="42.365411" lon="1.290498"><ele>1324.83</ele><time>2011-09-16T09:41:53Z</time></trkpt><trkpt lat="42.366134" lon="1.289143"><ele>1313.30</ele><time>2011-09-16T09:42:00Z</time></trkpt><trkpt lat="42.366189" lon="1.288950"><ele>1311.86</ele><time>2011-09-16T09:42:01Z</time></trkpt><trkpt lat="42.366303" lon="1.288527"><ele>1307.05</ele><time>2011-09-16T09:42:04Z</time></trkpt><trkpt lat="42.366364" lon="1.288450"><ele>1305.61</ele><time>2011-09-16T09:42:05Z</time></trkpt><trkpt lat="42.366440" lon="1.288443"><ele>1304.65</ele><time>2011-09-16T09:42:06Z</time></trkpt><trkpt lat="42.366509" lon="1.288474"><ele>1303.20</ele><time>2011-09-16T09:42:07Z</time></trkpt><trkpt lat="42.366539" lon="1.288569"><ele>1302.72</ele><time>2011-09-16T09:42:08Z</time></trkpt><trkpt lat="42.366558" lon="1.288708"><ele>1301.76</ele><time>2011-09-16T09:42:09Z</time></trkpt><trkpt lat="42.366550" lon="1.288852"><ele>1301.76</ele><time>2011-09-16T09:42:10Z</time></trkpt><trkpt lat="42.366519" lon="1.289017"><ele>1301.76</ele><time>2011-09-16T09:42:11Z</time></trkpt><trkpt lat="42.366471" lon="1.289191"><ele>1302.72</ele><time>2011-09-16T09:42:12Z</time></trkpt><trkpt lat="42.366364" lon="1.289773"><ele>1301.76</ele><time>2011-09-16T09:42:15Z</time></trkpt><trkpt lat="42.366349" lon="1.289985"><ele>1301.76</ele><time>2011-09-16T09:42:16Z</time></trkpt><trkpt lat="42.366232" lon="1.291129"><ele>1300.80</ele><time>2011-09-16T09:42:21Z</time></trkpt><trkpt lat="42.366148" lon="1.291311"><ele>1301.28</ele><time>2011-09-16T09:42:22Z</time></trkpt><trkpt lat="42.366041" lon="1.291476"><ele>1300.80</ele><time>2011-09-16T09:42:23Z</time></trkpt><trkpt lat="42.365810" lon="1.291801"><ele>1299.84</ele><time>2011-09-16T09:42:25Z</time></trkpt><trkpt lat="42.365717" lon="1.291977"><ele>1299.84</ele><time>2011-09-16T09:42:26Z</time></trkpt><trkpt lat="42.365653" lon="1.292171"><ele>1299.84</ele><time>2011-09-16T09:42:27Z</time></trkpt><trkpt lat="42.365621" lon="1.292379"><ele>1300.32</ele><time>2011-09-16T09:42:28Z</time></trkpt><trkpt lat="42.365629" lon="1.292612"><ele>1300.80</ele><time>2011-09-16T09:42:29Z</time></trkpt><trkpt lat="42.365632" lon="1.292838"><ele>1303.20</ele><time>2011-09-16T09:42:30Z</time></trkpt><trkpt lat="42.365625" lon="1.293051"><ele>1303.69</ele><time>2011-09-16T09:42:31Z</time></trkpt><trkpt lat="42.365581" lon="1.293244"><ele>1304.65</ele><time>2011-09-16T09:42:32Z</time></trkpt><trkpt lat="42.365509" lon="1.293417"><ele>1305.13</ele><time>2011-09-16T09:42:33Z</time></trkpt><trkpt lat="42.365410" lon="1.293570"><ele>1305.61</ele><time>2011-09-16T09:42:34Z</time></trkpt><trkpt lat="42.365283" lon="1.293708"><ele>1307.53</ele><time>2011-09-16T09:42:35Z</time></trkpt><trkpt lat="42.365157" lon="1.293846"><ele>1309.93</ele><time>2011-09-16T09:42:36Z</time></trkpt><trkpt lat="42.365044" lon="1.293993"><ele>1310.90</ele><time>2011-09-16T09:42:37Z</time></trkpt><trkpt lat="42.364819" lon="1.294502"><ele>1313.30</ele><time>2011-09-16T09:42:40Z</time></trkpt><trkpt lat="42.364797" lon="1.294673"><ele>1315.22</ele><time>2011-09-16T09:42:41Z</time></trkpt><trkpt lat="42.364846" lon="1.294852"><ele>1316.66</ele><time>2011-09-16T09:42:42Z</time></trkpt><trkpt lat="42.364910" lon="1.295022"><ele>1317.62</ele><time>2011-09-16T09:42:43Z</time></trkpt><trkpt lat="42.364976" lon="1.295190"><ele>1318.59</ele><time>2011-09-16T09:42:44Z</time></trkpt><trkpt lat="42.365042" lon="1.295348"><ele>1320.03</ele><time>2011-09-16T09:42:45Z</time></trkpt><trkpt lat="42.365106" lon="1.295489"><ele>1320.99</ele><time>2011-09-16T09:42:46Z</time></trkpt><trkpt lat="42.365155" lon="1.295617"><ele>1321.95</ele><time>2011-09-16T09:42:47Z</time></trkpt><trkpt lat="42.365187" lon="1.295738"><ele>1322.43</ele><time>2011-09-16T09:42:48Z</time></trkpt><trkpt lat="42.365165" lon="1.295823"><ele>1323.39</ele><time>2011-09-16T09:42:49Z</time></trkpt><trkpt lat="42.365087" lon="1.295888"><ele>1324.83</ele><time>2011-09-16T09:42:50Z</time></trkpt><trkpt lat="42.364996" lon="1.295945"><ele>1325.80</ele><time>2011-09-16T09:42:51Z</time></trkpt><trkpt lat="42.364890" lon="1.296001"><ele>1326.76</ele><time>2011-09-16T09:42:52Z</time></trkpt><trkpt lat="42.364773" lon="1.296070"><ele>1328.20</ele><time>2011-09-16T09:42:53Z</time></trkpt><trkpt lat="42.364655" lon="1.296162"><ele>1328.68</ele><time>2011-09-16T09:42:54Z</time></trkpt><trkpt lat="42.364531" lon="1.296283"><ele>1331.56</ele><time>2011-09-16T09:42:55Z</time></trkpt><trkpt lat="42.364419" lon="1.296425"><ele>1333.01</ele><time>2011-09-16T09:42:56Z</time></trkpt><trkpt lat="42.364319" lon="1.296574"><ele>1333.97</ele><time>2011-09-16T09:42:57Z</time></trkpt><trkpt lat="42.364238" lon="1.296730"><ele>1334.93</ele><time>2011-09-16T09:42:58Z</time></trkpt><trkpt lat="42.364178" lon="1.296894"><ele>1335.41</ele><time>2011-09-16T09:42:59Z</time></trkpt><trkpt lat="42.364135" lon="1.297059"><ele>1335.89</ele><time>2011-09-16T09:43:00Z</time></trkpt><trkpt lat="42.364101" lon="1.297234"><ele>1335.41</ele><time>2011-09-16T09:43:01Z</time></trkpt><trkpt lat="42.364063" lon="1.297426"><ele>1335.41</ele><time>2011-09-16T09:43:02Z</time></trkpt><trkpt lat="42.364010" lon="1.297628"><ele>1334.93</ele><time>2011-09-16T09:43:03Z</time></trkpt><trkpt lat="42.363943" lon="1.297830"><ele>1334.45</ele><time>2011-09-16T09:43:04Z</time></trkpt><trkpt lat="42.363870" lon="1.298028"><ele>1333.49</ele><time>2011-09-16T09:43:05Z</time></trkpt><trkpt lat="42.363695" lon="1.298413"><ele>1332.52</ele><time>2011-09-16T09:43:07Z</time></trkpt><trkpt lat="42.363582" lon="1.298593"><ele>1331.56</ele><time>2011-09-16T09:43:08Z</time></trkpt><trkpt lat="42.363444" lon="1.298756"><ele>1330.60</ele><time>2011-09-16T09:43:09Z</time></trkpt><trkpt lat="42.363287" lon="1.298910"><ele>1330.12</ele><time>2011-09-16T09:43:10Z</time></trkpt><trkpt lat="42.363121" lon="1.299056"><ele>1329.16</ele><time>2011-09-16T09:43:11Z</time></trkpt></trkseg></trk></gpx>